<?xml version='1.0' encoding='UTF-8'?><gpx version="1.1" creator="JPX - https://github.com/jenetics/jpx" xmlns="http://www.topografix.com/GPX/1/1"><trk><trkseg><trkpt lat="44.6854791" lon="7.9116361"><ele>192.0</ele><time>2026-04-10T10:28:54.105Z</time></trkpt><trkpt lat="44.6855336" lon="7.9117127"><ele>192.0</ele><time>2026-04-10T10:28:57.106Z</time></trkpt><trkpt lat="44.6855767" lon="7.9117928"><ele>192.0</ele><time>2026-04-10T10:28:59.106Z</time></trkpt><trkpt lat="44.6856097" lon="7.9118959"><ele>192.0</ele><time>2026-04-10T10:29:01.107Z</time></trkpt><trkpt lat="44.6856349" lon="7.9119986"><ele>192.0</ele><time>2026-04-10T10:29:03.124Z</time></trkpt><trkpt lat="44.6856443" lon="7.9121056"><ele>192.0</ele><time>2026-04-10T10:29:05.125Z</time></trkpt><trkpt lat="44.6856265" lon="7.9122199"><ele>191.66666666666666</ele><time>2026-04-10T10:29:07.142Z</time></trkpt><trkpt lat="44.6855899" lon="7.9123233"><ele>191.33333333333334</ele><time>2026-04-10T10:29:09.143Z</time></trkpt><trkpt lat="44.685553" lon="7.9124077"><ele>191.0</ele><time>2026-04-10T10:29:11.143Z</time></trkpt><trkpt lat="44.6854984" lon="7.9124838"><ele>190.66666666666669</ele><time>2026-04-10T10:29:13.143Z</time></trkpt><trkpt lat="44.6854281" lon="7.9125462"><ele>190.33333333333334</ele><time>2026-04-10T10:29:15.162Z</time></trkpt><trkpt lat="44.6853175" lon="7.9126294"><ele>190.0</ele><time>2026-04-10T10:29:17.161Z</time></trkpt><trkpt lat="44.6852606" lon="7.9126687"><ele>189.2</ele><time>2026-04-10T10:29:18.178Z</time></trkpt><trkpt lat="44.6851574" lon="7.9127294"><ele>188.4</ele><time>2026-04-10T10:29:20.096Z</time></trkpt><trkpt lat="44.6851339" lon="7.9128142"><ele>187.60000000000002</ele><time>2026-04-10T10:29:21.095Z</time></trkpt><trkpt lat="44.6850262" lon="7.9128374"><ele>186.8</ele><time>2026-04-10T10:29:26.076Z</time></trkpt><trkpt lat="44.6851155" lon="7.9128261"><ele>186.0</ele><time>2026-04-10T10:29:28.143Z</time></trkpt><trkpt lat="44.6852012" lon="7.9128772"><ele>186.0</ele><time>2026-04-10T10:29:30.077Z</time></trkpt><trkpt lat="44.6852147" lon="7.9127896"><ele>186.0</ele><time>2026-04-10T10:29:43.072Z</time></trkpt><trkpt lat="44.6851656" lon="7.9127195"><ele>186.0</ele><time>2026-04-10T10:30:53.16Z</time></trkpt><trkpt lat="44.6851368" lon="7.9128198"><ele>186.0</ele><time>2026-04-10T10:31:02.073Z</time></trkpt><trkpt lat="44.6851095" lon="7.9129419"><ele>186.0</ele><time>2026-04-10T10:31:05.113Z</time></trkpt><trkpt lat="44.684998" lon="7.9129849"><ele>186.0</ele><time>2026-04-10T10:31:07.131Z</time></trkpt><trkpt lat="44.6849047" lon="7.9130209"><ele>186.0</ele><time>2026-04-10T10:31:09.081Z</time></trkpt><trkpt lat="44.6848126" lon="7.9130612"><ele>186.0</ele><time>2026-04-10T10:31:11.115Z</time></trkpt><trkpt lat="44.6847167" lon="7.9130905"><ele>186.0</ele><time>2026-04-10T10:31:13.116Z</time></trkpt><trkpt lat="44.6846315" lon="7.9131235"><ele>186.0</ele><time>2026-04-10T10:31:15.133Z</time></trkpt><trkpt lat="44.6845563" lon="7.9131702"><ele>186.0</ele><time>2026-04-10T10:31:17.167Z</time></trkpt><trkpt lat="44.684482" lon="7.9132372"><ele>185.83333333333334</ele><time>2026-04-10T10:31:19.084Z</time></trkpt><trkpt lat="44.6844026" lon="7.913309"><ele>185.66666666666666</ele><time>2026-04-10T10:31:21.118Z</time></trkpt><trkpt lat="44.6843301" lon="7.9133801"><ele>185.5</ele><time>2026-04-10T10:31:23.169Z</time></trkpt><trkpt lat="44.6842525" lon="7.9134363"><ele>185.33333333333331</ele><time>2026-04-10T10:31:25.186Z</time></trkpt><trkpt lat="44.6841784" lon="7.9134944"><ele>185.16666666666666</ele><time>2026-04-10T10:31:27.137Z</time></trkpt><trkpt lat="44.6841058" lon="7.9135524"><ele>185.0</ele><time>2026-04-10T10:31:29.187Z</time></trkpt><trkpt lat="44.6840458" lon="7.9135972"><ele>185.0</ele><time>2026-04-10T10:31:31.139Z</time></trkpt><trkpt lat="44.6839773" lon="7.9136425"><ele>185.0</ele><time>2026-04-10T10:31:41.091Z</time></trkpt><trkpt lat="44.6838983" lon="7.9137134"><ele>185.0</ele><time>2026-04-10T10:31:44.175Z</time></trkpt><trkpt lat="44.6838473" lon="7.9137657"><ele>185.0</ele><time>2026-04-10T10:31:46.142Z</time></trkpt><trkpt lat="44.6837641" lon="7.9138265"><ele>185.0</ele><time>2026-04-10T10:31:49.109Z</time></trkpt><trkpt lat="44.6836965" lon="7.9138676"><ele>185.0</ele><time>2026-04-10T10:31:51.077Z</time></trkpt><trkpt lat="44.683617" lon="7.9139224"><ele>184.99999999999997</ele><time>2026-04-10T10:31:53.127Z</time></trkpt><trkpt lat="44.6835485" lon="7.9139634"><ele>185.0</ele><time>2026-04-10T10:31:55.128Z</time></trkpt><trkpt lat="44.683475" lon="7.9139428"><ele>185.0</ele><time>2026-04-10T10:31:59.162Z</time></trkpt><trkpt lat="44.6834317" lon="7.9138609"><ele>185.0</ele><time>2026-04-10T10:32:02.096Z</time></trkpt><trkpt lat="44.6833739" lon="7.9138218"><ele>185.0</ele><time>2026-04-10T10:32:06.165Z</time></trkpt><trkpt lat="44.683432" lon="7.9138641"><ele>184.99999999999997</ele><time>2026-04-10T10:32:41.132Z</time></trkpt><trkpt lat="44.6835003" lon="7.9137868"><ele>185.0</ele><time>2026-04-10T10:32:45.15Z</time></trkpt><trkpt lat="44.6835565" lon="7.9137336"><ele>184.99999999999997</ele><time>2026-04-10T10:32:47.1Z</time></trkpt><trkpt lat="44.6836108" lon="7.9136886"><ele>185.0</ele><time>2026-04-10T10:32:49.151Z</time></trkpt><trkpt lat="44.68367" lon="7.9136335"><ele>185.0</ele><time>2026-04-10T10:32:52.135Z</time></trkpt><trkpt lat="44.6837136" lon="7.9135667"><ele>185.0</ele><time>2026-04-10T10:32:57.128Z</time></trkpt><trkpt lat="44.6836714" lon="7.9136354"><ele>185.0</ele><time>2026-04-10T10:33:24.075Z</time></trkpt><trkpt lat="44.683602" lon="7.9137151"><ele>184.99999999999997</ele><time>2026-04-10T10:33:28.077Z</time></trkpt><trkpt lat="44.6835376" lon="7.913809"><ele>185.0</ele><time>2026-04-10T10:33:31.075Z</time></trkpt><trkpt lat="44.6834737" lon="7.9138603"><ele>185.0</ele><time>2026-04-10T10:33:34.075Z</time></trkpt><trkpt lat="44.6834083" lon="7.9139158"><ele>185.0</ele><time>2026-04-10T10:33:37.075Z</time></trkpt><trkpt lat="44.6833685" lon="7.9140079"><ele>185.0</ele><time>2026-04-10T10:33:39.076Z</time></trkpt><trkpt lat="44.6833047" lon="7.9141075"><ele>185.0</ele><time>2026-04-10T10:33:42.076Z</time></trkpt><trkpt lat="44.6832354" lon="7.9141845"><ele>185.0</ele><time>2026-04-10T10:33:44.076Z</time></trkpt><trkpt lat="44.6831592" lon="7.9142801"><ele>185.0</ele><time>2026-04-10T10:33:46.076Z</time></trkpt><trkpt lat="44.6830773" lon="7.9143604"><ele>185.0</ele><time>2026-04-10T10:33:48.076Z</time></trkpt><trkpt lat="44.6829985" lon="7.9144379"><ele>185.0</ele><time>2026-04-10T10:33:50.076Z</time></trkpt><trkpt lat="44.6829161" lon="7.9145281"><ele>185.0</ele><time>2026-04-10T10:33:52.076Z</time></trkpt><trkpt lat="44.6828271" lon="7.9146209"><ele>185.0</ele><time>2026-04-10T10:33:54.076Z</time></trkpt><trkpt lat="44.6827374" lon="7.9147277"><ele>185.0</ele><time>2026-04-10T10:33:56.076Z</time></trkpt><trkpt lat="44.6826448" lon="7.9148299"><ele>185.0</ele><time>2026-04-10T10:33:58.076Z</time></trkpt><trkpt lat="44.6825571" lon="7.9149461"><ele>185.0</ele><time>2026-04-10T10:34:00.076Z</time></trkpt><trkpt lat="44.6824704" lon="7.9150478"><ele>185.0</ele><time>2026-04-10T10:34:02.076Z</time></trkpt><trkpt lat="44.6823794" lon="7.9151507"><ele>185.0</ele><time>2026-04-10T10:34:04.076Z</time></trkpt><trkpt lat="44.6822893" lon="7.9152576"><ele>184.75</ele><time>2026-04-10T10:34:06.076Z</time></trkpt><trkpt lat="44.6822039" lon="7.9153615"><ele>184.5</ele><time>2026-04-10T10:34:08.076Z</time></trkpt><trkpt lat="44.682123" lon="7.9154646"><ele>184.25</ele><time>2026-04-10T10:34:10.076Z</time></trkpt><trkpt lat="44.6820396" lon="7.9155775"><ele>184.0</ele><time>2026-04-10T10:34:12.076Z</time></trkpt><trkpt lat="44.6819534" lon="7.9156814"><ele>184.0</ele><time>2026-04-10T10:34:14.076Z</time></trkpt><trkpt lat="44.681864" lon="7.9157873"><ele>184.0</ele><time>2026-04-10T10:34:16.076Z</time></trkpt><trkpt lat="44.6817693" lon="7.9158958"><ele>184.0</ele><time>2026-04-10T10:34:18.076Z</time></trkpt><trkpt lat="44.68168" lon="7.9159943"><ele>184.0</ele><time>2026-04-10T10:34:20.076Z</time></trkpt><trkpt lat="44.6815931" lon="7.9161074"><ele>184.0</ele><time>2026-04-10T10:34:22.076Z</time></trkpt><trkpt lat="44.6815059" lon="7.9162137"><ele>184.0</ele><time>2026-04-10T10:34:24.076Z</time></trkpt><trkpt lat="44.681416" lon="7.9163162"><ele>184.0</ele><time>2026-04-10T10:34:26.077Z</time></trkpt><trkpt lat="44.6813267" lon="7.9164255"><ele>184.0</ele><time>2026-04-10T10:34:28.076Z</time></trkpt><trkpt lat="44.6812386" lon="7.9165336"><ele>184.0</ele><time>2026-04-10T10:34:30.076Z</time></trkpt><trkpt lat="44.6811501" lon="7.9166368"><ele>184.0</ele><time>2026-04-10T10:34:32.077Z</time></trkpt><trkpt lat="44.6810685" lon="7.9167388"><ele>184.0</ele><time>2026-04-10T10:34:34.078Z</time></trkpt><trkpt lat="44.6809858" lon="7.916837"><ele>184.0</ele><time>2026-04-10T10:34:36.076Z</time></trkpt><trkpt lat="44.6809003" lon="7.9169379"><ele>184.0</ele><time>2026-04-10T10:34:38.076Z</time></trkpt><trkpt lat="44.6808163" lon="7.9170468"><ele>184.0</ele><time>2026-04-10T10:34:40.077Z</time></trkpt><trkpt lat="44.6807274" lon="7.9171538"><ele>184.0</ele><time>2026-04-10T10:34:42.077Z</time></trkpt><trkpt lat="44.6806424" lon="7.9172604"><ele>184.0</ele><time>2026-04-10T10:34:44.076Z</time></trkpt><trkpt lat="44.6805531" lon="7.917369"><ele>184.0</ele><time>2026-04-10T10:34:46.077Z</time></trkpt><trkpt lat="44.680467" lon="7.9174737"><ele>183.75</ele><time>2026-04-10T10:34:48.076Z</time></trkpt><trkpt lat="44.6803765" lon="7.9175754"><ele>183.5</ele><time>2026-04-10T10:34:50.077Z</time></trkpt><trkpt lat="44.6802898" lon="7.9176809"><ele>183.25</ele><time>2026-04-10T10:34:52.077Z</time></trkpt><trkpt lat="44.6802043" lon="7.9177927"><ele>183.0</ele><time>2026-04-10T10:34:54.076Z</time></trkpt><trkpt lat="44.6801145" lon="7.9178811"><ele>183.8</ele><time>2026-04-10T10:34:56.077Z</time></trkpt><trkpt lat="44.6800278" lon="7.9179731"><ele>184.60000000000002</ele><time>2026-04-10T10:34:58.077Z</time></trkpt><trkpt lat="44.679941" lon="7.9180846"><ele>185.39999999999998</ele><time>2026-04-10T10:35:00.077Z</time></trkpt><trkpt lat="44.6798555" lon="7.9181722"><ele>186.2</ele><time>2026-04-10T10:35:02.077Z</time></trkpt><trkpt lat="44.679764" lon="7.918258"><ele>187.0</ele><time>2026-04-10T10:35:04.077Z</time></trkpt><trkpt lat="44.6796688" lon="7.9183386"><ele>187.0</ele><time>2026-04-10T10:35:06.077Z</time></trkpt><trkpt lat="44.6795594" lon="7.9184116"><ele>187.0</ele><time>2026-04-10T10:35:08.077Z</time></trkpt><trkpt lat="44.6794835" lon="7.9184435"><ele>187.0</ele><time>2026-04-10T10:35:09.077Z</time></trkpt><trkpt lat="44.6793707" lon="7.9184707"><ele>187.0</ele><time>2026-04-10T10:35:11.077Z</time></trkpt><trkpt lat="44.6792764" lon="7.9184847"><ele>187.0</ele><time>2026-04-10T10:35:13.077Z</time></trkpt><trkpt lat="44.6791879" lon="7.9184992"><ele>187.33333333333334</ele><time>2026-04-10T10:35:15.077Z</time></trkpt><trkpt lat="44.6790994" lon="7.9185125"><ele>187.66666666666669</ele><time>2026-04-10T10:35:17.077Z</time></trkpt><trkpt lat="44.679006" lon="7.9185155"><ele>188.0</ele><time>2026-04-10T10:35:19.077Z</time></trkpt><trkpt lat="44.6789289" lon="7.9185197"><ele>188.33333333333334</ele><time>2026-04-10T10:35:21.077Z</time></trkpt><trkpt lat="44.6788451" lon="7.9185235"><ele>188.66666666666666</ele><time>2026-04-10T10:35:23.077Z</time></trkpt><trkpt lat="44.6787471" lon="7.9185399"><ele>189.0</ele><time>2026-04-10T10:35:25.077Z</time></trkpt><trkpt lat="44.6786651" lon="7.9185546"><ele>189.71428571428572</ele><time>2026-04-10T10:35:27.077Z</time></trkpt><trkpt lat="44.6785919" lon="7.9185634"><ele>190.42857142857144</ele><time>2026-04-10T10:35:29.077Z</time></trkpt><trkpt lat="44.6785102" lon="7.9185782"><ele>191.14285714285714</ele><time>2026-04-10T10:35:31.078Z</time></trkpt><trkpt lat="44.6784314" lon="7.9185924"><ele>191.85714285714286</ele><time>2026-04-10T10:35:33.077Z</time></trkpt><trkpt lat="44.6783647" lon="7.9185891"><ele>192.57142857142858</ele><time>2026-04-10T10:35:35.078Z</time></trkpt><trkpt lat="44.6783003" lon="7.9185862"><ele>193.28571428571428</ele><time>2026-04-10T10:35:37.077Z</time></trkpt><trkpt lat="44.6782331" lon="7.9186002"><ele>194.0</ele><time>2026-04-10T10:35:39.077Z</time></trkpt><trkpt lat="44.6781674" lon="7.918614"><ele>194.00000000000003</ele><time>2026-04-10T10:35:41.078Z</time></trkpt><trkpt lat="44.6780838" lon="7.918611"><ele>194.0</ele><time>2026-04-10T10:35:44.078Z</time></trkpt><trkpt lat="44.6780138" lon="7.9186172"><ele>194.0</ele><time>2026-04-10T10:35:47.077Z</time></trkpt><trkpt lat="44.6779436" lon="7.9186139"><ele>194.0</ele><time>2026-04-10T10:36:34.078Z</time></trkpt><trkpt lat="44.6778724" lon="7.9186406"><ele>194.00000000000003</ele><time>2026-04-10T10:36:37.078Z</time></trkpt><trkpt lat="44.6778054" lon="7.9186413"><ele>194.0</ele><time>2026-04-10T10:36:40.078Z</time></trkpt><trkpt lat="44.6777173" lon="7.9186589"><ele>195.14285714285714</ele><time>2026-04-10T10:36:43.078Z</time></trkpt><trkpt lat="44.6776537" lon="7.9186535"><ele>196.2857142857143</ele><time>2026-04-10T10:36:46.078Z</time></trkpt><trkpt lat="44.677582" lon="7.9186588"><ele>197.42857142857144</ele><time>2026-04-10T10:36:49.078Z</time></trkpt><trkpt lat="44.677496" lon="7.9186733"><ele>198.57142857142856</ele><time>2026-04-10T10:36:52.078Z</time></trkpt><trkpt lat="44.6774157" lon="7.9186786"><ele>199.71428571428572</ele><time>2026-04-10T10:36:55.078Z</time></trkpt><trkpt lat="44.677341" lon="7.9186845"><ele>200.85714285714286</ele><time>2026-04-10T10:36:58.078Z</time></trkpt><trkpt lat="44.6772736" lon="7.9187002"><ele>202.0</ele><time>2026-04-10T10:37:01.078Z</time></trkpt><trkpt lat="44.6772018" lon="7.9187082"><ele>201.99999999999997</ele><time>2026-04-10T10:37:04.079Z</time></trkpt><trkpt lat="44.6771313" lon="7.9186819"><ele>202.0</ele><time>2026-04-10T10:37:07.079Z</time></trkpt><trkpt lat="44.6770544" lon="7.9186312"><ele>202.0</ele><time>2026-04-10T10:37:11.078Z</time></trkpt><trkpt lat="44.6769791" lon="7.9185884"><ele>202.0</ele><time>2026-04-10T10:37:15.079Z</time></trkpt><trkpt lat="44.6769244" lon="7.9185335"><ele>201.99999999999997</ele><time>2026-04-10T10:37:18.078Z</time></trkpt><trkpt lat="44.6768584" lon="7.9184684"><ele>202.0</ele><time>2026-04-10T10:37:22.079Z</time></trkpt><trkpt lat="44.676805" lon="7.9184176"><ele>203.0</ele><time>2026-04-10T10:37:25.079Z</time></trkpt><trkpt lat="44.6767461" lon="7.9183617"><ele>204.0</ele><time>2026-04-10T10:37:29.079Z</time></trkpt><trkpt lat="44.6766855" lon="7.9183082"><ele>205.0</ele><time>2026-04-10T10:37:32.079Z</time></trkpt><trkpt lat="44.6766403" lon="7.9182451"><ele>206.0</ele><time>2026-04-10T10:37:35.08Z</time></trkpt><trkpt lat="44.6765878" lon="7.9181876"><ele>207.0</ele><time>2026-04-10T10:37:38.079Z</time></trkpt><trkpt lat="44.6765258" lon="7.9181114"><ele>208.0</ele><time>2026-04-10T10:37:42.079Z</time></trkpt><trkpt lat="44.6764596" lon="7.9180487"><ele>209.0</ele><time>2026-04-10T10:37:46.079Z</time></trkpt><trkpt lat="44.6763992" lon="7.9179819"><ele>209.00000000000003</ele><time>2026-04-10T10:37:50.079Z</time></trkpt><trkpt lat="44.676346" lon="7.9179177"><ele>209.0</ele><time>2026-04-10T10:37:54.079Z</time></trkpt><trkpt lat="44.6762887" lon="7.9178434"><ele>209.0</ele><time>2026-04-10T10:37:58.079Z</time></trkpt><trkpt lat="44.6762188" lon="7.9177929"><ele>209.0</ele><time>2026-04-10T10:38:02.079Z</time></trkpt><trkpt lat="44.6761669" lon="7.9177407"><ele>209.00000000000003</ele><time>2026-04-10T10:38:05.079Z</time></trkpt><trkpt lat="44.6761032" lon="7.9176761"><ele>209.0</ele><time>2026-04-10T10:38:09.079Z</time></trkpt><trkpt lat="44.6760477" lon="7.9175852"><ele>210.14285714285714</ele><time>2026-04-10T10:38:13.08Z</time></trkpt><trkpt lat="44.6759848" lon="7.9175182"><ele>211.28571428571428</ele><time>2026-04-10T10:38:17.08Z</time></trkpt><trkpt lat="44.6759344" lon="7.917454"><ele>212.42857142857144</ele><time>2026-04-10T10:38:20.079Z</time></trkpt><trkpt lat="44.675876" lon="7.9174134"><ele>213.57142857142856</ele><time>2026-04-10T10:38:23.08Z</time></trkpt><trkpt lat="44.6758268" lon="7.9173526"><ele>214.71428571428572</ele><time>2026-04-10T10:38:26.079Z</time></trkpt><trkpt lat="44.6757745" lon="7.917302"><ele>215.85714285714286</ele><time>2026-04-10T10:38:29.08Z</time></trkpt><trkpt lat="44.6757183" lon="7.9172404"><ele>217.0</ele><time>2026-04-10T10:38:32.08Z</time></trkpt><trkpt lat="44.6756605" lon="7.9171872"><ele>217.0</ele><time>2026-04-10T10:38:35.08Z</time></trkpt><trkpt lat="44.6756053" lon="7.917137"><ele>217.0</ele><time>2026-04-10T10:38:38.08Z</time></trkpt><trkpt lat="44.67555" lon="7.9170768"><ele>217.0</ele><time>2026-04-10T10:38:41.08Z</time></trkpt><trkpt lat="44.6754966" lon="7.917009"><ele>217.0</ele><time>2026-04-10T10:38:44.08Z</time></trkpt><trkpt lat="44.675442" lon="7.9169439"><ele>217.0</ele><time>2026-04-10T10:38:47.08Z</time></trkpt><trkpt lat="44.6753868" lon="7.9168897"><ele>217.0</ele><time>2026-04-10T10:38:50.08Z</time></trkpt><trkpt lat="44.6753273" lon="7.9168348"><ele>217.0</ele><time>2026-04-10T10:38:53.08Z</time></trkpt><trkpt lat="44.6752732" lon="7.9167607"><ele>217.85714285714286</ele><time>2026-04-10T10:38:56.08Z</time></trkpt><trkpt lat="44.675216" lon="7.9167"><ele>218.71428571428572</ele><time>2026-04-10T10:38:59.081Z</time></trkpt><trkpt lat="44.6751634" lon="7.9166487"><ele>219.57142857142856</ele><time>2026-04-10T10:39:02.08Z</time></trkpt><trkpt lat="44.6751064" lon="7.9165711"><ele>220.42857142857144</ele><time>2026-04-10T10:39:05.081Z</time></trkpt><trkpt lat="44.6750552" lon="7.9164991"><ele>221.28571428571428</ele><time>2026-04-10T10:39:08.08Z</time></trkpt><trkpt lat="44.6749935" lon="7.9164158"><ele>222.14285714285714</ele><time>2026-04-10T10:39:11.08Z</time></trkpt><trkpt lat="44.6749356" lon="7.9163532"><ele>223.0</ele><time>2026-04-10T10:39:14.08Z</time></trkpt><trkpt lat="44.674874" lon="7.9162835"><ele>222.99999999999997</ele><time>2026-04-10T10:39:17.08Z</time></trkpt><trkpt lat="44.6748137" lon="7.9162094"><ele>223.0</ele><time>2026-04-10T10:39:20.081Z</time></trkpt><trkpt lat="44.6747431" lon="7.9161379"><ele>223.0</ele><time>2026-04-10T10:39:23.08Z</time></trkpt><trkpt lat="44.6746754" lon="7.9160715"><ele>223.0</ele><time>2026-04-10T10:39:26.08Z</time></trkpt><trkpt lat="44.674607" lon="7.916008"><ele>222.99999999999997</ele><time>2026-04-10T10:39:29.08Z</time></trkpt><trkpt lat="44.6745479" lon="7.9159389"><ele>223.0</ele><time>2026-04-10T10:39:32.08Z</time></trkpt><trkpt lat="44.6744891" lon="7.9158633"><ele>223.99999999999997</ele><time>2026-04-10T10:39:35.081Z</time></trkpt><trkpt lat="44.6744358" lon="7.915769"><ele>225.0</ele><time>2026-04-10T10:39:38.081Z</time></trkpt><trkpt lat="44.6743908" lon="7.9156597"><ele>226.0</ele><time>2026-04-10T10:39:41.08Z</time></trkpt><trkpt lat="44.6743475" lon="7.9155444"><ele>227.0</ele><time>2026-04-10T10:39:44.081Z</time></trkpt><trkpt lat="44.6743172" lon="7.9154587"><ele>227.99999999999997</ele><time>2026-04-10T10:39:46.081Z</time></trkpt><trkpt lat="44.6742879" lon="7.9153749"><ele>229.0</ele><time>2026-04-10T10:39:48.081Z</time></trkpt><trkpt lat="44.6742515" lon="7.9152514"><ele>229.0</ele><time>2026-04-10T10:39:51.081Z</time></trkpt><trkpt lat="44.6742252" lon="7.9151632"><ele>229.0</ele><time>2026-04-10T10:39:53.081Z</time></trkpt><trkpt lat="44.6741943" lon="7.915069"><ele>229.0</ele><time>2026-04-10T10:39:55.081Z</time></trkpt><trkpt lat="44.6741647" lon="7.9149796"><ele>229.0</ele><time>2026-04-10T10:39:57.081Z</time></trkpt><trkpt lat="44.6741404" lon="7.9148835"><ele>229.0</ele><time>2026-04-10T10:39:59.081Z</time></trkpt><trkpt lat="44.6741144" lon="7.9147847"><ele>229.0</ele><time>2026-04-10T10:40:01.081Z</time></trkpt><trkpt lat="44.6740838" lon="7.9146903"><ele>229.0</ele><time>2026-04-10T10:40:03.081Z</time></trkpt><trkpt lat="44.6740537" lon="7.91459"><ele>229.0</ele><time>2026-04-10T10:40:05.081Z</time></trkpt><trkpt lat="44.6740303" lon="7.9144918"><ele>229.0</ele><time>2026-04-10T10:40:07.081Z</time></trkpt><trkpt lat="44.6740019" lon="7.9143967"><ele>229.0</ele><time>2026-04-10T10:40:09.082Z</time></trkpt><trkpt lat="44.673969" lon="7.914312"><ele>229.0</ele><time>2026-04-10T10:40:11.081Z</time></trkpt><trkpt lat="44.6739341" lon="7.9142375"><ele>229.0</ele><time>2026-04-10T10:40:13.081Z</time></trkpt><trkpt lat="44.6738843" lon="7.9141376"><ele>229.0</ele><time>2026-04-10T10:40:16.081Z</time></trkpt><trkpt lat="44.67384" lon="7.9140599"><ele>229.0</ele><time>2026-04-10T10:40:19.081Z</time></trkpt><trkpt lat="44.6738034" lon="7.9139383"><ele>229.16666666666666</ele><time>2026-04-10T10:41:11.172Z</time></trkpt><trkpt lat="44.6737457" lon="7.9138507"><ele>229.33333333333331</ele><time>2026-04-10T10:41:14.172Z</time></trkpt><trkpt lat="44.6736921" lon="7.9137799"><ele>229.5</ele><time>2026-04-10T10:41:16.082Z</time></trkpt><trkpt lat="44.6736376" lon="7.9137262"><ele>229.66666666666669</ele><time>2026-04-10T10:41:18.173Z</time></trkpt><trkpt lat="44.6735796" lon="7.913659"><ele>229.83333333333334</ele><time>2026-04-10T10:41:20.174Z</time></trkpt><trkpt lat="44.6735246" lon="7.9135901"><ele>230.0</ele><time>2026-04-10T10:41:22.174Z</time></trkpt><trkpt lat="44.673465" lon="7.9134958"><ele>230.66666666666669</ele><time>2026-04-10T10:41:25.082Z</time></trkpt><trkpt lat="44.6734188" lon="7.9134197"><ele>231.33333333333334</ele><time>2026-04-10T10:41:27.176Z</time></trkpt><trkpt lat="44.6733606" lon="7.9133305"><ele>232.0</ele><time>2026-04-10T10:41:29.176Z</time></trkpt><trkpt lat="44.6733018" lon="7.9132287"><ele>232.66666666666669</ele><time>2026-04-10T10:41:31.177Z</time></trkpt><trkpt lat="44.6732433" lon="7.9131228"><ele>233.33333333333334</ele><time>2026-04-10T10:41:33.177Z</time></trkpt><trkpt lat="44.6731918" lon="7.9130189"><ele>234.0</ele><time>2026-04-10T10:41:35.082Z</time></trkpt><trkpt lat="44.6731397" lon="7.912915"><ele>234.0</ele><time>2026-04-10T10:41:37.095Z</time></trkpt><trkpt lat="44.6730814" lon="7.9128117"><ele>233.99999999999997</ele><time>2026-04-10T10:41:39.095Z</time></trkpt><trkpt lat="44.673031" lon="7.9127028"><ele>233.99999999999997</ele><time>2026-04-10T10:41:41.196Z</time></trkpt><trkpt lat="44.6729958" lon="7.9125965"><ele>234.0</ele><time>2026-04-10T10:41:43.097Z</time></trkpt><trkpt lat="44.6729599" lon="7.9124913"><ele>234.0</ele><time>2026-04-10T10:41:45.114Z</time></trkpt><trkpt lat="44.6729094" lon="7.9123582"><ele>233.6</ele><time>2026-04-10T10:41:47.114Z</time></trkpt><trkpt lat="44.6728727" lon="7.9122756"><ele>233.2</ele><time>2026-04-10T10:41:48.114Z</time></trkpt><trkpt lat="44.6728303" lon="7.9121982"><ele>232.79999999999998</ele><time>2026-04-10T10:41:49.115Z</time></trkpt><trkpt lat="44.6728269" lon="7.9123271"><ele>232.39999999999998</ele><time>2026-04-10T10:41:51.115Z</time></trkpt><trkpt lat="44.6727964" lon="7.9121168"><ele>232.0</ele><time>2026-04-10T10:41:53.082Z</time></trkpt><trkpt lat="44.6727485" lon="7.912031"><ele>233.00000000000003</ele><time>2026-04-10T10:41:55.082Z</time></trkpt><trkpt lat="44.6727018" lon="7.9119465"><ele>234.0</ele><time>2026-04-10T10:41:57.082Z</time></trkpt><trkpt lat="44.6726514" lon="7.9118701"><ele>235.00000000000003</ele><time>2026-04-10T10:41:59.083Z</time></trkpt><trkpt lat="44.6725948" lon="7.911797"><ele>236.00000000000003</ele><time>2026-04-10T10:42:01.082Z</time></trkpt><trkpt lat="44.6725496" lon="7.9117289"><ele>237.0</ele><time>2026-04-10T10:42:03.083Z</time></trkpt><trkpt lat="44.6724969" lon="7.9116593"><ele>238.00000000000003</ele><time>2026-04-10T10:42:05.083Z</time></trkpt><trkpt lat="44.672447" lon="7.9115812"><ele>239.00000000000003</ele><time>2026-04-10T10:42:07.083Z</time></trkpt><trkpt lat="44.6723957" lon="7.9115019"><ele>239.00000000000003</ele><time>2026-04-10T10:42:09.082Z</time></trkpt><trkpt lat="44.6723475" lon="7.9114273"><ele>239.0</ele><time>2026-04-10T10:42:11.083Z</time></trkpt><trkpt lat="44.6722988" lon="7.9113484"><ele>239.0</ele><time>2026-04-10T10:42:13.082Z</time></trkpt><trkpt lat="44.6722462" lon="7.9112668"><ele>239.0</ele><time>2026-04-10T10:42:15.083Z</time></trkpt><trkpt lat="44.6721953" lon="7.9111885"><ele>239.00000000000003</ele><time>2026-04-10T10:42:17.083Z</time></trkpt><trkpt lat="44.6721365" lon="7.9111125"><ele>239.0</ele><time>2026-04-10T10:42:19.083Z</time></trkpt><trkpt lat="44.6720783" lon="7.9110454"><ele>239.00000000000003</ele><time>2026-04-10T10:42:21.083Z</time></trkpt><trkpt lat="44.6720099" lon="7.9109518"><ele>239.0</ele><time>2026-04-10T10:42:24.083Z</time></trkpt><trkpt lat="44.6719487" lon="7.9109013"><ele>239.0</ele><time>2026-04-10T10:42:26.083Z</time></trkpt><trkpt lat="44.671881" lon="7.9108709"><ele>239.0</ele><time>2026-04-10T10:42:28.083Z</time></trkpt><trkpt lat="44.6718169" lon="7.9108464"><ele>239.00000000000003</ele><time>2026-04-10T10:42:30.083Z</time></trkpt><trkpt lat="44.6717383" lon="7.9108383"><ele>239.0</ele><time>2026-04-10T10:42:32.083Z</time></trkpt><trkpt lat="44.671649" lon="7.9108316"><ele>239.28571428571433</ele><time>2026-04-10T10:42:35.083Z</time></trkpt><trkpt lat="44.6715678" lon="7.910833"><ele>239.57142857142858</ele><time>2026-04-10T10:42:38.083Z</time></trkpt><trkpt lat="44.6715039" lon="7.9108512"><ele>239.8571428571429</ele><time>2026-04-10T10:43:28.084Z</time></trkpt><trkpt lat="44.6714082" lon="7.9108387"><ele>240.14285714285717</ele><time>2026-04-10T10:43:31.084Z</time></trkpt><trkpt lat="44.6713439" lon="7.9108279"><ele>240.42857142857144</ele><time>2026-04-10T10:43:33.084Z</time></trkpt><trkpt lat="44.6712792" lon="7.910837"><ele>240.71428571428572</ele><time>2026-04-10T10:43:35.084Z</time></trkpt><trkpt lat="44.6712141" lon="7.9108255"><ele>241.0</ele><time>2026-04-10T10:43:37.084Z</time></trkpt><trkpt lat="44.6711455" lon="7.9108199"><ele>241.2857142857143</ele><time>2026-04-10T10:43:39.084Z</time></trkpt><trkpt lat="44.6710777" lon="7.9108191"><ele>241.5714285714286</ele><time>2026-04-10T10:43:41.084Z</time></trkpt><trkpt lat="44.671009" lon="7.910819"><ele>241.85714285714286</ele><time>2026-04-10T10:43:43.084Z</time></trkpt><trkpt lat="44.6709385" lon="7.910819"><ele>242.14285714285717</ele><time>2026-04-10T10:43:45.084Z</time></trkpt><trkpt lat="44.6708705" lon="7.9108206"><ele>242.42857142857144</ele><time>2026-04-10T10:43:47.084Z</time></trkpt><trkpt lat="44.6708039" lon="7.9108289"><ele>242.71428571428572</ele><time>2026-04-10T10:43:49.084Z</time></trkpt><trkpt lat="44.6707306" lon="7.9108267"><ele>243.0</ele><time>2026-04-10T10:43:51.084Z</time></trkpt><trkpt lat="44.6706484" lon="7.910818"><ele>243.0</ele><time>2026-04-10T10:43:53.084Z</time></trkpt><trkpt lat="44.6705716" lon="7.9108192"><ele>243.0</ele><time>2026-04-10T10:43:55.084Z</time></trkpt><trkpt lat="44.6704941" lon="7.9108284"><ele>243.0</ele><time>2026-04-10T10:43:57.085Z</time></trkpt><trkpt lat="44.6704201" lon="7.9108262"><ele>243.0</ele><time>2026-04-10T10:43:59.084Z</time></trkpt><trkpt lat="44.6703521" lon="7.9108145"><ele>243.0</ele><time>2026-04-10T10:44:01.084Z</time></trkpt><trkpt lat="44.6702763" lon="7.9108077"><ele>243.0</ele><time>2026-04-10T10:44:03.084Z</time></trkpt><trkpt lat="44.670205" lon="7.9108109"><ele>243.0</ele><time>2026-04-10T10:44:05.084Z</time></trkpt><trkpt lat="44.6701341" lon="7.910812"><ele>243.85714285714283</ele><time>2026-04-10T10:44:07.084Z</time></trkpt><trkpt lat="44.6700598" lon="7.9108115"><ele>244.71428571428572</ele><time>2026-04-10T10:44:09.084Z</time></trkpt><trkpt lat="44.6699901" lon="7.9108057"><ele>245.57142857142856</ele><time>2026-04-10T10:44:11.084Z</time></trkpt><trkpt lat="44.6699219" lon="7.9107856"><ele>246.42857142857142</ele><time>2026-04-10T10:44:13.085Z</time></trkpt><trkpt lat="44.6698577" lon="7.9107752"><ele>247.28571428571428</ele><time>2026-04-10T10:44:15.084Z</time></trkpt><trkpt lat="44.6697954" lon="7.9107542"><ele>248.14285714285714</ele><time>2026-04-10T10:44:17.084Z</time></trkpt><trkpt lat="44.6697308" lon="7.9107189"><ele>249.0</ele><time>2026-04-10T10:44:19.084Z</time></trkpt><trkpt lat="44.669669" lon="7.9106872"><ele>249.0</ele><time>2026-04-10T10:44:21.084Z</time></trkpt><trkpt lat="44.6695829" lon="7.9106462"><ele>248.99999999999997</ele><time>2026-04-10T10:44:24.084Z</time></trkpt><trkpt lat="44.6695217" lon="7.910616"><ele>249.0</ele><time>2026-04-10T10:44:26.084Z</time></trkpt><trkpt lat="44.6694587" lon="7.9105855"><ele>249.0</ele><time>2026-04-10T10:44:28.085Z</time></trkpt><trkpt lat="44.6693946" lon="7.9105543"><ele>248.99999999999997</ele><time>2026-04-10T10:44:30.084Z</time></trkpt><trkpt lat="44.6693297" lon="7.9105284"><ele>249.0</ele><time>2026-04-10T10:44:32.084Z</time></trkpt><trkpt lat="44.6692675" lon="7.9105035"><ele>249.0</ele><time>2026-04-10T10:44:34.084Z</time></trkpt><trkpt lat="44.6691805" lon="7.9104607"><ele>249.5</ele><time>2026-04-10T10:44:37.084Z</time></trkpt><trkpt lat="44.6690982" lon="7.9104123"><ele>250.0</ele><time>2026-04-10T10:44:40.085Z</time></trkpt><trkpt lat="44.6690215" lon="7.9103703"><ele>250.5</ele><time>2026-04-10T10:44:43.084Z</time></trkpt><trkpt lat="44.6689464" lon="7.9103377"><ele>251.0</ele><time>2026-04-10T10:44:46.086Z</time></trkpt><trkpt lat="44.6688701" lon="7.9102915"><ele>251.5</ele><time>2026-04-10T10:44:49.085Z</time></trkpt><trkpt lat="44.6688004" lon="7.9102596"><ele>252.0</ele><time>2026-04-10T10:44:52.085Z</time></trkpt><trkpt lat="44.6687263" lon="7.9102314"><ele>252.0</ele><time>2026-04-10T10:44:55.085Z</time></trkpt><trkpt lat="44.6686461" lon="7.9101942"><ele>252.0</ele><time>2026-04-10T10:44:58.085Z</time></trkpt><trkpt lat="44.6685728" lon="7.9101456"><ele>252.0</ele><time>2026-04-10T10:45:02.085Z</time></trkpt><trkpt lat="44.6685136" lon="7.9101112"><ele>252.0</ele><time>2026-04-10T10:45:05.085Z</time></trkpt><trkpt lat="44.6684525" lon="7.9100785"><ele>252.0</ele><time>2026-04-10T10:45:08.085Z</time></trkpt><trkpt lat="44.6683889" lon="7.9100464"><ele>252.0</ele><time>2026-04-10T10:45:11.085Z</time></trkpt><trkpt lat="44.6683262" lon="7.9100065"><ele>252.0</ele><time>2026-04-10T10:45:14.085Z</time></trkpt><trkpt lat="44.6682573" lon="7.909977"><ele>253.0</ele><time>2026-04-10T10:45:17.085Z</time></trkpt><trkpt lat="44.6681961" lon="7.9099443"><ele>254.0</ele><time>2026-04-10T10:45:20.085Z</time></trkpt><trkpt lat="44.6681369" lon="7.9099119"><ele>255.0</ele><time>2026-04-10T10:45:23.085Z</time></trkpt><trkpt lat="44.6680582" lon="7.9098791"><ele>256.0</ele><time>2026-04-10T10:45:27.085Z</time></trkpt><trkpt lat="44.6679959" lon="7.909839"><ele>257.0</ele><time>2026-04-10T10:45:30.085Z</time></trkpt><trkpt lat="44.6679321" lon="7.9098117"><ele>258.0</ele><time>2026-04-10T10:45:33.085Z</time></trkpt><trkpt lat="44.66786" lon="7.9097662"><ele>259.0</ele><time>2026-04-10T10:45:37.085Z</time></trkpt><trkpt lat="44.6677942" lon="7.9097433"><ele>259.42857142857144</ele><time>2026-04-10T10:45:40.085Z</time></trkpt><trkpt lat="44.6677282" lon="7.9097257"><ele>259.8571428571429</ele><time>2026-04-10T10:45:43.085Z</time></trkpt><trkpt lat="44.6676543" lon="7.9097102"><ele>260.2857142857143</ele><time>2026-04-10T10:45:47.085Z</time></trkpt><trkpt lat="44.6675852" lon="7.9097014"><ele>260.7142857142857</ele><time>2026-04-10T10:45:50.085Z</time></trkpt><trkpt lat="44.6675185" lon="7.9096828"><ele>261.14285714285717</ele><time>2026-04-10T10:45:53.086Z</time></trkpt><trkpt lat="44.6674563" lon="7.9096664"><ele>261.57142857142856</ele><time>2026-04-10T10:45:56.085Z</time></trkpt><trkpt lat="44.6673799" lon="7.9096632"><ele>262.0</ele><time>2026-04-10T10:45:59.087Z</time></trkpt><trkpt lat="44.6673221" lon="7.9096068"><ele>262.0</ele><time>2026-04-10T10:46:02.086Z</time></trkpt><trkpt lat="44.6672552" lon="7.9095488"><ele>262.0</ele><time>2026-04-10T10:46:05.087Z</time></trkpt><trkpt lat="44.6671796" lon="7.9095442"><ele>262.0</ele><time>2026-04-10T10:46:08.086Z</time></trkpt><trkpt lat="44.6671103" lon="7.9095832"><ele>262.0</ele><time>2026-04-10T10:46:11.086Z</time></trkpt><trkpt lat="44.6670482" lon="7.909632"><ele>262.0</ele><time>2026-04-10T10:46:14.086Z</time></trkpt><trkpt lat="44.6669833" lon="7.9096951"><ele>262.0</ele><time>2026-04-10T10:46:17.086Z</time></trkpt><trkpt lat="44.6669169" lon="7.9097786"><ele>262.66666666666663</ele><time>2026-04-10T10:46:20.086Z</time></trkpt><trkpt lat="44.6668511" lon="7.9098494"><ele>263.3333333333333</ele><time>2026-04-10T10:46:23.086Z</time></trkpt><trkpt lat="44.6667869" lon="7.9099191"><ele>264.0</ele><time>2026-04-10T10:46:26.086Z</time></trkpt><trkpt lat="44.6667252" lon="7.9099896"><ele>264.6666666666667</ele><time>2026-04-10T10:46:29.086Z</time></trkpt><trkpt lat="44.6666617" lon="7.91006"><ele>265.33333333333337</ele><time>2026-04-10T10:46:32.086Z</time></trkpt><trkpt lat="44.6665885" lon="7.9101341"><ele>266.0</ele><time>2026-04-10T10:46:35.086Z</time></trkpt><trkpt lat="44.6665226" lon="7.9101992"><ele>266.0</ele><time>2026-04-10T10:46:38.086Z</time></trkpt><trkpt lat="44.6664592" lon="7.9102745"><ele>266.0</ele><time>2026-04-10T10:46:41.086Z</time></trkpt><trkpt lat="44.6663957" lon="7.91035"><ele>266.0</ele><time>2026-04-10T10:46:44.086Z</time></trkpt><trkpt lat="44.6663288" lon="7.9104304"><ele>266.0</ele><time>2026-04-10T10:46:47.086Z</time></trkpt><trkpt lat="44.666261" lon="7.9105053"><ele>266.0</ele><time>2026-04-10T10:46:50.086Z</time></trkpt><trkpt lat="44.6662034" lon="7.9105971"><ele>266.0</ele><time>2026-04-10T10:46:53.086Z</time></trkpt><trkpt lat="44.6661448" lon="7.9106842"><ele>267.2857142857143</ele><time>2026-04-10T10:46:56.086Z</time></trkpt><trkpt lat="44.666098" lon="7.9107485"><ele>268.57142857142856</ele><time>2026-04-10T10:46:58.086Z</time></trkpt><trkpt lat="44.6660564" lon="7.9108565"><ele>269.8571428571429</ele><time>2026-04-10T10:47:02.086Z</time></trkpt><trkpt lat="44.6660173" lon="7.9109396"><ele>271.1428571428571</ele><time>2026-04-10T10:47:05.087Z</time></trkpt><trkpt lat="44.6659742" lon="7.9110339"><ele>272.42857142857144</ele><time>2026-04-10T10:47:09.086Z</time></trkpt><trkpt lat="44.6659406" lon="7.9111103"><ele>273.7142857142857</ele><time>2026-04-10T10:47:12.088Z</time></trkpt><trkpt lat="44.6659158" lon="7.9112101"><ele>275.0</ele><time>2026-04-10T10:47:16.088Z</time></trkpt><trkpt lat="44.665868" lon="7.9112941"><ele>275.7142857142857</ele><time>2026-04-10T10:47:20.087Z</time></trkpt><trkpt lat="44.6658855" lon="7.9113874"><ele>276.42857142857144</ele><time>2026-04-10T10:48:06.087Z</time></trkpt><trkpt lat="44.6658584" lon="7.911478"><ele>277.1428571428571</ele><time>2026-04-10T10:48:10.088Z</time></trkpt><trkpt lat="44.6658098" lon="7.911559"><ele>277.8571428571429</ele><time>2026-04-10T10:48:13.087Z</time></trkpt><trkpt lat="44.6657532" lon="7.9116385"><ele>278.57142857142856</ele><time>2026-04-10T10:48:17.087Z</time></trkpt><trkpt lat="44.6657169" lon="7.9117167"><ele>279.2857142857143</ele><time>2026-04-10T10:48:20.087Z</time></trkpt><trkpt lat="44.6656852" lon="7.9118237"><ele>280.0</ele><time>2026-04-10T10:48:24.087Z</time></trkpt><trkpt lat="44.6656501" lon="7.9119083"><ele>280.7142857142857</ele><time>2026-04-10T10:48:27.088Z</time></trkpt><trkpt lat="44.6656192" lon="7.9119925"><ele>281.42857142857144</ele><time>2026-04-10T10:48:30.088Z</time></trkpt><trkpt lat="44.6655989" lon="7.9120864"><ele>282.1428571428571</ele><time>2026-04-10T10:48:33.088Z</time></trkpt><trkpt lat="44.6655749" lon="7.9121747"><ele>282.8571428571429</ele><time>2026-04-10T10:48:36.089Z</time></trkpt><trkpt lat="44.6655486" lon="7.9122646"><ele>283.57142857142856</ele><time>2026-04-10T10:48:39.088Z</time></trkpt><trkpt lat="44.665526" lon="7.9123484"><ele>284.2857142857143</ele><time>2026-04-10T10:48:42.088Z</time></trkpt><trkpt lat="44.6654932" lon="7.9124243"><ele>285.0</ele><time>2026-04-10T10:48:45.088Z</time></trkpt><trkpt lat="44.6654623" lon="7.9125039"><ele>285.57142857142856</ele><time>2026-04-10T10:48:48.088Z</time></trkpt><trkpt lat="44.6654311" lon="7.912609"><ele>286.14285714285717</ele><time>2026-04-10T10:48:52.088Z</time></trkpt><trkpt lat="44.6654013" lon="7.912688"><ele>286.7142857142857</ele><time>2026-04-10T10:48:55.088Z</time></trkpt><trkpt lat="44.6653663" lon="7.9127769"><ele>287.2857142857143</ele><time>2026-04-10T10:48:58.088Z</time></trkpt><trkpt lat="44.6653241" lon="7.9128545"><ele>287.85714285714283</ele><time>2026-04-10T10:49:02.088Z</time></trkpt><trkpt lat="44.6652609" lon="7.9129118"><ele>288.42857142857144</ele><time>2026-04-10T10:49:06.088Z</time></trkpt><trkpt lat="44.6652001" lon="7.9129801"><ele>289.0</ele><time>2026-04-10T10:49:10.088Z</time></trkpt><trkpt lat="44.6651456" lon="7.9130509"><ele>289.8333333333333</ele><time>2026-04-10T10:49:14.088Z</time></trkpt><trkpt lat="44.6650935" lon="7.9131246"><ele>290.66666666666663</ele><time>2026-04-10T10:49:18.089Z</time></trkpt><trkpt lat="44.6650392" lon="7.9131982"><ele>291.5</ele><time>2026-04-10T10:49:21.088Z</time></trkpt><trkpt lat="44.6649659" lon="7.9132685"><ele>292.3333333333333</ele><time>2026-04-10T10:49:24.089Z</time></trkpt><trkpt lat="44.6649019" lon="7.9133143"><ele>293.1666666666667</ele><time>2026-04-10T10:49:29.088Z</time></trkpt><trkpt lat="44.6648292" lon="7.9133573"><ele>294.0</ele><time>2026-04-10T10:49:34.089Z</time></trkpt><trkpt lat="44.6647672" lon="7.9133793"><ele>295.0</ele><time>2026-04-10T10:49:37.089Z</time></trkpt><trkpt lat="44.6646988" lon="7.9134082"><ele>296.0</ele><time>2026-04-10T10:49:41.089Z</time></trkpt><trkpt lat="44.6646278" lon="7.9134201"><ele>297.0</ele><time>2026-04-10T10:49:45.089Z</time></trkpt><trkpt lat="44.6645547" lon="7.9134339"><ele>298.0</ele><time>2026-04-10T10:49:49.089Z</time></trkpt><trkpt lat="44.6644888" lon="7.9134641"><ele>299.0</ele><time>2026-04-10T10:49:52.089Z</time></trkpt><trkpt lat="44.6644262" lon="7.9134923"><ele>300.0</ele><time>2026-04-10T10:49:56.089Z</time></trkpt><trkpt lat="44.6643702" lon="7.9135436"><ele>301.0</ele><time>2026-04-10T10:49:59.089Z</time></trkpt><trkpt lat="44.6643048" lon="7.9136219"><ele>301.2857142857143</ele><time>2026-04-10T10:50:05.089Z</time></trkpt><trkpt lat="44.6642749" lon="7.9137054"><ele>301.57142857142856</ele><time>2026-04-10T10:50:08.089Z</time></trkpt><trkpt lat="44.6642231" lon="7.9137821"><ele>301.8571428571429</ele><time>2026-04-10T10:50:12.089Z</time></trkpt><trkpt lat="44.6641764" lon="7.9138659"><ele>302.1428571428571</ele><time>2026-04-10T10:50:16.09Z</time></trkpt><trkpt lat="44.6641335" lon="7.9139467"><ele>302.42857142857144</ele><time>2026-04-10T10:50:20.089Z</time></trkpt><trkpt lat="44.6641031" lon="7.9140276"><ele>302.7142857142857</ele><time>2026-04-10T10:50:23.089Z</time></trkpt><trkpt lat="44.6640624" lon="7.9141185"><ele>303.0</ele><time>2026-04-10T10:50:27.089Z</time></trkpt><trkpt lat="44.664028" lon="7.9141928"><ele>304.1666666666667</ele><time>2026-04-10T10:50:30.089Z</time></trkpt><trkpt lat="44.6639852" lon="7.9142922"><ele>305.3333333333333</ele><time>2026-04-10T10:50:34.09Z</time></trkpt><trkpt lat="44.6639509" lon="7.914368"><ele>306.5</ele><time>2026-04-10T10:50:37.089Z</time></trkpt><trkpt lat="44.6639054" lon="7.9144613"><ele>307.66666666666663</ele><time>2026-04-10T10:50:41.089Z</time></trkpt><trkpt lat="44.6638593" lon="7.9145459"><ele>308.8333333333333</ele><time>2026-04-10T10:50:45.09Z</time></trkpt><trkpt lat="44.6637935" lon="7.9146174"><ele>310.0</ele><time>2026-04-10T10:50:49.089Z</time></trkpt><trkpt lat="44.6637422" lon="7.9146718"><ele>310.0</ele><time>2026-04-10T10:50:52.09Z</time></trkpt><trkpt lat="44.6636973" lon="7.9147371"><ele>310.0</ele><time>2026-04-10T10:50:55.09Z</time></trkpt><trkpt lat="44.6636469" lon="7.91481"><ele>310.0</ele><time>2026-04-10T10:50:58.09Z</time></trkpt><trkpt lat="44.6635952" lon="7.9148721"><ele>310.0</ele><time>2026-04-10T10:52:37.091Z</time></trkpt><trkpt lat="44.6635506" lon="7.9149405"><ele>310.0</ele><time>2026-04-10T10:52:39.091Z</time></trkpt><trkpt lat="44.6634866" lon="7.9150305"><ele>310.0</ele><time>2026-04-10T10:52:42.091Z</time></trkpt><trkpt lat="44.6634156" lon="7.915091"><ele>310.0</ele><time>2026-04-10T10:52:44.091Z</time></trkpt><trkpt lat="44.6633406" lon="7.9151651"><ele>311.3333333333333</ele><time>2026-04-10T10:52:47.091Z</time></trkpt><trkpt lat="44.6632788" lon="7.9152415"><ele>312.66666666666663</ele><time>2026-04-10T10:52:50.091Z</time></trkpt><trkpt lat="44.6632197" lon="7.9153142"><ele>314.0</ele><time>2026-04-10T10:52:53.091Z</time></trkpt><trkpt lat="44.6631533" lon="7.9153922"><ele>315.3333333333333</ele><time>2026-04-10T10:52:56.091Z</time></trkpt><trkpt lat="44.6631092" lon="7.9154563"><ele>316.6666666666667</ele><time>2026-04-10T10:52:58.091Z</time></trkpt><trkpt lat="44.6630613" lon="7.9155286"><ele>318.0</ele><time>2026-04-10T10:53:00.091Z</time></trkpt><trkpt lat="44.6629977" lon="7.9156162"><ele>318.0</ele><time>2026-04-10T10:53:04.092Z</time></trkpt><trkpt lat="44.6629358" lon="7.9156883"><ele>318.0</ele><time>2026-04-10T10:53:07.092Z</time></trkpt><trkpt lat="44.6628927" lon="7.9157666"><ele>318.0</ele><time>2026-04-10T10:53:10.092Z</time></trkpt><trkpt lat="44.6628355" lon="7.9158388"><ele>318.0</ele><time>2026-04-10T10:53:14.092Z</time></trkpt><trkpt lat="44.6627892" lon="7.9159032"><ele>318.0</ele><time>2026-04-10T10:53:17.092Z</time></trkpt><trkpt lat="44.6627563" lon="7.915989"><ele>318.0</ele><time>2026-04-10T10:53:21.092Z</time></trkpt><trkpt lat="44.6626888" lon="7.916067"><ele>318.0</ele><time>2026-04-10T10:53:25.092Z</time></trkpt><trkpt lat="44.6626542" lon="7.9161412"><ele>318.57142857142856</ele><time>2026-04-10T10:53:28.092Z</time></trkpt><trkpt lat="44.6626315" lon="7.9162292"><ele>319.14285714285717</ele><time>2026-04-10T10:53:32.092Z</time></trkpt><trkpt lat="44.6625964" lon="7.9163215"><ele>319.7142857142857</ele><time>2026-04-10T10:53:36.092Z</time></trkpt><trkpt lat="44.6625771" lon="7.9164287"><ele>320.2857142857143</ele><time>2026-04-10T10:53:40.092Z</time></trkpt><trkpt lat="44.6625394" lon="7.9165045"><ele>320.8571428571429</ele><time>2026-04-10T10:53:43.092Z</time></trkpt><trkpt lat="44.6625024" lon="7.9165906"><ele>321.42857142857144</ele><time>2026-04-10T10:53:47.092Z</time></trkpt><trkpt lat="44.6624798" lon="7.916681"><ele>322.0</ele><time>2026-04-10T10:53:51.093Z</time></trkpt><trkpt lat="44.6624596" lon="7.916775"><ele>323.0</ele><time>2026-04-10T10:53:55.092Z</time></trkpt><trkpt lat="44.6624627" lon="7.9168677"><ele>324.0</ele><time>2026-04-10T10:54:00.092Z</time></trkpt><trkpt lat="44.6624318" lon="7.9169695"><ele>325.0</ele><time>2026-04-10T10:54:04.092Z</time></trkpt><trkpt lat="44.6624071" lon="7.9170753"><ele>326.0</ele><time>2026-04-10T10:54:09.092Z</time></trkpt><trkpt lat="44.6623861" lon="7.9171653"><ele>327.0</ele><time>2026-04-10T10:54:13.092Z</time></trkpt><trkpt lat="44.6623631" lon="7.9172733"><ele>328.0</ele><time>2026-04-10T10:54:17.092Z</time></trkpt><trkpt lat="44.662337" lon="7.9173549"><ele>329.0</ele><time>2026-04-10T10:54:20.092Z</time></trkpt><trkpt lat="44.6623292" lon="7.9174607"><ele>329.0</ele><time>2026-04-10T10:54:24.093Z</time></trkpt><trkpt lat="44.6623129" lon="7.9175468"><ele>329.0</ele><time>2026-04-10T10:54:28.092Z</time></trkpt><trkpt lat="44.6622632" lon="7.9176345"><ele>329.0</ele><time>2026-04-10T10:54:32.092Z</time></trkpt><trkpt lat="44.6622831" lon="7.9177471"><ele>329.0</ele><time>2026-04-10T10:55:53.094Z</time></trkpt><trkpt lat="44.6623515" lon="7.9178205"><ele>329.0</ele><time>2026-04-10T10:55:56.102Z</time></trkpt><trkpt lat="44.662399" lon="7.9179304"><ele>329.0</ele><time>2026-04-10T10:55:59.103Z</time></trkpt><trkpt lat="44.6624514" lon="7.9180234"><ele>329.42857142857144</ele><time>2026-04-10T10:56:02.104Z</time></trkpt><trkpt lat="44.6624882" lon="7.9181028"><ele>329.8571428571429</ele><time>2026-04-10T10:56:05.105Z</time></trkpt><trkpt lat="44.6625133" lon="7.9181931"><ele>330.2857142857143</ele><time>2026-04-10T10:56:08.122Z</time></trkpt><trkpt lat="44.6625592" lon="7.9182777"><ele>330.7142857142857</ele><time>2026-04-10T10:56:11.14Z</time></trkpt><trkpt lat="44.662607" lon="7.9183435"><ele>331.14285714285717</ele><time>2026-04-10T10:56:14.174Z</time></trkpt><trkpt lat="44.6626474" lon="7.9184258"><ele>331.57142857142856</ele><time>2026-04-10T10:56:17.175Z</time></trkpt><trkpt lat="44.6626734" lon="7.9185077"><ele>332.0</ele><time>2026-04-10T10:56:20.094Z</time></trkpt><trkpt lat="44.6627122" lon="7.9186066"><ele>332.0</ele><time>2026-04-10T10:56:24.094Z</time></trkpt><trkpt lat="44.6627481" lon="7.9186824"><ele>332.0</ele><time>2026-04-10T10:56:27.094Z</time></trkpt><trkpt lat="44.6627828" lon="7.9187871"><ele>332.0</ele><time>2026-04-10T10:56:31.145Z</time></trkpt><trkpt lat="44.6628259" lon="7.9188684"><ele>332.0</ele><time>2026-04-10T10:56:34.163Z</time></trkpt><trkpt lat="44.6628682" lon="7.9189423"><ele>332.0</ele><time>2026-04-10T10:56:37.163Z</time></trkpt><trkpt lat="44.6629081" lon="7.9190121"><ele>332.0</ele><time>2026-04-10T10:56:40.148Z</time></trkpt><trkpt lat="44.6629418" lon="7.9191029"><ele>332.0</ele><time>2026-04-10T10:56:43.132Z</time></trkpt><trkpt lat="44.6629746" lon="7.9191928"><ele>332.2857142857143</ele><time>2026-04-10T10:56:46.182Z</time></trkpt><trkpt lat="44.6630143" lon="7.9192633"><ele>332.5714285714286</ele><time>2026-04-10T10:56:49.117Z</time></trkpt><trkpt lat="44.6630504" lon="7.9193505"><ele>332.8571428571429</ele><time>2026-04-10T10:56:52.151Z</time></trkpt><trkpt lat="44.6630847" lon="7.9194464"><ele>333.1428571428571</ele><time>2026-04-10T10:56:55.101Z</time></trkpt><trkpt lat="44.663115" lon="7.9195402"><ele>333.42857142857144</ele><time>2026-04-10T10:56:58.057Z</time></trkpt><trkpt lat="44.663142" lon="7.9196565"><ele>333.7142857142857</ele><time>2026-04-10T10:57:01.12Z</time></trkpt><trkpt lat="44.6631575" lon="7.9197615"><ele>334.0</ele><time>2026-04-10T10:57:04.137Z</time></trkpt><trkpt lat="44.6631702" lon="7.9198725"><ele>334.0</ele><time>2026-04-10T10:57:07.138Z</time></trkpt><trkpt lat="44.6631468" lon="7.9199624"><ele>334.0</ele><time>2026-04-10T10:57:10.095Z</time></trkpt><trkpt lat="44.663137" lon="7.9200752"><ele>334.0</ele><time>2026-04-10T10:57:13.096Z</time></trkpt><trkpt lat="44.6631387" lon="7.9201871"><ele>334.0</ele><time>2026-04-10T10:57:16.096Z</time></trkpt><trkpt lat="44.6631348" lon="7.920302"><ele>334.0</ele><time>2026-04-10T10:57:19.095Z</time></trkpt><trkpt lat="44.6631372" lon="7.920419"><ele>334.0</ele><time>2026-04-10T10:57:22.095Z</time></trkpt><trkpt lat="44.6631431" lon="7.9205177"><ele>334.7142857142857</ele><time>2026-04-10T10:57:25.096Z</time></trkpt><trkpt lat="44.6631391" lon="7.9206289"><ele>335.42857142857144</ele><time>2026-04-10T10:57:28.095Z</time></trkpt><trkpt lat="44.6631444" lon="7.9207225"><ele>336.1428571428571</ele><time>2026-04-10T10:57:31.095Z</time></trkpt><trkpt lat="44.6631583" lon="7.9208226"><ele>336.8571428571429</ele><time>2026-04-10T10:57:34.095Z</time></trkpt><trkpt lat="44.6631546" lon="7.920919"><ele>337.5714285714286</ele><time>2026-04-10T10:57:37.095Z</time></trkpt><trkpt lat="44.6631607" lon="7.921023"><ele>338.2857142857143</ele><time>2026-04-10T10:57:40.095Z</time></trkpt><trkpt lat="44.6631675" lon="7.9211149"><ele>339.0</ele><time>2026-04-10T10:57:43.096Z</time></trkpt><trkpt lat="44.6631808" lon="7.921213"><ele>339.7142857142857</ele><time>2026-04-10T10:57:46.095Z</time></trkpt><trkpt lat="44.6631836" lon="7.9213084"><ele>340.42857142857144</ele><time>2026-04-10T10:57:49.095Z</time></trkpt><trkpt lat="44.6631815" lon="7.9214169"><ele>341.14285714285717</ele><time>2026-04-10T10:57:53.095Z</time></trkpt><trkpt lat="44.6631837" lon="7.9215063"><ele>341.8571428571429</ele><time>2026-04-10T10:57:56.095Z</time></trkpt><trkpt lat="44.6631885" lon="7.9215978"><ele>342.57142857142856</ele><time>2026-04-10T10:57:59.095Z</time></trkpt><trkpt lat="44.6631928" lon="7.9217142"><ele>343.28571428571433</ele><time>2026-04-10T10:58:03.096Z</time></trkpt><trkpt lat="44.6632011" lon="7.9218038"><ele>344.0</ele><time>2026-04-10T10:58:06.096Z</time></trkpt><trkpt lat="44.6632167" lon="7.9219099"><ele>345.1666666666667</ele><time>2026-04-10T10:58:10.096Z</time></trkpt><trkpt lat="44.663226" lon="7.9220267"><ele>346.33333333333337</ele><time>2026-04-10T10:58:14.095Z</time></trkpt><trkpt lat="44.6632274" lon="7.922125"><ele>347.5</ele><time>2026-04-10T10:58:18.096Z</time></trkpt><trkpt lat="44.6632402" lon="7.922221"><ele>348.6666666666667</ele><time>2026-04-10T10:58:22.096Z</time></trkpt><trkpt lat="44.66326" lon="7.9223357"><ele>349.8333333333333</ele><time>2026-04-10T10:58:26.096Z</time></trkpt><trkpt lat="44.6632769" lon="7.9224404"><ele>351.0</ele><time>2026-04-10T10:58:30.096Z</time></trkpt><trkpt lat="44.6632876" lon="7.9225437"><ele>351.28571428571433</ele><time>2026-04-10T10:58:34.097Z</time></trkpt><trkpt lat="44.6633016" lon="7.922644"><ele>351.57142857142856</ele><time>2026-04-10T10:58:38.096Z</time></trkpt><trkpt lat="44.6633164" lon="7.9227325"><ele>351.8571428571429</ele><time>2026-04-10T10:58:41.096Z</time></trkpt><trkpt lat="44.6633453" lon="7.9228126"><ele>352.14285714285717</ele><time>2026-04-10T10:58:44.096Z</time></trkpt><trkpt lat="44.6633658" lon="7.9229001"><ele>352.42857142857144</ele><time>2026-04-10T10:58:47.096Z</time></trkpt><trkpt lat="44.6633953" lon="7.923003"><ele>352.7142857142857</ele><time>2026-04-10T10:58:50.097Z</time></trkpt><trkpt lat="44.6634212" lon="7.923097"><ele>353.0</ele><time>2026-04-10T10:58:53.096Z</time></trkpt><trkpt lat="44.6634737" lon="7.9232093"><ele>353.0</ele><time>2026-04-10T10:58:56.096Z</time></trkpt><trkpt lat="44.6635097" lon="7.9232888"><ele>353.0</ele><time>2026-04-10T10:58:58.096Z</time></trkpt><trkpt lat="44.6635531" lon="7.9234068"><ele>353.0</ele><time>2026-04-10T10:59:01.096Z</time></trkpt><trkpt lat="44.6635897" lon="7.9234868"><ele>353.0</ele><time>2026-04-10T10:59:03.096Z</time></trkpt><trkpt lat="44.6636361" lon="7.9235683"><ele>353.0</ele><time>2026-04-10T10:59:05.096Z</time></trkpt><trkpt lat="44.6636964" lon="7.9236654"><ele>353.0</ele><time>2026-04-10T10:59:07.096Z</time></trkpt><trkpt lat="44.6637291" lon="7.9237457"><ele>352.83333333333337</ele><time>2026-04-10T10:59:09.097Z</time></trkpt><trkpt lat="44.6637643" lon="7.9238375"><ele>352.6666666666667</ele><time>2026-04-10T10:59:11.096Z</time></trkpt><trkpt lat="44.6638094" lon="7.9239254"><ele>352.5</ele><time>2026-04-10T10:59:13.096Z</time></trkpt><trkpt lat="44.6638616" lon="7.9240226"><ele>352.3333333333333</ele><time>2026-04-10T10:59:15.096Z</time></trkpt><trkpt lat="44.6639142" lon="7.9241332"><ele>352.16666666666663</ele><time>2026-04-10T10:59:17.096Z</time></trkpt><trkpt lat="44.6639709" lon="7.9242534"><ele>352.0</ele><time>2026-04-10T10:59:19.097Z</time></trkpt><trkpt lat="44.6640237" lon="7.9243759"><ele>352.0</ele><time>2026-04-10T10:59:21.097Z</time></trkpt><trkpt lat="44.6640734" lon="7.9244907"><ele>352.0</ele><time>2026-04-10T10:59:23.097Z</time></trkpt><trkpt lat="44.6641248" lon="7.9246135"><ele>352.0</ele><time>2026-04-10T10:59:25.097Z</time></trkpt><trkpt lat="44.6641733" lon="7.9247325"><ele>352.0</ele><time>2026-04-10T10:59:27.097Z</time></trkpt><trkpt lat="44.6642136" lon="7.9248289"><ele>352.0</ele><time>2026-04-10T10:59:29.096Z</time></trkpt><trkpt lat="44.6642446" lon="7.924932"><ele>352.0</ele><time>2026-04-10T10:59:31.097Z</time></trkpt><trkpt lat="44.6642673" lon="7.925036"><ele>352.0</ele><time>2026-04-10T10:59:33.097Z</time></trkpt><trkpt lat="44.6642965" lon="7.925131"><ele>352.0</ele><time>2026-04-10T10:59:35.097Z</time></trkpt><trkpt lat="44.6643306" lon="7.9252118"><ele>352.0</ele><time>2026-04-10T10:59:37.097Z</time></trkpt><trkpt lat="44.6643551" lon="7.9253004"><ele>352.0</ele><time>2026-04-10T10:59:39.097Z</time></trkpt><trkpt lat="44.6643727" lon="7.9253875"><ele>352.0</ele><time>2026-04-10T10:59:41.097Z</time></trkpt><trkpt lat="44.6643981" lon="7.9254714"><ele>352.0</ele><time>2026-04-10T10:59:43.097Z</time></trkpt><trkpt lat="44.6644337" lon="7.9255893"><ele>351.5</ele><time>2026-04-10T10:59:46.097Z</time></trkpt><trkpt lat="44.6644655" lon="7.9256981"><ele>351.0</ele><time>2026-04-10T10:59:49.097Z</time></trkpt><trkpt lat="44.6644986" lon="7.9258067"><ele>350.5</ele><time>2026-04-10T10:59:52.097Z</time></trkpt><trkpt lat="44.6645307" lon="7.9259098"><ele>350.0</ele><time>2026-04-10T10:59:55.097Z</time></trkpt><trkpt lat="44.66455" lon="7.9260076"><ele>349.5</ele><time>2026-04-10T10:59:58.097Z</time></trkpt><trkpt lat="44.6645785" lon="7.926109"><ele>349.0</ele><time>2026-04-10T11:00:01.097Z</time></trkpt><trkpt lat="44.6646076" lon="7.9262143"><ele>349.99999999999994</ele><time>2026-04-10T11:00:05.097Z</time></trkpt><trkpt lat="44.6646446" lon="7.9263081"><ele>351.0</ele><time>2026-04-10T11:00:08.097Z</time></trkpt><trkpt lat="44.6646671" lon="7.9264157"><ele>352.0</ele><time>2026-04-10T11:00:12.097Z</time></trkpt><trkpt lat="44.6646999" lon="7.9264978"><ele>353.0</ele><time>2026-04-10T11:00:15.097Z</time></trkpt><trkpt lat="44.6647317" lon="7.926604"><ele>354.0</ele><time>2026-04-10T11:00:19.098Z</time></trkpt><trkpt lat="44.6647563" lon="7.9266952"><ele>354.99999999999994</ele><time>2026-04-10T11:00:22.097Z</time></trkpt><trkpt lat="44.664785" lon="7.9267846"><ele>356.0</ele><time>2026-04-10T11:00:25.097Z</time></trkpt><trkpt lat="44.6648167" lon="7.9268794"><ele>356.5</ele><time>2026-04-10T11:00:28.097Z</time></trkpt><trkpt lat="44.6648381" lon="7.9269792"><ele>357.0</ele><time>2026-04-10T11:00:31.097Z</time></trkpt><trkpt lat="44.6648679" lon="7.9270727"><ele>357.5</ele><time>2026-04-10T11:00:34.097Z</time></trkpt><trkpt lat="44.6649068" lon="7.9271826"><ele>358.0</ele><time>2026-04-10T11:00:37.097Z</time></trkpt><trkpt lat="44.6649382" lon="7.9272834"><ele>358.5</ele><time>2026-04-10T11:00:40.097Z</time></trkpt><trkpt lat="44.6649764" lon="7.9273864"><ele>359.0</ele><time>2026-04-10T11:00:43.098Z</time></trkpt><trkpt lat="44.6650128" lon="7.927488"><ele>359.14285714285717</ele><time>2026-04-10T11:00:46.097Z</time></trkpt><trkpt lat="44.665039" lon="7.9275733"><ele>359.28571428571433</ele><time>2026-04-10T11:00:48.098Z</time></trkpt><trkpt lat="44.6650615" lon="7.9276578"><ele>359.42857142857144</ele><time>2026-04-10T11:00:50.098Z</time></trkpt><trkpt lat="44.6650837" lon="7.927751"><ele>359.57142857142856</ele><time>2026-04-10T11:00:52.098Z</time></trkpt><trkpt lat="44.6651072" lon="7.9278459"><ele>359.7142857142857</ele><time>2026-04-10T11:00:54.098Z</time></trkpt><trkpt lat="44.6651326" lon="7.9279361"><ele>359.85714285714283</ele><time>2026-04-10T11:00:56.098Z</time></trkpt><trkpt lat="44.6651586" lon="7.9280251"><ele>360.0</ele><time>2026-04-10T11:00:58.098Z</time></trkpt><trkpt lat="44.6651869" lon="7.9281141"><ele>360.0</ele><time>2026-04-10T11:01:00.098Z</time></trkpt><trkpt lat="44.6652185" lon="7.9282107"><ele>360.0</ele><time>2026-04-10T11:01:02.098Z</time></trkpt><trkpt lat="44.6652486" lon="7.9283132"><ele>360.0</ele><time>2026-04-10T11:01:04.098Z</time></trkpt><trkpt lat="44.6652822" lon="7.9284213"><ele>360.0</ele><time>2026-04-10T11:01:06.098Z</time></trkpt><trkpt lat="44.6653152" lon="7.9285272"><ele>360.0</ele><time>2026-04-10T11:01:08.098Z</time></trkpt><trkpt lat="44.6653385" lon="7.9286486"><ele>360.0</ele><time>2026-04-10T11:01:10.098Z</time></trkpt><trkpt lat="44.6653697" lon="7.9287619"><ele>359.5</ele><time>2026-04-10T11:01:12.098Z</time></trkpt><trkpt lat="44.6654074" lon="7.928896"><ele>359.0</ele><time>2026-04-10T11:01:14.098Z</time></trkpt><trkpt lat="44.6654457" lon="7.9290183"><ele>358.5</ele><time>2026-04-10T11:01:16.098Z</time></trkpt><trkpt lat="44.6654622" lon="7.9291179"><ele>358.0</ele><time>2026-04-10T11:01:18.098Z</time></trkpt><trkpt lat="44.6655036" lon="7.9292252"><ele>357.5</ele><time>2026-04-10T11:01:21.098Z</time></trkpt><trkpt lat="44.6655423" lon="7.9292995"><ele>357.0</ele><time>2026-04-10T11:01:24.099Z</time></trkpt><trkpt lat="44.6654956" lon="7.9292313"><ele>357.0</ele><time>2026-04-10T11:03:31.149Z</time></trkpt><trkpt lat="44.6654341" lon="7.9291382"><ele>357.0</ele><time>2026-04-10T11:03:33.127Z</time></trkpt><trkpt lat="44.6653797" lon="7.9290452"><ele>357.0</ele><time>2026-04-10T11:03:36.201Z</time></trkpt><trkpt lat="44.6653392" lon="7.9289774"><ele>357.0</ele><time>2026-04-10T11:03:38.169Z</time></trkpt><trkpt lat="44.6652707" lon="7.9289042"><ele>357.0</ele><time>2026-04-10T11:03:41.185Z</time></trkpt><trkpt lat="44.665193" lon="7.9288389"><ele>357.0</ele><time>2026-04-10T11:03:44.186Z</time></trkpt><trkpt lat="44.6651231" lon="7.9287606"><ele>357.1666666666667</ele><time>2026-04-10T11:03:47.154Z</time></trkpt><trkpt lat="44.6650518" lon="7.9286906"><ele>357.3333333333333</ele><time>2026-04-10T11:03:50.156Z</time></trkpt><trkpt lat="44.6649771" lon="7.9286223"><ele>357.5</ele><time>2026-04-10T11:03:53.206Z</time></trkpt><trkpt lat="44.6649156" lon="7.9285359"><ele>357.66666666666663</ele><time>2026-04-10T11:03:56.1Z</time></trkpt><trkpt lat="44.6648449" lon="7.9284815"><ele>357.8333333333333</ele><time>2026-04-10T11:03:59.1Z</time></trkpt><trkpt lat="44.6647774" lon="7.9284056"><ele>358.0</ele><time>2026-04-10T11:04:02.1Z</time></trkpt><trkpt lat="44.6647064" lon="7.9283277"><ele>358.3333333333333</ele><time>2026-04-10T11:04:05.1Z</time></trkpt><trkpt lat="44.6646504" lon="7.9282792"><ele>358.66666666666663</ele><time>2026-04-10T11:04:08.1Z</time></trkpt><trkpt lat="44.6645819" lon="7.9282062"><ele>359.0</ele><time>2026-04-10T11:04:11.1Z</time></trkpt><trkpt lat="44.6645052" lon="7.9281556"><ele>359.3333333333333</ele><time>2026-04-10T11:04:14.1Z</time></trkpt><trkpt lat="44.6644453" lon="7.9280798"><ele>359.6666666666667</ele><time>2026-04-10T11:04:17.1Z</time></trkpt><trkpt lat="44.6643968" lon="7.9280018"><ele>360.0</ele><time>2026-04-10T11:04:20.102Z</time></trkpt><trkpt lat="44.6643235" lon="7.9279359"><ele>360.6666666666667</ele><time>2026-04-10T11:04:23.1Z</time></trkpt><trkpt lat="44.6642597" lon="7.9278723"><ele>361.3333333333333</ele><time>2026-04-10T11:04:26.1Z</time></trkpt><trkpt lat="44.6642058" lon="7.9278069"><ele>362.0</ele><time>2026-04-10T11:04:29.1Z</time></trkpt><trkpt lat="44.6641399" lon="7.9277551"><ele>362.66666666666663</ele><time>2026-04-10T11:04:32.1Z</time></trkpt><trkpt lat="44.6640599" lon="7.9277156"><ele>363.3333333333333</ele><time>2026-04-10T11:04:36.101Z</time></trkpt><trkpt lat="44.6639857" lon="7.9276829"><ele>364.0</ele><time>2026-04-10T11:04:39.101Z</time></trkpt><trkpt lat="44.6639231" lon="7.9276591"><ele>364.0</ele><time>2026-04-10T11:04:42.101Z</time></trkpt><trkpt lat="44.6638519" lon="7.9276053"><ele>364.0</ele><time>2026-04-10T11:04:45.101Z</time></trkpt><trkpt lat="44.6637822" lon="7.9275654"><ele>364.0</ele><time>2026-04-10T11:04:48.101Z</time></trkpt><trkpt lat="44.6637182" lon="7.927528"><ele>364.0</ele><time>2026-04-10T11:04:52.101Z</time></trkpt><trkpt lat="44.6636563" lon="7.9275002"><ele>364.0</ele><time>2026-04-10T11:04:55.101Z</time></trkpt><trkpt lat="44.6635869" lon="7.9274614"><ele>364.0</ele><time>2026-04-10T11:05:00.101Z</time></trkpt><trkpt lat="44.6635106" lon="7.9274299"><ele>364.0</ele><time>2026-04-10T11:05:05.101Z</time></trkpt><trkpt lat="44.6634378" lon="7.9274053"><ele>365.42857142857144</ele><time>2026-04-10T11:05:09.101Z</time></trkpt><trkpt lat="44.6633544" lon="7.927391"><ele>366.8571428571429</ele><time>2026-04-10T11:05:13.101Z</time></trkpt><trkpt lat="44.6632909" lon="7.9273836"><ele>368.2857142857143</ele><time>2026-04-10T11:05:17.101Z</time></trkpt><trkpt lat="44.6632101" lon="7.9273766"><ele>369.7142857142857</ele><time>2026-04-10T11:05:22.101Z</time></trkpt><trkpt lat="44.6631358" lon="7.9273856"><ele>371.14285714285717</ele><time>2026-04-10T11:05:26.101Z</time></trkpt><trkpt lat="44.663071" lon="7.9273772"><ele>372.57142857142856</ele><time>2026-04-10T11:05:30.101Z</time></trkpt><trkpt lat="44.6629954" lon="7.9273899"><ele>374.0</ele><time>2026-04-10T11:05:34.101Z</time></trkpt><trkpt lat="44.6629175" lon="7.9273888"><ele>374.0</ele><time>2026-04-10T11:05:38.101Z</time></trkpt><trkpt lat="44.6628472" lon="7.9274002"><ele>374.0</ele><time>2026-04-10T11:05:41.102Z</time></trkpt><trkpt lat="44.6627806" lon="7.927392"><ele>374.0</ele><time>2026-04-10T11:05:44.101Z</time></trkpt><trkpt lat="44.6627174" lon="7.92739"><ele>374.0</ele><time>2026-04-10T11:05:48.101Z</time></trkpt><trkpt lat="44.6626479" lon="7.9273788"><ele>374.0</ele><time>2026-04-10T11:05:51.102Z</time></trkpt><trkpt lat="44.6625697" lon="7.9273726"><ele>374.0</ele><time>2026-04-10T11:06:04.102Z</time></trkpt><trkpt lat="44.662506" lon="7.9273683"><ele>374.0</ele><time>2026-04-10T11:06:10.102Z</time></trkpt><trkpt lat="44.6624429" lon="7.9273587"><ele>374.7142857142857</ele><time>2026-04-10T11:06:15.103Z</time></trkpt><trkpt lat="44.6623693" lon="7.9273375"><ele>375.42857142857144</ele><time>2026-04-10T11:06:23.102Z</time></trkpt><trkpt lat="44.6623002" lon="7.927336"><ele>376.14285714285717</ele><time>2026-04-10T11:06:27.102Z</time></trkpt><trkpt lat="44.6622318" lon="7.9273304"><ele>376.8571428571429</ele><time>2026-04-10T11:06:36.102Z</time></trkpt><trkpt lat="44.6621649" lon="7.9273129"><ele>377.57142857142856</ele><time>2026-04-10T11:06:43.103Z</time></trkpt><trkpt lat="44.6621019" lon="7.9272924"><ele>378.28571428571433</ele><time>2026-04-10T11:06:49.102Z</time></trkpt><trkpt lat="44.6620377" lon="7.9272815"><ele>379.0</ele><time>2026-04-10T11:06:58.103Z</time></trkpt><trkpt lat="44.6619592" lon="7.927275"><ele>379.8571428571429</ele><time>2026-04-10T11:07:04.102Z</time></trkpt><trkpt lat="44.6618985" lon="7.9272388"><ele>380.7142857142857</ele><time>2026-04-10T11:07:13.103Z</time></trkpt><trkpt lat="44.661831" lon="7.927211"><ele>381.57142857142856</ele><time>2026-04-10T11:07:19.103Z</time></trkpt><trkpt lat="44.6617672" lon="7.9272197"><ele>382.42857142857144</ele><time>2026-04-10T11:07:25.103Z</time></trkpt><trkpt lat="44.6617063" lon="7.9271968"><ele>383.2857142857143</ele><time>2026-04-10T11:07:32.104Z</time></trkpt><trkpt lat="44.6616423" lon="7.9271862"><ele>384.14285714285717</ele><time>2026-04-10T11:07:40.103Z</time></trkpt><trkpt lat="44.6615753" lon="7.9272122"><ele>385.0</ele><time>2026-04-10T11:07:48.103Z</time></trkpt><trkpt lat="44.66151" lon="7.9272099"><ele>385.0</ele><time>2026-04-10T11:07:54.103Z</time></trkpt><trkpt lat="44.6614446" lon="7.9272208"><ele>385.0</ele><time>2026-04-10T11:08:01.105Z</time></trkpt><trkpt lat="44.6613808" lon="7.9272388"><ele>385.0</ele><time>2026-04-10T11:08:08.103Z</time></trkpt><trkpt lat="44.6613148" lon="7.9272423"><ele>385.0</ele><time>2026-04-10T11:08:13.104Z</time></trkpt><trkpt lat="44.6612493" lon="7.9272563"><ele>385.0</ele><time>2026-04-10T11:08:20.103Z</time></trkpt><trkpt lat="44.6611722" lon="7.9272504"><ele>385.0</ele><time>2026-04-10T11:08:27.104Z</time></trkpt><trkpt lat="44.6611017" lon="7.9272462"><ele>385.0</ele><time>2026-04-10T11:08:34.104Z</time></trkpt><trkpt lat="44.6610373" lon="7.927257"><ele>386.0</ele><time>2026-04-10T11:08:41.104Z</time></trkpt><trkpt lat="44.6609731" lon="7.9272552"><ele>387.0</ele><time>2026-04-10T11:08:47.104Z</time></trkpt><trkpt lat="44.6609036" lon="7.927253"><ele>388.0</ele><time>2026-04-10T11:09:05.104Z</time></trkpt><trkpt lat="44.6608371" lon="7.9272676"><ele>389.0</ele><time>2026-04-10T11:09:12.105Z</time></trkpt><trkpt lat="44.6607727" lon="7.9272634"><ele>390.0</ele><time>2026-04-10T11:09:18.104Z</time></trkpt><trkpt lat="44.660709" lon="7.9272548"><ele>391.0</ele><time>2026-04-10T11:09:25.104Z</time></trkpt><trkpt lat="44.6606376" lon="7.9272645"><ele>392.0</ele><time>2026-04-10T11:09:32.105Z</time></trkpt><trkpt lat="44.6605701" lon="7.9272613"><ele>392.0</ele><time>2026-04-10T11:09:37.104Z</time></trkpt><trkpt lat="44.6604979" lon="7.9272544"><ele>392.0</ele><time>2026-04-10T11:09:43.105Z</time></trkpt><trkpt lat="44.6604345" lon="7.9272432"><ele>392.0</ele><time>2026-04-10T11:09:50.105Z</time></trkpt><trkpt lat="44.6603689" lon="7.9272279"><ele>392.0</ele><time>2026-04-10T11:09:57.105Z</time></trkpt><trkpt lat="44.6603018" lon="7.927244"><ele>392.0</ele><time>2026-04-10T11:10:04.106Z</time></trkpt><trkpt lat="44.6602373" lon="7.9272381"><ele>392.0</ele><time>2026-04-10T11:10:12.105Z</time></trkpt><trkpt lat="44.6601591" lon="7.9272189"><ele>392.0</ele><time>2026-04-10T11:10:19.105Z</time></trkpt><trkpt lat="44.6600943" lon="7.9272098"><ele>392.85714285714283</ele><time>2026-04-10T11:10:24.105Z</time></trkpt><trkpt lat="44.6600172" lon="7.9272102"><ele>393.7142857142857</ele><time>2026-04-10T11:10:32.107Z</time></trkpt><trkpt lat="44.659953" lon="7.9271846"><ele>394.57142857142856</ele><time>2026-04-10T11:10:40.105Z</time></trkpt><trkpt lat="44.6598848" lon="7.9271934"><ele>395.42857142857144</ele><time>2026-04-10T11:10:47.106Z</time></trkpt><trkpt lat="44.6598207" lon="7.9272012"><ele>396.2857142857143</ele><time>2026-04-10T11:10:55.106Z</time></trkpt><trkpt lat="44.65975" lon="7.9271959"><ele>397.1428571428571</ele><time>2026-04-10T11:11:02.106Z</time></trkpt><trkpt lat="44.6596869" lon="7.9271976"><ele>398.0</ele><time>2026-04-10T11:11:11.106Z</time></trkpt><trkpt lat="44.6596238" lon="7.9271647"><ele>397.99999999999994</ele><time>2026-04-10T11:11:26.106Z</time></trkpt><trkpt lat="44.6595539" lon="7.9271389"><ele>398.0</ele><time>2026-04-10T11:11:30.106Z</time></trkpt><trkpt lat="44.6594744" lon="7.927121"><ele>398.0</ele><time>2026-04-10T11:11:34.106Z</time></trkpt><trkpt lat="44.6594009" lon="7.927119"><ele>398.0</ele><time>2026-04-10T11:11:37.106Z</time></trkpt><trkpt lat="44.6593305" lon="7.9270973"><ele>397.99999999999994</ele><time>2026-04-10T11:11:40.106Z</time></trkpt><trkpt lat="44.659254" lon="7.9270922"><ele>398.0</ele><time>2026-04-10T11:11:43.106Z</time></trkpt><trkpt lat="44.6591673" lon="7.9270841"><ele>398.66666666666663</ele><time>2026-04-10T11:11:46.106Z</time></trkpt><trkpt lat="44.6590833" lon="7.927071"><ele>399.3333333333333</ele><time>2026-04-10T11:11:49.106Z</time></trkpt><trkpt lat="44.6589912" lon="7.9270683"><ele>400.0</ele><time>2026-04-10T11:11:52.106Z</time></trkpt><trkpt lat="44.6589187" lon="7.9270488"><ele>400.66666666666663</ele><time>2026-04-10T11:11:54.106Z</time></trkpt><trkpt lat="44.6588507" lon="7.9270341"><ele>401.3333333333333</ele><time>2026-04-10T11:11:56.106Z</time></trkpt><trkpt lat="44.6587878" lon="7.9270194"><ele>402.0</ele><time>2026-04-10T11:11:58.107Z</time></trkpt><trkpt lat="44.6586942" lon="7.9270113"><ele>402.0</ele><time>2026-04-10T11:12:01.107Z</time></trkpt><trkpt lat="44.6586304" lon="7.9269964"><ele>402.0</ele><time>2026-04-10T11:12:03.106Z</time></trkpt><trkpt lat="44.6585647" lon="7.9269841"><ele>402.0</ele><time>2026-04-10T11:12:05.107Z</time></trkpt><trkpt lat="44.6584947" lon="7.9269718"><ele>402.0</ele><time>2026-04-10T11:12:07.108Z</time></trkpt><trkpt lat="44.658428" lon="7.9269638"><ele>402.0</ele><time>2026-04-10T11:12:09.106Z</time></trkpt><trkpt lat="44.6583354" lon="7.9269448"><ele>402.0</ele><time>2026-04-10T11:12:12.107Z</time></trkpt><trkpt lat="44.6582572" lon="7.926946"><ele>402.0</ele><time>2026-04-10T11:12:15.107Z</time></trkpt><trkpt lat="44.6581833" lon="7.9269478"><ele>401.3333333333333</ele><time>2026-04-10T11:12:18.107Z</time></trkpt><trkpt lat="44.6581074" lon="7.9269367"><ele>400.66666666666663</ele><time>2026-04-10T11:12:22.107Z</time></trkpt><trkpt lat="44.6580417" lon="7.9269383"><ele>400.0</ele><time>2026-04-10T11:12:25.107Z</time></trkpt><trkpt lat="44.6579586" lon="7.9269206"><ele>399.3333333333333</ele><time>2026-04-10T11:12:28.107Z</time></trkpt><trkpt lat="44.6578738" lon="7.9269116"><ele>398.66666666666663</ele><time>2026-04-10T11:12:31.107Z</time></trkpt><trkpt lat="44.657797" lon="7.9269101"><ele>398.0</ele><time>2026-04-10T11:12:34.107Z</time></trkpt><trkpt lat="44.6577334" lon="7.9269146"><ele>397.99999999999994</ele><time>2026-04-10T11:12:38.107Z</time></trkpt><trkpt lat="44.6576621" lon="7.9269547"><ele>398.0</ele><time>2026-04-10T11:13:05.107Z</time></trkpt><trkpt lat="44.6575864" lon="7.9269765"><ele>398.0</ele><time>2026-04-10T11:13:08.107Z</time></trkpt><trkpt lat="44.6575166" lon="7.9270047"><ele>398.0</ele><time>2026-04-10T11:13:10.107Z</time></trkpt><trkpt lat="44.6574446" lon="7.9270172"><ele>397.99999999999994</ele><time>2026-04-10T11:13:12.107Z</time></trkpt><trkpt lat="44.6573805" lon="7.9269976"><ele>398.0</ele><time>2026-04-10T11:13:14.108Z</time></trkpt><trkpt lat="44.6572924" lon="7.9269806"><ele>397.99999999999994</ele><time>2026-04-10T11:13:17.107Z</time></trkpt><trkpt lat="44.6572098" lon="7.9269803"><ele>398.0</ele><time>2026-04-10T11:13:20.108Z</time></trkpt><trkpt lat="44.6571351" lon="7.9269975"><ele>398.0</ele><time>2026-04-10T11:13:23.108Z</time></trkpt><trkpt lat="44.6570467" lon="7.9269982"><ele>398.0</ele><time>2026-04-10T11:13:26.109Z</time></trkpt><trkpt lat="44.6569809" lon="7.9270068"><ele>397.99999999999994</ele><time>2026-04-10T11:13:28.108Z</time></trkpt><trkpt lat="44.6568914" lon="7.9270162"><ele>398.0</ele><time>2026-04-10T11:13:31.108Z</time></trkpt><trkpt lat="44.6568267" lon="7.9270294"><ele>399.16666666666663</ele><time>2026-04-10T11:13:33.108Z</time></trkpt><trkpt lat="44.6567617" lon="7.9270476"><ele>400.3333333333333</ele><time>2026-04-10T11:13:35.108Z</time></trkpt><trkpt lat="44.6566876" lon="7.9270832"><ele>401.5</ele><time>2026-04-10T11:13:37.108Z</time></trkpt><trkpt lat="44.6566137" lon="7.9271257"><ele>402.66666666666663</ele><time>2026-04-10T11:13:39.108Z</time></trkpt><trkpt lat="44.6565195" lon="7.927159"><ele>403.8333333333333</ele><time>2026-04-10T11:13:42.108Z</time></trkpt><trkpt lat="44.6564495" lon="7.9272013"><ele>405.0</ele><time>2026-04-10T11:13:44.108Z</time></trkpt><trkpt lat="44.6563608" lon="7.9272493"><ele>405.0</ele><time>2026-04-10T11:13:47.108Z</time></trkpt><trkpt lat="44.6562938" lon="7.9272719"><ele>405.0</ele><time>2026-04-10T11:13:49.108Z</time></trkpt><trkpt lat="44.6562259" lon="7.9273017"><ele>405.0</ele><time>2026-04-10T11:13:51.108Z</time></trkpt><trkpt lat="44.6561488" lon="7.9273241"><ele>405.0</ele><time>2026-04-10T11:13:53.109Z</time></trkpt><trkpt lat="44.6560882" lon="7.9273486"><ele>405.0</ele><time>2026-04-10T11:13:55.108Z</time></trkpt><trkpt lat="44.655999" lon="7.927373"><ele>405.0</ele><time>2026-04-10T11:13:58.108Z</time></trkpt><trkpt lat="44.6559161" lon="7.9273858"><ele>405.8333333333333</ele><time>2026-04-10T11:14:01.108Z</time></trkpt><trkpt lat="44.655856" lon="7.9273584"><ele>406.66666666666663</ele><time>2026-04-10T11:14:10.108Z</time></trkpt><trkpt lat="44.6557835" lon="7.927386"><ele>407.5</ele><time>2026-04-10T11:15:10.109Z</time></trkpt><trkpt lat="44.6557008" lon="7.9274026"><ele>408.3333333333333</ele><time>2026-04-10T11:15:13.109Z</time></trkpt><trkpt lat="44.6556126" lon="7.9274047"><ele>409.16666666666663</ele><time>2026-04-10T11:15:16.109Z</time></trkpt><trkpt lat="44.6555339" lon="7.9274146"><ele>410.0</ele><time>2026-04-10T11:15:19.109Z</time></trkpt><trkpt lat="44.6554407" lon="7.9274124"><ele>409.99999999999994</ele><time>2026-04-10T11:15:22.109Z</time></trkpt><trkpt lat="44.6553767" lon="7.9274245"><ele>410.0</ele><time>2026-04-10T11:15:24.109Z</time></trkpt><trkpt lat="44.6552949" lon="7.9274476"><ele>410.0</ele><time>2026-04-10T11:15:27.109Z</time></trkpt><trkpt lat="44.655208" lon="7.9274543"><ele>410.0</ele><time>2026-04-10T11:15:30.11Z</time></trkpt><trkpt lat="44.6551315" lon="7.927463"><ele>409.99999999999994</ele><time>2026-04-10T11:15:33.109Z</time></trkpt><trkpt lat="44.6550543" lon="7.9274654"><ele>410.0</ele><time>2026-04-10T11:15:36.109Z</time></trkpt><trkpt lat="44.6549798" lon="7.9274778"><ele>411.0</ele><time>2026-04-10T11:15:39.109Z</time></trkpt><trkpt lat="44.6549004" lon="7.9274685"><ele>412.0</ele><time>2026-04-10T11:15:42.109Z</time></trkpt><trkpt lat="44.6548254" lon="7.9274726"><ele>413.0</ele><time>2026-04-10T11:15:45.109Z</time></trkpt><trkpt lat="44.6547598" lon="7.9274549"><ele>414.0</ele><time>2026-04-10T11:15:48.109Z</time></trkpt><trkpt lat="44.6546919" lon="7.9274367"><ele>415.0</ele><time>2026-04-10T11:15:51.109Z</time></trkpt><trkpt lat="44.6546271" lon="7.9274238"><ele>416.0</ele><time>2026-04-10T11:15:54.109Z</time></trkpt><trkpt lat="44.6545518" lon="7.9273815"><ele>417.0</ele><time>2026-04-10T11:15:58.11Z</time></trkpt><trkpt lat="44.6544869" lon="7.9273352"><ele>418.0</ele><time>2026-04-10T11:16:01.11Z</time></trkpt><trkpt lat="44.6544105" lon="7.9272814"><ele>419.0</ele><time>2026-04-10T11:16:05.11Z</time></trkpt><trkpt lat="44.65436" lon="7.9272213"><ele>420.0</ele><time>2026-04-10T11:16:08.11Z</time></trkpt><trkpt lat="44.654304" lon="7.9271792"><ele>421.0</ele><time>2026-04-10T11:16:11.11Z</time></trkpt><trkpt lat="44.6542499" lon="7.9271292"><ele>422.0</ele><time>2026-04-10T11:16:14.11Z</time></trkpt><trkpt lat="44.6541965" lon="7.9270676"><ele>423.0</ele><time>2026-04-10T11:16:18.11Z</time></trkpt><trkpt lat="44.6541306" lon="7.9270151"><ele>424.0</ele><time>2026-04-10T11:16:22.11Z</time></trkpt><trkpt lat="44.6540559" lon="7.9269665"><ele>424.0</ele><time>2026-04-10T11:16:26.11Z</time></trkpt><trkpt lat="44.6540057" lon="7.9269117"><ele>424.0</ele><time>2026-04-10T11:16:29.111Z</time></trkpt><trkpt lat="44.653951" lon="7.9268651"><ele>424.0</ele><time>2026-04-10T11:16:32.11Z</time></trkpt><trkpt lat="44.6538918" lon="7.9268234"><ele>424.0</ele><time>2026-04-10T11:16:35.11Z</time></trkpt><trkpt lat="44.6538187" lon="7.9267705"><ele>424.0</ele><time>2026-04-10T11:16:39.11Z</time></trkpt><trkpt lat="44.6537571" lon="7.9267301"><ele>424.0</ele><time>2026-04-10T11:16:42.11Z</time></trkpt><trkpt lat="44.6536955" lon="7.9266736"><ele>424.0</ele><time>2026-04-10T11:16:45.11Z</time></trkpt><trkpt lat="44.6536205" lon="7.9266177"><ele>424.00000000000006</ele><time>2026-04-10T11:16:49.11Z</time></trkpt><trkpt lat="44.6535585" lon="7.9265689"><ele>424.0</ele><time>2026-04-10T11:16:52.11Z</time></trkpt><trkpt lat="44.6536024" lon="7.9266553"><ele>424.0</ele><time>2026-04-10T11:17:01.11Z</time></trkpt><trkpt lat="44.6536618" lon="7.9266953"><ele>424.0</ele><time>2026-04-10T11:17:03.111Z</time></trkpt><trkpt lat="44.6537326" lon="7.9267507"><ele>424.00000000000006</ele><time>2026-04-10T11:17:05.11Z</time></trkpt><trkpt lat="44.653814" lon="7.9268191"><ele>424.0</ele><time>2026-04-10T11:17:07.111Z</time></trkpt><trkpt lat="44.6539097" lon="7.9268981"><ele>424.0</ele><time>2026-04-10T11:17:09.11Z</time></trkpt><trkpt lat="44.6540054" lon="7.926986"><ele>424.0</ele><time>2026-04-10T11:17:11.111Z</time></trkpt><trkpt lat="44.6541115" lon="7.9270772"><ele>424.0</ele><time>2026-04-10T11:17:13.111Z</time></trkpt><trkpt lat="44.6541698" lon="7.9271221"><ele>424.0</ele><time>2026-04-10T11:17:14.11Z</time></trkpt><trkpt lat="44.6542724" lon="7.9272031"><ele>424.0</ele><time>2026-04-10T11:17:16.111Z</time></trkpt><trkpt lat="44.6543505" lon="7.927266"><ele>424.00000000000006</ele><time>2026-04-10T11:17:18.111Z</time></trkpt><trkpt lat="44.6544134" lon="7.9273152"><ele>424.0</ele><time>2026-04-10T11:17:20.111Z</time></trkpt><trkpt lat="44.6544797" lon="7.9273898"><ele>424.0</ele><time>2026-04-10T11:17:23.111Z</time></trkpt><trkpt lat="44.6545286" lon="7.9274568"><ele>424.0</ele><time>2026-04-10T11:17:26.111Z</time></trkpt><trkpt lat="44.6544773" lon="7.9275327"><ele>424.00000000000006</ele><time>2026-04-10T11:18:18.229Z</time></trkpt><trkpt lat="44.6543995" lon="7.9275779"><ele>424.0</ele><time>2026-04-10T11:18:22.18Z</time></trkpt><trkpt lat="44.6543596" lon="7.927662"><ele>423.7142857142857</ele><time>2026-04-10T11:18:25.215Z</time></trkpt><trkpt lat="44.6542934" lon="7.927703"><ele>423.4285714285714</ele><time>2026-04-10T11:18:28.149Z</time></trkpt><trkpt lat="44.6542437" lon="7.9277809"><ele>423.1428571428571</ele><time>2026-04-10T11:18:32.2Z</time></trkpt><trkpt lat="44.6541846" lon="7.9278491"><ele>422.8571428571429</ele><time>2026-04-10T11:18:36.218Z</time></trkpt><trkpt lat="44.6541181" lon="7.9278714"><ele>422.57142857142856</ele><time>2026-04-10T11:18:40.219Z</time></trkpt><trkpt lat="44.6540562" lon="7.9279198"><ele>422.2857142857143</ele><time>2026-04-10T11:18:44.137Z</time></trkpt><trkpt lat="44.6539941" lon="7.927975"><ele>422.0</ele><time>2026-04-10T11:18:48.221Z</time></trkpt><trkpt lat="44.6539292" lon="7.9280242"><ele>422.0</ele><time>2026-04-10T11:18:52.203Z</time></trkpt><trkpt lat="44.6538647" lon="7.9280616"><ele>422.0</ele><time>2026-04-10T11:18:55.223Z</time></trkpt><trkpt lat="44.6537869" lon="7.9281061"><ele>422.0</ele><time>2026-04-10T11:18:59.219Z</time></trkpt><trkpt lat="44.6537126" lon="7.9281506"><ele>422.0</ele><time>2026-04-10T11:19:02.112Z</time></trkpt><trkpt lat="44.6536562" lon="7.9281948"><ele>422.0</ele><time>2026-04-10T11:19:05.112Z</time></trkpt><trkpt lat="44.6535954" lon="7.9282442"><ele>422.0</ele><time>2026-04-10T11:19:09.112Z</time></trkpt><trkpt lat="44.6535262" lon="7.9282802"><ele>422.0</ele><time>2026-04-10T11:19:13.112Z</time></trkpt><trkpt lat="44.6534621" lon="7.9283124"><ele>423.57142857142856</ele><time>2026-04-10T11:19:16.112Z</time></trkpt><trkpt lat="44.6533868" lon="7.9283215"><ele>425.14285714285717</ele><time>2026-04-10T11:19:21.112Z</time></trkpt><trkpt lat="44.6533089" lon="7.9283153"><ele>426.71428571428567</ele><time>2026-04-10T11:19:26.112Z</time></trkpt><trkpt lat="44.6532287" lon="7.9282989"><ele>428.2857142857143</ele><time>2026-04-10T11:19:30.112Z</time></trkpt><trkpt lat="44.6531665" lon="7.9282661"><ele>429.85714285714283</ele><time>2026-04-10T11:19:34.112Z</time></trkpt><trkpt lat="44.6530982" lon="7.9282617"><ele>431.4285714285714</ele><time>2026-04-10T11:19:45.113Z</time></trkpt><trkpt lat="44.6530311" lon="7.9282439"><ele>433.0</ele><time>2026-04-10T11:19:55.113Z</time></trkpt><trkpt lat="44.6529662" lon="7.9282482"><ele>432.99999999999994</ele><time>2026-04-10T11:20:00.113Z</time></trkpt><trkpt lat="44.652905" lon="7.928269"><ele>433.0</ele><time>2026-04-10T11:20:07.113Z</time></trkpt><trkpt lat="44.6528509" lon="7.9283174"><ele>433.0</ele><time>2026-04-10T11:20:16.113Z</time></trkpt><trkpt lat="44.6527769" lon="7.9283258"><ele>433.0</ele><time>2026-04-10T11:20:23.114Z</time></trkpt><trkpt lat="44.6527178" lon="7.9283774"><ele>433.0</ele><time>2026-04-10T11:20:29.113Z</time></trkpt><trkpt lat="44.6526705" lon="7.9284488"><ele>432.99999999999994</ele><time>2026-04-10T11:20:36.113Z</time></trkpt><trkpt lat="44.6526485" lon="7.9285372"><ele>433.0</ele><time>2026-04-10T11:21:06.114Z</time></trkpt><trkpt lat="44.6526019" lon="7.9286025"><ele>433.71428571428567</ele><time>2026-04-10T11:21:34.114Z</time></trkpt><trkpt lat="44.6525627" lon="7.9286984"><ele>434.42857142857144</ele><time>2026-04-10T11:21:45.114Z</time></trkpt><trkpt lat="44.6525241" lon="7.9287769"><ele>435.1428571428571</ele><time>2026-04-10T11:21:48.114Z</time></trkpt><trkpt lat="44.6524808" lon="7.9288506"><ele>435.85714285714283</ele><time>2026-04-10T11:21:51.114Z</time></trkpt><trkpt lat="44.6524222" lon="7.9289168"><ele>436.57142857142856</ele><time>2026-04-10T11:21:54.114Z</time></trkpt><trkpt lat="44.652377" lon="7.928986"><ele>437.2857142857143</ele><time>2026-04-10T11:21:58.114Z</time></trkpt><trkpt lat="44.6523002" lon="7.9289776"><ele>438.0</ele><time>2026-04-10T11:22:02.115Z</time></trkpt><trkpt lat="44.6522472" lon="7.928898"><ele>438.0</ele><time>2026-04-10T11:22:06.115Z</time></trkpt><trkpt lat="44.6521818" lon="7.9288582"><ele>438.0</ele><time>2026-04-10T11:22:09.114Z</time></trkpt><trkpt lat="44.6521265" lon="7.9288138"><ele>438.0</ele><time>2026-04-10T11:22:12.115Z</time></trkpt><trkpt lat="44.6520655" lon="7.9287784"><ele>438.0</ele><time>2026-04-10T11:22:15.115Z</time></trkpt><trkpt lat="44.652003" lon="7.9287407"><ele>438.0</ele><time>2026-04-10T11:22:18.115Z</time></trkpt><trkpt lat="44.6519385" lon="7.9286901"><ele>438.0</ele><time>2026-04-10T11:22:21.116Z</time></trkpt><trkpt lat="44.6518743" lon="7.9286412"><ele>438.0</ele><time>2026-04-10T11:22:24.115Z</time></trkpt><trkpt lat="44.6518096" lon="7.9285917"><ele>437.7142857142857</ele><time>2026-04-10T11:22:27.116Z</time></trkpt><trkpt lat="44.6517508" lon="7.9285558"><ele>437.4285714285714</ele><time>2026-04-10T11:22:30.115Z</time></trkpt><trkpt lat="44.6516778" lon="7.9285075"><ele>437.1428571428571</ele><time>2026-04-10T11:22:34.115Z</time></trkpt><trkpt lat="44.6516127" lon="7.9284576"><ele>436.8571428571429</ele><time>2026-04-10T11:22:37.115Z</time></trkpt><trkpt lat="44.6515409" lon="7.9284326"><ele>436.57142857142856</ele><time>2026-04-10T11:22:40.115Z</time></trkpt><trkpt lat="44.651472" lon="7.9284074"><ele>436.2857142857143</ele><time>2026-04-10T11:22:43.115Z</time></trkpt><trkpt lat="44.6514001" lon="7.9284036"><ele>436.0</ele><time>2026-04-10T11:22:46.115Z</time></trkpt><trkpt lat="44.6513256" lon="7.9284059"><ele>437.50000000000006</ele><time>2026-04-10T11:22:49.115Z</time></trkpt><trkpt lat="44.6512567" lon="7.9283883"><ele>439.0</ele><time>2026-04-10T11:22:52.115Z</time></trkpt><trkpt lat="44.6511862" lon="7.9283495"><ele>440.5</ele><time>2026-04-10T11:22:55.115Z</time></trkpt><trkpt lat="44.6511133" lon="7.9283119"><ele>442.0</ele><time>2026-04-10T11:22:58.115Z</time></trkpt><trkpt lat="44.6510429" lon="7.9282581"><ele>443.50000000000006</ele><time>2026-04-10T11:23:02.115Z</time></trkpt><trkpt lat="44.6509647" lon="7.9282518"><ele>445.0</ele><time>2026-04-10T11:23:06.115Z</time></trkpt><trkpt lat="44.6508959" lon="7.9282725"><ele>445.14285714285717</ele><time>2026-04-10T11:23:09.116Z</time></trkpt><trkpt lat="44.650815" lon="7.9282675"><ele>445.2857142857143</ele><time>2026-04-10T11:23:13.116Z</time></trkpt><trkpt lat="44.6507443" lon="7.9282751"><ele>445.42857142857144</ele><time>2026-04-10T11:23:16.116Z</time></trkpt><trkpt lat="44.6506624" lon="7.9282671"><ele>445.57142857142856</ele><time>2026-04-10T11:23:20.115Z</time></trkpt><trkpt lat="44.6505952" lon="7.928261"><ele>445.71428571428567</ele><time>2026-04-10T11:23:23.115Z</time></trkpt><trkpt lat="44.6505212" lon="7.9282406"><ele>445.85714285714283</ele><time>2026-04-10T11:23:26.115Z</time></trkpt><trkpt lat="44.6504511" lon="7.9282223"><ele>446.0</ele><time>2026-04-10T11:23:29.116Z</time></trkpt><trkpt lat="44.650385" lon="7.9281963"><ele>446.0</ele><time>2026-04-10T11:23:32.116Z</time></trkpt><trkpt lat="44.6503236" lon="7.9281714"><ele>446.0</ele><time>2026-04-10T11:23:35.116Z</time></trkpt><trkpt lat="44.6502487" lon="7.9281436"><ele>446.0</ele><time>2026-04-10T11:23:38.116Z</time></trkpt><trkpt lat="44.6501848" lon="7.9281066"><ele>446.0</ele><time>2026-04-10T11:23:41.116Z</time></trkpt><trkpt lat="44.6501207" lon="7.928071"><ele>446.0</ele><time>2026-04-10T11:23:44.116Z</time></trkpt><trkpt lat="44.6500473" lon="7.9280443"><ele>446.0</ele><time>2026-04-10T11:23:48.117Z</time></trkpt><trkpt lat="44.6499763" lon="7.9280351"><ele>446.0</ele><time>2026-04-10T11:23:52.116Z</time></trkpt><trkpt lat="44.6499013" lon="7.9280264"><ele>446.57142857142856</ele><time>2026-04-10T11:23:57.116Z</time></trkpt><trkpt lat="44.64983" lon="7.9279931"><ele>447.1428571428571</ele><time>2026-04-10T11:24:02.116Z</time></trkpt><trkpt lat="44.6497621" lon="7.9279554"><ele>447.7142857142858</ele><time>2026-04-10T11:24:07.116Z</time></trkpt><trkpt lat="44.6497007" lon="7.9279239"><ele>448.28571428571433</ele><time>2026-04-10T11:24:12.116Z</time></trkpt><trkpt lat="44.6496383" lon="7.927882"><ele>448.8571428571429</ele><time>2026-04-10T11:24:17.116Z</time></trkpt><trkpt lat="44.6495793" lon="7.9278507"><ele>449.4285714285715</ele><time>2026-04-10T11:24:21.116Z</time></trkpt><trkpt lat="44.6495159" lon="7.9278356"><ele>450.00000000000006</ele><time>2026-04-10T11:24:25.118Z</time></trkpt><trkpt lat="44.6494389" lon="7.9278321"><ele>451.00000000000006</ele><time>2026-04-10T11:24:30.116Z</time></trkpt><trkpt lat="44.6493645" lon="7.927812"><ele>452.0</ele><time>2026-04-10T11:24:35.117Z</time></trkpt><trkpt lat="44.6493009" lon="7.9278059"><ele>453.00000000000006</ele><time>2026-04-10T11:24:40.116Z</time></trkpt><trkpt lat="44.6492345" lon="7.9278019"><ele>454.00000000000006</ele><time>2026-04-10T11:24:45.117Z</time></trkpt><trkpt lat="44.6491602" lon="7.9278164"><ele>455.0</ele><time>2026-04-10T11:24:50.117Z</time></trkpt><trkpt lat="44.6490871" lon="7.9278339"><ele>456.00000000000006</ele><time>2026-04-10T11:24:55.117Z</time></trkpt><trkpt lat="44.6490151" lon="7.9278402"><ele>457.00000000000006</ele><time>2026-04-10T11:25:00.118Z</time></trkpt><trkpt lat="44.6489521" lon="7.9278725"><ele>457.00000000000006</ele><time>2026-04-10T11:25:05.117Z</time></trkpt><trkpt lat="44.6488879" lon="7.9278908"><ele>457.0</ele><time>2026-04-10T11:25:08.117Z</time></trkpt><trkpt lat="44.6488044" lon="7.9279108"><ele>457.0</ele><time>2026-04-10T11:25:11.117Z</time></trkpt><trkpt lat="44.6487062" lon="7.9279332"><ele>457.0</ele><time>2026-04-10T11:25:14.117Z</time></trkpt><trkpt lat="44.6486254" lon="7.9279428"><ele>457.00000000000006</ele><time>2026-04-10T11:25:16.117Z</time></trkpt><trkpt lat="44.6485516" lon="7.9279666"><ele>457.0</ele><time>2026-04-10T11:25:18.118Z</time></trkpt><trkpt lat="44.6484705" lon="7.9279601"><ele>457.33333333333337</ele><time>2026-04-10T11:25:20.117Z</time></trkpt><trkpt lat="44.6483832" lon="7.927957"><ele>457.6666666666667</ele><time>2026-04-10T11:25:22.117Z</time></trkpt><trkpt lat="44.6482933" lon="7.9279684"><ele>458.0</ele><time>2026-04-10T11:25:24.117Z</time></trkpt><trkpt lat="44.6482072" lon="7.9279686"><ele>458.33333333333337</ele><time>2026-04-10T11:25:26.117Z</time></trkpt><trkpt lat="44.6481296" lon="7.9279573"><ele>458.6666666666667</ele><time>2026-04-10T11:25:28.117Z</time></trkpt><trkpt lat="44.6480579" lon="7.9279708"><ele>459.0</ele><time>2026-04-10T11:25:30.117Z</time></trkpt><trkpt lat="44.6479629" lon="7.9279666"><ele>459.0</ele><time>2026-04-10T11:25:33.117Z</time></trkpt><trkpt lat="44.647881" lon="7.9279878"><ele>459.0</ele><time>2026-04-10T11:25:36.117Z</time></trkpt><trkpt lat="44.647808" lon="7.9279711"><ele>459.0</ele><time>2026-04-10T11:25:39.117Z</time></trkpt><trkpt lat="44.6477249" lon="7.9279715"><ele>459.0</ele><time>2026-04-10T11:25:42.117Z</time></trkpt><trkpt lat="44.6476614" lon="7.9279849"><ele>459.0</ele><time>2026-04-10T11:25:44.117Z</time></trkpt><trkpt lat="44.647592" lon="7.9279941"><ele>459.0</ele><time>2026-04-10T11:25:46.117Z</time></trkpt><trkpt lat="44.647518" lon="7.9279844"><ele>459.0</ele><time>2026-04-10T11:25:49.117Z</time></trkpt><trkpt lat="44.6474426" lon="7.9279922"><ele>458.6666666666667</ele><time>2026-04-10T11:25:52.117Z</time></trkpt><trkpt lat="44.6473545" lon="7.9280088"><ele>458.33333333333337</ele><time>2026-04-10T11:25:55.117Z</time></trkpt><trkpt lat="44.6472688" lon="7.9280356"><ele>458.0</ele><time>2026-04-10T11:25:58.117Z</time></trkpt><trkpt lat="44.6471932" lon="7.9280372"><ele>457.6666666666667</ele><time>2026-04-10T11:26:01.119Z</time></trkpt><trkpt lat="44.6471055" lon="7.9280412"><ele>457.33333333333337</ele><time>2026-04-10T11:26:04.118Z</time></trkpt><trkpt lat="44.6470303" lon="7.9280598"><ele>457.0</ele><time>2026-04-10T11:26:07.118Z</time></trkpt><trkpt lat="44.6469588" lon="7.928061"><ele>457.83333333333337</ele><time>2026-04-10T11:26:10.118Z</time></trkpt><trkpt lat="44.646863" lon="7.9280624"><ele>458.6666666666667</ele><time>2026-04-10T11:26:13.118Z</time></trkpt><trkpt lat="44.6467761" lon="7.9280601"><ele>459.5</ele><time>2026-04-10T11:26:16.118Z</time></trkpt><trkpt lat="44.6466994" lon="7.9280717"><ele>460.33333333333337</ele><time>2026-04-10T11:26:19.119Z</time></trkpt><trkpt lat="44.646635" lon="7.9281483"><ele>461.1666666666667</ele><time>2026-04-10T11:26:22.119Z</time></trkpt><trkpt lat="44.6465602" lon="7.9281373"><ele>462.0</ele><time>2026-04-10T11:26:24.12Z</time></trkpt><trkpt lat="44.6464942" lon="7.9281232"><ele>462.0</ele><time>2026-04-10T11:26:26.12Z</time></trkpt><trkpt lat="44.6464053" lon="7.9281155"><ele>462.0</ele><time>2026-04-10T11:26:29.121Z</time></trkpt><trkpt lat="44.6463461" lon="7.9281526"><ele>462.0</ele><time>2026-04-10T11:26:31.121Z</time></trkpt><trkpt lat="44.6462961" lon="7.9282122"><ele>462.0</ele><time>2026-04-10T11:26:33.122Z</time></trkpt><trkpt lat="44.6462238" lon="7.9282143"><ele>462.0</ele><time>2026-04-10T11:26:35.123Z</time></trkpt><trkpt lat="44.646153" lon="7.9282157"><ele>462.0</ele><time>2026-04-10T11:26:37.123Z</time></trkpt><trkpt lat="44.6460625" lon="7.9282456"><ele>462.5</ele><time>2026-04-10T11:26:40.124Z</time></trkpt><trkpt lat="44.6460044" lon="7.9282101"><ele>463.0</ele><time>2026-04-10T11:26:42.142Z</time></trkpt><trkpt lat="44.6459095" lon="7.9282074"><ele>463.5</ele><time>2026-04-10T11:26:45.142Z</time></trkpt><trkpt lat="44.6458468" lon="7.9282337"><ele>464.0</ele><time>2026-04-10T11:26:47.142Z</time></trkpt><trkpt lat="44.6457748" lon="7.9282652"><ele>464.5</ele><time>2026-04-10T11:26:50.143Z</time></trkpt><trkpt lat="44.6456998" lon="7.9282368"><ele>465.0</ele><time>2026-04-10T11:26:54.161Z</time></trkpt><trkpt lat="44.6456302" lon="7.9282675"><ele>465.0</ele><time>2026-04-10T11:26:57.163Z</time></trkpt><trkpt lat="44.6455566" lon="7.9283189"><ele>465.0</ele><time>2026-04-10T11:27:00.162Z</time></trkpt><trkpt lat="44.6454888" lon="7.9283071"><ele>465.0</ele><time>2026-04-10T11:27:03.066Z</time></trkpt><trkpt lat="44.6454507" lon="7.9283972"><ele>465.0</ele><time>2026-04-10T11:27:05.166Z</time></trkpt><trkpt lat="44.6454272" lon="7.928483"><ele>465.0</ele><time>2026-04-10T11:27:07.164Z</time></trkpt><trkpt lat="44.6453969" lon="7.9285725"><ele>465.0</ele><time>2026-04-10T11:27:11.182Z</time></trkpt><trkpt lat="44.6453374" lon="7.9286377"><ele>465.0</ele><time>2026-04-10T11:27:16.183Z</time></trkpt><trkpt lat="44.6452764" lon="7.9286894"><ele>465.6666666666667</ele><time>2026-04-10T11:27:20.187Z</time></trkpt><trkpt lat="44.645222" lon="7.9287418"><ele>466.33333333333337</ele><time>2026-04-10T11:31:09.199Z</time></trkpt><trkpt lat="44.6451655" lon="7.9288472"><ele>467.0</ele><time>2026-04-10T11:31:13.217Z</time></trkpt><trkpt lat="44.6450922" lon="7.9289122"><ele>467.6666666666667</ele><time>2026-04-10T11:31:16.134Z</time></trkpt><trkpt lat="44.6450338" lon="7.9290093"><ele>468.33333333333337</ele><time>2026-04-10T11:31:19.152Z</time></trkpt><trkpt lat="44.6449887" lon="7.9291231"><ele>469.0</ele><time>2026-04-10T11:31:22.202Z</time></trkpt><trkpt lat="44.6449425" lon="7.9292132"><ele>469.00000000000006</ele><time>2026-04-10T11:31:25.22Z</time></trkpt><trkpt lat="44.6448978" lon="7.929287"><ele>469.0</ele><time>2026-04-10T11:31:28.171Z</time></trkpt><trkpt lat="44.6448383" lon="7.9293558"><ele>469.0</ele><time>2026-04-10T11:31:31.205Z</time></trkpt><trkpt lat="44.6447759" lon="7.9294217"><ele>469.0</ele><time>2026-04-10T11:31:34.172Z</time></trkpt><trkpt lat="44.6447318" lon="7.9295141"><ele>469.00000000000006</ele><time>2026-04-10T11:31:37.19Z</time></trkpt><trkpt lat="44.6446752" lon="7.929591"><ele>469.0</ele><time>2026-04-10T11:31:41.141Z</time></trkpt><trkpt lat="44.6446218" lon="7.9296493"><ele>469.0</ele><time>2026-04-10T11:31:44.158Z</time></trkpt><trkpt lat="44.6445698" lon="7.9297139"><ele>469.0</ele><time>2026-04-10T11:31:47.192Z</time></trkpt><trkpt lat="44.6445169" lon="7.9297708"><ele>469.0</ele><time>2026-04-10T11:31:50.16Z</time></trkpt><trkpt lat="44.6444636" lon="7.9298357"><ele>469.0</ele><time>2026-04-10T11:31:53.21Z</time></trkpt><trkpt lat="44.6444078" lon="7.9299046"><ele>469.0</ele><time>2026-04-10T11:31:57.145Z</time></trkpt><trkpt lat="44.6443553" lon="7.9299536"><ele>469.0</ele><time>2026-04-10T11:32:01.196Z</time></trkpt><trkpt lat="44.6442979" lon="7.9300118"><ele>469.0</ele><time>2026-04-10T11:32:06.214Z</time></trkpt><trkpt lat="44.6442386" lon="7.9300597"><ele>470.8571428571429</ele><time>2026-04-10T11:32:13.199Z</time></trkpt><trkpt lat="44.6441756" lon="7.9300685"><ele>472.7142857142857</ele><time>2026-04-10T11:32:17.2Z</time></trkpt><trkpt lat="44.6441117" lon="7.9300679"><ele>474.57142857142856</ele><time>2026-04-10T11:32:20.167Z</time></trkpt><trkpt lat="44.6440649" lon="7.9301664"><ele>476.42857142857144</ele><time>2026-04-10T11:32:52.2Z</time></trkpt><trkpt lat="44.6440313" lon="7.9302706"><ele>478.28571428571433</ele><time>2026-04-10T11:32:55.168Z</time></trkpt><trkpt lat="44.6440073" lon="7.9303532"><ele>480.14285714285717</ele><time>2026-04-10T11:32:57.038Z</time></trkpt><trkpt lat="44.6439839" lon="7.9304389"><ele>482.0</ele><time>2026-04-10T11:33:00.219Z</time></trkpt><trkpt lat="44.6439418" lon="7.9305127"><ele>482.0</ele><time>2026-04-10T11:33:03.187Z</time></trkpt><trkpt lat="44.643895" lon="7.930596"><ele>482.00000000000006</ele><time>2026-04-10T11:33:05.124Z</time></trkpt><trkpt lat="44.6438366" lon="7.9306628"><ele>482.0</ele><time>2026-04-10T11:33:09.123Z</time></trkpt><trkpt lat="44.6437849" lon="7.9307362"><ele>482.0</ele><time>2026-04-10T11:33:12.124Z</time></trkpt><trkpt lat="44.6437346" lon="7.9308288"><ele>482.00000000000006</ele><time>2026-04-10T11:33:15.123Z</time></trkpt><trkpt lat="44.6436781" lon="7.9308977"><ele>482.0</ele><time>2026-04-10T11:33:19.123Z</time></trkpt><trkpt lat="44.6436231" lon="7.9309422"><ele>482.0</ele><time>2026-04-10T11:33:22.123Z</time></trkpt><trkpt lat="44.6435744" lon="7.9310077"><ele>483.0</ele><time>2026-04-10T11:33:26.124Z</time></trkpt><trkpt lat="44.6435219" lon="7.9310864"><ele>484.00000000000006</ele><time>2026-04-10T11:33:30.124Z</time></trkpt><trkpt lat="44.6434773" lon="7.9311719"><ele>485.0</ele><time>2026-04-10T11:33:34.124Z</time></trkpt><trkpt lat="44.6434281" lon="7.9312329"><ele>486.0</ele><time>2026-04-10T11:33:38.124Z</time></trkpt><trkpt lat="44.6433792" lon="7.9313095"><ele>487.00000000000006</ele><time>2026-04-10T11:33:42.125Z</time></trkpt><trkpt lat="44.6433215" lon="7.9313758"><ele>488.0</ele><time>2026-04-10T11:33:46.124Z</time></trkpt><trkpt lat="44.6432701" lon="7.9314402"><ele>489.0</ele><time>2026-04-10T11:33:50.124Z</time></trkpt><trkpt lat="44.6432174" lon="7.9315173"><ele>489.0</ele><time>2026-04-10T11:33:55.124Z</time></trkpt><trkpt lat="44.6431724" lon="7.9315819"><ele>489.00000000000006</ele><time>2026-04-10T11:33:59.124Z</time></trkpt><trkpt lat="44.6431267" lon="7.9316459"><ele>489.0</ele><time>2026-04-10T11:34:03.124Z</time></trkpt><trkpt lat="44.6430747" lon="7.9316989"><ele>489.0</ele><time>2026-04-10T11:34:07.124Z</time></trkpt><trkpt lat="44.643002" lon="7.9317558"><ele>489.00000000000006</ele><time>2026-04-10T11:34:11.124Z</time></trkpt><trkpt lat="44.6429541" lon="7.9318293"><ele>489.0</ele><time>2026-04-10T11:34:15.124Z</time></trkpt><trkpt lat="44.6428987" lon="7.9319009"><ele>489.0</ele><time>2026-04-10T11:34:19.124Z</time></trkpt><trkpt lat="44.6428595" lon="7.9319924"><ele>488.7142857142857</ele><time>2026-04-10T11:34:23.125Z</time></trkpt><trkpt lat="44.642813" lon="7.9320567"><ele>488.42857142857144</ele><time>2026-04-10T11:34:27.125Z</time></trkpt><trkpt lat="44.6427585" lon="7.9321307"><ele>488.14285714285717</ele><time>2026-04-10T11:34:31.124Z</time></trkpt><trkpt lat="44.642696" lon="7.9322055"><ele>487.8571428571429</ele><time>2026-04-10T11:34:35.124Z</time></trkpt><trkpt lat="44.6426415" lon="7.9322502"><ele>487.57142857142856</ele><time>2026-04-10T11:34:38.125Z</time></trkpt><trkpt lat="44.642586" lon="7.9323264"><ele>487.28571428571433</ele><time>2026-04-10T11:34:42.126Z</time></trkpt><trkpt lat="44.6425266" lon="7.9323807"><ele>487.0</ele><time>2026-04-10T11:34:46.125Z</time></trkpt><trkpt lat="44.6424558" lon="7.9324249"><ele>487.1666666666667</ele><time>2026-04-10T11:34:50.125Z</time></trkpt><trkpt lat="44.642385" lon="7.9324714"><ele>487.33333333333337</ele><time>2026-04-10T11:34:54.126Z</time></trkpt><trkpt lat="44.6423088" lon="7.9325057"><ele>487.5</ele><time>2026-04-10T11:34:58.125Z</time></trkpt><trkpt lat="44.6422298" lon="7.9325278"><ele>487.66666666666663</ele><time>2026-04-10T11:35:02.125Z</time></trkpt><trkpt lat="44.6421549" lon="7.9325552"><ele>487.8333333333333</ele><time>2026-04-10T11:35:06.125Z</time></trkpt><trkpt lat="44.6420832" lon="7.9325874"><ele>488.0</ele><time>2026-04-10T11:35:09.125Z</time></trkpt><trkpt lat="44.6420088" lon="7.9326208"><ele>489.1428571428571</ele><time>2026-04-10T11:35:12.125Z</time></trkpt><trkpt lat="44.6419394" lon="7.9326548"><ele>490.2857142857143</ele><time>2026-04-10T11:35:15.125Z</time></trkpt><trkpt lat="44.6418666" lon="7.9326931"><ele>491.42857142857144</ele><time>2026-04-10T11:35:18.125Z</time></trkpt><trkpt lat="44.6417821" lon="7.9327348"><ele>492.57142857142856</ele><time>2026-04-10T11:35:21.125Z</time></trkpt><trkpt lat="44.641715" lon="7.9327877"><ele>493.7142857142858</ele><time>2026-04-10T11:35:24.126Z</time></trkpt><trkpt lat="44.6416629" lon="7.932838"><ele>494.8571428571429</ele><time>2026-04-10T11:35:28.125Z</time></trkpt><trkpt lat="44.6416068" lon="7.9328833"><ele>496.0</ele><time>2026-04-10T11:36:14.126Z</time></trkpt><trkpt lat="44.6415467" lon="7.9329104"><ele>496.00000000000006</ele><time>2026-04-10T11:36:16.126Z</time></trkpt><trkpt lat="44.6414824" lon="7.9328947"><ele>496.0</ele><time>2026-04-10T11:36:18.126Z</time></trkpt><trkpt lat="44.6414023" lon="7.9328849"><ele>496.0</ele><time>2026-04-10T11:36:21.127Z</time></trkpt><trkpt lat="44.6412973" lon="7.9328986"><ele>496.0</ele><time>2026-04-10T11:36:24.127Z</time></trkpt><trkpt lat="44.6412184" lon="7.9329411"><ele>496.00000000000006</ele><time>2026-04-10T11:36:26.126Z</time></trkpt><trkpt lat="44.6411579" lon="7.9329862"><ele>496.0</ele><time>2026-04-10T11:36:28.126Z</time></trkpt><trkpt lat="44.6410959" lon="7.9330518"><ele>496.50000000000006</ele><time>2026-04-10T11:36:30.126Z</time></trkpt><trkpt lat="44.641027" lon="7.9330966"><ele>497.0</ele><time>2026-04-10T11:36:32.126Z</time></trkpt><trkpt lat="44.6409173" lon="7.9331987"><ele>497.5</ele><time>2026-04-10T11:36:35.127Z</time></trkpt><trkpt lat="44.640854" lon="7.9332533"><ele>498.0</ele><time>2026-04-10T11:36:37.126Z</time></trkpt><trkpt lat="44.6407812" lon="7.9333022"><ele>498.50000000000006</ele><time>2026-04-10T11:36:39.126Z</time></trkpt><trkpt lat="44.6407047" lon="7.9333232"><ele>499.0</ele><time>2026-04-10T11:36:41.126Z</time></trkpt><trkpt lat="44.640605" lon="7.9333514"><ele>498.33333333333337</ele><time>2026-04-10T11:36:43.126Z</time></trkpt><trkpt lat="44.6405049" lon="7.9334101"><ele>497.6666666666667</ele><time>2026-04-10T11:36:45.127Z</time></trkpt><trkpt lat="44.6404422" lon="7.9334527"><ele>497.0</ele><time>2026-04-10T11:36:47.128Z</time></trkpt><trkpt lat="44.6403685" lon="7.9335219"><ele>496.33333333333337</ele><time>2026-04-10T11:36:49.127Z</time></trkpt><trkpt lat="44.640309" lon="7.9335811"><ele>495.6666666666667</ele><time>2026-04-10T11:36:51.126Z</time></trkpt><trkpt lat="44.6402205" lon="7.9336413"><ele>495.0</ele><time>2026-04-10T11:36:53.126Z</time></trkpt><trkpt lat="44.6401089" lon="7.9336915"><ele>495.0</ele><time>2026-04-10T11:36:55.127Z</time></trkpt><trkpt lat="44.6399982" lon="7.9337499"><ele>495.0</ele><time>2026-04-10T11:36:57.127Z</time></trkpt><trkpt lat="44.6398915" lon="7.9338104"><ele>495.0</ele><time>2026-04-10T11:36:59.127Z</time></trkpt><trkpt lat="44.6398119" lon="7.9338756"><ele>495.0</ele><time>2026-04-10T11:37:01.126Z</time></trkpt><trkpt lat="44.6397245" lon="7.9339236"><ele>495.0</ele><time>2026-04-10T11:37:03.126Z</time></trkpt><trkpt lat="44.6396235" lon="7.9339811"><ele>495.0</ele><time>2026-04-10T11:37:05.127Z</time></trkpt><trkpt lat="44.6395197" lon="7.9340317"><ele>495.0</ele><time>2026-04-10T11:37:07.127Z</time></trkpt><trkpt lat="44.6394328" lon="7.934071"><ele>495.0</ele><time>2026-04-10T11:37:09.127Z</time></trkpt><trkpt lat="44.6393431" lon="7.9341302"><ele>495.0</ele><time>2026-04-10T11:37:11.128Z</time></trkpt><trkpt lat="44.6392746" lon="7.9341932"><ele>495.0</ele><time>2026-04-10T11:37:13.127Z</time></trkpt><trkpt lat="44.639218" lon="7.9342701"><ele>495.8333333333333</ele><time>2026-04-10T11:37:16.128Z</time></trkpt><trkpt lat="44.639155" lon="7.9342763"><ele>496.66666666666663</ele><time>2026-04-10T11:37:50.127Z</time></trkpt><trkpt lat="44.639219" lon="7.9342315"><ele>497.5</ele><time>2026-04-10T11:38:53.155Z</time></trkpt><trkpt lat="44.639095" lon="7.9341942"><ele>498.3333333333333</ele><time>2026-04-10T11:39:01.174Z</time></trkpt><trkpt lat="44.6390317" lon="7.934219"><ele>499.16666666666663</ele><time>2026-04-10T11:39:03.191Z</time></trkpt><trkpt lat="44.6389766" lon="7.9342753"><ele>500.0</ele><time>2026-04-10T11:39:05.225Z</time></trkpt><trkpt lat="44.6389031" lon="7.9342914"><ele>500.0</ele><time>2026-04-10T11:39:09.104Z</time></trkpt><trkpt lat="44.6388409" lon="7.9343111"><ele>500.0</ele><time>2026-04-10T11:39:13.227Z</time></trkpt><trkpt lat="44.6387774" lon="7.9343099"><ele>500.0</ele><time>2026-04-10T11:39:16.121Z</time></trkpt><trkpt lat="44.6387136" lon="7.9343379"><ele>500.0</ele><time>2026-04-10T11:39:19.239Z</time></trkpt><trkpt lat="44.6386488" lon="7.9343917"><ele>500.0</ele><time>2026-04-10T11:39:22.196Z</time></trkpt><trkpt lat="44.6385847" lon="7.9344185"><ele>500.0</ele><time>2026-04-10T11:39:25.214Z</time></trkpt><trkpt lat="44.6385145" lon="7.9344402"><ele>500.0</ele><time>2026-04-10T11:39:28.158Z</time></trkpt><trkpt lat="44.6384394" lon="7.9344578"><ele>499.99999999999994</ele><time>2026-04-10T11:39:32.232Z</time></trkpt><trkpt lat="44.6383747" lon="7.934445"><ele>500.0</ele><time>2026-04-10T11:40:21.179Z</time></trkpt><trkpt lat="44.6383169" lon="7.9343929"><ele>500.0</ele><time>2026-04-10T11:40:58.207Z</time></trkpt><trkpt lat="44.6381443" lon="7.9344102"><ele>500.0</ele><time>2026-04-10T11:41:03.13Z</time></trkpt><trkpt lat="44.6381178" lon="7.934494"><ele>499.99999999999994</ele><time>2026-04-10T11:41:07.13Z</time></trkpt><trkpt lat="44.6380899" lon="7.9345759"><ele>500.0</ele><time>2026-04-10T11:41:13.13Z</time></trkpt><trkpt lat="44.6380435" lon="7.9346381"><ele>500.0</ele><time>2026-04-10T11:41:18.13Z</time></trkpt><trkpt lat="44.6379774" lon="7.9346464"><ele>500.0</ele><time>2026-04-10T11:41:24.13Z</time></trkpt><trkpt lat="44.6379044" lon="7.9346104"><ele>500.0</ele><time>2026-04-10T11:41:37.13Z</time></trkpt><trkpt lat="44.6378505" lon="7.934538"><ele>500.0</ele><time>2026-04-10T11:41:45.13Z</time></trkpt><trkpt lat="44.6377937" lon="7.9344764"><ele>500.0</ele><time>2026-04-10T11:41:52.13Z</time></trkpt><trkpt lat="44.6377332" lon="7.9344241"><ele>500.0</ele><time>2026-04-10T11:42:00.131Z</time></trkpt><trkpt lat="44.6376497" lon="7.9344433"><ele>500.0</ele><time>2026-04-10T11:42:56.199Z</time></trkpt><trkpt lat="44.637614" lon="7.9345206"><ele>499.1428571428571</ele><time>2026-04-10T11:43:02.129Z</time></trkpt><trkpt lat="44.637566" lon="7.934587"><ele>498.28571428571433</ele><time>2026-04-10T11:43:09.152Z</time></trkpt><trkpt lat="44.6375191" lon="7.9346636"><ele>497.42857142857144</ele><time>2026-04-10T11:43:15.081Z</time></trkpt><trkpt lat="44.6374749" lon="7.9347295"><ele>496.57142857142856</ele><time>2026-04-10T11:43:21.207Z</time></trkpt><trkpt lat="44.6374697" lon="7.9348234"><ele>495.71428571428567</ele><time>2026-04-10T11:43:28.132Z</time></trkpt><trkpt lat="44.6375251" lon="7.9348858"><ele>494.8571428571429</ele><time>2026-04-10T11:44:15.207Z</time></trkpt><trkpt lat="44.637592" lon="7.934849"><ele>494.0</ele><time>2026-04-10T11:44:20.254Z</time></trkpt><trkpt lat="44.6376362" lon="7.9347797"><ele>494.0</ele><time>2026-04-10T11:44:23.61Z</time></trkpt><trkpt lat="44.6376995" lon="7.9347952"><ele>494.0</ele><time>2026-04-10T11:44:29.174Z</time></trkpt><trkpt lat="44.6377651" lon="7.9347341"><ele>494.0</ele><time>2026-04-10T11:45:19.133Z</time></trkpt><trkpt lat="44.6378289" lon="7.9347037"><ele>494.0</ele><time>2026-04-10T11:45:41.196Z</time></trkpt><trkpt lat="44.6378895" lon="7.9346787"><ele>494.0</ele><time>2026-04-10T11:45:46.146Z</time></trkpt><trkpt lat="44.6379518" lon="7.9346188"><ele>494.0</ele><time>2026-04-10T11:46:51.298Z</time></trkpt><trkpt lat="44.6378682" lon="7.9346267"><ele>494.0</ele><time>2026-04-10T11:47:04.257Z</time></trkpt><trkpt lat="44.6378076" lon="7.9346706"><ele>494.0</ele><time>2026-04-10T11:47:09.224Z</time></trkpt><trkpt lat="44.6377841" lon="7.9347572"><ele>494.0</ele><time>2026-04-10T11:47:14.158Z</time></trkpt><trkpt lat="44.637744" lon="7.9348301"><ele>494.0</ele><time>2026-04-10T11:47:24.181Z</time></trkpt><trkpt lat="44.6378093" lon="7.9348165"><ele>494.0</ele><time>2026-04-10T11:48:33.193Z</time></trkpt><trkpt lat="44.6378449" lon="7.9346768"><ele>494.0</ele><time>2026-04-10T11:49:26.138Z</time></trkpt><trkpt lat="44.6378758" lon="7.9345993"><ele>494.0</ele><time>2026-04-10T11:49:31.188Z</time></trkpt><trkpt lat="44.6378088" lon="7.9346264"><ele>494.0</ele><time>2026-04-10T11:50:02.157Z</time></trkpt><trkpt lat="44.6378815" lon="7.9346635"><ele>494.8571428571429</ele><time>2026-04-10T11:51:10.262Z</time></trkpt><trkpt lat="44.6379448" lon="7.9346554"><ele>495.71428571428567</ele><time>2026-04-10T11:51:14.196Z</time></trkpt><trkpt lat="44.6378718" lon="7.9345752"><ele>496.57142857142856</ele><time>2026-04-10T11:51:26.199Z</time></trkpt><trkpt lat="44.6378771" lon="7.9346672"><ele>497.42857142857144</ele><time>2026-04-10T11:51:44.17Z</time></trkpt><trkpt lat="44.6378453" lon="7.9345892"><ele>498.28571428571433</ele><time>2026-04-10T11:52:02.175Z</time></trkpt><trkpt lat="44.6378812" lon="7.9346791"><ele>499.1428571428571</ele><time>2026-04-10T11:52:22.147Z</time></trkpt><trkpt lat="44.6378772" lon="7.934561"><ele>500.0</ele><time>2026-04-10T11:52:32.217Z</time></trkpt><trkpt lat="44.6378082" lon="7.9345495"><ele>500.0</ele><time>2026-04-10T11:52:39.185Z</time></trkpt><trkpt lat="44.6378295" lon="7.9346353"><ele>500.0</ele><time>2026-04-10T11:52:51.139Z</time></trkpt><trkpt lat="44.6378947" lon="7.9346387"><ele>500.0</ele><time>2026-04-10T11:53:49.22Z</time></trkpt><trkpt lat="44.6378357" lon="7.9345785"><ele>500.0</ele><time>2026-04-10T11:53:55.205Z</time></trkpt><trkpt lat="44.6378468" lon="7.9346695"><ele>500.0</ele><time>2026-04-10T11:54:16.16Z</time></trkpt><trkpt lat="44.6378257" lon="7.9345626"><ele>500.0</ele><time>2026-04-10T11:54:39.182Z</time></trkpt><trkpt lat="44.6378842" lon="7.9346511"><ele>500.0</ele><time>2026-04-10T11:54:49.141Z</time></trkpt><trkpt lat="44.6378276" lon="7.9346925"><ele>499.99999999999994</ele><time>2026-04-10T11:54:57.155Z</time></trkpt><trkpt lat="44.6377941" lon="7.9346132"><ele>500.0</ele><time>2026-04-10T11:55:02.222Z</time></trkpt><trkpt lat="44.6377759" lon="7.9345247"><ele>500.0</ele><time>2026-04-10T11:55:11.208Z</time></trkpt><trkpt lat="44.637864" lon="7.9344569"><ele>500.0</ele><time>2026-04-10T11:55:25.146Z</time></trkpt><trkpt lat="44.6379375" lon="7.9344296"><ele>499.99999999999994</ele><time>2026-04-10T11:55:27.18Z</time></trkpt><trkpt lat="44.6380063" lon="7.9344208"><ele>500.0</ele><time>2026-04-10T11:55:29.214Z</time></trkpt><trkpt lat="44.6380813" lon="7.9343819"><ele>500.0</ele><time>2026-04-10T11:55:31.148Z</time></trkpt><trkpt lat="44.6381238" lon="7.9342878"><ele>500.0</ele><time>2026-04-10T11:55:34.282Z</time></trkpt><trkpt lat="44.6380648" lon="7.9342532"><ele>500.0</ele><time>2026-04-10T11:55:36.199Z</time></trkpt><trkpt lat="44.6380151" lon="7.934197"><ele>500.0</ele><time>2026-04-10T11:55:39.15Z</time></trkpt><trkpt lat="44.6379733" lon="7.9341003"><ele>500.0</ele><time>2026-04-10T11:55:46.152Z</time></trkpt><trkpt lat="44.6379242" lon="7.9341652"><ele>500.0</ele><time>2026-04-10T11:55:47.186Z</time></trkpt><trkpt lat="44.6378835" lon="7.9342683"><ele>500.0</ele><time>2026-04-10T11:55:49.219Z</time></trkpt><trkpt lat="44.6378342" lon="7.9343815"><ele>499.99999999999994</ele><time>2026-04-10T11:55:51.153Z</time></trkpt><trkpt lat="44.6378269" lon="7.9344786"><ele>500.0</ele><time>2026-04-10T11:55:55.221Z</time></trkpt><trkpt lat="44.6378334" lon="7.9345808"><ele>500.0</ele><time>2026-04-10T11:55:59.189Z</time></trkpt><trkpt lat="44.6379055" lon="7.934654"><ele>500.0</ele><time>2026-04-10T11:56:01.206Z</time></trkpt><trkpt lat="44.6379718" lon="7.9347023"><ele>499.99999999999994</ele><time>2026-04-10T11:56:03.24Z</time></trkpt><trkpt lat="44.6380847" lon="7.9346276"><ele>500.0</ele><time>2026-04-10T11:56:05.174Z</time></trkpt><trkpt lat="44.6382012" lon="7.9344357"><ele>500.0</ele><time>2026-04-10T11:56:06.174Z</time></trkpt><trkpt lat="44.6382596" lon="7.9343557"><ele>500.0</ele><time>2026-04-10T11:56:08.208Z</time></trkpt><trkpt lat="44.6383232" lon="7.9343081"><ele>500.0</ele><time>2026-04-10T11:56:11.242Z</time></trkpt><trkpt lat="44.6384451" lon="7.9341638"><ele>500.0</ele><time>2026-04-10T11:56:13.059Z</time></trkpt><trkpt lat="44.6385018" lon="7.9340921"><ele>500.0</ele><time>2026-04-10T11:56:14.193Z</time></trkpt><trkpt lat="44.6385358" lon="7.9340001"><ele>500.0</ele><time>2026-04-10T11:56:16.21Z</time></trkpt><trkpt lat="44.6385686" lon="7.9339079"><ele>500.0</ele><time>2026-04-10T11:56:19.244Z</time></trkpt><trkpt lat="44.6385005" lon="7.9339872"><ele>500.0</ele><time>2026-04-10T11:56:23.262Z</time></trkpt><trkpt lat="44.6383862" lon="7.9341277"><ele>500.0</ele><time>2026-04-10T11:56:25.279Z</time></trkpt><trkpt lat="44.6382239" lon="7.9342776"><ele>500.0</ele><time>2026-04-10T11:56:43.235Z</time></trkpt><trkpt lat="44.6381" lon="7.9344197"><ele>500.0</ele><time>2026-04-10T11:56:44.267Z</time></trkpt><trkpt lat="44.6379086" lon="7.934582"><ele>500.0</ele><time>2026-04-10T11:56:49.235Z</time></trkpt><trkpt lat="44.6378439" lon="7.9345621"><ele>500.0</ele><time>2026-04-10T11:56:58.171Z</time></trkpt><trkpt lat="44.6377804" lon="7.9345998"><ele>500.0</ele><time>2026-04-10T11:58:41.211Z</time></trkpt><trkpt lat="44.6378351" lon="7.9346604"><ele>500.0</ele><time>2026-04-10T11:59:18.221Z</time></trkpt><trkpt lat="44.6378063" lon="7.9345653"><ele>500.0</ele><time>2026-04-10T11:59:31.258Z</time></trkpt><trkpt lat="44.637848" lon="7.9346322"><ele>500.0</ele><time>2026-04-10T12:00:08.217Z</time></trkpt><trkpt lat="44.6378017" lon="7.9345709"><ele>500.0</ele><time>2026-04-10T12:00:29.173Z</time></trkpt><trkpt lat="44.6378688" lon="7.9346733"><ele>500.0</ele><time>2026-04-10T12:01:02.147Z</time></trkpt><trkpt lat="44.6378664" lon="7.9345743"><ele>499.99999999999994</ele><time>2026-04-10T12:01:16.184Z</time></trkpt><trkpt lat="44.6378076" lon="7.9345394"><ele>500.0</ele><time>2026-04-10T12:01:27.203Z</time></trkpt><trkpt lat="44.637835" lon="7.9346255"><ele>500.0</ele><time>2026-04-10T12:01:42.156Z</time></trkpt><trkpt lat="44.6378004" lon="7.9345499"><ele>500.0</ele><time>2026-04-10T12:02:03.228Z</time></trkpt><trkpt lat="44.637846" lon="7.9346298"><ele>499.99999999999994</ele><time>2026-04-10T12:02:32.226Z</time></trkpt><trkpt lat="44.6377346" lon="7.9346663"><ele>500.0</ele><time>2026-04-10T12:02:43.258Z</time></trkpt><trkpt lat="44.6378377" lon="7.9348638"><ele>500.0</ele><time>2026-04-10T12:02:56.224Z</time></trkpt><trkpt lat="44.6378517" lon="7.9346252"><ele>500.0</ele><time>2026-04-10T12:03:03.293Z</time></trkpt><trkpt lat="44.6378131" lon="7.934524"><ele>500.0</ele><time>2026-04-10T12:03:07.277Z</time></trkpt><trkpt lat="44.6377802" lon="7.9344276"><ele>500.0</ele><time>2026-04-10T12:03:12.279Z</time></trkpt><trkpt lat="44.6377661" lon="7.9343136"><ele>500.0</ele><time>2026-04-10T12:03:15.296Z</time></trkpt><trkpt lat="44.6378106" lon="7.9342488"><ele>501.2</ele><time>2026-04-10T12:03:17.148Z</time></trkpt><trkpt lat="44.6379203" lon="7.9341775"><ele>502.4</ele><time>2026-04-10T12:03:19.148Z</time></trkpt><trkpt lat="44.6380027" lon="7.9340761"><ele>503.6</ele><time>2026-04-10T12:03:21.148Z</time></trkpt><trkpt lat="44.6380594" lon="7.9339678"><ele>504.8</ele><time>2026-04-10T12:03:23.148Z</time></trkpt><trkpt lat="44.6380513" lon="7.9340646"><ele>506.0</ele><time>2026-04-10T12:03:33.148Z</time></trkpt><trkpt lat="44.6379871" lon="7.9342019"><ele>504.99999999999994</ele><time>2026-04-10T12:03:38.148Z</time></trkpt><trkpt lat="44.6379203" lon="7.9343237"><ele>504.0</ele><time>2026-04-10T12:03:41.148Z</time></trkpt><trkpt lat="44.6378735" lon="7.9343941"><ele>503.0</ele><time>2026-04-10T12:03:42.148Z</time></trkpt><trkpt lat="44.6378266" lon="7.9344681"><ele>502.0</ele><time>2026-04-10T12:03:43.148Z</time></trkpt><trkpt lat="44.6377596" lon="7.9345755"><ele>500.99999999999994</ele><time>2026-04-10T12:03:45.148Z</time></trkpt><trkpt lat="44.6377068" lon="7.9346641"><ele>500.0</ele><time>2026-04-10T12:03:48.148Z</time></trkpt><trkpt lat="44.6376406" lon="7.9346675"><ele>500.0</ele><time>2026-04-10T12:04:27.149Z</time></trkpt><trkpt lat="44.6377082" lon="7.9346147"><ele>500.0</ele><time>2026-04-10T12:04:38.149Z</time></trkpt><trkpt lat="44.6376811" lon="7.9347245"><ele>500.0</ele><time>2026-04-10T12:04:42.15Z</time></trkpt><trkpt lat="44.6376711" lon="7.934826"><ele>500.0</ele><time>2026-04-10T12:04:52.149Z</time></trkpt><trkpt lat="44.637733" lon="7.9348043"><ele>500.0</ele><time>2026-04-10T12:05:32.15Z</time></trkpt><trkpt lat="44.6377855" lon="7.9347529"><ele>500.0</ele><time>2026-04-10T12:05:43.15Z</time></trkpt><trkpt lat="44.6378342" lon="7.9346916"><ele>500.0</ele><time>2026-04-10T12:06:26.151Z</time></trkpt><trkpt lat="44.637778" lon="7.9347451"><ele>500.0</ele><time>2026-04-10T12:07:15.151Z</time></trkpt><trkpt lat="44.6378215" lon="7.9346745"><ele>500.0</ele><time>2026-04-10T12:08:27.152Z</time></trkpt><trkpt lat="44.6378803" lon="7.9346277"><ele>500.0</ele><time>2026-04-10T12:10:13.154Z</time></trkpt><trkpt lat="44.6378828" lon="7.9345356"><ele>500.0</ele><time>2026-04-10T12:10:28.154Z</time></trkpt><trkpt lat="44.6378338" lon="7.9346068"><ele>500.0</ele><time>2026-04-10T12:12:51.156Z</time></trkpt><trkpt lat="44.6378702" lon="7.9346792"><ele>500.0</ele><time>2026-04-10T12:12:58.234Z</time></trkpt><trkpt lat="44.6379622" lon="7.9345821"><ele>500.0</ele><time>2026-04-10T12:14:06.088Z</time></trkpt><trkpt lat="44.6378939" lon="7.9346457"><ele>500.0</ele><time>2026-04-10T12:17:29.252Z</time></trkpt><trkpt lat="44.6378282" lon="7.9346688"><ele>500.0</ele><time>2026-04-10T12:18:16.221Z</time></trkpt><trkpt lat="44.6378955" lon="7.9346934"><ele>500.0</ele><time>2026-04-10T12:18:27.161Z</time></trkpt><trkpt lat="44.6378528" lon="7.9347869"><ele>500.0</ele><time>2026-04-10T12:18:38.176Z</time></trkpt><trkpt lat="44.6378202" lon="7.9347046"><ele>500.0</ele><time>2026-04-10T12:18:43.272Z</time></trkpt><trkpt lat="44.6377527" lon="7.9346983"><ele>500.0</ele><time>2026-04-10T12:18:54.24Z</time></trkpt><trkpt lat="44.6376969" lon="7.9347407"><ele>500.0</ele><time>2026-04-10T12:19:28.192Z</time></trkpt><trkpt lat="44.6376678" lon="7.934824"><ele>498.99999999999994</ele><time>2026-04-10T12:19:34.176Z</time></trkpt><trkpt lat="44.6377539" lon="7.9348562"><ele>498.0</ele><time>2026-04-10T12:23:34.044Z</time></trkpt><trkpt lat="44.6377092" lon="7.9347783"><ele>497.0</ele><time>2026-04-10T12:23:38.236Z</time></trkpt><trkpt lat="44.6376736" lon="7.93469"><ele>496.0</ele><time>2026-04-10T12:23:40.203Z</time></trkpt><trkpt lat="44.6376729" lon="7.9345929"><ele>494.99999999999994</ele><time>2026-04-10T12:23:42.224Z</time></trkpt><trkpt lat="44.6376913" lon="7.9344848"><ele>494.0</ele><time>2026-04-10T12:23:45.164Z</time></trkpt><trkpt lat="44.6376924" lon="7.934336"><ele>494.0</ele><time>2026-04-10T12:23:47.165Z</time></trkpt><trkpt lat="44.6376856" lon="7.9342254"><ele>494.0</ele><time>2026-04-10T12:23:51.165Z</time></trkpt><trkpt lat="44.6376478" lon="7.9341329"><ele>494.0</ele><time>2026-04-10T12:23:54.165Z</time></trkpt><trkpt lat="44.6376021" lon="7.9340717"><ele>494.0</ele><time>2026-04-10T12:23:57.165Z</time></trkpt><trkpt lat="44.6375578" lon="7.934004"><ele>494.0</ele><time>2026-04-10T12:24:01.165Z</time></trkpt><trkpt lat="44.6375084" lon="7.9339397"><ele>494.0</ele><time>2026-04-10T12:24:03.165Z</time></trkpt><trkpt lat="44.6374687" lon="7.9338609"><ele>494.0</ele><time>2026-04-10T12:24:06.165Z</time></trkpt><trkpt lat="44.6374052" lon="7.9338054"><ele>495.99999999999994</ele><time>2026-04-10T12:24:10.165Z</time></trkpt><trkpt lat="44.6373524" lon="7.9337483"><ele>498.0</ele><time>2026-04-10T12:24:13.165Z</time></trkpt><trkpt lat="44.6372694" lon="7.9336774"><ele>500.0</ele><time>2026-04-10T12:24:16.165Z</time></trkpt><trkpt lat="44.6372127" lon="7.9335869"><ele>502.0</ele><time>2026-04-10T12:24:18.165Z</time></trkpt><trkpt lat="44.6371686" lon="7.9335198"><ele>503.99999999999994</ele><time>2026-04-10T12:24:22.165Z</time></trkpt><trkpt lat="44.6371966" lon="7.9334356"><ele>506.0</ele><time>2026-04-10T12:24:26.165Z</time></trkpt><trkpt lat="44.6372158" lon="7.933342"><ele>506.00000000000006</ele><time>2026-04-10T12:26:07.167Z</time></trkpt><trkpt lat="44.6372501" lon="7.9332601"><ele>506.0</ele><time>2026-04-10T12:26:12.167Z</time></trkpt><trkpt lat="44.6372588" lon="7.9331634"><ele>506.00000000000006</ele><time>2026-04-10T12:26:17.167Z</time></trkpt><trkpt lat="44.6372929" lon="7.9330685"><ele>506.00000000000006</ele><time>2026-04-10T12:26:24.167Z</time></trkpt><trkpt lat="44.6373223" lon="7.9329634"><ele>506.0</ele><time>2026-04-10T12:26:27.167Z</time></trkpt><trkpt lat="44.6373398" lon="7.932872"><ele>506.00000000000006</ele><time>2026-04-10T12:26:30.167Z</time></trkpt><trkpt lat="44.6373558" lon="7.9327541"><ele>506.00000000000006</ele><time>2026-04-10T12:26:32.167Z</time></trkpt><trkpt lat="44.6373582" lon="7.9326627"><ele>505.99999999999994</ele><time>2026-04-10T12:26:35.168Z</time></trkpt><trkpt lat="44.6373223" lon="7.9325791"><ele>506.0</ele><time>2026-04-10T12:26:41.167Z</time></trkpt><trkpt lat="44.6373441" lon="7.9324935"><ele>506.0</ele><time>2026-04-10T12:26:46.167Z</time></trkpt><trkpt lat="44.637375" lon="7.9324041"><ele>506.0</ele><time>2026-04-10T12:26:51.168Z</time></trkpt><trkpt lat="44.6374022" lon="7.9323198"><ele>505.99999999999994</ele><time>2026-04-10T12:27:01.167Z</time></trkpt><trkpt lat="44.6374756" lon="7.9322189"><ele>506.0</ele><time>2026-04-10T12:27:11.168Z</time></trkpt><trkpt lat="44.6375459" lon="7.9321385"><ele>505.1428571428572</ele><time>2026-04-10T12:27:36.174Z</time></trkpt><trkpt lat="44.6376097" lon="7.9321747"><ele>504.28571428571433</ele><time>2026-04-10T12:28:22.17Z</time></trkpt><trkpt lat="44.6376741" lon="7.93223"><ele>503.42857142857144</ele><time>2026-04-10T12:28:25.242Z</time></trkpt><trkpt lat="44.6377468" lon="7.9322802"><ele>502.5714285714286</ele><time>2026-04-10T12:28:27.259Z</time></trkpt><trkpt lat="44.6378107" lon="7.9323181"><ele>501.7142857142858</ele><time>2026-04-10T12:28:30.21Z</time></trkpt><trkpt lat="44.6378594" lon="7.932393"><ele>500.85714285714283</ele><time>2026-04-10T12:28:33.178Z</time></trkpt><trkpt lat="44.6378615" lon="7.9324927"><ele>500.0</ele><time>2026-04-10T12:28:35.178Z</time></trkpt><trkpt lat="44.6378845" lon="7.9325831"><ele>499.99999999999994</ele><time>2026-04-10T12:28:38.262Z</time></trkpt><trkpt lat="44.6378511" lon="7.9327284"><ele>500.0</ele><time>2026-04-10T12:28:41.23Z</time></trkpt><trkpt lat="44.6377999" lon="7.9328022"><ele>500.0</ele><time>2026-04-10T12:28:43.197Z</time></trkpt><trkpt lat="44.6377745" lon="7.9328997"><ele>500.0</ele><time>2026-04-10T12:28:47.173Z</time></trkpt><trkpt lat="44.6377093" lon="7.9329586"><ele>499.99999999999994</ele><time>2026-04-10T12:28:53.208Z</time></trkpt><trkpt lat="44.6376497" lon="7.9330129"><ele>500.0</ele><time>2026-04-10T12:28:57.225Z</time></trkpt><trkpt lat="44.637584" lon="7.9330473"><ele>500.0</ele><time>2026-04-10T12:29:03.227Z</time></trkpt><trkpt lat="44.6376305" lon="7.9329859"><ele>500.0</ele><time>2026-04-10T12:29:08.169Z</time></trkpt><trkpt lat="44.6376931" lon="7.932843"><ele>500.0</ele><time>2026-04-10T12:29:14.23Z</time></trkpt><trkpt lat="44.637854" lon="7.9325856"><ele>500.0</ele><time>2026-04-10T12:29:30.234Z</time></trkpt><trkpt lat="44.6379398" lon="7.9324435"><ele>499.8333333333333</ele><time>2026-04-10T12:29:31.247Z</time></trkpt><trkpt lat="44.6379564" lon="7.9323336"><ele>499.66666666666663</ele><time>2026-04-10T12:30:06.228Z</time></trkpt><trkpt lat="44.6379328" lon="7.9322351"><ele>499.5</ele><time>2026-04-10T12:30:09.245Z</time></trkpt><trkpt lat="44.6378767" lon="7.9321207"><ele>499.33333333333337</ele><time>2026-04-10T12:30:12.17Z</time></trkpt><trkpt lat="44.6378078" lon="7.9320436"><ele>499.1666666666667</ele><time>2026-04-10T12:30:15.169Z</time></trkpt><trkpt lat="44.6377551" lon="7.931989"><ele>499.0</ele><time>2026-04-10T12:30:18.17Z</time></trkpt><trkpt lat="44.6376939" lon="7.9320149"><ele>499.00000000000006</ele><time>2026-04-10T12:30:31.17Z</time></trkpt><trkpt lat="44.6376112" lon="7.9319553"><ele>499.0</ele><time>2026-04-10T12:30:35.171Z</time></trkpt><trkpt lat="44.6375312" lon="7.931918"><ele>499.0</ele><time>2026-04-10T12:30:37.17Z</time></trkpt><trkpt lat="44.6374617" lon="7.9318895"><ele>499.0</ele><time>2026-04-10T12:30:39.17Z</time></trkpt><trkpt lat="44.637378" lon="7.9318877"><ele>499.00000000000006</ele><time>2026-04-10T12:30:41.17Z</time></trkpt><trkpt lat="44.6373104" lon="7.9319014"><ele>499.0</ele><time>2026-04-10T12:30:43.171Z</time></trkpt><trkpt lat="44.6372221" lon="7.9319272"><ele>499.0</ele><time>2026-04-10T12:30:45.17Z</time></trkpt><trkpt lat="44.6371034" lon="7.9319261"><ele>499.0</ele><time>2026-04-10T12:30:47.171Z</time></trkpt><trkpt lat="44.6369829" lon="7.9319106"><ele>499.0</ele><time>2026-04-10T12:30:49.17Z</time></trkpt><trkpt lat="44.6368945" lon="7.9319174"><ele>499.0</ele><time>2026-04-10T12:30:51.171Z</time></trkpt><trkpt lat="44.6368213" lon="7.9319543"><ele>499.0</ele><time>2026-04-10T12:30:53.171Z</time></trkpt><trkpt lat="44.6367422" lon="7.9319752"><ele>497.1666666666667</ele><time>2026-04-10T12:30:55.171Z</time></trkpt><trkpt lat="44.6366645" lon="7.931945"><ele>495.33333333333337</ele><time>2026-04-10T12:30:57.171Z</time></trkpt><trkpt lat="44.6366049" lon="7.9319063"><ele>493.5</ele><time>2026-04-10T12:31:00.171Z</time></trkpt><trkpt lat="44.6366528" lon="7.9318486"><ele>491.66666666666663</ele><time>2026-04-10T12:32:07.243Z</time></trkpt><trkpt lat="44.6365834" lon="7.9317785"><ele>489.8333333333333</ele><time>2026-04-10T12:32:11.132Z</time></trkpt><trkpt lat="44.6365035" lon="7.9317854"><ele>488.0</ele><time>2026-04-10T12:32:12.212Z</time></trkpt><trkpt lat="44.6364201" lon="7.9318059"><ele>488.0</ele><time>2026-04-10T12:32:14.213Z</time></trkpt><trkpt lat="44.6363281" lon="7.931799"><ele>487.99999999999994</ele><time>2026-04-10T12:32:16.229Z</time></trkpt><trkpt lat="44.63624" lon="7.9317834"><ele>487.99999999999994</ele><time>2026-04-10T12:32:18.247Z</time></trkpt><trkpt lat="44.6361445" lon="7.9317703"><ele>488.0</ele><time>2026-04-10T12:32:20.281Z</time></trkpt><trkpt lat="44.6360182" lon="7.931745"><ele>488.0</ele><time>2026-04-10T12:32:22.198Z</time></trkpt><trkpt lat="44.6359159" lon="7.9316954"><ele>485.0</ele><time>2026-04-10T12:32:24.248Z</time></trkpt><trkpt lat="44.6358177" lon="7.9316725"><ele>481.99999999999994</ele><time>2026-04-10T12:32:26.249Z</time></trkpt><trkpt lat="44.6357267" lon="7.931643"><ele>478.99999999999994</ele><time>2026-04-10T12:32:28.266Z</time></trkpt><trkpt lat="44.6356533" lon="7.9316154"><ele>476.0</ele><time>2026-04-10T12:32:30.283Z</time></trkpt><trkpt lat="44.6355614" lon="7.9316204"><ele>473.0</ele><time>2026-04-10T12:32:32.217Z</time></trkpt><trkpt lat="44.6354669" lon="7.9316892"><ele>473.79999999999995</ele><time>2026-04-10T12:32:34.184Z</time></trkpt><trkpt lat="44.6354211" lon="7.9317619"><ele>474.59999999999997</ele><time>2026-04-10T12:32:36.218Z</time></trkpt><trkpt lat="44.6353903" lon="7.9318393"><ele>475.40000000000003</ele><time>2026-04-10T12:32:38.281Z</time></trkpt><trkpt lat="44.6352239" lon="7.9317662"><ele>476.20000000000005</ele><time>2026-04-10T12:32:41.172Z</time></trkpt><trkpt lat="44.6351428" lon="7.9317369"><ele>477.0</ele><time>2026-04-10T12:32:42.172Z</time></trkpt><trkpt lat="44.6350718" lon="7.9317471"><ele>474.3333333333333</ele><time>2026-04-10T12:32:43.172Z</time></trkpt><trkpt lat="44.6350048" lon="7.9317751"><ele>471.66666666666663</ele><time>2026-04-10T12:32:44.172Z</time></trkpt><trkpt lat="44.6349385" lon="7.9318115"><ele>469.0</ele><time>2026-04-10T12:32:45.172Z</time></trkpt><trkpt lat="44.6348474" lon="7.931883"><ele>466.3333333333333</ele><time>2026-04-10T12:32:47.172Z</time></trkpt><trkpt lat="44.6347587" lon="7.9319441"><ele>463.66666666666663</ele><time>2026-04-10T12:32:49.172Z</time></trkpt><trkpt lat="44.6346817" lon="7.9320091"><ele>461.0</ele><time>2026-04-10T12:32:51.172Z</time></trkpt><trkpt lat="44.6346359" lon="7.9320787"><ele>460.99999999999994</ele><time>2026-04-10T12:32:56.172Z</time></trkpt><trkpt lat="44.6345668" lon="7.9321519"><ele>461.0</ele><time>2026-04-10T12:32:58.172Z</time></trkpt><trkpt lat="44.6344697" lon="7.9322339"><ele>461.0</ele><time>2026-04-10T12:33:00.173Z</time></trkpt><trkpt lat="44.6344011" lon="7.9322784"><ele>461.0</ele><time>2026-04-10T12:33:01.172Z</time></trkpt><trkpt lat="44.6343251" lon="7.9323227"><ele>460.99999999999994</ele><time>2026-04-10T12:33:02.172Z</time></trkpt><trkpt lat="44.6342484" lon="7.9323849"><ele>461.0</ele><time>2026-04-10T12:33:03.172Z</time></trkpt><trkpt lat="44.6341766" lon="7.9324511"><ele>459.8</ele><time>2026-04-10T12:33:04.172Z</time></trkpt><trkpt lat="44.634101" lon="7.9325399"><ele>458.6</ele><time>2026-04-10T12:33:05.173Z</time></trkpt><trkpt lat="44.6340227" lon="7.9326434"><ele>457.4</ele><time>2026-04-10T12:33:06.172Z</time></trkpt><trkpt lat="44.6339513" lon="7.9327516"><ele>456.2</ele><time>2026-04-10T12:33:07.172Z</time></trkpt><trkpt lat="44.6338899" lon="7.9328533"><ele>455.0</ele><time>2026-04-10T12:33:08.172Z</time></trkpt><trkpt lat="44.6338378" lon="7.9329367"><ele>453.3333333333333</ele><time>2026-04-10T12:33:09.173Z</time></trkpt><trkpt lat="44.6337877" lon="7.9330036"><ele>451.66666666666663</ele><time>2026-04-10T12:33:10.172Z</time></trkpt><trkpt lat="44.6336948" lon="7.9330892"><ele>450.0</ele><time>2026-04-10T12:33:12.172Z</time></trkpt><trkpt lat="44.6336234" lon="7.9331603"><ele>448.33333333333337</ele><time>2026-04-10T12:33:14.172Z</time></trkpt><trkpt lat="44.6335759" lon="7.9332236"><ele>446.6666666666667</ele><time>2026-04-10T12:33:16.172Z</time></trkpt><trkpt lat="44.6335056" lon="7.9332929"><ele>445.0</ele><time>2026-04-10T12:33:19.173Z</time></trkpt><trkpt lat="44.6334394" lon="7.9333572"><ele>441.4</ele><time>2026-04-10T12:33:23.173Z</time></trkpt><trkpt lat="44.6334029" lon="7.933436"><ele>437.8</ele><time>2026-04-10T12:33:26.173Z</time></trkpt><trkpt lat="44.6333319" lon="7.9335171"><ele>434.20000000000005</ele><time>2026-04-10T12:34:16.253Z</time></trkpt><trkpt lat="44.633234" lon="7.9335555"><ele>430.6</ele><time>2026-04-10T12:34:18.282Z</time></trkpt><trkpt lat="44.6330878" lon="7.9335959"><ele>427.0</ele><time>2026-04-10T12:34:20.173Z</time></trkpt><trkpt lat="44.6330174" lon="7.933612"><ele>427.00000000000006</ele><time>2026-04-10T12:34:21.173Z</time></trkpt><trkpt lat="44.632945" lon="7.9336183"><ele>427.0</ele><time>2026-04-10T12:34:22.173Z</time></trkpt><trkpt lat="44.6328708" lon="7.9336225"><ele>427.0</ele><time>2026-04-10T12:34:23.174Z</time></trkpt><trkpt lat="44.6327932" lon="7.9336258"><ele>427.0</ele><time>2026-04-10T12:34:24.174Z</time></trkpt><trkpt lat="44.6327195" lon="7.9336355"><ele>427.00000000000006</ele><time>2026-04-10T12:34:25.174Z</time></trkpt><trkpt lat="44.6326558" lon="7.9336523"><ele>427.0</ele><time>2026-04-10T12:34:26.174Z</time></trkpt><trkpt lat="44.6325544" lon="7.9336899"><ele>426.8</ele><time>2026-04-10T12:34:28.174Z</time></trkpt><trkpt lat="44.6324784" lon="7.9337472"><ele>426.6</ele><time>2026-04-10T12:34:30.173Z</time></trkpt><trkpt lat="44.6324137" lon="7.9338536"><ele>426.40000000000003</ele><time>2026-04-10T12:34:32.174Z</time></trkpt><trkpt lat="44.6323463" lon="7.9339578"><ele>426.20000000000005</ele><time>2026-04-10T12:34:34.174Z</time></trkpt><trkpt lat="44.6322793" lon="7.9340176"><ele>426.0</ele><time>2026-04-10T12:34:36.173Z</time></trkpt><trkpt lat="44.6321862" lon="7.9340983"><ele>426.0</ele><time>2026-04-10T12:34:38.174Z</time></trkpt><trkpt lat="44.6320898" lon="7.9341493"><ele>426.0</ele><time>2026-04-10T12:34:40.174Z</time></trkpt><trkpt lat="44.6320278" lon="7.9341673"><ele>426.0</ele><time>2026-04-10T12:34:42.174Z</time></trkpt><trkpt lat="44.6319693" lon="7.9342154"><ele>426.0</ele><time>2026-04-10T12:34:44.174Z</time></trkpt><trkpt lat="44.6318952" lon="7.9342823"><ele>426.0</ele><time>2026-04-10T12:34:46.174Z</time></trkpt><trkpt lat="44.63182" lon="7.9343476"><ele>426.0</ele><time>2026-04-10T12:34:48.174Z</time></trkpt><trkpt lat="44.6317444" lon="7.9344591"><ele>423.4</ele><time>2026-04-10T12:34:50.174Z</time></trkpt><trkpt lat="44.6316731" lon="7.9345719"><ele>420.8</ele><time>2026-04-10T12:34:52.174Z</time></trkpt><trkpt lat="44.6315924" lon="7.9346968"><ele>418.2</ele><time>2026-04-10T12:34:54.174Z</time></trkpt><trkpt lat="44.6314952" lon="7.9348117"><ele>415.59999999999997</ele><time>2026-04-10T12:34:56.174Z</time></trkpt><trkpt lat="44.6314356" lon="7.9348749"><ele>413.0</ele><time>2026-04-10T12:34:57.174Z</time></trkpt><trkpt lat="44.6313675" lon="7.9349387"><ele>412.99999999999994</ele><time>2026-04-10T12:34:58.174Z</time></trkpt><trkpt lat="44.6312935" lon="7.9350051"><ele>413.0</ele><time>2026-04-10T12:34:59.174Z</time></trkpt><trkpt lat="44.6312203" lon="7.9350715"><ele>413.0</ele><time>2026-04-10T12:35:00.174Z</time></trkpt><trkpt lat="44.631147" lon="7.9351406"><ele>413.0</ele><time>2026-04-10T12:35:01.174Z</time></trkpt><trkpt lat="44.631084" lon="7.9352137"><ele>412.99999999999994</ele><time>2026-04-10T12:35:02.175Z</time></trkpt><trkpt lat="44.6310191" lon="7.9352923"><ele>413.0</ele><time>2026-04-10T12:35:03.174Z</time></trkpt><trkpt lat="44.6309531" lon="7.9353694"><ele>411.79999999999995</ele><time>2026-04-10T12:35:04.174Z</time></trkpt><trkpt lat="44.6308774" lon="7.9354497"><ele>410.6</ele><time>2026-04-10T12:35:05.174Z</time></trkpt><trkpt lat="44.6307975" lon="7.935522"><ele>409.4</ele><time>2026-04-10T12:35:06.174Z</time></trkpt><trkpt lat="44.6307185" lon="7.9355931"><ele>408.20000000000005</ele><time>2026-04-10T12:35:07.174Z</time></trkpt><trkpt lat="44.6306383" lon="7.9356649"><ele>407.0</ele><time>2026-04-10T12:35:08.174Z</time></trkpt><trkpt lat="44.6305588" lon="7.9357339"><ele>407.0</ele><time>2026-04-10T12:35:09.174Z</time></trkpt><trkpt lat="44.6304713" lon="7.9357929"><ele>407.0</ele><time>2026-04-10T12:35:10.174Z</time></trkpt><trkpt lat="44.6303822" lon="7.9358405"><ele>407.0</ele><time>2026-04-10T12:35:11.174Z</time></trkpt><trkpt lat="44.6302978" lon="7.935881"><ele>407.0</ele><time>2026-04-10T12:35:12.174Z</time></trkpt><trkpt lat="44.6302187" lon="7.9359498"><ele>407.0</ele><time>2026-04-10T12:35:13.174Z</time></trkpt><trkpt lat="44.6301452" lon="7.936039"><ele>405.49999999999994</ele><time>2026-04-10T12:35:14.174Z</time></trkpt><trkpt lat="44.6300714" lon="7.9361324"><ele>404.0</ele><time>2026-04-10T12:35:15.174Z</time></trkpt><trkpt lat="44.630004" lon="7.9361986"><ele>402.5</ele><time>2026-04-10T12:35:16.175Z</time></trkpt><trkpt lat="44.6299387" lon="7.9362473"><ele>401.0</ele><time>2026-04-10T12:35:17.174Z</time></trkpt><trkpt lat="44.6298783" lon="7.9362861"><ele>399.49999999999994</ele><time>2026-04-10T12:35:18.174Z</time></trkpt><trkpt lat="44.6298151" lon="7.9363363"><ele>398.0</ele><time>2026-04-10T12:35:19.174Z</time></trkpt><trkpt lat="44.629759" lon="7.9363815"><ele>398.0</ele><time>2026-04-10T12:35:20.174Z</time></trkpt><trkpt lat="44.6297018" lon="7.936421"><ele>398.0</ele><time>2026-04-10T12:35:21.175Z</time></trkpt><trkpt lat="44.629596" lon="7.9364705"><ele>398.0</ele><time>2026-04-10T12:35:23.174Z</time></trkpt><trkpt lat="44.6295279" lon="7.9365182"><ele>398.0</ele><time>2026-04-10T12:35:25.174Z</time></trkpt><trkpt lat="44.6294328" lon="7.93656"><ele>398.0</ele><time>2026-04-10T12:35:27.174Z</time></trkpt><trkpt lat="44.6293288" lon="7.9366074"><ele>397.0</ele><time>2026-04-10T12:35:29.176Z</time></trkpt><trkpt lat="44.6292212" lon="7.936668"><ele>396.0</ele><time>2026-04-10T12:35:31.176Z</time></trkpt><trkpt lat="44.6291109" lon="7.9367212"><ele>395.0</ele><time>2026-04-10T12:35:33.176Z</time></trkpt><trkpt lat="44.6290005" lon="7.9367725"><ele>394.0</ele><time>2026-04-10T12:35:35.175Z</time></trkpt><trkpt lat="44.6289039" lon="7.9368208"><ele>394.00000000000006</ele><time>2026-04-10T12:35:37.175Z</time></trkpt><trkpt lat="44.62883" lon="7.9368627"><ele>394.0</ele><time>2026-04-10T12:35:39.174Z</time></trkpt><trkpt lat="44.6287688" lon="7.9369169"><ele>394.0</ele><time>2026-04-10T12:35:43.176Z</time></trkpt><trkpt lat="44.6287087" lon="7.9369453"><ele>394.0</ele><time>2026-04-10T12:35:47.174Z</time></trkpt><trkpt lat="44.6286206" lon="7.9369867"><ele>394.00000000000006</ele><time>2026-04-10T12:36:24.22Z</time></trkpt><trkpt lat="44.6285603" lon="7.9371083"><ele>394.0</ele><time>2026-04-10T12:36:26.273Z</time></trkpt><trkpt lat="44.6285414" lon="7.9371928"><ele>394.2</ele><time>2026-04-10T12:36:27.175Z</time></trkpt><trkpt lat="44.6285348" lon="7.9372808"><ele>394.4</ele><time>2026-04-10T12:36:28.175Z</time></trkpt><trkpt lat="44.6285569" lon="7.9374347"><ele>394.6</ele><time>2026-04-10T12:36:30.175Z</time></trkpt><trkpt lat="44.628602" lon="7.9375679"><ele>394.8</ele><time>2026-04-10T12:36:32.176Z</time></trkpt><trkpt lat="44.6286392" lon="7.937705"><ele>395.0</ele><time>2026-04-10T12:36:34.175Z</time></trkpt><trkpt lat="44.6286509" lon="7.9378646"><ele>392.8</ele><time>2026-04-10T12:36:36.176Z</time></trkpt><trkpt lat="44.6286247" lon="7.9380238"><ele>390.6</ele><time>2026-04-10T12:36:38.175Z</time></trkpt><trkpt lat="44.6286047" lon="7.9381845"><ele>388.4</ele><time>2026-04-10T12:36:40.175Z</time></trkpt><trkpt lat="44.6285959" lon="7.9383472"><ele>386.2</ele><time>2026-04-10T12:36:42.175Z</time></trkpt><trkpt lat="44.6285804" lon="7.9384499"><ele>384.0</ele><time>2026-04-10T12:36:43.175Z</time></trkpt><trkpt lat="44.628557" lon="7.9385518"><ele>381.5</ele><time>2026-04-10T12:36:44.175Z</time></trkpt><trkpt lat="44.6285324" lon="7.938636"><ele>379.0</ele><time>2026-04-10T12:36:45.175Z</time></trkpt><trkpt lat="44.6284994" lon="7.9387157"><ele>376.5</ele><time>2026-04-10T12:36:46.175Z</time></trkpt><trkpt lat="44.6284621" lon="7.9387887"><ele>374.0</ele><time>2026-04-10T12:36:47.175Z</time></trkpt><trkpt lat="44.6283905" lon="7.9389133"><ele>371.5</ele><time>2026-04-10T12:36:49.175Z</time></trkpt><trkpt lat="44.6283538" lon="7.9390337"><ele>369.0</ele><time>2026-04-10T12:36:51.175Z</time></trkpt><trkpt lat="44.6284102" lon="7.939357"><ele>366.5</ele><time>2026-04-10T12:36:54.175Z</time></trkpt><trkpt lat="44.6284172" lon="7.9395073"><ele>364.0</ele><time>2026-04-10T12:36:55.175Z</time></trkpt><trkpt lat="44.6284124" lon="7.9396625"><ele>361.5</ele><time>2026-04-10T12:36:56.175Z</time></trkpt><trkpt lat="44.6284025" lon="7.939834"><ele>359.0</ele><time>2026-04-10T12:36:57.175Z</time></trkpt><trkpt lat="44.6283912" lon="7.9399936"><ele>357.83333333333337</ele><time>2026-04-10T12:36:58.176Z</time></trkpt><trkpt lat="44.6283821" lon="7.9401457"><ele>356.6666666666667</ele><time>2026-04-10T12:36:59.175Z</time></trkpt><trkpt lat="44.6283749" lon="7.940277"><ele>355.5</ele><time>2026-04-10T12:37:00.175Z</time></trkpt><trkpt lat="44.628368" lon="7.9403774"><ele>354.3333333333333</ele><time>2026-04-10T12:37:01.175Z</time></trkpt><trkpt lat="44.628359" lon="7.9405323"><ele>353.16666666666663</ele><time>2026-04-10T12:37:03.175Z</time></trkpt><trkpt lat="44.6283548" lon="7.9406206"><ele>352.0</ele><time>2026-04-10T12:37:04.175Z</time></trkpt><trkpt lat="44.6283504" lon="7.9407284"><ele>352.0</ele><time>2026-04-10T12:37:05.175Z</time></trkpt><trkpt lat="44.6283477" lon="7.9408457"><ele>352.0</ele><time>2026-04-10T12:37:06.175Z</time></trkpt><trkpt lat="44.6283466" lon="7.9409588"><ele>352.0</ele><time>2026-04-10T12:37:07.175Z</time></trkpt><trkpt lat="44.6283426" lon="7.9410634"><ele>352.0</ele><time>2026-04-10T12:37:08.175Z</time></trkpt><trkpt lat="44.6283372" lon="7.9411606"><ele>352.0</ele><time>2026-04-10T12:37:09.175Z</time></trkpt><trkpt lat="44.6283242" lon="7.9413332"><ele>352.0</ele><time>2026-04-10T12:37:11.175Z</time></trkpt><trkpt lat="44.6283516" lon="7.9415065"><ele>350.66666666666663</ele><time>2026-04-10T12:37:13.175Z</time></trkpt><trkpt lat="44.6283924" lon="7.9415905"><ele>349.3333333333333</ele><time>2026-04-10T12:37:14.176Z</time></trkpt><trkpt lat="44.6284397" lon="7.9416753"><ele>348.0</ele><time>2026-04-10T12:37:15.176Z</time></trkpt><trkpt lat="44.628488" lon="7.9417659"><ele>346.6666666666667</ele><time>2026-04-10T12:37:16.176Z</time></trkpt><trkpt lat="44.6285332" lon="7.9418691"><ele>345.33333333333337</ele><time>2026-04-10T12:37:17.176Z</time></trkpt><trkpt lat="44.6285547" lon="7.9419908"><ele>344.0</ele><time>2026-04-10T12:37:18.176Z</time></trkpt><trkpt lat="44.628556" lon="7.9421043"><ele>343.1666666666667</ele><time>2026-04-10T12:37:19.176Z</time></trkpt><trkpt lat="44.6285539" lon="7.9421988"><ele>342.33333333333337</ele><time>2026-04-10T12:37:20.176Z</time></trkpt><trkpt lat="44.6285485" lon="7.942292"><ele>341.5</ele><time>2026-04-10T12:37:21.176Z</time></trkpt><trkpt lat="44.6285448" lon="7.9424664"><ele>340.6666666666667</ele><time>2026-04-10T12:37:23.176Z</time></trkpt><trkpt lat="44.6285505" lon="7.942618"><ele>339.8333333333333</ele><time>2026-04-10T12:37:25.176Z</time></trkpt><trkpt lat="44.6285559" lon="7.9427152"><ele>339.0</ele><time>2026-04-10T12:37:26.176Z</time></trkpt><trkpt lat="44.6285658" lon="7.9428269"><ele>336.6</ele><time>2026-04-10T12:37:27.176Z</time></trkpt><trkpt lat="44.6285823" lon="7.9429363"><ele>334.2</ele><time>2026-04-10T12:37:28.176Z</time></trkpt><trkpt lat="44.6285909" lon="7.9430258"><ele>331.8</ele><time>2026-04-10T12:37:29.176Z</time></trkpt><trkpt lat="44.628552" lon="7.9431632"><ele>329.40000000000003</ele><time>2026-04-10T12:37:31.176Z</time></trkpt><trkpt lat="44.6284635" lon="7.9431946"><ele>327.0</ele><time>2026-04-10T12:37:33.176Z</time></trkpt><trkpt lat="44.6283451" lon="7.9431571"><ele>327.0</ele><time>2026-04-10T12:37:35.176Z</time></trkpt><trkpt lat="44.6282388" lon="7.9431325"><ele>327.0</ele><time>2026-04-10T12:37:37.177Z</time></trkpt><trkpt lat="44.6281552" lon="7.9432245"><ele>327.0</ele><time>2026-04-10T12:37:39.176Z</time></trkpt><trkpt lat="44.6281337" lon="7.9433886"><ele>327.0</ele><time>2026-04-10T12:37:41.176Z</time></trkpt><trkpt lat="44.6281391" lon="7.943498"><ele>327.0</ele><time>2026-04-10T12:37:42.176Z</time></trkpt><trkpt lat="44.6281438" lon="7.9435924"><ele>325.85714285714283</ele><time>2026-04-10T12:37:43.176Z</time></trkpt><trkpt lat="44.6281509" lon="7.9436813"><ele>324.7142857142857</ele><time>2026-04-10T12:37:44.176Z</time></trkpt><trkpt lat="44.6281613" lon="7.9438032"><ele>323.57142857142856</ele><time>2026-04-10T12:37:46.177Z</time></trkpt><trkpt lat="44.628175" lon="7.9438996"><ele>322.42857142857144</ele><time>2026-04-10T12:38:10.176Z</time></trkpt><trkpt lat="44.6281599" lon="7.9440098"><ele>321.2857142857143</ele><time>2026-04-10T12:38:13.177Z</time></trkpt><trkpt lat="44.6281449" lon="7.9440968"><ele>320.14285714285717</ele><time>2026-04-10T12:38:15.176Z</time></trkpt><trkpt lat="44.6281191" lon="7.9441896"><ele>319.0</ele><time>2026-04-10T12:38:18.177Z</time></trkpt><trkpt lat="44.6281039" lon="7.9443071"><ele>319.0</ele><time>2026-04-10T12:38:21.176Z</time></trkpt><trkpt lat="44.6280825" lon="7.9444067"><ele>319.0</ele><time>2026-04-10T12:38:24.177Z</time></trkpt><trkpt lat="44.6280785" lon="7.9445099"><ele>319.0</ele><time>2026-04-10T12:38:27.176Z</time></trkpt><trkpt lat="44.62808" lon="7.9445988"><ele>319.0</ele><time>2026-04-10T12:38:29.177Z</time></trkpt><trkpt lat="44.6280613" lon="7.944722"><ele>319.0</ele><time>2026-04-10T12:38:31.177Z</time></trkpt><trkpt lat="44.6280435" lon="7.9448141"><ele>319.0</ele><time>2026-04-10T12:38:33.177Z</time></trkpt><trkpt lat="44.6280455" lon="7.94492"><ele>319.0</ele><time>2026-04-10T12:38:39.177Z</time></trkpt><trkpt lat="44.6280439" lon="7.9450354"><ele>318.5</ele><time>2026-04-10T12:38:43.177Z</time></trkpt><trkpt lat="44.628066" lon="7.9451487"><ele>318.0</ele><time>2026-04-10T12:38:46.177Z</time></trkpt><trkpt lat="44.6280854" lon="7.9452421"><ele>317.5</ele><time>2026-04-10T12:38:49.177Z</time></trkpt><trkpt lat="44.6281001" lon="7.94534"><ele>317.0</ele><time>2026-04-10T12:38:52.177Z</time></trkpt><trkpt lat="44.6281108" lon="7.9454577"><ele>316.5</ele><time>2026-04-10T12:38:55.177Z</time></trkpt><trkpt lat="44.6281161" lon="7.9455613"><ele>316.0</ele><time>2026-04-10T12:38:59.177Z</time></trkpt><trkpt lat="44.6281231" lon="7.9456748"><ele>316.0</ele><time>2026-04-10T12:39:02.177Z</time></trkpt><trkpt lat="44.6281489" lon="7.9458137"><ele>316.0</ele><time>2026-04-10T12:39:05.177Z</time></trkpt><trkpt lat="44.6281641" lon="7.9459312"><ele>316.0</ele><time>2026-04-10T12:39:07.178Z</time></trkpt><trkpt lat="44.6281902" lon="7.9460517"><ele>316.0</ele><time>2026-04-10T12:39:09.177Z</time></trkpt><trkpt lat="44.6282143" lon="7.9461881"><ele>316.0</ele><time>2026-04-10T12:39:11.177Z</time></trkpt><trkpt lat="44.6282369" lon="7.9462856"><ele>315.0</ele><time>2026-04-10T12:39:13.177Z</time></trkpt><trkpt lat="44.6282513" lon="7.9463927"><ele>314.0</ele><time>2026-04-10T12:39:15.177Z</time></trkpt><trkpt lat="44.6282696" lon="7.946518"><ele>313.0</ele><time>2026-04-10T12:39:18.177Z</time></trkpt><trkpt lat="44.6282867" lon="7.9466041"><ele>312.0</ele><time>2026-04-10T12:39:20.177Z</time></trkpt><trkpt lat="44.6283116" lon="7.9466938"><ele>311.0</ele><time>2026-04-10T12:39:22.177Z</time></trkpt><trkpt lat="44.6283382" lon="7.9468103"><ele>310.0</ele><time>2026-04-10T12:39:24.177Z</time></trkpt><trkpt lat="44.6283278" lon="7.9469213"><ele>307.8</ele><time>2026-04-10T12:39:27.178Z</time></trkpt><trkpt lat="44.628278" lon="7.947031"><ele>305.6</ele><time>2026-04-10T12:39:29.177Z</time></trkpt><trkpt lat="44.628185" lon="7.9471671"><ele>303.4</ele><time>2026-04-10T12:39:31.178Z</time></trkpt><trkpt lat="44.6281322" lon="7.9472394"><ele>301.2</ele><time>2026-04-10T12:39:32.178Z</time></trkpt><trkpt lat="44.6280842" lon="7.9473075"><ele>299.0</ele><time>2026-04-10T12:39:33.178Z</time></trkpt><trkpt lat="44.6280088" lon="7.9473985"><ele>299.0</ele><time>2026-04-10T12:39:35.178Z</time></trkpt><trkpt lat="44.6279402" lon="7.9474504"><ele>299.0</ele><time>2026-04-10T12:39:37.177Z</time></trkpt><trkpt lat="44.6278587" lon="7.9475394"><ele>299.0</ele><time>2026-04-10T12:39:39.178Z</time></trkpt><trkpt lat="44.6277704" lon="7.9476105"><ele>299.0</ele><time>2026-04-10T12:39:41.178Z</time></trkpt><trkpt lat="44.6276903" lon="7.9476646"><ele>299.0</ele><time>2026-04-10T12:39:43.178Z</time></trkpt><trkpt lat="44.627623" lon="7.947752"><ele>296.6666666666667</ele><time>2026-04-10T12:39:45.178Z</time></trkpt><trkpt lat="44.6275612" lon="7.9478632"><ele>294.33333333333337</ele><time>2026-04-10T12:39:47.178Z</time></trkpt><trkpt lat="44.627496" lon="7.947961"><ele>292.0</ele><time>2026-04-10T12:39:49.178Z</time></trkpt><trkpt lat="44.6274494" lon="7.9480592"><ele>289.6666666666667</ele><time>2026-04-10T12:39:51.178Z</time></trkpt><trkpt lat="44.6274149" lon="7.9481395"><ele>287.3333333333333</ele><time>2026-04-10T12:39:53.178Z</time></trkpt><trkpt lat="44.6273739" lon="7.9482232"><ele>285.0</ele><time>2026-04-10T12:39:55.178Z</time></trkpt><trkpt lat="44.6273059" lon="7.9484144"><ele>282.6666666666667</ele><time>2026-04-10T12:41:07.179Z</time></trkpt><trkpt lat="44.6272712" lon="7.9485122"><ele>280.3333333333333</ele><time>2026-04-10T12:41:09.219Z</time></trkpt><trkpt lat="44.6271963" lon="7.9486125"><ele>278.0</ele><time>2026-04-10T12:41:11.307Z</time></trkpt><trkpt lat="44.6271681" lon="7.9487308"><ele>275.66666666666663</ele><time>2026-04-10T12:41:13.179Z</time></trkpt><trkpt lat="44.6271367" lon="7.9488321"><ele>273.3333333333333</ele><time>2026-04-10T12:41:15.179Z</time></trkpt><trkpt lat="44.6271068" lon="7.9489227"><ele>271.0</ele><time>2026-04-10T12:41:17.179Z</time></trkpt><trkpt lat="44.627094" lon="7.949034"><ele>271.0</ele><time>2026-04-10T12:41:19.179Z</time></trkpt><trkpt lat="44.6270788" lon="7.9491488"><ele>271.0</ele><time>2026-04-10T12:41:21.179Z</time></trkpt><trkpt lat="44.6270372" lon="7.9492971"><ele>271.0</ele><time>2026-04-10T12:41:23.179Z</time></trkpt><trkpt lat="44.6270123" lon="7.9494182"><ele>271.0</ele><time>2026-04-10T12:41:25.179Z</time></trkpt><trkpt lat="44.6269951" lon="7.9495356"><ele>271.0</ele><time>2026-04-10T12:41:58.179Z</time></trkpt><trkpt lat="44.6269636" lon="7.9496913"><ele>268.2</ele><time>2026-04-10T12:42:00.179Z</time></trkpt><trkpt lat="44.6269384" lon="7.949788"><ele>265.40000000000003</ele><time>2026-04-10T12:42:01.18Z</time></trkpt><trkpt lat="44.6269112" lon="7.9499003"><ele>262.6</ele><time>2026-04-10T12:42:02.18Z</time></trkpt><trkpt lat="44.6268872" lon="7.9500361"><ele>259.8</ele><time>2026-04-10T12:42:03.179Z</time></trkpt><trkpt lat="44.6268632" lon="7.9501804"><ele>257.0</ele><time>2026-04-10T12:42:04.179Z</time></trkpt><trkpt lat="44.6268379" lon="7.9503029"><ele>255.66666666666669</ele><time>2026-04-10T12:42:05.179Z</time></trkpt><trkpt lat="44.6268117" lon="7.950427"><ele>254.33333333333334</ele><time>2026-04-10T12:42:06.179Z</time></trkpt><trkpt lat="44.6267958" lon="7.9505291"><ele>253.0</ele><time>2026-04-10T12:42:07.179Z</time></trkpt><trkpt lat="44.6267834" lon="7.9506785"><ele>251.66666666666669</ele><time>2026-04-10T12:42:09.18Z</time></trkpt><trkpt lat="44.6267699" lon="7.9508009"><ele>250.33333333333334</ele><time>2026-04-10T12:42:11.18Z</time></trkpt><trkpt lat="44.6267581" lon="7.9509188"><ele>249.0</ele><time>2026-04-10T12:42:13.18Z</time></trkpt><trkpt lat="44.626777" lon="7.9510172"><ele>246.2</ele><time>2026-04-10T12:42:15.18Z</time></trkpt><trkpt lat="44.6268366" lon="7.9511059"><ele>243.39999999999998</ele><time>2026-04-10T12:42:17.179Z</time></trkpt><trkpt lat="44.6269324" lon="7.9511437"><ele>240.6</ele><time>2026-04-10T12:42:19.182Z</time></trkpt><trkpt lat="44.6270507" lon="7.95113"><ele>237.8</ele><time>2026-04-10T12:42:21.18Z</time></trkpt><trkpt lat="44.6271446" lon="7.9511387"><ele>235.0</ele><time>2026-04-10T12:42:23.18Z</time></trkpt><trkpt lat="44.6272242" lon="7.951177"><ele>233.8</ele><time>2026-04-10T12:42:25.18Z</time></trkpt><trkpt lat="44.6272904" lon="7.9512955"><ele>232.6</ele><time>2026-04-10T12:42:27.18Z</time></trkpt><trkpt lat="44.6272748" lon="7.9514211"><ele>231.39999999999998</ele><time>2026-04-10T12:42:29.181Z</time></trkpt><trkpt lat="44.627219" lon="7.9515086"><ele>230.2</ele><time>2026-04-10T12:42:30.18Z</time></trkpt><trkpt lat="44.6271513" lon="7.9515928"><ele>229.0</ele><time>2026-04-10T12:42:31.18Z</time></trkpt><trkpt lat="44.6270788" lon="7.9516856"><ele>228.39999999999998</ele><time>2026-04-10T12:42:32.18Z</time></trkpt><trkpt lat="44.6270121" lon="7.9517985"><ele>227.79999999999998</ele><time>2026-04-10T12:42:33.18Z</time></trkpt><trkpt lat="44.6269471" lon="7.9519153"><ele>227.20000000000002</ele><time>2026-04-10T12:42:34.181Z</time></trkpt><trkpt lat="44.6268872" lon="7.9520118"><ele>226.60000000000002</ele><time>2026-04-10T12:42:35.18Z</time></trkpt><trkpt lat="44.6268304" lon="7.9520998"><ele>226.0</ele><time>2026-04-10T12:42:36.18Z</time></trkpt><trkpt lat="44.6267843" lon="7.9521812"><ele>225.4</ele><time>2026-04-10T12:42:37.18Z</time></trkpt><trkpt lat="44.6267476" lon="7.952256"><ele>224.8</ele><time>2026-04-10T12:42:38.18Z</time></trkpt><trkpt lat="44.6266762" lon="7.952375"><ele>224.20000000000002</ele><time>2026-04-10T12:42:40.18Z</time></trkpt><trkpt lat="44.626601" lon="7.9524919"><ele>223.60000000000002</ele><time>2026-04-10T12:42:42.18Z</time></trkpt><trkpt lat="44.6265329" lon="7.9526341"><ele>223.0</ele><time>2026-04-10T12:42:44.18Z</time></trkpt><trkpt lat="44.6265088" lon="7.9527853"><ele>222.83333333333331</ele><time>2026-04-10T12:42:46.18Z</time></trkpt><trkpt lat="44.6265074" lon="7.9528803"><ele>222.66666666666666</ele><time>2026-04-10T12:42:47.18Z</time></trkpt><trkpt lat="44.6265154" lon="7.95297"><ele>222.5</ele><time>2026-04-10T12:42:48.18Z</time></trkpt><trkpt lat="44.6265509" lon="7.953147"><ele>222.33333333333331</ele><time>2026-04-10T12:42:50.18Z</time></trkpt><trkpt lat="44.6265823" lon="7.9532408"><ele>222.16666666666666</ele><time>2026-04-10T12:42:51.18Z</time></trkpt><trkpt lat="44.6266218" lon="7.9533298"><ele>222.0</ele><time>2026-04-10T12:42:52.18Z</time></trkpt><trkpt lat="44.6266626" lon="7.9534176"><ele>221.33333333333334</ele><time>2026-04-10T12:42:53.18Z</time></trkpt><trkpt lat="44.6267109" lon="7.9535015"><ele>220.66666666666669</ele><time>2026-04-10T12:42:54.18Z</time></trkpt><trkpt lat="44.6267599" lon="7.9535821"><ele>220.0</ele><time>2026-04-10T12:42:55.18Z</time></trkpt><trkpt lat="44.6268099" lon="7.9536549"><ele>219.33333333333334</ele><time>2026-04-10T12:42:56.18Z</time></trkpt><trkpt lat="44.6268554" lon="7.9537246"><ele>218.66666666666669</ele><time>2026-04-10T12:42:57.18Z</time></trkpt><trkpt lat="44.6268976" lon="7.9537922"><ele>218.0</ele><time>2026-04-10T12:42:58.18Z</time></trkpt><trkpt lat="44.6269639" lon="7.9539258"><ele>218.4</ele><time>2026-04-10T12:43:00.18Z</time></trkpt><trkpt lat="44.6270299" lon="7.9540505"><ele>218.8</ele><time>2026-04-10T12:43:02.18Z</time></trkpt><trkpt lat="44.6271019" lon="7.9541725"><ele>219.2</ele><time>2026-04-10T12:43:04.18Z</time></trkpt><trkpt lat="44.6271544" lon="7.954293"><ele>219.6</ele><time>2026-04-10T12:43:06.18Z</time></trkpt><trkpt lat="44.6272172" lon="7.9544022"><ele>220.0</ele><time>2026-04-10T12:43:08.18Z</time></trkpt><trkpt lat="44.6272856" lon="7.9545009"><ele>219.99999999999997</ele><time>2026-04-10T12:43:10.18Z</time></trkpt><trkpt lat="44.6273476" lon="7.9546058"><ele>220.0</ele><time>2026-04-10T12:43:12.182Z</time></trkpt><trkpt lat="44.6274024" lon="7.9546896"><ele>220.0</ele><time>2026-04-10T12:43:14.18Z</time></trkpt><trkpt lat="44.6274675" lon="7.9547795"><ele>220.0</ele><time>2026-04-10T12:43:16.181Z</time></trkpt><trkpt lat="44.6275223" lon="7.9548673"><ele>219.99999999999997</ele><time>2026-04-10T12:43:18.18Z</time></trkpt><trkpt lat="44.6275795" lon="7.9549449"><ele>220.0</ele><time>2026-04-10T12:43:20.18Z</time></trkpt><trkpt lat="44.6276395" lon="7.9550269"><ele>219.57142857142856</ele><time>2026-04-10T12:43:22.181Z</time></trkpt><trkpt lat="44.627698" lon="7.9551052"><ele>219.14285714285714</ele><time>2026-04-10T12:43:24.181Z</time></trkpt><trkpt lat="44.6277542" lon="7.9551681"><ele>218.71428571428572</ele><time>2026-04-10T12:43:26.181Z</time></trkpt><trkpt lat="44.627811" lon="7.9552385"><ele>218.28571428571428</ele><time>2026-04-10T12:43:28.181Z</time></trkpt><trkpt lat="44.6278715" lon="7.9553075"><ele>217.85714285714286</ele><time>2026-04-10T12:43:30.182Z</time></trkpt><trkpt lat="44.6279274" lon="7.955372"><ele>217.42857142857142</ele><time>2026-04-10T12:43:33.181Z</time></trkpt><trkpt lat="44.6279904" lon="7.9554143"><ele>217.0</ele><time>2026-04-10T12:44:00.221Z</time></trkpt><trkpt lat="44.6280115" lon="7.9553256"><ele>216.99999999999997</ele><time>2026-04-10T12:44:03.239Z</time></trkpt><trkpt lat="44.6280392" lon="7.9552085"><ele>217.0</ele><time>2026-04-10T12:44:06.206Z</time></trkpt><trkpt lat="44.6280797" lon="7.9551282"><ele>217.0</ele><time>2026-04-10T12:44:08.29Z</time></trkpt><trkpt lat="44.6281308" lon="7.955043"><ele>217.0</ele><time>2026-04-10T12:44:10.181Z</time></trkpt><trkpt lat="44.6281748" lon="7.954962"><ele>216.99999999999997</ele><time>2026-04-10T12:44:13.181Z</time></trkpt><trkpt lat="44.6282225" lon="7.954885"><ele>217.0</ele><time>2026-04-10T12:44:15.181Z</time></trkpt><trkpt lat="44.6282573" lon="7.9547798"><ele>217.0</ele><time>2026-04-10T12:44:17.181Z</time></trkpt><trkpt lat="44.6283179" lon="7.9546888"><ele>217.0</ele><time>2026-04-10T12:44:20.181Z</time></trkpt><trkpt lat="44.6283648" lon="7.9546092"><ele>217.0</ele><time>2026-04-10T12:44:23.182Z</time></trkpt><trkpt lat="44.6284184" lon="7.9545584"><ele>217.0</ele><time>2026-04-10T12:44:26.182Z</time></trkpt><trkpt lat="44.6284695" lon="7.9544996"><ele>217.0</ele><time>2026-04-10T12:44:28.181Z</time></trkpt><trkpt lat="44.6285251" lon="7.9544578"><ele>217.0</ele><time>2026-04-10T12:44:30.181Z</time></trkpt><trkpt lat="44.6286007" lon="7.9543867"><ele>217.0</ele><time>2026-04-10T12:44:33.183Z</time></trkpt><trkpt lat="44.6286666" lon="7.9543249"><ele>217.49999999999997</ele><time>2026-04-10T12:44:35.181Z</time></trkpt><trkpt lat="44.6287237" lon="7.9542724"><ele>218.0</ele><time>2026-04-10T12:44:37.181Z</time></trkpt><trkpt lat="44.6287806" lon="7.954231"><ele>218.5</ele><time>2026-04-10T12:44:39.182Z</time></trkpt><trkpt lat="44.6288434" lon="7.9541681"><ele>219.0</ele><time>2026-04-10T12:44:42.183Z</time></trkpt><trkpt lat="44.6289089" lon="7.9541038"><ele>219.49999999999997</ele><time>2026-04-10T12:44:45.182Z</time></trkpt><trkpt lat="44.6289788" lon="7.9540442"><ele>220.0</ele><time>2026-04-10T12:44:48.182Z</time></trkpt><trkpt lat="44.6290506" lon="7.9539947"><ele>220.42857142857142</ele><time>2026-04-10T12:44:51.182Z</time></trkpt><trkpt lat="44.6291085" lon="7.9539474"><ele>220.85714285714286</ele><time>2026-04-10T12:44:54.182Z</time></trkpt><trkpt lat="44.6291845" lon="7.9539006"><ele>221.28571428571428</ele><time>2026-04-10T12:44:58.182Z</time></trkpt><trkpt lat="44.6292451" lon="7.9538532"><ele>221.71428571428572</ele><time>2026-04-10T12:45:01.182Z</time></trkpt><trkpt lat="44.6293026" lon="7.9538003"><ele>222.14285714285714</ele><time>2026-04-10T12:45:04.182Z</time></trkpt><trkpt lat="44.6293695" lon="7.9537322"><ele>222.57142857142856</ele><time>2026-04-10T12:45:08.182Z</time></trkpt><trkpt lat="44.6294246" lon="7.9536732"><ele>223.0</ele><time>2026-04-10T12:45:11.182Z</time></trkpt><trkpt lat="44.6294757" lon="7.9536151"><ele>223.83333333333331</ele><time>2026-04-10T12:45:14.182Z</time></trkpt><trkpt lat="44.6295327" lon="7.9535564"><ele>224.66666666666666</ele><time>2026-04-10T12:45:17.182Z</time></trkpt><trkpt lat="44.6295974" lon="7.9535056"><ele>225.5</ele><time>2026-04-10T12:45:20.183Z</time></trkpt><trkpt lat="44.6296676" lon="7.9534516"><ele>226.33333333333331</ele><time>2026-04-10T12:45:24.183Z</time></trkpt><trkpt lat="44.6297279" lon="7.9533893"><ele>227.16666666666666</ele><time>2026-04-10T12:45:27.182Z</time></trkpt><trkpt lat="44.6297855" lon="7.9533191"><ele>228.0</ele><time>2026-04-10T12:45:30.182Z</time></trkpt><trkpt lat="44.6298623" lon="7.953233"><ele>228.0</ele><time>2026-04-10T12:45:34.183Z</time></trkpt><trkpt lat="44.6299217" lon="7.9531602"><ele>228.0</ele><time>2026-04-10T12:45:38.182Z</time></trkpt><trkpt lat="44.6299686" lon="7.9530806"><ele>228.0</ele><time>2026-04-10T12:45:41.183Z</time></trkpt><trkpt lat="44.6300196" lon="7.9530164"><ele>228.0</ele><time>2026-04-10T12:45:44.183Z</time></trkpt><trkpt lat="44.6300815" lon="7.9529376"><ele>228.0</ele><time>2026-04-10T12:45:47.183Z</time></trkpt><trkpt lat="44.6301398" lon="7.9528439"><ele>228.0</ele><time>2026-04-10T12:45:50.183Z</time></trkpt><trkpt lat="44.6301994" lon="7.9527582"><ele>228.0</ele><time>2026-04-10T12:45:53.182Z</time></trkpt><trkpt lat="44.6302549" lon="7.9526689"><ele>228.0</ele><time>2026-04-10T12:45:56.183Z</time></trkpt><trkpt lat="44.6303079" lon="7.9525762"><ele>228.0</ele><time>2026-04-10T12:45:59.183Z</time></trkpt><trkpt lat="44.6303595" lon="7.9524841"><ele>228.0</ele><time>2026-04-10T12:46:02.183Z</time></trkpt><trkpt lat="44.6304189" lon="7.9523847"><ele>228.0</ele><time>2026-04-10T12:46:05.183Z</time></trkpt><trkpt lat="44.6304733" lon="7.9522878"><ele>228.0</ele><time>2026-04-10T12:46:08.184Z</time></trkpt><trkpt lat="44.630521" lon="7.9521839"><ele>228.16666666666666</ele><time>2026-04-10T12:46:11.184Z</time></trkpt><trkpt lat="44.6305545" lon="7.952087"><ele>228.33333333333331</ele><time>2026-04-10T12:46:14.183Z</time></trkpt><trkpt lat="44.6305818" lon="7.9519819"><ele>228.5</ele><time>2026-04-10T12:46:17.184Z</time></trkpt><trkpt lat="44.6306096" lon="7.9518767"><ele>228.66666666666666</ele><time>2026-04-10T12:46:20.183Z</time></trkpt><trkpt lat="44.6306372" lon="7.9517711"><ele>228.83333333333331</ele><time>2026-04-10T12:46:23.183Z</time></trkpt><trkpt lat="44.630691" lon="7.9516954"><ele>229.0</ele><time>2026-04-10T12:46:26.183Z</time></trkpt><trkpt lat="44.6307411" lon="7.9516348"><ele>229.0</ele><time>2026-04-10T12:46:28.183Z</time></trkpt><trkpt lat="44.6307903" lon="7.9515712"><ele>229.0</ele><time>2026-04-10T12:46:30.183Z</time></trkpt><trkpt lat="44.6308437" lon="7.9515227"><ele>229.0</ele><time>2026-04-10T12:46:32.183Z</time></trkpt><trkpt lat="44.630924" lon="7.9514516"><ele>229.0</ele><time>2026-04-10T12:46:35.183Z</time></trkpt><trkpt lat="44.6309799" lon="7.9514051"><ele>229.0</ele><time>2026-04-10T12:46:37.183Z</time></trkpt><trkpt lat="44.6310386" lon="7.9513621"><ele>229.0</ele><time>2026-04-10T12:46:39.183Z</time></trkpt><trkpt lat="44.6310915" lon="7.951307"><ele>229.0</ele><time>2026-04-10T12:46:41.183Z</time></trkpt><trkpt lat="44.6311446" lon="7.9512543"><ele>229.33333333333331</ele><time>2026-04-10T12:46:43.183Z</time></trkpt><trkpt lat="44.6312164" lon="7.9511871"><ele>229.66666666666666</ele><time>2026-04-10T12:46:46.183Z</time></trkpt><trkpt lat="44.6312899" lon="7.9511177"><ele>230.0</ele><time>2026-04-10T12:46:49.183Z</time></trkpt><trkpt lat="44.6313637" lon="7.9510544"><ele>230.33333333333331</ele><time>2026-04-10T12:46:52.183Z</time></trkpt><trkpt lat="44.6314262" lon="7.9510081"><ele>230.66666666666666</ele><time>2026-04-10T12:46:55.183Z</time></trkpt><trkpt lat="44.6314915" lon="7.9509441"><ele>231.0</ele><time>2026-04-10T12:46:59.184Z</time></trkpt><trkpt lat="44.631563" lon="7.9508813"><ele>230.83333333333334</ele><time>2026-04-10T12:47:02.184Z</time></trkpt><trkpt lat="44.6316364" lon="7.9508126"><ele>230.66666666666669</ele><time>2026-04-10T12:47:05.183Z</time></trkpt><trkpt lat="44.6317038" lon="7.9507518"><ele>230.5</ele><time>2026-04-10T12:47:08.184Z</time></trkpt><trkpt lat="44.6317595" lon="7.9507008"><ele>230.33333333333334</ele><time>2026-04-10T12:47:11.184Z</time></trkpt><trkpt lat="44.6318201" lon="7.9506291"><ele>230.16666666666669</ele><time>2026-04-10T12:47:14.184Z</time></trkpt><trkpt lat="44.6318729" lon="7.9505589"><ele>230.0</ele><time>2026-04-10T12:47:17.185Z</time></trkpt><trkpt lat="44.63191" lon="7.950479"><ele>229.99999999999997</ele><time>2026-04-10T12:47:20.184Z</time></trkpt><trkpt lat="44.6319573" lon="7.950419"><ele>230.0</ele><time>2026-04-10T12:47:23.184Z</time></trkpt><trkpt lat="44.6320176" lon="7.9503897"><ele>229.99999999999997</ele><time>2026-04-10T12:47:26.184Z</time></trkpt><trkpt lat="44.6320964" lon="7.950364"><ele>229.99999999999997</ele><time>2026-04-10T12:47:30.184Z</time></trkpt><trkpt lat="44.6321528" lon="7.9503145"><ele>230.0</ele><time>2026-04-10T12:47:33.184Z</time></trkpt><trkpt lat="44.6322169" lon="7.9502386"><ele>229.99999999999997</ele><time>2026-04-10T12:47:36.184Z</time></trkpt><trkpt lat="44.6322733" lon="7.9501803"><ele>229.99999999999997</ele><time>2026-04-10T12:47:39.184Z</time></trkpt><trkpt lat="44.6323318" lon="7.9501127"><ele>230.99999999999997</ele><time>2026-04-10T12:47:42.184Z</time></trkpt><trkpt lat="44.6323818" lon="7.9500396"><ele>232.0</ele><time>2026-04-10T12:47:45.184Z</time></trkpt><trkpt lat="44.6324463" lon="7.9499778"><ele>232.99999999999997</ele><time>2026-04-10T12:47:49.184Z</time></trkpt><trkpt lat="44.6324957" lon="7.9499089"><ele>233.99999999999997</ele><time>2026-04-10T12:47:52.184Z</time></trkpt><trkpt lat="44.6325437" lon="7.9498486"><ele>235.0</ele><time>2026-04-10T12:47:55.185Z</time></trkpt><trkpt lat="44.6326" lon="7.9497702"><ele>235.99999999999997</ele><time>2026-04-10T12:47:58.184Z</time></trkpt><trkpt lat="44.6326395" lon="7.9497007"><ele>236.99999999999997</ele><time>2026-04-10T12:48:01.185Z</time></trkpt><trkpt lat="44.6326944" lon="7.9496234"><ele>237.0</ele><time>2026-04-10T12:48:05.184Z</time></trkpt><trkpt lat="44.6327458" lon="7.9495345"><ele>237.0</ele><time>2026-04-10T12:48:09.184Z</time></trkpt><trkpt lat="44.6328026" lon="7.9494731"><ele>237.0</ele><time>2026-04-10T12:48:12.185Z</time></trkpt><trkpt lat="44.6328446" lon="7.9493955"><ele>237.0</ele><time>2026-04-10T12:48:15.184Z</time></trkpt><trkpt lat="44.6328905" lon="7.9493258"><ele>237.0</ele><time>2026-04-10T12:48:18.185Z</time></trkpt><trkpt lat="44.6329438" lon="7.9492288"><ele>237.0</ele><time>2026-04-10T12:48:21.185Z</time></trkpt><trkpt lat="44.6329756" lon="7.9491346"><ele>238.57142857142856</ele><time>2026-04-10T12:48:24.185Z</time></trkpt><trkpt lat="44.6330018" lon="7.9490397"><ele>240.14285714285714</ele><time>2026-04-10T12:48:28.185Z</time></trkpt><trkpt lat="44.6330207" lon="7.9489535"><ele>241.71428571428572</ele><time>2026-04-10T12:50:24.233Z</time></trkpt><trkpt lat="44.633044" lon="7.9488563"><ele>243.28571428571428</ele><time>2026-04-10T12:50:27.267Z</time></trkpt><trkpt lat="44.633084" lon="7.9487823"><ele>244.8571428571429</ele><time>2026-04-10T12:50:31.219Z</time></trkpt><trkpt lat="44.633127" lon="7.9486963"><ele>246.42857142857144</ele><time>2026-04-10T12:50:36.27Z</time></trkpt><trkpt lat="44.6331608" lon="7.9486102"><ele>248.0</ele><time>2026-04-10T12:50:40.221Z</time></trkpt><trkpt lat="44.633203" lon="7.9485361"><ele>248.0</ele><time>2026-04-10T12:50:43.288Z</time></trkpt><trkpt lat="44.6332341" lon="7.9484488"><ele>248.00000000000003</ele><time>2026-04-10T12:50:46.272Z</time></trkpt><trkpt lat="44.6332722" lon="7.9483565"><ele>248.0</ele><time>2026-04-10T12:50:50.209Z</time></trkpt><trkpt lat="44.6333073" lon="7.9482785"><ele>248.0</ele><time>2026-04-10T12:50:53.224Z</time></trkpt><trkpt lat="44.6333448" lon="7.9481749"><ele>248.00000000000003</ele><time>2026-04-10T12:50:57.258Z</time></trkpt><trkpt lat="44.6333822" lon="7.9480869"><ele>248.0</ele><time>2026-04-10T12:51:01.187Z</time></trkpt><trkpt lat="44.6334147" lon="7.9480069"><ele>248.0</ele><time>2026-04-10T12:51:04.187Z</time></trkpt><trkpt lat="44.6334487" lon="7.9479264"><ele>247.42857142857144</ele><time>2026-04-10T12:51:07.187Z</time></trkpt><trkpt lat="44.6334839" lon="7.9478344"><ele>246.8571428571429</ele><time>2026-04-10T12:51:10.187Z</time></trkpt><trkpt lat="44.633528" lon="7.9477301"><ele>246.28571428571428</ele><time>2026-04-10T12:51:13.187Z</time></trkpt><trkpt lat="44.6335698" lon="7.9476486"><ele>245.71428571428572</ele><time>2026-04-10T12:51:17.187Z</time></trkpt><trkpt lat="44.6335935" lon="7.9475542"><ele>245.14285714285714</ele><time>2026-04-10T12:51:20.187Z</time></trkpt><trkpt lat="44.6336271" lon="7.9474693"><ele>244.57142857142856</ele><time>2026-04-10T12:51:23.187Z</time></trkpt><trkpt lat="44.6336576" lon="7.9473875"><ele>243.99999999999997</ele><time>2026-04-10T12:51:26.187Z</time></trkpt><trkpt lat="44.6336854" lon="7.9473003"><ele>245.28571428571425</ele><time>2026-04-10T12:51:29.187Z</time></trkpt><trkpt lat="44.6337091" lon="7.9472144"><ele>246.57142857142856</ele><time>2026-04-10T12:51:32.187Z</time></trkpt><trkpt lat="44.6337573" lon="7.9471369"><ele>247.85714285714286</ele><time>2026-04-10T12:51:35.187Z</time></trkpt><trkpt lat="44.6337766" lon="7.9470393"><ele>249.14285714285714</ele><time>2026-04-10T12:51:38.187Z</time></trkpt><trkpt lat="44.6338104" lon="7.946955"><ele>250.42857142857144</ele><time>2026-04-10T12:51:41.187Z</time></trkpt><trkpt lat="44.6338462" lon="7.9468563"><ele>251.71428571428575</ele><time>2026-04-10T12:51:45.187Z</time></trkpt><trkpt lat="44.633881" lon="7.9467778"><ele>253.00000000000003</ele><time>2026-04-10T12:51:48.187Z</time></trkpt><trkpt lat="44.6339207" lon="7.9467011"><ele>253.14285714285717</ele><time>2026-04-10T12:51:51.187Z</time></trkpt><trkpt lat="44.6339479" lon="7.9466109"><ele>253.28571428571428</ele><time>2026-04-10T12:51:54.187Z</time></trkpt><trkpt lat="44.6339775" lon="7.9465278"><ele>253.42857142857144</ele><time>2026-04-10T12:51:58.188Z</time></trkpt><trkpt lat="44.6340074" lon="7.9464467"><ele>253.57142857142858</ele><time>2026-04-10T12:52:03.188Z</time></trkpt><trkpt lat="44.6340342" lon="7.9463489"><ele>253.71428571428572</ele><time>2026-04-10T12:52:08.188Z</time></trkpt><trkpt lat="44.6340633" lon="7.9462591"><ele>253.85714285714286</ele><time>2026-04-10T12:52:20.188Z</time></trkpt><trkpt lat="44.6340975" lon="7.9461713"><ele>254.0</ele><time>2026-04-10T12:52:30.188Z</time></trkpt><trkpt lat="44.6341003" lon="7.9460785"><ele>254.0</ele><time>2026-04-10T12:52:37.188Z</time></trkpt><trkpt lat="44.6340948" lon="7.9459781"><ele>254.0</ele><time>2026-04-10T12:52:46.189Z</time></trkpt><trkpt lat="44.6340905" lon="7.9458785"><ele>254.0</ele><time>2026-04-10T12:52:57.189Z</time></trkpt><trkpt lat="44.6340767" lon="7.9457789"><ele>254.0</ele><time>2026-04-10T12:53:04.188Z</time></trkpt><trkpt lat="44.6340669" lon="7.9456912"><ele>254.0</ele><time>2026-04-10T12:53:14.188Z</time></trkpt><trkpt lat="44.634043" lon="7.9455982"><ele>254.0</ele><time>2026-04-10T12:53:21.189Z</time></trkpt><trkpt lat="44.6340057" lon="7.9455254"><ele>254.0</ele><time>2026-04-10T12:53:29.189Z</time></trkpt><trkpt lat="44.6340001" lon="7.9454333"><ele>255.0</ele><time>2026-04-10T12:53:37.189Z</time></trkpt><trkpt lat="44.6339865" lon="7.945338"><ele>256.0</ele><time>2026-04-10T12:53:47.189Z</time></trkpt><trkpt lat="44.6339684" lon="7.9452453"><ele>257.0</ele><time>2026-04-10T12:53:56.189Z</time></trkpt><trkpt lat="44.6339671" lon="7.9451503"><ele>258.0</ele><time>2026-04-10T12:54:07.189Z</time></trkpt><trkpt lat="44.6339517" lon="7.9450606"><ele>259.0</ele><time>2026-04-10T12:54:18.189Z</time></trkpt><trkpt lat="44.6339496" lon="7.9449677"><ele>260.0</ele><time>2026-04-10T12:54:27.189Z</time></trkpt><trkpt lat="44.6339394" lon="7.9448756"><ele>261.0</ele><time>2026-04-10T12:54:38.19Z</time></trkpt><trkpt lat="44.6339357" lon="7.9447843"><ele>263.40000000000003</ele><time>2026-04-10T12:54:46.191Z</time></trkpt><trkpt lat="44.6339528" lon="7.9446945"><ele>265.8</ele><time>2026-04-10T12:54:56.19Z</time></trkpt><trkpt lat="44.6340284" lon="7.9447442"><ele>268.20000000000005</ele><time>2026-04-10T12:55:59.191Z</time></trkpt><trkpt lat="44.6340987" lon="7.9448283"><ele>270.6</ele><time>2026-04-10T12:56:03.191Z</time></trkpt><trkpt lat="44.6342082" lon="7.9449428"><ele>273.0</ele><time>2026-04-10T12:56:05.191Z</time></trkpt><trkpt lat="44.6342776" lon="7.9450145"><ele>273.5</ele><time>2026-04-10T12:56:06.191Z</time></trkpt><trkpt lat="44.6343379" lon="7.9450925"><ele>274.0</ele><time>2026-04-10T12:56:07.191Z</time></trkpt><trkpt lat="44.6343996" lon="7.9451511"><ele>274.5</ele><time>2026-04-10T12:56:08.191Z</time></trkpt><trkpt lat="44.6344552" lon="7.9451969"><ele>275.0</ele><time>2026-04-10T12:56:09.191Z</time></trkpt><trkpt lat="44.6345605" lon="7.9452679"><ele>275.5</ele><time>2026-04-10T12:56:11.191Z</time></trkpt><trkpt lat="44.6346547" lon="7.9453187"><ele>276.0</ele><time>2026-04-10T12:56:13.191Z</time></trkpt><trkpt lat="44.6347356" lon="7.9453615"><ele>276.0</ele><time>2026-04-10T12:56:15.191Z</time></trkpt><trkpt lat="44.6347914" lon="7.9454106"><ele>276.0</ele><time>2026-04-10T12:56:17.191Z</time></trkpt><trkpt lat="44.6348578" lon="7.945488"><ele>276.0</ele><time>2026-04-10T12:56:20.191Z</time></trkpt><trkpt lat="44.6349254" lon="7.9455552"><ele>276.0</ele><time>2026-04-10T12:56:23.191Z</time></trkpt><trkpt lat="44.6349758" lon="7.9456214"><ele>276.0</ele><time>2026-04-10T12:56:26.191Z</time></trkpt><trkpt lat="44.6350324" lon="7.9457013"><ele>276.0</ele><time>2026-04-10T12:56:30.191Z</time></trkpt><trkpt lat="44.635081" lon="7.9457751"><ele>276.0</ele><time>2026-04-10T12:56:33.191Z</time></trkpt><trkpt lat="44.6351296" lon="7.9458487"><ele>276.0</ele><time>2026-04-10T12:56:37.191Z</time></trkpt><trkpt lat="44.6351673" lon="7.9459249"><ele>276.0</ele><time>2026-04-10T12:56:40.193Z</time></trkpt><trkpt lat="44.63523" lon="7.9459835"><ele>276.0</ele><time>2026-04-10T12:56:43.192Z</time></trkpt><trkpt lat="44.6352849" lon="7.9460544"><ele>276.0</ele><time>2026-04-10T12:56:46.191Z</time></trkpt><trkpt lat="44.635336" lon="7.9461069"><ele>276.0</ele><time>2026-04-10T12:56:49.193Z</time></trkpt><trkpt lat="44.6353769" lon="7.9462006"><ele>276.0</ele><time>2026-04-10T12:56:53.191Z</time></trkpt><trkpt lat="44.6354316" lon="7.9462774"><ele>278.0</ele><time>2026-04-10T12:56:57.192Z</time></trkpt><trkpt lat="44.6354923" lon="7.9463439"><ele>280.0</ele><time>2026-04-10T12:57:02.193Z</time></trkpt><trkpt lat="44.6355394" lon="7.9464265"><ele>282.0</ele><time>2026-04-10T12:57:07.193Z</time></trkpt><trkpt lat="44.6355969" lon="7.9464881"><ele>284.0</ele><time>2026-04-10T12:57:11.192Z</time></trkpt><trkpt lat="44.6356581" lon="7.9465563"><ele>286.0</ele><time>2026-04-10T12:57:17.192Z</time></trkpt><trkpt lat="44.6357122" lon="7.9466176"><ele>288.0</ele><time>2026-04-10T12:57:28.192Z</time></trkpt><trkpt lat="44.6357621" lon="7.9466837"><ele>290.0</ele><time>2026-04-10T12:57:37.192Z</time></trkpt><trkpt lat="44.6357998" lon="7.9467621"><ele>290.14285714285717</ele><time>2026-04-10T12:57:46.192Z</time></trkpt><trkpt lat="44.6358508" lon="7.9468387"><ele>290.28571428571433</ele><time>2026-04-10T12:57:54.192Z</time></trkpt><trkpt lat="44.6358667" lon="7.9469325"><ele>290.42857142857144</ele><time>2026-04-10T12:58:01.192Z</time></trkpt><trkpt lat="44.6359028" lon="7.9470233"><ele>290.57142857142856</ele><time>2026-04-10T12:58:09.192Z</time></trkpt><trkpt lat="44.6359331" lon="7.947107"><ele>290.71428571428567</ele><time>2026-04-10T12:58:15.193Z</time></trkpt><trkpt lat="44.6359579" lon="7.9471958"><ele>290.85714285714283</ele><time>2026-04-10T12:58:22.193Z</time></trkpt><trkpt lat="44.6359761" lon="7.947282"><ele>291.0</ele><time>2026-04-10T12:58:30.193Z</time></trkpt><trkpt lat="44.6360172" lon="7.9473592"><ele>291.0</ele><time>2026-04-10T12:58:38.193Z</time></trkpt><trkpt lat="44.6360338" lon="7.9474482"><ele>291.0</ele><time>2026-04-10T12:58:44.193Z</time></trkpt><trkpt lat="44.6360765" lon="7.9475209"><ele>291.0</ele><time>2026-04-10T12:58:53.193Z</time></trkpt><trkpt lat="44.6360899" lon="7.9476127"><ele>291.0</ele><time>2026-04-10T12:59:00.193Z</time></trkpt><trkpt lat="44.6361113" lon="7.947701"><ele>291.0</ele><time>2026-04-10T12:59:09.193Z</time></trkpt><trkpt lat="44.6361408" lon="7.9477936"><ele>291.0</ele><time>2026-04-10T12:59:17.193Z</time></trkpt><trkpt lat="44.6361686" lon="7.9478798"><ele>291.0</ele><time>2026-04-10T12:59:26.194Z</time></trkpt><trkpt lat="44.6361965" lon="7.9479619"><ele>293.42857142857144</ele><time>2026-04-10T12:59:34.194Z</time></trkpt><trkpt lat="44.6362529" lon="7.9480066"><ele>295.85714285714283</ele><time>2026-04-10T12:59:42.194Z</time></trkpt><trkpt lat="44.636325" lon="7.9480224"><ele>298.2857142857143</ele><time>2026-04-10T12:59:51.194Z</time></trkpt><trkpt lat="44.6363939" lon="7.9480155"><ele>300.7142857142857</ele><time>2026-04-10T12:59:58.194Z</time></trkpt><trkpt lat="44.6364572" lon="7.9479955"><ele>303.1428571428571</ele><time>2026-04-10T13:00:06.194Z</time></trkpt><trkpt lat="44.6365165" lon="7.9479549"><ele>305.57142857142856</ele><time>2026-04-10T13:00:12.194Z</time></trkpt><trkpt lat="44.6365412" lon="7.9478658"><ele>308.0</ele><time>2026-04-10T13:00:20.194Z</time></trkpt><trkpt lat="44.6365655" lon="7.9477807"><ele>308.0</ele><time>2026-04-10T13:00:27.194Z</time></trkpt><trkpt lat="44.6365867" lon="7.9476877"><ele>308.0</ele><time>2026-04-10T13:00:35.266Z</time></trkpt><trkpt lat="44.6365808" lon="7.9475897"><ele>308.0</ele><time>2026-04-10T13:00:42.25Z</time></trkpt><trkpt lat="44.6366171" lon="7.9475169"><ele>308.0</ele><time>2026-04-10T13:00:49.286Z</time></trkpt><trkpt lat="44.6366247" lon="7.9474234"><ele>308.0</ele><time>2026-04-10T13:00:58.304Z</time></trkpt><trkpt lat="44.6366632" lon="7.9473455"><ele>308.0</ele><time>2026-04-10T13:01:06.24Z</time></trkpt><trkpt lat="44.6367267" lon="7.9473338"><ele>308.0</ele><time>2026-04-10T13:01:12.258Z</time></trkpt><trkpt lat="44.6367039" lon="7.9474195"><ele>308.0</ele><time>2026-04-10T13:02:29.304Z</time></trkpt><trkpt lat="44.6366818" lon="7.9475344"><ele>308.0</ele><time>2026-04-10T13:02:32.271Z</time></trkpt><trkpt lat="44.6366545" lon="7.9477595"><ele>308.0</ele><time>2026-04-10T13:02:34.304Z</time></trkpt><trkpt lat="44.6366489" lon="7.948042"><ele>308.0</ele><time>2026-04-10T13:02:36.196Z</time></trkpt><trkpt lat="44.6366537" lon="7.9481306"><ele>308.0</ele><time>2026-04-10T13:02:37.196Z</time></trkpt><trkpt lat="44.6366798" lon="7.9483019"><ele>308.0</ele><time>2026-04-10T13:02:39.196Z</time></trkpt><trkpt lat="44.636706" lon="7.9483915"><ele>308.0</ele><time>2026-04-10T13:02:40.196Z</time></trkpt><trkpt lat="44.636737" lon="7.9484808"><ele>308.0</ele><time>2026-04-10T13:02:41.197Z</time></trkpt><trkpt lat="44.6367675" lon="7.9485704"><ele>308.0</ele><time>2026-04-10T13:02:42.197Z</time></trkpt><trkpt lat="44.6367984" lon="7.9486588"><ele>308.0</ele><time>2026-04-10T13:02:43.197Z</time></trkpt><trkpt lat="44.6368301" lon="7.9487479"><ele>308.6666666666667</ele><time>2026-04-10T13:02:44.196Z</time></trkpt><trkpt lat="44.6368667" lon="7.9488355"><ele>309.33333333333337</ele><time>2026-04-10T13:02:45.196Z</time></trkpt><trkpt lat="44.6369097" lon="7.9489269"><ele>310.0</ele><time>2026-04-10T13:02:46.197Z</time></trkpt><trkpt lat="44.6369571" lon="7.949017"><ele>310.6666666666667</ele><time>2026-04-10T13:02:47.197Z</time></trkpt><trkpt lat="44.6370075" lon="7.9491175"><ele>311.3333333333333</ele><time>2026-04-10T13:02:48.198Z</time></trkpt><trkpt lat="44.6370574" lon="7.9492228"><ele>312.0</ele><time>2026-04-10T13:02:49.197Z</time></trkpt><trkpt lat="44.6371074" lon="7.9493326"><ele>307.4</ele><time>2026-04-10T13:02:50.196Z</time></trkpt><trkpt lat="44.6371589" lon="7.9494416"><ele>302.79999999999995</ele><time>2026-04-10T13:02:51.197Z</time></trkpt><trkpt lat="44.6372071" lon="7.9495578"><ele>298.2</ele><time>2026-04-10T13:02:52.197Z</time></trkpt><trkpt lat="44.637248" lon="7.9496744"><ele>293.59999999999997</ele><time>2026-04-10T13:02:53.197Z</time></trkpt><trkpt lat="44.6372784" lon="7.9498053"><ele>289.0</ele><time>2026-04-10T13:02:54.197Z</time></trkpt><trkpt lat="44.6372988" lon="7.9499345"><ele>288.66666666666663</ele><time>2026-04-10T13:02:55.197Z</time></trkpt><trkpt lat="44.6373183" lon="7.9500598"><ele>288.3333333333333</ele><time>2026-04-10T13:02:56.197Z</time></trkpt><trkpt lat="44.6373233" lon="7.9501747"><ele>288.0</ele><time>2026-04-10T13:02:57.198Z</time></trkpt><trkpt lat="44.6373158" lon="7.9502825"><ele>287.6666666666667</ele><time>2026-04-10T13:02:58.197Z</time></trkpt><trkpt lat="44.6373011" lon="7.9503921"><ele>287.33333333333337</ele><time>2026-04-10T13:02:59.196Z</time></trkpt><trkpt lat="44.6372814" lon="7.9505094"><ele>287.0</ele><time>2026-04-10T13:03:00.197Z</time></trkpt><trkpt lat="44.6372633" lon="7.9506306"><ele>287.0</ele><time>2026-04-10T13:03:01.197Z</time></trkpt><trkpt lat="44.6372493" lon="7.9507417"><ele>287.0</ele><time>2026-04-10T13:03:02.198Z</time></trkpt><trkpt lat="44.6372347" lon="7.9508482"><ele>287.0</ele><time>2026-04-10T13:03:03.196Z</time></trkpt><trkpt lat="44.6372157" lon="7.9509574"><ele>287.0</ele><time>2026-04-10T13:03:04.197Z</time></trkpt><trkpt lat="44.6371972" lon="7.9510702"><ele>287.0</ele><time>2026-04-10T13:03:05.196Z</time></trkpt><trkpt lat="44.6371725" lon="7.951171"><ele>287.0</ele><time>2026-04-10T13:03:06.198Z</time></trkpt><trkpt lat="44.6371358" lon="7.9512611"><ele>287.0</ele><time>2026-04-10T13:03:07.197Z</time></trkpt><trkpt lat="44.6370883" lon="7.9513531"><ele>287.0</ele><time>2026-04-10T13:03:08.197Z</time></trkpt><trkpt lat="44.6370234" lon="7.9514321"><ele>287.0</ele><time>2026-04-10T13:03:09.197Z</time></trkpt><trkpt lat="44.6369483" lon="7.9514983"><ele>287.0</ele><time>2026-04-10T13:03:10.197Z</time></trkpt><trkpt lat="44.6368609" lon="7.951541"><ele>287.0</ele><time>2026-04-10T13:03:11.197Z</time></trkpt><trkpt lat="44.6367798" lon="7.9515736"><ele>287.0</ele><time>2026-04-10T13:03:12.197Z</time></trkpt><trkpt lat="44.6367001" lon="7.9516053"><ele>287.0</ele><time>2026-04-10T13:03:13.197Z</time></trkpt><trkpt lat="44.6366157" lon="7.95165"><ele>287.0</ele><time>2026-04-10T13:03:14.197Z</time></trkpt><trkpt lat="44.6365362" lon="7.9516984"><ele>287.0</ele><time>2026-04-10T13:03:15.197Z</time></trkpt><trkpt lat="44.636459" lon="7.9517505"><ele>287.0</ele><time>2026-04-10T13:03:16.197Z</time></trkpt><trkpt lat="44.636382" lon="7.9518033"><ele>287.0</ele><time>2026-04-10T13:03:17.197Z</time></trkpt><trkpt lat="44.636303" lon="7.9518588"><ele>287.0</ele><time>2026-04-10T13:03:18.197Z</time></trkpt><trkpt lat="44.6362262" lon="7.9519115"><ele>286.6666666666667</ele><time>2026-04-10T13:03:19.197Z</time></trkpt><trkpt lat="44.6361522" lon="7.9519589"><ele>286.33333333333337</ele><time>2026-04-10T13:03:20.197Z</time></trkpt><trkpt lat="44.6360753" lon="7.9520054"><ele>286.0</ele><time>2026-04-10T13:03:21.197Z</time></trkpt><trkpt lat="44.6359918" lon="7.9520635"><ele>285.6666666666667</ele><time>2026-04-10T13:03:22.197Z</time></trkpt><trkpt lat="44.6359128" lon="7.9521117"><ele>285.3333333333333</ele><time>2026-04-10T13:03:23.197Z</time></trkpt><trkpt lat="44.6358412" lon="7.9521589"><ele>285.0</ele><time>2026-04-10T13:03:24.197Z</time></trkpt><trkpt lat="44.6357821" lon="7.9521999"><ele>285.0</ele><time>2026-04-10T13:03:25.197Z</time></trkpt><trkpt lat="44.6356868" lon="7.952294"><ele>285.0</ele><time>2026-04-10T13:03:27.197Z</time></trkpt><trkpt lat="44.635646" lon="7.9523701"><ele>285.0</ele><time>2026-04-10T13:03:28.197Z</time></trkpt><trkpt lat="44.6356137" lon="7.9524604"><ele>285.0</ele><time>2026-04-10T13:03:29.197Z</time></trkpt><trkpt lat="44.6355867" lon="7.9525564"><ele>285.0</ele><time>2026-04-10T13:03:30.197Z</time></trkpt><trkpt lat="44.6355736" lon="7.9526508"><ele>285.0</ele><time>2026-04-10T13:03:31.197Z</time></trkpt><trkpt lat="44.6355654" lon="7.9527516"><ele>284.3333333333333</ele><time>2026-04-10T13:03:32.197Z</time></trkpt><trkpt lat="44.6355579" lon="7.9528494"><ele>283.6666666666667</ele><time>2026-04-10T13:03:33.198Z</time></trkpt><trkpt lat="44.6355671" lon="7.9529984"><ele>283.0</ele><time>2026-04-10T13:03:35.197Z</time></trkpt><trkpt lat="44.6355926" lon="7.9530999"><ele>282.33333333333337</ele><time>2026-04-10T13:03:37.197Z</time></trkpt><trkpt lat="44.6355825" lon="7.9532005"><ele>281.6666666666667</ele><time>2026-04-10T13:04:19.289Z</time></trkpt><trkpt lat="44.6356485" lon="7.9532075"><ele>281.0</ele><time>2026-04-10T13:04:24.291Z</time></trkpt><trkpt lat="44.6357274" lon="7.9532299"><ele>281.0</ele><time>2026-04-10T13:04:28.258Z</time></trkpt><trkpt lat="44.6358063" lon="7.9532695"><ele>281.0</ele><time>2026-04-10T13:04:30.259Z</time></trkpt><trkpt lat="44.6358824" lon="7.9533035"><ele>281.0</ele><time>2026-04-10T13:04:32.26Z</time></trkpt><trkpt lat="44.6359229" lon="7.9534188"><ele>281.0</ele><time>2026-04-10T13:04:34.115Z</time></trkpt><trkpt lat="44.6359666" lon="7.9535005"><ele>281.0</ele><time>2026-04-10T13:04:35.198Z</time></trkpt><trkpt lat="44.6360521" lon="7.9535659"><ele>281.0</ele><time>2026-04-10T13:04:37.198Z</time></trkpt><trkpt lat="44.6361101" lon="7.9536006"><ele>280.0</ele><time>2026-04-10T13:04:38.198Z</time></trkpt><trkpt lat="44.6362017" lon="7.9536797"><ele>279.0</ele><time>2026-04-10T13:04:40.198Z</time></trkpt><trkpt lat="44.6362946" lon="7.9537548"><ele>278.0</ele><time>2026-04-10T13:04:42.198Z</time></trkpt><trkpt lat="44.6363763" lon="7.9538308"><ele>277.0</ele><time>2026-04-10T13:04:44.198Z</time></trkpt><trkpt lat="44.6364276" lon="7.9538943"><ele>276.0</ele><time>2026-04-10T13:04:46.198Z</time></trkpt><trkpt lat="44.6364868" lon="7.9539639"><ele>276.0</ele><time>2026-04-10T13:04:50.198Z</time></trkpt><trkpt lat="44.6365422" lon="7.9540157"><ele>276.0</ele><time>2026-04-10T13:04:53.198Z</time></trkpt><trkpt lat="44.6366019" lon="7.9540784"><ele>276.0</ele><time>2026-04-10T13:04:56.198Z</time></trkpt><trkpt lat="44.6366772" lon="7.9541172"><ele>276.0</ele><time>2026-04-10T13:04:59.198Z</time></trkpt><trkpt lat="44.6366891" lon="7.9542131"><ele>276.0</ele><time>2026-04-10T13:06:10.199Z</time></trkpt><trkpt lat="44.6367393" lon="7.9543136"><ele>276.0</ele><time>2026-04-10T13:06:14.199Z</time></trkpt><trkpt lat="44.636771" lon="7.9543944"><ele>276.0</ele><time>2026-04-10T13:06:16.199Z</time></trkpt><trkpt lat="44.6367978" lon="7.954478"><ele>274.8333333333333</ele><time>2026-04-10T13:06:18.199Z</time></trkpt><trkpt lat="44.6368305" lon="7.9545684"><ele>273.6666666666667</ele><time>2026-04-10T13:06:20.199Z</time></trkpt><trkpt lat="44.6368636" lon="7.9546555"><ele>272.5</ele><time>2026-04-10T13:06:22.199Z</time></trkpt><trkpt lat="44.6369296" lon="7.9547533"><ele>271.33333333333337</ele><time>2026-04-10T13:06:24.199Z</time></trkpt><trkpt lat="44.636972" lon="7.9548497"><ele>270.1666666666667</ele><time>2026-04-10T13:06:26.199Z</time></trkpt><trkpt lat="44.6370079" lon="7.9549227"><ele>269.0</ele><time>2026-04-10T13:06:28.199Z</time></trkpt><trkpt lat="44.6370593" lon="7.9549862"><ele>269.0</ele><time>2026-04-10T13:06:30.2Z</time></trkpt><trkpt lat="44.6371059" lon="7.9550482"><ele>269.0</ele><time>2026-04-10T13:06:33.199Z</time></trkpt><trkpt lat="44.6371459" lon="7.9551328"><ele>269.0</ele><time>2026-04-10T13:06:37.199Z</time></trkpt><trkpt lat="44.6371959" lon="7.9551999"><ele>269.0</ele><time>2026-04-10T13:06:40.2Z</time></trkpt><trkpt lat="44.6372606" lon="7.9552109"><ele>269.0</ele><time>2026-04-10T13:07:25.254Z</time></trkpt><trkpt lat="44.6372858" lon="7.9551159"><ele>269.0</ele><time>2026-04-10T13:09:12.309Z</time></trkpt><trkpt lat="44.6373682" lon="7.9550261"><ele>269.0</ele><time>2026-04-10T13:09:15.243Z</time></trkpt><trkpt lat="44.6374386" lon="7.9549664"><ele>269.0</ele><time>2026-04-10T13:09:17.204Z</time></trkpt><trkpt lat="44.6374894" lon="7.9548789"><ele>269.0</ele><time>2026-04-10T13:09:19.294Z</time></trkpt><trkpt lat="44.6375365" lon="7.9547698"><ele>269.0</ele><time>2026-04-10T13:09:21.311Z</time></trkpt><trkpt lat="44.6374654" lon="7.9546042"><ele>269.0</ele><time>2026-04-10T13:09:22.323Z</time></trkpt><trkpt lat="44.6373783" lon="7.9542824"><ele>268.33333333333337</ele><time>2026-04-10T13:09:24.202Z</time></trkpt><trkpt lat="44.6373788" lon="7.9541296"><ele>267.6666666666667</ele><time>2026-04-10T13:09:26.202Z</time></trkpt><trkpt lat="44.6373859" lon="7.9539922"><ele>267.0</ele><time>2026-04-10T13:09:28.202Z</time></trkpt><trkpt lat="44.6374313" lon="7.9538901"><ele>266.3333333333333</ele><time>2026-04-10T13:09:31.202Z</time></trkpt><trkpt lat="44.6375074" lon="7.9538551"><ele>265.66666666666663</ele><time>2026-04-10T13:09:34.202Z</time></trkpt><trkpt lat="44.6375683" lon="7.9538229"><ele>265.0</ele><time>2026-04-10T13:09:37.202Z</time></trkpt><trkpt lat="44.6376577" lon="7.9538176"><ele>265.0</ele><time>2026-04-10T13:09:59.202Z</time></trkpt><trkpt lat="44.6377326" lon="7.9537826"><ele>265.0</ele><time>2026-04-10T13:10:01.202Z</time></trkpt><trkpt lat="44.6378306" lon="7.9537405"><ele>265.0</ele><time>2026-04-10T13:10:03.202Z</time></trkpt><trkpt lat="44.6379527" lon="7.9536891"><ele>265.0</ele><time>2026-04-10T13:10:05.202Z</time></trkpt><trkpt lat="44.6380299" lon="7.9536591"><ele>265.0</ele><time>2026-04-10T13:10:06.203Z</time></trkpt><trkpt lat="44.6381124" lon="7.9536282"><ele>263.3333333333333</ele><time>2026-04-10T13:10:07.202Z</time></trkpt><trkpt lat="44.6381956" lon="7.9535976"><ele>261.66666666666663</ele><time>2026-04-10T13:10:08.202Z</time></trkpt><trkpt lat="44.6382724" lon="7.9535636"><ele>260.0</ele><time>2026-04-10T13:10:09.202Z</time></trkpt><trkpt lat="44.6383492" lon="7.9535205"><ele>258.3333333333333</ele><time>2026-04-10T13:10:10.202Z</time></trkpt><trkpt lat="44.6384309" lon="7.9534745"><ele>256.6666666666667</ele><time>2026-04-10T13:10:11.202Z</time></trkpt><trkpt lat="44.6385148" lon="7.9534322"><ele>255.0</ele><time>2026-04-10T13:10:12.202Z</time></trkpt><trkpt lat="44.638603" lon="7.9533857"><ele>253.66666666666666</ele><time>2026-04-10T13:10:13.202Z</time></trkpt><trkpt lat="44.6386913" lon="7.9533484"><ele>252.33333333333331</ele><time>2026-04-10T13:10:14.202Z</time></trkpt><trkpt lat="44.638781" lon="7.9533147"><ele>251.0</ele><time>2026-04-10T13:10:15.202Z</time></trkpt><trkpt lat="44.6388567" lon="7.9532941"><ele>249.66666666666666</ele><time>2026-04-10T13:10:16.204Z</time></trkpt><trkpt lat="44.6389264" lon="7.9532807"><ele>248.33333333333331</ele><time>2026-04-10T13:10:17.202Z</time></trkpt><trkpt lat="44.6389944" lon="7.9532788"><ele>247.0</ele><time>2026-04-10T13:10:18.202Z</time></trkpt><trkpt lat="44.6390584" lon="7.9532836"><ele>247.0</ele><time>2026-04-10T13:10:19.202Z</time></trkpt><trkpt lat="44.6391254" lon="7.9533007"><ele>247.0</ele><time>2026-04-10T13:10:20.202Z</time></trkpt><trkpt lat="44.639195" lon="7.9533358"><ele>247.0</ele><time>2026-04-10T13:10:21.203Z</time></trkpt><trkpt lat="44.6392609" lon="7.9533702"><ele>247.0</ele><time>2026-04-10T13:10:22.202Z</time></trkpt><trkpt lat="44.6393245" lon="7.9533952"><ele>247.0</ele><time>2026-04-10T13:10:23.202Z</time></trkpt><trkpt lat="44.6393911" lon="7.9534188"><ele>247.0</ele><time>2026-04-10T13:10:24.203Z</time></trkpt><trkpt lat="44.6394604" lon="7.9534361"><ele>247.0</ele><time>2026-04-10T13:10:25.202Z</time></trkpt><trkpt lat="44.6395334" lon="7.9534388"><ele>246.33333333333331</ele><time>2026-04-10T13:10:26.202Z</time></trkpt><trkpt lat="44.6396132" lon="7.9534364"><ele>245.66666666666666</ele><time>2026-04-10T13:10:27.202Z</time></trkpt><trkpt lat="44.6396966" lon="7.9534316"><ele>245.0</ele><time>2026-04-10T13:10:28.202Z</time></trkpt><trkpt lat="44.6397814" lon="7.9534263"><ele>244.33333333333331</ele><time>2026-04-10T13:10:29.203Z</time></trkpt><trkpt lat="44.639866" lon="7.9534228"><ele>243.66666666666666</ele><time>2026-04-10T13:10:30.203Z</time></trkpt><trkpt lat="44.6399338" lon="7.9534219"><ele>243.0</ele><time>2026-04-10T13:10:31.203Z</time></trkpt><trkpt lat="44.6400326" lon="7.9534377"><ele>243.0</ele><time>2026-04-10T13:10:33.202Z</time></trkpt><trkpt lat="44.6401228" lon="7.9534742"><ele>243.0</ele><time>2026-04-10T13:10:35.203Z</time></trkpt><trkpt lat="44.6401997" lon="7.9534422"><ele>243.0</ele><time>2026-04-10T13:10:37.203Z</time></trkpt><trkpt lat="44.6402891" lon="7.9533978"><ele>243.0</ele><time>2026-04-10T13:10:39.203Z</time></trkpt><trkpt lat="44.640379" lon="7.9533991"><ele>243.0</ele><time>2026-04-10T13:10:41.203Z</time></trkpt><trkpt lat="44.6404821" lon="7.9534247"><ele>242.0</ele><time>2026-04-10T13:10:43.202Z</time></trkpt><trkpt lat="44.6405758" lon="7.9534688"><ele>241.0</ele><time>2026-04-10T13:10:45.203Z</time></trkpt><trkpt lat="44.6406716" lon="7.953494"><ele>240.0</ele><time>2026-04-10T13:10:47.203Z</time></trkpt><trkpt lat="44.6407637" lon="7.953528"><ele>239.0</ele><time>2026-04-10T13:10:49.204Z</time></trkpt><trkpt lat="44.6408534" lon="7.9535517"><ele>238.0</ele><time>2026-04-10T13:10:51.203Z</time></trkpt><trkpt lat="44.6409464" lon="7.9535532"><ele>238.0</ele><time>2026-04-10T13:10:53.203Z</time></trkpt><trkpt lat="44.6410386" lon="7.9535601"><ele>238.0</ele><time>2026-04-10T13:10:55.203Z</time></trkpt><trkpt lat="44.6411358" lon="7.9535572"><ele>238.0</ele><time>2026-04-10T13:10:57.203Z</time></trkpt><trkpt lat="44.6412516" lon="7.9535574"><ele>238.0</ele><time>2026-04-10T13:10:59.203Z</time></trkpt><trkpt lat="44.6413494" lon="7.9535743"><ele>238.0</ele><time>2026-04-10T13:11:01.203Z</time></trkpt><trkpt lat="44.6414529" lon="7.953585"><ele>237.60000000000002</ele><time>2026-04-10T13:11:03.203Z</time></trkpt><trkpt lat="44.6415504" lon="7.9535649"><ele>237.20000000000002</ele><time>2026-04-10T13:11:05.203Z</time></trkpt><trkpt lat="44.6416608" lon="7.9535412"><ele>236.8</ele><time>2026-04-10T13:11:07.203Z</time></trkpt><trkpt lat="44.6417726" lon="7.9535136"><ele>236.4</ele><time>2026-04-10T13:11:09.203Z</time></trkpt><trkpt lat="44.6418429" lon="7.9534972"><ele>236.0</ele><time>2026-04-10T13:11:10.203Z</time></trkpt><trkpt lat="44.6419226" lon="7.9534727"><ele>235.33333333333334</ele><time>2026-04-10T13:11:11.203Z</time></trkpt><trkpt lat="44.6420052" lon="7.953446"><ele>234.66666666666669</ele><time>2026-04-10T13:11:12.203Z</time></trkpt><trkpt lat="44.6420877" lon="7.9534258"><ele>234.0</ele><time>2026-04-10T13:11:13.203Z</time></trkpt><trkpt lat="44.6421655" lon="7.9534183"><ele>233.33333333333331</ele><time>2026-04-10T13:11:14.203Z</time></trkpt><trkpt lat="44.6422478" lon="7.9534048"><ele>232.66666666666666</ele><time>2026-04-10T13:11:15.203Z</time></trkpt><trkpt lat="44.6423207" lon="7.9533906"><ele>232.0</ele><time>2026-04-10T13:11:16.203Z</time></trkpt><trkpt lat="44.6423907" lon="7.9533662"><ele>231.99999999999997</ele><time>2026-04-10T13:11:17.203Z</time></trkpt><trkpt lat="44.642458" lon="7.9533369"><ele>232.0</ele><time>2026-04-10T13:11:18.203Z</time></trkpt><trkpt lat="44.6425271" lon="7.953302"><ele>232.0</ele><time>2026-04-10T13:11:19.203Z</time></trkpt><trkpt lat="44.6425926" lon="7.9532604"><ele>232.0</ele><time>2026-04-10T13:11:20.203Z</time></trkpt><trkpt lat="44.6426507" lon="7.9532258"><ele>231.99999999999997</ele><time>2026-04-10T13:11:21.203Z</time></trkpt><trkpt lat="44.6427714" lon="7.9531791"><ele>232.0</ele><time>2026-04-10T13:11:23.203Z</time></trkpt><trkpt lat="44.6428761" lon="7.9531453"><ele>230.8</ele><time>2026-04-10T13:11:25.204Z</time></trkpt><trkpt lat="44.6429747" lon="7.9530956"><ele>229.6</ele><time>2026-04-10T13:11:27.203Z</time></trkpt><trkpt lat="44.6430575" lon="7.9530295"><ele>228.40000000000003</ele><time>2026-04-10T13:11:29.203Z</time></trkpt><trkpt lat="44.6431344" lon="7.9529491"><ele>227.20000000000002</ele><time>2026-04-10T13:11:31.203Z</time></trkpt><trkpt lat="44.6432286" lon="7.9528444"><ele>226.0</ele><time>2026-04-10T13:11:33.203Z</time></trkpt><trkpt lat="44.643287" lon="7.9527772"><ele>225.99999999999997</ele><time>2026-04-10T13:11:34.204Z</time></trkpt><trkpt lat="44.6433456" lon="7.9527105"><ele>226.0</ele><time>2026-04-10T13:11:35.203Z</time></trkpt><trkpt lat="44.6434186" lon="7.9526424"><ele>226.0</ele><time>2026-04-10T13:11:36.203Z</time></trkpt><trkpt lat="44.6434994" lon="7.9525833"><ele>226.0</ele><time>2026-04-10T13:11:37.203Z</time></trkpt><trkpt lat="44.6435739" lon="7.9525387"><ele>225.99999999999997</ele><time>2026-04-10T13:11:38.204Z</time></trkpt><trkpt lat="44.6436573" lon="7.9524829"><ele>226.0</ele><time>2026-04-10T13:11:39.203Z</time></trkpt><trkpt lat="44.643735" lon="7.9524279"><ele>225.33333333333331</ele><time>2026-04-10T13:11:40.205Z</time></trkpt><trkpt lat="44.6438006" lon="7.9523579"><ele>224.66666666666666</ele><time>2026-04-10T13:11:41.204Z</time></trkpt><trkpt lat="44.6438586" lon="7.9522713"><ele>224.0</ele><time>2026-04-10T13:11:42.204Z</time></trkpt><trkpt lat="44.643895" lon="7.9521746"><ele>223.33333333333331</ele><time>2026-04-10T13:11:43.203Z</time></trkpt><trkpt lat="44.6439278" lon="7.9520783"><ele>222.66666666666666</ele><time>2026-04-10T13:11:44.204Z</time></trkpt><trkpt lat="44.6439572" lon="7.9519888"><ele>222.0</ele><time>2026-04-10T13:11:45.204Z</time></trkpt><trkpt lat="44.6439924" lon="7.9519036"><ele>222.0</ele><time>2026-04-10T13:11:46.204Z</time></trkpt><trkpt lat="44.6440304" lon="7.9518158"><ele>222.0</ele><time>2026-04-10T13:11:47.203Z</time></trkpt><trkpt lat="44.644116" lon="7.9517119"><ele>222.0</ele><time>2026-04-10T13:11:49.204Z</time></trkpt><trkpt lat="44.6441795" lon="7.951702"><ele>222.0</ele><time>2026-04-10T13:11:51.204Z</time></trkpt><trkpt lat="44.6442257" lon="7.9518022"><ele>222.0</ele><time>2026-04-10T13:12:21.204Z</time></trkpt><trkpt lat="44.6442734" lon="7.9518873"><ele>222.0</ele><time>2026-04-10T13:12:23.204Z</time></trkpt><trkpt lat="44.6443165" lon="7.9519533"><ele>222.0</ele><time>2026-04-10T13:12:25.204Z</time></trkpt><trkpt lat="44.6443468" lon="7.9520393"><ele>222.0</ele><time>2026-04-10T13:12:27.205Z</time></trkpt><trkpt lat="44.6443796" lon="7.9521204"><ele>222.0</ele><time>2026-04-10T13:12:29.204Z</time></trkpt><trkpt lat="44.6444335" lon="7.9522997"><ele>222.0</ele><time>2026-04-10T13:12:33.204Z</time></trkpt><trkpt lat="44.644445" lon="7.9524183"><ele>222.0</ele><time>2026-04-10T13:12:36.204Z</time></trkpt><trkpt lat="44.6444614" lon="7.9525444"><ele>222.0</ele><time>2026-04-10T13:12:39.204Z</time></trkpt><trkpt lat="44.6444722" lon="7.9526712"><ele>223.16666666666666</ele><time>2026-04-10T13:12:42.204Z</time></trkpt><trkpt lat="44.6444943" lon="7.9527754"><ele>224.33333333333331</ele><time>2026-04-10T13:12:44.204Z</time></trkpt><trkpt lat="44.6445174" lon="7.9528846"><ele>225.5</ele><time>2026-04-10T13:12:46.204Z</time></trkpt><trkpt lat="44.6445283" lon="7.9529802"><ele>226.66666666666666</ele><time>2026-04-10T13:12:48.205Z</time></trkpt><trkpt lat="44.6445439" lon="7.9530689"><ele>227.83333333333331</ele><time>2026-04-10T13:12:50.205Z</time></trkpt><trkpt lat="44.6445779" lon="7.9531622"><ele>229.0</ele><time>2026-04-10T13:12:52.204Z</time></trkpt><trkpt lat="44.6446025" lon="7.9532775"><ele>229.0</ele><time>2026-04-10T13:12:54.204Z</time></trkpt><trkpt lat="44.6446312" lon="7.9533626"><ele>229.0</ele><time>2026-04-10T13:12:56.205Z</time></trkpt><trkpt lat="44.6446676" lon="7.9534557"><ele>229.0</ele><time>2026-04-10T13:12:58.204Z</time></trkpt><trkpt lat="44.6447082" lon="7.9535455"><ele>229.0</ele><time>2026-04-10T13:13:00.204Z</time></trkpt><trkpt lat="44.6447513" lon="7.9536368"><ele>229.0</ele><time>2026-04-10T13:13:02.205Z</time></trkpt><trkpt lat="44.6447988" lon="7.9537173"><ele>229.0</ele><time>2026-04-10T13:13:04.205Z</time></trkpt><trkpt lat="44.6448434" lon="7.9538024"><ele>229.0</ele><time>2026-04-10T13:13:06.205Z</time></trkpt><trkpt lat="44.6448947" lon="7.9538851"><ele>227.66666666666666</ele><time>2026-04-10T13:13:08.204Z</time></trkpt><trkpt lat="44.6449348" lon="7.9539684"><ele>226.33333333333331</ele><time>2026-04-10T13:13:10.205Z</time></trkpt><trkpt lat="44.6449782" lon="7.9540532"><ele>225.0</ele><time>2026-04-10T13:13:12.205Z</time></trkpt><trkpt lat="44.6450449" lon="7.9541406"><ele>223.66666666666669</ele><time>2026-04-10T13:13:14.205Z</time></trkpt><trkpt lat="44.6451174" lon="7.954243"><ele>222.33333333333334</ele><time>2026-04-10T13:13:16.205Z</time></trkpt><trkpt lat="44.6451822" lon="7.9543629"><ele>221.0</ele><time>2026-04-10T13:13:18.205Z</time></trkpt><trkpt lat="44.6452539" lon="7.9544603"><ele>220.4</ele><time>2026-04-10T13:13:20.205Z</time></trkpt><trkpt lat="44.6453333" lon="7.9545452"><ele>219.8</ele><time>2026-04-10T13:13:22.206Z</time></trkpt><trkpt lat="44.6454252" lon="7.9546173"><ele>219.20000000000002</ele><time>2026-04-10T13:13:24.205Z</time></trkpt><trkpt lat="44.6455128" lon="7.9546899"><ele>218.60000000000002</ele><time>2026-04-10T13:13:26.205Z</time></trkpt><trkpt lat="44.6456073" lon="7.9547486"><ele>218.0</ele><time>2026-04-10T13:13:28.205Z</time></trkpt><trkpt lat="44.6457125" lon="7.9548118"><ele>218.0</ele><time>2026-04-10T13:13:30.205Z</time></trkpt><trkpt lat="44.6458052" lon="7.9548634"><ele>218.0</ele><time>2026-04-10T13:13:32.205Z</time></trkpt><trkpt lat="44.6458863" lon="7.9549185"><ele>218.0</ele><time>2026-04-10T13:13:34.205Z</time></trkpt><trkpt lat="44.6459734" lon="7.95499"><ele>218.0</ele><time>2026-04-10T13:13:36.205Z</time></trkpt><trkpt lat="44.646059" lon="7.9550599"><ele>218.0</ele><time>2026-04-10T13:13:38.205Z</time></trkpt><trkpt lat="44.6461473" lon="7.9551401"><ele>217.0</ele><time>2026-04-10T13:13:40.205Z</time></trkpt><trkpt lat="44.6462448" lon="7.9552111"><ele>216.0</ele><time>2026-04-10T13:13:42.205Z</time></trkpt><trkpt lat="44.6463457" lon="7.9552897"><ele>215.0</ele><time>2026-04-10T13:13:44.205Z</time></trkpt><trkpt lat="44.6464406" lon="7.9553766"><ele>214.0</ele><time>2026-04-10T13:13:46.205Z</time></trkpt><trkpt lat="44.6465304" lon="7.9554579"><ele>213.0</ele><time>2026-04-10T13:13:48.205Z</time></trkpt><trkpt lat="44.6466201" lon="7.9555283"><ele>213.0</ele><time>2026-04-10T13:13:50.205Z</time></trkpt><trkpt lat="44.6467008" lon="7.9556006"><ele>213.0</ele><time>2026-04-10T13:13:52.205Z</time></trkpt><trkpt lat="44.6467991" lon="7.955672"><ele>213.0</ele><time>2026-04-10T13:13:54.205Z</time></trkpt><trkpt lat="44.6468524" lon="7.9557207"><ele>213.0</ele><time>2026-04-10T13:13:55.206Z</time></trkpt><trkpt lat="44.6469583" lon="7.9557885"><ele>213.0</ele><time>2026-04-10T13:13:57.206Z</time></trkpt><trkpt lat="44.647061" lon="7.9558488"><ele>213.0</ele><time>2026-04-10T13:13:59.205Z</time></trkpt><trkpt lat="44.6471459" lon="7.9559096"><ele>213.0</ele><time>2026-04-10T13:14:01.205Z</time></trkpt><trkpt lat="44.6472126" lon="7.9560036"><ele>213.0</ele><time>2026-04-10T13:14:03.205Z</time></trkpt><trkpt lat="44.6472818" lon="7.9561115"><ele>213.0</ele><time>2026-04-10T13:14:05.206Z</time></trkpt><trkpt lat="44.6473286" lon="7.9561723"><ele>213.0</ele><time>2026-04-10T13:14:06.206Z</time></trkpt><trkpt lat="44.6474204" lon="7.9562803"><ele>213.0</ele><time>2026-04-10T13:14:08.206Z</time></trkpt><trkpt lat="44.6475028" lon="7.956365"><ele>213.0</ele><time>2026-04-10T13:14:10.206Z</time></trkpt><trkpt lat="44.6475862" lon="7.9564226"><ele>213.0</ele><time>2026-04-10T13:14:12.205Z</time></trkpt><trkpt lat="44.6476534" lon="7.9564704"><ele>213.0</ele><time>2026-04-10T13:14:14.207Z</time></trkpt><trkpt lat="44.647722" lon="7.9565258"><ele>213.0</ele><time>2026-04-10T13:14:16.206Z</time></trkpt><trkpt lat="44.6477838" lon="7.9565875"><ele>213.0</ele><time>2026-04-10T13:14:18.205Z</time></trkpt><trkpt lat="44.6478427" lon="7.9566522"><ele>212.16666666666666</ele><time>2026-04-10T13:14:20.205Z</time></trkpt><trkpt lat="44.6478951" lon="7.956734"><ele>211.33333333333331</ele><time>2026-04-10T13:14:22.206Z</time></trkpt><trkpt lat="44.6479378" lon="7.9568369"><ele>210.5</ele><time>2026-04-10T13:14:24.206Z</time></trkpt><trkpt lat="44.6479751" lon="7.9569699"><ele>209.66666666666666</ele><time>2026-04-10T13:14:26.206Z</time></trkpt><trkpt lat="44.6479966" lon="7.9571042"><ele>208.83333333333331</ele><time>2026-04-10T13:14:28.206Z</time></trkpt><trkpt lat="44.6480136" lon="7.9572067"><ele>208.0</ele><time>2026-04-10T13:14:30.206Z</time></trkpt><trkpt lat="44.6480339" lon="7.9573181"><ele>208.0</ele><time>2026-04-10T13:14:32.206Z</time></trkpt><trkpt lat="44.6480509" lon="7.9574478"><ele>208.0</ele><time>2026-04-10T13:14:34.206Z</time></trkpt><trkpt lat="44.6480728" lon="7.9575678"><ele>208.0</ele><time>2026-04-10T13:14:36.206Z</time></trkpt><trkpt lat="44.6481087" lon="7.9576999"><ele>208.0</ele><time>2026-04-10T13:14:38.206Z</time></trkpt><trkpt lat="44.6481449" lon="7.9578151"><ele>208.0</ele><time>2026-04-10T13:14:40.206Z</time></trkpt><trkpt lat="44.648182" lon="7.9579372"><ele>207.8</ele><time>2026-04-10T13:14:42.207Z</time></trkpt><trkpt lat="44.6482159" lon="7.9580579"><ele>207.60000000000002</ele><time>2026-04-10T13:14:44.207Z</time></trkpt><trkpt lat="44.6482615" lon="7.9581686"><ele>207.39999999999998</ele><time>2026-04-10T13:14:46.207Z</time></trkpt><trkpt lat="44.648293" lon="7.9582791"><ele>207.2</ele><time>2026-04-10T13:14:48.206Z</time></trkpt><trkpt lat="44.6483316" lon="7.9583878"><ele>207.0</ele><time>2026-04-10T13:14:50.206Z</time></trkpt><trkpt lat="44.6483767" lon="7.9585141"><ele>206.8</ele><time>2026-04-10T13:14:52.206Z</time></trkpt><trkpt lat="44.6484334" lon="7.9586439"><ele>206.6</ele><time>2026-04-10T13:14:54.206Z</time></trkpt><trkpt lat="44.6484699" lon="7.9587655"><ele>206.4</ele><time>2026-04-10T13:14:56.206Z</time></trkpt><trkpt lat="44.6485109" lon="7.9588849"><ele>206.20000000000002</ele><time>2026-04-10T13:14:58.206Z</time></trkpt><trkpt lat="44.648547" lon="7.9589963"><ele>206.0</ele><time>2026-04-10T13:15:00.206Z</time></trkpt><trkpt lat="44.6485817" lon="7.9590758"><ele>206.00000000000003</ele><time>2026-04-10T13:15:55.23Z</time></trkpt><trkpt lat="44.6486102" lon="7.9591916"><ele>206.0</ele><time>2026-04-10T13:15:58.312Z</time></trkpt><trkpt lat="44.6486386" lon="7.9592791"><ele>206.0</ele><time>2026-04-10T13:16:00.246Z</time></trkpt><trkpt lat="44.6486749" lon="7.959383"><ele>206.0</ele><time>2026-04-10T13:16:02.273Z</time></trkpt><trkpt lat="44.6487121" lon="7.9595096"><ele>206.00000000000003</ele><time>2026-04-10T13:16:04.264Z</time></trkpt><trkpt lat="44.6487556" lon="7.959629"><ele>206.0</ele><time>2026-04-10T13:16:06.273Z</time></trkpt><trkpt lat="44.648802" lon="7.9597293"><ele>205.83333333333334</ele><time>2026-04-10T13:16:08.24Z</time></trkpt><trkpt lat="44.6488656" lon="7.9597937"><ele>205.66666666666669</ele><time>2026-04-10T13:16:10.29Z</time></trkpt><trkpt lat="44.6489434" lon="7.9597906"><ele>205.5</ele><time>2026-04-10T13:16:12.257Z</time></trkpt><trkpt lat="44.6490133" lon="7.9597517"><ele>205.33333333333331</ele><time>2026-04-10T13:16:14.258Z</time></trkpt><trkpt lat="44.6490925" lon="7.9597115"><ele>205.16666666666666</ele><time>2026-04-10T13:16:16.195Z</time></trkpt><trkpt lat="44.6491767" lon="7.9596613"><ele>205.0</ele><time>2026-04-10T13:16:18.243Z</time></trkpt><trkpt lat="44.6492501" lon="7.9596168"><ele>204.99999999999997</ele><time>2026-04-10T13:16:20.197Z</time></trkpt><trkpt lat="44.6493229" lon="7.9595777"><ele>205.0</ele><time>2026-04-10T13:16:22.227Z</time></trkpt><trkpt lat="44.6493961" lon="7.9595473"><ele>205.0</ele><time>2026-04-10T13:16:24.227Z</time></trkpt><trkpt lat="44.6494765" lon="7.9595255"><ele>205.0</ele><time>2026-04-10T13:16:26.244Z</time></trkpt><trkpt lat="44.6495568" lon="7.9595342"><ele>204.99999999999997</ele><time>2026-04-10T13:16:28.275Z</time></trkpt><trkpt lat="44.6496136" lon="7.9596021"><ele>205.0</ele><time>2026-04-10T13:16:30.229Z</time></trkpt><trkpt lat="44.6496477" lon="7.9597169"><ele>205.49999999999997</ele><time>2026-04-10T13:16:32.28Z</time></trkpt><trkpt lat="44.6496772" lon="7.9598344"><ele>206.0</ele><time>2026-04-10T13:16:34.258Z</time></trkpt><trkpt lat="44.6497165" lon="7.9599571"><ele>206.5</ele><time>2026-04-10T13:16:36.28Z</time></trkpt><trkpt lat="44.6497581" lon="7.9600856"><ele>207.0</ele><time>2026-04-10T13:16:38.207Z</time></trkpt><trkpt lat="44.6497836" lon="7.9601926"><ele>207.49999999999997</ele><time>2026-04-10T13:16:40.232Z</time></trkpt><trkpt lat="44.6498076" lon="7.9602771"><ele>208.0</ele><time>2026-04-10T13:16:41.208Z</time></trkpt><trkpt lat="44.6498473" lon="7.9603994"><ele>208.0</ele><time>2026-04-10T13:16:43.207Z</time></trkpt><trkpt lat="44.6498833" lon="7.9605112"><ele>208.0</ele><time>2026-04-10T13:16:45.207Z</time></trkpt><trkpt lat="44.6499183" lon="7.9606396"><ele>208.0</ele><time>2026-04-10T13:16:47.208Z</time></trkpt><trkpt lat="44.6499589" lon="7.9607692"><ele>208.0</ele><time>2026-04-10T13:16:49.207Z</time></trkpt><trkpt lat="44.6499981" lon="7.9608823"><ele>208.0</ele><time>2026-04-10T13:16:51.208Z</time></trkpt><trkpt lat="44.6500327" lon="7.9610035"><ele>207.0</ele><time>2026-04-10T13:16:53.208Z</time></trkpt><trkpt lat="44.650072" lon="7.9611316"><ele>206.0</ele><time>2026-04-10T13:16:55.208Z</time></trkpt><trkpt lat="44.6501183" lon="7.9612508"><ele>205.0</ele><time>2026-04-10T13:16:57.208Z</time></trkpt><trkpt lat="44.6501581" lon="7.9613739"><ele>204.0</ele><time>2026-04-10T13:16:59.209Z</time></trkpt><trkpt lat="44.650194" lon="7.9614872"><ele>203.0</ele><time>2026-04-10T13:17:01.209Z</time></trkpt><trkpt lat="44.6502287" lon="7.9615965"><ele>202.83333333333334</ele><time>2026-04-10T13:17:03.208Z</time></trkpt><trkpt lat="44.6502556" lon="7.9617086"><ele>202.66666666666669</ele><time>2026-04-10T13:17:05.208Z</time></trkpt><trkpt lat="44.6502739" lon="7.961807"><ele>202.5</ele><time>2026-04-10T13:17:07.208Z</time></trkpt><trkpt lat="44.6503033" lon="7.9619247"><ele>202.33333333333331</ele><time>2026-04-10T13:17:09.208Z</time></trkpt><trkpt lat="44.6503231" lon="7.9620579"><ele>202.16666666666666</ele><time>2026-04-10T13:17:11.208Z</time></trkpt><trkpt lat="44.6503529" lon="7.9621889"><ele>202.0</ele><time>2026-04-10T13:17:13.208Z</time></trkpt><trkpt lat="44.6503888" lon="7.962315"><ele>204.0</ele><time>2026-04-10T13:17:15.208Z</time></trkpt><trkpt lat="44.650421" lon="7.9624494"><ele>206.0</ele><time>2026-04-10T13:17:17.209Z</time></trkpt><trkpt lat="44.6504538" lon="7.9625681"><ele>208.0</ele><time>2026-04-10T13:17:19.208Z</time></trkpt><trkpt lat="44.6504689" lon="7.962707"><ele>210.0</ele><time>2026-04-10T13:17:21.208Z</time></trkpt><trkpt lat="44.6504827" lon="7.9628292"><ele>212.0</ele><time>2026-04-10T13:17:23.208Z</time></trkpt><trkpt lat="44.650501" lon="7.9629539"><ele>212.0</ele><time>2026-04-10T13:17:25.208Z</time></trkpt><trkpt lat="44.6505196" lon="7.963096"><ele>212.0</ele><time>2026-04-10T13:17:27.208Z</time></trkpt><trkpt lat="44.6505507" lon="7.963233"><ele>212.0</ele><time>2026-04-10T13:17:29.208Z</time></trkpt><trkpt lat="44.650569" lon="7.96335"><ele>212.0</ele><time>2026-04-10T13:17:31.209Z</time></trkpt><trkpt lat="44.6505885" lon="7.9634726"><ele>212.0</ele><time>2026-04-10T13:17:33.208Z</time></trkpt><trkpt lat="44.6506099" lon="7.9636027"><ele>210.39999999999998</ele><time>2026-04-10T13:17:35.208Z</time></trkpt><trkpt lat="44.6506601" lon="7.9637309"><ele>208.79999999999998</ele><time>2026-04-10T13:17:37.208Z</time></trkpt><trkpt lat="44.6507125" lon="7.9638281"><ele>207.2</ele><time>2026-04-10T13:17:39.208Z</time></trkpt><trkpt lat="44.650761" lon="7.9639162"><ele>205.6</ele><time>2026-04-10T13:17:41.209Z</time></trkpt><trkpt lat="44.6508284" lon="7.9640101"><ele>204.0</ele><time>2026-04-10T13:17:43.208Z</time></trkpt><trkpt lat="44.6509017" lon="7.9641088"><ele>203.6</ele><time>2026-04-10T13:17:45.208Z</time></trkpt><trkpt lat="44.6509761" lon="7.9641998"><ele>203.2</ele><time>2026-04-10T13:17:47.208Z</time></trkpt><trkpt lat="44.6510476" lon="7.9642982"><ele>202.79999999999998</ele><time>2026-04-10T13:17:49.208Z</time></trkpt><trkpt lat="44.6511279" lon="7.9643896"><ele>202.39999999999998</ele><time>2026-04-10T13:17:51.208Z</time></trkpt><trkpt lat="44.6511985" lon="7.9644735"><ele>202.0</ele><time>2026-04-10T13:17:53.209Z</time></trkpt><trkpt lat="44.651268" lon="7.9645448"><ele>202.8</ele><time>2026-04-10T13:17:55.209Z</time></trkpt><trkpt lat="44.6513461" lon="7.9646314"><ele>203.6</ele><time>2026-04-10T13:17:57.209Z</time></trkpt><trkpt lat="44.6514127" lon="7.9647064"><ele>204.4</ele><time>2026-04-10T13:17:59.209Z</time></trkpt><trkpt lat="44.6514853" lon="7.9648011"><ele>205.20000000000002</ele><time>2026-04-10T13:18:01.209Z</time></trkpt><trkpt lat="44.6515637" lon="7.9649032"><ele>206.0</ele><time>2026-04-10T13:18:03.209Z</time></trkpt><trkpt lat="44.6516349" lon="7.9649949"><ele>205.0</ele><time>2026-04-10T13:18:05.209Z</time></trkpt><trkpt lat="44.651706" lon="7.9651041"><ele>204.0</ele><time>2026-04-10T13:18:07.209Z</time></trkpt><trkpt lat="44.6517632" lon="7.9652102"><ele>203.0</ele><time>2026-04-10T13:18:09.209Z</time></trkpt><trkpt lat="44.6518211" lon="7.965303"><ele>202.0</ele><time>2026-04-10T13:18:11.209Z</time></trkpt><trkpt lat="44.6518832" lon="7.9654004"><ele>201.0</ele><time>2026-04-10T13:18:13.209Z</time></trkpt><trkpt lat="44.6519476" lon="7.9655055"><ele>200.16666666666666</ele><time>2026-04-10T13:18:15.209Z</time></trkpt><trkpt lat="44.6520026" lon="7.9656001"><ele>199.33333333333331</ele><time>2026-04-10T13:18:17.209Z</time></trkpt><trkpt lat="44.6520561" lon="7.9656927"><ele>198.5</ele><time>2026-04-10T13:18:19.209Z</time></trkpt><trkpt lat="44.6521278" lon="7.9657652"><ele>197.66666666666666</ele><time>2026-04-10T13:18:21.209Z</time></trkpt><trkpt lat="44.6522037" lon="7.9658462"><ele>196.83333333333331</ele><time>2026-04-10T13:18:23.209Z</time></trkpt><trkpt lat="44.6522638" lon="7.965927"><ele>196.0</ele><time>2026-04-10T13:18:25.209Z</time></trkpt><trkpt lat="44.6523394" lon="7.9660173"><ele>195.99999999999997</ele><time>2026-04-10T13:18:27.209Z</time></trkpt><trkpt lat="44.6524281" lon="7.9661206"><ele>196.0</ele><time>2026-04-10T13:18:29.209Z</time></trkpt><trkpt lat="44.652493" lon="7.9662514"><ele>196.0</ele><time>2026-04-10T13:18:31.209Z</time></trkpt><trkpt lat="44.6525123" lon="7.9663387"><ele>196.0</ele><time>2026-04-10T13:18:32.209Z</time></trkpt><trkpt lat="44.6525276" lon="7.9664284"><ele>195.99999999999997</ele><time>2026-04-10T13:18:33.209Z</time></trkpt><trkpt lat="44.6525456" lon="7.9665137"><ele>196.0</ele><time>2026-04-10T13:18:34.209Z</time></trkpt><trkpt lat="44.652563" lon="7.9666102"><ele>195.49999999999997</ele><time>2026-04-10T13:18:35.209Z</time></trkpt><trkpt lat="44.65258" lon="7.9667111"><ele>195.0</ele><time>2026-04-10T13:18:36.209Z</time></trkpt><trkpt lat="44.6525998" lon="7.9668152"><ele>194.5</ele><time>2026-04-10T13:18:37.209Z</time></trkpt><trkpt lat="44.6526223" lon="7.966923"><ele>194.0</ele><time>2026-04-10T13:18:38.209Z</time></trkpt><trkpt lat="44.6526566" lon="7.9670272"><ele>193.49999999999997</ele><time>2026-04-10T13:18:39.209Z</time></trkpt><trkpt lat="44.6526962" lon="7.9671173"><ele>193.0</ele><time>2026-04-10T13:18:40.209Z</time></trkpt><trkpt lat="44.6527362" lon="7.9672048"><ele>193.0</ele><time>2026-04-10T13:18:41.209Z</time></trkpt><trkpt lat="44.6527691" lon="7.9672886"><ele>193.0</ele><time>2026-04-10T13:18:42.209Z</time></trkpt><trkpt lat="44.6527946" lon="7.9673719"><ele>193.0</ele><time>2026-04-10T13:18:43.209Z</time></trkpt><trkpt lat="44.6528369" lon="7.9675242"><ele>193.0</ele><time>2026-04-10T13:18:45.209Z</time></trkpt><trkpt lat="44.6528943" lon="7.9676569"><ele>193.0</ele><time>2026-04-10T13:18:47.209Z</time></trkpt><trkpt lat="44.6529512" lon="7.9677901"><ele>193.0</ele><time>2026-04-10T13:18:49.209Z</time></trkpt><trkpt lat="44.6530092" lon="7.9679126"><ele>193.0</ele><time>2026-04-10T13:18:51.209Z</time></trkpt><trkpt lat="44.6530862" lon="7.9680139"><ele>193.0</ele><time>2026-04-10T13:18:53.209Z</time></trkpt><trkpt lat="44.6531819" lon="7.9680706"><ele>193.0</ele><time>2026-04-10T13:18:55.209Z</time></trkpt><trkpt lat="44.653261" lon="7.9680921"><ele>193.0</ele><time>2026-04-10T13:18:57.209Z</time></trkpt><trkpt lat="44.65333" lon="7.9680834"><ele>193.0</ele><time>2026-04-10T13:18:59.209Z</time></trkpt><trkpt lat="44.6534085" lon="7.9680908"><ele>193.0</ele><time>2026-04-10T13:19:01.21Z</time></trkpt><trkpt lat="44.6534835" lon="7.9681048"><ele>193.0</ele><time>2026-04-10T13:19:03.21Z</time></trkpt><trkpt lat="44.6535818" lon="7.9681155"><ele>193.0</ele><time>2026-04-10T13:19:05.21Z</time></trkpt><trkpt lat="44.6536856" lon="7.9681362"><ele>193.0</ele><time>2026-04-10T13:19:07.209Z</time></trkpt><trkpt lat="44.6537923" lon="7.9681817"><ele>192.8</ele><time>2026-04-10T13:19:09.21Z</time></trkpt><trkpt lat="44.6538818" lon="7.9682379"><ele>192.60000000000002</ele><time>2026-04-10T13:19:11.21Z</time></trkpt><trkpt lat="44.6539584" lon="7.96827"><ele>192.39999999999998</ele><time>2026-04-10T13:19:13.21Z</time></trkpt><trkpt lat="44.6540385" lon="7.9682728"><ele>192.2</ele><time>2026-04-10T13:19:15.21Z</time></trkpt><trkpt lat="44.654123" lon="7.9682218"><ele>192.0</ele><time>2026-04-10T13:19:17.21Z</time></trkpt><trkpt lat="44.6542151" lon="7.9681301"><ele>192.0</ele><time>2026-04-10T13:19:19.21Z</time></trkpt><trkpt lat="44.6542829" lon="7.9680449"><ele>192.0</ele><time>2026-04-10T13:19:21.21Z</time></trkpt><trkpt lat="44.6543507" lon="7.9679349"><ele>192.0</ele><time>2026-04-10T13:19:23.21Z</time></trkpt><trkpt lat="44.6544247" lon="7.967849"><ele>192.0</ele><time>2026-04-10T13:19:25.21Z</time></trkpt><trkpt lat="44.6545357" lon="7.9678751"><ele>192.0</ele><time>2026-04-10T13:19:27.21Z</time></trkpt><trkpt lat="44.6545829" lon="7.9679942"><ele>192.16666666666666</ele><time>2026-04-10T13:19:29.21Z</time></trkpt><trkpt lat="44.6545748" lon="7.9680936"><ele>192.33333333333331</ele><time>2026-04-10T13:19:32.21Z</time></trkpt><trkpt lat="44.6545307" lon="7.968176"><ele>192.5</ele><time>2026-04-10T13:19:34.21Z</time></trkpt><trkpt lat="44.6544677" lon="7.9682594"><ele>192.66666666666666</ele><time>2026-04-10T13:19:36.21Z</time></trkpt><trkpt lat="44.654435" lon="7.9683681"><ele>192.83333333333331</ele><time>2026-04-10T13:19:38.21Z</time></trkpt><trkpt lat="44.6544005" lon="7.9684626"><ele>193.0</ele><time>2026-04-10T13:19:40.21Z</time></trkpt><trkpt lat="44.6543621" lon="7.9685671"><ele>193.0</ele><time>2026-04-10T13:19:42.21Z</time></trkpt><trkpt lat="44.6543302" lon="7.9686837"><ele>193.0</ele><time>2026-04-10T13:19:44.21Z</time></trkpt><trkpt lat="44.6542957" lon="7.9688068"><ele>193.0</ele><time>2026-04-10T13:19:46.21Z</time></trkpt><trkpt lat="44.6542675" lon="7.9689322"><ele>193.0</ele><time>2026-04-10T13:19:48.211Z</time></trkpt><trkpt lat="44.6542413" lon="7.9690612"><ele>193.0</ele><time>2026-04-10T13:19:50.211Z</time></trkpt><trkpt lat="44.6542204" lon="7.9691887"><ele>192.83333333333331</ele><time>2026-04-10T13:19:52.21Z</time></trkpt><trkpt lat="44.6542052" lon="7.9693163"><ele>192.66666666666666</ele><time>2026-04-10T13:19:54.21Z</time></trkpt><trkpt lat="44.6541892" lon="7.9694356"><ele>192.5</ele><time>2026-04-10T13:19:56.211Z</time></trkpt><trkpt lat="44.6541676" lon="7.9695532"><ele>192.33333333333331</ele><time>2026-04-10T13:19:58.211Z</time></trkpt><trkpt lat="44.6541441" lon="7.9696656"><ele>192.16666666666666</ele><time>2026-04-10T13:20:00.21Z</time></trkpt><trkpt lat="44.6541287" lon="7.9697846"><ele>192.0</ele><time>2026-04-10T13:20:02.21Z</time></trkpt><trkpt lat="44.6541052" lon="7.969913"><ele>192.0</ele><time>2026-04-10T13:20:04.21Z</time></trkpt><trkpt lat="44.6540859" lon="7.9700342"><ele>192.0</ele><time>2026-04-10T13:20:06.211Z</time></trkpt><trkpt lat="44.6540723" lon="7.9701619"><ele>192.0</ele><time>2026-04-10T13:20:08.21Z</time></trkpt><trkpt lat="44.6540555" lon="7.970297"><ele>192.0</ele><time>2026-04-10T13:20:10.21Z</time></trkpt><trkpt lat="44.654038" lon="7.9704124"><ele>192.0</ele><time>2026-04-10T13:20:12.21Z</time></trkpt><trkpt lat="44.6540005" lon="7.9705309"><ele>192.0</ele><time>2026-04-10T13:20:14.21Z</time></trkpt><trkpt lat="44.6539717" lon="7.9706551"><ele>192.0</ele><time>2026-04-10T13:20:16.21Z</time></trkpt><trkpt lat="44.6539484" lon="7.9707694"><ele>192.0</ele><time>2026-04-10T13:20:18.211Z</time></trkpt><trkpt lat="44.6539188" lon="7.9708873"><ele>192.0</ele><time>2026-04-10T13:20:20.211Z</time></trkpt><trkpt lat="44.653909" lon="7.9710034"><ele>192.0</ele><time>2026-04-10T13:20:22.211Z</time></trkpt><trkpt lat="44.6538982" lon="7.9711172"><ele>192.0</ele><time>2026-04-10T13:20:24.211Z</time></trkpt><trkpt lat="44.6538762" lon="7.9712457"><ele>191.83333333333334</ele><time>2026-04-10T13:20:26.211Z</time></trkpt><trkpt lat="44.6538567" lon="7.9713617"><ele>191.66666666666666</ele><time>2026-04-10T13:20:28.211Z</time></trkpt><trkpt lat="44.6538439" lon="7.9714787"><ele>191.5</ele><time>2026-04-10T13:20:30.211Z</time></trkpt><trkpt lat="44.653824" lon="7.97159"><ele>191.33333333333331</ele><time>2026-04-10T13:20:32.211Z</time></trkpt><trkpt lat="44.6538238" lon="7.9717131"><ele>191.16666666666666</ele><time>2026-04-10T13:20:34.211Z</time></trkpt><trkpt lat="44.65382" lon="7.9718273"><ele>191.0</ele><time>2026-04-10T13:20:36.211Z</time></trkpt><trkpt lat="44.6538021" lon="7.9719556"><ele>191.0</ele><time>2026-04-10T13:20:38.211Z</time></trkpt><trkpt lat="44.6537967" lon="7.9720865"><ele>191.0</ele><time>2026-04-10T13:20:40.211Z</time></trkpt><trkpt lat="44.653795" lon="7.9722062"><ele>191.0</ele><time>2026-04-10T13:20:42.211Z</time></trkpt><trkpt lat="44.6537967" lon="7.9723419"><ele>191.0</ele><time>2026-04-10T13:20:44.211Z</time></trkpt><trkpt lat="44.653796" lon="7.9724628"><ele>191.0</ele><time>2026-04-10T13:20:46.211Z</time></trkpt><trkpt lat="44.6537995" lon="7.9725851"><ele>191.0</ele><time>2026-04-10T13:20:48.211Z</time></trkpt><trkpt lat="44.6537981" lon="7.9727082"><ele>191.5</ele><time>2026-04-10T13:20:50.211Z</time></trkpt><trkpt lat="44.6538089" lon="7.9728402"><ele>192.0</ele><time>2026-04-10T13:20:52.211Z</time></trkpt><trkpt lat="44.653808" lon="7.9729595"><ele>192.5</ele><time>2026-04-10T13:20:54.211Z</time></trkpt><trkpt lat="44.6538084" lon="7.9730853"><ele>193.0</ele><time>2026-04-10T13:20:56.211Z</time></trkpt><trkpt lat="44.6538332" lon="7.9732048"><ele>193.50000000000003</ele><time>2026-04-10T13:20:58.212Z</time></trkpt><trkpt lat="44.6538487" lon="7.9733208"><ele>194.0</ele><time>2026-04-10T13:21:00.211Z</time></trkpt><trkpt lat="44.6538666" lon="7.97343"><ele>194.16666666666669</ele><time>2026-04-10T13:21:02.211Z</time></trkpt><trkpt lat="44.6538866" lon="7.9735504"><ele>194.33333333333334</ele><time>2026-04-10T13:21:04.211Z</time></trkpt><trkpt lat="44.6539043" lon="7.97365"><ele>194.5</ele><time>2026-04-10T13:21:06.211Z</time></trkpt><trkpt lat="44.6539173" lon="7.9737645"><ele>194.66666666666669</ele><time>2026-04-10T13:21:08.211Z</time></trkpt><trkpt lat="44.6539286" lon="7.9738926"><ele>194.83333333333334</ele><time>2026-04-10T13:21:10.211Z</time></trkpt><trkpt lat="44.6539404" lon="7.9740173"><ele>195.0</ele><time>2026-04-10T13:21:12.212Z</time></trkpt><trkpt lat="44.6539572" lon="7.9741357"><ele>194.66666666666666</ele><time>2026-04-10T13:21:14.211Z</time></trkpt><trkpt lat="44.6539806" lon="7.9742528"><ele>194.33333333333331</ele><time>2026-04-10T13:21:16.211Z</time></trkpt><trkpt lat="44.6540033" lon="7.9743634"><ele>194.0</ele><time>2026-04-10T13:21:18.211Z</time></trkpt><trkpt lat="44.6540072" lon="7.974465"><ele>193.66666666666666</ele><time>2026-04-10T13:21:20.211Z</time></trkpt><trkpt lat="44.6540128" lon="7.9745752"><ele>193.33333333333331</ele><time>2026-04-10T13:21:22.211Z</time></trkpt><trkpt lat="44.654026" lon="7.9746914"><ele>193.0</ele><time>2026-04-10T13:21:24.212Z</time></trkpt><trkpt lat="44.6540365" lon="7.9748133"><ele>192.99999999999997</ele><time>2026-04-10T13:21:26.211Z</time></trkpt><trkpt lat="44.6540447" lon="7.9749374"><ele>193.0</ele><time>2026-04-10T13:21:28.211Z</time></trkpt><trkpt lat="44.6540581" lon="7.9750619"><ele>193.0</ele><time>2026-04-10T13:21:30.211Z</time></trkpt><trkpt lat="44.6540713" lon="7.9751899"><ele>193.0</ele><time>2026-04-10T13:21:32.211Z</time></trkpt><trkpt lat="44.6540836" lon="7.975312"><ele>192.99999999999997</ele><time>2026-04-10T13:21:34.212Z</time></trkpt><trkpt lat="44.6541099" lon="7.9754324"><ele>193.0</ele><time>2026-04-10T13:21:36.212Z</time></trkpt><trkpt lat="44.6541361" lon="7.9755491"><ele>192.83333333333331</ele><time>2026-04-10T13:21:38.212Z</time></trkpt><trkpt lat="44.6541535" lon="7.975671"><ele>192.66666666666666</ele><time>2026-04-10T13:21:40.212Z</time></trkpt><trkpt lat="44.6541729" lon="7.9757928"><ele>192.5</ele><time>2026-04-10T13:21:42.212Z</time></trkpt><trkpt lat="44.6541901" lon="7.9759172"><ele>192.33333333333331</ele><time>2026-04-10T13:21:44.212Z</time></trkpt><trkpt lat="44.654206" lon="7.9760364"><ele>192.16666666666666</ele><time>2026-04-10T13:21:46.212Z</time></trkpt><trkpt lat="44.6542048" lon="7.9761585"><ele>192.0</ele><time>2026-04-10T13:21:48.212Z</time></trkpt><trkpt lat="44.654216" lon="7.9762703"><ele>192.0</ele><time>2026-04-10T13:21:50.212Z</time></trkpt><trkpt lat="44.6542313" lon="7.9763918"><ele>192.0</ele><time>2026-04-10T13:21:52.212Z</time></trkpt><trkpt lat="44.6542466" lon="7.9765137"><ele>192.0</ele><time>2026-04-10T13:21:54.212Z</time></trkpt><trkpt lat="44.6542582" lon="7.9766256"><ele>192.0</ele><time>2026-04-10T13:21:56.212Z</time></trkpt><trkpt lat="44.6542676" lon="7.9767198"><ele>192.0</ele><time>2026-04-10T13:21:58.212Z</time></trkpt><trkpt lat="44.6542807" lon="7.9768238"><ele>192.0</ele><time>2026-04-10T13:22:00.213Z</time></trkpt><trkpt lat="44.6543085" lon="7.9769779"><ele>192.33333333333334</ele><time>2026-04-10T13:22:40.251Z</time></trkpt><trkpt lat="44.6543288" lon="7.9770797"><ele>192.66666666666669</ele><time>2026-04-10T13:22:42.251Z</time></trkpt><trkpt lat="44.6543547" lon="7.977173"><ele>193.0</ele><time>2026-04-10T13:22:44.229Z</time></trkpt><trkpt lat="44.65436" lon="7.9772851"><ele>193.33333333333334</ele><time>2026-04-10T13:22:46.286Z</time></trkpt><trkpt lat="44.6543669" lon="7.9773901"><ele>193.66666666666669</ele><time>2026-04-10T13:22:48.286Z</time></trkpt><trkpt lat="44.6543783" lon="7.9775012"><ele>194.0</ele><time>2026-04-10T13:22:50.286Z</time></trkpt><trkpt lat="44.6543918" lon="7.9776196"><ele>194.16666666666669</ele><time>2026-04-10T13:22:52.287Z</time></trkpt><trkpt lat="44.6544009" lon="7.9777409"><ele>194.33333333333334</ele><time>2026-04-10T13:22:54.308Z</time></trkpt><trkpt lat="44.6544109" lon="7.9778562"><ele>194.5</ele><time>2026-04-10T13:22:56.249Z</time></trkpt><trkpt lat="44.6544292" lon="7.9779747"><ele>194.66666666666669</ele><time>2026-04-10T13:22:58.304Z</time></trkpt><trkpt lat="44.654442" lon="7.9780976"><ele>194.83333333333334</ele><time>2026-04-10T13:23:00.275Z</time></trkpt><trkpt lat="44.6544559" lon="7.9782251"><ele>195.0</ele><time>2026-04-10T13:23:02.213Z</time></trkpt><trkpt lat="44.6544746" lon="7.9783468"><ele>194.33333333333334</ele><time>2026-04-10T13:23:04.213Z</time></trkpt><trkpt lat="44.6544867" lon="7.9784568"><ele>193.66666666666666</ele><time>2026-04-10T13:23:06.213Z</time></trkpt><trkpt lat="44.6545045" lon="7.978573"><ele>193.0</ele><time>2026-04-10T13:23:08.213Z</time></trkpt><trkpt lat="44.654518" lon="7.9786958"><ele>192.33333333333331</ele><time>2026-04-10T13:23:10.213Z</time></trkpt><trkpt lat="44.6545383" lon="7.9788183"><ele>191.66666666666666</ele><time>2026-04-10T13:23:12.213Z</time></trkpt><trkpt lat="44.6545561" lon="7.978939"><ele>191.0</ele><time>2026-04-10T13:23:14.214Z</time></trkpt><trkpt lat="44.6545798" lon="7.9790589"><ele>191.0</ele><time>2026-04-10T13:23:16.213Z</time></trkpt><trkpt lat="44.6545874" lon="7.9791737"><ele>191.0</ele><time>2026-04-10T13:23:18.213Z</time></trkpt><trkpt lat="44.6545887" lon="7.9792798"><ele>191.0</ele><time>2026-04-10T13:23:20.213Z</time></trkpt><trkpt lat="44.6546097" lon="7.9793985"><ele>191.0</ele><time>2026-04-10T13:23:22.213Z</time></trkpt><trkpt lat="44.654631" lon="7.9795122"><ele>191.0</ele><time>2026-04-10T13:23:24.213Z</time></trkpt><trkpt lat="44.6546541" lon="7.9796221"><ele>191.0</ele><time>2026-04-10T13:23:26.213Z</time></trkpt><trkpt lat="44.6546634" lon="7.9797283"><ele>191.14285714285714</ele><time>2026-04-10T13:23:28.213Z</time></trkpt><trkpt lat="44.6546679" lon="7.9798231"><ele>191.28571428571428</ele><time>2026-04-10T13:23:30.213Z</time></trkpt><trkpt lat="44.6546701" lon="7.9799225"><ele>191.42857142857142</ele><time>2026-04-10T13:23:34.213Z</time></trkpt><trkpt lat="44.6546594" lon="7.9800261"><ele>191.57142857142856</ele><time>2026-04-10T13:23:43.213Z</time></trkpt><trkpt lat="44.654649" lon="7.9799383"><ele>191.71428571428572</ele><time>2026-04-10T13:24:22.277Z</time></trkpt><trkpt lat="44.6545821" lon="7.9798732"><ele>191.85714285714283</ele><time>2026-04-10T13:25:13.314Z</time></trkpt><trkpt lat="44.654519" lon="7.9798706"><ele>192.0</ele><time>2026-04-10T13:25:16.315Z</time></trkpt><trkpt lat="44.6544516" lon="7.9798576"><ele>192.33333333333334</ele><time>2026-04-10T13:25:18.265Z</time></trkpt><trkpt lat="44.6543755" lon="7.9798192"><ele>192.66666666666669</ele><time>2026-04-10T13:25:20.216Z</time></trkpt><trkpt lat="44.6542999" lon="7.9798001"><ele>193.0</ele><time>2026-04-10T13:25:22.283Z</time></trkpt><trkpt lat="44.6542052" lon="7.9798545"><ele>193.33333333333334</ele><time>2026-04-10T13:25:24.3Z</time></trkpt><trkpt lat="44.6541159" lon="7.979837"><ele>193.66666666666669</ele><time>2026-04-10T13:25:26.301Z</time></trkpt><trkpt lat="44.6540403" lon="7.9798295"><ele>194.0</ele><time>2026-04-10T13:25:28.268Z</time></trkpt><trkpt lat="44.6539496" lon="7.9797824"><ele>194.00000000000003</ele><time>2026-04-10T13:25:31.235Z</time></trkpt><trkpt lat="44.6538881" lon="7.979742"><ele>194.0</ele><time>2026-04-10T13:25:33.302Z</time></trkpt><trkpt lat="44.6538208" lon="7.9796755"><ele>194.0</ele><time>2026-04-10T13:25:35.303Z</time></trkpt><trkpt lat="44.6537475" lon="7.9796269"><ele>194.0</ele><time>2026-04-10T13:25:37.207Z</time></trkpt><trkpt lat="44.6536705" lon="7.9795604"><ele>194.00000000000003</ele><time>2026-04-10T13:25:39.321Z</time></trkpt><trkpt lat="44.6536011" lon="7.9794891"><ele>194.0</ele><time>2026-04-10T13:25:41.321Z</time></trkpt><trkpt lat="44.653525" lon="7.9794409"><ele>194.33333333333334</ele><time>2026-04-10T13:25:43.224Z</time></trkpt><trkpt lat="44.653445" lon="7.9794008"><ele>194.66666666666669</ele><time>2026-04-10T13:25:45.255Z</time></trkpt><trkpt lat="44.6533638" lon="7.9793722"><ele>195.0</ele><time>2026-04-10T13:25:47.256Z</time></trkpt><trkpt lat="44.6532878" lon="7.9793475"><ele>195.33333333333331</ele><time>2026-04-10T13:25:49.183Z</time></trkpt><trkpt lat="44.6531955" lon="7.9793214"><ele>195.66666666666666</ele><time>2026-04-10T13:25:51.215Z</time></trkpt><trkpt lat="44.6531193" lon="7.9792735"><ele>196.0</ele><time>2026-04-10T13:25:53.215Z</time></trkpt><trkpt lat="44.6530363" lon="7.9792318"><ele>195.99999999999997</ele><time>2026-04-10T13:25:55.215Z</time></trkpt><trkpt lat="44.6529657" lon="7.9791906"><ele>196.0</ele><time>2026-04-10T13:25:57.215Z</time></trkpt><trkpt lat="44.6528953" lon="7.9791685"><ele>196.0</ele><time>2026-04-10T13:25:59.216Z</time></trkpt><trkpt lat="44.6528209" lon="7.9791355"><ele>196.0</ele><time>2026-04-10T13:26:01.215Z</time></trkpt><trkpt lat="44.6527477" lon="7.9791002"><ele>195.99999999999997</ele><time>2026-04-10T13:26:03.215Z</time></trkpt><trkpt lat="44.6526771" lon="7.9790512"><ele>196.0</ele><time>2026-04-10T13:26:05.215Z</time></trkpt><trkpt lat="44.6525923" lon="7.9790283"><ele>195.99999999999997</ele><time>2026-04-10T13:26:07.215Z</time></trkpt><trkpt lat="44.6525056" lon="7.9789984"><ele>196.0</ele><time>2026-04-10T13:26:09.215Z</time></trkpt><trkpt lat="44.6524302" lon="7.9789737"><ele>196.0</ele><time>2026-04-10T13:26:11.215Z</time></trkpt><trkpt lat="44.6523508" lon="7.9789591"><ele>196.0</ele><time>2026-04-10T13:26:13.216Z</time></trkpt><trkpt lat="44.65227" lon="7.9789468"><ele>195.99999999999997</ele><time>2026-04-10T13:26:15.215Z</time></trkpt><trkpt lat="44.6521985" lon="7.9789399"><ele>196.0</ele><time>2026-04-10T13:26:17.215Z</time></trkpt><trkpt lat="44.6521458" lon="7.9788849"><ele>196.0</ele><time>2026-04-10T13:26:21.215Z</time></trkpt><trkpt lat="44.6521321" lon="7.9789729"><ele>196.0</ele><time>2026-04-10T13:26:39.216Z</time></trkpt><trkpt lat="44.6522006" lon="7.979017"><ele>196.0</ele><time>2026-04-10T13:26:43.216Z</time></trkpt><trkpt lat="44.6522434" lon="7.9791155"><ele>196.0</ele><time>2026-04-10T13:26:49.216Z</time></trkpt><trkpt lat="44.6523166" lon="7.9791658"><ele>196.0</ele><time>2026-04-10T13:27:21.216Z</time></trkpt><trkpt lat="44.6522431" lon="7.9791739"><ele>196.0</ele><time>2026-04-10T13:27:26.216Z</time></trkpt><trkpt lat="44.6522503" lon="7.9790854"><ele>196.0</ele><time>2026-04-10T13:27:30.216Z</time></trkpt><trkpt lat="44.6522707" lon="7.9789972"><ele>195.99999999999997</ele><time>2026-04-10T13:27:44.217Z</time></trkpt><trkpt lat="44.6522373" lon="7.978894"><ele>196.0</ele><time>2026-04-10T13:27:47.217Z</time></trkpt><trkpt lat="44.6521414" lon="7.9788952"><ele>196.0</ele><time>2026-04-10T13:27:50.217Z</time></trkpt><trkpt lat="44.6520596" lon="7.9789112"><ele>196.0</ele><time>2026-04-10T13:27:52.217Z</time></trkpt><trkpt lat="44.6519845" lon="7.9789296"><ele>195.99999999999997</ele><time>2026-04-10T13:27:54.217Z</time></trkpt><trkpt lat="44.6519093" lon="7.9789612"><ele>196.0</ele><time>2026-04-10T13:27:56.217Z</time></trkpt><trkpt lat="44.6518346" lon="7.9790002"><ele>195.83333333333331</ele><time>2026-04-10T13:27:58.217Z</time></trkpt><trkpt lat="44.6517694" lon="7.9790496"><ele>195.66666666666666</ele><time>2026-04-10T13:28:00.217Z</time></trkpt><trkpt lat="44.6517034" lon="7.979098"><ele>195.5</ele><time>2026-04-10T13:28:02.217Z</time></trkpt><trkpt lat="44.6516112" lon="7.9791477"><ele>195.33333333333331</ele><time>2026-04-10T13:28:04.217Z</time></trkpt><trkpt lat="44.6515132" lon="7.9792024"><ele>195.16666666666666</ele><time>2026-04-10T13:28:06.217Z</time></trkpt><trkpt lat="44.6514405" lon="7.9792352"><ele>195.0</ele><time>2026-04-10T13:28:08.217Z</time></trkpt><trkpt lat="44.6513621" lon="7.9792876"><ele>195.0</ele><time>2026-04-10T13:28:10.217Z</time></trkpt><trkpt lat="44.6512951" lon="7.9793265"><ele>195.0</ele><time>2026-04-10T13:28:12.217Z</time></trkpt><trkpt lat="44.6512206" lon="7.9793564"><ele>195.0</ele><time>2026-04-10T13:28:14.217Z</time></trkpt><trkpt lat="44.6511369" lon="7.9793882"><ele>195.0</ele><time>2026-04-10T13:28:16.217Z</time></trkpt><trkpt lat="44.6510721" lon="7.9794026"><ele>195.0</ele><time>2026-04-10T13:28:18.217Z</time></trkpt><trkpt lat="44.6510042" lon="7.9794186"><ele>195.0</ele><time>2026-04-10T13:28:20.217Z</time></trkpt><trkpt lat="44.65091" lon="7.9794291"><ele>195.33333333333334</ele><time>2026-04-10T13:28:22.217Z</time></trkpt><trkpt lat="44.6508316" lon="7.9794312"><ele>195.66666666666669</ele><time>2026-04-10T13:28:24.217Z</time></trkpt><trkpt lat="44.6507657" lon="7.9794526"><ele>196.0</ele><time>2026-04-10T13:28:26.217Z</time></trkpt><trkpt lat="44.6506883" lon="7.9794653"><ele>196.33333333333334</ele><time>2026-04-10T13:28:28.217Z</time></trkpt><trkpt lat="44.6506074" lon="7.9794559"><ele>196.66666666666669</ele><time>2026-04-10T13:28:30.217Z</time></trkpt><trkpt lat="44.650528" lon="7.9794514"><ele>197.0</ele><time>2026-04-10T13:28:32.218Z</time></trkpt><trkpt lat="44.6504423" lon="7.9794439"><ele>197.00000000000003</ele><time>2026-04-10T13:28:34.217Z</time></trkpt><trkpt lat="44.6503543" lon="7.9794306"><ele>197.0</ele><time>2026-04-10T13:28:36.217Z</time></trkpt><trkpt lat="44.65026" lon="7.9794206"><ele>197.0</ele><time>2026-04-10T13:28:38.217Z</time></trkpt><trkpt lat="44.6501599" lon="7.9794134"><ele>197.0</ele><time>2026-04-10T13:28:40.217Z</time></trkpt><trkpt lat="44.6500695" lon="7.9794057"><ele>197.00000000000003</ele><time>2026-04-10T13:28:42.218Z</time></trkpt><trkpt lat="44.6499941" lon="7.9793998"><ele>197.0</ele><time>2026-04-10T13:28:44.217Z</time></trkpt><trkpt lat="44.6499118" lon="7.9793976"><ele>197.00000000000003</ele><time>2026-04-10T13:28:46.217Z</time></trkpt><trkpt lat="44.6498256" lon="7.9793984"><ele>197.0</ele><time>2026-04-10T13:28:48.217Z</time></trkpt><trkpt lat="44.6497368" lon="7.9793934"><ele>197.0</ele><time>2026-04-10T13:28:50.217Z</time></trkpt><trkpt lat="44.6496453" lon="7.9793991"><ele>197.0</ele><time>2026-04-10T13:28:52.218Z</time></trkpt><trkpt lat="44.6495659" lon="7.9793986"><ele>197.00000000000003</ele><time>2026-04-10T13:28:54.217Z</time></trkpt><trkpt lat="44.6494804" lon="7.9794065"><ele>197.0</ele><time>2026-04-10T13:28:56.218Z</time></trkpt><trkpt lat="44.6493977" lon="7.9794093"><ele>197.00000000000003</ele><time>2026-04-10T13:28:58.218Z</time></trkpt><trkpt lat="44.6493113" lon="7.9793969"><ele>197.0</ele><time>2026-04-10T13:29:00.218Z</time></trkpt><trkpt lat="44.6492297" lon="7.9793734"><ele>197.0</ele><time>2026-04-10T13:29:02.218Z</time></trkpt><trkpt lat="44.649154" lon="7.9793582"><ele>197.0</ele><time>2026-04-10T13:29:04.218Z</time></trkpt><trkpt lat="44.6490677" lon="7.9793432"><ele>197.00000000000003</ele><time>2026-04-10T13:29:06.218Z</time></trkpt><trkpt lat="44.648974" lon="7.9793208"><ele>197.0</ele><time>2026-04-10T13:29:08.218Z</time></trkpt><trkpt lat="44.6488883" lon="7.9792943"><ele>197.00000000000003</ele><time>2026-04-10T13:29:10.219Z</time></trkpt><trkpt lat="44.6488087" lon="7.9792612"><ele>197.0</ele><time>2026-04-10T13:29:12.218Z</time></trkpt><trkpt lat="44.6487312" lon="7.9792297"><ele>197.0</ele><time>2026-04-10T13:29:14.218Z</time></trkpt><trkpt lat="44.6486519" lon="7.9791942"><ele>197.0</ele><time>2026-04-10T13:29:16.218Z</time></trkpt><trkpt lat="44.6485726" lon="7.9791715"><ele>197.00000000000003</ele><time>2026-04-10T13:29:18.218Z</time></trkpt><trkpt lat="44.6484867" lon="7.9791344"><ele>197.0</ele><time>2026-04-10T13:29:20.218Z</time></trkpt><trkpt lat="44.6484012" lon="7.979099"><ele>197.16666666666669</ele><time>2026-04-10T13:29:22.218Z</time></trkpt><trkpt lat="44.6483219" lon="7.9790712"><ele>197.33333333333334</ele><time>2026-04-10T13:29:24.218Z</time></trkpt><trkpt lat="44.6482402" lon="7.9790358"><ele>197.5</ele><time>2026-04-10T13:29:26.218Z</time></trkpt><trkpt lat="44.6481544" lon="7.9789975"><ele>197.66666666666669</ele><time>2026-04-10T13:29:28.218Z</time></trkpt><trkpt lat="44.6480664" lon="7.9789696"><ele>197.83333333333334</ele><time>2026-04-10T13:29:30.218Z</time></trkpt><trkpt lat="44.6479825" lon="7.978932"><ele>198.0</ele><time>2026-04-10T13:29:32.218Z</time></trkpt><trkpt lat="44.647909" lon="7.978898"><ele>198.0</ele><time>2026-04-10T13:29:34.218Z</time></trkpt><trkpt lat="44.6478285" lon="7.9788594"><ele>198.0</ele><time>2026-04-10T13:29:36.218Z</time></trkpt><trkpt lat="44.647751" lon="7.9788129"><ele>198.0</ele><time>2026-04-10T13:29:38.218Z</time></trkpt><trkpt lat="44.6476737" lon="7.9787796"><ele>198.0</ele><time>2026-04-10T13:29:40.218Z</time></trkpt><trkpt lat="44.6476008" lon="7.9787455"><ele>198.0</ele><time>2026-04-10T13:29:42.218Z</time></trkpt><trkpt lat="44.6475183" lon="7.9787144"><ele>198.0</ele><time>2026-04-10T13:29:44.218Z</time></trkpt><trkpt lat="44.6474382" lon="7.9786824"><ele>198.83333333333334</ele><time>2026-04-10T13:29:46.218Z</time></trkpt><trkpt lat="44.6473559" lon="7.978648"><ele>199.66666666666669</ele><time>2026-04-10T13:29:48.218Z</time></trkpt><trkpt lat="44.647277" lon="7.9786098"><ele>200.5</ele><time>2026-04-10T13:29:50.218Z</time></trkpt><trkpt lat="44.6472037" lon="7.9785477"><ele>201.33333333333334</ele><time>2026-04-10T13:29:52.218Z</time></trkpt><trkpt lat="44.6471304" lon="7.9785109"><ele>202.16666666666669</ele><time>2026-04-10T13:29:54.218Z</time></trkpt><trkpt lat="44.6470583" lon="7.978471"><ele>203.0</ele><time>2026-04-10T13:29:56.218Z</time></trkpt><trkpt lat="44.6469895" lon="7.9784163"><ele>202.57142857142858</ele><time>2026-04-10T13:29:58.218Z</time></trkpt><trkpt lat="44.6469365" lon="7.9783399"><ele>202.14285714285714</ele><time>2026-04-10T13:30:00.218Z</time></trkpt><trkpt lat="44.6469103" lon="7.9782318"><ele>201.71428571428572</ele><time>2026-04-10T13:30:02.218Z</time></trkpt><trkpt lat="44.6469039" lon="7.9781237"><ele>201.28571428571428</ele><time>2026-04-10T13:30:04.218Z</time></trkpt><trkpt lat="44.6468916" lon="7.9780369"><ele>200.85714285714286</ele><time>2026-04-10T13:30:06.219Z</time></trkpt><trkpt lat="44.6469056" lon="7.9779456"><ele>200.42857142857144</ele><time>2026-04-10T13:30:09.218Z</time></trkpt><trkpt lat="44.6469584" lon="7.9778853"><ele>200.0</ele><time>2026-04-10T13:30:14.219Z</time></trkpt><trkpt lat="44.6468954" lon="7.9778431"><ele>200.00000000000003</ele><time>2026-04-10T13:31:13.219Z</time></trkpt><trkpt lat="44.6468369" lon="7.9777933"><ele>200.0</ele><time>2026-04-10T13:31:16.22Z</time></trkpt><trkpt lat="44.6467718" lon="7.9778054"><ele>200.0</ele><time>2026-04-10T13:31:20.219Z</time></trkpt><trkpt lat="44.6466912" lon="7.9778479"><ele>200.0</ele><time>2026-04-10T13:31:48.22Z</time></trkpt><trkpt lat="44.6466376" lon="7.9779025"><ele>200.0</ele><time>2026-04-10T13:31:50.22Z</time></trkpt><trkpt lat="44.6465853" lon="7.9779665"><ele>200.00000000000003</ele><time>2026-04-10T13:31:52.221Z</time></trkpt><trkpt lat="44.6465513" lon="7.978062"><ele>200.0</ele><time>2026-04-10T13:31:54.22Z</time></trkpt><trkpt lat="44.6465223" lon="7.9781609"><ele>200.00000000000003</ele><time>2026-04-10T13:31:56.22Z</time></trkpt><trkpt lat="44.6464608" lon="7.97826"><ele>200.0</ele><time>2026-04-10T13:31:59.22Z</time></trkpt><trkpt lat="44.646403" lon="7.9783004"><ele>200.0</ele><time>2026-04-10T13:32:01.22Z</time></trkpt><trkpt lat="44.6463303" lon="7.9783209"><ele>200.0</ele><time>2026-04-10T13:32:03.221Z</time></trkpt><trkpt lat="44.6462462" lon="7.9783676"><ele>200.00000000000003</ele><time>2026-04-10T13:32:06.22Z</time></trkpt><trkpt lat="44.6461783" lon="7.9784045"><ele>200.0</ele><time>2026-04-10T13:32:08.22Z</time></trkpt><trkpt lat="44.6461088" lon="7.978443"><ele>201.2857142857143</ele><time>2026-04-10T13:32:10.22Z</time></trkpt><trkpt lat="44.6460299" lon="7.9784806"><ele>202.57142857142858</ele><time>2026-04-10T13:32:13.221Z</time></trkpt><trkpt lat="44.6459721" lon="7.9785244"><ele>203.85714285714286</ele><time>2026-04-10T13:32:15.22Z</time></trkpt><trkpt lat="44.6458964" lon="7.9785661"><ele>205.14285714285717</ele><time>2026-04-10T13:32:17.22Z</time></trkpt><trkpt lat="44.6458265" lon="7.9786009"><ele>206.42857142857142</ele><time>2026-04-10T13:32:19.221Z</time></trkpt><trkpt lat="44.6457563" lon="7.9786351"><ele>207.71428571428572</ele><time>2026-04-10T13:32:21.22Z</time></trkpt><trkpt lat="44.6456911" lon="7.9786668"><ele>209.0</ele><time>2026-04-10T13:32:23.22Z</time></trkpt><trkpt lat="44.6456262" lon="7.9786993"><ele>209.0</ele><time>2026-04-10T13:32:25.22Z</time></trkpt><trkpt lat="44.6455612" lon="7.978729"><ele>209.0</ele><time>2026-04-10T13:32:27.22Z</time></trkpt><trkpt lat="44.6455008" lon="7.9787688"><ele>209.0</ele><time>2026-04-10T13:32:29.22Z</time></trkpt><trkpt lat="44.6454359" lon="7.9788098"><ele>209.0</ele><time>2026-04-10T13:32:31.221Z</time></trkpt><trkpt lat="44.6453645" lon="7.9788327"><ele>209.0</ele><time>2026-04-10T13:32:33.22Z</time></trkpt><trkpt lat="44.6452982" lon="7.9788566"><ele>209.0</ele><time>2026-04-10T13:32:35.221Z</time></trkpt><trkpt lat="44.6452382" lon="7.978896"><ele>209.0</ele><time>2026-04-10T13:32:37.221Z</time></trkpt><trkpt lat="44.6451611" lon="7.9789335"><ele>208.33333333333334</ele><time>2026-04-10T13:32:39.221Z</time></trkpt><trkpt lat="44.6450947" lon="7.9789646"><ele>207.66666666666669</ele><time>2026-04-10T13:32:41.221Z</time></trkpt><trkpt lat="44.6450244" lon="7.9789971"><ele>207.0</ele><time>2026-04-10T13:32:43.222Z</time></trkpt><trkpt lat="44.6449346" lon="7.979057"><ele>206.33333333333331</ele><time>2026-04-10T13:32:46.221Z</time></trkpt><trkpt lat="44.6448512" lon="7.9790946"><ele>205.66666666666666</ele><time>2026-04-10T13:32:48.221Z</time></trkpt><trkpt lat="44.6447717" lon="7.9791392"><ele>205.0</ele><time>2026-04-10T13:32:50.221Z</time></trkpt><trkpt lat="44.6446998" lon="7.9791729"><ele>206.16666666666666</ele><time>2026-04-10T13:32:52.221Z</time></trkpt><trkpt lat="44.6446311" lon="7.9792186"><ele>207.33333333333331</ele><time>2026-04-10T13:32:54.221Z</time></trkpt><trkpt lat="44.6445659" lon="7.979257"><ele>208.5</ele><time>2026-04-10T13:32:56.222Z</time></trkpt><trkpt lat="44.6444821" lon="7.9792965"><ele>209.66666666666669</ele><time>2026-04-10T13:32:58.221Z</time></trkpt><trkpt lat="44.6444052" lon="7.9793454"><ele>210.83333333333334</ele><time>2026-04-10T13:33:00.221Z</time></trkpt><trkpt lat="44.6443319" lon="7.9793836"><ele>212.0</ele><time>2026-04-10T13:33:02.221Z</time></trkpt><trkpt lat="44.6442635" lon="7.9794301"><ele>212.00000000000003</ele><time>2026-04-10T13:33:04.222Z</time></trkpt><trkpt lat="44.6442084" lon="7.9795055"><ele>212.0</ele><time>2026-04-10T13:33:06.222Z</time></trkpt><trkpt lat="44.6441406" lon="7.9795695"><ele>212.0</ele><time>2026-04-10T13:33:08.222Z</time></trkpt><trkpt lat="44.6440624" lon="7.9796314"><ele>212.0</ele><time>2026-04-10T13:33:10.222Z</time></trkpt><trkpt lat="44.6439844" lon="7.9797019"><ele>212.00000000000003</ele><time>2026-04-10T13:33:12.229Z</time></trkpt><trkpt lat="44.6439107" lon="7.9797695"><ele>212.0</ele><time>2026-04-10T13:33:14.221Z</time></trkpt><trkpt lat="44.6438441" lon="7.9798448"><ele>212.00000000000003</ele><time>2026-04-10T13:33:16.222Z</time></trkpt><trkpt lat="44.6437875" lon="7.9799283"><ele>212.0</ele><time>2026-04-10T13:33:18.221Z</time></trkpt><trkpt lat="44.6437273" lon="7.9799965"><ele>212.0</ele><time>2026-04-10T13:33:20.221Z</time></trkpt><trkpt lat="44.6436565" lon="7.9800808"><ele>212.0</ele><time>2026-04-10T13:33:22.221Z</time></trkpt><trkpt lat="44.6435808" lon="7.9801527"><ele>212.00000000000003</ele><time>2026-04-10T13:33:24.221Z</time></trkpt><trkpt lat="44.6435263" lon="7.9802116"><ele>212.0</ele><time>2026-04-10T13:33:26.221Z</time></trkpt><trkpt lat="44.6434768" lon="7.9802868"><ele>211.50000000000003</ele><time>2026-04-10T13:33:28.221Z</time></trkpt><trkpt lat="44.6434253" lon="7.9803675"><ele>211.0</ele><time>2026-04-10T13:33:30.221Z</time></trkpt><trkpt lat="44.6433637" lon="7.9804491"><ele>210.5</ele><time>2026-04-10T13:33:32.222Z</time></trkpt><trkpt lat="44.6432984" lon="7.9805158"><ele>210.0</ele><time>2026-04-10T13:33:34.221Z</time></trkpt><trkpt lat="44.6432222" lon="7.9805901"><ele>209.50000000000003</ele><time>2026-04-10T13:33:36.221Z</time></trkpt><trkpt lat="44.6431476" lon="7.9806696"><ele>209.0</ele><time>2026-04-10T13:33:38.221Z</time></trkpt><trkpt lat="44.6430805" lon="7.9807521"><ele>209.00000000000003</ele><time>2026-04-10T13:33:40.221Z</time></trkpt><trkpt lat="44.6430032" lon="7.9808212"><ele>209.0</ele><time>2026-04-10T13:33:42.221Z</time></trkpt><trkpt lat="44.6429287" lon="7.9808915"><ele>209.0</ele><time>2026-04-10T13:33:44.221Z</time></trkpt><trkpt lat="44.6428525" lon="7.9809456"><ele>209.0</ele><time>2026-04-10T13:33:46.221Z</time></trkpt><trkpt lat="44.642787" lon="7.9809979"><ele>209.00000000000003</ele><time>2026-04-10T13:33:48.222Z</time></trkpt><trkpt lat="44.6427217" lon="7.9810534"><ele>209.0</ele><time>2026-04-10T13:33:50.222Z</time></trkpt><trkpt lat="44.6426433" lon="7.981097"><ele>209.0</ele><time>2026-04-10T13:33:52.222Z</time></trkpt><trkpt lat="44.642562" lon="7.9811546"><ele>209.0</ele><time>2026-04-10T13:33:54.222Z</time></trkpt><trkpt lat="44.6424762" lon="7.9812096"><ele>209.0</ele><time>2026-04-10T13:33:56.222Z</time></trkpt><trkpt lat="44.6424031" lon="7.9812836"><ele>209.0</ele><time>2026-04-10T13:33:58.222Z</time></trkpt><trkpt lat="44.6423329" lon="7.9813598"><ele>209.0</ele><time>2026-04-10T13:34:00.222Z</time></trkpt><trkpt lat="44.6422605" lon="7.981442"><ele>209.0</ele><time>2026-04-10T13:34:02.223Z</time></trkpt><trkpt lat="44.6421901" lon="7.9815369"><ele>209.0</ele><time>2026-04-10T13:34:04.222Z</time></trkpt><trkpt lat="44.6421268" lon="7.9816255"><ele>209.0</ele><time>2026-04-10T13:34:06.222Z</time></trkpt><trkpt lat="44.6420609" lon="7.981705"><ele>209.0</ele><time>2026-04-10T13:34:08.222Z</time></trkpt><trkpt lat="44.641994" lon="7.9817819"><ele>209.0</ele><time>2026-04-10T13:34:10.222Z</time></trkpt><trkpt lat="44.6419124" lon="7.9818442"><ele>209.0</ele><time>2026-04-10T13:34:12.223Z</time></trkpt><trkpt lat="44.6418439" lon="7.981904"><ele>209.0</ele><time>2026-04-10T13:34:14.222Z</time></trkpt><trkpt lat="44.6417827" lon="7.981948"><ele>209.0</ele><time>2026-04-10T13:34:16.222Z</time></trkpt><trkpt lat="44.641719" lon="7.9819805"><ele>209.0</ele><time>2026-04-10T13:34:18.222Z</time></trkpt><trkpt lat="44.6416515" lon="7.9820238"><ele>209.0</ele><time>2026-04-10T13:34:53.222Z</time></trkpt><trkpt lat="44.6415875" lon="7.9820593"><ele>209.0</ele><time>2026-04-10T13:34:56.222Z</time></trkpt><trkpt lat="44.6415115" lon="7.9820966"><ele>209.0</ele><time>2026-04-10T13:34:59.222Z</time></trkpt><trkpt lat="44.6414229" lon="7.9821287"><ele>209.00000000000003</ele><time>2026-04-10T13:35:02.222Z</time></trkpt><trkpt lat="44.6413328" lon="7.9821528"><ele>209.0</ele><time>2026-04-10T13:35:05.223Z</time></trkpt><trkpt lat="44.6412625" lon="7.9821757"><ele>209.0</ele><time>2026-04-10T13:35:07.223Z</time></trkpt><trkpt lat="44.6411829" lon="7.9822072"><ele>209.0</ele><time>2026-04-10T13:35:09.223Z</time></trkpt><trkpt lat="44.641112" lon="7.9822327"><ele>209.00000000000003</ele><time>2026-04-10T13:35:11.223Z</time></trkpt><trkpt lat="44.6410501" lon="7.9822577"><ele>209.0</ele><time>2026-04-10T13:35:39.223Z</time></trkpt><trkpt lat="44.6409831" lon="7.9822893"><ele>208.83333333333334</ele><time>2026-04-10T13:35:42.223Z</time></trkpt><trkpt lat="44.6409077" lon="7.9823064"><ele>208.66666666666669</ele><time>2026-04-10T13:35:45.223Z</time></trkpt><trkpt lat="44.6408235" lon="7.9823389"><ele>208.5</ele><time>2026-04-10T13:35:48.223Z</time></trkpt><trkpt lat="44.6407392" lon="7.9823662"><ele>208.33333333333331</ele><time>2026-04-10T13:35:51.224Z</time></trkpt><trkpt lat="44.6406753" lon="7.9823923"><ele>208.16666666666666</ele><time>2026-04-10T13:35:54.223Z</time></trkpt><trkpt lat="44.6406031" lon="7.9824275"><ele>208.0</ele><time>2026-04-10T13:35:58.223Z</time></trkpt><trkpt lat="44.6405431" lon="7.9824594"><ele>207.99999999999997</ele><time>2026-04-10T13:36:54.245Z</time></trkpt><trkpt lat="44.6404623" lon="7.9824879"><ele>208.0</ele><time>2026-04-10T13:36:56.295Z</time></trkpt><trkpt lat="44.6403668" lon="7.9825185"><ele>208.0</ele><time>2026-04-10T13:36:59.262Z</time></trkpt><trkpt lat="44.6402968" lon="7.9825383"><ele>208.0</ele><time>2026-04-10T13:37:01.313Z</time></trkpt><trkpt lat="44.6402274" lon="7.9825626"><ele>207.99999999999997</ele><time>2026-04-10T13:37:03.347Z</time></trkpt><trkpt lat="44.6401642" lon="7.9825864"><ele>208.0</ele><time>2026-04-10T13:37:05.264Z</time></trkpt><trkpt lat="44.6400983" lon="7.9826097"><ele>209.66666666666666</ele><time>2026-04-10T13:37:07.315Z</time></trkpt><trkpt lat="44.6400315" lon="7.9826281"><ele>211.33333333333331</ele><time>2026-04-10T13:37:09.265Z</time></trkpt><trkpt lat="44.6399325" lon="7.9826501"><ele>213.0</ele><time>2026-04-10T13:37:12.305Z</time></trkpt><trkpt lat="44.6398492" lon="7.9826663"><ele>214.66666666666669</ele><time>2026-04-10T13:37:14.3Z</time></trkpt><trkpt lat="44.6397691" lon="7.9826856"><ele>216.33333333333334</ele><time>2026-04-10T13:37:16.25Z</time></trkpt><trkpt lat="44.6396869" lon="7.9827049"><ele>218.0</ele><time>2026-04-10T13:37:18.279Z</time></trkpt><trkpt lat="44.6396128" lon="7.9827146"><ele>218.0</ele><time>2026-04-10T13:37:20.318Z</time></trkpt><trkpt lat="44.6395415" lon="7.9827219"><ele>218.0</ele><time>2026-04-10T13:37:22.285Z</time></trkpt><trkpt lat="44.6394661" lon="7.9827328"><ele>218.0</ele><time>2026-04-10T13:37:24.282Z</time></trkpt><trkpt lat="44.6393953" lon="7.9827398"><ele>218.0</ele><time>2026-04-10T13:37:26.287Z</time></trkpt><trkpt lat="44.639323" lon="7.9827506"><ele>218.0</ele><time>2026-04-10T13:37:28.304Z</time></trkpt><trkpt lat="44.6392546" lon="7.9827516"><ele>218.0</ele><time>2026-04-10T13:37:30.271Z</time></trkpt><trkpt lat="44.6391849" lon="7.9827537"><ele>218.0</ele><time>2026-04-10T13:37:32.289Z</time></trkpt><trkpt lat="44.6391098" lon="7.9827694"><ele>217.66666666666669</ele><time>2026-04-10T13:37:34.255Z</time></trkpt><trkpt lat="44.639041" lon="7.9827873"><ele>217.33333333333334</ele><time>2026-04-10T13:37:36.322Z</time></trkpt><trkpt lat="44.638947" lon="7.982801"><ele>217.0</ele><time>2026-04-10T13:37:39.241Z</time></trkpt><trkpt lat="44.6388832" lon="7.9828047"><ele>216.66666666666669</ele><time>2026-04-10T13:37:41.29Z</time></trkpt><trkpt lat="44.6387933" lon="7.982817"><ele>216.33333333333334</ele><time>2026-04-10T13:37:44.274Z</time></trkpt><trkpt lat="44.6387129" lon="7.9828262"><ele>216.0</ele><time>2026-04-10T13:37:47.259Z</time></trkpt><trkpt lat="44.6386387" lon="7.9828486"><ele>215.5</ele><time>2026-04-10T13:37:50.326Z</time></trkpt><trkpt lat="44.6385817" lon="7.9828872"><ele>215.0</ele><time>2026-04-10T13:37:52.26Z</time></trkpt><trkpt lat="44.6385155" lon="7.9829382"><ele>214.5</ele><time>2026-04-10T13:37:54.244Z</time></trkpt><trkpt lat="44.6384388" lon="7.9829831"><ele>214.0</ele><time>2026-04-10T13:37:56.261Z</time></trkpt><trkpt lat="44.6383679" lon="7.9830328"><ele>213.5</ele><time>2026-04-10T13:37:58.186Z</time></trkpt><trkpt lat="44.6382947" lon="7.9830891"><ele>213.0</ele><time>2026-04-10T13:38:00.223Z</time></trkpt><trkpt lat="44.6382145" lon="7.9831361"><ele>213.0</ele><time>2026-04-10T13:38:02.225Z</time></trkpt><trkpt lat="44.6381324" lon="7.9831987"><ele>213.0</ele><time>2026-04-10T13:38:04.225Z</time></trkpt><trkpt lat="44.6380563" lon="7.983266"><ele>213.0</ele><time>2026-04-10T13:38:06.225Z</time></trkpt><trkpt lat="44.6379697" lon="7.9833387"><ele>213.0</ele><time>2026-04-10T13:38:08.225Z</time></trkpt><trkpt lat="44.6378834" lon="7.9833926"><ele>213.0</ele><time>2026-04-10T13:38:10.225Z</time></trkpt><trkpt lat="44.6377778" lon="7.9834462"><ele>212.60000000000002</ele><time>2026-04-10T13:38:12.225Z</time></trkpt><trkpt lat="44.6376928" lon="7.9835187"><ele>212.20000000000002</ele><time>2026-04-10T13:38:14.226Z</time></trkpt><trkpt lat="44.6376134" lon="7.9835701"><ele>211.8</ele><time>2026-04-10T13:38:16.225Z</time></trkpt><trkpt lat="44.6375262" lon="7.9836088"><ele>211.4</ele><time>2026-04-10T13:38:18.225Z</time></trkpt><trkpt lat="44.6374364" lon="7.9836687"><ele>211.0</ele><time>2026-04-10T13:38:20.225Z</time></trkpt><trkpt lat="44.6373622" lon="7.9837277"><ele>210.99999999999997</ele><time>2026-04-10T13:38:22.225Z</time></trkpt><trkpt lat="44.6372916" lon="7.9837542"><ele>211.0</ele><time>2026-04-10T13:38:25.225Z</time></trkpt><trkpt lat="44.6372931" lon="7.9838576"><ele>211.0</ele><time>2026-04-10T13:39:00.226Z</time></trkpt><trkpt lat="44.6373603" lon="7.9838325"><ele>211.0</ele><time>2026-04-10T13:39:02.226Z</time></trkpt><trkpt lat="44.6374258" lon="7.983778"><ele>210.99999999999997</ele><time>2026-04-10T13:39:04.226Z</time></trkpt><trkpt lat="44.6374966" lon="7.9837248"><ele>211.0</ele><time>2026-04-10T13:39:06.226Z</time></trkpt><trkpt lat="44.6375684" lon="7.9836738"><ele>210.99999999999997</ele><time>2026-04-10T13:39:08.226Z</time></trkpt><trkpt lat="44.6376313" lon="7.9836076"><ele>211.0</ele><time>2026-04-10T13:39:10.226Z</time></trkpt><trkpt lat="44.6377079" lon="7.9835557"><ele>211.0</ele><time>2026-04-10T13:39:12.227Z</time></trkpt><trkpt lat="44.6377836" lon="7.9834983"><ele>211.0</ele><time>2026-04-10T13:39:14.226Z</time></trkpt><trkpt lat="44.6378414" lon="7.9834523"><ele>210.99999999999997</ele><time>2026-04-10T13:39:16.226Z</time></trkpt><trkpt lat="44.637922" lon="7.9833956"><ele>211.0</ele><time>2026-04-10T13:39:19.226Z</time></trkpt><trkpt lat="44.6379976" lon="7.9833559"><ele>211.33333333333331</ele><time>2026-04-10T13:39:21.226Z</time></trkpt><trkpt lat="44.6380677" lon="7.9833018"><ele>211.66666666666666</ele><time>2026-04-10T13:39:23.226Z</time></trkpt><trkpt lat="44.6381456" lon="7.983244"><ele>212.0</ele><time>2026-04-10T13:39:25.226Z</time></trkpt><trkpt lat="44.6382164" lon="7.9831967"><ele>212.33333333333331</ele><time>2026-04-10T13:39:27.226Z</time></trkpt><trkpt lat="44.6382979" lon="7.9831322"><ele>212.66666666666666</ele><time>2026-04-10T13:39:29.226Z</time></trkpt><trkpt lat="44.6383745" lon="7.9830785"><ele>213.0</ele><time>2026-04-10T13:39:31.226Z</time></trkpt><trkpt lat="44.6384617" lon="7.9830358"><ele>212.99999999999997</ele><time>2026-04-10T13:39:33.226Z</time></trkpt><trkpt lat="44.638537" lon="7.9829718"><ele>213.0</ele><time>2026-04-10T13:39:35.226Z</time></trkpt><trkpt lat="44.6386039" lon="7.9829415"><ele>213.0</ele><time>2026-04-10T13:39:37.226Z</time></trkpt><trkpt lat="44.6386674" lon="7.9829095"><ele>213.0</ele><time>2026-04-10T13:39:39.226Z</time></trkpt><trkpt lat="44.6387288" lon="7.9828854"><ele>213.0</ele><time>2026-04-10T13:39:41.226Z</time></trkpt><trkpt lat="44.6388013" lon="7.9828814"><ele>212.99999999999997</ele><time>2026-04-10T13:39:44.226Z</time></trkpt><trkpt lat="44.6388757" lon="7.9828982"><ele>213.0</ele><time>2026-04-10T13:39:49.226Z</time></trkpt><trkpt lat="44.638867" lon="7.982995"><ele>213.5</ele><time>2026-04-10T13:40:16.227Z</time></trkpt><trkpt lat="44.6389464" lon="7.9829839"><ele>214.0</ele><time>2026-04-10T13:40:39.244Z</time></trkpt><trkpt lat="44.6390226" lon="7.982969"><ele>214.5</ele><time>2026-04-10T13:40:41.311Z</time></trkpt><trkpt lat="44.639103" lon="7.9829539"><ele>215.0</ele><time>2026-04-10T13:40:43.261Z</time></trkpt><trkpt lat="44.6391914" lon="7.9829613"><ele>215.5</ele><time>2026-04-10T13:40:45.295Z</time></trkpt><trkpt lat="44.6392701" lon="7.9829551"><ele>216.0</ele><time>2026-04-10T13:40:47.312Z</time></trkpt><trkpt lat="44.6393424" lon="7.9829468"><ele>216.0</ele><time>2026-04-10T13:40:49.263Z</time></trkpt><trkpt lat="44.6394168" lon="7.9829081"><ele>216.0</ele><time>2026-04-10T13:40:51.34Z</time></trkpt><trkpt lat="44.6394878" lon="7.9828902"><ele>216.0</ele><time>2026-04-10T13:40:53.281Z</time></trkpt><trkpt lat="44.63956" lon="7.9828993"><ele>216.0</ele><time>2026-04-10T13:40:55.281Z</time></trkpt><trkpt lat="44.6396308" lon="7.9829009"><ele>216.0</ele><time>2026-04-10T13:40:57.265Z</time></trkpt><trkpt lat="44.639706" lon="7.9828952"><ele>216.0</ele><time>2026-04-10T13:40:59.299Z</time></trkpt><trkpt lat="44.6397849" lon="7.9828767"><ele>216.33333333333334</ele><time>2026-04-10T13:41:01.233Z</time></trkpt><trkpt lat="44.6398537" lon="7.9828589"><ele>216.66666666666669</ele><time>2026-04-10T13:41:03.267Z</time></trkpt><trkpt lat="44.6399386" lon="7.9828644"><ele>217.0</ele><time>2026-04-10T13:41:07.227Z</time></trkpt><trkpt lat="44.6400299" lon="7.9828325"><ele>217.33333333333334</ele><time>2026-04-10T13:41:10.227Z</time></trkpt><trkpt lat="44.6401191" lon="7.9827916"><ele>217.66666666666669</ele><time>2026-04-10T13:41:13.227Z</time></trkpt><trkpt lat="44.6402051" lon="7.9827745"><ele>218.0</ele><time>2026-04-10T13:41:16.227Z</time></trkpt><trkpt lat="44.6401286" lon="7.9827454"><ele>218.00000000000003</ele><time>2026-04-10T13:41:48.229Z</time></trkpt><trkpt lat="44.6400504" lon="7.9828066"><ele>218.0</ele><time>2026-04-10T13:41:51.276Z</time></trkpt><trkpt lat="44.6399662" lon="7.982806"><ele>218.0</ele><time>2026-04-10T13:41:53.293Z</time></trkpt><trkpt lat="44.6398885" lon="7.9827923"><ele>218.0</ele><time>2026-04-10T13:41:55.311Z</time></trkpt><trkpt lat="44.639819" lon="7.982807"><ele>218.00000000000003</ele><time>2026-04-10T13:41:57.311Z</time></trkpt><trkpt lat="44.6397286" lon="7.9828368"><ele>218.0</ele><time>2026-04-10T13:42:00.312Z</time></trkpt><trkpt lat="44.6396326" lon="7.9828599"><ele>218.0</ele><time>2026-04-10T13:42:03.23Z</time></trkpt><trkpt lat="44.639561" lon="7.9828637"><ele>218.0</ele><time>2026-04-10T13:42:05.137Z</time></trkpt><trkpt lat="44.6394811" lon="7.9828787"><ele>218.0</ele><time>2026-04-10T13:42:07.331Z</time></trkpt><trkpt lat="44.6394073" lon="7.98289"><ele>218.0</ele><time>2026-04-10T13:42:09.231Z</time></trkpt><trkpt lat="44.6393337" lon="7.9828979"><ele>218.0</ele><time>2026-04-10T13:42:11.332Z</time></trkpt><trkpt lat="44.6392659" lon="7.9829087"><ele>218.0</ele><time>2026-04-10T13:42:13.273Z</time></trkpt><trkpt lat="44.6392029" lon="7.9829251"><ele>218.0</ele><time>2026-04-10T13:42:15.233Z</time></trkpt><trkpt lat="44.6391118" lon="7.9829345"><ele>217.71428571428572</ele><time>2026-04-10T13:42:18.234Z</time></trkpt><trkpt lat="44.6390482" lon="7.9829485"><ele>217.42857142857144</ele><time>2026-04-10T13:42:20.235Z</time></trkpt><trkpt lat="44.638984" lon="7.9829648"><ele>217.14285714285714</ele><time>2026-04-10T13:42:22.235Z</time></trkpt><trkpt lat="44.6389163" lon="7.9829661"><ele>216.85714285714286</ele><time>2026-04-10T13:42:24.236Z</time></trkpt><trkpt lat="44.6388443" lon="7.9829718"><ele>216.57142857142856</ele><time>2026-04-10T13:42:26.236Z</time></trkpt><trkpt lat="44.6387778" lon="7.9829848"><ele>216.28571428571428</ele><time>2026-04-10T13:42:28.254Z</time></trkpt><trkpt lat="44.6387134" lon="7.9829988"><ele>216.0</ele><time>2026-04-10T13:42:30.254Z</time></trkpt><trkpt lat="44.6386423" lon="7.983027"><ele>215.5</ele><time>2026-04-10T13:42:32.255Z</time></trkpt><trkpt lat="44.6385758" lon="7.9830658"><ele>215.0</ele><time>2026-04-10T13:42:34.255Z</time></trkpt><trkpt lat="44.6385211" lon="7.9831109"><ele>214.5</ele><time>2026-04-10T13:42:36.254Z</time></trkpt><trkpt lat="44.6384563" lon="7.983196"><ele>214.0</ele><time>2026-04-10T13:42:39.256Z</time></trkpt><trkpt lat="44.6384318" lon="7.9833155"><ele>213.5</ele><time>2026-04-10T13:42:42.274Z</time></trkpt><trkpt lat="44.6384022" lon="7.9834412"><ele>213.0</ele><time>2026-04-10T13:42:45.291Z</time></trkpt><trkpt lat="44.6383587" lon="7.9835207"><ele>214.16666666666666</ele><time>2026-04-10T13:42:47.292Z</time></trkpt><trkpt lat="44.638321" lon="7.9835995"><ele>215.33333333333331</ele><time>2026-04-10T13:42:49.292Z</time></trkpt><trkpt lat="44.6382764" lon="7.983713"><ele>216.5</ele><time>2026-04-10T13:42:52.293Z</time></trkpt><trkpt lat="44.6382241" lon="7.9838126"><ele>217.66666666666666</ele><time>2026-04-10T13:42:55.229Z</time></trkpt><trkpt lat="44.6381718" lon="7.9839131"><ele>218.83333333333331</ele><time>2026-04-10T13:42:58.245Z</time></trkpt><trkpt lat="44.6381889" lon="7.9840016"><ele>220.0</ele><time>2026-04-10T13:43:00.245Z</time></trkpt><trkpt lat="44.6382016" lon="7.9841295"><ele>220.49999999999997</ele><time>2026-04-10T13:43:03.246Z</time></trkpt><trkpt lat="44.638195" lon="7.9842303"><ele>221.0</ele><time>2026-04-10T13:43:05.264Z</time></trkpt><trkpt lat="44.6381806" lon="7.9843249"><ele>221.5</ele><time>2026-04-10T13:43:07.264Z</time></trkpt><trkpt lat="44.6381613" lon="7.9844508"><ele>222.0</ele><time>2026-04-10T13:43:10.266Z</time></trkpt><trkpt lat="44.6381529" lon="7.9845588"><ele>222.49999999999997</ele><time>2026-04-10T13:43:13.172Z</time></trkpt><trkpt lat="44.6381552" lon="7.9846801"><ele>223.0</ele><time>2026-04-10T13:43:16.267Z</time></trkpt><trkpt lat="44.6381662" lon="7.9848136"><ele>223.0</ele><time>2026-04-10T13:43:19.268Z</time></trkpt><trkpt lat="44.6381856" lon="7.9849035"><ele>223.0</ele><time>2026-04-10T13:43:21.268Z</time></trkpt><trkpt lat="44.6382298" lon="7.9850041"><ele>223.0</ele><time>2026-04-10T13:43:24.269Z</time></trkpt><trkpt lat="44.6382521" lon="7.9850952"><ele>223.0</ele><time>2026-04-10T13:43:27.27Z</time></trkpt><trkpt lat="44.6382756" lon="7.9851796"><ele>223.0</ele><time>2026-04-10T13:43:31.271Z</time></trkpt><trkpt lat="44.6383037" lon="7.9852661"><ele>223.0</ele><time>2026-04-10T13:43:36.289Z</time></trkpt><trkpt lat="44.6383555" lon="7.9853428"><ele>223.0</ele><time>2026-04-10T13:44:31.287Z</time></trkpt><trkpt lat="44.6383776" lon="7.9854417"><ele>223.42857142857142</ele><time>2026-04-10T13:44:34.287Z</time></trkpt><trkpt lat="44.6384137" lon="7.9855473"><ele>223.85714285714283</ele><time>2026-04-10T13:44:37.281Z</time></trkpt><trkpt lat="44.6384413" lon="7.9856458"><ele>224.28571428571428</ele><time>2026-04-10T13:44:40.289Z</time></trkpt><trkpt lat="44.6384641" lon="7.9857363"><ele>224.71428571428572</ele><time>2026-04-10T13:44:43.307Z</time></trkpt><trkpt lat="44.6384654" lon="7.985826"><ele>225.14285714285714</ele><time>2026-04-10T13:44:47.275Z</time></trkpt><trkpt lat="44.6385066" lon="7.9859027"><ele>225.57142857142858</ele><time>2026-04-10T13:45:24.312Z</time></trkpt><trkpt lat="44.638536" lon="7.9860073"><ele>226.0</ele><time>2026-04-10T13:45:27.33Z</time></trkpt><trkpt lat="44.6385506" lon="7.9861251"><ele>226.57142857142858</ele><time>2026-04-10T13:45:30.265Z</time></trkpt><trkpt lat="44.6385709" lon="7.9862298"><ele>227.1428571428571</ele><time>2026-04-10T13:45:33.361Z</time></trkpt><trkpt lat="44.638593" lon="7.986322"><ele>227.7142857142857</ele><time>2026-04-10T13:45:36.333Z</time></trkpt><trkpt lat="44.6385893" lon="7.9864233"><ele>228.28571428571428</ele><time>2026-04-10T13:45:39.333Z</time></trkpt><trkpt lat="44.6385813" lon="7.9865217"><ele>228.85714285714283</ele><time>2026-04-10T13:45:42.251Z</time></trkpt><trkpt lat="44.6385777" lon="7.9866371"><ele>229.4285714285714</ele><time>2026-04-10T13:45:45.302Z</time></trkpt><trkpt lat="44.6385746" lon="7.9867422"><ele>229.99999999999997</ele><time>2026-04-10T13:45:48.319Z</time></trkpt><trkpt lat="44.6385629" lon="7.9868389"><ele>230.1428571428571</ele><time>2026-04-10T13:45:51.27Z</time></trkpt><trkpt lat="44.6385395" lon="7.9869323"><ele>230.28571428571428</ele><time>2026-04-10T13:45:54.289Z</time></trkpt><trkpt lat="44.638536" lon="7.9870354"><ele>230.42857142857142</ele><time>2026-04-10T13:45:57.289Z</time></trkpt><trkpt lat="44.6385408" lon="7.9871315"><ele>230.57142857142856</ele><time>2026-04-10T13:46:00.29Z</time></trkpt><trkpt lat="44.6385495" lon="7.9872376"><ele>230.71428571428572</ele><time>2026-04-10T13:46:03.29Z</time></trkpt><trkpt lat="44.6385575" lon="7.9873514"><ele>230.85714285714286</ele><time>2026-04-10T13:46:06.291Z</time></trkpt><trkpt lat="44.6385753" lon="7.9874574"><ele>231.0</ele><time>2026-04-10T13:46:09.309Z</time></trkpt><trkpt lat="44.6385492" lon="7.9875426"><ele>231.71428571428572</ele><time>2026-04-10T13:47:05.318Z</time></trkpt><trkpt lat="44.6385641" lon="7.9876352"><ele>232.42857142857144</ele><time>2026-04-10T13:47:08.335Z</time></trkpt><trkpt lat="44.6385721" lon="7.9877287"><ele>233.14285714285714</ele><time>2026-04-10T13:47:12.333Z</time></trkpt><trkpt lat="44.6385658" lon="7.9878282"><ele>233.85714285714286</ele><time>2026-04-10T13:47:16.305Z</time></trkpt><trkpt lat="44.638547" lon="7.9879132"><ele>234.57142857142858</ele><time>2026-04-10T13:47:19.239Z</time></trkpt><trkpt lat="44.6385363" lon="7.9880255"><ele>235.28571428571428</ele><time>2026-04-10T13:47:32.343Z</time></trkpt><trkpt lat="44.6385254" lon="7.9881131"><ele>236.0</ele><time>2026-04-10T13:47:36.289Z</time></trkpt><trkpt lat="44.6385618" lon="7.9882232"><ele>236.00000000000003</ele><time>2026-04-10T13:48:30.32Z</time></trkpt><trkpt lat="44.6386184" lon="7.98816"><ele>236.0</ele><time>2026-04-10T13:48:35.337Z</time></trkpt><trkpt lat="44.6386388" lon="7.9880536"><ele>236.0</ele><time>2026-04-10T13:48:39.272Z</time></trkpt><trkpt lat="44.6386748" lon="7.9879611"><ele>236.0</ele><time>2026-04-10T13:48:43.307Z</time></trkpt><trkpt lat="44.6387345" lon="7.9879042"><ele>236.00000000000003</ele><time>2026-04-10T13:48:47.234Z</time></trkpt><trkpt lat="44.6387732" lon="7.9878053"><ele>236.0</ele><time>2026-04-10T13:49:25.234Z</time></trkpt><trkpt lat="44.6387876" lon="7.987705"><ele>238.00000000000003</ele><time>2026-04-10T13:49:29.234Z</time></trkpt><trkpt lat="44.6388158" lon="7.9876032"><ele>240.0</ele><time>2026-04-10T13:49:33.234Z</time></trkpt><trkpt lat="44.6388176" lon="7.9874713"><ele>242.0</ele><time>2026-04-10T13:49:36.234Z</time></trkpt><trkpt lat="44.6388262" lon="7.9873475"><ele>244.0</ele><time>2026-04-10T13:49:39.236Z</time></trkpt><trkpt lat="44.6388357" lon="7.9872563"><ele>246.00000000000003</ele><time>2026-04-10T13:49:41.234Z</time></trkpt><trkpt lat="44.6388538" lon="7.9871336"><ele>248.0</ele><time>2026-04-10T13:49:44.234Z</time></trkpt><trkpt lat="44.638863" lon="7.9870386"><ele>248.00000000000003</ele><time>2026-04-10T13:49:46.234Z</time></trkpt><trkpt lat="44.6388775" lon="7.9869274"><ele>248.0</ele><time>2026-04-10T13:49:49.235Z</time></trkpt><trkpt lat="44.6389042" lon="7.9868131"><ele>248.0</ele><time>2026-04-10T13:49:52.234Z</time></trkpt><trkpt lat="44.6389184" lon="7.9867258"><ele>248.0</ele><time>2026-04-10T13:49:54.234Z</time></trkpt><trkpt lat="44.6389161" lon="7.9866342"><ele>248.00000000000003</ele><time>2026-04-10T13:49:58.234Z</time></trkpt><trkpt lat="44.6389323" lon="7.9865264"><ele>248.0</ele><time>2026-04-10T13:50:24.235Z</time></trkpt><trkpt lat="44.6389419" lon="7.9864068"><ele>247.33333333333334</ele><time>2026-04-10T13:50:27.235Z</time></trkpt><trkpt lat="44.6389567" lon="7.9862697"><ele>246.66666666666669</ele><time>2026-04-10T13:50:31.235Z</time></trkpt><trkpt lat="44.63896" lon="7.9861691"><ele>246.0</ele><time>2026-04-10T13:50:32.236Z</time></trkpt><trkpt lat="44.6389899" lon="7.9860514"><ele>245.33333333333331</ele><time>2026-04-10T13:50:34.235Z</time></trkpt><trkpt lat="44.6389821" lon="7.9859535"><ele>244.66666666666666</ele><time>2026-04-10T13:50:36.235Z</time></trkpt><trkpt lat="44.6389889" lon="7.9858413"><ele>244.0</ele><time>2026-04-10T13:50:38.235Z</time></trkpt><trkpt lat="44.6389945" lon="7.9857522"><ele>243.16666666666666</ele><time>2026-04-10T13:50:41.235Z</time></trkpt><trkpt lat="44.6389941" lon="7.9856358"><ele>242.33333333333331</ele><time>2026-04-10T13:50:44.235Z</time></trkpt><trkpt lat="44.6390029" lon="7.985519"><ele>241.5</ele><time>2026-04-10T13:50:47.235Z</time></trkpt><trkpt lat="44.6389909" lon="7.9854115"><ele>240.66666666666669</ele><time>2026-04-10T13:50:50.235Z</time></trkpt><trkpt lat="44.6389433" lon="7.9853436"><ele>239.83333333333334</ele><time>2026-04-10T13:50:53.235Z</time></trkpt><trkpt lat="44.6389094" lon="7.9852434"><ele>239.0</ele><time>2026-04-10T13:50:57.235Z</time></trkpt><trkpt lat="44.6388911" lon="7.985149"><ele>239.00000000000003</ele><time>2026-04-10T13:51:00.235Z</time></trkpt><trkpt lat="44.638874" lon="7.9850575"><ele>239.0</ele><time>2026-04-10T13:51:03.235Z</time></trkpt><trkpt lat="44.6388539" lon="7.9849701"><ele>239.00000000000003</ele><time>2026-04-10T13:51:06.235Z</time></trkpt><trkpt lat="44.6388461" lon="7.9848649"><ele>239.00000000000003</ele><time>2026-04-10T13:51:09.235Z</time></trkpt><trkpt lat="44.6388444" lon="7.9847708"><ele>239.0</ele><time>2026-04-10T13:51:12.235Z</time></trkpt><trkpt lat="44.6388603" lon="7.9846727"><ele>239.00000000000003</ele><time>2026-04-10T13:51:16.235Z</time></trkpt><trkpt lat="44.6388979" lon="7.9845762"><ele>239.00000000000003</ele><time>2026-04-10T13:51:21.236Z</time></trkpt><trkpt lat="44.6389624" lon="7.9845294"><ele>239.28571428571433</ele><time>2026-04-10T13:51:32.235Z</time></trkpt><trkpt lat="44.6390395" lon="7.9845486"><ele>239.57142857142858</ele><time>2026-04-10T13:51:39.236Z</time></trkpt><trkpt lat="44.6391085" lon="7.9845731"><ele>239.8571428571429</ele><time>2026-04-10T13:51:46.236Z</time></trkpt><trkpt lat="44.6391697" lon="7.9846087"><ele>240.14285714285717</ele><time>2026-04-10T13:51:53.236Z</time></trkpt><trkpt lat="44.6392374" lon="7.9846475"><ele>240.42857142857144</ele><time>2026-04-10T13:52:03.236Z</time></trkpt><trkpt lat="44.6392941" lon="7.9846873"><ele>240.71428571428572</ele><time>2026-04-10T13:52:09.236Z</time></trkpt><trkpt lat="44.6393602" lon="7.9847243"><ele>241.0</ele><time>2026-04-10T13:52:18.236Z</time></trkpt><trkpt lat="44.6394167" lon="7.984783"><ele>243.0</ele><time>2026-04-10T13:52:24.236Z</time></trkpt><trkpt lat="44.6394828" lon="7.984779"><ele>245.00000000000003</ele><time>2026-04-10T13:52:33.236Z</time></trkpt><trkpt lat="44.6395548" lon="7.9848158"><ele>247.0</ele><time>2026-04-10T13:52:43.236Z</time></trkpt><trkpt lat="44.6396248" lon="7.9848074"><ele>249.0</ele><time>2026-04-10T13:52:50.236Z</time></trkpt><trkpt lat="44.6396877" lon="7.9848303"><ele>251.00000000000003</ele><time>2026-04-10T13:53:02.237Z</time></trkpt><trkpt lat="44.6397528" lon="7.9848213"><ele>253.0</ele><time>2026-04-10T13:53:15.237Z</time></trkpt><trkpt lat="44.6398238" lon="7.98481"><ele>255.0</ele><time>2026-04-10T13:53:19.237Z</time></trkpt><trkpt lat="44.6399067" lon="7.9848013"><ele>255.0</ele><time>2026-04-10T13:53:22.237Z</time></trkpt><trkpt lat="44.6399804" lon="7.9847706"><ele>255.0</ele><time>2026-04-10T13:53:25.237Z</time></trkpt><trkpt lat="44.6400568" lon="7.9847501"><ele>255.0</ele><time>2026-04-10T13:53:28.238Z</time></trkpt><trkpt lat="44.6401395" lon="7.9847352"><ele>255.0</ele><time>2026-04-10T13:53:31.237Z</time></trkpt><trkpt lat="44.6402185" lon="7.9847082"><ele>255.0</ele><time>2026-04-10T13:53:34.237Z</time></trkpt><trkpt lat="44.6402983" lon="7.9846833"><ele>255.0</ele><time>2026-04-10T13:53:37.237Z</time></trkpt><trkpt lat="44.6403654" lon="7.9846876"><ele>253.66666666666666</ele><time>2026-04-10T13:53:39.237Z</time></trkpt><trkpt lat="44.640462" lon="7.9846711"><ele>252.33333333333331</ele><time>2026-04-10T13:53:42.237Z</time></trkpt><trkpt lat="44.6405438" lon="7.9846619"><ele>251.0</ele><time>2026-04-10T13:53:45.237Z</time></trkpt><trkpt lat="44.6406261" lon="7.9846759"><ele>249.66666666666666</ele><time>2026-04-10T13:53:48.238Z</time></trkpt><trkpt lat="44.6407156" lon="7.9847"><ele>248.33333333333331</ele><time>2026-04-10T13:53:51.237Z</time></trkpt><trkpt lat="44.64079" lon="7.9847581"><ele>247.0</ele><time>2026-04-10T13:53:54.238Z</time></trkpt><trkpt lat="44.6408073" lon="7.9848524"><ele>247.0</ele><time>2026-04-10T13:53:57.237Z</time></trkpt><trkpt lat="44.640829" lon="7.9849482"><ele>247.0</ele><time>2026-04-10T13:54:00.238Z</time></trkpt><trkpt lat="44.6408404" lon="7.9850589"><ele>247.0</ele><time>2026-04-10T13:54:04.237Z</time></trkpt><trkpt lat="44.6408341" lon="7.9851622"><ele>247.0</ele><time>2026-04-10T13:54:08.237Z</time></trkpt><trkpt lat="44.6408196" lon="7.9852551"><ele>247.0</ele><time>2026-04-10T13:54:12.238Z</time></trkpt><trkpt lat="44.6408086" lon="7.9853522"><ele>247.0</ele><time>2026-04-10T13:54:16.238Z</time></trkpt><trkpt lat="44.6407916" lon="7.9854379"><ele>247.0</ele><time>2026-04-10T13:54:20.238Z</time></trkpt><trkpt lat="44.640784" lon="7.9855301"><ele>248.0</ele><time>2026-04-10T13:54:24.238Z</time></trkpt><trkpt lat="44.6407623" lon="7.9856319"><ele>249.0</ele><time>2026-04-10T13:54:29.238Z</time></trkpt><trkpt lat="44.6407548" lon="7.9857332"><ele>250.0</ele><time>2026-04-10T13:54:33.239Z</time></trkpt><trkpt lat="44.6407656" lon="7.9858294"><ele>251.0</ele><time>2026-04-10T13:54:37.238Z</time></trkpt><trkpt lat="44.6407793" lon="7.9859235"><ele>252.0</ele><time>2026-04-10T13:54:41.238Z</time></trkpt><trkpt lat="44.6407981" lon="7.9860239"><ele>253.0</ele><time>2026-04-10T13:54:45.238Z</time></trkpt><trkpt lat="44.6408233" lon="7.9861252"><ele>254.0</ele><time>2026-04-10T13:54:49.238Z</time></trkpt><trkpt lat="44.6408359" lon="7.9862242"><ele>254.71428571428572</ele><time>2026-04-10T13:54:53.238Z</time></trkpt><trkpt lat="44.6408754" lon="7.9863192"><ele>255.42857142857142</ele><time>2026-04-10T13:54:57.238Z</time></trkpt><trkpt lat="44.6409185" lon="7.9864037"><ele>256.1428571428571</ele><time>2026-04-10T13:55:01.238Z</time></trkpt><trkpt lat="44.6409661" lon="7.9864869"><ele>256.8571428571429</ele><time>2026-04-10T13:55:05.238Z</time></trkpt><trkpt lat="44.6410193" lon="7.986546"><ele>257.57142857142856</ele><time>2026-04-10T13:55:09.238Z</time></trkpt><trkpt lat="44.6410858" lon="7.9866008"><ele>258.2857142857143</ele><time>2026-04-10T13:55:12.238Z</time></trkpt><trkpt lat="44.6411469" lon="7.9866558"><ele>259.0</ele><time>2026-04-10T13:55:16.238Z</time></trkpt><trkpt lat="44.6412096" lon="7.9866652"><ele>260.14285714285717</ele><time>2026-04-10T13:55:19.238Z</time></trkpt><trkpt lat="44.6412886" lon="7.9866951"><ele>261.2857142857143</ele><time>2026-04-10T13:55:23.238Z</time></trkpt><trkpt lat="44.6413606" lon="7.9867157"><ele>262.42857142857144</ele><time>2026-04-10T13:55:26.238Z</time></trkpt><trkpt lat="44.6414258" lon="7.9867399"><ele>263.57142857142856</ele><time>2026-04-10T13:55:29.239Z</time></trkpt><trkpt lat="44.6415019" lon="7.9867539"><ele>264.7142857142857</ele><time>2026-04-10T13:55:32.239Z</time></trkpt><trkpt lat="44.6415704" lon="7.9867694"><ele>265.8571428571429</ele><time>2026-04-10T13:55:35.239Z</time></trkpt><trkpt lat="44.6416322" lon="7.9867928"><ele>267.0</ele><time>2026-04-10T13:55:38.239Z</time></trkpt><trkpt lat="44.6416986" lon="7.9868194"><ele>267.00000000000006</ele><time>2026-04-10T13:55:41.239Z</time></trkpt><trkpt lat="44.6417707" lon="7.9868373"><ele>267.0</ele><time>2026-04-10T13:55:44.239Z</time></trkpt><trkpt lat="44.6418423" lon="7.9868564"><ele>267.0</ele><time>2026-04-10T13:55:48.239Z</time></trkpt><trkpt lat="44.6419075" lon="7.9868715"><ele>267.0</ele><time>2026-04-10T13:55:51.239Z</time></trkpt><trkpt lat="44.641894" lon="7.9869591"><ele>267.0</ele><time>2026-04-10T13:55:54.239Z</time></trkpt><trkpt lat="44.6418604" lon="7.9870527"><ele>267.00000000000006</ele><time>2026-04-10T13:55:58.239Z</time></trkpt><trkpt lat="44.6418378" lon="7.9871594"><ele>267.0</ele><time>2026-04-10T13:56:02.239Z</time></trkpt><trkpt lat="44.6418196" lon="7.9872557"><ele>267.00000000000006</ele><time>2026-04-10T13:56:06.239Z</time></trkpt><trkpt lat="44.6418085" lon="7.9873548"><ele>267.0</ele><time>2026-04-10T13:56:10.239Z</time></trkpt><trkpt lat="44.6417886" lon="7.9874421"><ele>267.0</ele><time>2026-04-10T13:56:14.239Z</time></trkpt><trkpt lat="44.6417618" lon="7.9875418"><ele>267.0</ele><time>2026-04-10T13:56:19.239Z</time></trkpt><trkpt lat="44.6417483" lon="7.987633"><ele>267.0</ele><time>2026-04-10T13:56:22.239Z</time></trkpt><trkpt lat="44.6417285" lon="7.9877263"><ele>267.00000000000006</ele><time>2026-04-10T13:56:26.239Z</time></trkpt><trkpt lat="44.6417051" lon="7.9878246"><ele>267.0</ele><time>2026-04-10T13:56:30.239Z</time></trkpt><trkpt lat="44.6416766" lon="7.9879042"><ele>267.00000000000006</ele><time>2026-04-10T13:56:34.239Z</time></trkpt><trkpt lat="44.6416564" lon="7.9879903"><ele>267.0</ele><time>2026-04-10T13:56:37.24Z</time></trkpt><trkpt lat="44.6416233" lon="7.9880929"><ele>267.0</ele><time>2026-04-10T13:56:41.24Z</time></trkpt><trkpt lat="44.6416057" lon="7.9881818"><ele>267.0</ele><time>2026-04-10T13:56:45.24Z</time></trkpt><trkpt lat="44.64158" lon="7.9882733"><ele>267.0</ele><time>2026-04-10T13:56:49.24Z</time></trkpt><trkpt lat="44.6415575" lon="7.9883597"><ele>267.00000000000006</ele><time>2026-04-10T13:56:54.24Z</time></trkpt><trkpt lat="44.6415251" lon="7.9884384"><ele>267.0</ele><time>2026-04-10T13:56:58.24Z</time></trkpt><trkpt lat="44.6415051" lon="7.9885302"><ele>266.5714285714286</ele><time>2026-04-10T13:57:02.24Z</time></trkpt><trkpt lat="44.6414861" lon="7.9886174"><ele>266.14285714285717</ele><time>2026-04-10T13:57:06.24Z</time></trkpt><trkpt lat="44.6414769" lon="7.9887212"><ele>265.7142857142857</ele><time>2026-04-10T13:57:11.24Z</time></trkpt><trkpt lat="44.641453" lon="7.9888202"><ele>265.28571428571433</ele><time>2026-04-10T13:57:15.24Z</time></trkpt><trkpt lat="44.6414261" lon="7.9889188"><ele>264.8571428571429</ele><time>2026-04-10T13:57:20.24Z</time></trkpt><trkpt lat="44.641405" lon="7.9890041"><ele>264.42857142857144</ele><time>2026-04-10T13:57:24.24Z</time></trkpt><trkpt lat="44.6413899" lon="7.9890901"><ele>264.0</ele><time>2026-04-10T13:57:28.24Z</time></trkpt><trkpt lat="44.6413671" lon="7.9891782"><ele>262.85714285714283</ele><time>2026-04-10T13:57:33.24Z</time></trkpt><trkpt lat="44.641338" lon="7.9892586"><ele>261.7142857142857</ele><time>2026-04-10T13:57:38.24Z</time></trkpt><trkpt lat="44.6413057" lon="7.9893607"><ele>260.57142857142856</ele><time>2026-04-10T13:57:43.24Z</time></trkpt><trkpt lat="44.6412833" lon="7.9894446"><ele>259.42857142857144</ele><time>2026-04-10T13:57:47.241Z</time></trkpt><trkpt lat="44.6412439" lon="7.9895353"><ele>258.2857142857143</ele><time>2026-04-10T13:57:53.24Z</time></trkpt><trkpt lat="44.6412242" lon="7.9896227"><ele>257.1428571428571</ele><time>2026-04-10T13:57:56.241Z</time></trkpt><trkpt lat="44.6411598" lon="7.9896687"><ele>256.0</ele><time>2026-04-10T13:58:01.241Z</time></trkpt><trkpt lat="44.6410778" lon="7.9897243"><ele>256.7142857142857</ele><time>2026-04-10T13:58:05.241Z</time></trkpt><trkpt lat="44.6410019" lon="7.9897743"><ele>257.4285714285714</ele><time>2026-04-10T13:58:08.241Z</time></trkpt><trkpt lat="44.6409326" lon="7.9898165"><ele>258.1428571428571</ele><time>2026-04-10T13:58:11.241Z</time></trkpt><trkpt lat="44.6408729" lon="7.9898568"><ele>258.85714285714283</ele><time>2026-04-10T13:58:14.242Z</time></trkpt><trkpt lat="44.640818" lon="7.9899119"><ele>259.57142857142856</ele><time>2026-04-10T13:58:17.241Z</time></trkpt><trkpt lat="44.6407542" lon="7.9899512"><ele>260.2857142857143</ele><time>2026-04-10T13:58:20.241Z</time></trkpt><trkpt lat="44.6406892" lon="7.9899862"><ele>261.0</ele><time>2026-04-10T13:58:23.241Z</time></trkpt><trkpt lat="44.640615" lon="7.9900363"><ele>261.0</ele><time>2026-04-10T13:58:26.241Z</time></trkpt><trkpt lat="44.6405474" lon="7.9900906"><ele>261.0</ele><time>2026-04-10T13:58:29.241Z</time></trkpt><trkpt lat="44.6404736" lon="7.990142"><ele>261.0</ele><time>2026-04-10T13:58:32.242Z</time></trkpt><trkpt lat="44.640394" lon="7.9901901"><ele>261.0</ele><time>2026-04-10T13:58:35.241Z</time></trkpt><trkpt lat="44.6403145" lon="7.9902505"><ele>261.0</ele><time>2026-04-10T13:58:38.241Z</time></trkpt><trkpt lat="44.6402353" lon="7.9903084"><ele>261.0</ele><time>2026-04-10T13:58:41.241Z</time></trkpt><trkpt lat="44.6401516" lon="7.9903667"><ele>264.1666666666667</ele><time>2026-04-10T13:58:44.241Z</time></trkpt><trkpt lat="44.6400753" lon="7.9904074"><ele>267.3333333333333</ele><time>2026-04-10T13:58:47.241Z</time></trkpt><trkpt lat="44.6400001" lon="7.9904682"><ele>270.5</ele><time>2026-04-10T13:58:50.242Z</time></trkpt><trkpt lat="44.6399488" lon="7.990545"><ele>273.66666666666663</ele><time>2026-04-10T13:58:53.241Z</time></trkpt><trkpt lat="44.6398788" lon="7.9906127"><ele>276.8333333333333</ele><time>2026-04-10T13:58:56.242Z</time></trkpt><trkpt lat="44.6398225" lon="7.9906577"><ele>280.0</ele><time>2026-04-10T13:58:59.241Z</time></trkpt><trkpt lat="44.63976" lon="7.9907057"><ele>280.0</ele><time>2026-04-10T13:59:02.241Z</time></trkpt><trkpt lat="44.6397041" lon="7.9907653"><ele>280.0</ele><time>2026-04-10T13:59:07.241Z</time></trkpt><trkpt lat="44.6396339" lon="7.9907632"><ele>280.0</ele><time>2026-04-10T13:59:22.242Z</time></trkpt><trkpt lat="44.6395719" lon="7.9907385"><ele>280.0</ele><time>2026-04-10T13:59:30.242Z</time></trkpt><trkpt lat="44.6395414" lon="7.9906222"><ele>280.0</ele><time>2026-04-10T14:00:30.243Z</time></trkpt><trkpt lat="44.6394718" lon="7.9905991"><ele>280.0</ele><time>2026-04-10T14:00:34.243Z</time></trkpt><trkpt lat="44.6394134" lon="7.9906611"><ele>280.0</ele><time>2026-04-10T14:01:39.244Z</time></trkpt><trkpt lat="44.6393689" lon="7.9907419"><ele>280.7142857142857</ele><time>2026-04-10T14:02:26.245Z</time></trkpt><trkpt lat="44.6393138" lon="7.9907954"><ele>281.42857142857144</ele><time>2026-04-10T14:02:30.244Z</time></trkpt><trkpt lat="44.6392547" lon="7.9908645"><ele>282.1428571428571</ele><time>2026-04-10T14:02:34.245Z</time></trkpt><trkpt lat="44.6391987" lon="7.9909409"><ele>282.8571428571429</ele><time>2026-04-10T14:02:38.245Z</time></trkpt><trkpt lat="44.6391593" lon="7.9910292"><ele>283.57142857142856</ele><time>2026-04-10T14:02:42.245Z</time></trkpt><trkpt lat="44.6391141" lon="7.9911026"><ele>284.2857142857143</ele><time>2026-04-10T14:02:45.245Z</time></trkpt><trkpt lat="44.6390731" lon="7.9911908"><ele>285.0</ele><time>2026-04-10T14:02:48.245Z</time></trkpt><trkpt lat="44.6390389" lon="7.9912712"><ele>286.0</ele><time>2026-04-10T14:02:51.245Z</time></trkpt><trkpt lat="44.6390063" lon="7.9913495"><ele>287.0</ele><time>2026-04-10T14:02:54.245Z</time></trkpt><trkpt lat="44.6389696" lon="7.9914278"><ele>288.0</ele><time>2026-04-10T14:02:57.245Z</time></trkpt><trkpt lat="44.6389375" lon="7.9915112"><ele>289.0</ele><time>2026-04-10T14:03:00.245Z</time></trkpt><trkpt lat="44.6389052" lon="7.9915888"><ele>290.0</ele><time>2026-04-10T14:03:03.245Z</time></trkpt><trkpt lat="44.6388629" lon="7.9916748"><ele>291.0</ele><time>2026-04-10T14:03:07.245Z</time></trkpt><trkpt lat="44.638814" lon="7.99176"><ele>292.0</ele><time>2026-04-10T14:03:12.245Z</time></trkpt><trkpt lat="44.6387815" lon="7.9918455"><ele>292.0</ele><time>2026-04-10T14:03:16.245Z</time></trkpt><trkpt lat="44.6387438" lon="7.9919263"><ele>292.0</ele><time>2026-04-10T14:03:21.245Z</time></trkpt><trkpt lat="44.6386962" lon="7.9920173"><ele>292.0</ele><time>2026-04-10T14:03:26.245Z</time></trkpt><trkpt lat="44.6386553" lon="7.9920917"><ele>292.0</ele><time>2026-04-10T14:03:30.245Z</time></trkpt><trkpt lat="44.6386176" lon="7.9921659"><ele>292.0</ele><time>2026-04-10T14:03:34.245Z</time></trkpt><trkpt lat="44.638584" lon="7.9922487"><ele>292.0</ele><time>2026-04-10T14:03:38.245Z</time></trkpt><trkpt lat="44.638554" lon="7.9923301"><ele>292.0</ele><time>2026-04-10T14:03:41.245Z</time></trkpt><trkpt lat="44.6385194" lon="7.9924094"><ele>292.16666666666663</ele><time>2026-04-10T14:03:44.245Z</time></trkpt><trkpt lat="44.6384798" lon="7.9924787"><ele>292.3333333333333</ele><time>2026-04-10T14:03:46.245Z</time></trkpt><trkpt lat="44.6384161" lon="7.9925672"><ele>292.5</ele><time>2026-04-10T14:03:48.246Z</time></trkpt><trkpt lat="44.6383311" lon="7.9926777"><ele>292.6666666666667</ele><time>2026-04-10T14:03:50.246Z</time></trkpt><trkpt lat="44.638284" lon="7.9927369"><ele>292.83333333333337</ele><time>2026-04-10T14:03:51.245Z</time></trkpt><trkpt lat="44.638236" lon="7.9927945"><ele>293.0</ele><time>2026-04-10T14:03:52.246Z</time></trkpt><trkpt lat="44.6381382" lon="7.9929123"><ele>292.2</ele><time>2026-04-10T14:03:54.246Z</time></trkpt><trkpt lat="44.6380873" lon="7.9929773"><ele>291.4</ele><time>2026-04-10T14:03:55.246Z</time></trkpt><trkpt lat="44.6380028" lon="7.993096"><ele>290.59999999999997</ele><time>2026-04-10T14:03:57.246Z</time></trkpt><trkpt lat="44.6379326" lon="7.9932089"><ele>289.8</ele><time>2026-04-10T14:03:59.246Z</time></trkpt><trkpt lat="44.63788" lon="7.9933261"><ele>289.0</ele><time>2026-04-10T14:04:01.246Z</time></trkpt><trkpt lat="44.6378374" lon="7.9934053"><ele>290.8333333333333</ele><time>2026-04-10T14:04:03.246Z</time></trkpt><trkpt lat="44.6377959" lon="7.9934779"><ele>292.66666666666663</ele><time>2026-04-10T14:04:05.246Z</time></trkpt><trkpt lat="44.6377474" lon="7.9935583"><ele>294.5</ele><time>2026-04-10T14:04:07.246Z</time></trkpt><trkpt lat="44.6376961" lon="7.9936444"><ele>296.3333333333333</ele><time>2026-04-10T14:04:10.246Z</time></trkpt><trkpt lat="44.6376524" lon="7.9937377"><ele>298.1666666666667</ele><time>2026-04-10T14:04:13.246Z</time></trkpt><trkpt lat="44.6376111" lon="7.9938389"><ele>300.0</ele><time>2026-04-10T14:04:16.246Z</time></trkpt><trkpt lat="44.6375586" lon="7.9939061"><ele>299.99999999999994</ele><time>2026-04-10T14:04:19.246Z</time></trkpt><trkpt lat="44.6375164" lon="7.9939856"><ele>300.0</ele><time>2026-04-10T14:04:24.246Z</time></trkpt><trkpt lat="44.6374822" lon="7.9940752"><ele>300.0</ele><time>2026-04-10T14:04:37.246Z</time></trkpt><trkpt lat="44.6374448" lon="7.9941529"><ele>300.0</ele><time>2026-04-10T14:04:43.247Z</time></trkpt><trkpt lat="44.6373842" lon="7.9941902"><ele>300.0</ele><time>2026-04-10T14:04:53.246Z</time></trkpt><trkpt lat="44.6373918" lon="7.9942838"><ele>299.99999999999994</ele><time>2026-04-10T14:05:50.331Z</time></trkpt><trkpt lat="44.6373274" lon="7.9942961"><ele>300.0</ele><time>2026-04-10T14:05:56.359Z</time></trkpt><trkpt lat="44.637306" lon="7.9943851"><ele>300.2857142857143</ele><time>2026-04-10T14:06:02.249Z</time></trkpt><trkpt lat="44.6372823" lon="7.9944675"><ele>300.57142857142856</ele><time>2026-04-10T14:06:09.319Z</time></trkpt><trkpt lat="44.6372533" lon="7.9945464"><ele>300.8571428571429</ele><time>2026-04-10T14:06:16.321Z</time></trkpt><trkpt lat="44.6372173" lon="7.9946288"><ele>301.1428571428571</ele><time>2026-04-10T14:06:36.189Z</time></trkpt><trkpt lat="44.6371654" lon="7.9946904"><ele>301.42857142857144</ele><time>2026-04-10T14:06:39.247Z</time></trkpt><trkpt lat="44.6371036" lon="7.9947594"><ele>301.7142857142857</ele><time>2026-04-10T14:06:42.265Z</time></trkpt><trkpt lat="44.6370349" lon="7.9948039"><ele>302.0</ele><time>2026-04-10T14:06:44.249Z</time></trkpt><trkpt lat="44.6369562" lon="7.9948545"><ele>302.6666666666667</ele><time>2026-04-10T14:06:46.344Z</time></trkpt><trkpt lat="44.6368958" lon="7.994919"><ele>303.33333333333337</ele><time>2026-04-10T14:06:48.345Z</time></trkpt><trkpt lat="44.6368321" lon="7.9949624"><ele>304.0</ele><time>2026-04-10T14:06:50.357Z</time></trkpt><trkpt lat="44.6367565" lon="7.9949687"><ele>304.6666666666667</ele><time>2026-04-10T14:06:53.279Z</time></trkpt><trkpt lat="44.6366873" lon="7.9949857"><ele>305.3333333333333</ele><time>2026-04-10T14:06:56.263Z</time></trkpt><trkpt lat="44.6366084" lon="7.9950174"><ele>306.0</ele><time>2026-04-10T14:06:59.219Z</time></trkpt><trkpt lat="44.6365339" lon="7.9950535"><ele>306.1428571428571</ele><time>2026-04-10T14:07:02.187Z</time></trkpt><trkpt lat="44.636471" lon="7.9950929"><ele>306.2857142857143</ele><time>2026-04-10T14:07:05.304Z</time></trkpt><trkpt lat="44.6363977" lon="7.9951254"><ele>306.42857142857144</ele><time>2026-04-10T14:07:08.266Z</time></trkpt><trkpt lat="44.6363248" lon="7.9951592"><ele>306.57142857142856</ele><time>2026-04-10T14:07:11.266Z</time></trkpt><trkpt lat="44.6362564" lon="7.9952031"><ele>306.7142857142857</ele><time>2026-04-10T14:07:14.301Z</time></trkpt><trkpt lat="44.6361993" lon="7.9952424"><ele>306.85714285714283</ele><time>2026-04-10T14:07:17.301Z</time></trkpt><trkpt lat="44.636125" lon="7.9952793"><ele>307.0</ele><time>2026-04-10T14:07:21.335Z</time></trkpt><trkpt lat="44.6360624" lon="7.9952691"><ele>306.99999999999994</ele><time>2026-04-10T14:07:30.249Z</time></trkpt><trkpt lat="44.6359976" lon="7.9952607"><ele>307.0</ele><time>2026-04-10T14:07:38.249Z</time></trkpt><trkpt lat="44.6359292" lon="7.9952346"><ele>307.0</ele><time>2026-04-10T14:07:47.249Z</time></trkpt><trkpt lat="44.6358746" lon="7.995154"><ele>307.0</ele><time>2026-04-10T14:08:02.249Z</time></trkpt><trkpt lat="44.6357995" lon="7.9951205"><ele>307.0</ele><time>2026-04-10T14:08:05.249Z</time></trkpt><trkpt lat="44.6357355" lon="7.995082"><ele>306.99999999999994</ele><time>2026-04-10T14:08:07.249Z</time></trkpt><trkpt lat="44.6356751" lon="7.9950189"><ele>307.0</ele><time>2026-04-10T14:08:09.249Z</time></trkpt><trkpt lat="44.6356" lon="7.9949416"><ele>307.57142857142856</ele><time>2026-04-10T14:08:12.249Z</time></trkpt><trkpt lat="44.6355394" lon="7.9948874"><ele>308.1428571428571</ele><time>2026-04-10T14:08:14.249Z</time></trkpt><trkpt lat="44.6354874" lon="7.9948348"><ele>308.71428571428567</ele><time>2026-04-10T14:08:16.249Z</time></trkpt><trkpt lat="44.6354379" lon="7.9947749"><ele>309.2857142857143</ele><time>2026-04-10T14:08:18.249Z</time></trkpt><trkpt lat="44.6353899" lon="7.994707"><ele>309.8571428571429</ele><time>2026-04-10T14:08:20.249Z</time></trkpt><trkpt lat="44.6353437" lon="7.9946088"><ele>310.4285714285714</ele><time>2026-04-10T14:08:22.249Z</time></trkpt><trkpt lat="44.6353139" lon="7.9945118"><ele>311.0</ele><time>2026-04-10T14:08:24.25Z</time></trkpt><trkpt lat="44.635272" lon="7.9944185"><ele>311.0</ele><time>2026-04-10T14:08:26.249Z</time></trkpt><trkpt lat="44.6352245" lon="7.9943252"><ele>311.0</ele><time>2026-04-10T14:08:28.249Z</time></trkpt><trkpt lat="44.6351788" lon="7.9942432"><ele>311.0</ele><time>2026-04-10T14:08:30.249Z</time></trkpt><trkpt lat="44.6351265" lon="7.9941772"><ele>311.0</ele><time>2026-04-10T14:08:32.251Z</time></trkpt><trkpt lat="44.6350713" lon="7.9941178"><ele>311.0</ele><time>2026-04-10T14:08:34.249Z</time></trkpt><trkpt lat="44.6349988" lon="7.9940729"><ele>311.0</ele><time>2026-04-10T14:08:37.249Z</time></trkpt><trkpt lat="44.6349337" lon="7.9940279"><ele>311.0</ele><time>2026-04-10T14:08:41.25Z</time></trkpt><trkpt lat="44.6348676" lon="7.9939825"><ele>311.0</ele><time>2026-04-10T14:08:43.251Z</time></trkpt><trkpt lat="44.634798" lon="7.9939482"><ele>311.0</ele><time>2026-04-10T14:08:45.25Z</time></trkpt><trkpt lat="44.6347147" lon="7.9939258"><ele>311.0</ele><time>2026-04-10T14:08:47.25Z</time></trkpt><trkpt lat="44.6346246" lon="7.9939012"><ele>311.0</ele><time>2026-04-10T14:08:49.25Z</time></trkpt><trkpt lat="44.6345321" lon="7.9938738"><ele>311.0</ele><time>2026-04-10T14:08:51.25Z</time></trkpt><trkpt lat="44.6344353" lon="7.9938374"><ele>311.0</ele><time>2026-04-10T14:08:53.25Z</time></trkpt><trkpt lat="44.6343526" lon="7.9937882"><ele>310.1666666666667</ele><time>2026-04-10T14:08:55.25Z</time></trkpt><trkpt lat="44.6342808" lon="7.9937365"><ele>309.33333333333337</ele><time>2026-04-10T14:08:57.25Z</time></trkpt><trkpt lat="44.6342098" lon="7.9936801"><ele>308.5</ele><time>2026-04-10T14:08:59.25Z</time></trkpt><trkpt lat="44.6341403" lon="7.993614"><ele>307.6666666666667</ele><time>2026-04-10T14:09:01.25Z</time></trkpt><trkpt lat="44.634087" lon="7.9935473"><ele>306.8333333333333</ele><time>2026-04-10T14:09:03.251Z</time></trkpt><trkpt lat="44.6340084" lon="7.9934626"><ele>306.0</ele><time>2026-04-10T14:09:06.25Z</time></trkpt><trkpt lat="44.6339457" lon="7.9933795"><ele>306.3333333333333</ele><time>2026-04-10T14:09:08.25Z</time></trkpt><trkpt lat="44.6338897" lon="7.9933163"><ele>306.6666666666667</ele><time>2026-04-10T14:09:10.25Z</time></trkpt><trkpt lat="44.6338167" lon="7.9932734"><ele>307.0</ele><time>2026-04-10T14:09:13.25Z</time></trkpt><trkpt lat="44.6337432" lon="7.9932202"><ele>307.33333333333337</ele><time>2026-04-10T14:09:16.25Z</time></trkpt><trkpt lat="44.6336783" lon="7.9931352"><ele>307.6666666666667</ele><time>2026-04-10T14:09:19.25Z</time></trkpt><trkpt lat="44.6336205" lon="7.9930844"><ele>308.0</ele><time>2026-04-10T14:09:21.25Z</time></trkpt><trkpt lat="44.6335552" lon="7.9930337"><ele>308.0</ele><time>2026-04-10T14:09:23.251Z</time></trkpt><trkpt lat="44.6334968" lon="7.9929941"><ele>308.0</ele><time>2026-04-10T14:09:25.25Z</time></trkpt><trkpt lat="44.6334329" lon="7.9929551"><ele>308.0</ele><time>2026-04-10T14:09:27.25Z</time></trkpt><trkpt lat="44.6333598" lon="7.9929017"><ele>308.0</ele><time>2026-04-10T14:09:29.25Z</time></trkpt><trkpt lat="44.6332872" lon="7.9928447"><ele>308.0</ele><time>2026-04-10T14:09:31.25Z</time></trkpt><trkpt lat="44.6332019" lon="7.9927788"><ele>308.0</ele><time>2026-04-10T14:09:33.25Z</time></trkpt><trkpt lat="44.6331074" lon="7.9927441"><ele>308.0</ele><time>2026-04-10T14:09:35.251Z</time></trkpt><trkpt lat="44.6330167" lon="7.9927627"><ele>308.0</ele><time>2026-04-10T14:09:37.25Z</time></trkpt><trkpt lat="44.6329524" lon="7.9927762"><ele>308.0</ele><time>2026-04-10T14:09:39.25Z</time></trkpt><trkpt lat="44.6328603" lon="7.9927802"><ele>308.0</ele><time>2026-04-10T14:09:42.25Z</time></trkpt><trkpt lat="44.6327894" lon="7.9927627"><ele>308.0</ele><time>2026-04-10T14:09:44.251Z</time></trkpt><trkpt lat="44.6327245" lon="7.9927686"><ele>308.0</ele><time>2026-04-10T14:09:47.25Z</time></trkpt><trkpt lat="44.6326357" lon="7.9927637"><ele>306.8</ele><time>2026-04-10T14:09:50.251Z</time></trkpt><trkpt lat="44.6325576" lon="7.9927426"><ele>305.6</ele><time>2026-04-10T14:09:52.25Z</time></trkpt><trkpt lat="44.6324939" lon="7.9927032"><ele>304.4</ele><time>2026-04-10T14:09:55.251Z</time></trkpt><trkpt lat="44.6323934" lon="7.9927167"><ele>303.2</ele><time>2026-04-10T14:10:00.251Z</time></trkpt><trkpt lat="44.6322714" lon="7.9926973"><ele>302.0</ele><time>2026-04-10T14:10:02.251Z</time></trkpt><trkpt lat="44.6321526" lon="7.9926538"><ele>302.0</ele><time>2026-04-10T14:10:04.252Z</time></trkpt><trkpt lat="44.6320625" lon="7.9925949"><ele>302.0</ele><time>2026-04-10T14:10:06.251Z</time></trkpt><trkpt lat="44.6319902" lon="7.9925593"><ele>302.0</ele><time>2026-04-10T14:10:10.251Z</time></trkpt><trkpt lat="44.6319255" lon="7.9924972"><ele>302.0</ele><time>2026-04-10T14:10:13.252Z</time></trkpt><trkpt lat="44.6318589" lon="7.9924683"><ele>302.0</ele><time>2026-04-10T14:10:17.252Z</time></trkpt><trkpt lat="44.6317761" lon="7.9923955"><ele>302.0</ele><time>2026-04-10T14:10:20.251Z</time></trkpt><trkpt lat="44.6317101" lon="7.9923623"><ele>301.6666666666667</ele><time>2026-04-10T14:10:22.251Z</time></trkpt><trkpt lat="44.6316278" lon="7.9923334"><ele>301.33333333333337</ele><time>2026-04-10T14:10:25.251Z</time></trkpt><trkpt lat="44.6315639" lon="7.9922804"><ele>301.0</ele><time>2026-04-10T14:10:28.251Z</time></trkpt><trkpt lat="44.6314877" lon="7.9922203"><ele>300.6666666666667</ele><time>2026-04-10T14:10:31.251Z</time></trkpt><trkpt lat="44.6314112" lon="7.9921676"><ele>300.3333333333333</ele><time>2026-04-10T14:10:34.252Z</time></trkpt><trkpt lat="44.6313557" lon="7.992111"><ele>300.0</ele><time>2026-04-10T14:10:37.251Z</time></trkpt><trkpt lat="44.6312989" lon="7.9920642"><ele>300.0</ele><time>2026-04-10T14:10:39.251Z</time></trkpt><trkpt lat="44.631241" lon="7.9920097"><ele>300.0</ele><time>2026-04-10T14:10:41.251Z</time></trkpt><trkpt lat="44.6311566" lon="7.9919411"><ele>300.0</ele><time>2026-04-10T14:10:44.251Z</time></trkpt><trkpt lat="44.6310859" lon="7.9919002"><ele>300.0</ele><time>2026-04-10T14:10:46.251Z</time></trkpt><trkpt lat="44.6310229" lon="7.9918529"><ele>300.0</ele><time>2026-04-10T14:10:48.251Z</time></trkpt><trkpt lat="44.6309568" lon="7.9918105"><ele>300.0</ele><time>2026-04-10T14:10:51.251Z</time></trkpt><trkpt lat="44.6308774" lon="7.9917905"><ele>299.6666666666667</ele><time>2026-04-10T14:10:54.252Z</time></trkpt><trkpt lat="44.6307865" lon="7.9917621"><ele>299.3333333333333</ele><time>2026-04-10T14:10:57.251Z</time></trkpt><trkpt lat="44.6307019" lon="7.9917677"><ele>299.0</ele><time>2026-04-10T14:11:00.252Z</time></trkpt><trkpt lat="44.6306386" lon="7.991779"><ele>298.66666666666663</ele><time>2026-04-10T14:11:02.252Z</time></trkpt><trkpt lat="44.6305678" lon="7.9918011"><ele>298.3333333333333</ele><time>2026-04-10T14:11:05.252Z</time></trkpt><trkpt lat="44.6305002" lon="7.9918131"><ele>298.0</ele><time>2026-04-10T14:11:08.252Z</time></trkpt><trkpt lat="44.6304223" lon="7.9918339"><ele>298.0</ele><time>2026-04-10T14:11:11.252Z</time></trkpt><trkpt lat="44.6303462" lon="7.9918476"><ele>298.0</ele><time>2026-04-10T14:11:14.252Z</time></trkpt><trkpt lat="44.6302798" lon="7.9918784"><ele>298.0</ele><time>2026-04-10T14:11:17.252Z</time></trkpt><trkpt lat="44.6302002" lon="7.9918933"><ele>298.0</ele><time>2026-04-10T14:11:21.252Z</time></trkpt><trkpt lat="44.6301146" lon="7.9919023"><ele>298.0</ele><time>2026-04-10T14:11:25.252Z</time></trkpt><trkpt lat="44.6300375" lon="7.991934"><ele>298.0</ele><time>2026-04-10T14:11:29.252Z</time></trkpt><trkpt lat="44.6299616" lon="7.9919526"><ele>299.3333333333333</ele><time>2026-04-10T14:11:32.252Z</time></trkpt><trkpt lat="44.6298913" lon="7.9919572"><ele>300.66666666666663</ele><time>2026-04-10T14:11:36.252Z</time></trkpt><trkpt lat="44.6298268" lon="7.9919837"><ele>302.0</ele><time>2026-04-10T14:11:39.252Z</time></trkpt><trkpt lat="44.6297544" lon="7.9920092"><ele>303.3333333333333</ele><time>2026-04-10T14:11:43.253Z</time></trkpt><trkpt lat="44.629666" lon="7.9920288"><ele>304.6666666666667</ele><time>2026-04-10T14:11:47.252Z</time></trkpt><trkpt lat="44.6295944" lon="7.9920249"><ele>306.0</ele><time>2026-04-10T14:11:50.252Z</time></trkpt><trkpt lat="44.6295087" lon="7.9920523"><ele>306.8333333333333</ele><time>2026-04-10T14:11:53.252Z</time></trkpt><trkpt lat="44.6294352" lon="7.9920475"><ele>307.6666666666667</ele><time>2026-04-10T14:11:56.253Z</time></trkpt><trkpt lat="44.6293518" lon="7.9920444"><ele>308.5</ele><time>2026-04-10T14:11:59.252Z</time></trkpt><trkpt lat="44.6292688" lon="7.9920531"><ele>309.33333333333337</ele><time>2026-04-10T14:12:02.252Z</time></trkpt><trkpt lat="44.6291889" lon="7.9920618"><ele>310.1666666666667</ele><time>2026-04-10T14:12:05.252Z</time></trkpt><trkpt lat="44.6291133" lon="7.9920582"><ele>311.0</ele><time>2026-04-10T14:12:08.253Z</time></trkpt><trkpt lat="44.6290297" lon="7.9920905"><ele>311.0</ele><time>2026-04-10T14:12:11.252Z</time></trkpt><trkpt lat="44.6289638" lon="7.9921165"><ele>311.0</ele><time>2026-04-10T14:12:14.252Z</time></trkpt><trkpt lat="44.6288913" lon="7.9921308"><ele>311.0</ele><time>2026-04-10T14:12:17.253Z</time></trkpt><trkpt lat="44.6288087" lon="7.9921673"><ele>311.0</ele><time>2026-04-10T14:12:20.253Z</time></trkpt><trkpt lat="44.6287267" lon="7.9922027"><ele>311.0</ele><time>2026-04-10T14:12:23.254Z</time></trkpt><trkpt lat="44.6286581" lon="7.9922241"><ele>311.0</ele><time>2026-04-10T14:12:26.253Z</time></trkpt><trkpt lat="44.6285878" lon="7.9922508"><ele>311.85714285714283</ele><time>2026-04-10T14:12:29.254Z</time></trkpt><trkpt lat="44.6285177" lon="7.9922666"><ele>312.7142857142857</ele><time>2026-04-10T14:12:32.254Z</time></trkpt><trkpt lat="44.6284482" lon="7.9922958"><ele>313.57142857142856</ele><time>2026-04-10T14:12:35.253Z</time></trkpt><trkpt lat="44.6283805" lon="7.9923351"><ele>314.42857142857144</ele><time>2026-04-10T14:12:38.253Z</time></trkpt><trkpt lat="44.6283123" lon="7.9923884"><ele>315.2857142857143</ele><time>2026-04-10T14:12:41.253Z</time></trkpt><trkpt lat="44.6282485" lon="7.9924305"><ele>316.14285714285717</ele><time>2026-04-10T14:12:44.253Z</time></trkpt><trkpt lat="44.6281826" lon="7.9924744"><ele>317.0</ele><time>2026-04-10T14:12:47.253Z</time></trkpt><trkpt lat="44.6281145" lon="7.9925211"><ele>317.0</ele><time>2026-04-10T14:12:50.253Z</time></trkpt><trkpt lat="44.6280543" lon="7.9925567"><ele>317.0</ele><time>2026-04-10T14:12:53.253Z</time></trkpt><trkpt lat="44.6279875" lon="7.9925957"><ele>317.0</ele><time>2026-04-10T14:12:56.253Z</time></trkpt><trkpt lat="44.6279216" lon="7.9926364"><ele>317.0</ele><time>2026-04-10T14:12:59.253Z</time></trkpt><trkpt lat="44.6278536" lon="7.9926859"><ele>317.0</ele><time>2026-04-10T14:13:03.253Z</time></trkpt><trkpt lat="44.6277902" lon="7.9927321"><ele>317.0</ele><time>2026-04-10T14:13:06.253Z</time></trkpt><trkpt lat="44.6277264" lon="7.992775"><ele>317.0</ele><time>2026-04-10T14:13:09.254Z</time></trkpt><trkpt lat="44.6276677" lon="7.9928102"><ele>319.0</ele><time>2026-04-10T14:13:12.253Z</time></trkpt><trkpt lat="44.6276031" lon="7.9928535"><ele>321.0</ele><time>2026-04-10T14:13:15.253Z</time></trkpt><trkpt lat="44.6275419" lon="7.9929035"><ele>323.0</ele><time>2026-04-10T14:13:18.254Z</time></trkpt><trkpt lat="44.6274738" lon="7.9929546"><ele>325.0</ele><time>2026-04-10T14:13:21.254Z</time></trkpt><trkpt lat="44.6274158" lon="7.9930077"><ele>327.0</ele><time>2026-04-10T14:13:24.254Z</time></trkpt><trkpt lat="44.627352" lon="7.9930852"><ele>329.0</ele><time>2026-04-10T14:13:27.254Z</time></trkpt><trkpt lat="44.6272912" lon="7.993144"><ele>331.0</ele><time>2026-04-10T14:13:30.254Z</time></trkpt><trkpt lat="44.6272261" lon="7.9932198"><ele>331.0</ele><time>2026-04-10T14:13:33.254Z</time></trkpt><trkpt lat="44.6271926" lon="7.9933215"><ele>331.0</ele><time>2026-04-10T14:13:36.254Z</time></trkpt><trkpt lat="44.6271463" lon="7.9933899"><ele>331.0</ele><time>2026-04-10T14:13:39.255Z</time></trkpt><trkpt lat="44.6270995" lon="7.9934694"><ele>331.0</ele><time>2026-04-10T14:13:42.254Z</time></trkpt><trkpt lat="44.6270639" lon="7.9935567"><ele>331.0</ele><time>2026-04-10T14:13:45.254Z</time></trkpt><trkpt lat="44.6270251" lon="7.9936337"><ele>331.0</ele><time>2026-04-10T14:13:48.254Z</time></trkpt><trkpt lat="44.6269771" lon="7.9937154"><ele>331.0</ele><time>2026-04-10T14:13:51.255Z</time></trkpt><trkpt lat="44.6269292" lon="7.9937859"><ele>332.0</ele><time>2026-04-10T14:13:54.254Z</time></trkpt><trkpt lat="44.6268928" lon="7.9938666"><ele>333.0</ele><time>2026-04-10T14:13:57.254Z</time></trkpt><trkpt lat="44.626853" lon="7.9939531"><ele>334.0</ele><time>2026-04-10T14:14:00.254Z</time></trkpt><trkpt lat="44.626813" lon="7.9940383"><ele>335.0</ele><time>2026-04-10T14:14:03.254Z</time></trkpt><trkpt lat="44.6267849" lon="7.9941191"><ele>336.0</ele><time>2026-04-10T14:14:06.255Z</time></trkpt><trkpt lat="44.6267421" lon="7.9942115"><ele>337.0</ele><time>2026-04-10T14:14:10.254Z</time></trkpt><trkpt lat="44.6266846" lon="7.9943011"><ele>338.0</ele><time>2026-04-10T14:14:14.254Z</time></trkpt><trkpt lat="44.626649" lon="7.9943873"><ele>338.57142857142856</ele><time>2026-04-10T14:14:17.254Z</time></trkpt><trkpt lat="44.6266114" lon="7.9944726"><ele>339.1428571428571</ele><time>2026-04-10T14:14:20.254Z</time></trkpt><trkpt lat="44.6265711" lon="7.9945482"><ele>339.71428571428567</ele><time>2026-04-10T14:14:23.254Z</time></trkpt><trkpt lat="44.6265326" lon="7.9946427"><ele>340.2857142857143</ele><time>2026-04-10T14:14:27.254Z</time></trkpt><trkpt lat="44.6265061" lon="7.9947253"><ele>340.85714285714283</ele><time>2026-04-10T14:14:30.254Z</time></trkpt><trkpt lat="44.6264931" lon="7.9948297"><ele>341.4285714285714</ele><time>2026-04-10T14:15:50.357Z</time></trkpt><trkpt lat="44.6264843" lon="7.9949189"><ele>342.0</ele><time>2026-04-10T14:15:52.357Z</time></trkpt><trkpt lat="44.6264547" lon="7.9950018"><ele>343.4285714285714</ele><time>2026-04-10T14:15:54.258Z</time></trkpt><trkpt lat="44.6264235" lon="7.9951012"><ele>344.85714285714283</ele><time>2026-04-10T14:15:56.359Z</time></trkpt><trkpt lat="44.6264017" lon="7.9951932"><ele>346.2857142857143</ele><time>2026-04-10T14:15:58.359Z</time></trkpt><trkpt lat="44.6263796" lon="7.9952939"><ele>347.71428571428567</ele><time>2026-04-10T14:16:00.259Z</time></trkpt><trkpt lat="44.6263551" lon="7.9953948"><ele>349.1428571428571</ele><time>2026-04-10T14:16:02.36Z</time></trkpt><trkpt lat="44.626332" lon="7.9954824"><ele>350.57142857142856</ele><time>2026-04-10T14:16:04.277Z</time></trkpt><trkpt lat="44.6263046" lon="7.9955728"><ele>352.0</ele><time>2026-04-10T14:16:06.378Z</time></trkpt><trkpt lat="44.6262753" lon="7.9956586"><ele>352.0</ele><time>2026-04-10T14:16:08.378Z</time></trkpt><trkpt lat="44.6262512" lon="7.9957451"><ele>352.0</ele><time>2026-04-10T14:16:10.279Z</time></trkpt><trkpt lat="44.62623" lon="7.9958378"><ele>352.0</ele><time>2026-04-10T14:16:12.296Z</time></trkpt><trkpt lat="44.6262064" lon="7.9959227"><ele>352.0</ele><time>2026-04-10T14:16:14.296Z</time></trkpt><trkpt lat="44.6261818" lon="7.996005"><ele>352.0</ele><time>2026-04-10T14:16:16.219Z</time></trkpt><trkpt lat="44.6261489" lon="7.9960905"><ele>352.0</ele><time>2026-04-10T14:16:18.297Z</time></trkpt><trkpt lat="44.6261053" lon="7.9961625"><ele>352.0</ele><time>2026-04-10T14:16:20.298Z</time></trkpt><trkpt lat="44.6260416" lon="7.9962171"><ele>352.8333333333333</ele><time>2026-04-10T14:16:22.298Z</time></trkpt><trkpt lat="44.6259687" lon="7.9962448"><ele>353.66666666666663</ele><time>2026-04-10T14:16:24.299Z</time></trkpt><trkpt lat="44.6258934" lon="7.9962408"><ele>354.5</ele><time>2026-04-10T14:16:26.316Z</time></trkpt><trkpt lat="44.6258145" lon="7.9962144"><ele>355.3333333333333</ele><time>2026-04-10T14:16:28.367Z</time></trkpt><trkpt lat="44.6257399" lon="7.9961797"><ele>356.1666666666667</ele><time>2026-04-10T14:16:30.368Z</time></trkpt><trkpt lat="44.6256706" lon="7.9961512"><ele>357.0</ele><time>2026-04-10T14:16:32.268Z</time></trkpt><trkpt lat="44.6256003" lon="7.9961413"><ele>357.0</ele><time>2026-04-10T14:16:34.285Z</time></trkpt><trkpt lat="44.6255102" lon="7.9961367"><ele>357.0</ele><time>2026-04-10T14:16:37.319Z</time></trkpt><trkpt lat="44.6254298" lon="7.9961176"><ele>357.0</ele><time>2026-04-10T14:16:40.32Z</time></trkpt><trkpt lat="44.6253615" lon="7.9960962"><ele>357.0</ele><time>2026-04-10T14:16:43.337Z</time></trkpt><trkpt lat="44.6253013" lon="7.9960609"><ele>357.0</ele><time>2026-04-10T14:16:46.354Z</time></trkpt><trkpt lat="44.625303" lon="7.9959692"><ele>357.0</ele><time>2026-04-10T14:17:43.287Z</time></trkpt><trkpt lat="44.6252354" lon="7.9959735"><ele>357.0</ele><time>2026-04-10T14:17:47.37Z</time></trkpt><trkpt lat="44.6251451" lon="7.9960118"><ele>358.1666666666667</ele><time>2026-04-10T14:17:50.306Z</time></trkpt><trkpt lat="44.6250521" lon="7.9959764"><ele>359.3333333333333</ele><time>2026-04-10T14:17:53.307Z</time></trkpt><trkpt lat="44.6249867" lon="7.9959635"><ele>360.5</ele><time>2026-04-10T14:17:55.19Z</time></trkpt><trkpt lat="44.624913" lon="7.9959496"><ele>361.66666666666663</ele><time>2026-04-10T14:17:57.308Z</time></trkpt><trkpt lat="44.6248397" lon="7.9959445"><ele>362.8333333333333</ele><time>2026-04-10T14:17:59.326Z</time></trkpt><trkpt lat="44.6247729" lon="7.9959316"><ele>364.0</ele><time>2026-04-10T14:18:01.343Z</time></trkpt><trkpt lat="44.624686" lon="7.9958911"><ele>364.0</ele><time>2026-04-10T14:18:04.36Z</time></trkpt><trkpt lat="44.6246236" lon="7.9958478"><ele>364.0</ele><time>2026-04-10T14:18:06.293Z</time></trkpt><trkpt lat="44.6245593" lon="7.9957977"><ele>364.0</ele><time>2026-04-10T14:18:08.278Z</time></trkpt><trkpt lat="44.6244933" lon="7.9957548"><ele>364.0</ele><time>2026-04-10T14:18:10.279Z</time></trkpt><trkpt lat="44.6244253" lon="7.9957169"><ele>364.0</ele><time>2026-04-10T14:18:12.296Z</time></trkpt><trkpt lat="44.6243579" lon="7.9956828"><ele>364.0</ele><time>2026-04-10T14:18:14.297Z</time></trkpt><trkpt lat="44.624287" lon="7.995637"><ele>364.0</ele><time>2026-04-10T14:18:16.387Z</time></trkpt><trkpt lat="44.624224" lon="7.9955792"><ele>362.8333333333333</ele><time>2026-04-10T14:18:18.298Z</time></trkpt><trkpt lat="44.6241635" lon="7.9955146"><ele>361.66666666666663</ele><time>2026-04-10T14:18:20.212Z</time></trkpt><trkpt lat="44.6240969" lon="7.9954449"><ele>360.5</ele><time>2026-04-10T14:18:22.316Z</time></trkpt><trkpt lat="44.6240292" lon="7.9953899"><ele>359.3333333333333</ele><time>2026-04-10T14:18:24.317Z</time></trkpt><trkpt lat="44.6239632" lon="7.9953504"><ele>358.1666666666667</ele><time>2026-04-10T14:18:26.258Z</time></trkpt><trkpt lat="44.6238954" lon="7.9952849"><ele>357.0</ele><time>2026-04-10T14:18:28.258Z</time></trkpt><trkpt lat="44.623836" lon="7.995239"><ele>357.0</ele><time>2026-04-10T14:18:30.258Z</time></trkpt><trkpt lat="44.6237734" lon="7.9951844"><ele>357.0</ele><time>2026-04-10T14:18:32.259Z</time></trkpt><trkpt lat="44.6237073" lon="7.9951328"><ele>357.0</ele><time>2026-04-10T14:18:34.258Z</time></trkpt><trkpt lat="44.6236307" lon="7.9950722"><ele>357.0</ele><time>2026-04-10T14:18:36.258Z</time></trkpt><trkpt lat="44.6235617" lon="7.9950194"><ele>357.0</ele><time>2026-04-10T14:18:38.258Z</time></trkpt><trkpt lat="44.6234986" lon="7.9949781"><ele>357.0</ele><time>2026-04-10T14:18:40.258Z</time></trkpt><trkpt lat="44.6234444" lon="7.994932"><ele>357.0</ele><time>2026-04-10T14:18:42.258Z</time></trkpt><trkpt lat="44.623383" lon="7.9948802"><ele>356.42857142857144</ele><time>2026-04-10T14:18:44.258Z</time></trkpt><trkpt lat="44.6233248" lon="7.9948372"><ele>355.8571428571429</ele><time>2026-04-10T14:18:46.258Z</time></trkpt><trkpt lat="44.6232642" lon="7.9947836"><ele>355.2857142857143</ele><time>2026-04-10T14:18:48.258Z</time></trkpt><trkpt lat="44.6232024" lon="7.994731"><ele>354.7142857142857</ele><time>2026-04-10T14:18:50.258Z</time></trkpt><trkpt lat="44.6231434" lon="7.9946898"><ele>354.14285714285717</ele><time>2026-04-10T14:18:52.258Z</time></trkpt><trkpt lat="44.6230763" lon="7.9946504"><ele>353.57142857142856</ele><time>2026-04-10T14:18:54.258Z</time></trkpt><trkpt lat="44.6230085" lon="7.994613"><ele>353.0</ele><time>2026-04-10T14:18:56.258Z</time></trkpt><trkpt lat="44.6229469" lon="7.9945754"><ele>353.0</ele><time>2026-04-10T14:18:58.258Z</time></trkpt><trkpt lat="44.6228834" lon="7.9945436"><ele>353.0</ele><time>2026-04-10T14:19:00.258Z</time></trkpt><trkpt lat="44.6228156" lon="7.9945327"><ele>353.0</ele><time>2026-04-10T14:19:02.258Z</time></trkpt><trkpt lat="44.6227486" lon="7.9945279"><ele>353.0</ele><time>2026-04-10T14:19:04.258Z</time></trkpt><trkpt lat="44.6226787" lon="7.9945206"><ele>353.0</ele><time>2026-04-10T14:19:06.258Z</time></trkpt><trkpt lat="44.6226028" lon="7.9945202"><ele>353.0</ele><time>2026-04-10T14:19:08.258Z</time></trkpt><trkpt lat="44.6225382" lon="7.9945279"><ele>353.0</ele><time>2026-04-10T14:19:10.258Z</time></trkpt><trkpt lat="44.6224449" lon="7.9945504"><ele>354.33333333333337</ele><time>2026-04-10T14:19:13.258Z</time></trkpt><trkpt lat="44.622371" lon="7.9945737"><ele>355.6666666666667</ele><time>2026-04-10T14:19:15.258Z</time></trkpt><trkpt lat="44.6222813" lon="7.9946108"><ele>357.0</ele><time>2026-04-10T14:19:18.258Z</time></trkpt><trkpt lat="44.62222" lon="7.9946488"><ele>358.3333333333333</ele><time>2026-04-10T14:19:20.258Z</time></trkpt><trkpt lat="44.6221476" lon="7.9946872"><ele>359.66666666666663</ele><time>2026-04-10T14:19:22.258Z</time></trkpt><trkpt lat="44.6220799" lon="7.9947407"><ele>361.0</ele><time>2026-04-10T14:19:24.258Z</time></trkpt><trkpt lat="44.6220277" lon="7.9947963"><ele>359.5</ele><time>2026-04-10T14:19:26.258Z</time></trkpt><trkpt lat="44.6219651" lon="7.9948387"><ele>358.0</ele><time>2026-04-10T14:19:28.258Z</time></trkpt><trkpt lat="44.6219007" lon="7.9948866"><ele>356.5</ele><time>2026-04-10T14:19:30.258Z</time></trkpt><trkpt lat="44.6218301" lon="7.9949329"><ele>355.0</ele><time>2026-04-10T14:19:32.258Z</time></trkpt><trkpt lat="44.6217635" lon="7.9949786"><ele>353.5</ele><time>2026-04-10T14:19:34.259Z</time></trkpt><trkpt lat="44.6216906" lon="7.9950329"><ele>352.0</ele><time>2026-04-10T14:19:36.369Z</time></trkpt><trkpt lat="44.6216232" lon="7.9950723"><ele>351.8333333333333</ele><time>2026-04-10T14:19:38.37Z</time></trkpt><trkpt lat="44.6215557" lon="7.9951171"><ele>351.66666666666663</ele><time>2026-04-10T14:19:40.369Z</time></trkpt><trkpt lat="44.6214887" lon="7.9951565"><ele>351.5</ele><time>2026-04-10T14:19:42.37Z</time></trkpt><trkpt lat="44.6214216" lon="7.995207"><ele>351.3333333333333</ele><time>2026-04-10T14:19:44.287Z</time></trkpt><trkpt lat="44.6213416" lon="7.9952569"><ele>351.1666666666667</ele><time>2026-04-10T14:19:46.386Z</time></trkpt><trkpt lat="44.6212707" lon="7.9952954"><ele>351.0</ele><time>2026-04-10T14:19:48.288Z</time></trkpt><trkpt lat="44.621198" lon="7.9953303"><ele>351.8571428571429</ele><time>2026-04-10T14:19:50.289Z</time></trkpt><trkpt lat="44.6211296" lon="7.9953605"><ele>352.7142857142857</ele><time>2026-04-10T14:19:52.289Z</time></trkpt><trkpt lat="44.6210676" lon="7.9953776"><ele>353.57142857142856</ele><time>2026-04-10T14:19:53.948Z</time></trkpt><trkpt lat="44.6209819" lon="7.9954005"><ele>354.42857142857144</ele><time>2026-04-10T14:19:56.29Z</time></trkpt><trkpt lat="44.6209122" lon="7.9954113"><ele>355.2857142857143</ele><time>2026-04-10T14:19:58.29Z</time></trkpt><trkpt lat="44.6208472" lon="7.9954015"><ele>356.14285714285717</ele><time>2026-04-10T14:20:00.291Z</time></trkpt><trkpt lat="44.6207799" lon="7.9954087"><ele>357.0</ele><time>2026-04-10T14:20:48.337Z</time></trkpt><trkpt lat="44.6206929" lon="7.9954052"><ele>357.0</ele><time>2026-04-10T14:20:51.338Z</time></trkpt><trkpt lat="44.6206284" lon="7.9954041"><ele>357.0</ele><time>2026-04-10T14:20:53.339Z</time></trkpt><trkpt lat="44.6205359" lon="7.9954079"><ele>357.0</ele><time>2026-04-10T14:20:56.26Z</time></trkpt><trkpt lat="44.6204424" lon="7.9953958"><ele>357.0</ele><time>2026-04-10T14:20:59.357Z</time></trkpt><trkpt lat="44.6203652" lon="7.9953909"><ele>357.0</ele><time>2026-04-10T14:21:02.275Z</time></trkpt><trkpt lat="44.6202816" lon="7.9953928"><ele>357.0</ele><time>2026-04-10T14:21:05.292Z</time></trkpt><trkpt lat="44.6201938" lon="7.9953965"><ele>358.3333333333333</ele><time>2026-04-10T14:21:08.293Z</time></trkpt><trkpt lat="44.6201039" lon="7.9954195"><ele>359.6666666666667</ele><time>2026-04-10T14:21:11.294Z</time></trkpt><trkpt lat="44.620026" lon="7.9954306"><ele>361.0</ele><time>2026-04-10T14:21:14.295Z</time></trkpt><trkpt lat="44.6199448" lon="7.9954408"><ele>362.33333333333337</ele><time>2026-04-10T14:21:17.296Z</time></trkpt><trkpt lat="44.6198671" lon="7.9954594"><ele>363.6666666666667</ele><time>2026-04-10T14:21:20.297Z</time></trkpt><trkpt lat="44.6197893" lon="7.995475"><ele>365.0</ele><time>2026-04-10T14:21:23.298Z</time></trkpt><trkpt lat="44.6197199" lon="7.9954949"><ele>365.00000000000006</ele><time>2026-04-10T14:21:26.188Z</time></trkpt><trkpt lat="44.6196448" lon="7.9955084"><ele>365.0</ele><time>2026-04-10T14:21:29.3Z</time></trkpt><trkpt lat="44.6195778" lon="7.9955244"><ele>365.0</ele><time>2026-04-10T14:21:32.291Z</time></trkpt><trkpt lat="44.6195116" lon="7.9955445"><ele>365.0</ele><time>2026-04-10T14:21:35.26Z</time></trkpt><trkpt lat="44.6194479" lon="7.9955678"><ele>365.0</ele><time>2026-04-10T14:21:38.293Z</time></trkpt><trkpt lat="44.6193803" lon="7.9956122"><ele>365.00000000000006</ele><time>2026-04-10T14:21:42.355Z</time></trkpt><trkpt lat="44.6193057" lon="7.9956616"><ele>365.0</ele><time>2026-04-10T14:21:47.29Z</time></trkpt><trkpt lat="44.6192531" lon="7.9957158"><ele>365.14285714285717</ele><time>2026-04-10T14:21:51.291Z</time></trkpt><trkpt lat="44.6192189" lon="7.9957907"><ele>365.2857142857143</ele><time>2026-04-10T14:21:54.292Z</time></trkpt><trkpt lat="44.6192098" lon="7.9958849"><ele>365.42857142857144</ele><time>2026-04-10T14:22:02.295Z</time></trkpt><trkpt lat="44.6191658" lon="7.9959595"><ele>365.57142857142856</ele><time>2026-04-10T14:22:09.314Z</time></trkpt><trkpt lat="44.6191852" lon="7.9960563"><ele>365.7142857142857</ele><time>2026-04-10T14:22:55.349Z</time></trkpt><trkpt lat="44.6192106" lon="7.9961473"><ele>365.8571428571429</ele><time>2026-04-10T14:22:57.349Z</time></trkpt><trkpt lat="44.6192195" lon="7.9962441"><ele>366.0</ele><time>2026-04-10T14:22:59.35Z</time></trkpt><trkpt lat="44.6192119" lon="7.9963487"><ele>366.0</ele><time>2026-04-10T14:23:01.368Z</time></trkpt><trkpt lat="44.6191832" lon="7.9964532"><ele>366.0</ele><time>2026-04-10T14:23:03.268Z</time></trkpt><trkpt lat="44.6191596" lon="7.9965602"><ele>366.0</ele><time>2026-04-10T14:23:05.369Z</time></trkpt><trkpt lat="44.6191412" lon="7.99665"><ele>366.0</ele><time>2026-04-10T14:23:07.27Z</time></trkpt><trkpt lat="44.6191364" lon="7.9967409"><ele>366.0</ele><time>2026-04-10T14:23:09.259Z</time></trkpt><trkpt lat="44.6191298" lon="7.9968336"><ele>366.0</ele><time>2026-04-10T14:23:11.372Z</time></trkpt><trkpt lat="44.619111" lon="7.9969764"><ele>366.8333333333333</ele><time>2026-04-10T14:23:15.262Z</time></trkpt><trkpt lat="44.6190837" lon="7.9970981"><ele>367.6666666666667</ele><time>2026-04-10T14:23:18.261Z</time></trkpt><trkpt lat="44.6190606" lon="7.9971902"><ele>368.5</ele><time>2026-04-10T14:23:20.261Z</time></trkpt><trkpt lat="44.6190418" lon="7.9972892"><ele>369.33333333333337</ele><time>2026-04-10T14:23:22.262Z</time></trkpt><trkpt lat="44.6190131" lon="7.9973734"><ele>370.1666666666667</ele><time>2026-04-10T14:23:24.261Z</time></trkpt><trkpt lat="44.6189683" lon="7.9974775"><ele>371.0</ele><time>2026-04-10T14:23:27.261Z</time></trkpt><trkpt lat="44.61893" lon="7.9975807"><ele>371.0</ele><time>2026-04-10T14:23:30.262Z</time></trkpt><trkpt lat="44.618886" lon="7.9976669"><ele>371.0</ele><time>2026-04-10T14:23:33.262Z</time></trkpt><trkpt lat="44.6188423" lon="7.9977475"><ele>371.0</ele><time>2026-04-10T14:23:36.262Z</time></trkpt><trkpt lat="44.6187989" lon="7.9978321"><ele>371.0</ele><time>2026-04-10T14:23:39.263Z</time></trkpt><trkpt lat="44.6187442" lon="7.9979133"><ele>371.0</ele><time>2026-04-10T14:23:42.262Z</time></trkpt><trkpt lat="44.6186809" lon="7.997999"><ele>371.0</ele><time>2026-04-10T14:23:45.262Z</time></trkpt><trkpt lat="44.6186251" lon="7.9980684"><ele>371.33333333333337</ele><time>2026-04-10T14:23:48.263Z</time></trkpt><trkpt lat="44.6185643" lon="7.9981442"><ele>371.6666666666667</ele><time>2026-04-10T14:23:52.262Z</time></trkpt><trkpt lat="44.6185077" lon="7.9981922"><ele>372.0</ele><time>2026-04-10T14:23:55.262Z</time></trkpt><trkpt lat="44.6184467" lon="7.9982541"><ele>372.3333333333333</ele><time>2026-04-10T14:23:58.263Z</time></trkpt><trkpt lat="44.6183851" lon="7.9983102"><ele>372.66666666666663</ele><time>2026-04-10T14:24:03.262Z</time></trkpt><trkpt lat="44.6183259" lon="7.9983888"><ele>373.0</ele><time>2026-04-10T14:24:32.263Z</time></trkpt><trkpt lat="44.6182467" lon="7.998438"><ele>373.0</ele><time>2026-04-10T14:24:35.262Z</time></trkpt><trkpt lat="44.6181808" lon="7.9984742"><ele>373.0</ele><time>2026-04-10T14:24:37.262Z</time></trkpt><trkpt lat="44.6181151" lon="7.9985081"><ele>373.0</ele><time>2026-04-10T14:24:39.262Z</time></trkpt><trkpt lat="44.6180454" lon="7.998542"><ele>373.0</ele><time>2026-04-10T14:24:41.262Z</time></trkpt><trkpt lat="44.6179636" lon="7.998577"><ele>373.0</ele><time>2026-04-10T14:24:43.263Z</time></trkpt><trkpt lat="44.6178727" lon="7.9986076"><ele>373.0</ele><time>2026-04-10T14:24:45.263Z</time></trkpt><trkpt lat="44.6177934" lon="7.9986348"><ele>373.0</ele><time>2026-04-10T14:24:47.263Z</time></trkpt><trkpt lat="44.6177108" lon="7.9986718"><ele>373.0</ele><time>2026-04-10T14:24:49.263Z</time></trkpt><trkpt lat="44.6176223" lon="7.9987079"><ele>373.0</ele><time>2026-04-10T14:24:51.263Z</time></trkpt><trkpt lat="44.6175267" lon="7.9987507"><ele>373.0</ele><time>2026-04-10T14:24:53.263Z</time></trkpt><trkpt lat="44.6174278" lon="7.9988129"><ele>373.0</ele><time>2026-04-10T14:24:55.263Z</time></trkpt><trkpt lat="44.6173364" lon="7.9988929"><ele>373.0</ele><time>2026-04-10T14:24:57.263Z</time></trkpt><trkpt lat="44.617259" lon="7.9989819"><ele>373.0</ele><time>2026-04-10T14:24:59.263Z</time></trkpt><trkpt lat="44.6171939" lon="7.9990714"><ele>373.0</ele><time>2026-04-10T14:25:01.263Z</time></trkpt><trkpt lat="44.6171263" lon="7.9991613"><ele>373.0</ele><time>2026-04-10T14:25:03.263Z</time></trkpt><trkpt lat="44.6170676" lon="7.9992589"><ele>373.0</ele><time>2026-04-10T14:25:05.263Z</time></trkpt><trkpt lat="44.6170193" lon="7.999358"><ele>374.16666666666663</ele><time>2026-04-10T14:25:07.263Z</time></trkpt><trkpt lat="44.6169748" lon="7.9994578"><ele>375.3333333333333</ele><time>2026-04-10T14:25:09.263Z</time></trkpt><trkpt lat="44.6169167" lon="7.9995529"><ele>376.5</ele><time>2026-04-10T14:25:11.263Z</time></trkpt><trkpt lat="44.6168714" lon="7.9996627"><ele>377.6666666666667</ele><time>2026-04-10T14:25:13.263Z</time></trkpt><trkpt lat="44.6168325" lon="7.999752"><ele>378.83333333333337</ele><time>2026-04-10T14:25:15.264Z</time></trkpt><trkpt lat="44.6167888" lon="7.9998472"><ele>380.0</ele><time>2026-04-10T14:25:17.263Z</time></trkpt><trkpt lat="44.6167362" lon="7.9999419"><ele>380.0</ele><time>2026-04-10T14:25:19.263Z</time></trkpt><trkpt lat="44.6166571" lon="8.0000314"><ele>380.0</ele><time>2026-04-10T14:25:21.263Z</time></trkpt><trkpt lat="44.6165989" lon="8.0001233"><ele>380.0</ele><time>2026-04-10T14:25:23.263Z</time></trkpt><trkpt lat="44.6165482" lon="8.0001954"><ele>380.0</ele><time>2026-04-10T14:25:25.263Z</time></trkpt><trkpt lat="44.6164789" lon="8.0002528"><ele>380.0</ele><time>2026-04-10T14:25:27.263Z</time></trkpt><trkpt lat="44.6164115" lon="8.0003199"><ele>380.0</ele><time>2026-04-10T14:25:29.263Z</time></trkpt><trkpt lat="44.6163517" lon="8.0003583"><ele>380.0</ele><time>2026-04-10T14:25:31.263Z</time></trkpt><trkpt lat="44.6162904" lon="8.0003953"><ele>380.0</ele><time>2026-04-10T14:25:33.263Z</time></trkpt><trkpt lat="44.616228" lon="8.0004488"><ele>380.0</ele><time>2026-04-10T14:26:12.264Z</time></trkpt><trkpt lat="44.6161639" lon="8.0005172"><ele>380.0</ele><time>2026-04-10T14:26:15.264Z</time></trkpt><trkpt lat="44.6160879" lon="8.0005524"><ele>380.0</ele><time>2026-04-10T14:26:19.264Z</time></trkpt><trkpt lat="44.6160181" lon="8.000569"><ele>380.0</ele><time>2026-04-10T14:26:21.264Z</time></trkpt><trkpt lat="44.6159297" lon="8.0006029"><ele>377.83333333333337</ele><time>2026-04-10T14:26:24.264Z</time></trkpt><trkpt lat="44.6158627" lon="8.000637"><ele>375.6666666666667</ele><time>2026-04-10T14:26:26.264Z</time></trkpt><trkpt lat="44.6157729" lon="8.0006706"><ele>373.5</ele><time>2026-04-10T14:26:29.264Z</time></trkpt><trkpt lat="44.6157076" lon="8.0007008"><ele>371.3333333333333</ele><time>2026-04-10T14:26:31.264Z</time></trkpt><trkpt lat="44.6156431" lon="8.0007317"><ele>369.16666666666663</ele><time>2026-04-10T14:26:33.264Z</time></trkpt><trkpt lat="44.6155537" lon="8.0007717"><ele>367.0</ele><time>2026-04-10T14:26:36.265Z</time></trkpt><trkpt lat="44.615488" lon="8.0008046"><ele>369.1428571428571</ele><time>2026-04-10T14:26:38.264Z</time></trkpt><trkpt lat="44.6154222" lon="8.0008389"><ele>371.28571428571433</ele><time>2026-04-10T14:26:40.264Z</time></trkpt><trkpt lat="44.6153558" lon="8.0008625"><ele>373.42857142857144</ele><time>2026-04-10T14:26:42.264Z</time></trkpt><trkpt lat="44.6152912" lon="8.00089"><ele>375.57142857142856</ele><time>2026-04-10T14:26:44.265Z</time></trkpt><trkpt lat="44.6152263" lon="8.000921"><ele>377.71428571428567</ele><time>2026-04-10T14:26:46.265Z</time></trkpt><trkpt lat="44.6151548" lon="8.0009432"><ele>379.8571428571429</ele><time>2026-04-10T14:26:48.264Z</time></trkpt><trkpt lat="44.6150908" lon="8.0009796"><ele>382.0</ele><time>2026-04-10T14:26:50.264Z</time></trkpt><trkpt lat="44.6150062" lon="8.0010313"><ele>382.0</ele><time>2026-04-10T14:26:53.265Z</time></trkpt><trkpt lat="44.614942" lon="8.001059"><ele>382.0</ele><time>2026-04-10T14:26:55.264Z</time></trkpt><trkpt lat="44.6148511" lon="8.0011034"><ele>382.0</ele><time>2026-04-10T14:26:58.264Z</time></trkpt><trkpt lat="44.6147869" lon="8.0011294"><ele>382.0</ele><time>2026-04-10T14:27:00.264Z</time></trkpt><trkpt lat="44.614712" lon="8.0011588"><ele>382.0</ele><time>2026-04-10T14:27:02.264Z</time></trkpt><trkpt lat="44.6146297" lon="8.0011877"><ele>382.0</ele><time>2026-04-10T14:27:04.264Z</time></trkpt><trkpt lat="44.6145341" lon="8.001219"><ele>381.66666666666663</ele><time>2026-04-10T14:27:06.264Z</time></trkpt><trkpt lat="44.6144184" lon="8.001247"><ele>381.3333333333333</ele><time>2026-04-10T14:27:08.265Z</time></trkpt><trkpt lat="44.6143046" lon="8.0012723"><ele>381.0</ele><time>2026-04-10T14:27:10.264Z</time></trkpt><trkpt lat="44.6142365" lon="8.0012884"><ele>380.6666666666667</ele><time>2026-04-10T14:27:11.265Z</time></trkpt><trkpt lat="44.6141753" lon="8.0013114"><ele>380.33333333333337</ele><time>2026-04-10T14:27:12.265Z</time></trkpt><trkpt lat="44.6141064" lon="8.0013331"><ele>380.0</ele><time>2026-04-10T14:27:13.264Z</time></trkpt><trkpt lat="44.6140371" lon="8.0013584"><ele>380.0</ele><time>2026-04-10T14:27:14.264Z</time></trkpt><trkpt lat="44.6139715" lon="8.0013779"><ele>380.0</ele><time>2026-04-10T14:27:15.265Z</time></trkpt><trkpt lat="44.6139093" lon="8.0013926"><ele>380.0</ele><time>2026-04-10T14:27:16.265Z</time></trkpt><trkpt lat="44.613838" lon="8.0014038"><ele>380.0</ele><time>2026-04-10T14:27:17.265Z</time></trkpt><trkpt lat="44.6137612" lon="8.0014092"><ele>380.0</ele><time>2026-04-10T14:27:18.266Z</time></trkpt><trkpt lat="44.6136882" lon="8.0014175"><ele>380.0</ele><time>2026-04-10T14:27:19.265Z</time></trkpt><trkpt lat="44.6136202" lon="8.0014206"><ele>380.0</ele><time>2026-04-10T14:27:20.265Z</time></trkpt><trkpt lat="44.6135539" lon="8.0014199"><ele>378.2</ele><time>2026-04-10T14:27:21.265Z</time></trkpt><trkpt lat="44.6134307" lon="8.0014111"><ele>376.4</ele><time>2026-04-10T14:27:23.265Z</time></trkpt><trkpt lat="44.613331" lon="8.0014117"><ele>374.6</ele><time>2026-04-10T14:27:25.265Z</time></trkpt><trkpt lat="44.6132656" lon="8.0014088"><ele>372.8</ele><time>2026-04-10T14:27:27.265Z</time></trkpt><trkpt lat="44.6131851" lon="8.0014138"><ele>371.0</ele><time>2026-04-10T14:27:30.265Z</time></trkpt><trkpt lat="44.6131046" lon="8.0014088"><ele>371.0</ele><time>2026-04-10T14:28:06.265Z</time></trkpt><trkpt lat="44.6130285" lon="8.0013823"><ele>371.0</ele><time>2026-04-10T14:28:09.265Z</time></trkpt><trkpt lat="44.6129596" lon="8.0013618"><ele>371.0</ele><time>2026-04-10T14:28:11.265Z</time></trkpt><trkpt lat="44.6128791" lon="8.001333"><ele>371.0</ele><time>2026-04-10T14:28:13.267Z</time></trkpt><trkpt lat="44.6127972" lon="8.0012931"><ele>371.0</ele><time>2026-04-10T14:28:15.265Z</time></trkpt><trkpt lat="44.6127132" lon="8.0012583"><ele>371.0</ele><time>2026-04-10T14:28:17.266Z</time></trkpt><trkpt lat="44.6126425" lon="8.0012103"><ele>372.33333333333337</ele><time>2026-04-10T14:28:19.266Z</time></trkpt><trkpt lat="44.6125777" lon="8.0011643"><ele>373.6666666666667</ele><time>2026-04-10T14:28:21.266Z</time></trkpt><trkpt lat="44.612507" lon="8.0011263"><ele>375.0</ele><time>2026-04-10T14:28:23.266Z</time></trkpt><trkpt lat="44.6124465" lon="8.0010831"><ele>376.3333333333333</ele><time>2026-04-10T14:28:25.266Z</time></trkpt><trkpt lat="44.6123812" lon="8.0010546"><ele>377.66666666666663</ele><time>2026-04-10T14:28:27.266Z</time></trkpt><trkpt lat="44.6123045" lon="8.0010141"><ele>379.0</ele><time>2026-04-10T14:28:29.265Z</time></trkpt><trkpt lat="44.6122267" lon="8.0009499"><ele>379.0</ele><time>2026-04-10T14:28:31.266Z</time></trkpt><trkpt lat="44.612167" lon="8.0008979"><ele>379.0</ele><time>2026-04-10T14:28:33.266Z</time></trkpt><trkpt lat="44.6121007" lon="8.0008561"><ele>379.0</ele><time>2026-04-10T14:28:35.266Z</time></trkpt><trkpt lat="44.612022" lon="8.000823"><ele>379.0</ele><time>2026-04-10T14:28:37.266Z</time></trkpt><trkpt lat="44.6119456" lon="8.0007595"><ele>379.0</ele><time>2026-04-10T14:28:40.266Z</time></trkpt><trkpt lat="44.6118648" lon="8.0007013"><ele>379.0</ele><time>2026-04-10T14:28:43.266Z</time></trkpt><trkpt lat="44.6118227" lon="8.0006065"><ele>379.14285714285717</ele><time>2026-04-10T14:29:35.339Z</time></trkpt><trkpt lat="44.6117451" lon="8.0005733"><ele>379.2857142857143</ele><time>2026-04-10T14:29:38.356Z</time></trkpt><trkpt lat="44.6116825" lon="8.0005424"><ele>379.42857142857144</ele><time>2026-04-10T14:29:40.374Z</time></trkpt><trkpt lat="44.6116207" lon="8.0005131"><ele>379.57142857142856</ele><time>2026-04-10T14:29:42.274Z</time></trkpt><trkpt lat="44.6115592" lon="8.0004694"><ele>379.7142857142857</ele><time>2026-04-10T14:29:45.375Z</time></trkpt><trkpt lat="44.6114937" lon="8.0004229"><ele>379.8571428571429</ele><time>2026-04-10T14:30:07.337Z</time></trkpt><trkpt lat="44.6114259" lon="8.0003686"><ele>380.0</ele><time>2026-04-10T14:31:21.336Z</time></trkpt><trkpt lat="44.6113599" lon="8.0003919"><ele>380.0</ele><time>2026-04-10T14:31:53.345Z</time></trkpt><trkpt lat="44.611301" lon="8.0003397"><ele>380.0</ele><time>2026-04-10T14:32:02.347Z</time></trkpt><trkpt lat="44.6111917" lon="8.0003516"><ele>380.0</ele><time>2026-04-10T14:32:48.292Z</time></trkpt><trkpt lat="44.6111037" lon="8.0003972"><ele>380.0</ele><time>2026-04-10T14:33:09.299Z</time></trkpt><trkpt lat="44.6110365" lon="8.0003955"><ele>380.0</ele><time>2026-04-10T14:33:17.269Z</time></trkpt><trkpt lat="44.6109744" lon="8.0004393"><ele>380.0</ele><time>2026-04-10T14:33:38.269Z</time></trkpt><trkpt lat="44.6110041" lon="8.0003064"><ele>383.4</ele><time>2026-04-10T14:34:26.217Z</time></trkpt><trkpt lat="44.6109961" lon="8.0001861"><ele>386.8</ele><time>2026-04-10T14:34:28.354Z</time></trkpt><trkpt lat="44.6109989" lon="8.0000791"><ele>390.20000000000005</ele><time>2026-04-10T14:34:30.271Z</time></trkpt><trkpt lat="44.6110006" lon="7.9999737"><ele>393.6</ele><time>2026-04-10T14:34:32.271Z</time></trkpt><trkpt lat="44.6109996" lon="7.9998798"><ele>397.0</ele><time>2026-04-10T14:34:34.372Z</time></trkpt><trkpt lat="44.6108837" lon="7.9997092"><ele>397.0</ele><time>2026-04-10T14:34:37.273Z</time></trkpt><trkpt lat="44.6108345" lon="7.9996375"><ele>397.0</ele><time>2026-04-10T14:34:38.373Z</time></trkpt><trkpt lat="44.6107885" lon="7.9995763"><ele>397.0</ele><time>2026-04-10T14:34:40.29Z</time></trkpt><trkpt lat="44.6107133" lon="7.9995728"><ele>397.0</ele><time>2026-04-10T14:34:47.27Z</time></trkpt><trkpt lat="44.6106496" lon="7.9996338"><ele>397.0</ele><time>2026-04-10T14:34:50.27Z</time></trkpt><trkpt lat="44.610581" lon="7.9996646"><ele>397.0</ele><time>2026-04-10T14:35:08.271Z</time></trkpt><trkpt lat="44.6105607" lon="7.9997591"><ele>397.0</ele><time>2026-04-10T14:35:30.271Z</time></trkpt><trkpt lat="44.6104991" lon="7.9997918"><ele>397.00000000000006</ele><time>2026-04-10T14:35:34.271Z</time></trkpt><trkpt lat="44.6104298" lon="7.9998109"><ele>397.0</ele><time>2026-04-10T14:35:37.271Z</time></trkpt><trkpt lat="44.6103715" lon="7.9998934"><ele>397.0</ele><time>2026-04-10T14:35:41.271Z</time></trkpt><trkpt lat="44.6103084" lon="7.9999777"><ele>397.0</ele><time>2026-04-10T14:35:44.271Z</time></trkpt><trkpt lat="44.6102511" lon="8.0000339"><ele>397.00000000000006</ele><time>2026-04-10T14:35:46.271Z</time></trkpt><trkpt lat="44.6101869" lon="8.0001268"><ele>397.0</ele><time>2026-04-10T14:35:48.271Z</time></trkpt><trkpt lat="44.6101455" lon="8.0002555"><ele>397.00000000000006</ele><time>2026-04-10T14:35:50.271Z</time></trkpt><trkpt lat="44.6101262" lon="8.000356"><ele>397.0</ele><time>2026-04-10T14:35:52.271Z</time></trkpt><trkpt lat="44.6101684" lon="8.000428"><ele>397.0</ele><time>2026-04-10T14:35:54.271Z</time></trkpt><trkpt lat="44.6102095" lon="8.000505"><ele>397.0</ele><time>2026-04-10T14:35:56.272Z</time></trkpt><trkpt lat="44.6102793" lon="8.0005947"><ele>397.00000000000006</ele><time>2026-04-10T14:36:00.271Z</time></trkpt><trkpt lat="44.6103368" lon="8.0006727"><ele>397.0</ele><time>2026-04-10T14:36:03.271Z</time></trkpt><trkpt lat="44.610382" lon="8.000599"><ele>397.0</ele><time>2026-04-10T14:36:08.271Z</time></trkpt><trkpt lat="44.6103211" lon="8.0005543"><ele>397.0</ele><time>2026-04-10T14:36:15.272Z</time></trkpt><trkpt lat="44.6103652" lon="8.0006595"><ele>397.0</ele><time>2026-04-10T14:36:28.272Z</time></trkpt><trkpt lat="44.610338" lon="8.0005786"><ele>397.0</ele><time>2026-04-10T14:36:40.273Z</time></trkpt><trkpt lat="44.6102839" lon="8.0005142"><ele>397.0</ele><time>2026-04-10T14:37:11.272Z</time></trkpt><trkpt lat="44.610248" lon="8.0004291"><ele>397.0</ele><time>2026-04-10T14:37:15.122Z</time></trkpt><trkpt lat="44.6102205" lon="8.0003445"><ele>397.0</ele><time>2026-04-10T14:37:21.282Z</time></trkpt><trkpt lat="44.6101677" lon="8.0002809"><ele>396.33333333333337</ele><time>2026-04-10T14:37:26.272Z</time></trkpt><trkpt lat="44.6100806" lon="8.0002901"><ele>395.6666666666667</ele><time>2026-04-10T14:37:36.273Z</time></trkpt><trkpt lat="44.609996" lon="8.0003002"><ele>395.0</ele><time>2026-04-10T14:37:38.273Z</time></trkpt><trkpt lat="44.6099244" lon="8.000318"><ele>394.33333333333337</ele><time>2026-04-10T14:37:40.274Z</time></trkpt><trkpt lat="44.6098393" lon="8.0002887"><ele>393.6666666666667</ele><time>2026-04-10T14:37:43.273Z</time></trkpt><trkpt lat="44.6097618" lon="8.0003"><ele>393.0</ele><time>2026-04-10T14:37:47.273Z</time></trkpt><trkpt lat="44.6096679" lon="8.0002791"><ele>393.0</ele><time>2026-04-10T14:37:51.273Z</time></trkpt><trkpt lat="44.6096089" lon="8.0002374"><ele>393.0</ele><time>2026-04-10T14:38:25.273Z</time></trkpt><trkpt lat="44.6095232" lon="8.0002675"><ele>393.0</ele><time>2026-04-10T14:38:28.273Z</time></trkpt><trkpt lat="44.6094421" lon="8.000329"><ele>393.0</ele><time>2026-04-10T14:38:31.273Z</time></trkpt><trkpt lat="44.6093892" lon="8.0004099"><ele>393.0</ele><time>2026-04-10T14:38:33.273Z</time></trkpt><trkpt lat="44.6093045" lon="8.0004835"><ele>393.0</ele><time>2026-04-10T14:38:36.273Z</time></trkpt><trkpt lat="44.6092138" lon="8.0005044"><ele>391.3333333333333</ele><time>2026-04-10T14:38:38.273Z</time></trkpt><trkpt lat="44.6091044" lon="8.000532"><ele>389.6666666666667</ele><time>2026-04-10T14:38:40.274Z</time></trkpt><trkpt lat="44.6090408" lon="8.000557"><ele>388.0</ele><time>2026-04-10T14:38:41.274Z</time></trkpt><trkpt lat="44.6089787" lon="8.0005733"><ele>386.33333333333337</ele><time>2026-04-10T14:38:42.274Z</time></trkpt><trkpt lat="44.6088986" lon="8.0006113"><ele>384.6666666666667</ele><time>2026-04-10T14:38:44.274Z</time></trkpt><trkpt lat="44.6088252" lon="8.000632"><ele>383.0</ele><time>2026-04-10T14:38:46.274Z</time></trkpt><trkpt lat="44.608743" lon="8.0006376"><ele>382.5</ele><time>2026-04-10T14:38:48.275Z</time></trkpt><trkpt lat="44.6086572" lon="8.0006317"><ele>382.0</ele><time>2026-04-10T14:38:50.274Z</time></trkpt><trkpt lat="44.6085867" lon="8.000643"><ele>381.5</ele><time>2026-04-10T14:38:52.274Z</time></trkpt><trkpt lat="44.6085024" lon="8.0006194"><ele>381.0</ele><time>2026-04-10T14:38:55.274Z</time></trkpt><trkpt lat="44.6084104" lon="8.0005879"><ele>380.5</ele><time>2026-04-10T14:38:57.274Z</time></trkpt><trkpt lat="44.6083355" lon="8.0005626"><ele>380.0</ele><time>2026-04-10T14:38:59.274Z</time></trkpt><trkpt lat="44.608255" lon="8.000534"><ele>380.0</ele><time>2026-04-10T14:39:01.274Z</time></trkpt><trkpt lat="44.6081871" lon="8.0005268"><ele>380.0</ele><time>2026-04-10T14:39:03.274Z</time></trkpt><trkpt lat="44.6081186" lon="8.0004926"><ele>380.0</ele><time>2026-04-10T14:39:05.274Z</time></trkpt><trkpt lat="44.6080495" lon="8.000446"><ele>380.0</ele><time>2026-04-10T14:39:07.274Z</time></trkpt><trkpt lat="44.6079805" lon="8.0004131"><ele>380.0</ele><time>2026-04-10T14:39:09.274Z</time></trkpt><trkpt lat="44.6079089" lon="8.0003809"><ele>380.0</ele><time>2026-04-10T14:39:11.274Z</time></trkpt><trkpt lat="44.6078306" lon="8.0003495"><ele>380.0</ele><time>2026-04-10T14:39:13.274Z</time></trkpt><trkpt lat="44.6077427" lon="8.0003198"><ele>380.7142857142857</ele><time>2026-04-10T14:39:15.274Z</time></trkpt><trkpt lat="44.6076695" lon="8.0002941"><ele>381.42857142857144</ele><time>2026-04-10T14:39:17.274Z</time></trkpt><trkpt lat="44.6076055" lon="8.0002601"><ele>382.1428571428571</ele><time>2026-04-10T14:39:19.274Z</time></trkpt><trkpt lat="44.6075373" lon="8.0002218"><ele>382.8571428571429</ele><time>2026-04-10T14:39:21.274Z</time></trkpt><trkpt lat="44.6074701" lon="8.0002064"><ele>383.57142857142856</ele><time>2026-04-10T14:39:23.274Z</time></trkpt><trkpt lat="44.6073887" lon="8.0001959"><ele>384.2857142857143</ele><time>2026-04-10T14:39:25.274Z</time></trkpt><trkpt lat="44.6073288" lon="8.0001365"><ele>385.0</ele><time>2026-04-10T14:39:27.274Z</time></trkpt><trkpt lat="44.6072661" lon="8.0000941"><ele>385.00000000000006</ele><time>2026-04-10T14:39:29.274Z</time></trkpt><trkpt lat="44.6071987" lon="8.0000652"><ele>385.0</ele><time>2026-04-10T14:39:31.274Z</time></trkpt><trkpt lat="44.6071421" lon="7.9999777"><ele>385.0</ele><time>2026-04-10T14:39:34.274Z</time></trkpt><trkpt lat="44.6070864" lon="7.9999215"><ele>385.0</ele><time>2026-04-10T14:39:37.275Z</time></trkpt><trkpt lat="44.607036" lon="7.9998633"><ele>385.00000000000006</ele><time>2026-04-10T14:39:40.275Z</time></trkpt><trkpt lat="44.6069567" lon="7.9998"><ele>385.0</ele><time>2026-04-10T14:39:43.274Z</time></trkpt><trkpt lat="44.6068343" lon="7.9997275"><ele>386.00000000000006</ele><time>2026-04-10T14:39:47.274Z</time></trkpt><trkpt lat="44.6067858" lon="7.9996537"><ele>387.0</ele><time>2026-04-10T14:39:50.274Z</time></trkpt><trkpt lat="44.6067136" lon="7.9996043"><ele>388.0</ele><time>2026-04-10T14:39:53.274Z</time></trkpt><trkpt lat="44.6066456" lon="7.9995635"><ele>389.0</ele><time>2026-04-10T14:39:55.274Z</time></trkpt><trkpt lat="44.6065676" lon="7.9995374"><ele>390.00000000000006</ele><time>2026-04-10T14:39:57.275Z</time></trkpt><trkpt lat="44.6064824" lon="7.999529"><ele>391.0</ele><time>2026-04-10T14:39:59.275Z</time></trkpt><trkpt lat="44.6063868" lon="7.999544"><ele>391.00000000000006</ele><time>2026-04-10T14:40:01.275Z</time></trkpt><trkpt lat="44.6062817" lon="7.9995832"><ele>391.0</ele><time>2026-04-10T14:40:03.275Z</time></trkpt><trkpt lat="44.606166" lon="7.9996034"><ele>391.0</ele><time>2026-04-10T14:40:05.275Z</time></trkpt><trkpt lat="44.6061001" lon="7.9995993"><ele>391.0</ele><time>2026-04-10T14:40:06.276Z</time></trkpt><trkpt lat="44.6060294" lon="7.9995907"><ele>391.00000000000006</ele><time>2026-04-10T14:40:07.275Z</time></trkpt><trkpt lat="44.6059548" lon="7.9995809"><ele>391.0</ele><time>2026-04-10T14:40:08.275Z</time></trkpt><trkpt lat="44.6058756" lon="7.9995656"><ele>389.83333333333337</ele><time>2026-04-10T14:40:09.276Z</time></trkpt><trkpt lat="44.605805" lon="7.9995445"><ele>388.6666666666667</ele><time>2026-04-10T14:40:10.275Z</time></trkpt><trkpt lat="44.6057344" lon="7.9995132"><ele>387.5</ele><time>2026-04-10T14:40:11.275Z</time></trkpt><trkpt lat="44.6056656" lon="7.999486"><ele>386.33333333333337</ele><time>2026-04-10T14:40:12.275Z</time></trkpt><trkpt lat="44.6055981" lon="7.9994684"><ele>385.1666666666667</ele><time>2026-04-10T14:40:13.275Z</time></trkpt><trkpt lat="44.6055312" lon="7.9994474"><ele>384.0</ele><time>2026-04-10T14:40:14.275Z</time></trkpt><trkpt lat="44.6054159" lon="7.9994014"><ele>382.2</ele><time>2026-04-10T14:40:16.275Z</time></trkpt><trkpt lat="44.6052984" lon="7.9993634"><ele>380.4</ele><time>2026-04-10T14:40:18.275Z</time></trkpt><trkpt lat="44.6051811" lon="7.9993298"><ele>378.6</ele><time>2026-04-10T14:40:20.275Z</time></trkpt><trkpt lat="44.6050825" lon="7.9993"><ele>376.8</ele><time>2026-04-10T14:40:22.275Z</time></trkpt><trkpt lat="44.6050024" lon="7.9992672"><ele>375.0</ele><time>2026-04-10T14:40:24.275Z</time></trkpt><trkpt lat="44.604913" lon="7.9992386"><ele>375.0</ele><time>2026-04-10T14:40:26.275Z</time></trkpt><trkpt lat="44.6048276" lon="7.9992252"><ele>375.0</ele><time>2026-04-10T14:40:28.275Z</time></trkpt><trkpt lat="44.6047571" lon="7.9991893"><ele>375.0</ele><time>2026-04-10T14:40:30.275Z</time></trkpt><trkpt lat="44.6046857" lon="7.9991634"><ele>375.0</ele><time>2026-04-10T14:40:32.275Z</time></trkpt><trkpt lat="44.6046189" lon="7.9991433"><ele>375.0</ele><time>2026-04-10T14:40:34.275Z</time></trkpt><trkpt lat="44.6045318" lon="7.9991067"><ele>375.0</ele><time>2026-04-10T14:40:37.275Z</time></trkpt><trkpt lat="44.604448" lon="7.9990702"><ele>376.3333333333333</ele><time>2026-04-10T14:40:40.275Z</time></trkpt><trkpt lat="44.6043575" lon="7.9990517"><ele>377.6666666666667</ele><time>2026-04-10T14:40:43.275Z</time></trkpt><trkpt lat="44.6042905" lon="7.9990314"><ele>379.0</ele><time>2026-04-10T14:40:45.275Z</time></trkpt><trkpt lat="44.6041929" lon="7.9990127"><ele>380.33333333333337</ele><time>2026-04-10T14:40:48.275Z</time></trkpt><trkpt lat="44.6041174" lon="7.9989948"><ele>381.6666666666667</ele><time>2026-04-10T14:40:50.275Z</time></trkpt><trkpt lat="44.6040372" lon="7.9989799"><ele>383.0</ele><time>2026-04-10T14:40:52.275Z</time></trkpt><trkpt lat="44.603948" lon="7.9989762"><ele>383.0</ele><time>2026-04-10T14:40:54.275Z</time></trkpt><trkpt lat="44.603862" lon="7.9989583"><ele>383.0</ele><time>2026-04-10T14:40:56.275Z</time></trkpt><trkpt lat="44.6037836" lon="7.9989536"><ele>383.0</ele><time>2026-04-10T14:40:58.275Z</time></trkpt><trkpt lat="44.603701" lon="7.9989521"><ele>383.0</ele><time>2026-04-10T14:41:00.275Z</time></trkpt><trkpt lat="44.603611" lon="7.9989572"><ele>383.0</ele><time>2026-04-10T14:41:02.275Z</time></trkpt><trkpt lat="44.6035236" lon="7.9989663"><ele>383.0</ele><time>2026-04-10T14:41:04.275Z</time></trkpt><trkpt lat="44.6034358" lon="7.9989777"><ele>382.0</ele><time>2026-04-10T14:41:06.275Z</time></trkpt><trkpt lat="44.6033385" lon="7.9990011"><ele>381.0</ele><time>2026-04-10T14:41:08.275Z</time></trkpt><trkpt lat="44.6032372" lon="7.9990318"><ele>380.0</ele><time>2026-04-10T14:41:10.275Z</time></trkpt><trkpt lat="44.603134" lon="7.9990656"><ele>379.0</ele><time>2026-04-10T14:41:12.275Z</time></trkpt><trkpt lat="44.6030407" lon="7.9991002"><ele>378.0</ele><time>2026-04-10T14:41:14.275Z</time></trkpt><trkpt lat="44.602948" lon="7.9991364"><ele>378.0</ele><time>2026-04-10T14:41:16.276Z</time></trkpt><trkpt lat="44.6028558" lon="7.9991522"><ele>378.0</ele><time>2026-04-10T14:41:18.276Z</time></trkpt><trkpt lat="44.6027586" lon="7.9991634"><ele>378.0</ele><time>2026-04-10T14:41:20.276Z</time></trkpt><trkpt lat="44.6026731" lon="7.999204"><ele>378.0</ele><time>2026-04-10T14:41:22.276Z</time></trkpt><trkpt lat="44.6025914" lon="7.9992281"><ele>378.0</ele><time>2026-04-10T14:41:24.276Z</time></trkpt><trkpt lat="44.6025009" lon="7.9992385"><ele>377.8333333333333</ele><time>2026-04-10T14:41:26.276Z</time></trkpt><trkpt lat="44.6024204" lon="7.9992657"><ele>377.6666666666667</ele><time>2026-04-10T14:41:28.276Z</time></trkpt><trkpt lat="44.6023364" lon="7.9992826"><ele>377.5</ele><time>2026-04-10T14:41:30.276Z</time></trkpt><trkpt lat="44.6022707" lon="7.9993064"><ele>377.33333333333337</ele><time>2026-04-10T14:41:32.276Z</time></trkpt><trkpt lat="44.6022012" lon="7.9993244"><ele>377.1666666666667</ele><time>2026-04-10T14:41:34.276Z</time></trkpt><trkpt lat="44.6021383" lon="7.9993468"><ele>377.0</ele><time>2026-04-10T14:41:36.276Z</time></trkpt><trkpt lat="44.6020453" lon="7.9993695"><ele>377.1428571428571</ele><time>2026-04-10T14:41:39.276Z</time></trkpt><trkpt lat="44.601982" lon="7.9993788"><ele>377.2857142857143</ele><time>2026-04-10T14:41:41.276Z</time></trkpt><trkpt lat="44.6019206" lon="7.9994005"><ele>377.42857142857144</ele><time>2026-04-10T14:41:43.276Z</time></trkpt><trkpt lat="44.6018542" lon="7.999415"><ele>377.57142857142856</ele><time>2026-04-10T14:41:45.276Z</time></trkpt><trkpt lat="44.6017849" lon="7.9994264"><ele>377.7142857142857</ele><time>2026-04-10T14:41:47.277Z</time></trkpt><trkpt lat="44.6017147" lon="7.9994399"><ele>377.85714285714283</ele><time>2026-04-10T14:41:49.276Z</time></trkpt><trkpt lat="44.6016256" lon="7.999464"><ele>378.0</ele><time>2026-04-10T14:41:51.276Z</time></trkpt><trkpt lat="44.6015407" lon="7.9994776"><ele>378.0</ele><time>2026-04-10T14:41:53.276Z</time></trkpt><trkpt lat="44.6014471" lon="7.999502"><ele>378.0</ele><time>2026-04-10T14:41:55.276Z</time></trkpt><trkpt lat="44.6013475" lon="7.9995331"><ele>378.0</ele><time>2026-04-10T14:41:57.276Z</time></trkpt><trkpt lat="44.6012311" lon="7.9995597"><ele>378.0</ele><time>2026-04-10T14:41:59.277Z</time></trkpt><trkpt lat="44.6011031" lon="7.9995944"><ele>378.0</ele><time>2026-04-10T14:42:01.276Z</time></trkpt><trkpt lat="44.6010327" lon="7.9996153"><ele>378.0</ele><time>2026-04-10T14:42:02.276Z</time></trkpt><trkpt lat="44.6009591" lon="7.999637"><ele>378.0</ele><time>2026-04-10T14:42:03.276Z</time></trkpt><trkpt lat="44.6008849" lon="7.9996594"><ele>378.0</ele><time>2026-04-10T14:42:04.276Z</time></trkpt><trkpt lat="44.6008077" lon="7.9996818"><ele>378.0</ele><time>2026-04-10T14:42:05.276Z</time></trkpt><trkpt lat="44.6007259" lon="7.9997046"><ele>378.0</ele><time>2026-04-10T14:42:06.276Z</time></trkpt><trkpt lat="44.6006439" lon="7.9997293"><ele>378.0</ele><time>2026-04-10T14:42:07.276Z</time></trkpt><trkpt lat="44.6005618" lon="7.9997525"><ele>378.0</ele><time>2026-04-10T14:42:08.276Z</time></trkpt><trkpt lat="44.6004852" lon="7.9997791"><ele>378.0</ele><time>2026-04-10T14:42:09.276Z</time></trkpt><trkpt lat="44.6004154" lon="7.9998106"><ele>378.0</ele><time>2026-04-10T14:42:10.276Z</time></trkpt><trkpt lat="44.6003525" lon="7.9998384"><ele>378.0</ele><time>2026-04-10T14:42:11.276Z</time></trkpt><trkpt lat="44.6002936" lon="7.9998704"><ele>378.0</ele><time>2026-04-10T14:42:12.276Z</time></trkpt><trkpt lat="44.6002278" lon="7.9999225"><ele>378.0</ele><time>2026-04-10T14:42:13.276Z</time></trkpt><trkpt lat="44.6001652" lon="7.9999886"><ele>378.0</ele><time>2026-04-10T14:42:14.276Z</time></trkpt><trkpt lat="44.6001042" lon="8.0000729"><ele>378.0</ele><time>2026-04-10T14:42:15.276Z</time></trkpt><trkpt lat="44.6000452" lon="8.0001712"><ele>378.0</ele><time>2026-04-10T14:42:16.276Z</time></trkpt><trkpt lat="44.599987" lon="8.0002784"><ele>378.0</ele><time>2026-04-10T14:42:17.276Z</time></trkpt><trkpt lat="44.5999378" lon="8.0003845"><ele>378.0</ele><time>2026-04-10T14:42:18.276Z</time></trkpt><trkpt lat="44.5998998" lon="8.0004849"><ele>378.0</ele><time>2026-04-10T14:42:19.276Z</time></trkpt><trkpt lat="44.5998656" lon="8.0005875"><ele>378.0</ele><time>2026-04-10T14:42:20.276Z</time></trkpt><trkpt lat="44.5998303" lon="8.000682"><ele>378.0</ele><time>2026-04-10T14:42:21.277Z</time></trkpt><trkpt lat="44.5997979" lon="8.0007713"><ele>378.0</ele><time>2026-04-10T14:42:22.276Z</time></trkpt><trkpt lat="44.5997653" lon="8.0008536"><ele>378.0</ele><time>2026-04-10T14:42:23.276Z</time></trkpt><trkpt lat="44.5997396" lon="8.0009359"><ele>378.0</ele><time>2026-04-10T14:42:24.276Z</time></trkpt><trkpt lat="44.5997018" lon="8.0010925"><ele>378.0</ele><time>2026-04-10T14:42:26.276Z</time></trkpt><trkpt lat="44.5996989" lon="8.0012348"><ele>378.0</ele><time>2026-04-10T14:42:28.276Z</time></trkpt><trkpt lat="44.5997202" lon="8.0013675"><ele>378.1666666666667</ele><time>2026-04-10T14:42:30.276Z</time></trkpt><trkpt lat="44.5997459" lon="8.0014854"><ele>378.3333333333333</ele><time>2026-04-10T14:42:32.276Z</time></trkpt><trkpt lat="44.5997789" lon="8.0015944"><ele>378.5</ele><time>2026-04-10T14:42:34.277Z</time></trkpt><trkpt lat="44.5998087" lon="8.0016994"><ele>378.66666666666663</ele><time>2026-04-10T14:42:36.277Z</time></trkpt><trkpt lat="44.5998349" lon="8.001789"><ele>378.8333333333333</ele><time>2026-04-10T14:42:38.277Z</time></trkpt><trkpt lat="44.5998616" lon="8.0019112"><ele>379.0</ele><time>2026-04-10T14:42:41.277Z</time></trkpt><trkpt lat="44.5998827" lon="8.0020255"><ele>379.3333333333333</ele><time>2026-04-10T14:42:44.278Z</time></trkpt><trkpt lat="44.5998999" lon="8.002157"><ele>379.66666666666663</ele><time>2026-04-10T14:42:47.278Z</time></trkpt><trkpt lat="44.5999151" lon="8.0022853"><ele>380.0</ele><time>2026-04-10T14:42:50.277Z</time></trkpt><trkpt lat="44.5999264" lon="8.0023976"><ele>380.3333333333333</ele><time>2026-04-10T14:42:53.277Z</time></trkpt><trkpt lat="44.5999076" lon="8.0025045"><ele>380.6666666666667</ele><time>2026-04-10T14:42:56.277Z</time></trkpt><trkpt lat="44.5999114" lon="8.0026039"><ele>381.0</ele><time>2026-04-10T14:42:59.278Z</time></trkpt><trkpt lat="44.5999213" lon="8.0026991"><ele>381.57142857142856</ele><time>2026-04-10T14:43:02.277Z</time></trkpt><trkpt lat="44.5999297" lon="8.0028023"><ele>382.14285714285717</ele><time>2026-04-10T14:43:05.277Z</time></trkpt><trkpt lat="44.5999617" lon="8.0029068"><ele>382.7142857142857</ele><time>2026-04-10T14:43:08.277Z</time></trkpt><trkpt lat="44.5999717" lon="8.0030077"><ele>383.2857142857143</ele><time>2026-04-10T14:43:11.277Z</time></trkpt><trkpt lat="44.6000047" lon="8.003092"><ele>383.8571428571429</ele><time>2026-04-10T14:43:14.277Z</time></trkpt><trkpt lat="44.6000555" lon="8.0031611"><ele>384.42857142857144</ele><time>2026-04-10T14:43:17.277Z</time></trkpt><trkpt lat="44.6001004" lon="8.0032461"><ele>385.0</ele><time>2026-04-10T14:43:20.277Z</time></trkpt><trkpt lat="44.6001457" lon="8.0033444"><ele>384.33333333333337</ele><time>2026-04-10T14:43:23.278Z</time></trkpt><trkpt lat="44.600196" lon="8.0034318"><ele>383.6666666666667</ele><time>2026-04-10T14:43:26.277Z</time></trkpt><trkpt lat="44.6002478" lon="8.0035253"><ele>383.0</ele><time>2026-04-10T14:43:29.277Z</time></trkpt><trkpt lat="44.6002962" lon="8.0036002"><ele>382.33333333333337</ele><time>2026-04-10T14:43:32.277Z</time></trkpt><trkpt lat="44.6003458" lon="8.003691"><ele>381.6666666666667</ele><time>2026-04-10T14:43:35.277Z</time></trkpt><trkpt lat="44.6003966" lon="8.0037639"><ele>381.0</ele><time>2026-04-10T14:43:38.277Z</time></trkpt><trkpt lat="44.6004341" lon="8.0038458"><ele>381.0</ele><time>2026-04-10T14:43:41.277Z</time></trkpt><trkpt lat="44.6004708" lon="8.0039307"><ele>381.0</ele><time>2026-04-10T14:43:44.277Z</time></trkpt><trkpt lat="44.6005169" lon="8.0040066"><ele>381.0</ele><time>2026-04-10T14:43:47.277Z</time></trkpt><trkpt lat="44.6005625" lon="8.0040994"><ele>381.0</ele><time>2026-04-10T14:43:50.277Z</time></trkpt><trkpt lat="44.6006146" lon="8.0041895"><ele>381.0</ele><time>2026-04-10T14:43:53.278Z</time></trkpt><trkpt lat="44.6006607" lon="8.004276"><ele>381.0</ele><time>2026-04-10T14:43:57.278Z</time></trkpt><trkpt lat="44.6007039" lon="8.0043596"><ele>382.5</ele><time>2026-04-10T14:44:01.278Z</time></trkpt><trkpt lat="44.6007513" lon="8.0044512"><ele>384.0</ele><time>2026-04-10T14:44:05.278Z</time></trkpt><trkpt lat="44.6007982" lon="8.0045519"><ele>385.5</ele><time>2026-04-10T14:44:09.278Z</time></trkpt><trkpt lat="44.600844" lon="8.0046266"><ele>387.0</ele><time>2026-04-10T14:44:12.279Z</time></trkpt><trkpt lat="44.6008941" lon="8.0047164"><ele>388.5</ele><time>2026-04-10T14:44:16.278Z</time></trkpt><trkpt lat="44.6009566" lon="8.0047521"><ele>390.0</ele><time>2026-04-10T14:45:21.203Z</time></trkpt><trkpt lat="44.6009263" lon="8.004858"><ele>390.0</ele><time>2026-04-10T14:45:26.305Z</time></trkpt><trkpt lat="44.6009077" lon="8.004943"><ele>390.0</ele><time>2026-04-10T14:45:29.306Z</time></trkpt><trkpt lat="44.6008461" lon="8.0050104"><ele>390.0</ele><time>2026-04-10T14:45:33.307Z</time></trkpt><trkpt lat="44.6007661" lon="8.004981"><ele>390.0</ele><time>2026-04-10T14:45:37.308Z</time></trkpt><trkpt lat="44.6007162" lon="8.0049191"><ele>390.0</ele><time>2026-04-10T14:45:40.327Z</time></trkpt><trkpt lat="44.6006692" lon="8.0048325"><ele>390.0</ele><time>2026-04-10T14:45:43.327Z</time></trkpt><trkpt lat="44.6006118" lon="8.0047343"><ele>390.0</ele><time>2026-04-10T14:45:46.325Z</time></trkpt><trkpt lat="44.6005718" lon="8.0046583"><ele>390.0</ele><time>2026-04-10T14:45:48.33Z</time></trkpt><trkpt lat="44.6005287" lon="8.0045853"><ele>390.0</ele><time>2026-04-10T14:45:50.312Z</time></trkpt><trkpt lat="44.6004826" lon="8.0045102"><ele>390.0</ele><time>2026-04-10T14:45:52.33Z</time></trkpt><trkpt lat="44.6004216" lon="8.004404"><ele>390.0</ele><time>2026-04-10T14:45:55.331Z</time></trkpt><trkpt lat="44.6003844" lon="8.0043291"><ele>390.0</ele><time>2026-04-10T14:45:57.332Z</time></trkpt><trkpt lat="44.6003326" lon="8.004235"><ele>390.6666666666667</ele><time>2026-04-10T14:46:00.349Z</time></trkpt><trkpt lat="44.6002911" lon="8.00414"><ele>391.33333333333337</ele><time>2026-04-10T14:46:04.35Z</time></trkpt><trkpt lat="44.6002257" lon="8.0040528"><ele>392.0</ele><time>2026-04-10T14:46:07.29Z</time></trkpt><trkpt lat="44.6001447" lon="8.004"><ele>392.6666666666667</ele><time>2026-04-10T14:46:10.302Z</time></trkpt><trkpt lat="44.6000671" lon="8.0039973"><ele>393.33333333333337</ele><time>2026-04-10T14:46:13.303Z</time></trkpt><trkpt lat="44.6000039" lon="8.003993"><ele>394.0</ele><time>2026-04-10T14:46:16.304Z</time></trkpt><trkpt lat="44.5999433" lon="8.0040184"><ele>394.0</ele><time>2026-04-10T14:46:19.343Z</time></trkpt><trkpt lat="44.5998944" lon="8.0040741"><ele>394.0</ele><time>2026-04-10T14:46:22.306Z</time></trkpt><trkpt lat="44.5998451" lon="8.004151"><ele>394.0</ele><time>2026-04-10T14:46:26.307Z</time></trkpt><trkpt lat="44.5998163" lon="8.0042301"><ele>394.0</ele><time>2026-04-10T14:46:29.308Z</time></trkpt><trkpt lat="44.5998213" lon="8.0043375"><ele>394.0</ele><time>2026-04-10T14:46:33.309Z</time></trkpt><trkpt lat="44.5998205" lon="8.0044543"><ele>394.0</ele><time>2026-04-10T14:46:37.31Z</time></trkpt><trkpt lat="44.5998049" lon="8.0045405"><ele>394.0</ele><time>2026-04-10T14:46:40.327Z</time></trkpt><trkpt lat="44.5997951" lon="8.0046294"><ele>395.7142857142857</ele><time>2026-04-10T14:46:43.361Z</time></trkpt><trkpt lat="44.5997889" lon="8.004743"><ele>397.42857142857144</ele><time>2026-04-10T14:46:47.379Z</time></trkpt><trkpt lat="44.5997686" lon="8.004848"><ele>399.1428571428571</ele><time>2026-04-10T14:46:51.381Z</time></trkpt><trkpt lat="44.5997567" lon="8.0049367"><ele>400.8571428571429</ele><time>2026-04-10T14:46:54.281Z</time></trkpt><trkpt lat="44.5997381" lon="8.0050275"><ele>402.57142857142856</ele><time>2026-04-10T14:46:57.382Z</time></trkpt><trkpt lat="44.5997104" lon="8.0051091"><ele>404.2857142857143</ele><time>2026-04-10T14:47:00.383Z</time></trkpt><trkpt lat="44.5996844" lon="8.0051947"><ele>406.0</ele><time>2026-04-10T14:47:03.384Z</time></trkpt><trkpt lat="44.5996394" lon="8.0052812"><ele>405.57142857142856</ele><time>2026-04-10T14:47:07.28Z</time></trkpt><trkpt lat="44.5995921" lon="8.0053509"><ele>405.1428571428571</ele><time>2026-04-10T14:47:10.28Z</time></trkpt><trkpt lat="44.5995409" lon="8.0054279"><ele>404.7142857142857</ele><time>2026-04-10T14:47:14.28Z</time></trkpt><trkpt lat="44.5994777" lon="8.0054801"><ele>404.2857142857143</ele><time>2026-04-10T14:47:17.28Z</time></trkpt><trkpt lat="44.5994105" lon="8.0055381"><ele>403.85714285714283</ele><time>2026-04-10T14:47:21.28Z</time></trkpt><trkpt lat="44.5993497" lon="8.0056016"><ele>403.42857142857144</ele><time>2026-04-10T14:47:25.28Z</time></trkpt><trkpt lat="44.599298" lon="8.0056558"><ele>403.0</ele><time>2026-04-10T14:47:29.28Z</time></trkpt><trkpt lat="44.5992429" lon="8.0057066"><ele>403.0</ele><time>2026-04-10T14:49:18.309Z</time></trkpt><trkpt lat="44.5991759" lon="8.0057789"><ele>403.0</ele><time>2026-04-10T14:49:22.311Z</time></trkpt><trkpt lat="44.5991163" lon="8.0058286"><ele>403.0</ele><time>2026-04-10T14:49:25.311Z</time></trkpt><trkpt lat="44.5990552" lon="8.0058776"><ele>403.0</ele><time>2026-04-10T14:49:28.312Z</time></trkpt><trkpt lat="44.5989983" lon="8.0059396"><ele>403.0</ele><time>2026-04-10T14:49:31.313Z</time></trkpt><trkpt lat="44.5989359" lon="8.0059936"><ele>403.0</ele><time>2026-04-10T14:49:34.315Z</time></trkpt><trkpt lat="44.5988746" lon="8.006037"><ele>403.0</ele><time>2026-04-10T14:49:37.315Z</time></trkpt><trkpt lat="44.5988211" lon="8.0060989"><ele>404.0</ele><time>2026-04-10T14:49:40.333Z</time></trkpt><trkpt lat="44.5987555" lon="8.0061561"><ele>405.0</ele><time>2026-04-10T14:49:43.334Z</time></trkpt><trkpt lat="44.5986892" lon="8.0062053"><ele>406.0</ele><time>2026-04-10T14:49:46.335Z</time></trkpt><trkpt lat="44.5986274" lon="8.0062502"><ele>407.0</ele><time>2026-04-10T14:49:49.336Z</time></trkpt><trkpt lat="44.598567" lon="8.0062915"><ele>408.0</ele><time>2026-04-10T14:49:52.337Z</time></trkpt><trkpt lat="44.5984979" lon="8.0063507"><ele>409.0</ele><time>2026-04-10T14:49:56.338Z</time></trkpt><trkpt lat="44.5984385" lon="8.0064013"><ele>410.0</ele><time>2026-04-10T14:50:00.356Z</time></trkpt><trkpt lat="44.5983742" lon="8.0064076"><ele>409.99999999999994</ele><time>2026-04-10T14:50:06.357Z</time></trkpt><trkpt lat="44.5983047" lon="8.0064426"><ele>410.0</ele><time>2026-04-10T14:50:43.352Z</time></trkpt><trkpt lat="44.5982073" lon="8.0064747"><ele>410.0</ele><time>2026-04-10T14:50:46.353Z</time></trkpt><trkpt lat="44.5981362" lon="8.0065009"><ele>410.0</ele><time>2026-04-10T14:50:49.354Z</time></trkpt><trkpt lat="44.5980596" lon="8.0065489"><ele>409.99999999999994</ele><time>2026-04-10T14:50:52.354Z</time></trkpt><trkpt lat="44.5979753" lon="8.0065861"><ele>410.0</ele><time>2026-04-10T14:50:55.355Z</time></trkpt><trkpt lat="44.5979133" lon="8.0066119"><ele>410.0</ele><time>2026-04-10T14:50:57.356Z</time></trkpt><trkpt lat="44.5978463" lon="8.0066373"><ele>410.0</ele><time>2026-04-10T14:50:59.357Z</time></trkpt><trkpt lat="44.5977781" lon="8.0066547"><ele>410.0</ele><time>2026-04-10T14:51:01.357Z</time></trkpt><trkpt lat="44.5977153" lon="8.0066746"><ele>410.0</ele><time>2026-04-10T14:51:03.358Z</time></trkpt><trkpt lat="44.5976489" lon="8.006688"><ele>410.0</ele><time>2026-04-10T14:51:05.358Z</time></trkpt><trkpt lat="44.5975771" lon="8.0066991"><ele>410.0</ele><time>2026-04-10T14:51:07.376Z</time></trkpt><trkpt lat="44.5975012" lon="8.0067129"><ele>410.0</ele><time>2026-04-10T14:51:09.377Z</time></trkpt><trkpt lat="44.5974268" lon="8.0067204"><ele>412.16666666666663</ele><time>2026-04-10T14:51:11.377Z</time></trkpt><trkpt lat="44.597356" lon="8.0067249"><ele>414.3333333333333</ele><time>2026-04-10T14:51:13.377Z</time></trkpt><trkpt lat="44.5972801" lon="8.0067283"><ele>416.5</ele><time>2026-04-10T14:51:15.378Z</time></trkpt><trkpt lat="44.5971968" lon="8.0067356"><ele>418.66666666666663</ele><time>2026-04-10T14:51:17.378Z</time></trkpt><trkpt lat="44.5971115" lon="8.0067442"><ele>420.8333333333333</ele><time>2026-04-10T14:51:19.379Z</time></trkpt><trkpt lat="44.5970297" lon="8.0067463"><ele>423.0</ele><time>2026-04-10T14:51:21.296Z</time></trkpt><trkpt lat="44.5969536" lon="8.0067381"><ele>423.0</ele><time>2026-04-10T14:51:23.297Z</time></trkpt><trkpt lat="44.5968842" lon="8.0067181"><ele>423.0</ele><time>2026-04-10T14:51:25.297Z</time></trkpt><trkpt lat="44.5968147" lon="8.0066716"><ele>423.0</ele><time>2026-04-10T14:51:27.298Z</time></trkpt><trkpt lat="44.59674" lon="8.0066228"><ele>423.0</ele><time>2026-04-10T14:51:29.299Z</time></trkpt><trkpt lat="44.5966657" lon="8.006565"><ele>423.0</ele><time>2026-04-10T14:51:31.317Z</time></trkpt><trkpt lat="44.5965988" lon="8.0065009"><ele>423.0</ele><time>2026-04-10T14:51:33.364Z</time></trkpt><trkpt lat="44.5965508" lon="8.0064268"><ele>421.85714285714283</ele><time>2026-04-10T14:51:35.284Z</time></trkpt><trkpt lat="44.5965024" lon="8.0063571"><ele>420.7142857142857</ele><time>2026-04-10T14:51:37.284Z</time></trkpt><trkpt lat="44.5964336" lon="8.006274"><ele>419.57142857142856</ele><time>2026-04-10T14:51:40.284Z</time></trkpt><trkpt lat="44.5963807" lon="8.0061908"><ele>418.42857142857144</ele><time>2026-04-10T14:52:14.284Z</time></trkpt><trkpt lat="44.5963395" lon="8.0061105"><ele>417.28571428571433</ele><time>2026-04-10T14:52:17.284Z</time></trkpt><trkpt lat="44.5962943" lon="8.0060486"><ele>416.14285714285717</ele><time>2026-04-10T14:52:19.286Z</time></trkpt><trkpt lat="44.5962465" lon="8.0059799"><ele>415.0</ele><time>2026-04-10T14:52:21.284Z</time></trkpt><trkpt lat="44.5961822" lon="8.0058874"><ele>417.6666666666667</ele><time>2026-04-10T14:52:24.284Z</time></trkpt><trkpt lat="44.5961132" lon="8.0057948"><ele>420.33333333333337</ele><time>2026-04-10T14:52:27.285Z</time></trkpt><trkpt lat="44.5960526" lon="8.0056929"><ele>423.0</ele><time>2026-04-10T14:52:30.284Z</time></trkpt><trkpt lat="44.5960275" lon="8.0055716"><ele>425.66666666666663</ele><time>2026-04-10T14:52:33.284Z</time></trkpt><trkpt lat="44.5960161" lon="8.005478"><ele>428.3333333333333</ele><time>2026-04-10T14:52:35.284Z</time></trkpt><trkpt lat="44.5960117" lon="8.0053584"><ele>431.0</ele><time>2026-04-10T14:52:37.284Z</time></trkpt><trkpt lat="44.5959981" lon="8.0052692"><ele>430.99999999999994</ele><time>2026-04-10T14:52:39.285Z</time></trkpt><trkpt lat="44.5959853" lon="8.0051765"><ele>431.0</ele><time>2026-04-10T14:52:41.285Z</time></trkpt><trkpt lat="44.5959685" lon="8.0050801"><ele>431.0</ele><time>2026-04-10T14:52:43.285Z</time></trkpt><trkpt lat="44.5959211" lon="8.0049812"><ele>431.0</ele><time>2026-04-10T14:52:46.285Z</time></trkpt><trkpt lat="44.5958572" lon="8.0049066"><ele>430.99999999999994</ele><time>2026-04-10T14:52:49.285Z</time></trkpt><trkpt lat="44.5957672" lon="8.0048731"><ele>431.0</ele><time>2026-04-10T14:52:52.286Z</time></trkpt><trkpt lat="44.5956844" lon="8.0048479"><ele>429.8571428571429</ele><time>2026-04-10T14:52:54.285Z</time></trkpt><trkpt lat="44.5956142" lon="8.0048177"><ele>428.71428571428567</ele><time>2026-04-10T14:52:56.285Z</time></trkpt><trkpt lat="44.5955369" lon="8.0047982"><ele>427.57142857142856</ele><time>2026-04-10T14:52:58.285Z</time></trkpt><trkpt lat="44.5954704" lon="8.0047734"><ele>426.42857142857144</ele><time>2026-04-10T14:53:00.285Z</time></trkpt><trkpt lat="44.5954039" lon="8.0047449"><ele>425.28571428571433</ele><time>2026-04-10T14:53:02.285Z</time></trkpt><trkpt lat="44.595334" lon="8.0047157"><ele>424.1428571428571</ele><time>2026-04-10T14:53:04.285Z</time></trkpt><trkpt lat="44.595267" lon="8.0046717"><ele>423.0</ele><time>2026-04-10T14:53:06.285Z</time></trkpt><trkpt lat="44.5952035" lon="8.0046254"><ele>423.0</ele><time>2026-04-10T14:53:08.285Z</time></trkpt><trkpt lat="44.5951385" lon="8.0045854"><ele>423.0</ele><time>2026-04-10T14:53:10.285Z</time></trkpt><trkpt lat="44.595072" lon="8.0045179"><ele>423.0</ele><time>2026-04-10T14:53:12.285Z</time></trkpt><trkpt lat="44.5950106" lon="8.0044487"><ele>423.0</ele><time>2026-04-10T14:53:14.285Z</time></trkpt><trkpt lat="44.5949438" lon="8.0043852"><ele>423.0</ele><time>2026-04-10T14:53:16.285Z</time></trkpt><trkpt lat="44.5948803" lon="8.0043127"><ele>423.0</ele><time>2026-04-10T14:53:18.285Z</time></trkpt><trkpt lat="44.5948187" lon="8.0042363"><ele>423.0</ele><time>2026-04-10T14:53:20.285Z</time></trkpt><trkpt lat="44.5947564" lon="8.0041669"><ele>423.0</ele><time>2026-04-10T14:53:22.285Z</time></trkpt><trkpt lat="44.594701" lon="8.0040989"><ele>423.0</ele><time>2026-04-10T14:53:24.285Z</time></trkpt><trkpt lat="44.5946417" lon="8.0040332"><ele>423.0</ele><time>2026-04-10T14:53:26.285Z</time></trkpt><trkpt lat="44.5945864" lon="8.0039617"><ele>423.0</ele><time>2026-04-10T14:53:28.285Z</time></trkpt><trkpt lat="44.5945292" lon="8.0038642"><ele>423.0</ele><time>2026-04-10T14:53:30.285Z</time></trkpt><trkpt lat="44.5944683" lon="8.0037599"><ele>422.8333333333333</ele><time>2026-04-10T14:53:32.286Z</time></trkpt><trkpt lat="44.5944105" lon="8.0036589"><ele>422.66666666666663</ele><time>2026-04-10T14:53:34.285Z</time></trkpt><trkpt lat="44.5943646" lon="8.0035663"><ele>422.5</ele><time>2026-04-10T14:53:36.285Z</time></trkpt><trkpt lat="44.5943191" lon="8.0034777"><ele>422.3333333333333</ele><time>2026-04-10T14:53:38.285Z</time></trkpt><trkpt lat="44.5942649" lon="8.0033921"><ele>422.16666666666663</ele><time>2026-04-10T14:53:40.285Z</time></trkpt><trkpt lat="44.5942035" lon="8.0033207"><ele>422.0</ele><time>2026-04-10T14:53:42.285Z</time></trkpt><trkpt lat="44.5941413" lon="8.0032588"><ele>422.0</ele><time>2026-04-10T14:53:44.285Z</time></trkpt><trkpt lat="44.594071" lon="8.0032024"><ele>422.0</ele><time>2026-04-10T14:53:46.285Z</time></trkpt><trkpt lat="44.5940039" lon="8.0031457"><ele>422.0</ele><time>2026-04-10T14:53:48.285Z</time></trkpt><trkpt lat="44.5939393" lon="8.0031"><ele>422.0</ele><time>2026-04-10T14:53:50.285Z</time></trkpt><trkpt lat="44.5938782" lon="8.0030511"><ele>422.0</ele><time>2026-04-10T14:53:52.285Z</time></trkpt><trkpt lat="44.5938194" lon="8.0030067"><ele>422.0</ele><time>2026-04-10T14:53:54.285Z</time></trkpt><trkpt lat="44.5937556" lon="8.0029556"><ele>422.0</ele><time>2026-04-10T14:53:56.286Z</time></trkpt><trkpt lat="44.5936924" lon="8.0029104"><ele>423.2857142857143</ele><time>2026-04-10T14:53:58.286Z</time></trkpt><trkpt lat="44.5936302" lon="8.0028635"><ele>424.57142857142856</ele><time>2026-04-10T14:54:00.286Z</time></trkpt><trkpt lat="44.5935781" lon="8.0028138"><ele>425.8571428571429</ele><time>2026-04-10T14:54:02.286Z</time></trkpt><trkpt lat="44.5935167" lon="8.0027726"><ele>427.1428571428571</ele><time>2026-04-10T14:54:04.286Z</time></trkpt><trkpt lat="44.593424" lon="8.0027155"><ele>428.4285714285714</ele><time>2026-04-10T14:54:07.286Z</time></trkpt><trkpt lat="44.5933598" lon="8.0026889"><ele>429.7142857142857</ele><time>2026-04-10T14:54:09.286Z</time></trkpt><trkpt lat="44.5932956" lon="8.002655"><ele>431.0</ele><time>2026-04-10T14:54:11.286Z</time></trkpt><trkpt lat="44.5932273" lon="8.0026432"><ele>431.0</ele><time>2026-04-10T14:54:13.286Z</time></trkpt><trkpt lat="44.5931334" lon="8.0026411"><ele>431.0</ele><time>2026-04-10T14:54:16.286Z</time></trkpt><trkpt lat="44.5930657" lon="8.0026517"><ele>431.0</ele><time>2026-04-10T14:54:18.286Z</time></trkpt><trkpt lat="44.5929983" lon="8.0026799"><ele>431.0</ele><time>2026-04-10T14:54:20.287Z</time></trkpt><trkpt lat="44.592933" lon="8.0027193"><ele>431.0</ele><time>2026-04-10T14:54:22.288Z</time></trkpt><trkpt lat="44.5928659" lon="8.0027514"><ele>431.0</ele><time>2026-04-10T14:54:24.286Z</time></trkpt><trkpt lat="44.5928016" lon="8.0027831"><ele>431.0</ele><time>2026-04-10T14:54:26.287Z</time></trkpt><trkpt lat="44.5927375" lon="8.0028114"><ele>430.7142857142857</ele><time>2026-04-10T14:54:28.286Z</time></trkpt><trkpt lat="44.5926712" lon="8.002851"><ele>430.4285714285714</ele><time>2026-04-10T14:54:30.286Z</time></trkpt><trkpt lat="44.5925983" lon="8.0028822"><ele>430.1428571428571</ele><time>2026-04-10T14:54:32.286Z</time></trkpt><trkpt lat="44.5925336" lon="8.0029075"><ele>429.8571428571429</ele><time>2026-04-10T14:54:34.287Z</time></trkpt><trkpt lat="44.5924701" lon="8.0029343"><ele>429.57142857142856</ele><time>2026-04-10T14:54:36.287Z</time></trkpt><trkpt lat="44.5923846" lon="8.0029725"><ele>429.2857142857143</ele><time>2026-04-10T14:54:39.286Z</time></trkpt><trkpt lat="44.5923191" lon="8.0029945"><ele>429.0</ele><time>2026-04-10T14:54:41.286Z</time></trkpt><trkpt lat="44.5922324" lon="8.0030156"><ele>429.0</ele><time>2026-04-10T14:54:44.286Z</time></trkpt><trkpt lat="44.5921663" lon="8.0030239"><ele>429.0</ele><time>2026-04-10T14:54:46.286Z</time></trkpt><trkpt lat="44.5920785" lon="8.0030394"><ele>429.0</ele><time>2026-04-10T14:54:49.286Z</time></trkpt><trkpt lat="44.5919947" lon="8.0030576"><ele>429.0</ele><time>2026-04-10T14:54:52.287Z</time></trkpt><trkpt lat="44.5919031" lon="8.0030651"><ele>429.0</ele><time>2026-04-10T14:54:55.286Z</time></trkpt><trkpt lat="44.5918094" lon="8.0030629"><ele>429.0</ele><time>2026-04-10T14:54:58.286Z</time></trkpt><trkpt lat="44.5917453" lon="8.0030518"><ele>429.3333333333333</ele><time>2026-04-10T14:55:00.287Z</time></trkpt><trkpt lat="44.5916595" lon="8.0030402"><ele>429.66666666666663</ele><time>2026-04-10T14:55:03.286Z</time></trkpt><trkpt lat="44.5915776" lon="8.0030261"><ele>430.0</ele><time>2026-04-10T14:55:06.288Z</time></trkpt><trkpt lat="44.5914942" lon="8.0030202"><ele>430.3333333333333</ele><time>2026-04-10T14:55:09.287Z</time></trkpt><trkpt lat="44.5914103" lon="8.00302"><ele>430.66666666666663</ele><time>2026-04-10T14:55:12.287Z</time></trkpt><trkpt lat="44.5913162" lon="8.0030064"><ele>431.0</ele><time>2026-04-10T14:55:15.287Z</time></trkpt><trkpt lat="44.5912494" lon="8.0030025"><ele>431.49999999999994</ele><time>2026-04-10T14:55:17.287Z</time></trkpt><trkpt lat="44.591162" lon="8.002999"><ele>432.0</ele><time>2026-04-10T14:55:20.287Z</time></trkpt><trkpt lat="44.5910776" lon="8.0029885"><ele>432.5</ele><time>2026-04-10T14:55:23.287Z</time></trkpt><trkpt lat="44.5909926" lon="8.0029923"><ele>433.0</ele><time>2026-04-10T14:55:26.288Z</time></trkpt><trkpt lat="44.5909292" lon="8.0029876"><ele>433.49999999999994</ele><time>2026-04-10T14:55:28.287Z</time></trkpt><trkpt lat="44.5908438" lon="8.0029825"><ele>434.0</ele><time>2026-04-10T14:55:30.287Z</time></trkpt><trkpt lat="44.5907397" lon="8.0029712"><ele>434.0</ele><time>2026-04-10T14:55:32.287Z</time></trkpt><trkpt lat="44.5906368" lon="8.0029614"><ele>434.0</ele><time>2026-04-10T14:55:34.287Z</time></trkpt><trkpt lat="44.590514" lon="8.0029529"><ele>434.0</ele><time>2026-04-10T14:55:36.287Z</time></trkpt><trkpt lat="44.5903874" lon="8.0029377"><ele>434.0</ele><time>2026-04-10T14:55:38.287Z</time></trkpt><trkpt lat="44.5903205" lon="8.0029266"><ele>434.0</ele><time>2026-04-10T14:55:39.287Z</time></trkpt><trkpt lat="44.5902488" lon="8.0029168"><ele>433.14285714285717</ele><time>2026-04-10T14:55:40.287Z</time></trkpt><trkpt lat="44.5901806" lon="8.0029091"><ele>432.2857142857143</ele><time>2026-04-10T14:55:41.287Z</time></trkpt><trkpt lat="44.5901088" lon="8.0029057"><ele>431.42857142857144</ele><time>2026-04-10T14:55:42.287Z</time></trkpt><trkpt lat="44.5900345" lon="8.0029043"><ele>430.57142857142856</ele><time>2026-04-10T14:55:43.287Z</time></trkpt><trkpt lat="44.5899619" lon="8.0029076"><ele>429.7142857142857</ele><time>2026-04-10T14:55:44.287Z</time></trkpt><trkpt lat="44.5898863" lon="8.0029215"><ele>428.8571428571429</ele><time>2026-04-10T14:55:45.287Z</time></trkpt><trkpt lat="44.5898103" lon="8.002947"><ele>428.0</ele><time>2026-04-10T14:55:46.287Z</time></trkpt><trkpt lat="44.5897329" lon="8.0029809"><ele>428.0</ele><time>2026-04-10T14:55:47.288Z</time></trkpt><trkpt lat="44.5896572" lon="8.0030239"><ele>427.99999999999994</ele><time>2026-04-10T14:55:48.287Z</time></trkpt><trkpt lat="44.5895822" lon="8.0030861"><ele>427.99999999999994</ele><time>2026-04-10T14:55:49.287Z</time></trkpt><trkpt lat="44.58951" lon="8.0031689"><ele>428.0</ele><time>2026-04-10T14:55:50.287Z</time></trkpt><trkpt lat="44.5894437" lon="8.0032639"><ele>428.0</ele><time>2026-04-10T14:55:51.287Z</time></trkpt><trkpt lat="44.5893834" lon="8.0033657"><ele>428.4</ele><time>2026-04-10T14:55:52.287Z</time></trkpt><trkpt lat="44.5893248" lon="8.0034704"><ele>428.79999999999995</ele><time>2026-04-10T14:55:53.287Z</time></trkpt><trkpt lat="44.5892629" lon="8.0035736"><ele>429.2</ele><time>2026-04-10T14:55:54.289Z</time></trkpt><trkpt lat="44.589198" lon="8.0036786"><ele>429.6</ele><time>2026-04-10T14:55:55.287Z</time></trkpt><trkpt lat="44.589132" lon="8.0037844"><ele>430.0</ele><time>2026-04-10T14:55:56.288Z</time></trkpt><trkpt lat="44.5890657" lon="8.0038907"><ele>430.0</ele><time>2026-04-10T14:55:57.288Z</time></trkpt><trkpt lat="44.5889997" lon="8.0039972"><ele>430.0</ele><time>2026-04-10T14:55:58.288Z</time></trkpt><trkpt lat="44.5889329" lon="8.004105"><ele>430.0</ele><time>2026-04-10T14:55:59.288Z</time></trkpt><trkpt lat="44.588866" lon="8.0042179"><ele>430.0</ele><time>2026-04-10T14:56:00.287Z</time></trkpt><trkpt lat="44.5887975" lon="8.0043299"><ele>430.0</ele><time>2026-04-10T14:56:01.287Z</time></trkpt><trkpt lat="44.5887286" lon="8.0044413"><ele>428.0</ele><time>2026-04-10T14:56:02.288Z</time></trkpt><trkpt lat="44.5886607" lon="8.0045516"><ele>426.0</ele><time>2026-04-10T14:56:03.288Z</time></trkpt><trkpt lat="44.5885955" lon="8.0046622"><ele>424.0</ele><time>2026-04-10T14:56:04.288Z</time></trkpt><trkpt lat="44.5885357" lon="8.004773"><ele>422.0</ele><time>2026-04-10T14:56:05.288Z</time></trkpt><trkpt lat="44.5884795" lon="8.0048862"><ele>420.0</ele><time>2026-04-10T14:56:06.288Z</time></trkpt><trkpt lat="44.5884294" lon="8.0050001"><ele>420.0</ele><time>2026-04-10T14:56:07.287Z</time></trkpt><trkpt lat="44.5883888" lon="8.0051119"><ele>420.0</ele><time>2026-04-10T14:56:08.287Z</time></trkpt><trkpt lat="44.5883575" lon="8.0052286"><ele>420.0</ele><time>2026-04-10T14:56:09.287Z</time></trkpt><trkpt lat="44.5883355" lon="8.0053472"><ele>420.0</ele><time>2026-04-10T14:56:10.289Z</time></trkpt><trkpt lat="44.5883187" lon="8.0054688"><ele>420.0</ele><time>2026-04-10T14:56:11.288Z</time></trkpt><trkpt lat="44.5883131" lon="8.0055944"><ele>420.0</ele><time>2026-04-10T14:56:12.289Z</time></trkpt><trkpt lat="44.5883193" lon="8.0057148"><ele>420.0</ele><time>2026-04-10T14:56:13.287Z</time></trkpt><trkpt lat="44.5883384" lon="8.0058266"><ele>420.0</ele><time>2026-04-10T14:56:14.287Z</time></trkpt><trkpt lat="44.5883606" lon="8.0059276"><ele>420.0</ele><time>2026-04-10T14:56:15.287Z</time></trkpt><trkpt lat="44.58838" lon="8.0060152"><ele>420.0</ele><time>2026-04-10T14:56:16.288Z</time></trkpt><trkpt lat="44.5884223" lon="8.0061683"><ele>420.0</ele><time>2026-04-10T14:56:18.287Z</time></trkpt><trkpt lat="44.5884652" lon="8.0062899"><ele>420.0</ele><time>2026-04-10T14:56:20.287Z</time></trkpt><trkpt lat="44.5884973" lon="8.0064011"><ele>421.0</ele><time>2026-04-10T14:56:22.288Z</time></trkpt><trkpt lat="44.5885262" lon="8.0064843"><ele>422.0</ele><time>2026-04-10T14:56:24.288Z</time></trkpt><trkpt lat="44.5885578" lon="8.006561"><ele>423.0</ele><time>2026-04-10T14:56:26.288Z</time></trkpt><trkpt lat="44.588563" lon="8.0066731"><ele>424.0</ele><time>2026-04-10T14:56:29.289Z</time></trkpt><trkpt lat="44.5885248" lon="8.0067959"><ele>425.0</ele><time>2026-04-10T14:56:32.288Z</time></trkpt><trkpt lat="44.5884742" lon="8.0068677"><ele>426.0</ele><time>2026-04-10T14:56:35.288Z</time></trkpt><trkpt lat="44.5884113" lon="8.0069001"><ele>427.0</ele><time>2026-04-10T14:56:38.289Z</time></trkpt><trkpt lat="44.5883419" lon="8.0069106"><ele>428.14285714285717</ele><time>2026-04-10T14:56:41.288Z</time></trkpt><trkpt lat="44.5882709" lon="8.0068939"><ele>429.2857142857143</ele><time>2026-04-10T14:56:44.288Z</time></trkpt><trkpt lat="44.5881937" lon="8.0068876"><ele>430.42857142857144</ele><time>2026-04-10T14:56:47.288Z</time></trkpt><trkpt lat="44.5881165" lon="8.0068577"><ele>431.57142857142856</ele><time>2026-04-10T14:56:50.288Z</time></trkpt><trkpt lat="44.5880379" lon="8.0068514"><ele>432.7142857142857</ele><time>2026-04-10T14:56:53.288Z</time></trkpt><trkpt lat="44.5879705" lon="8.0068293"><ele>433.8571428571429</ele><time>2026-04-10T14:56:56.288Z</time></trkpt><trkpt lat="44.5879025" lon="8.0068242"><ele>435.0</ele><time>2026-04-10T14:56:59.288Z</time></trkpt><trkpt lat="44.5878348" lon="8.0068173"><ele>435.00000000000006</ele><time>2026-04-10T14:57:02.288Z</time></trkpt><trkpt lat="44.5877621" lon="8.0068206"><ele>435.0</ele><time>2026-04-10T14:57:06.288Z</time></trkpt><trkpt lat="44.5876953" lon="8.0067999"><ele>435.0</ele><time>2026-04-10T14:57:09.288Z</time></trkpt><trkpt lat="44.5876296" lon="8.0067838"><ele>435.0</ele><time>2026-04-10T14:57:12.288Z</time></trkpt><trkpt lat="44.5875657" lon="8.0067822"><ele>435.0</ele><time>2026-04-10T14:57:15.288Z</time></trkpt><trkpt lat="44.5874983" lon="8.0067833"><ele>435.00000000000006</ele><time>2026-04-10T14:57:18.288Z</time></trkpt><trkpt lat="44.5874326" lon="8.0067869"><ele>435.0</ele><time>2026-04-10T14:57:21.288Z</time></trkpt><trkpt lat="44.5873568" lon="8.0068161"><ele>435.00000000000006</ele><time>2026-04-10T14:57:25.288Z</time></trkpt><trkpt lat="44.5872953" lon="8.0068391"><ele>435.0</ele><time>2026-04-10T14:57:28.288Z</time></trkpt><trkpt lat="44.5872253" lon="8.0068711"><ele>435.0</ele><time>2026-04-10T14:57:32.289Z</time></trkpt><trkpt lat="44.5871577" lon="8.0069328"><ele>435.0</ele><time>2026-04-10T14:57:36.289Z</time></trkpt><trkpt lat="44.587094" lon="8.0069565"><ele>435.0</ele><time>2026-04-10T14:57:41.29Z</time></trkpt><trkpt lat="44.5870889" lon="8.0070468"><ele>435.00000000000006</ele><time>2026-04-10T14:58:26.289Z</time></trkpt><trkpt lat="44.5870228" lon="8.0070916"><ele>435.0</ele><time>2026-04-10T14:58:30.289Z</time></trkpt><trkpt lat="44.5869721" lon="8.0071798"><ele>435.7142857142857</ele><time>2026-04-10T14:58:33.29Z</time></trkpt><trkpt lat="44.5869234" lon="8.0072623"><ele>436.42857142857144</ele><time>2026-04-10T14:58:36.289Z</time></trkpt><trkpt lat="44.5868901" lon="8.0073397"><ele>437.1428571428571</ele><time>2026-04-10T14:58:39.289Z</time></trkpt><trkpt lat="44.5868687" lon="8.0074295"><ele>437.8571428571429</ele><time>2026-04-10T14:58:42.289Z</time></trkpt><trkpt lat="44.5868529" lon="8.0075171"><ele>438.57142857142856</ele><time>2026-04-10T14:58:45.29Z</time></trkpt><trkpt lat="44.5868319" lon="8.0076091"><ele>439.2857142857143</ele><time>2026-04-10T14:58:48.291Z</time></trkpt><trkpt lat="44.5868343" lon="8.0077123"><ele>440.0</ele><time>2026-04-10T14:58:51.29Z</time></trkpt><trkpt lat="44.5868301" lon="8.0078105"><ele>439.99999999999994</ele><time>2026-04-10T14:58:54.29Z</time></trkpt><trkpt lat="44.586856" lon="8.0079077"><ele>440.0</ele><time>2026-04-10T14:58:57.29Z</time></trkpt><trkpt lat="44.5868689" lon="8.0080035"><ele>440.0</ele><time>2026-04-10T14:59:00.29Z</time></trkpt><trkpt lat="44.5868853" lon="8.0080959"><ele>440.0</ele><time>2026-04-10T14:59:03.29Z</time></trkpt><trkpt lat="44.5869073" lon="8.0081934"><ele>440.0</ele><time>2026-04-10T14:59:06.291Z</time></trkpt><trkpt lat="44.5869218" lon="8.0082838"><ele>439.99999999999994</ele><time>2026-04-10T14:59:09.291Z</time></trkpt><trkpt lat="44.5869359" lon="8.0083728"><ele>440.0</ele><time>2026-04-10T14:59:12.29Z</time></trkpt><trkpt lat="44.5869361" lon="8.0084632"><ele>441.3333333333333</ele><time>2026-04-10T14:59:15.29Z</time></trkpt><trkpt lat="44.5869264" lon="8.0085651"><ele>442.66666666666663</ele><time>2026-04-10T14:59:19.29Z</time></trkpt><trkpt lat="44.5869024" lon="8.008652"><ele>444.0</ele><time>2026-04-10T14:59:22.29Z</time></trkpt><trkpt lat="44.5868652" lon="8.0087451"><ele>445.33333333333337</ele><time>2026-04-10T14:59:26.29Z</time></trkpt><trkpt lat="44.5868026" lon="8.0088227"><ele>446.6666666666667</ele><time>2026-04-10T14:59:30.29Z</time></trkpt><trkpt lat="44.5867471" lon="8.0088842"><ele>448.0</ele><time>2026-04-10T14:59:33.29Z</time></trkpt><trkpt lat="44.5866834" lon="8.0089577"><ele>448.00000000000006</ele><time>2026-04-10T14:59:37.29Z</time></trkpt><trkpt lat="44.5866148" lon="8.0090104"><ele>448.0</ele><time>2026-04-10T14:59:41.29Z</time></trkpt><trkpt lat="44.5865548" lon="8.009075"><ele>448.0</ele><time>2026-04-10T14:59:45.29Z</time></trkpt><trkpt lat="44.586501" lon="8.0091488"><ele>448.0</ele><time>2026-04-10T14:59:49.29Z</time></trkpt><trkpt lat="44.586454" lon="8.0092291"><ele>448.00000000000006</ele><time>2026-04-10T14:59:53.29Z</time></trkpt><trkpt lat="44.586409" lon="8.009322"><ele>448.0</ele><time>2026-04-10T14:59:57.291Z</time></trkpt><trkpt lat="44.5863677" lon="8.0094196"><ele>447.85714285714283</ele><time>2026-04-10T15:00:01.291Z</time></trkpt><trkpt lat="44.5863305" lon="8.0094947"><ele>447.7142857142857</ele><time>2026-04-10T15:00:04.291Z</time></trkpt><trkpt lat="44.5863008" lon="8.0095753"><ele>447.57142857142856</ele><time>2026-04-10T15:00:07.291Z</time></trkpt><trkpt lat="44.5862534" lon="8.0096728"><ele>447.42857142857144</ele><time>2026-04-10T15:00:11.291Z</time></trkpt><trkpt lat="44.5862125" lon="8.009768"><ele>447.2857142857143</ele><time>2026-04-10T15:00:15.291Z</time></trkpt><trkpt lat="44.5861704" lon="8.0098655"><ele>447.1428571428571</ele><time>2026-04-10T15:00:19.291Z</time></trkpt><trkpt lat="44.5861263" lon="8.0099421"><ele>447.0</ele><time>2026-04-10T15:00:23.291Z</time></trkpt><trkpt lat="44.5860813" lon="8.010014"><ele>449.85714285714283</ele><time>2026-04-10T15:00:27.291Z</time></trkpt><trkpt lat="44.5860264" lon="8.0100815"><ele>452.71428571428567</ele><time>2026-04-10T15:00:31.291Z</time></trkpt><trkpt lat="44.5859632" lon="8.0101336"><ele>455.57142857142856</ele><time>2026-04-10T15:00:35.291Z</time></trkpt><trkpt lat="44.5858892" lon="8.0101931"><ele>458.4285714285714</ele><time>2026-04-10T15:00:39.291Z</time></trkpt><trkpt lat="44.5858249" lon="8.0102162"><ele>461.2857142857143</ele><time>2026-04-10T15:00:42.292Z</time></trkpt><trkpt lat="44.5857513" lon="8.0102302"><ele>464.14285714285705</ele><time>2026-04-10T15:00:46.291Z</time></trkpt><trkpt lat="44.5856801" lon="8.010248"><ele>466.99999999999994</ele><time>2026-04-10T15:00:50.291Z</time></trkpt><trkpt lat="44.5856028" lon="8.0102352"><ele>466.99999999999994</ele><time>2026-04-10T15:00:54.291Z</time></trkpt><trkpt lat="44.5855255" lon="8.0102258"><ele>467.0</ele><time>2026-04-10T15:00:58.292Z</time></trkpt><trkpt lat="44.5854499" lon="8.0102326"><ele>466.99999999999994</ele><time>2026-04-10T15:01:02.291Z</time></trkpt><trkpt lat="44.5853828" lon="8.0102464"><ele>466.99999999999994</ele><time>2026-04-10T15:01:06.291Z</time></trkpt><trkpt lat="44.5853245" lon="8.0103082"><ele>467.0</ele><time>2026-04-10T15:01:11.292Z</time></trkpt><trkpt lat="44.5852797" lon="8.0104004"><ele>466.99999999999994</ele><time>2026-04-10T15:01:15.292Z</time></trkpt><trkpt lat="44.5852464" lon="8.0104774"><ele>466.99999999999994</ele><time>2026-04-10T15:01:19.292Z</time></trkpt><trkpt lat="44.5852762" lon="8.0105663"><ele>466.99999999999994</ele><time>2026-04-10T15:01:23.292Z</time></trkpt><trkpt lat="44.5853203" lon="8.0106405"><ele>467.0</ele><time>2026-04-10T15:01:27.292Z</time></trkpt><trkpt lat="44.5853525" lon="8.0107342"><ele>466.99999999999994</ele><time>2026-04-10T15:01:31.292Z</time></trkpt><trkpt lat="44.5854217" lon="8.0107821"><ele>466.99999999999994</ele><time>2026-04-10T15:01:35.292Z</time></trkpt><trkpt lat="44.5854851" lon="8.0108001"><ele>467.0</ele><time>2026-04-10T15:01:38.292Z</time></trkpt><trkpt lat="44.5855538" lon="8.0108176"><ele>466.99999999999994</ele><time>2026-04-10T15:01:41.292Z</time></trkpt><trkpt lat="44.5856306" lon="8.0108222"><ele>466.99999999999994</ele><time>2026-04-10T15:01:44.292Z</time></trkpt><trkpt lat="44.5857138" lon="8.0108227"><ele>466.99999999999994</ele><time>2026-04-10T15:01:47.292Z</time></trkpt><trkpt lat="44.5857853" lon="8.0108393"><ele>467.0</ele><time>2026-04-10T15:01:50.292Z</time></trkpt><trkpt lat="44.5858563" lon="8.010839"><ele>467.0</ele><time>2026-04-10T15:01:53.292Z</time></trkpt><trkpt lat="44.585937" lon="8.0108309"><ele>467.0</ele><time>2026-04-10T15:01:56.292Z</time></trkpt><trkpt lat="44.5860219" lon="8.0108015"><ele>466.99999999999994</ele><time>2026-04-10T15:01:59.292Z</time></trkpt><trkpt lat="44.5860984" lon="8.0107589"><ele>467.0</ele><time>2026-04-10T15:02:02.292Z</time></trkpt><trkpt lat="44.5861669" lon="8.0106955"><ele>468.99999999999994</ele><time>2026-04-10T15:02:05.292Z</time></trkpt><trkpt lat="44.5862386" lon="8.010641"><ele>471.0</ele><time>2026-04-10T15:02:08.292Z</time></trkpt><trkpt lat="44.5862976" lon="8.0105525"><ele>473.0</ele><time>2026-04-10T15:02:11.293Z</time></trkpt><trkpt lat="44.5863598" lon="8.0104656"><ele>475.0</ele><time>2026-04-10T15:02:14.292Z</time></trkpt><trkpt lat="44.5864197" lon="8.0103767"><ele>476.99999999999994</ele><time>2026-04-10T15:02:17.292Z</time></trkpt><trkpt lat="44.5865052" lon="8.0103695"><ele>479.0</ele><time>2026-04-10T15:02:20.293Z</time></trkpt><trkpt lat="44.5865726" lon="8.0104171"><ele>479.0</ele><time>2026-04-10T15:02:23.293Z</time></trkpt><trkpt lat="44.5865853" lon="8.0105046"><ele>479.0</ele><time>2026-04-10T15:02:26.294Z</time></trkpt><trkpt lat="44.5865346" lon="8.0105768"><ele>479.0</ele><time>2026-04-10T15:02:29.293Z</time></trkpt><trkpt lat="44.5864852" lon="8.010641"><ele>479.0</ele><time>2026-04-10T15:02:32.293Z</time></trkpt><trkpt lat="44.5864095" lon="8.0106937"><ele>479.0</ele><time>2026-04-10T15:02:36.293Z</time></trkpt><trkpt lat="44.5863561" lon="8.0107535"><ele>479.0</ele><time>2026-04-10T15:02:39.293Z</time></trkpt><trkpt lat="44.5862978" lon="8.0108208"><ele>479.0</ele><time>2026-04-10T15:02:43.293Z</time></trkpt><trkpt lat="44.5862223" lon="8.0108777"><ele>479.57142857142856</ele><time>2026-04-10T15:02:47.293Z</time></trkpt><trkpt lat="44.5861655" lon="8.0109324"><ele>480.14285714285717</ele><time>2026-04-10T15:02:50.293Z</time></trkpt><trkpt lat="44.586115" lon="8.0109952"><ele>480.7142857142857</ele><time>2026-04-10T15:02:53.293Z</time></trkpt><trkpt lat="44.5860521" lon="8.0110663"><ele>481.2857142857143</ele><time>2026-04-10T15:02:57.293Z</time></trkpt><trkpt lat="44.586001" lon="8.0111393"><ele>481.8571428571429</ele><time>2026-04-10T15:03:01.293Z</time></trkpt><trkpt lat="44.5859487" lon="8.0111982"><ele>482.42857142857144</ele><time>2026-04-10T15:03:05.293Z</time></trkpt><trkpt lat="44.5858934" lon="8.0112642"><ele>483.0</ele><time>2026-04-10T15:03:09.293Z</time></trkpt><trkpt lat="44.5858513" lon="8.0113359"><ele>483.0</ele><time>2026-04-10T15:03:12.293Z</time></trkpt><trkpt lat="44.585798" lon="8.011426"><ele>483.0</ele><time>2026-04-10T15:03:16.293Z</time></trkpt><trkpt lat="44.585759" lon="8.011497"><ele>483.0</ele><time>2026-04-10T15:03:19.293Z</time></trkpt><trkpt lat="44.5857147" lon="8.0115919"><ele>483.0</ele><time>2026-04-10T15:03:23.293Z</time></trkpt><trkpt lat="44.5856723" lon="8.0116807"><ele>483.0</ele><time>2026-04-10T15:03:27.293Z</time></trkpt><trkpt lat="44.5856371" lon="8.0117713"><ele>483.0</ele><time>2026-04-10T15:03:31.294Z</time></trkpt><trkpt lat="44.5856058" lon="8.0118698"><ele>484.0</ele><time>2026-04-10T15:03:35.294Z</time></trkpt><trkpt lat="44.5855575" lon="8.0119501"><ele>485.0</ele><time>2026-04-10T15:03:39.294Z</time></trkpt><trkpt lat="44.5855069" lon="8.0120273"><ele>486.0</ele><time>2026-04-10T15:03:43.294Z</time></trkpt><trkpt lat="44.5854778" lon="8.0121195"><ele>487.0</ele><time>2026-04-10T15:03:47.294Z</time></trkpt><trkpt lat="44.585442" lon="8.0121989"><ele>488.0</ele><time>2026-04-10T15:03:51.294Z</time></trkpt><trkpt lat="44.5854051" lon="8.0122741"><ele>489.0</ele><time>2026-04-10T15:03:55.294Z</time></trkpt><trkpt lat="44.585386" lon="8.0123629"><ele>490.0</ele><time>2026-04-10T15:03:59.294Z</time></trkpt><trkpt lat="44.5853225" lon="8.0124016"><ele>490.0</ele><time>2026-04-10T15:04:03.295Z</time></trkpt><trkpt lat="44.5852705" lon="8.0124755"><ele>490.0</ele><time>2026-04-10T15:04:07.294Z</time></trkpt><trkpt lat="44.5852133" lon="8.0125289"><ele>490.0</ele><time>2026-04-10T15:04:11.294Z</time></trkpt><trkpt lat="44.585156" lon="8.0125712"><ele>490.0</ele><time>2026-04-10T15:04:15.294Z</time></trkpt><trkpt lat="44.5850847" lon="8.0126028"><ele>490.0</ele><time>2026-04-10T15:04:20.294Z</time></trkpt><trkpt lat="44.5850217" lon="8.0126272"><ele>490.0</ele><time>2026-04-10T15:04:24.294Z</time></trkpt><trkpt lat="44.5849577" lon="8.0126501"><ele>490.0</ele><time>2026-04-10T15:04:28.294Z</time></trkpt><trkpt lat="44.584893" lon="8.0126776"><ele>491.7142857142857</ele><time>2026-04-10T15:04:32.294Z</time></trkpt><trkpt lat="44.5848182" lon="8.0126793"><ele>493.42857142857144</ele><time>2026-04-10T15:04:36.294Z</time></trkpt><trkpt lat="44.5847482" lon="8.0126917"><ele>495.1428571428571</ele><time>2026-04-10T15:06:25.296Z</time></trkpt><trkpt lat="44.5846823" lon="8.0127089"><ele>496.85714285714283</ele><time>2026-04-10T15:06:29.296Z</time></trkpt><trkpt lat="44.5846062" lon="8.0127456"><ele>498.57142857142856</ele><time>2026-04-10T15:06:33.296Z</time></trkpt><trkpt lat="44.5845406" lon="8.0127729"><ele>500.2857142857142</ele><time>2026-04-10T15:06:36.296Z</time></trkpt><trkpt lat="44.584473" lon="8.0127885"><ele>501.99999999999994</ele><time>2026-04-10T15:06:39.296Z</time></trkpt><trkpt lat="44.5844054" lon="8.0127963"><ele>502.2857142857142</ele><time>2026-04-10T15:06:42.296Z</time></trkpt><trkpt lat="44.5843339" lon="8.0128056"><ele>502.57142857142856</ele><time>2026-04-10T15:06:45.296Z</time></trkpt><trkpt lat="44.5842591" lon="8.0128209"><ele>502.85714285714283</ele><time>2026-04-10T15:06:48.296Z</time></trkpt><trkpt lat="44.5841853" lon="8.0128327"><ele>503.1428571428571</ele><time>2026-04-10T15:06:51.296Z</time></trkpt><trkpt lat="44.5841161" lon="8.0128394"><ele>503.42857142857144</ele><time>2026-04-10T15:06:54.296Z</time></trkpt><trkpt lat="44.5840541" lon="8.012858"><ele>503.7142857142857</ele><time>2026-04-10T15:06:57.296Z</time></trkpt><trkpt lat="44.5839904" lon="8.0128729"><ele>504.0</ele><time>2026-04-10T15:07:00.297Z</time></trkpt><trkpt lat="44.5839251" lon="8.0128771"><ele>504.0</ele><time>2026-04-10T15:07:03.297Z</time></trkpt><trkpt lat="44.5838614" lon="8.0129016"><ele>504.0</ele><time>2026-04-10T15:07:06.297Z</time></trkpt><trkpt lat="44.583793" lon="8.0129249"><ele>504.0</ele><time>2026-04-10T15:07:09.297Z</time></trkpt><trkpt lat="44.5837249" lon="8.0129349"><ele>504.0</ele><time>2026-04-10T15:07:12.297Z</time></trkpt><trkpt lat="44.5836504" lon="8.0129461"><ele>504.0</ele><time>2026-04-10T15:07:16.297Z</time></trkpt><trkpt lat="44.5835913" lon="8.0129896"><ele>504.0</ele><time>2026-04-10T15:07:19.297Z</time></trkpt><trkpt lat="44.5835245" lon="8.0130123"><ele>504.0</ele><time>2026-04-10T15:07:22.297Z</time></trkpt><trkpt lat="44.583459" lon="8.0130292"><ele>503.8571428571429</ele><time>2026-04-10T15:07:25.297Z</time></trkpt><trkpt lat="44.5833958" lon="8.0130486"><ele>503.7142857142857</ele><time>2026-04-10T15:07:28.297Z</time></trkpt><trkpt lat="44.5833271" lon="8.0130955"><ele>503.57142857142856</ele><time>2026-04-10T15:07:32.297Z</time></trkpt><trkpt lat="44.5832489" lon="8.0131529"><ele>503.42857142857144</ele><time>2026-04-10T15:07:36.297Z</time></trkpt><trkpt lat="44.5831869" lon="8.0132033"><ele>503.28571428571433</ele><time>2026-04-10T15:07:39.297Z</time></trkpt><trkpt lat="44.583125" lon="8.0132515"><ele>503.14285714285717</ele><time>2026-04-10T15:07:42.297Z</time></trkpt><trkpt lat="44.5830647" lon="8.0133137"><ele>503.0</ele><time>2026-04-10T15:07:45.297Z</time></trkpt><trkpt lat="44.5830075" lon="8.0133594"><ele>504.8333333333333</ele><time>2026-04-10T15:07:48.297Z</time></trkpt><trkpt lat="44.5829466" lon="8.0134093"><ele>506.66666666666663</ele><time>2026-04-10T15:07:51.297Z</time></trkpt><trkpt lat="44.5828858" lon="8.0134675"><ele>508.5</ele><time>2026-04-10T15:07:54.297Z</time></trkpt><trkpt lat="44.582818" lon="8.0135293"><ele>510.33333333333337</ele><time>2026-04-10T15:07:58.297Z</time></trkpt><trkpt lat="44.582748" lon="8.0135956"><ele>512.1666666666667</ele><time>2026-04-10T15:08:02.298Z</time></trkpt><trkpt lat="44.5826862" lon="8.013656"><ele>514.0</ele><time>2026-04-10T15:08:05.297Z</time></trkpt><trkpt lat="44.5826254" lon="8.0137234"><ele>514.0</ele><time>2026-04-10T15:08:09.298Z</time></trkpt><trkpt lat="44.5825597" lon="8.0137827"><ele>514.0</ele><time>2026-04-10T15:08:13.297Z</time></trkpt><trkpt lat="44.5825025" lon="8.01385"><ele>514.0</ele><time>2026-04-10T15:08:17.297Z</time></trkpt><trkpt lat="44.5824455" lon="8.0138884"><ele>514.0</ele><time>2026-04-10T15:08:20.298Z</time></trkpt><trkpt lat="44.5823844" lon="8.0139582"><ele>514.0</ele><time>2026-04-10T15:08:24.299Z</time></trkpt><trkpt lat="44.5823277" lon="8.0140079"><ele>514.0</ele><time>2026-04-10T15:08:28.298Z</time></trkpt><trkpt lat="44.5822456" lon="8.0140241"><ele>514.0</ele><time>2026-04-10T15:09:17.332Z</time></trkpt><trkpt lat="44.5821994" lon="8.0140927"><ele>514.0</ele><time>2026-04-10T15:09:30.363Z</time></trkpt><trkpt lat="44.5821306" lon="8.0141165"><ele>514.0</ele><time>2026-04-10T15:09:35.387Z</time></trkpt><trkpt lat="44.582048" lon="8.014139"><ele>514.0</ele><time>2026-04-10T15:10:17.333Z</time></trkpt><trkpt lat="44.581982" lon="8.0141558"><ele>514.0</ele><time>2026-04-10T15:10:19.334Z</time></trkpt><trkpt lat="44.5819129" lon="8.0141676"><ele>514.0</ele><time>2026-04-10T15:10:21.334Z</time></trkpt><trkpt lat="44.5818434" lon="8.0141577"><ele>514.0</ele><time>2026-04-10T15:10:23.364Z</time></trkpt><trkpt lat="44.58175" lon="8.0141481"><ele>514.3333333333334</ele><time>2026-04-10T15:10:26.352Z</time></trkpt><trkpt lat="44.5816635" lon="8.0141187"><ele>514.6666666666667</ele><time>2026-04-10T15:10:29.353Z</time></trkpt><trkpt lat="44.581587" lon="8.0141031"><ele>515.0</ele><time>2026-04-10T15:10:31.354Z</time></trkpt><trkpt lat="44.5815051" lon="8.0140781"><ele>515.3333333333334</ele><time>2026-04-10T15:10:33.371Z</time></trkpt><trkpt lat="44.5814301" lon="8.0140447"><ele>515.6666666666666</ele><time>2026-04-10T15:10:35.388Z</time></trkpt><trkpt lat="44.5813736" lon="8.0139964"><ele>516.0</ele><time>2026-04-10T15:10:37.389Z</time></trkpt><trkpt lat="44.5813109" lon="8.0140533"><ele>516.0</ele><time>2026-04-10T15:10:39.419Z</time></trkpt><trkpt lat="44.5812311" lon="8.0139954"><ele>516.0</ele><time>2026-04-10T15:10:44.324Z</time></trkpt><trkpt lat="44.5811592" lon="8.0139754"><ele>516.0</ele><time>2026-04-10T15:10:46.325Z</time></trkpt><trkpt lat="44.5810948" lon="8.0139759"><ele>516.0</ele><time>2026-04-10T15:10:48.342Z</time></trkpt><trkpt lat="44.5810078" lon="8.0139661"><ele>516.0</ele><time>2026-04-10T15:10:51.359Z</time></trkpt><trkpt lat="44.5809213" lon="8.0139701"><ele>516.0</ele><time>2026-04-10T15:10:54.36Z</time></trkpt><trkpt lat="44.5808352" lon="8.0139817"><ele>516.3333333333334</ele><time>2026-04-10T15:10:57.361Z</time></trkpt><trkpt lat="44.5807427" lon="8.0139647"><ele>516.6666666666666</ele><time>2026-04-10T15:11:00.362Z</time></trkpt><trkpt lat="44.5806535" lon="8.0139624"><ele>517.0</ele><time>2026-04-10T15:11:03.362Z</time></trkpt><trkpt lat="44.5805659" lon="8.0139684"><ele>517.3333333333333</ele><time>2026-04-10T15:11:06.38Z</time></trkpt><trkpt lat="44.5804823" lon="8.0139653"><ele>517.6666666666666</ele><time>2026-04-10T15:11:09.381Z</time></trkpt><trkpt lat="44.580402" lon="8.0139571"><ele>518.0</ele><time>2026-04-10T15:11:12.315Z</time></trkpt><trkpt lat="44.5803315" lon="8.0139717"><ele>519.0</ele><time>2026-04-10T15:11:15.332Z</time></trkpt><trkpt lat="44.5802653" lon="8.0139783"><ele>520.0</ele><time>2026-04-10T15:11:18.333Z</time></trkpt><trkpt lat="44.5801971" lon="8.013976"><ele>521.0</ele><time>2026-04-10T15:11:21.334Z</time></trkpt><trkpt lat="44.5801289" lon="8.0139943"><ele>522.0</ele><time>2026-04-10T15:11:24.368Z</time></trkpt><trkpt lat="44.5800615" lon="8.0139414"><ele>523.0</ele><time>2026-04-10T15:11:28.385Z</time></trkpt><trkpt lat="44.579994" lon="8.0139499"><ele>524.0</ele><time>2026-04-10T15:11:31.386Z</time></trkpt><trkpt lat="44.5799207" lon="8.0139956"><ele>525.0</ele><time>2026-04-10T15:11:35.32Z</time></trkpt><trkpt lat="44.5798371" lon="8.0139781"><ele>525.0</ele><time>2026-04-10T15:11:39.354Z</time></trkpt><trkpt lat="44.5797734" lon="8.0139628"><ele>525.0</ele><time>2026-04-10T15:11:42.372Z</time></trkpt><trkpt lat="44.5797081" lon="8.0139508"><ele>525.0</ele><time>2026-04-10T15:11:45.389Z</time></trkpt><trkpt lat="44.5796294" lon="8.0139296"><ele>525.0</ele><time>2026-04-10T15:11:49.423Z</time></trkpt><trkpt lat="44.5795918" lon="8.0138566"><ele>525.0</ele><time>2026-04-10T15:11:53.358Z</time></trkpt><trkpt lat="44.5795287" lon="8.0138159"><ele>525.0</ele><time>2026-04-10T15:11:57.375Z</time></trkpt><trkpt lat="44.5794777" lon="8.0137353"><ele>525.0</ele><time>2026-04-10T15:12:02.393Z</time></trkpt><trkpt lat="44.5794308" lon="8.0136497"><ele>526.5714285714286</ele><time>2026-04-10T15:12:07.344Z</time></trkpt><trkpt lat="44.579405" lon="8.0135451"><ele>528.1428571428571</ele><time>2026-04-10T15:12:11.378Z</time></trkpt><trkpt lat="44.5793727" lon="8.0134566"><ele>529.7142857142858</ele><time>2026-04-10T15:12:15.313Z</time></trkpt><trkpt lat="44.5793277" lon="8.0133897"><ele>531.2857142857142</ele><time>2026-04-10T15:12:19.33Z</time></trkpt><trkpt lat="44.5793219" lon="8.0132833"><ele>532.8571428571429</ele><time>2026-04-10T15:12:23.349Z</time></trkpt><trkpt lat="44.5792861" lon="8.0131874"><ele>534.4285714285714</ele><time>2026-04-10T15:12:27.365Z</time></trkpt><trkpt lat="44.5792387" lon="8.0131277"><ele>536.0</ele><time>2026-04-10T15:12:30.333Z</time></trkpt><trkpt lat="44.5791573" lon="8.0131491"><ele>536.0</ele><time>2026-04-10T15:12:34.35Z</time></trkpt><trkpt lat="44.5791072" lon="8.0132199"><ele>536.0</ele><time>2026-04-10T15:12:37.351Z</time></trkpt><trkpt lat="44.5790657" lon="8.0133244"><ele>536.0</ele><time>2026-04-10T15:12:40.3Z</time></trkpt><trkpt lat="44.5790386" lon="8.0134336"><ele>536.0</ele><time>2026-04-10T15:12:43.396Z</time></trkpt><trkpt lat="44.5790146" lon="8.0135264"><ele>536.0</ele><time>2026-04-10T15:12:46.403Z</time></trkpt><trkpt lat="44.5789711" lon="8.0136024"><ele>536.0</ele><time>2026-04-10T15:12:49.42Z</time></trkpt><trkpt lat="44.5789139" lon="8.0136505"><ele>536.0</ele><time>2026-04-10T15:12:52.337Z</time></trkpt><trkpt lat="44.5788461" lon="8.0137075"><ele>537.5714285714286</ele><time>2026-04-10T15:12:56.371Z</time></trkpt><trkpt lat="44.5787771" lon="8.0137548"><ele>539.1428571428571</ele><time>2026-04-10T15:13:00.406Z</time></trkpt><trkpt lat="44.5787154" lon="8.0137775"><ele>540.7142857142857</ele><time>2026-04-10T15:13:03.406Z</time></trkpt><trkpt lat="44.5786545" lon="8.0138052"><ele>542.2857142857142</ele><time>2026-04-10T15:13:06.374Z</time></trkpt><trkpt lat="44.5785889" lon="8.0138205"><ele>543.8571428571428</ele><time>2026-04-10T15:13:09.391Z</time></trkpt><trkpt lat="44.5785217" lon="8.0138295"><ele>545.4285714285714</ele><time>2026-04-10T15:13:12.325Z</time></trkpt><trkpt lat="44.5784556" lon="8.0138369"><ele>547.0</ele><time>2026-04-10T15:13:15.326Z</time></trkpt><trkpt lat="44.5783919" lon="8.0138646"><ele>549.0</ele><time>2026-04-10T15:13:18.343Z</time></trkpt><trkpt lat="44.5783264" lon="8.0138886"><ele>551.0</ele><time>2026-04-10T15:13:21.377Z</time></trkpt><trkpt lat="44.5782595" lon="8.0139135"><ele>553.0</ele><time>2026-04-10T15:13:24.311Z</time></trkpt><trkpt lat="44.5781951" lon="8.0139323"><ele>555.0</ele><time>2026-04-10T15:13:27.345Z</time></trkpt><trkpt lat="44.5781299" lon="8.0139586"><ele>557.0</ele><time>2026-04-10T15:13:30.345Z</time></trkpt><trkpt lat="44.5780662" lon="8.0139928"><ele>559.0</ele><time>2026-04-10T15:13:33.379Z</time></trkpt><trkpt lat="44.5780022" lon="8.0140272"><ele>561.0</ele><time>2026-04-10T15:13:36.397Z</time></trkpt><trkpt lat="44.5779396" lon="8.0140515"><ele>561.0</ele><time>2026-04-10T15:13:39.397Z</time></trkpt><trkpt lat="44.5778634" lon="8.0140967"><ele>561.0</ele><time>2026-04-10T15:13:43.331Z</time></trkpt><trkpt lat="44.5778031" lon="8.0141285"><ele>561.0</ele><time>2026-04-10T15:13:46.365Z</time></trkpt><trkpt lat="44.5777423" lon="8.0141671"><ele>561.0</ele><time>2026-04-10T15:13:49.383Z</time></trkpt><trkpt lat="44.5776816" lon="8.0142068"><ele>561.0</ele><time>2026-04-10T15:13:52.4Z</time></trkpt><trkpt lat="44.5776198" lon="8.0142315"><ele>561.0</ele><time>2026-04-10T15:13:55.317Z</time></trkpt><trkpt lat="44.5775581" lon="8.0142619"><ele>561.0</ele><time>2026-04-10T15:13:58.351Z</time></trkpt><trkpt lat="44.5774961" lon="8.0142881"><ele>561.5</ele><time>2026-04-10T15:14:01.402Z</time></trkpt><trkpt lat="44.577429" lon="8.014346"><ele>562.0</ele><time>2026-04-10T15:14:05.319Z</time></trkpt><trkpt lat="44.5773512" lon="8.0143707"><ele>562.5</ele><time>2026-04-10T15:14:09.337Z</time></trkpt><trkpt lat="44.5772789" lon="8.0144066"><ele>563.0</ele><time>2026-04-10T15:14:13.372Z</time></trkpt><trkpt lat="44.5772079" lon="8.0144528"><ele>563.5</ele><time>2026-04-10T15:14:17.388Z</time></trkpt><trkpt lat="44.5771349" lon="8.0145025"><ele>564.0</ele><time>2026-04-10T15:14:21.406Z</time></trkpt><trkpt lat="44.5770658" lon="8.0145468"><ele>565.8333333333334</ele><time>2026-04-10T15:14:25.323Z</time></trkpt><trkpt lat="44.576995" lon="8.0145644"><ele>567.6666666666666</ele><time>2026-04-10T15:14:29.357Z</time></trkpt><trkpt lat="44.5769273" lon="8.0146202"><ele>569.5</ele><time>2026-04-10T15:14:33.375Z</time></trkpt><trkpt lat="44.576858" lon="8.0146741"><ele>571.3333333333333</ele><time>2026-04-10T15:14:37.393Z</time></trkpt><trkpt lat="44.5767862" lon="8.0147248"><ele>573.1666666666666</ele><time>2026-04-10T15:14:41.326Z</time></trkpt><trkpt lat="44.5767247" lon="8.0147547"><ele>575.0</ele><time>2026-04-10T15:14:44.344Z</time></trkpt><trkpt lat="44.5766491" lon="8.0147887"><ele>575.0</ele><time>2026-04-10T15:14:48.378Z</time></trkpt><trkpt lat="44.576578" lon="8.0148222"><ele>575.0</ele><time>2026-04-10T15:14:52.345Z</time></trkpt><trkpt lat="44.5765148" lon="8.0148497"><ele>575.0</ele><time>2026-04-10T15:14:55.363Z</time></trkpt><trkpt lat="44.5764377" lon="8.0148878"><ele>575.0</ele><time>2026-04-10T15:14:59.363Z</time></trkpt><trkpt lat="44.5763651" lon="8.0149293"><ele>575.0</ele><time>2026-04-10T15:15:03.314Z</time></trkpt><trkpt lat="44.5762988" lon="8.0149932"><ele>575.0</ele><time>2026-04-10T15:15:07.382Z</time></trkpt><trkpt lat="44.5762445" lon="8.0150465"><ele>575.0</ele><time>2026-04-10T15:15:11.4Z</time></trkpt><trkpt lat="44.5762191" lon="8.0151467"><ele>573.8333333333333</ele><time>2026-04-10T15:16:30.368Z</time></trkpt><trkpt lat="44.5762219" lon="8.0152399"><ele>572.6666666666666</ele><time>2026-04-10T15:16:32.37Z</time></trkpt><trkpt lat="44.5762076" lon="8.0153642"><ele>571.5</ele><time>2026-04-10T15:16:35.369Z</time></trkpt><trkpt lat="44.5761666" lon="8.0154528"><ele>570.3333333333334</ele><time>2026-04-10T15:16:37.371Z</time></trkpt><trkpt lat="44.5761132" lon="8.0155871"><ele>569.1666666666667</ele><time>2026-04-10T15:16:39.37Z</time></trkpt><trkpt lat="44.5760589" lon="8.015698"><ele>568.0</ele><time>2026-04-10T15:16:41.371Z</time></trkpt><trkpt lat="44.5759973" lon="8.0157853"><ele>569.0</ele><time>2026-04-10T15:16:43.388Z</time></trkpt><trkpt lat="44.5759951" lon="8.0158741"><ele>570.0</ele><time>2026-04-10T15:16:45.388Z</time></trkpt><trkpt lat="44.5760153" lon="8.0159859"><ele>571.0</ele><time>2026-04-10T15:16:47.389Z</time></trkpt><trkpt lat="44.5759763" lon="8.0160721"><ele>572.0</ele><time>2026-04-10T15:16:49.389Z</time></trkpt><trkpt lat="44.575915" lon="8.0161306"><ele>573.0</ele><time>2026-04-10T15:16:51.39Z</time></trkpt><trkpt lat="44.5758478" lon="8.0161617"><ele>574.0</ele><time>2026-04-10T15:16:53.39Z</time></trkpt><trkpt lat="44.5758774" lon="8.0163018"><ele>574.0</ele><time>2026-04-10T15:16:59.392Z</time></trkpt><trkpt lat="44.5758649" lon="8.0164234"><ele>574.0</ele><time>2026-04-10T15:17:01.392Z</time></trkpt><trkpt lat="44.5758335" lon="8.0165369"><ele>574.0</ele><time>2026-04-10T15:17:04.41Z</time></trkpt><trkpt lat="44.5758096" lon="8.0166379"><ele>574.0</ele><time>2026-04-10T15:17:07.31Z</time></trkpt><trkpt lat="44.5757795" lon="8.0167392"><ele>574.0</ele><time>2026-04-10T15:17:10.312Z</time></trkpt><trkpt lat="44.5757596" lon="8.016835"><ele>574.0</ele><time>2026-04-10T15:17:13.328Z</time></trkpt><trkpt lat="44.5757359" lon="8.0169215"><ele>573.8571428571429</ele><time>2026-04-10T15:17:16.329Z</time></trkpt><trkpt lat="44.5757239" lon="8.0170083"><ele>573.7142857142858</ele><time>2026-04-10T15:17:19.346Z</time></trkpt><trkpt lat="44.5757093" lon="8.0171233"><ele>573.5714285714286</ele><time>2026-04-10T15:17:23.397Z</time></trkpt><trkpt lat="44.575703" lon="8.0172241"><ele>573.4285714285714</ele><time>2026-04-10T15:17:26.331Z</time></trkpt><trkpt lat="44.5756755" lon="8.0173248"><ele>573.2857142857143</ele><time>2026-04-10T15:17:29.349Z</time></trkpt><trkpt lat="44.575656" lon="8.0174432"><ele>573.1428571428571</ele><time>2026-04-10T15:17:32.349Z</time></trkpt><trkpt lat="44.5756205" lon="8.0175227"><ele>573.0</ele><time>2026-04-10T15:17:34.35Z</time></trkpt><trkpt lat="44.5755702" lon="8.0176037"><ele>573.0</ele><time>2026-04-10T15:17:36.403Z</time></trkpt><trkpt lat="44.5755233" lon="8.0176864"><ele>573.0</ele><time>2026-04-10T15:17:38.351Z</time></trkpt><trkpt lat="44.5754736" lon="8.0177801"><ele>573.0</ele><time>2026-04-10T15:17:40.351Z</time></trkpt><trkpt lat="44.5754133" lon="8.0178798"><ele>573.0</ele><time>2026-04-10T15:17:42.368Z</time></trkpt><trkpt lat="44.5753603" lon="8.0179837"><ele>573.0</ele><time>2026-04-10T15:17:44.369Z</time></trkpt><trkpt lat="44.5753085" lon="8.0180892"><ele>573.0</ele><time>2026-04-10T15:17:46.297Z</time></trkpt><trkpt lat="44.5752378" lon="8.0182142"><ele>574.4</ele><time>2026-04-10T15:17:48.305Z</time></trkpt><trkpt lat="44.5751725" lon="8.0183292"><ele>575.8</ele><time>2026-04-10T15:17:50.306Z</time></trkpt><trkpt lat="44.5751122" lon="8.0184331"><ele>577.2</ele><time>2026-04-10T15:17:52.305Z</time></trkpt><trkpt lat="44.5750559" lon="8.0185426"><ele>578.6</ele><time>2026-04-10T15:17:54.306Z</time></trkpt><trkpt lat="44.5750039" lon="8.0186518"><ele>580.0</ele><time>2026-04-10T15:17:56.305Z</time></trkpt><trkpt lat="44.5749581" lon="8.0187622"><ele>580.0</ele><time>2026-04-10T15:17:58.305Z</time></trkpt><trkpt lat="44.5749138" lon="8.0188658"><ele>580.0</ele><time>2026-04-10T15:18:00.305Z</time></trkpt><trkpt lat="44.5748727" lon="8.018967"><ele>580.0</ele><time>2026-04-10T15:18:02.305Z</time></trkpt><trkpt lat="44.5748297" lon="8.0190658"><ele>580.0</ele><time>2026-04-10T15:18:04.306Z</time></trkpt><trkpt lat="44.5747961" lon="8.0191707"><ele>580.0</ele><time>2026-04-10T15:18:06.305Z</time></trkpt><trkpt lat="44.5747673" lon="8.0192663"><ele>580.0</ele><time>2026-04-10T15:18:08.306Z</time></trkpt><trkpt lat="44.5747378" lon="8.0193712"><ele>578.6666666666667</ele><time>2026-04-10T15:18:10.306Z</time></trkpt><trkpt lat="44.5747061" lon="8.0194806"><ele>577.3333333333334</ele><time>2026-04-10T15:18:12.306Z</time></trkpt><trkpt lat="44.5746838" lon="8.0196036"><ele>576.0</ele><time>2026-04-10T15:18:14.306Z</time></trkpt><trkpt lat="44.5746565" lon="8.0197276"><ele>574.6666666666666</ele><time>2026-04-10T15:18:16.306Z</time></trkpt><trkpt lat="44.574629" lon="8.0198479"><ele>573.3333333333333</ele><time>2026-04-10T15:18:18.306Z</time></trkpt><trkpt lat="44.5746078" lon="8.019957"><ele>572.0</ele><time>2026-04-10T15:18:20.306Z</time></trkpt><trkpt lat="44.5745886" lon="8.020076"><ele>571.6666666666666</ele><time>2026-04-10T15:18:22.306Z</time></trkpt><trkpt lat="44.5745737" lon="8.0201901"><ele>571.3333333333333</ele><time>2026-04-10T15:18:24.306Z</time></trkpt><trkpt lat="44.5745575" lon="8.0202999"><ele>571.0</ele><time>2026-04-10T15:18:26.306Z</time></trkpt><trkpt lat="44.5745434" lon="8.0204114"><ele>570.6666666666666</ele><time>2026-04-10T15:18:28.306Z</time></trkpt><trkpt lat="44.5745339" lon="8.0205212"><ele>570.3333333333334</ele><time>2026-04-10T15:18:30.306Z</time></trkpt><trkpt lat="44.5745219" lon="8.0206246"><ele>570.0</ele><time>2026-04-10T15:18:32.306Z</time></trkpt><trkpt lat="44.5745041" lon="8.0207215"><ele>571.0</ele><time>2026-04-10T15:18:34.306Z</time></trkpt><trkpt lat="44.5744836" lon="8.0208249"><ele>572.0</ele><time>2026-04-10T15:18:36.306Z</time></trkpt><trkpt lat="44.5744647" lon="8.0209371"><ele>573.0</ele><time>2026-04-10T15:18:38.306Z</time></trkpt><trkpt lat="44.5744493" lon="8.0210678"><ele>574.0</ele><time>2026-04-10T15:18:40.306Z</time></trkpt><trkpt lat="44.5744571" lon="8.0212128"><ele>575.0</ele><time>2026-04-10T15:18:42.306Z</time></trkpt><trkpt lat="44.5744983" lon="8.0213729"><ele>574.2</ele><time>2026-04-10T15:18:44.306Z</time></trkpt><trkpt lat="44.5745645" lon="8.0215228"><ele>573.4</ele><time>2026-04-10T15:18:46.307Z</time></trkpt><trkpt lat="44.5746057" lon="8.0215948"><ele>572.6</ele><time>2026-04-10T15:18:47.306Z</time></trkpt><trkpt lat="44.5746504" lon="8.0216587"><ele>571.8</ele><time>2026-04-10T15:18:48.306Z</time></trkpt><trkpt lat="44.5747346" lon="8.0217777"><ele>571.0</ele><time>2026-04-10T15:18:50.306Z</time></trkpt><trkpt lat="44.5748089" lon="8.0218904"><ele>570.8</ele><time>2026-04-10T15:18:52.306Z</time></trkpt><trkpt lat="44.574885" lon="8.0219977"><ele>570.6</ele><time>2026-04-10T15:18:54.306Z</time></trkpt><trkpt lat="44.5749648" lon="8.0220989"><ele>570.4</ele><time>2026-04-10T15:18:56.306Z</time></trkpt><trkpt lat="44.5750287" lon="8.0222119"><ele>570.2</ele><time>2026-04-10T15:18:58.306Z</time></trkpt><trkpt lat="44.5750933" lon="8.0223258"><ele>570.0</ele><time>2026-04-10T15:19:00.306Z</time></trkpt><trkpt lat="44.5751654" lon="8.0224356"><ele>570.8</ele><time>2026-04-10T15:19:02.307Z</time></trkpt><trkpt lat="44.5752335" lon="8.0225432"><ele>571.6</ele><time>2026-04-10T15:19:04.307Z</time></trkpt><trkpt lat="44.5752997" lon="8.0226458"><ele>572.4</ele><time>2026-04-10T15:19:06.306Z</time></trkpt><trkpt lat="44.5753536" lon="8.0227446"><ele>573.2</ele><time>2026-04-10T15:19:08.307Z</time></trkpt><trkpt lat="44.5754083" lon="8.0228264"><ele>574.0</ele><time>2026-04-10T15:19:10.306Z</time></trkpt><trkpt lat="44.5754689" lon="8.0229235"><ele>573.0</ele><time>2026-04-10T15:19:12.306Z</time></trkpt><trkpt lat="44.5755253" lon="8.0230254"><ele>572.0</ele><time>2026-04-10T15:19:14.307Z</time></trkpt><trkpt lat="44.575582" lon="8.0231248"><ele>571.0</ele><time>2026-04-10T15:19:16.306Z</time></trkpt><trkpt lat="44.5756351" lon="8.0232144"><ele>570.0</ele><time>2026-04-10T15:19:18.307Z</time></trkpt><trkpt lat="44.5756898" lon="8.0233049"><ele>569.0</ele><time>2026-04-10T15:19:20.307Z</time></trkpt><trkpt lat="44.5757259" lon="8.0233944"><ele>568.0</ele><time>2026-04-10T15:19:22.307Z</time></trkpt><trkpt lat="44.5757413" lon="8.023482"><ele>568.0</ele><time>2026-04-10T15:19:24.307Z</time></trkpt><trkpt lat="44.5757543" lon="8.0235768"><ele>568.0</ele><time>2026-04-10T15:19:26.307Z</time></trkpt><trkpt lat="44.57577" lon="8.0236813"><ele>568.0</ele><time>2026-04-10T15:19:28.307Z</time></trkpt><trkpt lat="44.5757784" lon="8.0237873"><ele>568.0</ele><time>2026-04-10T15:19:30.307Z</time></trkpt><trkpt lat="44.5757874" lon="8.0238922"><ele>568.0</ele><time>2026-04-10T15:19:32.307Z</time></trkpt><trkpt lat="44.575788" lon="8.0239968"><ele>568.0</ele><time>2026-04-10T15:19:34.307Z</time></trkpt><trkpt lat="44.575794" lon="8.0241001"><ele>568.0</ele><time>2026-04-10T15:19:36.307Z</time></trkpt><trkpt lat="44.5758084" lon="8.0242091"><ele>568.6666666666667</ele><time>2026-04-10T15:19:38.307Z</time></trkpt><trkpt lat="44.5758134" lon="8.0243231"><ele>569.3333333333334</ele><time>2026-04-10T15:19:40.307Z</time></trkpt><trkpt lat="44.5758204" lon="8.0244394"><ele>570.0</ele><time>2026-04-10T15:19:42.307Z</time></trkpt><trkpt lat="44.575829" lon="8.02456"><ele>570.6666666666666</ele><time>2026-04-10T15:19:44.307Z</time></trkpt><trkpt lat="44.5758341" lon="8.0246743"><ele>571.3333333333333</ele><time>2026-04-10T15:19:46.307Z</time></trkpt><trkpt lat="44.5758397" lon="8.0247797"><ele>572.0</ele><time>2026-04-10T15:19:48.307Z</time></trkpt><trkpt lat="44.5758452" lon="8.0248827"><ele>571.6666666666666</ele><time>2026-04-10T15:19:50.308Z</time></trkpt><trkpt lat="44.5758533" lon="8.0249905"><ele>571.3333333333333</ele><time>2026-04-10T15:19:52.307Z</time></trkpt><trkpt lat="44.5758583" lon="8.0251082"><ele>571.0</ele><time>2026-04-10T15:19:54.308Z</time></trkpt><trkpt lat="44.5758684" lon="8.0252261"><ele>570.6666666666666</ele><time>2026-04-10T15:19:56.307Z</time></trkpt><trkpt lat="44.5758788" lon="8.0253474"><ele>570.3333333333334</ele><time>2026-04-10T15:19:58.307Z</time></trkpt><trkpt lat="44.5758825" lon="8.0254698"><ele>570.0</ele><time>2026-04-10T15:20:00.307Z</time></trkpt><trkpt lat="44.5758915" lon="8.0255835"><ele>570.0</ele><time>2026-04-10T15:20:02.307Z</time></trkpt><trkpt lat="44.5758974" lon="8.0256945"><ele>570.0</ele><time>2026-04-10T15:20:04.307Z</time></trkpt><trkpt lat="44.5759037" lon="8.0257986"><ele>570.0</ele><time>2026-04-10T15:20:06.307Z</time></trkpt><trkpt lat="44.5759091" lon="8.0259124"><ele>570.0</ele><time>2026-04-10T15:20:08.307Z</time></trkpt><trkpt lat="44.5759167" lon="8.0260318"><ele>570.0</ele><time>2026-04-10T15:20:10.307Z</time></trkpt><trkpt lat="44.5759205" lon="8.0261424"><ele>570.0</ele><time>2026-04-10T15:20:12.307Z</time></trkpt><trkpt lat="44.5759271" lon="8.0262601"><ele>570.1666666666666</ele><time>2026-04-10T15:20:14.307Z</time></trkpt><trkpt lat="44.575934" lon="8.0263728"><ele>570.3333333333334</ele><time>2026-04-10T15:20:16.307Z</time></trkpt><trkpt lat="44.5759405" lon="8.0264847"><ele>570.5</ele><time>2026-04-10T15:20:18.308Z</time></trkpt><trkpt lat="44.5759475" lon="8.0265935"><ele>570.6666666666667</ele><time>2026-04-10T15:20:20.307Z</time></trkpt><trkpt lat="44.5759532" lon="8.0267085"><ele>570.8333333333334</ele><time>2026-04-10T15:20:22.307Z</time></trkpt><trkpt lat="44.5759635" lon="8.0268436"><ele>571.0</ele><time>2026-04-10T15:20:24.307Z</time></trkpt><trkpt lat="44.5759742" lon="8.0269785"><ele>571.2</ele><time>2026-04-10T15:20:26.308Z</time></trkpt><trkpt lat="44.5759839" lon="8.0271126"><ele>571.4000000000001</ele><time>2026-04-10T15:20:28.308Z</time></trkpt><trkpt lat="44.5759869" lon="8.0272558"><ele>571.6</ele><time>2026-04-10T15:20:30.308Z</time></trkpt><trkpt lat="44.5759863" lon="8.0274131"><ele>571.8000000000001</ele><time>2026-04-10T15:20:32.308Z</time></trkpt><trkpt lat="44.5759948" lon="8.0275719"><ele>572.0</ele><time>2026-04-10T15:20:34.309Z</time></trkpt><trkpt lat="44.5760274" lon="8.0277375"><ele>571.0</ele><time>2026-04-10T15:20:36.308Z</time></trkpt><trkpt lat="44.5760814" lon="8.027902"><ele>570.0</ele><time>2026-04-10T15:20:38.308Z</time></trkpt><trkpt lat="44.576114" lon="8.0279842"><ele>569.0</ele><time>2026-04-10T15:20:39.308Z</time></trkpt><trkpt lat="44.5761524" lon="8.0280576"><ele>568.0</ele><time>2026-04-10T15:20:40.308Z</time></trkpt><trkpt lat="44.5761964" lon="8.0281309"><ele>567.0</ele><time>2026-04-10T15:20:41.308Z</time></trkpt><trkpt lat="44.5762419" lon="8.0282031"><ele>566.0</ele><time>2026-04-10T15:20:42.308Z</time></trkpt><trkpt lat="44.5762956" lon="8.0282655"><ele>564.8571428571429</ele><time>2026-04-10T15:20:43.308Z</time></trkpt><trkpt lat="44.5763538" lon="8.0283257"><ele>563.7142857142858</ele><time>2026-04-10T15:20:44.308Z</time></trkpt><trkpt lat="44.5764158" lon="8.0283853"><ele>562.5714285714286</ele><time>2026-04-10T15:20:45.308Z</time></trkpt><trkpt lat="44.5764783" lon="8.0284431"><ele>561.4285714285714</ele><time>2026-04-10T15:20:46.308Z</time></trkpt><trkpt lat="44.576537" lon="8.0285081"><ele>560.2857142857142</ele><time>2026-04-10T15:20:47.308Z</time></trkpt><trkpt lat="44.5765947" lon="8.0285731"><ele>559.1428571428571</ele><time>2026-04-10T15:20:48.308Z</time></trkpt><trkpt lat="44.5766553" lon="8.0286404"><ele>558.0</ele><time>2026-04-10T15:20:49.308Z</time></trkpt><trkpt lat="44.5767144" lon="8.0287016"><ele>557.9999999999999</ele><time>2026-04-10T15:20:50.308Z</time></trkpt><trkpt lat="44.5767734" lon="8.0287602"><ele>558.0</ele><time>2026-04-10T15:20:51.308Z</time></trkpt><trkpt lat="44.576833" lon="8.0288212"><ele>558.0</ele><time>2026-04-10T15:20:52.308Z</time></trkpt><trkpt lat="44.5768902" lon="8.0288827"><ele>558.0</ele><time>2026-04-10T15:20:53.308Z</time></trkpt><trkpt lat="44.5769511" lon="8.0289435"><ele>558.0</ele><time>2026-04-10T15:20:54.308Z</time></trkpt><trkpt lat="44.5770105" lon="8.0290071"><ele>557.9999999999999</ele><time>2026-04-10T15:20:55.308Z</time></trkpt><trkpt lat="44.5770703" lon="8.0290698"><ele>558.0</ele><time>2026-04-10T15:20:56.308Z</time></trkpt><trkpt lat="44.5771306" lon="8.02913"><ele>557.4285714285713</ele><time>2026-04-10T15:20:57.308Z</time></trkpt><trkpt lat="44.5771869" lon="8.0291903"><ele>556.8571428571429</ele><time>2026-04-10T15:20:58.308Z</time></trkpt><trkpt lat="44.5772455" lon="8.029253"><ele>556.2857142857142</ele><time>2026-04-10T15:20:59.308Z</time></trkpt><trkpt lat="44.577307" lon="8.0293163"><ele>555.7142857142857</ele><time>2026-04-10T15:21:00.308Z</time></trkpt><trkpt lat="44.5773684" lon="8.0293802"><ele>555.1428571428571</ele><time>2026-04-10T15:21:01.308Z</time></trkpt><trkpt lat="44.5774285" lon="8.0294457"><ele>554.5714285714286</ele><time>2026-04-10T15:21:02.308Z</time></trkpt><trkpt lat="44.5774882" lon="8.029511"><ele>554.0</ele><time>2026-04-10T15:21:03.308Z</time></trkpt><trkpt lat="44.5775503" lon="8.0295785"><ele>554.0</ele><time>2026-04-10T15:21:04.308Z</time></trkpt><trkpt lat="44.5776146" lon="8.0296435"><ele>554.0</ele><time>2026-04-10T15:21:05.308Z</time></trkpt><trkpt lat="44.577677" lon="8.0297115"><ele>554.0</ele><time>2026-04-10T15:21:06.308Z</time></trkpt><trkpt lat="44.5777412" lon="8.0297814"><ele>554.0</ele><time>2026-04-10T15:21:07.308Z</time></trkpt><trkpt lat="44.5778064" lon="8.0298537"><ele>554.0</ele><time>2026-04-10T15:21:08.308Z</time></trkpt><trkpt lat="44.5778734" lon="8.0299264"><ele>554.0</ele><time>2026-04-10T15:21:09.309Z</time></trkpt><trkpt lat="44.5779414" lon="8.0300019"><ele>553.6</ele><time>2026-04-10T15:21:10.308Z</time></trkpt><trkpt lat="44.5780074" lon="8.0300782"><ele>553.2</ele><time>2026-04-10T15:21:11.308Z</time></trkpt><trkpt lat="44.5780773" lon="8.0301575"><ele>552.8000000000001</ele><time>2026-04-10T15:21:12.308Z</time></trkpt><trkpt lat="44.5781526" lon="8.030231"><ele>552.4</ele><time>2026-04-10T15:21:13.309Z</time></trkpt><trkpt lat="44.5782268" lon="8.0303089"><ele>552.0</ele><time>2026-04-10T15:21:14.308Z</time></trkpt><trkpt lat="44.5783023" lon="8.0303883"><ele>552.0</ele><time>2026-04-10T15:21:15.308Z</time></trkpt><trkpt lat="44.5783746" lon="8.0304669"><ele>552.0</ele><time>2026-04-10T15:21:16.308Z</time></trkpt><trkpt lat="44.578447" lon="8.0305412"><ele>552.0</ele><time>2026-04-10T15:21:17.308Z</time></trkpt><trkpt lat="44.5785215" lon="8.0306142"><ele>552.0</ele><time>2026-04-10T15:21:18.309Z</time></trkpt><trkpt lat="44.5785969" lon="8.0306966"><ele>552.0</ele><time>2026-04-10T15:21:19.308Z</time></trkpt><trkpt lat="44.5786766" lon="8.0307853"><ele>550.4</ele><time>2026-04-10T15:21:20.309Z</time></trkpt><trkpt lat="44.5787559" lon="8.0308733"><ele>548.8000000000001</ele><time>2026-04-10T15:21:21.308Z</time></trkpt><trkpt lat="44.5788324" lon="8.0309567"><ele>547.2</ele><time>2026-04-10T15:21:22.31Z</time></trkpt><trkpt lat="44.5789085" lon="8.0310399"><ele>545.6</ele><time>2026-04-10T15:21:23.309Z</time></trkpt><trkpt lat="44.578986" lon="8.0311251"><ele>544.0</ele><time>2026-04-10T15:21:24.309Z</time></trkpt><trkpt lat="44.579062" lon="8.0312079"><ele>544.0</ele><time>2026-04-10T15:21:25.309Z</time></trkpt><trkpt lat="44.5791401" lon="8.0312917"><ele>544.0</ele><time>2026-04-10T15:21:26.308Z</time></trkpt><trkpt lat="44.5792189" lon="8.0313779"><ele>544.0</ele><time>2026-04-10T15:21:27.308Z</time></trkpt><trkpt lat="44.5792964" lon="8.0314661"><ele>544.0</ele><time>2026-04-10T15:21:28.308Z</time></trkpt><trkpt lat="44.5793743" lon="8.0315548"><ele>544.0</ele><time>2026-04-10T15:21:29.308Z</time></trkpt><trkpt lat="44.5794516" lon="8.0316364"><ele>542.5</ele><time>2026-04-10T15:21:30.308Z</time></trkpt><trkpt lat="44.5795258" lon="8.0317127"><ele>541.0</ele><time>2026-04-10T15:21:31.308Z</time></trkpt><trkpt lat="44.5795896" lon="8.0317825"><ele>539.5</ele><time>2026-04-10T15:21:32.308Z</time></trkpt><trkpt lat="44.5796482" lon="8.0318471"><ele>538.0</ele><time>2026-04-10T15:21:33.308Z</time></trkpt><trkpt lat="44.5796975" lon="8.0319134"><ele>536.5</ele><time>2026-04-10T15:21:34.309Z</time></trkpt><trkpt lat="44.5797693" lon="8.0320523"><ele>535.0</ele><time>2026-04-10T15:21:36.308Z</time></trkpt><trkpt lat="44.5797957" lon="8.0321374"><ele>535.0</ele><time>2026-04-10T15:21:37.308Z</time></trkpt><trkpt lat="44.5798203" lon="8.0322372"><ele>535.0</ele><time>2026-04-10T15:21:38.308Z</time></trkpt><trkpt lat="44.5798361" lon="8.0323367"><ele>535.0</ele><time>2026-04-10T15:21:39.31Z</time></trkpt><trkpt lat="44.5798448" lon="8.0324373"><ele>535.0</ele><time>2026-04-10T15:21:40.309Z</time></trkpt><trkpt lat="44.5798528" lon="8.0325401"><ele>535.0</ele><time>2026-04-10T15:21:41.309Z</time></trkpt><trkpt lat="44.5798602" lon="8.0326437"><ele>535.0</ele><time>2026-04-10T15:21:42.309Z</time></trkpt><trkpt lat="44.5798681" lon="8.0327489"><ele>535.0</ele><time>2026-04-10T15:21:43.308Z</time></trkpt><trkpt lat="44.579873" lon="8.0328504"><ele>535.5714285714286</ele><time>2026-04-10T15:21:44.309Z</time></trkpt><trkpt lat="44.5798779" lon="8.0329496"><ele>536.1428571428571</ele><time>2026-04-10T15:21:45.309Z</time></trkpt><trkpt lat="44.5798811" lon="8.0330509"><ele>536.7142857142858</ele><time>2026-04-10T15:21:46.31Z</time></trkpt><trkpt lat="44.5798827" lon="8.0331497"><ele>537.2857142857142</ele><time>2026-04-10T15:21:47.309Z</time></trkpt><trkpt lat="44.5798861" lon="8.0332484"><ele>537.8571428571429</ele><time>2026-04-10T15:21:48.31Z</time></trkpt><trkpt lat="44.5798915" lon="8.0333477"><ele>538.4285714285714</ele><time>2026-04-10T15:21:49.309Z</time></trkpt><trkpt lat="44.5798895" lon="8.0334449"><ele>539.0</ele><time>2026-04-10T15:21:50.309Z</time></trkpt><trkpt lat="44.5798798" lon="8.0335431"><ele>539.4</ele><time>2026-04-10T15:21:51.309Z</time></trkpt><trkpt lat="44.5798602" lon="8.0337148"><ele>539.8</ele><time>2026-04-10T15:21:53.309Z</time></trkpt><trkpt lat="44.5798515" lon="8.0338032"><ele>540.2</ele><time>2026-04-10T15:21:54.309Z</time></trkpt><trkpt lat="44.5798225" lon="8.0339648"><ele>540.6</ele><time>2026-04-10T15:21:56.31Z</time></trkpt><trkpt lat="44.5797883" lon="8.0341128"><ele>541.0</ele><time>2026-04-10T15:21:58.309Z</time></trkpt><trkpt lat="44.5797521" lon="8.0342396"><ele>541.0000000000001</ele><time>2026-04-10T15:22:00.309Z</time></trkpt><trkpt lat="44.5797171" lon="8.0343472"><ele>541.0</ele><time>2026-04-10T15:22:02.309Z</time></trkpt><trkpt lat="44.57969" lon="8.0344469"><ele>541.0</ele><time>2026-04-10T15:22:04.309Z</time></trkpt><trkpt lat="44.5796631" lon="8.0345428"><ele>541.0</ele><time>2026-04-10T15:22:06.309Z</time></trkpt><trkpt lat="44.5796364" lon="8.0346345"><ele>541.0</ele><time>2026-04-10T15:22:08.309Z</time></trkpt><trkpt lat="44.5796143" lon="8.0347245"><ele>541.0000000000001</ele><time>2026-04-10T15:22:10.309Z</time></trkpt><trkpt lat="44.5795926" lon="8.0348136"><ele>541.0</ele><time>2026-04-10T15:22:12.309Z</time></trkpt><trkpt lat="44.5795696" lon="8.0348991"><ele>540.3333333333334</ele><time>2026-04-10T15:22:14.309Z</time></trkpt><trkpt lat="44.5795375" lon="8.0350178"><ele>539.6666666666667</ele><time>2026-04-10T15:22:17.309Z</time></trkpt><trkpt lat="44.5795101" lon="8.0351243"><ele>539.0</ele><time>2026-04-10T15:22:20.309Z</time></trkpt><trkpt lat="44.5794777" lon="8.0352058"><ele>538.3333333333334</ele><time>2026-04-10T15:22:24.309Z</time></trkpt><trkpt lat="44.5794779" lon="8.035319"><ele>537.6666666666666</ele><time>2026-04-10T15:24:10.346Z</time></trkpt><trkpt lat="44.5794522" lon="8.0354077"><ele>537.0</ele><time>2026-04-10T15:24:13.347Z</time></trkpt><trkpt lat="44.5794122" lon="8.035477"><ele>538.1428571428571</ele><time>2026-04-10T15:24:16.347Z</time></trkpt><trkpt lat="44.5793597" lon="8.0355426"><ele>539.2857142857142</ele><time>2026-04-10T15:24:19.365Z</time></trkpt><trkpt lat="44.5792835" lon="8.0355752"><ele>540.4285714285714</ele><time>2026-04-10T15:24:24.383Z</time></trkpt><trkpt lat="44.5792169" lon="8.0355708"><ele>541.5714285714286</ele><time>2026-04-10T15:24:27.384Z</time></trkpt><trkpt lat="44.5791483" lon="8.0355627"><ele>542.7142857142858</ele><time>2026-04-10T15:24:30.385Z</time></trkpt><trkpt lat="44.5790851" lon="8.035552"><ele>543.8571428571429</ele><time>2026-04-10T15:24:33.174Z</time></trkpt><trkpt lat="44.5790199" lon="8.0355248"><ele>545.0</ele><time>2026-04-10T15:24:36.387Z</time></trkpt><trkpt lat="44.5789539" lon="8.0354982"><ele>545.0</ele><time>2026-04-10T15:24:39.359Z</time></trkpt><trkpt lat="44.5788882" lon="8.0354946"><ele>545.0</ele><time>2026-04-10T15:24:42.338Z</time></trkpt><trkpt lat="44.5788263" lon="8.0354626"><ele>545.0</ele><time>2026-04-10T15:24:45.355Z</time></trkpt><trkpt lat="44.5787642" lon="8.035426"><ele>545.0</ele><time>2026-04-10T15:24:48.357Z</time></trkpt><trkpt lat="44.5786919" lon="8.0354139"><ele>545.0</ele><time>2026-04-10T15:24:51.357Z</time></trkpt><trkpt lat="44.5786297" lon="8.0353982"><ele>545.0</ele><time>2026-04-10T15:24:54.375Z</time></trkpt><trkpt lat="44.5785614" lon="8.0353832"><ele>545.0</ele><time>2026-04-10T15:24:58.376Z</time></trkpt><trkpt lat="44.5784977" lon="8.03536"><ele>545.8571428571429</ele><time>2026-04-10T15:25:02.377Z</time></trkpt><trkpt lat="44.5784203" lon="8.0353202"><ele>546.7142857142858</ele><time>2026-04-10T15:25:06.311Z</time></trkpt><trkpt lat="44.5783571" lon="8.0353029"><ele>547.5714285714286</ele><time>2026-04-10T15:25:09.346Z</time></trkpt><trkpt lat="44.5782841" lon="8.0353047"><ele>548.4285714285714</ele><time>2026-04-10T15:25:13.347Z</time></trkpt><trkpt lat="44.5782145" lon="8.0352606"><ele>549.2857142857142</ele><time>2026-04-10T15:25:17.348Z</time></trkpt><trkpt lat="44.5781483" lon="8.0352138"><ele>550.1428571428571</ele><time>2026-04-10T15:25:21.366Z</time></trkpt><trkpt lat="44.5780784" lon="8.0351851"><ele>551.0</ele><time>2026-04-10T15:25:25.312Z</time></trkpt><trkpt lat="44.5780059" lon="8.0351741"><ele>550.9999999999999</ele><time>2026-04-10T15:25:29.318Z</time></trkpt><trkpt lat="44.5779316" lon="8.0351544"><ele>551.0</ele><time>2026-04-10T15:25:33.352Z</time></trkpt><trkpt lat="44.5778605" lon="8.0351445"><ele>551.0</ele><time>2026-04-10T15:25:37.354Z</time></trkpt><trkpt lat="44.5777886" lon="8.0351686"><ele>551.0</ele><time>2026-04-10T15:25:41.388Z</time></trkpt><trkpt lat="44.5777349" lon="8.0352156"><ele>551.0</ele><time>2026-04-10T15:25:44.39Z</time></trkpt><trkpt lat="44.5776777" lon="8.0352769"><ele>550.9999999999999</ele><time>2026-04-10T15:25:48.323Z</time></trkpt><trkpt lat="44.5776321" lon="8.035374"><ele>551.0</ele><time>2026-04-10T15:25:52.281Z</time></trkpt><trkpt lat="44.5775987" lon="8.0354608"><ele>551.3333333333333</ele><time>2026-04-10T15:25:55.359Z</time></trkpt><trkpt lat="44.5775732" lon="8.0355698"><ele>551.6666666666666</ele><time>2026-04-10T15:25:59.36Z</time></trkpt><trkpt lat="44.5775554" lon="8.0356775"><ele>552.0</ele><time>2026-04-10T15:26:03.361Z</time></trkpt><trkpt lat="44.577555" lon="8.0357725"><ele>552.3333333333334</ele><time>2026-04-10T15:26:07.379Z</time></trkpt><trkpt lat="44.5775651" lon="8.0358721"><ele>552.6666666666667</ele><time>2026-04-10T15:26:11.381Z</time></trkpt><trkpt lat="44.5775729" lon="8.0359763"><ele>553.0</ele><time>2026-04-10T15:26:15.381Z</time></trkpt><trkpt lat="44.5775837" lon="8.0360866"><ele>553.0</ele><time>2026-04-10T15:26:19.399Z</time></trkpt><trkpt lat="44.577597" lon="8.0361996"><ele>553.0</ele><time>2026-04-10T15:26:23.4Z</time></trkpt><trkpt lat="44.5776187" lon="8.0363112"><ele>553.0</ele><time>2026-04-10T15:26:27.402Z</time></trkpt><trkpt lat="44.5776328" lon="8.0364235"><ele>553.0</ele><time>2026-04-10T15:26:31.319Z</time></trkpt><trkpt lat="44.5776538" lon="8.0365363"><ele>553.0</ele><time>2026-04-10T15:26:35.321Z</time></trkpt><trkpt lat="44.5776577" lon="8.0366274"><ele>553.0</ele><time>2026-04-10T15:26:38.322Z</time></trkpt><trkpt lat="44.577664" lon="8.0367196"><ele>553.0</ele><time>2026-04-10T15:26:41.323Z</time></trkpt><trkpt lat="44.5776717" lon="8.0368236"><ele>553.0</ele><time>2026-04-10T15:26:45.324Z</time></trkpt><trkpt lat="44.5776802" lon="8.0369315"><ele>553.0</ele><time>2026-04-10T15:26:49.342Z</time></trkpt><trkpt lat="44.577684" lon="8.0370266"><ele>553.0</ele><time>2026-04-10T15:26:52.342Z</time></trkpt><trkpt lat="44.5776898" lon="8.0371334"><ele>553.0</ele><time>2026-04-10T15:26:56.36Z</time></trkpt><trkpt lat="44.5776876" lon="8.0372455"><ele>553.0</ele><time>2026-04-10T15:27:00.313Z</time></trkpt><trkpt lat="44.5776807" lon="8.0373471"><ele>553.0</ele><time>2026-04-10T15:27:04.313Z</time></trkpt><trkpt lat="44.5776757" lon="8.0374508"><ele>553.7142857142857</ele><time>2026-04-10T15:27:08.313Z</time></trkpt><trkpt lat="44.577667" lon="8.0375452"><ele>554.4285714285714</ele><time>2026-04-10T15:27:12.313Z</time></trkpt><trkpt lat="44.5776567" lon="8.037635"><ele>555.1428571428571</ele><time>2026-04-10T15:27:15.313Z</time></trkpt><trkpt lat="44.5776577" lon="8.0377371"><ele>555.8571428571429</ele><time>2026-04-10T15:27:19.313Z</time></trkpt><trkpt lat="44.5776348" lon="8.0378349"><ele>556.5714285714286</ele><time>2026-04-10T15:27:23.313Z</time></trkpt><trkpt lat="44.5776262" lon="8.0379379"><ele>557.2857142857142</ele><time>2026-04-10T15:27:27.313Z</time></trkpt><trkpt lat="44.5776091" lon="8.0380261"><ele>558.0</ele><time>2026-04-10T15:27:30.313Z</time></trkpt><trkpt lat="44.5775884" lon="8.0381271"><ele>557.9999999999999</ele><time>2026-04-10T15:27:34.313Z</time></trkpt><trkpt lat="44.5775695" lon="8.038221"><ele>558.0</ele><time>2026-04-10T15:27:38.313Z</time></trkpt><trkpt lat="44.5775485" lon="8.0383093"><ele>558.0</ele><time>2026-04-10T15:27:42.314Z</time></trkpt><trkpt lat="44.5775182" lon="8.0383998"><ele>558.0</ele><time>2026-04-10T15:27:46.313Z</time></trkpt><trkpt lat="44.5775017" lon="8.0384951"><ele>558.0</ele><time>2026-04-10T15:27:50.313Z</time></trkpt><trkpt lat="44.5774791" lon="8.038594"><ele>557.9999999999999</ele><time>2026-04-10T15:27:54.313Z</time></trkpt><trkpt lat="44.5774545" lon="8.0386964"><ele>558.0</ele><time>2026-04-10T15:27:58.313Z</time></trkpt><trkpt lat="44.5774284" lon="8.0387947"><ele>560.0</ele><time>2026-04-10T15:28:02.313Z</time></trkpt><trkpt lat="44.5774061" lon="8.0389235"><ele>562.0</ele><time>2026-04-10T15:29:34.376Z</time></trkpt><trkpt lat="44.5773736" lon="8.039008"><ele>564.0</ele><time>2026-04-10T15:29:38.377Z</time></trkpt><trkpt lat="44.5773361" lon="8.0390998"><ele>566.0</ele><time>2026-04-10T15:29:42.395Z</time></trkpt><trkpt lat="44.5772998" lon="8.0392022"><ele>568.0</ele><time>2026-04-10T15:29:45.396Z</time></trkpt><trkpt lat="44.5772537" lon="8.0392983"><ele>570.0</ele><time>2026-04-10T15:29:48.397Z</time></trkpt><trkpt lat="44.5772025" lon="8.0393991"><ele>569.8571428571429</ele><time>2026-04-10T15:29:51.398Z</time></trkpt><trkpt lat="44.5771603" lon="8.0395079"><ele>569.7142857142858</ele><time>2026-04-10T15:29:54.416Z</time></trkpt><trkpt lat="44.5771186" lon="8.039626"><ele>569.5714285714287</ele><time>2026-04-10T15:29:57.417Z</time></trkpt><trkpt lat="44.5770919" lon="8.0397095"><ele>569.4285714285714</ele><time>2026-04-10T15:29:59.417Z</time></trkpt><trkpt lat="44.5770618" lon="8.0397903"><ele>569.2857142857143</ele><time>2026-04-10T15:30:01.418Z</time></trkpt><trkpt lat="44.5770279" lon="8.0398705"><ele>569.1428571428572</ele><time>2026-04-10T15:30:03.418Z</time></trkpt><trkpt lat="44.5769975" lon="8.0399492"><ele>569.0</ele><time>2026-04-10T15:30:05.419Z</time></trkpt><trkpt lat="44.5769683" lon="8.0400309"><ele>569.0000000000001</ele><time>2026-04-10T15:30:07.42Z</time></trkpt><trkpt lat="44.5769363" lon="8.0401126"><ele>569.0</ele><time>2026-04-10T15:30:09.354Z</time></trkpt><trkpt lat="44.5768979" lon="8.040195"><ele>569.0</ele><time>2026-04-10T15:30:11.354Z</time></trkpt><trkpt lat="44.5768671" lon="8.0402792"><ele>569.0</ele><time>2026-04-10T15:30:13.355Z</time></trkpt><trkpt lat="44.5768399" lon="8.0403606"><ele>569.0</ele><time>2026-04-10T15:30:15.355Z</time></trkpt><trkpt lat="44.5767964" lon="8.0404659"><ele>569.0000000000001</ele><time>2026-04-10T15:30:18.357Z</time></trkpt><trkpt lat="44.5767466" lon="8.0405634"><ele>569.0</ele><time>2026-04-10T15:30:21.357Z</time></trkpt><trkpt lat="44.576712" lon="8.0406792"><ele>569.0</ele><time>2026-04-10T15:30:24.358Z</time></trkpt><trkpt lat="44.5766745" lon="8.0407901"><ele>569.0</ele><time>2026-04-10T15:30:27.375Z</time></trkpt><trkpt lat="44.5766335" lon="8.040892"><ele>569.0</ele><time>2026-04-10T15:30:30.376Z</time></trkpt><trkpt lat="44.5765922" lon="8.0409949"><ele>569.0</ele><time>2026-04-10T15:30:33.377Z</time></trkpt><trkpt lat="44.576558" lon="8.0411041"><ele>569.0</ele><time>2026-04-10T15:30:36.395Z</time></trkpt><trkpt lat="44.5765239" lon="8.0412106"><ele>569.0</ele><time>2026-04-10T15:30:39.395Z</time></trkpt><trkpt lat="44.576495" lon="8.0413244"><ele>572.1666666666666</ele><time>2026-04-10T15:30:42.413Z</time></trkpt><trkpt lat="44.5764611" lon="8.0414294"><ele>575.3333333333333</ele><time>2026-04-10T15:30:45.331Z</time></trkpt><trkpt lat="44.5764316" lon="8.0415332"><ele>578.5</ele><time>2026-04-10T15:30:48.348Z</time></trkpt><trkpt lat="44.576411" lon="8.041627"><ele>581.6666666666666</ele><time>2026-04-10T15:30:51.349Z</time></trkpt><trkpt lat="44.5763906" lon="8.0417276"><ele>584.8333333333334</ele><time>2026-04-10T15:30:54.349Z</time></trkpt><trkpt lat="44.5763691" lon="8.041832"><ele>588.0</ele><time>2026-04-10T15:30:57.35Z</time></trkpt><trkpt lat="44.5763433" lon="8.0419265"><ele>589.8571428571429</ele><time>2026-04-10T15:31:00.369Z</time></trkpt><trkpt lat="44.5762943" lon="8.04199"><ele>591.7142857142858</ele><time>2026-04-10T15:31:03.368Z</time></trkpt><trkpt lat="44.5762413" lon="8.0420495"><ele>593.5714285714286</ele><time>2026-04-10T15:31:06.369Z</time></trkpt><trkpt lat="44.5761981" lon="8.042126"><ele>595.4285714285714</ele><time>2026-04-10T15:31:09.274Z</time></trkpt><trkpt lat="44.5761557" lon="8.0422047"><ele>597.2857142857143</ele><time>2026-04-10T15:31:12.371Z</time></trkpt><trkpt lat="44.5760922" lon="8.0422715"><ele>599.1428571428571</ele><time>2026-04-10T15:31:16.389Z</time></trkpt><trkpt lat="44.5760413" lon="8.0423321"><ele>601.0</ele><time>2026-04-10T15:31:20.39Z</time></trkpt><trkpt lat="44.5759791" lon="8.0423462"><ele>599.0</ele><time>2026-04-10T15:31:24.391Z</time></trkpt><trkpt lat="44.5759275" lon="8.0424272"><ele>597.0</ele><time>2026-04-10T15:31:32.343Z</time></trkpt><trkpt lat="44.575895" lon="8.0425064"><ele>595.0</ele><time>2026-04-10T15:31:36.344Z</time></trkpt><trkpt lat="44.5758795" lon="8.0426151"><ele>593.0</ele><time>2026-04-10T15:31:41.345Z</time></trkpt><trkpt lat="44.5759075" lon="8.0427175"><ele>591.0</ele><time>2026-04-10T15:31:45.396Z</time></trkpt><trkpt lat="44.5759436" lon="8.0428131"><ele>589.0</ele><time>2026-04-10T15:31:49.397Z</time></trkpt><trkpt lat="44.5760066" lon="8.0428712"><ele>589.0</ele><time>2026-04-10T15:31:53.398Z</time></trkpt><trkpt lat="44.5760919" lon="8.0428725"><ele>589.0</ele><time>2026-04-10T15:31:57.349Z</time></trkpt><trkpt lat="44.5761579" lon="8.042886"><ele>589.0</ele><time>2026-04-10T15:32:00.35Z</time></trkpt><trkpt lat="44.5762301" lon="8.0428981"><ele>589.0</ele><time>2026-04-10T15:32:03.367Z</time></trkpt><trkpt lat="44.5762959" lon="8.042932"><ele>589.0</ele><time>2026-04-10T15:32:06.368Z</time></trkpt><trkpt lat="44.5763558" lon="8.0429728"><ele>589.0</ele><time>2026-04-10T15:32:09.368Z</time></trkpt><trkpt lat="44.5764181" lon="8.0429986"><ele>589.0</ele><time>2026-04-10T15:32:12.386Z</time></trkpt><trkpt lat="44.5764815" lon="8.0430213"><ele>592.2857142857142</ele><time>2026-04-10T15:32:15.387Z</time></trkpt><trkpt lat="44.5765435" lon="8.0430477"><ele>595.5714285714286</ele><time>2026-04-10T15:32:18.387Z</time></trkpt><trkpt lat="44.5766036" lon="8.043082"><ele>598.8571428571429</ele><time>2026-04-10T15:32:21.405Z</time></trkpt><trkpt lat="44.576662" lon="8.0431189"><ele>602.1428571428571</ele><time>2026-04-10T15:32:24.405Z</time></trkpt><trkpt lat="44.5767208" lon="8.043154"><ele>605.4285714285714</ele><time>2026-04-10T15:32:27.406Z</time></trkpt><trkpt lat="44.5767962" lon="8.0431867"><ele>608.7142857142857</ele><time>2026-04-10T15:32:31.317Z</time></trkpt><trkpt lat="44.5768702" lon="8.0432085"><ele>612.0</ele><time>2026-04-10T15:32:35.358Z</time></trkpt><trkpt lat="44.5769411" lon="8.0432322"><ele>612.0</ele><time>2026-04-10T15:32:39.376Z</time></trkpt><trkpt lat="44.5770152" lon="8.0432711"><ele>612.0</ele><time>2026-04-10T15:32:43.393Z</time></trkpt><trkpt lat="44.5770935" lon="8.043313"><ele>612.0</ele><time>2026-04-10T15:32:47.394Z</time></trkpt><trkpt lat="44.5771565" lon="8.0433568"><ele>612.0</ele><time>2026-04-10T15:32:50.395Z</time></trkpt><trkpt lat="44.5772139" lon="8.043407"><ele>612.0</ele><time>2026-04-10T15:32:53.396Z</time></trkpt><trkpt lat="44.5772654" lon="8.0434726"><ele>612.0</ele><time>2026-04-10T15:32:56.317Z</time></trkpt><trkpt lat="44.5773082" lon="8.0435399"><ele>612.0</ele><time>2026-04-10T15:32:59.273Z</time></trkpt><trkpt lat="44.5773616" lon="8.0436272"><ele>613.3333333333334</ele><time>2026-04-10T15:33:03.365Z</time></trkpt><trkpt lat="44.5774296" lon="8.0436753"><ele>614.6666666666666</ele><time>2026-04-10T15:33:07.382Z</time></trkpt><trkpt lat="44.5774904" lon="8.0437224"><ele>616.0</ele><time>2026-04-10T15:33:10.4Z</time></trkpt><trkpt lat="44.5775252" lon="8.043807"><ele>617.3333333333333</ele><time>2026-04-10T15:33:13.4Z</time></trkpt><trkpt lat="44.5775846" lon="8.0438716"><ele>618.6666666666666</ele><time>2026-04-10T15:33:17.401Z</time></trkpt><trkpt lat="44.5776348" lon="8.0439526"><ele>620.0</ele><time>2026-04-10T15:33:22.386Z</time></trkpt><trkpt lat="44.5783188" lon="8.0449739"><ele>620.0</ele><time>2026-04-10T15:38:19.38Z</time></trkpt><trkpt lat="44.5783525" lon="8.0450488"><ele>620.0</ele><time>2026-04-10T15:40:08.504Z</time></trkpt><trkpt lat="44.578395" lon="8.0451289"><ele>620.0</ele><time>2026-04-10T15:40:12.405Z</time></trkpt><trkpt lat="44.5784042" lon="8.0452362"><ele>620.0</ele><time>2026-04-10T15:40:16.423Z</time></trkpt><trkpt lat="44.5784251" lon="8.0453218"><ele>620.0</ele><time>2026-04-10T15:40:19.448Z</time></trkpt><trkpt lat="44.5784312" lon="8.0454388"><ele>620.0</ele><time>2026-04-10T15:40:23.458Z</time></trkpt><trkpt lat="44.5784275" lon="8.0455296"><ele>620.0</ele><time>2026-04-10T15:40:26.467Z</time></trkpt><trkpt lat="44.578408" lon="8.0456176"><ele>620.0</ele><time>2026-04-10T15:40:29.467Z</time></trkpt><trkpt lat="44.5783839" lon="8.0457008"><ele>620.0</ele><time>2026-04-10T15:40:32.476Z</time></trkpt><trkpt lat="44.5783605" lon="8.0458082"><ele>620.0</ele><time>2026-04-10T15:40:36.402Z</time></trkpt><trkpt lat="44.5783448" lon="8.0458952"><ele>620.0</ele><time>2026-04-10T15:40:39.427Z</time></trkpt><trkpt lat="44.5783033" lon="8.0459931"><ele>620.0</ele><time>2026-04-10T15:40:43.445Z</time></trkpt><trkpt lat="44.5782759" lon="8.0461023"><ele>620.0</ele><time>2026-04-10T15:40:47.454Z</time></trkpt><trkpt lat="44.5782335" lon="8.0461956"><ele>621.1666666666666</ele><time>2026-04-10T15:40:51.463Z</time></trkpt><trkpt lat="44.5781805" lon="8.0462824"><ele>622.3333333333333</ele><time>2026-04-10T15:40:55.473Z</time></trkpt><trkpt lat="44.5781335" lon="8.0463623"><ele>623.5</ele><time>2026-04-10T15:40:59.49Z</time></trkpt><trkpt lat="44.5780817" lon="8.0464258"><ele>624.6666666666666</ele><time>2026-04-10T15:41:03.407Z</time></trkpt><trkpt lat="44.5780342" lon="8.0465128"><ele>625.8333333333334</ele><time>2026-04-10T15:41:08.424Z</time></trkpt><trkpt lat="44.5779861" lon="8.0465836"><ele>627.0</ele><time>2026-04-10T15:41:12.45Z</time></trkpt><trkpt lat="44.5779257" lon="8.0466569"><ele>626.7142857142858</ele><time>2026-04-10T15:41:17.484Z</time></trkpt><trkpt lat="44.577869" lon="8.0467344"><ele>626.4285714285714</ele><time>2026-04-10T15:41:22.494Z</time></trkpt><trkpt lat="44.5778057" lon="8.0467641"><ele>626.1428571428571</ele><time>2026-04-10T15:41:27.503Z</time></trkpt><trkpt lat="44.577791" lon="8.0468589"><ele>625.8571428571429</ele><time>2026-04-10T15:41:41.489Z</time></trkpt><trkpt lat="44.5777398" lon="8.0469164"><ele>625.5714285714286</ele><time>2026-04-10T15:41:47.415Z</time></trkpt><trkpt lat="44.5776852" lon="8.0469828"><ele>625.2857142857143</ele><time>2026-04-10T15:41:54.458Z</time></trkpt><trkpt lat="44.577633" lon="8.047037"><ele>625.0</ele><time>2026-04-10T15:42:01.402Z</time></trkpt><trkpt lat="44.5775834" lon="8.0471046"><ele>625.0000000000001</ele><time>2026-04-10T15:42:07.502Z</time></trkpt><trkpt lat="44.5775396" lon="8.0471814"><ele>625.0</ele><time>2026-04-10T15:42:14.461Z</time></trkpt><trkpt lat="44.5774931" lon="8.0472548"><ele>625.0</ele><time>2026-04-10T15:42:21.388Z</time></trkpt><trkpt lat="44.5774427" lon="8.0473177"><ele>625.0</ele><time>2026-04-10T15:42:27.397Z</time></trkpt><trkpt lat="44.5773964" lon="8.0473865"><ele>625.0</ele><time>2026-04-10T15:42:34.415Z</time></trkpt><trkpt lat="44.5773491" lon="8.0474558"><ele>625.0000000000001</ele><time>2026-04-10T15:42:41.433Z</time></trkpt><trkpt lat="44.5772961" lon="8.0475116"><ele>625.0</ele><time>2026-04-10T15:42:48.46Z</time></trkpt><trkpt lat="44.5772571" lon="8.0475881"><ele>626.8571428571429</ele><time>2026-04-10T15:42:56.495Z</time></trkpt><trkpt lat="44.5772284" lon="8.0476748"><ele>628.7142857142858</ele><time>2026-04-10T15:43:04.438Z</time></trkpt><trkpt lat="44.5772191" lon="8.0477648"><ele>630.5714285714287</ele><time>2026-04-10T15:43:10.449Z</time></trkpt><trkpt lat="44.5772521" lon="8.0478493"><ele>632.4285714285714</ele><time>2026-04-10T15:43:16.465Z</time></trkpt><trkpt lat="44.5773127" lon="8.0478861"><ele>634.2857142857142</ele><time>2026-04-10T15:43:21.483Z</time></trkpt><trkpt lat="44.577377" lon="8.0479048"><ele>636.1428571428572</ele><time>2026-04-10T15:43:26.501Z</time></trkpt><trkpt lat="44.5774485" lon="8.0478792"><ele>638.0</ele><time>2026-04-10T15:43:32.435Z</time></trkpt><trkpt lat="44.5775115" lon="8.0478716"><ele>638.0</ele><time>2026-04-10T15:43:38.461Z</time></trkpt><trkpt lat="44.5775869" lon="8.0478567"><ele>638.0</ele><time>2026-04-10T15:43:44.388Z</time></trkpt><trkpt lat="44.5776494" lon="8.0478188"><ele>638.0</ele><time>2026-04-10T15:43:50.415Z</time></trkpt><trkpt lat="44.5777139" lon="8.0477962"><ele>638.0</ele><time>2026-04-10T15:43:56.325Z</time></trkpt><trkpt lat="44.5777705" lon="8.0477541"><ele>638.0</ele><time>2026-04-10T15:44:02.45Z</time></trkpt><trkpt lat="44.5778399" lon="8.0477464"><ele>638.0</ele><time>2026-04-10T15:44:07.467Z</time></trkpt><trkpt lat="44.5779087" lon="8.0477288"><ele>638.0</ele><time>2026-04-10T15:44:13.469Z</time></trkpt><trkpt lat="44.577968" lon="8.0476987"><ele>639.2857142857143</ele><time>2026-04-10T15:44:19.495Z</time></trkpt><trkpt lat="44.5780318" lon="8.0476758"><ele>640.5714285714286</ele><time>2026-04-10T15:44:25.496Z</time></trkpt><trkpt lat="44.5780931" lon="8.047652"><ele>641.8571428571429</ele><time>2026-04-10T15:44:31.414Z</time></trkpt><trkpt lat="44.5781584" lon="8.0476274"><ele>643.1428571428571</ele><time>2026-04-10T15:44:38.424Z</time></trkpt><trkpt lat="44.5782212" lon="8.0475968"><ele>644.4285714285714</ele><time>2026-04-10T15:44:44.355Z</time></trkpt><trkpt lat="44.5782869" lon="8.0475655"><ele>645.7142857142857</ele><time>2026-04-10T15:44:50.452Z</time></trkpt><trkpt lat="44.5783588" lon="8.0475469"><ele>647.0</ele><time>2026-04-10T15:44:57.486Z</time></trkpt><trkpt lat="44.5784258" lon="8.0475262"><ele>647.0</ele><time>2026-04-10T15:45:03.413Z</time></trkpt><trkpt lat="44.5784836" lon="8.0474881"><ele>647.0</ele><time>2026-04-10T15:45:09.414Z</time></trkpt><trkpt lat="44.578549" lon="8.0474848"><ele>647.0</ele><time>2026-04-10T15:45:15.44Z</time></trkpt><trkpt lat="44.5786156" lon="8.0474522"><ele>647.0</ele><time>2026-04-10T15:45:22.467Z</time></trkpt><trkpt lat="44.5786772" lon="8.0474312"><ele>647.0</ele><time>2026-04-10T15:45:28.476Z</time></trkpt><trkpt lat="44.578744" lon="8.0474103"><ele>647.0</ele><time>2026-04-10T15:45:35.494Z</time></trkpt><trkpt lat="44.5788077" lon="8.0473909"><ele>647.0</ele><time>2026-04-10T15:45:41.42Z</time></trkpt><trkpt lat="44.5788719" lon="8.0473863"><ele>647.2857142857142</ele><time>2026-04-10T15:45:47.43Z</time></trkpt><trkpt lat="44.5789397" lon="8.0473945"><ele>647.5714285714286</ele><time>2026-04-10T15:45:54.473Z</time></trkpt><trkpt lat="44.5789979" lon="8.0474375"><ele>647.8571428571429</ele><time>2026-04-10T15:46:01.491Z</time></trkpt><trkpt lat="44.5790468" lon="8.0475005"><ele>648.1428571428571</ele><time>2026-04-10T15:46:08.418Z</time></trkpt><trkpt lat="44.5790706" lon="8.0475947"><ele>648.4285714285714</ele><time>2026-04-10T15:46:15.452Z</time></trkpt><trkpt lat="44.5790615" lon="8.0476893"><ele>648.7142857142857</ele><time>2026-04-10T15:46:21.479Z</time></trkpt><trkpt lat="44.579042" lon="8.0477795"><ele>649.0</ele><time>2026-04-10T15:46:28.497Z</time></trkpt><trkpt lat="44.5790025" lon="8.0478525"><ele>648.9999999999999</ele><time>2026-04-10T15:46:36.424Z</time></trkpt><trkpt lat="44.5789499" lon="8.0479119"><ele>649.0</ele><time>2026-04-10T15:47:03.429Z</time></trkpt><trkpt lat="44.5788888" lon="8.0479355"><ele>649.0</ele><time>2026-04-10T15:47:07.447Z</time></trkpt><trkpt lat="44.5788279" lon="8.047962"><ele>649.0</ele><time>2026-04-10T15:47:12.473Z</time></trkpt><trkpt lat="44.5787679" lon="8.0479902"><ele>649.0</ele><time>2026-04-10T15:47:18.492Z</time></trkpt><trkpt lat="44.5786994" lon="8.0480263"><ele>648.9999999999999</ele><time>2026-04-10T15:47:25.409Z</time></trkpt><trkpt lat="44.5786401" lon="8.0480579"><ele>649.0</ele><time>2026-04-10T15:47:31.427Z</time></trkpt><trkpt lat="44.5785766" lon="8.0480827"><ele>648.7142857142857</ele><time>2026-04-10T15:47:37.453Z</time></trkpt><trkpt lat="44.5785122" lon="8.048118"><ele>648.4285714285714</ele><time>2026-04-10T15:47:43.48Z</time></trkpt><trkpt lat="44.5784521" lon="8.0481516"><ele>648.1428571428571</ele><time>2026-04-10T15:47:50.49Z</time></trkpt><trkpt lat="44.5784075" lon="8.0482186"><ele>647.8571428571429</ele><time>2026-04-10T15:47:57.508Z</time></trkpt><trkpt lat="44.5783426" lon="8.0482417"><ele>647.5714285714286</ele><time>2026-04-10T15:48:05.443Z</time></trkpt><trkpt lat="44.5782799" lon="8.0482812"><ele>647.2857142857142</ele><time>2026-04-10T15:48:12.452Z</time></trkpt><trkpt lat="44.5782142" lon="8.0482791"><ele>647.0</ele><time>2026-04-10T15:48:19.479Z</time></trkpt><trkpt lat="44.5781496" lon="8.0483054"><ele>648.2857142857142</ele><time>2026-04-10T15:48:25.45Z</time></trkpt><trkpt lat="44.5780923" lon="8.048352"><ele>649.5714285714286</ele><time>2026-04-10T15:48:32.498Z</time></trkpt><trkpt lat="44.5780279" lon="8.0483976"><ele>650.8571428571429</ele><time>2026-04-10T15:48:39.425Z</time></trkpt><trkpt lat="44.5779595" lon="8.0484369"><ele>652.1428571428571</ele><time>2026-04-10T15:48:47.46Z</time></trkpt><trkpt lat="44.5778968" lon="8.0484835"><ele>653.4285714285714</ele><time>2026-04-10T15:48:55.503Z</time></trkpt><trkpt lat="44.577832" lon="8.0485038"><ele>654.7142857142857</ele><time>2026-04-10T15:49:02.438Z</time></trkpt><trkpt lat="44.5777732" lon="8.0485526"><ele>656.0</ele><time>2026-04-10T15:49:09.465Z</time></trkpt><trkpt lat="44.5777034" lon="8.0486087"><ele>655.9999999999999</ele><time>2026-04-10T15:49:16.33Z</time></trkpt><trkpt lat="44.577649" lon="8.0486733"><ele>656.0</ele><time>2026-04-10T15:49:22.331Z</time></trkpt><trkpt lat="44.5775943" lon="8.0487219"><ele>656.0</ele><time>2026-04-10T15:49:28.331Z</time></trkpt><trkpt lat="44.5775455" lon="8.0487953"><ele>656.0</ele><time>2026-04-10T15:49:34.331Z</time></trkpt><trkpt lat="44.5775044" lon="8.0488631"><ele>656.0</ele><time>2026-04-10T15:49:40.331Z</time></trkpt><trkpt lat="44.5774701" lon="8.048956"><ele>655.9999999999999</ele><time>2026-04-10T15:49:47.331Z</time></trkpt><trkpt lat="44.5774531" lon="8.0490518"><ele>656.0</ele><time>2026-04-10T15:49:54.331Z</time></trkpt><trkpt lat="44.577452" lon="8.0491403"><ele>657.2857142857142</ele><time>2026-04-10T15:50:01.331Z</time></trkpt><trkpt lat="44.5774518" lon="8.0492386"><ele>658.5714285714286</ele><time>2026-04-10T15:50:08.331Z</time></trkpt><trkpt lat="44.577484" lon="8.0493273"><ele>659.8571428571429</ele><time>2026-04-10T15:50:15.331Z</time></trkpt><trkpt lat="44.5775179" lon="8.0494096"><ele>661.1428571428571</ele><time>2026-04-10T15:50:22.332Z</time></trkpt><trkpt lat="44.5775559" lon="8.0494908"><ele>662.4285714285714</ele><time>2026-04-10T15:50:29.332Z</time></trkpt><trkpt lat="44.5775959" lon="8.0495701"><ele>663.7142857142857</ele><time>2026-04-10T15:50:36.332Z</time></trkpt><trkpt lat="44.577632" lon="8.0496448"><ele>665.0</ele><time>2026-04-10T15:50:42.332Z</time></trkpt><trkpt lat="44.5776772" lon="8.0497195"><ele>665.0</ele><time>2026-04-10T15:50:49.333Z</time></trkpt><trkpt lat="44.5777155" lon="8.0498025"><ele>665.0</ele><time>2026-04-10T15:50:56.332Z</time></trkpt><trkpt lat="44.5777537" lon="8.0498738"><ele>665.0</ele><time>2026-04-10T15:51:02.332Z</time></trkpt><trkpt lat="44.5777863" lon="8.0499602"><ele>665.0</ele><time>2026-04-10T15:51:08.332Z</time></trkpt><trkpt lat="44.5778094" lon="8.0500466"><ele>665.0</ele><time>2026-04-10T15:51:14.332Z</time></trkpt><trkpt lat="44.5778227" lon="8.0501362"><ele>665.0</ele><time>2026-04-10T15:51:20.332Z</time></trkpt><trkpt lat="44.5778202" lon="8.0502309"><ele>665.0</ele><time>2026-04-10T15:51:27.332Z</time></trkpt><trkpt lat="44.5778114" lon="8.0503291"><ele>664.8571428571429</ele><time>2026-04-10T15:51:34.333Z</time></trkpt><trkpt lat="44.5778072" lon="8.0504236"><ele>664.7142857142858</ele><time>2026-04-10T15:51:40.333Z</time></trkpt><trkpt lat="44.5777985" lon="8.0505253"><ele>664.5714285714286</ele><time>2026-04-10T15:51:46.333Z</time></trkpt><trkpt lat="44.5777964" lon="8.0506296"><ele>664.4285714285714</ele><time>2026-04-10T15:51:53.333Z</time></trkpt><trkpt lat="44.5777981" lon="8.0507289"><ele>664.2857142857143</ele><time>2026-04-10T15:52:00.333Z</time></trkpt><trkpt lat="44.5777998" lon="8.0508249"><ele>664.1428571428571</ele><time>2026-04-10T15:52:07.333Z</time></trkpt><trkpt lat="44.5778009" lon="8.0509223"><ele>664.0</ele><time>2026-04-10T15:52:14.333Z</time></trkpt><trkpt lat="44.577806" lon="8.0510137"><ele>664.7142857142857</ele><time>2026-04-10T15:52:21.333Z</time></trkpt><trkpt lat="44.5778121" lon="8.0511176"><ele>665.4285714285714</ele><time>2026-04-10T15:52:27.333Z</time></trkpt><trkpt lat="44.5778243" lon="8.0512105"><ele>666.1428571428571</ele><time>2026-04-10T15:52:33.333Z</time></trkpt><trkpt lat="44.5778315" lon="8.0512998"><ele>666.8571428571429</ele><time>2026-04-10T15:52:40.333Z</time></trkpt><trkpt lat="44.5778484" lon="8.0513878"><ele>667.5714285714286</ele><time>2026-04-10T15:52:46.333Z</time></trkpt><trkpt lat="44.577868" lon="8.0514755"><ele>668.2857142857143</ele><time>2026-04-10T15:52:53.334Z</time></trkpt><trkpt lat="44.5779317" lon="8.0515401"><ele>669.0</ele><time>2026-04-10T15:53:21.334Z</time></trkpt><trkpt lat="44.5779627" lon="8.0516337"><ele>671.6666666666666</ele><time>2026-04-10T15:53:24.334Z</time></trkpt><trkpt lat="44.5780214" lon="8.0517085"><ele>674.3333333333334</ele><time>2026-04-10T15:53:27.334Z</time></trkpt><trkpt lat="44.5780975" lon="8.0517874"><ele>677.0</ele><time>2026-04-10T15:53:30.335Z</time></trkpt><trkpt lat="44.5781575" lon="8.0518295"><ele>679.6666666666667</ele><time>2026-04-10T15:53:32.334Z</time></trkpt><trkpt lat="44.5782151" lon="8.051873"><ele>682.3333333333334</ele><time>2026-04-10T15:53:34.334Z</time></trkpt><trkpt lat="44.5782708" lon="8.0519178"><ele>685.0</ele><time>2026-04-10T15:53:36.334Z</time></trkpt><trkpt lat="44.5783432" lon="8.0519986"><ele>685.0</ele><time>2026-04-10T15:53:39.334Z</time></trkpt><trkpt lat="44.5784169" lon="8.0520743"><ele>685.0</ele><time>2026-04-10T15:53:42.334Z</time></trkpt><trkpt lat="44.5784837" lon="8.0521565"><ele>685.0</ele><time>2026-04-10T15:53:45.336Z</time></trkpt><trkpt lat="44.5785441" lon="8.052235"><ele>685.0</ele><time>2026-04-10T15:53:48.334Z</time></trkpt><trkpt lat="44.5786049" lon="8.0523064"><ele>685.0</ele><time>2026-04-10T15:53:51.334Z</time></trkpt><trkpt lat="44.5786671" lon="8.0523817"><ele>685.0</ele><time>2026-04-10T15:53:54.334Z</time></trkpt><trkpt lat="44.5787241" lon="8.0524662"><ele>684.6666666666667</ele><time>2026-04-10T15:53:57.334Z</time></trkpt><trkpt lat="44.5787769" lon="8.052553"><ele>684.3333333333334</ele><time>2026-04-10T15:54:00.334Z</time></trkpt><trkpt lat="44.5788289" lon="8.0526404"><ele>684.0</ele><time>2026-04-10T15:54:03.335Z</time></trkpt><trkpt lat="44.5788757" lon="8.0527341"><ele>683.6666666666666</ele><time>2026-04-10T15:54:06.336Z</time></trkpt><trkpt lat="44.5789113" lon="8.0528383"><ele>683.3333333333333</ele><time>2026-04-10T15:54:09.335Z</time></trkpt><trkpt lat="44.5789481" lon="8.0529415"><ele>683.0</ele><time>2026-04-10T15:54:12.335Z</time></trkpt><trkpt lat="44.5789773" lon="8.053053"><ele>683.0</ele><time>2026-04-10T15:54:15.335Z</time></trkpt><trkpt lat="44.579012" lon="8.0531625"><ele>683.0</ele><time>2026-04-10T15:54:18.337Z</time></trkpt><trkpt lat="44.5790459" lon="8.0532747"><ele>683.0</ele><time>2026-04-10T15:54:21.335Z</time></trkpt><trkpt lat="44.5790791" lon="8.0533881"><ele>683.0</ele><time>2026-04-10T15:54:24.335Z</time></trkpt><trkpt lat="44.5791092" lon="8.0535027"><ele>683.0</ele><time>2026-04-10T15:54:27.335Z</time></trkpt><trkpt lat="44.5791378" lon="8.0536212"><ele>683.0</ele><time>2026-04-10T15:54:30.335Z</time></trkpt><trkpt lat="44.5791662" lon="8.0537378"><ele>684.0</ele><time>2026-04-10T15:54:33.336Z</time></trkpt><trkpt lat="44.5791809" lon="8.053864"><ele>685.0</ele><time>2026-04-10T15:54:36.335Z</time></trkpt><trkpt lat="44.5791833" lon="8.0539938"><ele>686.0</ele><time>2026-04-10T15:54:39.335Z</time></trkpt><trkpt lat="44.5791804" lon="8.0540846"><ele>687.0</ele><time>2026-04-10T15:54:41.335Z</time></trkpt><trkpt lat="44.5791735" lon="8.0541757"><ele>688.0</ele><time>2026-04-10T15:54:43.335Z</time></trkpt><trkpt lat="44.579165" lon="8.054267"><ele>689.0</ele><time>2026-04-10T15:54:45.335Z</time></trkpt><trkpt lat="44.579153" lon="8.0543595"><ele>690.0</ele><time>2026-04-10T15:54:47.335Z</time></trkpt><trkpt lat="44.5791318" lon="8.0544506"><ele>690.5714285714286</ele><time>2026-04-10T15:54:49.335Z</time></trkpt><trkpt lat="44.5791056" lon="8.0545382"><ele>691.1428571428571</ele><time>2026-04-10T15:54:51.335Z</time></trkpt><trkpt lat="44.5790712" lon="8.0546219"><ele>691.7142857142858</ele><time>2026-04-10T15:54:53.335Z</time></trkpt><trkpt lat="44.5790286" lon="8.0546989"><ele>692.2857142857142</ele><time>2026-04-10T15:54:55.335Z</time></trkpt><trkpt lat="44.5789785" lon="8.0547612"><ele>692.8571428571428</ele><time>2026-04-10T15:54:57.335Z</time></trkpt><trkpt lat="44.5789285" lon="8.0548209"><ele>693.4285714285714</ele><time>2026-04-10T15:54:59.335Z</time></trkpt><trkpt lat="44.5788798" lon="8.0548805"><ele>694.0</ele><time>2026-04-10T15:55:01.335Z</time></trkpt><trkpt lat="44.5788264" lon="8.0549324"><ele>694.8571428571429</ele><time>2026-04-10T15:55:03.335Z</time></trkpt><trkpt lat="44.5787557" lon="8.0550189"><ele>695.7142857142857</ele><time>2026-04-10T15:55:06.335Z</time></trkpt><trkpt lat="44.5787088" lon="8.0550792"><ele>696.5714285714286</ele><time>2026-04-10T15:55:08.335Z</time></trkpt><trkpt lat="44.5786637" lon="8.0551425"><ele>697.4285714285714</ele><time>2026-04-10T15:55:10.336Z</time></trkpt><trkpt lat="44.5786146" lon="8.0552553"><ele>698.2857142857142</ele><time>2026-04-10T15:55:13.335Z</time></trkpt><trkpt lat="44.5785957" lon="8.0553424"><ele>699.1428571428571</ele><time>2026-04-10T15:55:15.335Z</time></trkpt><trkpt lat="44.5785925" lon="8.0554347"><ele>700.0</ele><time>2026-04-10T15:55:17.336Z</time></trkpt><trkpt lat="44.5785953" lon="8.055535"><ele>697.4285714285714</ele><time>2026-04-10T15:55:19.335Z</time></trkpt><trkpt lat="44.5785936" lon="8.0556333"><ele>694.8571428571429</ele><time>2026-04-10T15:55:21.335Z</time></trkpt><trkpt lat="44.5785965" lon="8.0557276"><ele>692.2857142857142</ele><time>2026-04-10T15:55:23.336Z</time></trkpt><trkpt lat="44.578598" lon="8.0558178"><ele>689.7142857142858</ele><time>2026-04-10T15:55:25.335Z</time></trkpt><trkpt lat="44.5785997" lon="8.0559078"><ele>687.1428571428571</ele><time>2026-04-10T15:55:27.336Z</time></trkpt><trkpt lat="44.5786011" lon="8.0559979"><ele>684.5714285714286</ele><time>2026-04-10T15:55:29.336Z</time></trkpt><trkpt lat="44.5786042" lon="8.0560887"><ele>682.0</ele><time>2026-04-10T15:55:31.336Z</time></trkpt><trkpt lat="44.5786034" lon="8.0561814"><ele>682.0</ele><time>2026-04-10T15:55:33.336Z</time></trkpt><trkpt lat="44.5786012" lon="8.0562745"><ele>682.0</ele><time>2026-04-10T15:55:35.336Z</time></trkpt><trkpt lat="44.5785996" lon="8.0563672"><ele>682.0</ele><time>2026-04-10T15:55:37.336Z</time></trkpt><trkpt lat="44.578597" lon="8.0564604"><ele>682.0</ele><time>2026-04-10T15:55:39.336Z</time></trkpt><trkpt lat="44.5785965" lon="8.0565529"><ele>682.0</ele><time>2026-04-10T15:55:41.336Z</time></trkpt><trkpt lat="44.5785983" lon="8.0566419"><ele>682.0</ele><time>2026-04-10T15:55:43.336Z</time></trkpt><trkpt lat="44.5785971" lon="8.056772"><ele>682.0</ele><time>2026-04-10T15:55:46.336Z</time></trkpt><trkpt lat="44.5785977" lon="8.056902"><ele>682.1666666666667</ele><time>2026-04-10T15:55:49.336Z</time></trkpt><trkpt lat="44.5785961" lon="8.0570213"><ele>682.3333333333334</ele><time>2026-04-10T15:55:52.336Z</time></trkpt><trkpt lat="44.5785989" lon="8.0571106"><ele>682.5</ele><time>2026-04-10T15:55:54.336Z</time></trkpt><trkpt lat="44.5786147" lon="8.0572357"><ele>682.6666666666666</ele><time>2026-04-10T15:55:57.336Z</time></trkpt><trkpt lat="44.5786499" lon="8.0573571"><ele>682.8333333333333</ele><time>2026-04-10T15:56:00.336Z</time></trkpt><trkpt lat="44.5786812" lon="8.0574407"><ele>683.0</ele><time>2026-04-10T15:56:02.336Z</time></trkpt><trkpt lat="44.5787255" lon="8.0575135"><ele>685.2857142857143</ele><time>2026-04-10T15:56:04.336Z</time></trkpt><trkpt lat="44.5787742" lon="8.0575866"><ele>687.5714285714286</ele><time>2026-04-10T15:56:06.337Z</time></trkpt><trkpt lat="44.578825" lon="8.0576611"><ele>689.8571428571429</ele><time>2026-04-10T15:56:08.337Z</time></trkpt><trkpt lat="44.5788751" lon="8.0577317"><ele>692.1428571428571</ele><time>2026-04-10T15:56:10.336Z</time></trkpt><trkpt lat="44.5789269" lon="8.0578095"><ele>694.4285714285714</ele><time>2026-04-10T15:56:12.336Z</time></trkpt><trkpt lat="44.5789756" lon="8.057885"><ele>696.7142857142857</ele><time>2026-04-10T15:56:14.337Z</time></trkpt><trkpt lat="44.5790215" lon="8.0579628"><ele>699.0</ele><time>2026-04-10T15:56:16.336Z</time></trkpt><trkpt lat="44.5790673" lon="8.0580427"><ele>699.0</ele><time>2026-04-10T15:56:18.336Z</time></trkpt><trkpt lat="44.5790879" lon="8.0581386"><ele>699.0</ele><time>2026-04-10T15:56:20.336Z</time></trkpt><trkpt lat="44.5790943" lon="8.0582387"><ele>699.0</ele><time>2026-04-10T15:56:22.336Z</time></trkpt></trkseg><trkseg><trkpt lat="44.5770125" lon="8.0716148"><ele>722.0</ele><time>2026-04-11T06:02:40.197Z</time></trkpt><trkpt lat="44.5770979" lon="8.0716561"><ele>722.0</ele><time>2026-04-11T06:03:48.108Z</time></trkpt><trkpt lat="44.5770652" lon="8.071737"><ele>722.0</ele><time>2026-04-11T06:06:09.754Z</time></trkpt><trkpt lat="44.577016" lon="8.0716774"><ele>722.0</ele><time>2026-04-11T06:10:40.21Z</time></trkpt><trkpt lat="44.5769978" lon="8.0715879"><ele>722.0</ele><time>2026-04-11T06:11:10.176Z</time></trkpt><trkpt lat="44.5769495" lon="8.0715286"><ele>722.0</ele><time>2026-04-11T06:11:18.192Z</time></trkpt><trkpt lat="44.5768886" lon="8.0716111"><ele>722.0</ele><time>2026-04-11T06:14:17.095Z</time></trkpt><trkpt lat="44.5768154" lon="8.0715921"><ele>721.8333333333333</ele><time>2026-04-11T06:15:08.097Z</time></trkpt><trkpt lat="44.5767497" lon="8.0715262"><ele>721.6666666666666</ele><time>2026-04-11T06:15:12.131Z</time></trkpt><trkpt lat="44.5766776" lon="8.0714456"><ele>721.5</ele><time>2026-04-11T06:15:15.131Z</time></trkpt><trkpt lat="44.5766206" lon="8.0713955"><ele>721.3333333333334</ele><time>2026-04-11T06:15:17.163Z</time></trkpt><trkpt lat="44.5765436" lon="8.071312"><ele>721.1666666666667</ele><time>2026-04-11T06:15:19.148Z</time></trkpt><trkpt lat="44.5764806" lon="8.0712438"><ele>721.0</ele><time>2026-04-11T06:15:21.13Z</time></trkpt><trkpt lat="44.5764219" lon="8.0711888"><ele>721.0</ele><time>2026-04-11T06:15:23.137Z</time></trkpt><trkpt lat="44.5763624" lon="8.0711425"><ele>721.0</ele><time>2026-04-11T06:15:25.148Z</time></trkpt><trkpt lat="44.5763026" lon="8.0711011"><ele>721.0</ele><time>2026-04-11T06:15:27.2Z</time></trkpt><trkpt lat="44.5762238" lon="8.0710441"><ele>721.0</ele><time>2026-04-11T06:15:30.165Z</time></trkpt><trkpt lat="44.5761681" lon="8.0710027"><ele>721.0</ele><time>2026-04-11T06:15:32.194Z</time></trkpt><trkpt lat="44.5760906" lon="8.0709374"><ele>721.0</ele><time>2026-04-11T06:15:35.093Z</time></trkpt><trkpt lat="44.5760094" lon="8.0708874"><ele>721.6666666666667</ele><time>2026-04-11T06:15:38.164Z</time></trkpt><trkpt lat="44.575937" lon="8.0707941"><ele>722.3333333333334</ele><time>2026-04-11T06:15:41.182Z</time></trkpt><trkpt lat="44.5758902" lon="8.07073"><ele>723.0</ele><time>2026-04-11T06:15:43.165Z</time></trkpt><trkpt lat="44.5758141" lon="8.0706579"><ele>723.6666666666666</ele><time>2026-04-11T06:15:46.166Z</time></trkpt><trkpt lat="44.5757256" lon="8.0706024"><ele>724.3333333333333</ele><time>2026-04-11T06:15:49.116Z</time></trkpt><trkpt lat="44.5756697" lon="8.0705451"><ele>725.0</ele><time>2026-04-11T06:15:51.132Z</time></trkpt><trkpt lat="44.5756141" lon="8.0704882"><ele>725.3333333333333</ele><time>2026-04-11T06:15:53.165Z</time></trkpt><trkpt lat="44.5755563" lon="8.0704317"><ele>725.6666666666666</ele><time>2026-04-11T06:15:55.116Z</time></trkpt><trkpt lat="44.5754955" lon="8.0703741"><ele>726.0</ele><time>2026-04-11T06:15:57.149Z</time></trkpt><trkpt lat="44.5754334" lon="8.070321"><ele>726.3333333333334</ele><time>2026-04-11T06:15:59.095Z</time></trkpt><trkpt lat="44.5753683" lon="8.0702696"><ele>726.6666666666667</ele><time>2026-04-11T06:16:01.133Z</time></trkpt><trkpt lat="44.5753063" lon="8.0702184"><ele>727.0</ele><time>2026-04-11T06:16:03.13Z</time></trkpt><trkpt lat="44.575228" lon="8.0701344"><ele>727.6666666666667</ele><time>2026-04-11T06:16:06.095Z</time></trkpt><trkpt lat="44.5751622" lon="8.070054"><ele>728.3333333333334</ele><time>2026-04-11T06:16:08.095Z</time></trkpt><trkpt lat="44.5751188" lon="8.069965"><ele>729.0</ele><time>2026-04-11T06:16:10.095Z</time></trkpt><trkpt lat="44.5750732" lon="8.0698745"><ele>729.6666666666666</ele><time>2026-04-11T06:16:12.095Z</time></trkpt><trkpt lat="44.5750323" lon="8.0697807"><ele>730.3333333333333</ele><time>2026-04-11T06:16:14.095Z</time></trkpt><trkpt lat="44.5749922" lon="8.0696826"><ele>731.0</ele><time>2026-04-11T06:16:16.095Z</time></trkpt><trkpt lat="44.5749629" lon="8.0695904"><ele>731.0</ele><time>2026-04-11T06:16:18.095Z</time></trkpt><trkpt lat="44.5749352" lon="8.0695009"><ele>731.0</ele><time>2026-04-11T06:16:20.094Z</time></trkpt><trkpt lat="44.5749165" lon="8.0694154"><ele>731.0</ele><time>2026-04-11T06:16:22.095Z</time></trkpt><trkpt lat="44.5748849" lon="8.0693174"><ele>731.0</ele><time>2026-04-11T06:16:24.095Z</time></trkpt><trkpt lat="44.5748547" lon="8.0692236"><ele>731.0</ele><time>2026-04-11T06:16:26.095Z</time></trkpt><trkpt lat="44.574832" lon="8.0691401"><ele>731.0</ele><time>2026-04-11T06:16:28.095Z</time></trkpt><trkpt lat="44.5748002" lon="8.0690407"><ele>731.0</ele><time>2026-04-11T06:16:31.094Z</time></trkpt><trkpt lat="44.5747603" lon="8.0689514"><ele>731.6666666666666</ele><time>2026-04-11T06:16:34.095Z</time></trkpt><trkpt lat="44.574725" lon="8.0688612"><ele>732.3333333333333</ele><time>2026-04-11T06:16:37.094Z</time></trkpt><trkpt lat="44.5746554" lon="8.0688038"><ele>733.0</ele><time>2026-04-11T06:16:40.095Z</time></trkpt><trkpt lat="44.5745959" lon="8.0687516"><ele>733.6666666666666</ele><time>2026-04-11T06:16:42.095Z</time></trkpt><trkpt lat="44.5745331" lon="8.0687039"><ele>734.3333333333334</ele><time>2026-04-11T06:16:44.095Z</time></trkpt><trkpt lat="44.574466" lon="8.06865"><ele>735.0</ele><time>2026-04-11T06:16:46.095Z</time></trkpt><trkpt lat="44.5743982" lon="8.0685958"><ele>735.0</ele><time>2026-04-11T06:16:48.095Z</time></trkpt><trkpt lat="44.5743317" lon="8.0685418"><ele>735.0</ele><time>2026-04-11T06:16:50.095Z</time></trkpt><trkpt lat="44.5742637" lon="8.0685"><ele>735.0</ele><time>2026-04-11T06:16:52.096Z</time></trkpt><trkpt lat="44.5741912" lon="8.0684665"><ele>735.0</ele><time>2026-04-11T06:16:54.095Z</time></trkpt><trkpt lat="44.5741182" lon="8.0684416"><ele>735.0</ele><time>2026-04-11T06:16:56.096Z</time></trkpt><trkpt lat="44.574045" lon="8.0684375"><ele>735.0</ele><time>2026-04-11T06:16:58.096Z</time></trkpt><trkpt lat="44.5739464" lon="8.0684269"><ele>735.0</ele><time>2026-04-11T06:17:00.096Z</time></trkpt><trkpt lat="44.5738573" lon="8.068418"><ele>735.0</ele><time>2026-04-11T06:17:02.096Z</time></trkpt><trkpt lat="44.5737697" lon="8.0684059"><ele>735.0</ele><time>2026-04-11T06:17:04.096Z</time></trkpt><trkpt lat="44.5736948" lon="8.068405"><ele>735.0</ele><time>2026-04-11T06:17:06.096Z</time></trkpt><trkpt lat="44.5736131" lon="8.0683985"><ele>735.0</ele><time>2026-04-11T06:17:08.095Z</time></trkpt><trkpt lat="44.5735276" lon="8.0683864"><ele>735.0</ele><time>2026-04-11T06:17:10.095Z</time></trkpt><trkpt lat="44.5734511" lon="8.0683643"><ele>735.3333333333334</ele><time>2026-04-11T06:17:12.096Z</time></trkpt><trkpt lat="44.5733777" lon="8.0683079"><ele>735.6666666666666</ele><time>2026-04-11T06:17:46.096Z</time></trkpt><trkpt lat="44.5733253" lon="8.0682455"><ele>736.0</ele><time>2026-04-11T06:17:48.096Z</time></trkpt><trkpt lat="44.5732657" lon="8.0681541"><ele>736.3333333333333</ele><time>2026-04-11T06:17:50.096Z</time></trkpt><trkpt lat="44.5732218" lon="8.0680715"><ele>736.6666666666666</ele><time>2026-04-11T06:17:52.096Z</time></trkpt><trkpt lat="44.5731952" lon="8.0679746"><ele>737.0</ele><time>2026-04-11T06:17:54.095Z</time></trkpt><trkpt lat="44.5731709" lon="8.0678788"><ele>737.0</ele><time>2026-04-11T06:17:56.096Z</time></trkpt><trkpt lat="44.5731558" lon="8.0677762"><ele>737.0</ele><time>2026-04-11T06:17:58.096Z</time></trkpt><trkpt lat="44.5731301" lon="8.0676724"><ele>737.0</ele><time>2026-04-11T06:18:00.096Z</time></trkpt><trkpt lat="44.5730869" lon="8.0675681"><ele>737.0</ele><time>2026-04-11T06:18:02.095Z</time></trkpt><trkpt lat="44.5730408" lon="8.06747"><ele>737.0</ele><time>2026-04-11T06:18:04.096Z</time></trkpt><trkpt lat="44.5729987" lon="8.0673725"><ele>737.0</ele><time>2026-04-11T06:18:06.096Z</time></trkpt><trkpt lat="44.5729507" lon="8.067281"><ele>737.0</ele><time>2026-04-11T06:18:08.096Z</time></trkpt><trkpt lat="44.5728966" lon="8.0671935"><ele>737.0</ele><time>2026-04-11T06:18:10.095Z</time></trkpt><trkpt lat="44.5728469" lon="8.0671191"><ele>737.0</ele><time>2026-04-11T06:18:12.097Z</time></trkpt><trkpt lat="44.57278" lon="8.0670454"><ele>737.0</ele><time>2026-04-11T06:18:14.096Z</time></trkpt><trkpt lat="44.5727075" lon="8.0669789"><ele>737.0</ele><time>2026-04-11T06:18:16.096Z</time></trkpt><trkpt lat="44.5726295" lon="8.0669302"><ele>737.0</ele><time>2026-04-11T06:18:18.097Z</time></trkpt><trkpt lat="44.5725439" lon="8.0669034"><ele>736.4000000000001</ele><time>2026-04-11T06:18:20.097Z</time></trkpt><trkpt lat="44.572452" lon="8.0668879"><ele>735.8000000000001</ele><time>2026-04-11T06:18:22.097Z</time></trkpt><trkpt lat="44.5723591" lon="8.0668675"><ele>735.2</ele><time>2026-04-11T06:18:24.097Z</time></trkpt><trkpt lat="44.5722694" lon="8.0668486"><ele>734.6</ele><time>2026-04-11T06:18:26.096Z</time></trkpt><trkpt lat="44.5721753" lon="8.0668309"><ele>734.0</ele><time>2026-04-11T06:18:28.097Z</time></trkpt><trkpt lat="44.5720821" lon="8.0668225"><ele>733.1666666666666</ele><time>2026-04-11T06:18:30.097Z</time></trkpt><trkpt lat="44.5719999" lon="8.0668076"><ele>732.3333333333333</ele><time>2026-04-11T06:18:32.097Z</time></trkpt><trkpt lat="44.5719257" lon="8.0667886"><ele>731.5</ele><time>2026-04-11T06:18:34.097Z</time></trkpt><trkpt lat="44.5718443" lon="8.0667557"><ele>730.6666666666666</ele><time>2026-04-11T06:18:36.097Z</time></trkpt><trkpt lat="44.5717594" lon="8.0667262"><ele>729.8333333333334</ele><time>2026-04-11T06:18:38.097Z</time></trkpt><trkpt lat="44.5716764" lon="8.0667075"><ele>729.0</ele><time>2026-04-11T06:18:40.097Z</time></trkpt><trkpt lat="44.5715758" lon="8.0666581"><ele>729.8000000000001</ele><time>2026-04-11T06:18:42.097Z</time></trkpt><trkpt lat="44.5714851" lon="8.0665558"><ele>730.6</ele><time>2026-04-11T06:18:44.097Z</time></trkpt><trkpt lat="44.5714237" lon="8.0664509"><ele>731.4</ele><time>2026-04-11T06:18:46.096Z</time></trkpt><trkpt lat="44.5713853" lon="8.0663339"><ele>732.2</ele><time>2026-04-11T06:18:48.097Z</time></trkpt><trkpt lat="44.5713602" lon="8.0662153"><ele>733.0</ele><time>2026-04-11T06:18:50.097Z</time></trkpt><trkpt lat="44.571347" lon="8.0660962"><ele>733.0</ele><time>2026-04-11T06:18:52.097Z</time></trkpt><trkpt lat="44.5713367" lon="8.0659708"><ele>733.0</ele><time>2026-04-11T06:18:54.097Z</time></trkpt><trkpt lat="44.5713188" lon="8.0658554"><ele>733.0</ele><time>2026-04-11T06:18:56.097Z</time></trkpt><trkpt lat="44.5712913" lon="8.0657316"><ele>733.0</ele><time>2026-04-11T06:18:58.097Z</time></trkpt><trkpt lat="44.5712642" lon="8.065602"><ele>733.0</ele><time>2026-04-11T06:19:00.097Z</time></trkpt><trkpt lat="44.5712214" lon="8.0654729"><ele>730.4</ele><time>2026-04-11T06:19:02.097Z</time></trkpt><trkpt lat="44.5711713" lon="8.0653561"><ele>727.8</ele><time>2026-04-11T06:19:04.097Z</time></trkpt><trkpt lat="44.5711097" lon="8.0652401"><ele>725.2</ele><time>2026-04-11T06:19:06.097Z</time></trkpt><trkpt lat="44.5710503" lon="8.0651312"><ele>722.6</ele><time>2026-04-11T06:19:08.097Z</time></trkpt><trkpt lat="44.5709923" lon="8.0650154"><ele>720.0</ele><time>2026-04-11T06:19:10.097Z</time></trkpt><trkpt lat="44.5709335" lon="8.0649022"><ele>720.0</ele><time>2026-04-11T06:19:12.097Z</time></trkpt><trkpt lat="44.5708703" lon="8.0647783"><ele>720.0</ele><time>2026-04-11T06:19:14.097Z</time></trkpt><trkpt lat="44.570811" lon="8.0646518"><ele>720.0</ele><time>2026-04-11T06:19:16.097Z</time></trkpt><trkpt lat="44.5707498" lon="8.0645191"><ele>720.0</ele><time>2026-04-11T06:19:18.097Z</time></trkpt><trkpt lat="44.5706849" lon="8.0643933"><ele>720.0</ele><time>2026-04-11T06:19:20.097Z</time></trkpt><trkpt lat="44.5706174" lon="8.0642731"><ele>720.0</ele><time>2026-04-11T06:19:22.097Z</time></trkpt><trkpt lat="44.5705489" lon="8.0641516"><ele>720.0</ele><time>2026-04-11T06:19:24.097Z</time></trkpt><trkpt lat="44.5704831" lon="8.0640281"><ele>720.0</ele><time>2026-04-11T06:19:26.098Z</time></trkpt><trkpt lat="44.5704137" lon="8.0639094"><ele>720.0</ele><time>2026-04-11T06:19:28.097Z</time></trkpt><trkpt lat="44.5703459" lon="8.0637908"><ele>720.0</ele><time>2026-04-11T06:19:30.098Z</time></trkpt><trkpt lat="44.5702773" lon="8.0636703"><ele>719.5</ele><time>2026-04-11T06:19:32.098Z</time></trkpt><trkpt lat="44.5702074" lon="8.0635444"><ele>719.0</ele><time>2026-04-11T06:19:34.098Z</time></trkpt><trkpt lat="44.5701476" lon="8.0634359"><ele>718.5</ele><time>2026-04-11T06:19:36.098Z</time></trkpt><trkpt lat="44.5701072" lon="8.0633678"><ele>718.0</ele><time>2026-04-11T06:19:38.098Z</time></trkpt><trkpt lat="44.5700463" lon="8.0632811"><ele>717.5</ele><time>2026-04-11T06:19:40.097Z</time></trkpt><trkpt lat="44.5700101" lon="8.0631939"><ele>717.0</ele><time>2026-04-11T06:19:42.098Z</time></trkpt><trkpt lat="44.5699945" lon="8.0632845"><ele>716.2</ele><time>2026-04-11T06:20:19.098Z</time></trkpt><trkpt lat="44.5699389" lon="8.0632341"><ele>715.4000000000001</ele><time>2026-04-11T06:21:23.099Z</time></trkpt><trkpt lat="44.5698427" lon="8.0631788"><ele>714.5999999999999</ele><time>2026-04-11T06:21:26.099Z</time></trkpt><trkpt lat="44.5697609" lon="8.0631173"><ele>713.8</ele><time>2026-04-11T06:21:28.099Z</time></trkpt><trkpt lat="44.5696717" lon="8.0630601"><ele>713.0</ele><time>2026-04-11T06:21:30.098Z</time></trkpt><trkpt lat="44.5695838" lon="8.0630165"><ele>713.6666666666666</ele><time>2026-04-11T06:21:32.099Z</time></trkpt><trkpt lat="44.569497" lon="8.0629815"><ele>714.3333333333333</ele><time>2026-04-11T06:21:34.099Z</time></trkpt><trkpt lat="44.5694158" lon="8.0629359"><ele>715.0</ele><time>2026-04-11T06:21:36.099Z</time></trkpt><trkpt lat="44.5693414" lon="8.0629075"><ele>715.6666666666666</ele><time>2026-04-11T06:21:38.099Z</time></trkpt><trkpt lat="44.5692461" lon="8.0628749"><ele>716.3333333333334</ele><time>2026-04-11T06:21:40.099Z</time></trkpt><trkpt lat="44.5691627" lon="8.0628685"><ele>717.0</ele><time>2026-04-11T06:21:42.099Z</time></trkpt><trkpt lat="44.5690881" lon="8.0628527"><ele>717.0</ele><time>2026-04-11T06:21:44.099Z</time></trkpt><trkpt lat="44.5690087" lon="8.0628386"><ele>717.0</ele><time>2026-04-11T06:21:46.099Z</time></trkpt><trkpt lat="44.5689243" lon="8.0628208"><ele>717.0</ele><time>2026-04-11T06:21:48.099Z</time></trkpt><trkpt lat="44.5688379" lon="8.0627976"><ele>717.0</ele><time>2026-04-11T06:21:50.098Z</time></trkpt><trkpt lat="44.5687493" lon="8.0627783"><ele>717.0</ele><time>2026-04-11T06:21:52.098Z</time></trkpt><trkpt lat="44.5686738" lon="8.0627603"><ele>717.0</ele><time>2026-04-11T06:21:54.099Z</time></trkpt><trkpt lat="44.568597" lon="8.0627659"><ele>717.1666666666666</ele><time>2026-04-11T06:21:56.1Z</time></trkpt><trkpt lat="44.5685317" lon="8.0627759"><ele>717.3333333333334</ele><time>2026-04-11T06:22:00.1Z</time></trkpt><trkpt lat="44.5684682" lon="8.0627997"><ele>717.5</ele><time>2026-04-11T06:22:30.099Z</time></trkpt><trkpt lat="44.5683742" lon="8.0627962"><ele>717.6666666666667</ele><time>2026-04-11T06:22:33.099Z</time></trkpt><trkpt lat="44.5683089" lon="8.0628064"><ele>717.8333333333334</ele><time>2026-04-11T06:22:35.1Z</time></trkpt><trkpt lat="44.5682248" lon="8.0628314"><ele>718.0</ele><time>2026-04-11T06:22:38.1Z</time></trkpt><trkpt lat="44.5681319" lon="8.0628409"><ele>718.0</ele><time>2026-04-11T06:22:41.1Z</time></trkpt><trkpt lat="44.5680666" lon="8.0628576"><ele>718.0</ele><time>2026-04-11T06:22:43.1Z</time></trkpt><trkpt lat="44.5679982" lon="8.0628806"><ele>718.0</ele><time>2026-04-11T06:22:45.099Z</time></trkpt><trkpt lat="44.5679339" lon="8.0628901"><ele>718.0</ele><time>2026-04-11T06:22:47.1Z</time></trkpt><trkpt lat="44.567852" lon="8.0628943"><ele>718.0</ele><time>2026-04-11T06:22:50.1Z</time></trkpt><trkpt lat="44.56776" lon="8.0629037"><ele>718.0</ele><time>2026-04-11T06:22:53.1Z</time></trkpt><trkpt lat="44.5676653" lon="8.0629264"><ele>717.7142857142858</ele><time>2026-04-11T06:22:56.1Z</time></trkpt><trkpt lat="44.5675876" lon="8.0629412"><ele>717.4285714285714</ele><time>2026-04-11T06:22:58.1Z</time></trkpt><trkpt lat="44.5675157" lon="8.0629513"><ele>717.1428571428571</ele><time>2026-04-11T06:23:00.1Z</time></trkpt><trkpt lat="44.5674415" lon="8.0629674"><ele>716.8571428571429</ele><time>2026-04-11T06:23:02.1Z</time></trkpt><trkpt lat="44.567371" lon="8.0629789"><ele>716.5714285714286</ele><time>2026-04-11T06:23:04.1Z</time></trkpt><trkpt lat="44.567306" lon="8.0629904"><ele>716.2857142857143</ele><time>2026-04-11T06:23:06.1Z</time></trkpt><trkpt lat="44.567241" lon="8.0629953"><ele>716.0</ele><time>2026-04-11T06:23:08.1Z</time></trkpt><trkpt lat="44.5671725" lon="8.0630067"><ele>716.0</ele><time>2026-04-11T06:23:10.101Z</time></trkpt><trkpt lat="44.567106" lon="8.0630161"><ele>716.0</ele><time>2026-04-11T06:23:12.101Z</time></trkpt><trkpt lat="44.5670402" lon="8.0630387"><ele>716.0</ele><time>2026-04-11T06:23:14.101Z</time></trkpt><trkpt lat="44.5669543" lon="8.0630853"><ele>716.0</ele><time>2026-04-11T06:23:17.1Z</time></trkpt><trkpt lat="44.5668584" lon="8.0631281"><ele>716.0</ele><time>2026-04-11T06:23:20.1Z</time></trkpt><trkpt lat="44.5667808" lon="8.063163"><ele>716.0</ele><time>2026-04-11T06:23:22.101Z</time></trkpt><trkpt lat="44.5667025" lon="8.0632011"><ele>716.5</ele><time>2026-04-11T06:23:24.101Z</time></trkpt><trkpt lat="44.566619" lon="8.0632461"><ele>717.0</ele><time>2026-04-11T06:23:26.1Z</time></trkpt><trkpt lat="44.5665187" lon="8.0632987"><ele>717.5</ele><time>2026-04-11T06:23:28.101Z</time></trkpt><trkpt lat="44.5664025" lon="8.0633361"><ele>718.0</ele><time>2026-04-11T06:23:30.101Z</time></trkpt><trkpt lat="44.5663382" lon="8.0633407"><ele>718.5</ele><time>2026-04-11T06:23:31.1Z</time></trkpt><trkpt lat="44.5662738" lon="8.0633388"><ele>719.0</ele><time>2026-04-11T06:23:32.101Z</time></trkpt><trkpt lat="44.5662104" lon="8.0633311"><ele>718.3333333333333</ele><time>2026-04-11T06:23:33.101Z</time></trkpt><trkpt lat="44.5661016" lon="8.0633048"><ele>717.6666666666666</ele><time>2026-04-11T06:23:35.101Z</time></trkpt><trkpt lat="44.5660284" lon="8.0632933"><ele>717.0</ele><time>2026-04-11T06:23:37.101Z</time></trkpt><trkpt lat="44.5659612" lon="8.0632909"><ele>716.3333333333334</ele><time>2026-04-11T06:23:39.101Z</time></trkpt><trkpt lat="44.5658834" lon="8.0632859"><ele>715.6666666666667</ele><time>2026-04-11T06:23:42.101Z</time></trkpt><trkpt lat="44.5658004" lon="8.0632503"><ele>715.0</ele><time>2026-04-11T06:23:45.101Z</time></trkpt><trkpt lat="44.5657351" lon="8.0632284"><ele>715.0</ele><time>2026-04-11T06:24:16.1Z</time></trkpt><trkpt lat="44.5656721" lon="8.0631544"><ele>715.0</ele><time>2026-04-11T06:24:19.1Z</time></trkpt><trkpt lat="44.5656353" lon="8.0630801"><ele>715.0</ele><time>2026-04-11T06:24:21.101Z</time></trkpt><trkpt lat="44.5655776" lon="8.0630292"><ele>715.0</ele><time>2026-04-11T06:24:23.101Z</time></trkpt><trkpt lat="44.5654947" lon="8.0629951"><ele>715.0</ele><time>2026-04-11T06:24:25.101Z</time></trkpt><trkpt lat="44.5654239" lon="8.0629332"><ele>715.0</ele><time>2026-04-11T06:24:27.102Z</time></trkpt><trkpt lat="44.5653566" lon="8.0628655"><ele>715.0</ele><time>2026-04-11T06:24:29.102Z</time></trkpt><trkpt lat="44.5652821" lon="8.062816"><ele>715.0</ele><time>2026-04-11T06:24:31.102Z</time></trkpt><trkpt lat="44.5652203" lon="8.0627522"><ele>715.0</ele><time>2026-04-11T06:24:33.102Z</time></trkpt><trkpt lat="44.5651624" lon="8.0626802"><ele>715.0</ele><time>2026-04-11T06:24:35.102Z</time></trkpt><trkpt lat="44.5650944" lon="8.0626126"><ele>715.0</ele><time>2026-04-11T06:24:37.102Z</time></trkpt><trkpt lat="44.5650255" lon="8.0625469"><ele>715.0</ele><time>2026-04-11T06:24:39.102Z</time></trkpt><trkpt lat="44.5649547" lon="8.0624842"><ele>715.3333333333334</ele><time>2026-04-11T06:24:41.101Z</time></trkpt><trkpt lat="44.5648802" lon="8.0624186"><ele>715.6666666666667</ele><time>2026-04-11T06:24:43.101Z</time></trkpt><trkpt lat="44.5648092" lon="8.0623497"><ele>716.0</ele><time>2026-04-11T06:24:45.102Z</time></trkpt><trkpt lat="44.5647395" lon="8.0622784"><ele>716.3333333333334</ele><time>2026-04-11T06:24:47.102Z</time></trkpt><trkpt lat="44.5646697" lon="8.0622091"><ele>716.6666666666666</ele><time>2026-04-11T06:24:49.102Z</time></trkpt><trkpt lat="44.5646025" lon="8.0621387"><ele>717.0</ele><time>2026-04-11T06:24:51.102Z</time></trkpt><trkpt lat="44.5645249" lon="8.0620727"><ele>717.0</ele><time>2026-04-11T06:24:53.102Z</time></trkpt><trkpt lat="44.5644543" lon="8.0620098"><ele>717.0</ele><time>2026-04-11T06:24:55.102Z</time></trkpt><trkpt lat="44.5643868" lon="8.0619455"><ele>717.0</ele><time>2026-04-11T06:24:57.101Z</time></trkpt><trkpt lat="44.5643173" lon="8.0618833"><ele>717.0</ele><time>2026-04-11T06:24:59.102Z</time></trkpt><trkpt lat="44.5642553" lon="8.0618206"><ele>717.0</ele><time>2026-04-11T06:25:01.102Z</time></trkpt><trkpt lat="44.56419" lon="8.0617591"><ele>717.0</ele><time>2026-04-11T06:25:03.102Z</time></trkpt><trkpt lat="44.5641258" lon="8.0616972"><ele>717.0</ele><time>2026-04-11T06:25:05.102Z</time></trkpt><trkpt lat="44.5640675" lon="8.0616277"><ele>717.0</ele><time>2026-04-11T06:25:07.102Z</time></trkpt><trkpt lat="44.5640003" lon="8.0615569"><ele>717.0</ele><time>2026-04-11T06:25:09.102Z</time></trkpt><trkpt lat="44.563937" lon="8.0614826"><ele>717.0</ele><time>2026-04-11T06:25:11.102Z</time></trkpt><trkpt lat="44.5638679" lon="8.0614215"><ele>717.0</ele><time>2026-04-11T06:25:13.102Z</time></trkpt><trkpt lat="44.5637909" lon="8.0613534"><ele>717.0</ele><time>2026-04-11T06:25:15.101Z</time></trkpt><trkpt lat="44.563725" lon="8.0612791"><ele>716.8333333333334</ele><time>2026-04-11T06:25:17.102Z</time></trkpt><trkpt lat="44.5636572" lon="8.0612159"><ele>716.6666666666666</ele><time>2026-04-11T06:25:19.101Z</time></trkpt><trkpt lat="44.5635893" lon="8.061147"><ele>716.5</ele><time>2026-04-11T06:25:21.101Z</time></trkpt><trkpt lat="44.5635225" lon="8.0610707"><ele>716.3333333333333</ele><time>2026-04-11T06:25:23.101Z</time></trkpt><trkpt lat="44.5634512" lon="8.0610059"><ele>716.1666666666666</ele><time>2026-04-11T06:25:25.102Z</time></trkpt><trkpt lat="44.5633824" lon="8.0609453"><ele>716.0</ele><time>2026-04-11T06:25:27.102Z</time></trkpt><trkpt lat="44.5633085" lon="8.0608775"><ele>716.0</ele><time>2026-04-11T06:25:29.102Z</time></trkpt><trkpt lat="44.563241" lon="8.0608106"><ele>716.0</ele><time>2026-04-11T06:25:31.102Z</time></trkpt><trkpt lat="44.563175" lon="8.0607479"><ele>716.0</ele><time>2026-04-11T06:25:33.101Z</time></trkpt><trkpt lat="44.563105" lon="8.0606823"><ele>716.0</ele><time>2026-04-11T06:25:35.102Z</time></trkpt><trkpt lat="44.5630323" lon="8.0606175"><ele>716.0</ele><time>2026-04-11T06:25:37.103Z</time></trkpt><trkpt lat="44.5629614" lon="8.0605542"><ele>716.0</ele><time>2026-04-11T06:25:39.103Z</time></trkpt><trkpt lat="44.5628956" lon="8.0604901"><ele>717.1666666666666</ele><time>2026-04-11T06:25:41.103Z</time></trkpt><trkpt lat="44.5628347" lon="8.0604242"><ele>718.3333333333333</ele><time>2026-04-11T06:25:43.103Z</time></trkpt><trkpt lat="44.5627729" lon="8.0603746"><ele>719.5</ele><time>2026-04-11T06:25:45.102Z</time></trkpt><trkpt lat="44.5626939" lon="8.0603091"><ele>720.6666666666666</ele><time>2026-04-11T06:25:48.102Z</time></trkpt><trkpt lat="44.5626176" lon="8.060256"><ele>721.8333333333334</ele><time>2026-04-11T06:25:51.103Z</time></trkpt><trkpt lat="44.562543" lon="8.0602093"><ele>723.0</ele><time>2026-04-11T06:25:54.103Z</time></trkpt><trkpt lat="44.5624671" lon="8.0601799"><ele>723.0</ele><time>2026-04-11T06:25:57.103Z</time></trkpt><trkpt lat="44.5623823" lon="8.0601673"><ele>723.0</ele><time>2026-04-11T06:26:00.103Z</time></trkpt><trkpt lat="44.5622944" lon="8.060156"><ele>723.0</ele><time>2026-04-11T06:26:03.103Z</time></trkpt><trkpt lat="44.5622164" lon="8.0601439"><ele>723.0</ele><time>2026-04-11T06:26:06.103Z</time></trkpt><trkpt lat="44.5621335" lon="8.0601209"><ele>723.0</ele><time>2026-04-11T06:26:09.103Z</time></trkpt><trkpt lat="44.5620572" lon="8.0601015"><ele>723.0</ele><time>2026-04-11T06:26:12.103Z</time></trkpt><trkpt lat="44.5619729" lon="8.0600653"><ele>723.0</ele><time>2026-04-11T06:26:15.102Z</time></trkpt><trkpt lat="44.5618956" lon="8.0600171"><ele>723.0</ele><time>2026-04-11T06:26:18.102Z</time></trkpt><trkpt lat="44.5618298" lon="8.0599531"><ele>723.0</ele><time>2026-04-11T06:26:21.102Z</time></trkpt><trkpt lat="44.5617746" lon="8.0598794"><ele>723.0</ele><time>2026-04-11T06:26:24.103Z</time></trkpt><trkpt lat="44.5617314" lon="8.0597991"><ele>723.0</ele><time>2026-04-11T06:26:27.103Z</time></trkpt><trkpt lat="44.5616976" lon="8.0596807"><ele>723.0</ele><time>2026-04-11T06:26:30.103Z</time></trkpt><trkpt lat="44.5616602" lon="8.0595967"><ele>725.0000000000001</ele><time>2026-04-11T06:26:33.101Z</time></trkpt><trkpt lat="44.5616263" lon="8.0595047"><ele>727.0</ele><time>2026-04-11T06:26:36.103Z</time></trkpt><trkpt lat="44.5616065" lon="8.0594017"><ele>729.0</ele><time>2026-04-11T06:26:40.102Z</time></trkpt><trkpt lat="44.5615501" lon="8.0593272"><ele>731.0</ele><time>2026-04-11T06:27:35.135Z</time></trkpt><trkpt lat="44.5615174" lon="8.0592483"><ele>733.0</ele><time>2026-04-11T06:27:38.151Z</time></trkpt><trkpt lat="44.5614915" lon="8.0591476"><ele>735.0000000000001</ele><time>2026-04-11T06:27:42.169Z</time></trkpt><trkpt lat="44.5614462" lon="8.0590559"><ele>737.0</ele><time>2026-04-11T06:27:46.088Z</time></trkpt><trkpt lat="44.5613975" lon="8.0589602"><ele>739.5714285714287</ele><time>2026-04-11T06:27:49.168Z</time></trkpt><trkpt lat="44.5613662" lon="8.058871"><ele>742.1428571428571</ele><time>2026-04-11T06:27:51.186Z</time></trkpt><trkpt lat="44.5613195" lon="8.0587771"><ele>744.7142857142858</ele><time>2026-04-11T06:27:54.168Z</time></trkpt><trkpt lat="44.5612528" lon="8.0587302"><ele>747.2857142857143</ele><time>2026-04-11T06:27:57.186Z</time></trkpt><trkpt lat="44.5611857" lon="8.0587077"><ele>749.8571428571429</ele><time>2026-04-11T06:28:00.168Z</time></trkpt><trkpt lat="44.5611164" lon="8.0586843"><ele>752.4285714285714</ele><time>2026-04-11T06:28:03.203Z</time></trkpt><trkpt lat="44.561052" lon="8.0586682"><ele>755.0</ele><time>2026-04-11T06:28:06.135Z</time></trkpt><trkpt lat="44.5609826" lon="8.0586749"><ele>755.1428571428571</ele><time>2026-04-11T06:28:10.234Z</time></trkpt><trkpt lat="44.5609107" lon="8.058689"><ele>755.2857142857143</ele><time>2026-04-11T06:28:14.105Z</time></trkpt><trkpt lat="44.5608517" lon="8.0586552"><ele>755.4285714285714</ele><time>2026-04-11T06:28:18.203Z</time></trkpt><trkpt lat="44.5607801" lon="8.0586431"><ele>755.5714285714286</ele><time>2026-04-11T06:28:29.135Z</time></trkpt><trkpt lat="44.5607066" lon="8.0586581"><ele>755.7142857142858</ele><time>2026-04-11T06:28:34.17Z</time></trkpt><trkpt lat="44.5606426" lon="8.0586381"><ele>755.8571428571429</ele><time>2026-04-11T06:28:42.105Z</time></trkpt><trkpt lat="44.5605834" lon="8.0586045"><ele>756.0</ele><time>2026-04-11T06:28:49.105Z</time></trkpt><trkpt lat="44.5605188" lon="8.0585803"><ele>756.0</ele><time>2026-04-11T06:28:57.105Z</time></trkpt><trkpt lat="44.5604498" lon="8.0585827"><ele>756.0</ele><time>2026-04-11T06:29:03.105Z</time></trkpt><trkpt lat="44.5603831" lon="8.0585536"><ele>756.0</ele><time>2026-04-11T06:29:11.106Z</time></trkpt><trkpt lat="44.5603197" lon="8.0585369"><ele>756.0</ele><time>2026-04-11T06:29:16.106Z</time></trkpt><trkpt lat="44.5602544" lon="8.0585381"><ele>756.0</ele><time>2026-04-11T06:29:21.106Z</time></trkpt><trkpt lat="44.5601836" lon="8.0585155"><ele>756.0</ele><time>2026-04-11T06:29:29.106Z</time></trkpt><trkpt lat="44.5601366" lon="8.0584542"><ele>756.0</ele><time>2026-04-11T06:29:34.106Z</time></trkpt><trkpt lat="44.5600819" lon="8.0583923"><ele>755.8333333333334</ele><time>2026-04-11T06:29:41.106Z</time></trkpt><trkpt lat="44.5600041" lon="8.0583574"><ele>755.6666666666666</ele><time>2026-04-11T06:29:58.106Z</time></trkpt><trkpt lat="44.5599337" lon="8.0583696"><ele>755.5</ele><time>2026-04-11T06:30:02.105Z</time></trkpt><trkpt lat="44.5598507" lon="8.0584058"><ele>755.3333333333333</ele><time>2026-04-11T06:30:05.106Z</time></trkpt><trkpt lat="44.5597833" lon="8.0584413"><ele>755.1666666666666</ele><time>2026-04-11T06:30:08.106Z</time></trkpt><trkpt lat="44.5597008" lon="8.0584857"><ele>755.0</ele><time>2026-04-11T06:30:11.106Z</time></trkpt><trkpt lat="44.5596245" lon="8.0585423"><ele>755.0</ele><time>2026-04-11T06:30:14.105Z</time></trkpt><trkpt lat="44.559552" lon="8.0585732"><ele>755.0</ele><time>2026-04-11T06:30:16.107Z</time></trkpt><trkpt lat="44.5594768" lon="8.0586252"><ele>755.0</ele><time>2026-04-11T06:30:18.107Z</time></trkpt><trkpt lat="44.5593922" lon="8.0587082"><ele>755.0</ele><time>2026-04-11T06:30:20.106Z</time></trkpt><trkpt lat="44.5593034" lon="8.0587667"><ele>755.0</ele><time>2026-04-11T06:30:23.106Z</time></trkpt><trkpt lat="44.5592363" lon="8.0588031"><ele>755.0</ele><time>2026-04-11T06:30:25.107Z</time></trkpt><trkpt lat="44.5591544" lon="8.0588898"><ele>752.2</ele><time>2026-04-11T06:30:27.107Z</time></trkpt><trkpt lat="44.5591016" lon="8.0589551"><ele>749.4</ele><time>2026-04-11T06:30:29.107Z</time></trkpt><trkpt lat="44.5590229" lon="8.0590085"><ele>746.5999999999999</ele><time>2026-04-11T06:30:32.107Z</time></trkpt><trkpt lat="44.5589228" lon="8.0590793"><ele>743.8</ele><time>2026-04-11T06:30:34.107Z</time></trkpt><trkpt lat="44.5588549" lon="8.0591287"><ele>741.0</ele><time>2026-04-11T06:30:36.107Z</time></trkpt><trkpt lat="44.5587383" lon="8.0592072"><ele>739.8333333333334</ele><time>2026-04-11T06:30:38.107Z</time></trkpt><trkpt lat="44.5586327" lon="8.059275"><ele>738.6666666666666</ele><time>2026-04-11T06:30:40.107Z</time></trkpt><trkpt lat="44.5585561" lon="8.0593226"><ele>737.5</ele><time>2026-04-11T06:30:43.107Z</time></trkpt><trkpt lat="44.5585022" lon="8.0593743"><ele>736.3333333333333</ele><time>2026-04-11T06:30:45.107Z</time></trkpt><trkpt lat="44.5584194" lon="8.0594399"><ele>735.1666666666666</ele><time>2026-04-11T06:30:48.107Z</time></trkpt><trkpt lat="44.5583517" lon="8.0594915"><ele>734.0</ele><time>2026-04-11T06:30:50.107Z</time></trkpt><trkpt lat="44.5582864" lon="8.0595485"><ele>734.0</ele><time>2026-04-11T06:30:54.107Z</time></trkpt><trkpt lat="44.5582169" lon="8.0595666"><ele>734.0</ele><time>2026-04-11T06:31:25.108Z</time></trkpt><trkpt lat="44.5581684" lon="8.0596682"><ele>734.0</ele><time>2026-04-11T06:31:29.828Z</time></trkpt><trkpt lat="44.5580973" lon="8.0596054"><ele>734.0</ele><time>2026-04-11T06:31:32.126Z</time></trkpt><trkpt lat="44.5579703" lon="8.0595774"><ele>734.0</ele><time>2026-04-11T06:31:35.108Z</time></trkpt><trkpt lat="44.5578945" lon="8.0595932"><ele>734.0</ele><time>2026-04-11T06:31:37.144Z</time></trkpt><trkpt lat="44.5578103" lon="8.0596222"><ele>731.8000000000001</ele><time>2026-04-11T06:31:39.161Z</time></trkpt><trkpt lat="44.5577195" lon="8.0596426"><ele>729.6</ele><time>2026-04-11T06:31:40.161Z</time></trkpt><trkpt lat="44.5576147" lon="8.0596641"><ele>727.4</ele><time>2026-04-11T06:31:42.123Z</time></trkpt><trkpt lat="44.557516" lon="8.059716"><ele>725.2</ele><time>2026-04-11T06:31:44.211Z</time></trkpt><trkpt lat="44.557429" lon="8.059771"><ele>723.0</ele><time>2026-04-11T06:31:46.159Z</time></trkpt><trkpt lat="44.5573431" lon="8.0598134"><ele>723.0</ele><time>2026-04-11T06:31:48.144Z</time></trkpt><trkpt lat="44.5572615" lon="8.059855"><ele>723.0</ele><time>2026-04-11T06:31:50.11Z</time></trkpt><trkpt lat="44.5571806" lon="8.0599288"><ele>723.0</ele><time>2026-04-11T06:31:52.21Z</time></trkpt><trkpt lat="44.5571138" lon="8.0599862"><ele>723.0</ele><time>2026-04-11T06:31:54.11Z</time></trkpt><trkpt lat="44.5570354" lon="8.0600369"><ele>723.0</ele><time>2026-04-11T06:31:56.11Z</time></trkpt><trkpt lat="44.556933" lon="8.0600978"><ele>724.4</ele><time>2026-04-11T06:31:58.108Z</time></trkpt><trkpt lat="44.5568416" lon="8.0601416"><ele>725.8</ele><time>2026-04-11T06:32:00.108Z</time></trkpt><trkpt lat="44.5567584" lon="8.0601732"><ele>727.2</ele><time>2026-04-11T06:32:02.107Z</time></trkpt><trkpt lat="44.5566643" lon="8.0602007"><ele>728.6</ele><time>2026-04-11T06:32:04.108Z</time></trkpt><trkpt lat="44.5565693" lon="8.0602325"><ele>730.0</ele><time>2026-04-11T06:32:06.108Z</time></trkpt><trkpt lat="44.5564832" lon="8.060263"><ele>730.0</ele><time>2026-04-11T06:32:08.108Z</time></trkpt><trkpt lat="44.5563869" lon="8.0602916"><ele>730.0</ele><time>2026-04-11T06:32:10.108Z</time></trkpt><trkpt lat="44.556286" lon="8.0603235"><ele>730.0</ele><time>2026-04-11T06:32:12.108Z</time></trkpt><trkpt lat="44.5561908" lon="8.0603598"><ele>730.0</ele><time>2026-04-11T06:32:14.108Z</time></trkpt><trkpt lat="44.5561063" lon="8.0604005"><ele>730.0</ele><time>2026-04-11T06:32:16.107Z</time></trkpt><trkpt lat="44.5560386" lon="8.0604485"><ele>731.1428571428572</ele><time>2026-04-11T06:32:18.107Z</time></trkpt><trkpt lat="44.5559762" lon="8.0605055"><ele>732.2857142857143</ele><time>2026-04-11T06:32:20.108Z</time></trkpt><trkpt lat="44.5559189" lon="8.0605679"><ele>733.4285714285714</ele><time>2026-04-11T06:33:13.109Z</time></trkpt><trkpt lat="44.5558699" lon="8.0606384"><ele>734.5714285714287</ele><time>2026-04-11T06:33:16.108Z</time></trkpt><trkpt lat="44.5558285" lon="8.0607149"><ele>735.7142857142857</ele><time>2026-04-11T06:33:18.176Z</time></trkpt><trkpt lat="44.5557756" lon="8.0607982"><ele>736.8571428571429</ele><time>2026-04-11T06:33:20.109Z</time></trkpt><trkpt lat="44.5557324" lon="8.0608852"><ele>738.0</ele><time>2026-04-11T06:33:22.035Z</time></trkpt><trkpt lat="44.5556865" lon="8.0610292"><ele>738.0</ele><time>2026-04-11T06:33:24.109Z</time></trkpt><trkpt lat="44.5556336" lon="8.0611521"><ele>738.0</ele><time>2026-04-11T06:33:26.109Z</time></trkpt><trkpt lat="44.5555816" lon="8.0612791"><ele>738.0</ele><time>2026-04-11T06:33:28.108Z</time></trkpt><trkpt lat="44.5555343" lon="8.0613983"><ele>738.0</ele><time>2026-04-11T06:33:30.109Z</time></trkpt><trkpt lat="44.5554884" lon="8.0615042"><ele>738.0</ele><time>2026-04-11T06:33:32.109Z</time></trkpt><trkpt lat="44.5554468" lon="8.0616134"><ele>739.5999999999999</ele><time>2026-04-11T06:33:34.109Z</time></trkpt><trkpt lat="44.5554049" lon="8.0617224"><ele>741.1999999999999</ele><time>2026-04-11T06:33:36.109Z</time></trkpt><trkpt lat="44.5553543" lon="8.0618344"><ele>742.8</ele><time>2026-04-11T06:33:38.109Z</time></trkpt><trkpt lat="44.5552996" lon="8.0619498"><ele>744.4</ele><time>2026-04-11T06:33:40.11Z</time></trkpt><trkpt lat="44.5552441" lon="8.0620584"><ele>746.0</ele><time>2026-04-11T06:33:42.109Z</time></trkpt><trkpt lat="44.5551837" lon="8.0621621"><ele>743.5999999999999</ele><time>2026-04-11T06:33:44.11Z</time></trkpt><trkpt lat="44.5551196" lon="8.0622609"><ele>741.2</ele><time>2026-04-11T06:33:46.11Z</time></trkpt><trkpt lat="44.5550397" lon="8.0623426"><ele>738.8</ele><time>2026-04-11T06:33:48.11Z</time></trkpt><trkpt lat="44.5549575" lon="8.0624239"><ele>736.4000000000001</ele><time>2026-04-11T06:33:50.11Z</time></trkpt><trkpt lat="44.554867" lon="8.0624841"><ele>734.0</ele><time>2026-04-11T06:33:52.109Z</time></trkpt><trkpt lat="44.5547772" lon="8.0625165"><ele>734.0</ele><time>2026-04-11T06:33:54.11Z</time></trkpt><trkpt lat="44.5547084" lon="8.0625319"><ele>734.0</ele><time>2026-04-11T06:33:56.11Z</time></trkpt><trkpt lat="44.5546427" lon="8.0625336"><ele>734.0</ele><time>2026-04-11T06:34:00.11Z</time></trkpt><trkpt lat="44.5545654" lon="8.0625696"><ele>734.0</ele><time>2026-04-11T06:34:22.109Z</time></trkpt><trkpt lat="44.5544945" lon="8.0625555"><ele>734.0</ele><time>2026-04-11T06:34:24.11Z</time></trkpt><trkpt lat="44.5544094" lon="8.0625269"><ele>734.0</ele><time>2026-04-11T06:34:26.11Z</time></trkpt><trkpt lat="44.5543215" lon="8.0625074"><ele>733.4000000000001</ele><time>2026-04-11T06:34:28.11Z</time></trkpt><trkpt lat="44.5542306" lon="8.0624852"><ele>732.8</ele><time>2026-04-11T06:34:30.109Z</time></trkpt><trkpt lat="44.5541296" lon="8.0624552"><ele>732.2</ele><time>2026-04-11T06:34:32.11Z</time></trkpt><trkpt lat="44.5540339" lon="8.0624366"><ele>731.5999999999999</ele><time>2026-04-11T06:34:34.11Z</time></trkpt><trkpt lat="44.5539515" lon="8.0624258"><ele>731.0</ele><time>2026-04-11T06:34:36.11Z</time></trkpt><trkpt lat="44.5538698" lon="8.0624429"><ele>731.0</ele><time>2026-04-11T06:34:38.109Z</time></trkpt><trkpt lat="44.5537767" lon="8.0624818"><ele>731.0</ele><time>2026-04-11T06:34:40.11Z</time></trkpt><trkpt lat="44.5536753" lon="8.0625269"><ele>731.0</ele><time>2026-04-11T06:34:42.11Z</time></trkpt><trkpt lat="44.5535701" lon="8.0625914"><ele>731.0</ele><time>2026-04-11T06:34:44.11Z</time></trkpt><trkpt lat="44.5534738" lon="8.06266"><ele>731.0</ele><time>2026-04-11T06:34:46.111Z</time></trkpt><trkpt lat="44.5533817" lon="8.0627117"><ele>731.1999999999999</ele><time>2026-04-11T06:34:48.11Z</time></trkpt><trkpt lat="44.5532904" lon="8.0627576"><ele>731.4</ele><time>2026-04-11T06:34:50.111Z</time></trkpt><trkpt lat="44.5532033" lon="8.0628064"><ele>731.6</ele><time>2026-04-11T06:34:52.111Z</time></trkpt><trkpt lat="44.5531139" lon="8.0628578"><ele>731.8</ele><time>2026-04-11T06:34:54.111Z</time></trkpt><trkpt lat="44.5530178" lon="8.0629145"><ele>732.0</ele><time>2026-04-11T06:34:56.111Z</time></trkpt><trkpt lat="44.5529185" lon="8.062971"><ele>731.6</ele><time>2026-04-11T06:34:58.111Z</time></trkpt><trkpt lat="44.552818" lon="8.0630251"><ele>731.2</ele><time>2026-04-11T06:35:00.111Z</time></trkpt><trkpt lat="44.5527126" lon="8.063059"><ele>730.8</ele><time>2026-04-11T06:35:02.11Z</time></trkpt><trkpt lat="44.5526063" lon="8.0630646"><ele>730.4</ele><time>2026-04-11T06:35:04.111Z</time></trkpt><trkpt lat="44.5525032" lon="8.0630456"><ele>730.0</ele><time>2026-04-11T06:35:06.111Z</time></trkpt><trkpt lat="44.5524075" lon="8.0629783"><ele>730.0</ele><time>2026-04-11T06:35:08.111Z</time></trkpt><trkpt lat="44.5523211" lon="8.0628901"><ele>730.0</ele><time>2026-04-11T06:35:10.111Z</time></trkpt><trkpt lat="44.552239" lon="8.0628067"><ele>730.0</ele><time>2026-04-11T06:35:12.111Z</time></trkpt><trkpt lat="44.552158" lon="8.0627177"><ele>730.0</ele><time>2026-04-11T06:35:14.111Z</time></trkpt><trkpt lat="44.5520731" lon="8.0626233"><ele>730.0</ele><time>2026-04-11T06:35:16.11Z</time></trkpt><trkpt lat="44.5519825" lon="8.062529"><ele>729.0</ele><time>2026-04-11T06:35:18.11Z</time></trkpt><trkpt lat="44.5518973" lon="8.0624299"><ele>728.0</ele><time>2026-04-11T06:35:20.111Z</time></trkpt><trkpt lat="44.5518175" lon="8.0623412"><ele>727.0</ele><time>2026-04-11T06:35:22.111Z</time></trkpt><trkpt lat="44.5517421" lon="8.0622572"><ele>726.0</ele><time>2026-04-11T06:35:24.111Z</time></trkpt><trkpt lat="44.5516661" lon="8.062173"><ele>725.0</ele><time>2026-04-11T06:35:26.111Z</time></trkpt><trkpt lat="44.5515827" lon="8.0620867"><ele>725.0</ele><time>2026-04-11T06:35:28.111Z</time></trkpt><trkpt lat="44.551501" lon="8.0620036"><ele>725.0</ele><time>2026-04-11T06:35:30.111Z</time></trkpt><trkpt lat="44.5514218" lon="8.0619212"><ele>725.0</ele><time>2026-04-11T06:35:32.11Z</time></trkpt><trkpt lat="44.5513334" lon="8.0618521"><ele>725.0</ele><time>2026-04-11T06:35:34.111Z</time></trkpt><trkpt lat="44.5512385" lon="8.0617957"><ele>725.0</ele><time>2026-04-11T06:35:36.11Z</time></trkpt><trkpt lat="44.551139" lon="8.0617531"><ele>726.0</ele><time>2026-04-11T06:35:38.112Z</time></trkpt><trkpt lat="44.5510356" lon="8.0617333"><ele>727.0</ele><time>2026-04-11T06:35:40.111Z</time></trkpt><trkpt lat="44.5509351" lon="8.0617059"><ele>728.0</ele><time>2026-04-11T06:35:42.111Z</time></trkpt><trkpt lat="44.5508361" lon="8.0616721"><ele>729.0</ele><time>2026-04-11T06:35:44.111Z</time></trkpt><trkpt lat="44.5507375" lon="8.0616474"><ele>730.0</ele><time>2026-04-11T06:35:46.11Z</time></trkpt><trkpt lat="44.5506401" lon="8.0616231"><ele>729.0</ele><time>2026-04-11T06:35:48.111Z</time></trkpt><trkpt lat="44.5505434" lon="8.0616034"><ele>728.0</ele><time>2026-04-11T06:35:50.111Z</time></trkpt><trkpt lat="44.550438" lon="8.0615804"><ele>727.0</ele><time>2026-04-11T06:35:52.112Z</time></trkpt><trkpt lat="44.5503301" lon="8.0615545"><ele>726.0</ele><time>2026-04-11T06:35:54.112Z</time></trkpt><trkpt lat="44.5502272" lon="8.0615079"><ele>725.0</ele><time>2026-04-11T06:35:56.112Z</time></trkpt><trkpt lat="44.5501289" lon="8.0614321"><ele>725.0</ele><time>2026-04-11T06:35:58.112Z</time></trkpt><trkpt lat="44.5500412" lon="8.0613398"><ele>725.0</ele><time>2026-04-11T06:36:00.111Z</time></trkpt><trkpt lat="44.5499685" lon="8.0612311"><ele>725.0</ele><time>2026-04-11T06:36:02.112Z</time></trkpt><trkpt lat="44.5498978" lon="8.0611188"><ele>725.0</ele><time>2026-04-11T06:36:04.112Z</time></trkpt><trkpt lat="44.5498292" lon="8.0610041"><ele>725.0</ele><time>2026-04-11T06:36:06.112Z</time></trkpt><trkpt lat="44.5497602" lon="8.0608871"><ele>725.0</ele><time>2026-04-11T06:36:08.112Z</time></trkpt><trkpt lat="44.5496955" lon="8.0607827"><ele>725.0</ele><time>2026-04-11T06:36:10.112Z</time></trkpt><trkpt lat="44.5496344" lon="8.0606922"><ele>725.0</ele><time>2026-04-11T06:36:12.111Z</time></trkpt><trkpt lat="44.5495702" lon="8.0606215"><ele>725.0</ele><time>2026-04-11T06:36:14.111Z</time></trkpt><trkpt lat="44.5495113" lon="8.0605565"><ele>725.0</ele><time>2026-04-11T06:36:16.112Z</time></trkpt><trkpt lat="44.5494487" lon="8.0604949"><ele>725.0</ele><time>2026-04-11T06:36:19.111Z</time></trkpt><trkpt lat="44.5494069" lon="8.0604197"><ele>725.3333333333333</ele><time>2026-04-11T06:36:23.112Z</time></trkpt><trkpt lat="44.5493644" lon="8.0603181"><ele>725.6666666666666</ele><time>2026-04-11T06:37:15.113Z</time></trkpt><trkpt lat="44.5493123" lon="8.0602339"><ele>726.0</ele><time>2026-04-11T06:37:17.113Z</time></trkpt><trkpt lat="44.549248" lon="8.0601333"><ele>726.3333333333334</ele><time>2026-04-11T06:37:19.113Z</time></trkpt><trkpt lat="44.5491957" lon="8.0600424"><ele>726.6666666666667</ele><time>2026-04-11T06:37:21.112Z</time></trkpt><trkpt lat="44.5491269" lon="8.0599545"><ele>727.0</ele><time>2026-04-11T06:37:23.113Z</time></trkpt><trkpt lat="44.5490408" lon="8.0598748"><ele>727.8333333333334</ele><time>2026-04-11T06:37:25.112Z</time></trkpt><trkpt lat="44.5489674" lon="8.0598008"><ele>728.6666666666667</ele><time>2026-04-11T06:37:27.113Z</time></trkpt><trkpt lat="44.5489147" lon="8.0597422"><ele>729.5</ele><time>2026-04-11T06:37:30.113Z</time></trkpt><trkpt lat="44.5488589" lon="8.0596682"><ele>730.3333333333334</ele><time>2026-04-11T06:37:33.113Z</time></trkpt><trkpt lat="44.5487993" lon="8.0595593"><ele>731.1666666666666</ele><time>2026-04-11T06:37:36.113Z</time></trkpt><trkpt lat="44.5487499" lon="8.0594918"><ele>732.0</ele><time>2026-04-11T06:37:38.112Z</time></trkpt><trkpt lat="44.5487005" lon="8.0594108"><ele>732.0</ele><time>2026-04-11T06:37:40.113Z</time></trkpt><trkpt lat="44.5486475" lon="8.0593284"><ele>732.0</ele><time>2026-04-11T06:37:42.113Z</time></trkpt><trkpt lat="44.5486062" lon="8.0592615"><ele>732.0</ele><time>2026-04-11T06:37:45.113Z</time></trkpt><trkpt lat="44.5485832" lon="8.0591723"><ele>732.0</ele><time>2026-04-11T06:37:50.113Z</time></trkpt><trkpt lat="44.5485588" lon="8.0590847"><ele>732.0</ele><time>2026-04-11T06:37:54.114Z</time></trkpt><trkpt lat="44.5485122" lon="8.0589822"><ele>732.0</ele><time>2026-04-11T06:37:58.112Z</time></trkpt><trkpt lat="44.5484747" lon="8.0589065"><ele>732.0</ele><time>2026-04-11T06:38:01.113Z</time></trkpt><trkpt lat="44.5484208" lon="8.0588327"><ele>731.1666666666666</ele><time>2026-04-11T06:38:09.114Z</time></trkpt><trkpt lat="44.5483577" lon="8.0587798"><ele>730.3333333333334</ele><time>2026-04-11T06:38:16.113Z</time></trkpt><trkpt lat="44.5483081" lon="8.0587053"><ele>729.5</ele><time>2026-04-11T06:38:19.114Z</time></trkpt><trkpt lat="44.5482525" lon="8.0586118"><ele>728.6666666666667</ele><time>2026-04-11T06:38:22.114Z</time></trkpt><trkpt lat="44.5482147" lon="8.0585373"><ele>727.8333333333334</ele><time>2026-04-11T06:38:24.114Z</time></trkpt><trkpt lat="44.5481739" lon="8.0584435"><ele>727.0</ele><time>2026-04-11T06:38:27.114Z</time></trkpt><trkpt lat="44.5481474" lon="8.0583413"><ele>725.8571428571428</ele><time>2026-04-11T06:38:30.113Z</time></trkpt><trkpt lat="44.5481297" lon="8.0582445"><ele>724.7142857142858</ele><time>2026-04-11T06:38:32.114Z</time></trkpt><trkpt lat="44.5481038" lon="8.0581583"><ele>723.5714285714286</ele><time>2026-04-11T06:38:34.113Z</time></trkpt><trkpt lat="44.548072" lon="8.0580569"><ele>722.4285714285713</ele><time>2026-04-11T06:38:37.114Z</time></trkpt><trkpt lat="44.5480506" lon="8.057943"><ele>721.2857142857142</ele><time>2026-04-11T06:38:40.114Z</time></trkpt><trkpt lat="44.5480188" lon="8.0578561"><ele>720.1428571428571</ele><time>2026-04-11T06:38:42.114Z</time></trkpt><trkpt lat="44.5479813" lon="8.0577649"><ele>719.0</ele><time>2026-04-11T06:38:44.114Z</time></trkpt><trkpt lat="44.5479512" lon="8.0576711"><ele>719.0</ele><time>2026-04-11T06:38:46.113Z</time></trkpt><trkpt lat="44.5479371" lon="8.057579"><ele>719.0</ele><time>2026-04-11T06:38:48.114Z</time></trkpt><trkpt lat="44.5479215" lon="8.0574716"><ele>719.0</ele><time>2026-04-11T06:38:50.114Z</time></trkpt><trkpt lat="44.5479048" lon="8.0573702"><ele>719.0</ele><time>2026-04-11T06:38:52.114Z</time></trkpt><trkpt lat="44.5478821" lon="8.0572656"><ele>719.0</ele><time>2026-04-11T06:38:54.114Z</time></trkpt><trkpt lat="44.5478535" lon="8.0571547"><ele>719.0</ele><time>2026-04-11T06:38:56.113Z</time></trkpt><trkpt lat="44.5478175" lon="8.0570273"><ele>720.6666666666666</ele><time>2026-04-11T06:38:58.114Z</time></trkpt><trkpt lat="44.5477775" lon="8.0569152"><ele>722.3333333333333</ele><time>2026-04-11T06:39:00.114Z</time></trkpt><trkpt lat="44.547728" lon="8.0568082"><ele>724.0</ele><time>2026-04-11T06:39:02.114Z</time></trkpt><trkpt lat="44.5476842" lon="8.0567227"><ele>725.6666666666666</ele><time>2026-04-11T06:39:04.114Z</time></trkpt><trkpt lat="44.5476312" lon="8.0566486"><ele>727.3333333333334</ele><time>2026-04-11T06:39:08.114Z</time></trkpt><trkpt lat="44.5475677" lon="8.0566362"><ele>729.0</ele><time>2026-04-11T06:39:11.114Z</time></trkpt><trkpt lat="44.5475286" lon="8.0567083"><ele>729.0</ele><time>2026-04-11T06:39:13.113Z</time></trkpt><trkpt lat="44.5474771" lon="8.0567898"><ele>729.0</ele><time>2026-04-11T06:39:16.114Z</time></trkpt><trkpt lat="44.5474272" lon="8.0568583"><ele>729.0</ele><time>2026-04-11T06:39:19.115Z</time></trkpt><trkpt lat="44.5473723" lon="8.0569383"><ele>729.0</ele><time>2026-04-11T06:39:22.115Z</time></trkpt><trkpt lat="44.5473332" lon="8.0570148"><ele>729.0</ele><time>2026-04-11T06:39:24.114Z</time></trkpt><trkpt lat="44.5472933" lon="8.0570931"><ele>729.0</ele><time>2026-04-11T06:39:26.115Z</time></trkpt><trkpt lat="44.5472511" lon="8.0571783"><ele>729.0</ele><time>2026-04-11T06:39:28.115Z</time></trkpt><trkpt lat="44.5472092" lon="8.0572687"><ele>729.0</ele><time>2026-04-11T06:39:30.115Z</time></trkpt><trkpt lat="44.547162" lon="8.0573795"><ele>729.0</ele><time>2026-04-11T06:39:32.115Z</time></trkpt><trkpt lat="44.5471096" lon="8.0574968"><ele>729.0</ele><time>2026-04-11T06:39:34.115Z</time></trkpt><trkpt lat="44.5470559" lon="8.0576097"><ele>729.0</ele><time>2026-04-11T06:39:36.115Z</time></trkpt><trkpt lat="44.547006" lon="8.057724"><ele>729.0</ele><time>2026-04-11T06:39:38.114Z</time></trkpt><trkpt lat="44.5469472" lon="8.0578288"><ele>729.8000000000001</ele><time>2026-04-11T06:39:40.115Z</time></trkpt><trkpt lat="44.5468822" lon="8.057925"><ele>730.6</ele><time>2026-04-11T06:39:42.115Z</time></trkpt><trkpt lat="44.5468195" lon="8.0580224"><ele>731.4</ele><time>2026-04-11T06:39:44.115Z</time></trkpt><trkpt lat="44.546749" lon="8.0581217"><ele>732.2</ele><time>2026-04-11T06:39:46.115Z</time></trkpt><trkpt lat="44.546672" lon="8.0582189"><ele>733.0</ele><time>2026-04-11T06:39:48.114Z</time></trkpt><trkpt lat="44.5465863" lon="8.0583429"><ele>733.0</ele><time>2026-04-11T06:39:50.115Z</time></trkpt><trkpt lat="44.546505" lon="8.0584671"><ele>733.0</ele><time>2026-04-11T06:39:52.115Z</time></trkpt><trkpt lat="44.5464381" lon="8.0585365"><ele>733.0</ele><time>2026-04-11T06:39:54.115Z</time></trkpt><trkpt lat="44.5463775" lon="8.0585902"><ele>733.0</ele><time>2026-04-11T06:39:56.115Z</time></trkpt><trkpt lat="44.5463043" lon="8.0586471"><ele>733.0</ele><time>2026-04-11T06:39:58.115Z</time></trkpt><trkpt lat="44.5462303" lon="8.0586917"><ele>733.0</ele><time>2026-04-11T06:40:00.115Z</time></trkpt><trkpt lat="44.5461739" lon="8.0587424"><ele>732.0</ele><time>2026-04-11T06:40:03.115Z</time></trkpt><trkpt lat="44.5461155" lon="8.0587992"><ele>731.0</ele><time>2026-04-11T06:40:35.116Z</time></trkpt><trkpt lat="44.5460464" lon="8.0588466"><ele>730.0</ele><time>2026-04-11T06:40:39.115Z</time></trkpt><trkpt lat="44.5459724" lon="8.0589072"><ele>729.0</ele><time>2026-04-11T06:40:42.116Z</time></trkpt><trkpt lat="44.5458963" lon="8.0589563"><ele>728.0</ele><time>2026-04-11T06:40:45.115Z</time></trkpt><trkpt lat="44.5458271" lon="8.0589876"><ele>727.0</ele><time>2026-04-11T06:40:47.116Z</time></trkpt><trkpt lat="44.5457583" lon="8.0590278"><ele>727.0</ele><time>2026-04-11T06:40:49.116Z</time></trkpt><trkpt lat="44.5456942" lon="8.0590666"><ele>727.0</ele><time>2026-04-11T06:40:51.116Z</time></trkpt><trkpt lat="44.5456326" lon="8.0590946"><ele>727.0</ele><time>2026-04-11T06:40:53.116Z</time></trkpt><trkpt lat="44.545568" lon="8.0591146"><ele>727.0</ele><time>2026-04-11T06:40:55.116Z</time></trkpt><trkpt lat="44.545506" lon="8.0591321"><ele>727.0</ele><time>2026-04-11T06:40:57.116Z</time></trkpt><trkpt lat="44.5454283" lon="8.059136"><ele>727.0</ele><time>2026-04-11T06:41:00.116Z</time></trkpt><trkpt lat="44.5453584" lon="8.0591345"><ele>727.0</ele><time>2026-04-11T06:41:03.116Z</time></trkpt><trkpt lat="44.5452765" lon="8.0591483"><ele>727.2857142857142</ele><time>2026-04-11T06:41:06.116Z</time></trkpt><trkpt lat="44.5452031" lon="8.0591564"><ele>727.5714285714287</ele><time>2026-04-11T06:41:08.116Z</time></trkpt><trkpt lat="44.5451356" lon="8.059158"><ele>727.8571428571429</ele><time>2026-04-11T06:41:10.116Z</time></trkpt><trkpt lat="44.5450637" lon="8.0591405"><ele>728.1428571428571</ele><time>2026-04-11T06:41:13.116Z</time></trkpt><trkpt lat="44.5449966" lon="8.05914"><ele>728.4285714285713</ele><time>2026-04-11T06:41:17.116Z</time></trkpt><trkpt lat="44.5449333" lon="8.0591626"><ele>728.7142857142858</ele><time>2026-04-11T06:41:20.116Z</time></trkpt><trkpt lat="44.5448789" lon="8.0592191"><ele>729.0</ele><time>2026-04-11T06:41:58.117Z</time></trkpt><trkpt lat="44.5448095" lon="8.0592164"><ele>729.0</ele><time>2026-04-11T06:42:05.116Z</time></trkpt><trkpt lat="44.5447391" lon="8.0592435"><ele>729.0</ele><time>2026-04-11T06:42:09.117Z</time></trkpt><trkpt lat="44.5446639" lon="8.0592537"><ele>729.0</ele><time>2026-04-11T06:42:13.116Z</time></trkpt><trkpt lat="44.5446009" lon="8.0592764"><ele>729.0</ele><time>2026-04-11T06:42:16.117Z</time></trkpt><trkpt lat="44.5445247" lon="8.0592631"><ele>729.0</ele><time>2026-04-11T06:42:20.117Z</time></trkpt><trkpt lat="44.5444594" lon="8.0592629"><ele>729.0</ele><time>2026-04-11T06:42:24.117Z</time></trkpt><trkpt lat="44.5443808" lon="8.0592541"><ele>729.0</ele><time>2026-04-11T06:42:30.117Z</time></trkpt><trkpt lat="44.544312" lon="8.0592565"><ele>730.1428571428572</ele><time>2026-04-11T06:42:35.117Z</time></trkpt><trkpt lat="44.5442366" lon="8.0592384"><ele>731.2857142857142</ele><time>2026-04-11T06:42:39.118Z</time></trkpt><trkpt lat="44.544172" lon="8.0592252"><ele>732.4285714285714</ele><time>2026-04-11T06:42:43.118Z</time></trkpt><trkpt lat="44.5441052" lon="8.0592149"><ele>733.5714285714287</ele><time>2026-04-11T06:42:48.118Z</time></trkpt><trkpt lat="44.5440256" lon="8.0592122"><ele>734.7142857142858</ele><time>2026-04-11T06:42:51.118Z</time></trkpt><trkpt lat="44.5439552" lon="8.0592086"><ele>735.8571428571429</ele><time>2026-04-11T06:42:54.118Z</time></trkpt><trkpt lat="44.5438797" lon="8.0592223"><ele>737.0</ele><time>2026-04-11T06:42:58.118Z</time></trkpt><trkpt lat="44.5438082" lon="8.059243"><ele>737.0</ele><time>2026-04-11T06:43:02.118Z</time></trkpt><trkpt lat="44.543738" lon="8.0592924"><ele>737.0</ele><time>2026-04-11T06:43:06.117Z</time></trkpt><trkpt lat="44.5436803" lon="8.0593548"><ele>737.0</ele><time>2026-04-11T06:43:09.118Z</time></trkpt><trkpt lat="44.543612" lon="8.0594362"><ele>737.0</ele><time>2026-04-11T06:43:12.118Z</time></trkpt><trkpt lat="44.5435618" lon="8.0595037"><ele>737.0</ele><time>2026-04-11T06:43:14.118Z</time></trkpt><trkpt lat="44.5435097" lon="8.059574"><ele>737.0</ele><time>2026-04-11T06:43:17.117Z</time></trkpt><trkpt lat="44.5434674" lon="8.059654"><ele>738.8571428571429</ele><time>2026-04-11T06:43:25.118Z</time></trkpt><trkpt lat="44.5434341" lon="8.0597409"><ele>740.7142857142858</ele><time>2026-04-11T06:43:33.118Z</time></trkpt><trkpt lat="44.5433916" lon="8.059811"><ele>742.5714285714287</ele><time>2026-04-11T06:43:39.118Z</time></trkpt><trkpt lat="44.5433771" lon="8.0598998"><ele>744.4285714285714</ele><time>2026-04-11T06:43:46.119Z</time></trkpt><trkpt lat="44.5433401" lon="8.0599754"><ele>746.2857142857142</ele><time>2026-04-11T06:43:56.119Z</time></trkpt><trkpt lat="44.5432828" lon="8.0600269"><ele>748.1428571428572</ele><time>2026-04-11T06:44:04.118Z</time></trkpt><trkpt lat="44.5432206" lon="8.0600515"><ele>750.0</ele><time>2026-04-11T06:44:48.119Z</time></trkpt><trkpt lat="44.5431565" lon="8.0600522"><ele>750.0</ele><time>2026-04-11T06:44:53.12Z</time></trkpt><trkpt lat="44.5430856" lon="8.0601046"><ele>750.0</ele><time>2026-04-11T06:45:00.12Z</time></trkpt><trkpt lat="44.543014" lon="8.0601585"><ele>750.0</ele><time>2026-04-11T06:45:05.12Z</time></trkpt><trkpt lat="44.5429663" lon="8.060233"><ele>750.0</ele><time>2026-04-11T06:45:12.12Z</time></trkpt><trkpt lat="44.5429136" lon="8.060309"><ele>750.0</ele><time>2026-04-11T06:45:22.12Z</time></trkpt><trkpt lat="44.5428743" lon="8.0603977"><ele>750.0</ele><time>2026-04-11T06:45:25.12Z</time></trkpt><trkpt lat="44.5428233" lon="8.0605055"><ele>752.3333333333334</ele><time>2026-04-11T06:45:29.12Z</time></trkpt><trkpt lat="44.5427811" lon="8.0606144"><ele>754.6666666666666</ele><time>2026-04-11T06:45:32.12Z</time></trkpt><trkpt lat="44.542752" lon="8.0607191"><ele>757.0</ele><time>2026-04-11T06:45:36.12Z</time></trkpt><trkpt lat="44.5427337" lon="8.0608137"><ele>759.3333333333333</ele><time>2026-04-11T06:45:39.119Z</time></trkpt><trkpt lat="44.5427063" lon="8.0609109"><ele>761.6666666666666</ele><time>2026-04-11T06:45:42.119Z</time></trkpt><trkpt lat="44.5426793" lon="8.0610402"><ele>764.0</ele><time>2026-04-11T06:45:46.12Z</time></trkpt><trkpt lat="44.5426617" lon="8.0611359"><ele>764.1428571428572</ele><time>2026-04-11T06:45:49.12Z</time></trkpt><trkpt lat="44.5426309" lon="8.0612178"><ele>764.2857142857142</ele><time>2026-04-11T06:45:51.121Z</time></trkpt><trkpt lat="44.5425863" lon="8.0613138"><ele>764.4285714285714</ele><time>2026-04-11T06:45:55.12Z</time></trkpt><trkpt lat="44.5425339" lon="8.0613794"><ele>764.5714285714287</ele><time>2026-04-11T06:46:00.12Z</time></trkpt><trkpt lat="44.54248" lon="8.061449"><ele>764.7142857142858</ele><time>2026-04-11T06:46:04.121Z</time></trkpt><trkpt lat="44.5424133" lon="8.0614851"><ele>764.8571428571429</ele><time>2026-04-11T06:46:08.121Z</time></trkpt><trkpt lat="44.5423434" lon="8.0615142"><ele>765.0</ele><time>2026-04-11T06:46:11.12Z</time></trkpt><trkpt lat="44.5422789" lon="8.0615578"><ele>765.0000000000001</ele><time>2026-04-11T06:46:15.12Z</time></trkpt><trkpt lat="44.5422192" lon="8.0616037"><ele>765.0</ele><time>2026-04-11T06:46:20.121Z</time></trkpt><trkpt lat="44.5421473" lon="8.0616613"><ele>765.0</ele><time>2026-04-11T06:46:24.121Z</time></trkpt><trkpt lat="44.5420892" lon="8.0617221"><ele>765.0</ele><time>2026-04-11T06:46:28.121Z</time></trkpt><trkpt lat="44.54207" lon="8.0618236"><ele>765.0</ele><time>2026-04-11T06:46:38.121Z</time></trkpt><trkpt lat="44.5420397" lon="8.0619025"><ele>765.0000000000001</ele><time>2026-04-11T06:46:44.121Z</time></trkpt><trkpt lat="44.5420096" lon="8.0619914"><ele>765.0</ele><time>2026-04-11T06:46:51.122Z</time></trkpt><trkpt lat="44.5419888" lon="8.0620797"><ele>765.2857142857143</ele><time>2026-04-11T06:46:58.122Z</time></trkpt><trkpt lat="44.5419457" lon="8.0621469"><ele>765.5714285714286</ele><time>2026-04-11T06:47:04.121Z</time></trkpt><trkpt lat="44.541918" lon="8.0622375"><ele>765.8571428571429</ele><time>2026-04-11T06:47:11.122Z</time></trkpt><trkpt lat="44.5418924" lon="8.0623291"><ele>766.1428571428571</ele><time>2026-04-11T06:47:17.122Z</time></trkpt><trkpt lat="44.5418806" lon="8.0624181"><ele>766.4285714285714</ele><time>2026-04-11T06:47:23.122Z</time></trkpt><trkpt lat="44.5418619" lon="8.0625037"><ele>766.7142857142858</ele><time>2026-04-11T06:47:29.121Z</time></trkpt><trkpt lat="44.5418136" lon="8.062568"><ele>767.0</ele><time>2026-04-11T06:47:35.122Z</time></trkpt><trkpt lat="44.541745" lon="8.0626463"><ele>767.1666666666666</ele><time>2026-04-11T06:49:18.179Z</time></trkpt><trkpt lat="44.5417291" lon="8.0627578"><ele>767.3333333333333</ele><time>2026-04-11T06:49:22.212Z</time></trkpt><trkpt lat="44.5417096" lon="8.0628673"><ele>767.5</ele><time>2026-04-11T06:49:26.127Z</time></trkpt><trkpt lat="44.5416853" lon="8.0629674"><ele>767.6666666666666</ele><time>2026-04-11T06:49:30.06Z</time></trkpt><trkpt lat="44.5416554" lon="8.0630607"><ele>767.8333333333334</ele><time>2026-04-11T06:49:33.144Z</time></trkpt><trkpt lat="44.5416314" lon="8.0631606"><ele>768.0</ele><time>2026-04-11T06:49:36.04Z</time></trkpt><trkpt lat="44.5415991" lon="8.0632748"><ele>769.6666666666666</ele><time>2026-04-11T06:49:39.193Z</time></trkpt><trkpt lat="44.5415542" lon="8.0633746"><ele>771.3333333333333</ele><time>2026-04-11T06:49:42.209Z</time></trkpt><trkpt lat="44.5415061" lon="8.0634479"><ele>773.0</ele><time>2026-04-11T06:49:45.225Z</time></trkpt><trkpt lat="44.5414503" lon="8.0635572"><ele>774.6666666666666</ele><time>2026-04-11T06:49:48.124Z</time></trkpt><trkpt lat="44.5414139" lon="8.0636331"><ele>776.3333333333333</ele><time>2026-04-11T06:49:50.155Z</time></trkpt><trkpt lat="44.5413758" lon="8.0637387"><ele>778.0</ele><time>2026-04-11T06:49:52.097Z</time></trkpt><trkpt lat="44.5413393" lon="8.0638414"><ele>777.9999999999999</ele><time>2026-04-11T06:49:54.105Z</time></trkpt><trkpt lat="44.5412979" lon="8.0639281"><ele>778.0</ele><time>2026-04-11T06:49:56.103Z</time></trkpt><trkpt lat="44.5412442" lon="8.0640038"><ele>778.0</ele><time>2026-04-11T06:49:58.157Z</time></trkpt><trkpt lat="44.541183" lon="8.0640973"><ele>778.0</ele><time>2026-04-11T06:50:00.206Z</time></trkpt><trkpt lat="44.5411386" lon="8.0641973"><ele>777.9999999999999</ele><time>2026-04-11T06:50:02.222Z</time></trkpt><trkpt lat="44.5410967" lon="8.0642908"><ele>778.0</ele><time>2026-04-11T06:50:04.204Z</time></trkpt><trkpt lat="44.5410529" lon="8.0643765"><ele>776.8571428571429</ele><time>2026-04-11T06:50:06.044Z</time></trkpt><trkpt lat="44.5409983" lon="8.0644664"><ele>775.7142857142857</ele><time>2026-04-11T06:50:08.124Z</time></trkpt><trkpt lat="44.5409548" lon="8.0645515"><ele>774.5714285714286</ele><time>2026-04-11T06:50:10.176Z</time></trkpt><trkpt lat="44.5409126" lon="8.0646341"><ele>773.4285714285714</ele><time>2026-04-11T06:50:12.16Z</time></trkpt><trkpt lat="44.5408708" lon="8.0647101"><ele>772.2857142857142</ele><time>2026-04-11T06:50:14.196Z</time></trkpt><trkpt lat="44.5408244" lon="8.0647864"><ele>771.1428571428571</ele><time>2026-04-11T06:50:16.185Z</time></trkpt><trkpt lat="44.5407723" lon="8.0648434"><ele>770.0</ele><time>2026-04-11T06:50:18.125Z</time></trkpt><trkpt lat="44.5406955" lon="8.0649104"><ele>770.0</ele><time>2026-04-11T06:50:21.185Z</time></trkpt><trkpt lat="44.540625" lon="8.0649388"><ele>770.0</ele><time>2026-04-11T06:50:23.178Z</time></trkpt><trkpt lat="44.540523" lon="8.0649422"><ele>770.0</ele><time>2026-04-11T06:50:25.125Z</time></trkpt><trkpt lat="44.5404078" lon="8.0649413"><ele>770.0</ele><time>2026-04-11T06:50:27.124Z</time></trkpt><trkpt lat="44.5403244" lon="8.0649263"><ele>770.0</ele><time>2026-04-11T06:50:29.125Z</time></trkpt><trkpt lat="44.5402854" lon="8.0648137"><ele>768.0</ele><time>2026-04-11T06:51:20.126Z</time></trkpt><trkpt lat="44.5402601" lon="8.0647222"><ele>766.0</ele><time>2026-04-11T06:51:22.126Z</time></trkpt><trkpt lat="44.5402366" lon="8.0646217"><ele>764.0</ele><time>2026-04-11T06:51:25.126Z</time></trkpt><trkpt lat="44.5402157" lon="8.0645355"><ele>762.0</ele><time>2026-04-11T06:51:28.126Z</time></trkpt><trkpt lat="44.5401966" lon="8.0644507"><ele>760.0</ele><time>2026-04-11T06:51:31.126Z</time></trkpt><trkpt lat="44.5401619" lon="8.0643622"><ele>758.0</ele><time>2026-04-11T06:51:34.125Z</time></trkpt><trkpt lat="44.5400876" lon="8.0643482"><ele>756.0</ele><time>2026-04-11T06:51:37.126Z</time></trkpt><trkpt lat="44.539998" lon="8.0643748"><ele>756.0</ele><time>2026-04-11T06:51:40.126Z</time></trkpt><trkpt lat="44.5399277" lon="8.0643867"><ele>756.0</ele><time>2026-04-11T06:51:42.126Z</time></trkpt><trkpt lat="44.5398531" lon="8.064383"><ele>756.0</ele><time>2026-04-11T06:51:44.126Z</time></trkpt><trkpt lat="44.5397797" lon="8.0643826"><ele>756.0</ele><time>2026-04-11T06:51:46.126Z</time></trkpt><trkpt lat="44.5397044" lon="8.0643842"><ele>756.0</ele><time>2026-04-11T06:51:48.126Z</time></trkpt><trkpt lat="44.539626" lon="8.0643796"><ele>756.0</ele><time>2026-04-11T06:51:50.126Z</time></trkpt><trkpt lat="44.539546" lon="8.0643781"><ele>755.0</ele><time>2026-04-11T06:51:52.126Z</time></trkpt><trkpt lat="44.5394621" lon="8.0643775"><ele>754.0</ele><time>2026-04-11T06:51:54.126Z</time></trkpt><trkpt lat="44.5393755" lon="8.0643958"><ele>753.0</ele><time>2026-04-11T06:51:56.126Z</time></trkpt><trkpt lat="44.5392896" lon="8.0644538"><ele>752.0</ele><time>2026-04-11T06:51:58.127Z</time></trkpt><trkpt lat="44.5392221" lon="8.0645461"><ele>751.0</ele><time>2026-04-11T06:52:00.125Z</time></trkpt><trkpt lat="44.5391685" lon="8.064663"><ele>751.0</ele><time>2026-04-11T06:52:02.126Z</time></trkpt><trkpt lat="44.5391117" lon="8.0647905"><ele>751.0</ele><time>2026-04-11T06:52:04.126Z</time></trkpt><trkpt lat="44.5390318" lon="8.0649027"><ele>751.0</ele><time>2026-04-11T06:52:06.125Z</time></trkpt><trkpt lat="44.538936" lon="8.0650113"><ele>751.0</ele><time>2026-04-11T06:52:08.127Z</time></trkpt><trkpt lat="44.5388337" lon="8.0651083"><ele>751.1428571428572</ele><time>2026-04-11T06:52:10.127Z</time></trkpt><trkpt lat="44.5387823" lon="8.0651611"><ele>751.2857142857143</ele><time>2026-04-11T06:52:11.125Z</time></trkpt><trkpt lat="44.5387313" lon="8.0652198"><ele>751.4285714285714</ele><time>2026-04-11T06:52:12.125Z</time></trkpt><trkpt lat="44.5386845" lon="8.0652831"><ele>751.5714285714287</ele><time>2026-04-11T06:52:13.127Z</time></trkpt><trkpt lat="44.5386289" lon="8.065396"><ele>751.7142857142857</ele><time>2026-04-11T06:52:15.127Z</time></trkpt><trkpt lat="44.5386069" lon="8.0654833"><ele>751.8571428571429</ele><time>2026-04-11T06:52:17.127Z</time></trkpt><trkpt lat="44.5385726" lon="8.0655584"><ele>752.0</ele><time>2026-04-11T06:52:22.127Z</time></trkpt><trkpt lat="44.538507" lon="8.0655468"><ele>752.0</ele><time>2026-04-11T06:52:24.127Z</time></trkpt><trkpt lat="44.5383836" lon="8.0654995"><ele>752.0</ele><time>2026-04-11T06:52:26.127Z</time></trkpt><trkpt lat="44.5383106" lon="8.0654724"><ele>752.0</ele><time>2026-04-11T06:52:27.127Z</time></trkpt><trkpt lat="44.5382349" lon="8.0654443"><ele>752.0</ele><time>2026-04-11T06:52:28.127Z</time></trkpt><trkpt lat="44.5381609" lon="8.065419"><ele>752.0</ele><time>2026-04-11T06:52:29.126Z</time></trkpt><trkpt lat="44.5380897" lon="8.0654064"><ele>752.0</ele><time>2026-04-11T06:52:30.127Z</time></trkpt><trkpt lat="44.5380195" lon="8.0654079"><ele>752.0</ele><time>2026-04-11T06:52:31.127Z</time></trkpt><trkpt lat="44.537951" lon="8.0654174"><ele>752.0</ele><time>2026-04-11T06:52:32.126Z</time></trkpt><trkpt lat="44.5378837" lon="8.0654273"><ele>752.0</ele><time>2026-04-11T06:52:33.127Z</time></trkpt><trkpt lat="44.5378191" lon="8.0654338"><ele>752.0</ele><time>2026-04-11T06:52:34.127Z</time></trkpt><trkpt lat="44.5377535" lon="8.0654411"><ele>752.0</ele><time>2026-04-11T06:52:35.126Z</time></trkpt><trkpt lat="44.5376868" lon="8.0654443"><ele>752.0</ele><time>2026-04-11T06:52:36.127Z</time></trkpt><trkpt lat="44.5376097" lon="8.0654263"><ele>752.0</ele><time>2026-04-11T06:52:37.127Z</time></trkpt><trkpt lat="44.5375367" lon="8.0653718"><ele>751.4285714285714</ele><time>2026-04-11T06:52:38.127Z</time></trkpt><trkpt lat="44.5374766" lon="8.0653054"><ele>750.8571428571429</ele><time>2026-04-11T06:52:39.127Z</time></trkpt><trkpt lat="44.537426" lon="8.065248"><ele>750.2857142857142</ele><time>2026-04-11T06:52:40.127Z</time></trkpt><trkpt lat="44.5373684" lon="8.0652092"><ele>749.7142857142858</ele><time>2026-04-11T06:52:41.126Z</time></trkpt><trkpt lat="44.5372991" lon="8.0651883"><ele>749.1428571428572</ele><time>2026-04-11T06:52:42.127Z</time></trkpt><trkpt lat="44.5372285" lon="8.065164"><ele>748.5714285714286</ele><time>2026-04-11T06:52:43.127Z</time></trkpt><trkpt lat="44.5371476" lon="8.0651322"><ele>748.0</ele><time>2026-04-11T06:52:44.127Z</time></trkpt><trkpt lat="44.5370704" lon="8.0650972"><ele>747.2857142857142</ele><time>2026-04-11T06:52:45.127Z</time></trkpt><trkpt lat="44.5369993" lon="8.0650664"><ele>746.5714285714287</ele><time>2026-04-11T06:52:46.127Z</time></trkpt><trkpt lat="44.5369385" lon="8.0650415"><ele>745.8571428571429</ele><time>2026-04-11T06:52:47.127Z</time></trkpt><trkpt lat="44.536876" lon="8.065026"><ele>745.1428571428571</ele><time>2026-04-11T06:52:48.127Z</time></trkpt><trkpt lat="44.5368064" lon="8.0650115"><ele>744.4285714285713</ele><time>2026-04-11T06:52:49.127Z</time></trkpt><trkpt lat="44.5367254" lon="8.0649978"><ele>743.7142857142858</ele><time>2026-04-11T06:52:50.127Z</time></trkpt><trkpt lat="44.5366411" lon="8.0649913"><ele>743.0</ele><time>2026-04-11T06:52:51.127Z</time></trkpt><trkpt lat="44.5365499" lon="8.0649922"><ele>743.0</ele><time>2026-04-11T06:52:52.126Z</time></trkpt><trkpt lat="44.5364559" lon="8.0649975"><ele>743.0</ele><time>2026-04-11T06:52:53.127Z</time></trkpt><trkpt lat="44.5363583" lon="8.0650034"><ele>743.0</ele><time>2026-04-11T06:52:54.127Z</time></trkpt><trkpt lat="44.5362543" lon="8.065008"><ele>743.0</ele><time>2026-04-11T06:52:55.127Z</time></trkpt><trkpt lat="44.5361477" lon="8.0650147"><ele>743.0</ele><time>2026-04-11T06:52:56.127Z</time></trkpt><trkpt lat="44.5360359" lon="8.0650332"><ele>740.8</ele><time>2026-04-11T06:52:57.127Z</time></trkpt><trkpt lat="44.5359217" lon="8.0650545"><ele>738.5999999999999</ele><time>2026-04-11T06:52:58.127Z</time></trkpt><trkpt lat="44.5358117" lon="8.0650769"><ele>736.4000000000001</ele><time>2026-04-11T06:52:59.127Z</time></trkpt><trkpt lat="44.5357288" lon="8.0650872"><ele>734.2</ele><time>2026-04-11T06:53:00.128Z</time></trkpt><trkpt lat="44.5356558" lon="8.0651093"><ele>732.0</ele><time>2026-04-11T06:53:02.127Z</time></trkpt><trkpt lat="44.5355903" lon="8.0651013"><ele>732.0</ele><time>2026-04-11T06:53:36.128Z</time></trkpt><trkpt lat="44.5355199" lon="8.0651005"><ele>732.0</ele><time>2026-04-11T06:53:38.127Z</time></trkpt><trkpt lat="44.535454" lon="8.0651192"><ele>732.0</ele><time>2026-04-11T06:53:40.128Z</time></trkpt><trkpt lat="44.5353821" lon="8.0651404"><ele>732.0</ele><time>2026-04-11T06:53:42.127Z</time></trkpt><trkpt lat="44.5353179" lon="8.0651449"><ele>732.0</ele><time>2026-04-11T06:53:44.128Z</time></trkpt><trkpt lat="44.5352159" lon="8.0651832"><ele>732.0</ele><time>2026-04-11T06:53:46.128Z</time></trkpt><trkpt lat="44.535119" lon="8.065258"><ele>730.8</ele><time>2026-04-11T06:53:48.127Z</time></trkpt><trkpt lat="44.5350275" lon="8.0653363"><ele>729.6</ele><time>2026-04-11T06:53:50.128Z</time></trkpt><trkpt lat="44.5349344" lon="8.0653894"><ele>728.4</ele><time>2026-04-11T06:53:52.128Z</time></trkpt><trkpt lat="44.5348221" lon="8.0654157"><ele>727.1999999999999</ele><time>2026-04-11T06:53:54.128Z</time></trkpt><trkpt lat="44.5347564" lon="8.065422"><ele>726.0</ele><time>2026-04-11T06:53:55.128Z</time></trkpt><trkpt lat="44.5346907" lon="8.0654211"><ele>726.0</ele><time>2026-04-11T06:53:56.128Z</time></trkpt><trkpt lat="44.5346164" lon="8.0654167"><ele>726.0</ele><time>2026-04-11T06:53:57.127Z</time></trkpt><trkpt lat="44.5345331" lon="8.0654103"><ele>726.0</ele><time>2026-04-11T06:53:58.128Z</time></trkpt><trkpt lat="44.5344447" lon="8.0654123"><ele>726.0</ele><time>2026-04-11T06:53:59.128Z</time></trkpt><trkpt lat="44.5343535" lon="8.0654242"><ele>726.0</ele><time>2026-04-11T06:54:00.127Z</time></trkpt><trkpt lat="44.5342623" lon="8.0654464"><ele>726.0</ele><time>2026-04-11T06:54:01.128Z</time></trkpt><trkpt lat="44.5341693" lon="8.0654544"><ele>725.1999999999999</ele><time>2026-04-11T06:54:02.128Z</time></trkpt><trkpt lat="44.5340765" lon="8.0654595"><ele>724.4</ele><time>2026-04-11T06:54:03.128Z</time></trkpt><trkpt lat="44.5339984" lon="8.0654671"><ele>723.6</ele><time>2026-04-11T06:54:04.128Z</time></trkpt><trkpt lat="44.5339304" lon="8.0654735"><ele>722.8</ele><time>2026-04-11T06:54:05.128Z</time></trkpt><trkpt lat="44.5338123" lon="8.0654469"><ele>722.0</ele><time>2026-04-11T06:54:07.128Z</time></trkpt><trkpt lat="44.5336994" lon="8.0654112"><ele>720.0</ele><time>2026-04-11T06:54:09.128Z</time></trkpt><trkpt lat="44.5336258" lon="8.0654321"><ele>718.0</ele><time>2026-04-11T06:54:10.128Z</time></trkpt><trkpt lat="44.5335532" lon="8.0654853"><ele>716.0</ele><time>2026-04-11T06:54:11.128Z</time></trkpt><trkpt lat="44.533479" lon="8.0655295"><ele>714.0</ele><time>2026-04-11T06:54:12.129Z</time></trkpt><trkpt lat="44.5333981" lon="8.0655647"><ele>712.0</ele><time>2026-04-11T06:54:13.128Z</time></trkpt><trkpt lat="44.5333098" lon="8.0655895"><ele>710.0</ele><time>2026-04-11T06:54:14.128Z</time></trkpt><trkpt lat="44.5332293" lon="8.0656069"><ele>710.0</ele><time>2026-04-11T06:54:15.128Z</time></trkpt><trkpt lat="44.5331096" lon="8.0656222"><ele>710.0</ele><time>2026-04-11T06:54:17.128Z</time></trkpt><trkpt lat="44.5329944" lon="8.0656113"><ele>710.0</ele><time>2026-04-11T06:54:19.128Z</time></trkpt><trkpt lat="44.5328769" lon="8.0656027"><ele>710.0</ele><time>2026-04-11T06:54:21.128Z</time></trkpt><trkpt lat="44.5327755" lon="8.0656031"><ele>709.8333333333333</ele><time>2026-04-11T06:54:23.128Z</time></trkpt><trkpt lat="44.5326835" lon="8.0656035"><ele>709.6666666666666</ele><time>2026-04-11T06:54:25.128Z</time></trkpt><trkpt lat="44.5325997" lon="8.065616"><ele>709.5</ele><time>2026-04-11T06:54:27.128Z</time></trkpt><trkpt lat="44.5325332" lon="8.0656372"><ele>709.3333333333334</ele><time>2026-04-11T06:54:29.128Z</time></trkpt><trkpt lat="44.5324591" lon="8.0656617"><ele>709.1666666666667</ele><time>2026-04-11T06:54:31.128Z</time></trkpt><trkpt lat="44.5323836" lon="8.0656954"><ele>709.0</ele><time>2026-04-11T06:54:33.129Z</time></trkpt><trkpt lat="44.5323153" lon="8.0657479"><ele>708.6666666666667</ele><time>2026-04-11T06:54:35.129Z</time></trkpt><trkpt lat="44.5322269" lon="8.0658209"><ele>708.3333333333334</ele><time>2026-04-11T06:55:16.129Z</time></trkpt><trkpt lat="44.5321658" lon="8.0658528"><ele>708.0</ele><time>2026-04-11T06:55:18.129Z</time></trkpt><trkpt lat="44.532078" lon="8.0658916"><ele>707.6666666666666</ele><time>2026-04-11T06:55:21.129Z</time></trkpt><trkpt lat="44.532011" lon="8.0659337"><ele>707.3333333333333</ele><time>2026-04-11T06:55:24.129Z</time></trkpt><trkpt lat="44.5319299" lon="8.0659611"><ele>707.0</ele><time>2026-04-11T06:55:27.129Z</time></trkpt><trkpt lat="44.5318355" lon="8.0660103"><ele>708.0</ele><time>2026-04-11T06:55:30.129Z</time></trkpt><trkpt lat="44.5317735" lon="8.066056"><ele>709.0</ele><time>2026-04-11T06:55:32.128Z</time></trkpt><trkpt lat="44.5317046" lon="8.0661179"><ele>710.0</ele><time>2026-04-11T06:55:35.129Z</time></trkpt><trkpt lat="44.531647" lon="8.0661616"><ele>711.0</ele><time>2026-04-11T06:55:39.151Z</time></trkpt><trkpt lat="44.5315873" lon="8.0662198"><ele>712.0</ele><time>2026-04-11T06:55:42.151Z</time></trkpt><trkpt lat="44.5315449" lon="8.0662874"><ele>713.0</ele><time>2026-04-11T06:55:48.201Z</time></trkpt><trkpt lat="44.5315676" lon="8.0663707"><ele>714.0</ele><time>2026-04-11T06:56:21.133Z</time></trkpt><trkpt lat="44.5314903" lon="8.0664103"><ele>714.0</ele><time>2026-04-11T06:56:25.218Z</time></trkpt><trkpt lat="44.531411" lon="8.0664295"><ele>714.0</ele><time>2026-04-11T06:56:29.218Z</time></trkpt><trkpt lat="44.5313332" lon="8.0664682"><ele>714.0</ele><time>2026-04-11T06:56:33.151Z</time></trkpt><trkpt lat="44.5312606" lon="8.0664997"><ele>714.0</ele><time>2026-04-11T06:56:36.184Z</time></trkpt><trkpt lat="44.5311939" lon="8.066531"><ele>714.0</ele><time>2026-04-11T06:56:39.148Z</time></trkpt><trkpt lat="44.5311135" lon="8.0665594"><ele>714.0</ele><time>2026-04-11T06:56:43.605Z</time></trkpt><trkpt lat="44.5310307" lon="8.0665854"><ele>714.1666666666666</ele><time>2026-04-11T06:56:47.149Z</time></trkpt><trkpt lat="44.530969" lon="8.0666065"><ele>714.3333333333334</ele><time>2026-04-11T06:56:49.131Z</time></trkpt><trkpt lat="44.5308804" lon="8.0666562"><ele>714.5</ele><time>2026-04-11T06:56:51.088Z</time></trkpt><trkpt lat="44.5307815" lon="8.0667023"><ele>714.6666666666667</ele><time>2026-04-11T06:56:53.23Z</time></trkpt><trkpt lat="44.5307084" lon="8.0667394"><ele>714.8333333333334</ele><time>2026-04-11T06:56:54.131Z</time></trkpt><trkpt lat="44.5306094" lon="8.0668008"><ele>715.0</ele><time>2026-04-11T06:56:55.13Z</time></trkpt><trkpt lat="44.5305163" lon="8.0668691"><ele>713.6666666666667</ele><time>2026-04-11T06:56:57.131Z</time></trkpt><trkpt lat="44.5304289" lon="8.0669498"><ele>712.3333333333334</ele><time>2026-04-11T06:56:59.131Z</time></trkpt><trkpt lat="44.5303666" lon="8.06701"><ele>711.0</ele><time>2026-04-11T06:57:01.13Z</time></trkpt><trkpt lat="44.5303096" lon="8.0670757"><ele>709.6666666666666</ele><time>2026-04-11T06:57:03.131Z</time></trkpt><trkpt lat="44.5302755" lon="8.0671669"><ele>708.3333333333333</ele><time>2026-04-11T06:57:05.131Z</time></trkpt><trkpt lat="44.5302137" lon="8.0672505"><ele>707.0</ele><time>2026-04-11T06:57:08.131Z</time></trkpt><trkpt lat="44.5301454" lon="8.0673314"><ele>705.7142857142857</ele><time>2026-04-11T06:57:11.131Z</time></trkpt><trkpt lat="44.5301074" lon="8.0674205"><ele>704.4285714285714</ele><time>2026-04-11T06:57:15.131Z</time></trkpt><trkpt lat="44.530063" lon="8.0674833"><ele>703.1428571428571</ele><time>2026-04-11T06:57:20.131Z</time></trkpt><trkpt lat="44.5300015" lon="8.0675369"><ele>701.8571428571429</ele><time>2026-04-11T06:57:25.131Z</time></trkpt><trkpt lat="44.5299287" lon="8.0675748"><ele>700.5714285714286</ele><time>2026-04-11T06:57:29.131Z</time></trkpt><trkpt lat="44.529857" lon="8.0676039"><ele>699.2857142857142</ele><time>2026-04-11T06:57:32.13Z</time></trkpt><trkpt lat="44.5297913" lon="8.0676478"><ele>698.0</ele><time>2026-04-11T06:57:35.131Z</time></trkpt><trkpt lat="44.5297305" lon="8.0676748"><ele>696.3333333333333</ele><time>2026-04-11T06:57:37.131Z</time></trkpt><trkpt lat="44.5296541" lon="8.0677039"><ele>694.6666666666666</ele><time>2026-04-11T06:57:40.132Z</time></trkpt><trkpt lat="44.5295735" lon="8.0677075"><ele>693.0</ele><time>2026-04-11T06:57:43.131Z</time></trkpt><trkpt lat="44.5295074" lon="8.0677002"><ele>691.3333333333334</ele><time>2026-04-11T06:57:46.131Z</time></trkpt><trkpt lat="44.5294608" lon="8.0676079"><ele>689.6666666666667</ele><time>2026-04-11T06:57:54.132Z</time></trkpt><trkpt lat="44.5294516" lon="8.0674945"><ele>688.0</ele><time>2026-04-11T06:57:56.132Z</time></trkpt><trkpt lat="44.5294401" lon="8.0673901"><ele>684.1666666666667</ele><time>2026-04-11T06:57:58.132Z</time></trkpt><trkpt lat="44.5294195" lon="8.0673016"><ele>680.3333333333334</ele><time>2026-04-11T06:58:01.132Z</time></trkpt><trkpt lat="44.5294017" lon="8.0672129"><ele>676.5</ele><time>2026-04-11T06:58:03.131Z</time></trkpt><trkpt lat="44.5293877" lon="8.0670896"><ele>672.6666666666666</ele><time>2026-04-11T06:58:06.132Z</time></trkpt><trkpt lat="44.5293872" lon="8.0669985"><ele>668.8333333333333</ele><time>2026-04-11T06:58:08.131Z</time></trkpt><trkpt lat="44.529376" lon="8.0668738"><ele>665.0</ele><time>2026-04-11T06:58:11.132Z</time></trkpt><trkpt lat="44.5293736" lon="8.0667618"><ele>665.0</ele><time>2026-04-11T06:58:14.132Z</time></trkpt><trkpt lat="44.5293626" lon="8.0666582"><ele>665.0</ele><time>2026-04-11T06:58:16.131Z</time></trkpt><trkpt lat="44.5293615" lon="8.0665429"><ele>665.0</ele><time>2026-04-11T06:58:18.132Z</time></trkpt><trkpt lat="44.5293865" lon="8.0664436"><ele>665.0</ele><time>2026-04-11T06:58:21.132Z</time></trkpt><trkpt lat="44.5294338" lon="8.0663804"><ele>665.0</ele><time>2026-04-11T06:58:30.132Z</time></trkpt><trkpt lat="44.5294781" lon="8.066314"><ele>665.0</ele><time>2026-04-11T06:58:33.132Z</time></trkpt><trkpt lat="44.5295382" lon="8.0662337"><ele>665.0</ele><time>2026-04-11T06:58:35.132Z</time></trkpt><trkpt lat="44.5296015" lon="8.0661602"><ele>664.6666666666666</ele><time>2026-04-11T06:58:37.132Z</time></trkpt><trkpt lat="44.5296814" lon="8.0660827"><ele>664.3333333333333</ele><time>2026-04-11T06:58:39.132Z</time></trkpt><trkpt lat="44.5297397" lon="8.0659871"><ele>664.0</ele><time>2026-04-11T06:58:41.132Z</time></trkpt><trkpt lat="44.5297775" lon="8.0659026"><ele>663.6666666666666</ele><time>2026-04-11T06:58:43.133Z</time></trkpt><trkpt lat="44.5298227" lon="8.0658401"><ele>663.3333333333334</ele><time>2026-04-11T06:58:45.133Z</time></trkpt><trkpt lat="44.5298783" lon="8.0657702"><ele>663.0</ele><time>2026-04-11T06:58:47.133Z</time></trkpt><trkpt lat="44.5299287" lon="8.0656985"><ele>663.0</ele><time>2026-04-11T06:58:49.132Z</time></trkpt><trkpt lat="44.5299788" lon="8.065622"><ele>663.0</ele><time>2026-04-11T06:58:51.133Z</time></trkpt><trkpt lat="44.5300158" lon="8.0655372"><ele>663.0</ele><time>2026-04-11T06:58:53.132Z</time></trkpt><trkpt lat="44.530037" lon="8.0654116"><ele>663.0</ele><time>2026-04-11T06:58:55.132Z</time></trkpt><trkpt lat="44.5300327" lon="8.0652914"><ele>663.0</ele><time>2026-04-11T06:58:57.132Z</time></trkpt><trkpt lat="44.5300445" lon="8.0651829"><ele>663.0</ele><time>2026-04-11T06:59:00.133Z</time></trkpt><trkpt lat="44.530079" lon="8.0650963"><ele>663.0</ele><time>2026-04-11T06:59:02.132Z</time></trkpt><trkpt lat="44.5301397" lon="8.0650099"><ele>663.0</ele><time>2026-04-11T06:59:04.132Z</time></trkpt><trkpt lat="44.5302147" lon="8.0649352"><ele>663.0</ele><time>2026-04-11T06:59:06.133Z</time></trkpt><trkpt lat="44.5302745" lon="8.0648675"><ele>663.0</ele><time>2026-04-11T06:59:08.133Z</time></trkpt><trkpt lat="44.5303138" lon="8.0647767"><ele>663.0</ele><time>2026-04-11T06:59:10.133Z</time></trkpt><trkpt lat="44.5303458" lon="8.0646925"><ele>663.0</ele><time>2026-04-11T06:59:12.133Z</time></trkpt><trkpt lat="44.5303764" lon="8.0645712"><ele>663.8333333333334</ele><time>2026-04-11T06:59:15.133Z</time></trkpt><trkpt lat="44.5304281" lon="8.064451"><ele>664.6666666666666</ele><time>2026-04-11T06:59:17.133Z</time></trkpt><trkpt lat="44.5304581" lon="8.0643222"><ele>665.5</ele><time>2026-04-11T06:59:19.133Z</time></trkpt><trkpt lat="44.5304802" lon="8.0642146"><ele>666.3333333333333</ele><time>2026-04-11T06:59:21.133Z</time></trkpt><trkpt lat="44.5305162" lon="8.0641121"><ele>667.1666666666666</ele><time>2026-04-11T06:59:23.133Z</time></trkpt><trkpt lat="44.5305721" lon="8.0640188"><ele>668.0</ele><time>2026-04-11T06:59:25.133Z</time></trkpt><trkpt lat="44.5306167" lon="8.0639287"><ele>668.0</ele><time>2026-04-11T06:59:27.133Z</time></trkpt><trkpt lat="44.530656" lon="8.0638208"><ele>668.0</ele><time>2026-04-11T06:59:29.133Z</time></trkpt><trkpt lat="44.5306906" lon="8.0637056"><ele>668.0</ele><time>2026-04-11T06:59:31.133Z</time></trkpt><trkpt lat="44.5307305" lon="8.0636001"><ele>668.0</ele><time>2026-04-11T06:59:33.133Z</time></trkpt><trkpt lat="44.5307834" lon="8.0634934"><ele>668.0</ele><time>2026-04-11T06:59:35.133Z</time></trkpt><trkpt lat="44.5308288" lon="8.0633878"><ele>668.0</ele><time>2026-04-11T06:59:37.133Z</time></trkpt><trkpt lat="44.5308647" lon="8.0633087"><ele>666.8571428571429</ele><time>2026-04-11T06:59:39.133Z</time></trkpt><trkpt lat="44.5309149" lon="8.063211"><ele>665.7142857142858</ele><time>2026-04-11T06:59:42.133Z</time></trkpt><trkpt lat="44.5309697" lon="8.0631412"><ele>664.5714285714287</ele><time>2026-04-11T06:59:46.133Z</time></trkpt><trkpt lat="44.5310254" lon="8.06307"><ele>663.4285714285714</ele><time>2026-04-11T06:59:53.133Z</time></trkpt><trkpt lat="44.531072" lon="8.0630034"><ele>662.2857142857143</ele><time>2026-04-11T06:59:56.134Z</time></trkpt><trkpt lat="44.5311225" lon="8.0629352"><ele>661.1428571428572</ele><time>2026-04-11T07:00:00.133Z</time></trkpt><trkpt lat="44.5311702" lon="8.0628769"><ele>660.0</ele><time>2026-04-11T07:00:05.133Z</time></trkpt><trkpt lat="44.5312262" lon="8.0628262"><ele>660.0</ele><time>2026-04-11T07:00:10.134Z</time></trkpt><trkpt lat="44.5312888" lon="8.0627684"><ele>660.0</ele><time>2026-04-11T07:00:13.134Z</time></trkpt><trkpt lat="44.5313619" lon="8.0627475"><ele>660.0</ele><time>2026-04-11T07:00:16.133Z</time></trkpt><trkpt lat="44.5314117" lon="8.0626747"><ele>660.0</ele><time>2026-04-11T07:00:59.134Z</time></trkpt><trkpt lat="44.5314666" lon="8.0625981"><ele>660.0</ele><time>2026-04-11T07:01:04.133Z</time></trkpt><trkpt lat="44.5315369" lon="8.0625363"><ele>660.0</ele><time>2026-04-11T07:01:09.134Z</time></trkpt><trkpt lat="44.5316204" lon="8.0624907"><ele>660.0</ele><time>2026-04-11T07:01:13.204Z</time></trkpt><trkpt lat="44.5316884" lon="8.0624818"><ele>660.0</ele><time>2026-04-11T07:01:15.138Z</time></trkpt><trkpt lat="44.5317543" lon="8.0624796"><ele>660.0</ele><time>2026-04-11T07:01:17.17Z</time></trkpt><trkpt lat="44.5318191" lon="8.0624837"><ele>660.0</ele><time>2026-04-11T07:01:19.221Z</time></trkpt><trkpt lat="44.5318913" lon="8.062463"><ele>660.0</ele><time>2026-04-11T07:01:22.056Z</time></trkpt><trkpt lat="44.5319798" lon="8.0624332"><ele>660.0</ele><time>2026-04-11T07:01:23.135Z</time></trkpt><trkpt lat="44.5320571" lon="8.0623765"><ele>656.8333333333334</ele><time>2026-04-11T07:01:26.135Z</time></trkpt><trkpt lat="44.5321145" lon="8.0623103"><ele>653.6666666666666</ele><time>2026-04-11T07:01:28.135Z</time></trkpt><trkpt lat="44.532202" lon="8.0622252"><ele>650.5</ele><time>2026-04-11T07:01:30.135Z</time></trkpt><trkpt lat="44.5322799" lon="8.0621633"><ele>647.3333333333333</ele><time>2026-04-11T07:01:32.135Z</time></trkpt><trkpt lat="44.5323706" lon="8.0621191"><ele>644.1666666666666</ele><time>2026-04-11T07:01:35.134Z</time></trkpt><trkpt lat="44.5324436" lon="8.0620669"><ele>641.0</ele><time>2026-04-11T07:01:37.134Z</time></trkpt><trkpt lat="44.5325239" lon="8.0620513"><ele>641.0</ele><time>2026-04-11T07:01:39.135Z</time></trkpt><trkpt lat="44.5325857" lon="8.0620741"><ele>641.0</ele><time>2026-04-11T07:01:41.135Z</time></trkpt><trkpt lat="44.5326429" lon="8.0620246"><ele>641.0</ele><time>2026-04-11T07:01:54.135Z</time></trkpt><trkpt lat="44.5327176" lon="8.0620096"><ele>641.0</ele><time>2026-04-11T07:02:01.135Z</time></trkpt><trkpt lat="44.5327909" lon="8.0619804"><ele>641.0</ele><time>2026-04-11T07:02:06.134Z</time></trkpt><trkpt lat="44.5328287" lon="8.0618815"><ele>641.0</ele><time>2026-04-11T07:02:09.135Z</time></trkpt><trkpt lat="44.5328837" lon="8.061791"><ele>641.0</ele><time>2026-04-11T07:02:12.135Z</time></trkpt><trkpt lat="44.532946" lon="8.0617508"><ele>642.6666666666666</ele><time>2026-04-11T07:02:15.135Z</time></trkpt><trkpt lat="44.533016" lon="8.061769"><ele>644.3333333333333</ele><time>2026-04-11T07:02:19.135Z</time></trkpt><trkpt lat="44.5330907" lon="8.0617571"><ele>646.0</ele><time>2026-04-11T07:02:22.135Z</time></trkpt><trkpt lat="44.5331751" lon="8.0617068"><ele>647.6666666666666</ele><time>2026-04-11T07:02:25.136Z</time></trkpt><trkpt lat="44.5332492" lon="8.0617311"><ele>649.3333333333334</ele><time>2026-04-11T07:02:29.136Z</time></trkpt><trkpt lat="44.533303" lon="8.061667"><ele>651.0</ele><time>2026-04-11T07:02:50.136Z</time></trkpt><trkpt lat="44.5333713" lon="8.0616314"><ele>651.0</ele><time>2026-04-11T07:02:58.135Z</time></trkpt><trkpt lat="44.5334369" lon="8.0616348"><ele>651.0</ele><time>2026-04-11T07:03:05.135Z</time></trkpt><trkpt lat="44.5335016" lon="8.061668"><ele>651.0</ele><time>2026-04-11T07:03:15.136Z</time></trkpt><trkpt lat="44.5335696" lon="8.0616526"><ele>651.0</ele><time>2026-04-11T07:03:21.136Z</time></trkpt><trkpt lat="44.5336331" lon="8.0616304"><ele>651.0</ele><time>2026-04-11T07:03:33.137Z</time></trkpt><trkpt lat="44.5336944" lon="8.0615634"><ele>651.0</ele><time>2026-04-11T07:03:36.137Z</time></trkpt><trkpt lat="44.5337333" lon="8.0614536"><ele>651.0</ele><time>2026-04-11T07:03:39.137Z</time></trkpt><trkpt lat="44.5338014" lon="8.0614071"><ele>649.6666666666666</ele><time>2026-04-11T07:03:47.136Z</time></trkpt><trkpt lat="44.5338769" lon="8.061379"><ele>648.3333333333334</ele><time>2026-04-11T07:03:52.137Z</time></trkpt><trkpt lat="44.5339424" lon="8.0613666"><ele>647.0</ele><time>2026-04-11T07:03:57.137Z</time></trkpt><trkpt lat="44.5340598" lon="8.0613771"><ele>645.6666666666667</ele><time>2026-04-11T07:04:53.137Z</time></trkpt><trkpt lat="44.5341228" lon="8.0613351"><ele>644.3333333333334</ele><time>2026-04-11T07:04:59.138Z</time></trkpt><trkpt lat="44.5341979" lon="8.0613046"><ele>643.0</ele><time>2026-04-11T07:05:05.138Z</time></trkpt><trkpt lat="44.5342939" lon="8.0612837"><ele>643.0</ele><time>2026-04-11T07:05:17.138Z</time></trkpt><trkpt lat="44.5343618" lon="8.0612962"><ele>643.0</ele><time>2026-04-11T07:05:21.138Z</time></trkpt><trkpt lat="44.5344458" lon="8.0612853"><ele>643.0</ele><time>2026-04-11T07:05:51.138Z</time></trkpt><trkpt lat="44.5345128" lon="8.0612438"><ele>643.0</ele><time>2026-04-11T07:06:47.139Z</time></trkpt><trkpt lat="44.5345782" lon="8.0612598"><ele>643.0</ele><time>2026-04-11T07:06:58.139Z</time></trkpt><trkpt lat="44.5346457" lon="8.0612425"><ele>643.0</ele><time>2026-04-11T07:07:04.139Z</time></trkpt><trkpt lat="44.5347163" lon="8.0611819"><ele>643.0</ele><time>2026-04-11T07:07:07.139Z</time></trkpt><trkpt lat="44.5347845" lon="8.0611832"><ele>645.0</ele><time>2026-04-11T07:07:11.14Z</time></trkpt><trkpt lat="44.534847" lon="8.0611403"><ele>647.0</ele><time>2026-04-11T07:07:14.14Z</time></trkpt><trkpt lat="44.5349263" lon="8.0611368"><ele>649.0</ele><time>2026-04-11T07:07:17.14Z</time></trkpt><trkpt lat="44.5349878" lon="8.0611757"><ele>651.0</ele><time>2026-04-11T07:07:20.14Z</time></trkpt><trkpt lat="44.5350399" lon="8.0610836"><ele>653.0</ele><time>2026-04-11T07:07:24.14Z</time></trkpt><trkpt lat="44.5350683" lon="8.0609927"><ele>655.0</ele><time>2026-04-11T07:07:28.139Z</time></trkpt><trkpt lat="44.5351182" lon="8.0608925"><ele>655.0</ele><time>2026-04-11T07:07:31.14Z</time></trkpt><trkpt lat="44.5351493" lon="8.0608153"><ele>655.0</ele><time>2026-04-11T07:07:33.14Z</time></trkpt><trkpt lat="44.535187" lon="8.0607081"><ele>655.0</ele><time>2026-04-11T07:07:36.14Z</time></trkpt><trkpt lat="44.5352771" lon="8.0606472"><ele>655.0</ele><time>2026-04-11T07:07:39.14Z</time></trkpt><trkpt lat="44.5353495" lon="8.0606208"><ele>655.0</ele><time>2026-04-11T07:07:41.14Z</time></trkpt><trkpt lat="44.5354114" lon="8.0605748"><ele>655.0</ele><time>2026-04-11T07:07:46.14Z</time></trkpt><trkpt lat="44.5354779" lon="8.060531"><ele>653.8</ele><time>2026-04-11T07:07:49.14Z</time></trkpt><trkpt lat="44.5356027" lon="8.0604221"><ele>652.6</ele><time>2026-04-11T07:08:13.14Z</time></trkpt><trkpt lat="44.5357075" lon="8.0603686"><ele>651.4000000000001</ele><time>2026-04-11T07:08:28.141Z</time></trkpt><trkpt lat="44.5357707" lon="8.0603653"><ele>650.2</ele><time>2026-04-11T07:08:33.141Z</time></trkpt><trkpt lat="44.5358424" lon="8.0604063"><ele>649.0</ele><time>2026-04-11T07:08:47.141Z</time></trkpt><trkpt lat="44.535918" lon="8.0604189"><ele>648.9999999999999</ele><time>2026-04-11T07:08:51.141Z</time></trkpt><trkpt lat="44.5359903" lon="8.0603859"><ele>649.0</ele><time>2026-04-11T07:08:56.141Z</time></trkpt><trkpt lat="44.5360057" lon="8.0602943"><ele>649.0</ele><time>2026-04-11T07:09:05.141Z</time></trkpt><trkpt lat="44.5359384" lon="8.0602832"><ele>649.0</ele><time>2026-04-11T07:09:11.142Z</time></trkpt><trkpt lat="44.5358839" lon="8.0602148"><ele>649.0</ele><time>2026-04-11T07:09:20.141Z</time></trkpt><trkpt lat="44.5358347" lon="8.0601031"><ele>648.9999999999999</ele><time>2026-04-11T07:09:37.142Z</time></trkpt><trkpt lat="44.5358702" lon="8.0600256"><ele>649.0</ele><time>2026-04-11T07:09:43.142Z</time></trkpt><trkpt lat="44.5359383" lon="8.0599546"><ele>651.0</ele><time>2026-04-11T07:09:46.142Z</time></trkpt><trkpt lat="44.5359981" lon="8.0598832"><ele>653.0</ele><time>2026-04-11T07:09:50.141Z</time></trkpt><trkpt lat="44.5360495" lon="8.059831"><ele>655.0</ele><time>2026-04-11T07:09:54.141Z</time></trkpt><trkpt lat="44.5361043" lon="8.0597461"><ele>657.0</ele><time>2026-04-11T07:10:53.174Z</time></trkpt><trkpt lat="44.5361725" lon="8.0596723"><ele>659.0</ele><time>2026-04-11T07:10:56.173Z</time></trkpt><trkpt lat="44.5362241" lon="8.0595662"><ele>661.0</ele><time>2026-04-11T07:10:58.174Z</time></trkpt><trkpt lat="44.5362497" lon="8.0594792"><ele>661.0</ele><time>2026-04-11T07:11:02.195Z</time></trkpt><trkpt lat="44.5363034" lon="8.0593983"><ele>661.0</ele><time>2026-04-11T07:11:33.206Z</time></trkpt><trkpt lat="44.5363575" lon="8.0593384"><ele>661.0</ele><time>2026-04-11T07:12:29.173Z</time></trkpt><trkpt lat="44.5362927" lon="8.0593505"><ele>661.0</ele><time>2026-04-11T07:12:52.144Z</time></trkpt><trkpt lat="44.5362203" lon="8.0593317"><ele>661.0</ele><time>2026-04-11T07:13:13.145Z</time></trkpt><trkpt lat="44.5361585" lon="8.0593755"><ele>661.0</ele><time>2026-04-11T07:13:16.145Z</time></trkpt><trkpt lat="44.5360561" lon="8.0593776"><ele>661.0</ele><time>2026-04-11T07:13:27.145Z</time></trkpt><trkpt lat="44.5360237" lon="8.059289"><ele>661.0</ele><time>2026-04-11T07:13:36.145Z</time></trkpt><trkpt lat="44.5359715" lon="8.0592322"><ele>661.0</ele><time>2026-04-11T07:13:47.145Z</time></trkpt><trkpt lat="44.5358893" lon="8.0591824"><ele>661.0</ele><time>2026-04-11T07:14:00.145Z</time></trkpt><trkpt lat="44.5358466" lon="8.0591121"><ele>661.0</ele><time>2026-04-11T07:14:10.146Z</time></trkpt><trkpt lat="44.535781" lon="8.0590835"><ele>661.0</ele><time>2026-04-11T07:14:27.146Z</time></trkpt><trkpt lat="44.5357033" lon="8.0590045"><ele>661.1666666666667</ele><time>2026-04-11T07:14:48.146Z</time></trkpt><trkpt lat="44.5356501" lon="8.0589332"><ele>661.3333333333334</ele><time>2026-04-11T07:14:54.146Z</time></trkpt><trkpt lat="44.5355773" lon="8.0589373"><ele>661.5</ele><time>2026-04-11T07:15:29.147Z</time></trkpt><trkpt lat="44.5354914" lon="8.0589569"><ele>661.6666666666666</ele><time>2026-04-11T07:15:33.147Z</time></trkpt><trkpt lat="44.5354351" lon="8.0589994"><ele>661.8333333333333</ele><time>2026-04-11T07:15:36.147Z</time></trkpt><trkpt lat="44.5353623" lon="8.0590702"><ele>662.0</ele><time>2026-04-11T07:15:39.147Z</time></trkpt><trkpt lat="44.5352825" lon="8.0591343"><ele>662.0</ele><time>2026-04-11T07:15:41.147Z</time></trkpt><trkpt lat="44.5352246" lon="8.0591861"><ele>662.0</ele><time>2026-04-11T07:15:43.147Z</time></trkpt><trkpt lat="44.535165" lon="8.0592362"><ele>662.0</ele><time>2026-04-11T07:15:46.147Z</time></trkpt><trkpt lat="44.5350731" lon="8.0592745"><ele>662.0</ele><time>2026-04-11T07:15:49.147Z</time></trkpt><trkpt lat="44.5350111" lon="8.0592957"><ele>662.0</ele><time>2026-04-11T07:15:51.147Z</time></trkpt><trkpt lat="44.5349338" lon="8.0593147"><ele>662.0</ele><time>2026-04-11T07:15:53.147Z</time></trkpt><trkpt lat="44.5348716" lon="8.0593382"><ele>662.0</ele><time>2026-04-11T07:15:56.146Z</time></trkpt><trkpt lat="44.5347975" lon="8.0593581"><ele>662.0</ele><time>2026-04-11T07:16:02.147Z</time></trkpt><trkpt lat="44.5347029" lon="8.0594132"><ele>662.0</ele><time>2026-04-11T07:16:04.147Z</time></trkpt><trkpt lat="44.534643" lon="8.0594413"><ele>662.0</ele><time>2026-04-11T07:16:05.146Z</time></trkpt><trkpt lat="44.5345543" lon="8.0594812"><ele>662.0</ele><time>2026-04-11T07:16:07.146Z</time></trkpt><trkpt lat="44.5344842" lon="8.0595098"><ele>662.0</ele><time>2026-04-11T07:16:09.148Z</time></trkpt><trkpt lat="44.5343855" lon="8.0595151"><ele>662.0</ele><time>2026-04-11T07:16:11.148Z</time></trkpt><trkpt lat="44.5343" lon="8.0595056"><ele>663.0</ele><time>2026-04-11T07:16:13.148Z</time></trkpt><trkpt lat="44.5342271" lon="8.0595334"><ele>664.0</ele><time>2026-04-11T07:16:23.148Z</time></trkpt><trkpt lat="44.5341554" lon="8.0595587"><ele>665.0</ele><time>2026-04-11T07:16:30.148Z</time></trkpt><trkpt lat="44.5340804" lon="8.0595525"><ele>666.0</ele><time>2026-04-11T07:16:37.148Z</time></trkpt><trkpt lat="44.5340124" lon="8.0595167"><ele>667.0</ele><time>2026-04-11T07:16:53.148Z</time></trkpt><trkpt lat="44.533951" lon="8.0594828"><ele>668.0</ele><time>2026-04-11T07:16:58.147Z</time></trkpt><trkpt lat="44.5338807" lon="8.0595117"><ele>669.0</ele><time>2026-04-11T07:17:01.148Z</time></trkpt><trkpt lat="44.5338045" lon="8.059551"><ele>669.0</ele><time>2026-04-11T07:17:05.148Z</time></trkpt><trkpt lat="44.5337337" lon="8.059549"><ele>669.0</ele><time>2026-04-11T07:17:08.149Z</time></trkpt><trkpt lat="44.5336679" lon="8.059518"><ele>669.0</ele><time>2026-04-11T07:17:11.148Z</time></trkpt><trkpt lat="44.5335928" lon="8.0594779"><ele>669.0</ele><time>2026-04-11T07:17:14.149Z</time></trkpt><trkpt lat="44.5335305" lon="8.0595032"><ele>669.0</ele><time>2026-04-11T07:17:17.147Z</time></trkpt><trkpt lat="44.5334649" lon="8.0595071"><ele>669.0</ele><time>2026-04-11T07:17:20.149Z</time></trkpt><trkpt lat="44.5333819" lon="8.0594685"><ele>669.0</ele><time>2026-04-11T07:17:32.149Z</time></trkpt><trkpt lat="44.5333036" lon="8.0594321"><ele>669.1428571428571</ele><time>2026-04-11T07:17:52.149Z</time></trkpt><trkpt lat="44.5332305" lon="8.0594062"><ele>669.2857142857142</ele><time>2026-04-11T07:18:00.149Z</time></trkpt><trkpt lat="44.5331674" lon="8.0594107"><ele>669.4285714285713</ele><time>2026-04-11T07:18:07.15Z</time></trkpt><trkpt lat="44.533101" lon="8.0593938"><ele>669.5714285714286</ele><time>2026-04-11T07:18:20.15Z</time></trkpt><trkpt lat="44.5330326" lon="8.059357"><ele>669.7142857142857</ele><time>2026-04-11T07:18:24.15Z</time></trkpt><trkpt lat="44.5329652" lon="8.0593302"><ele>669.8571428571428</ele><time>2026-04-11T07:18:28.15Z</time></trkpt><trkpt lat="44.5328892" lon="8.0593709"><ele>670.0</ele><time>2026-04-11T07:18:31.15Z</time></trkpt><trkpt lat="44.532826" lon="8.0593693"><ele>669.3333333333334</ele><time>2026-04-11T07:18:45.15Z</time></trkpt><trkpt lat="44.5327408" lon="8.0593597"><ele>668.6666666666667</ele><time>2026-04-11T07:18:48.15Z</time></trkpt><trkpt lat="44.5326738" lon="8.0593267"><ele>668.0</ele><time>2026-04-11T07:18:51.15Z</time></trkpt><trkpt lat="44.5325849" lon="8.0593129"><ele>667.3333333333334</ele><time>2026-04-11T07:18:56.149Z</time></trkpt><trkpt lat="44.5325091" lon="8.0593198"><ele>666.6666666666666</ele><time>2026-04-11T07:19:00.15Z</time></trkpt><trkpt lat="44.5324493" lon="8.0592879"><ele>666.0</ele><time>2026-04-11T07:19:03.15Z</time></trkpt><trkpt lat="44.532379" lon="8.0592263"><ele>666.0</ele><time>2026-04-11T07:19:07.15Z</time></trkpt><trkpt lat="44.5323149" lon="8.0592126"><ele>666.0</ele><time>2026-04-11T07:19:10.15Z</time></trkpt><trkpt lat="44.5322376" lon="8.0591907"><ele>666.0</ele><time>2026-04-11T07:19:14.151Z</time></trkpt><trkpt lat="44.532156" lon="8.0591382"><ele>666.0</ele><time>2026-04-11T07:19:17.15Z</time></trkpt><trkpt lat="44.5320663" lon="8.0591136"><ele>666.0</ele><time>2026-04-11T07:19:20.15Z</time></trkpt><trkpt lat="44.5319883" lon="8.05908"><ele>666.0</ele><time>2026-04-11T07:19:23.15Z</time></trkpt><trkpt lat="44.5319293" lon="8.0590383"><ele>664.3333333333334</ele><time>2026-04-11T07:19:26.151Z</time></trkpt><trkpt lat="44.5318655" lon="8.0589852"><ele>662.6666666666666</ele><time>2026-04-11T07:19:29.151Z</time></trkpt><trkpt lat="44.5318054" lon="8.0589345"><ele>661.0</ele><time>2026-04-11T07:19:31.151Z</time></trkpt><trkpt lat="44.5317293" lon="8.0588892"><ele>659.3333333333333</ele><time>2026-04-11T07:19:34.151Z</time></trkpt><trkpt lat="44.5316584" lon="8.0588272"><ele>657.6666666666666</ele><time>2026-04-11T07:19:37.151Z</time></trkpt><trkpt lat="44.53164" lon="8.058733"><ele>656.0</ele><time>2026-04-11T07:19:40.15Z</time></trkpt><trkpt lat="44.5316473" lon="8.0586201"><ele>656.0</ele><time>2026-04-11T07:19:42.151Z</time></trkpt><trkpt lat="44.53166" lon="8.0584958"><ele>656.0</ele><time>2026-04-11T07:19:44.15Z</time></trkpt><trkpt lat="44.5316444" lon="8.0584001"><ele>656.0</ele><time>2026-04-11T07:19:46.151Z</time></trkpt><trkpt lat="44.5316018" lon="8.0582602"><ele>656.0</ele><time>2026-04-11T07:19:49.15Z</time></trkpt><trkpt lat="44.5315863" lon="8.0581401"><ele>656.0</ele><time>2026-04-11T07:19:51.151Z</time></trkpt><trkpt lat="44.5316027" lon="8.0580284"><ele>656.0</ele><time>2026-04-11T07:19:53.151Z</time></trkpt><trkpt lat="44.5316544" lon="8.0579295"><ele>655.3333333333333</ele><time>2026-04-11T07:19:55.15Z</time></trkpt><trkpt lat="44.5317118" lon="8.0578274"><ele>654.6666666666666</ele><time>2026-04-11T07:19:57.151Z</time></trkpt><trkpt lat="44.5317409" lon="8.057721"><ele>654.0</ele><time>2026-04-11T07:19:59.151Z</time></trkpt><trkpt lat="44.5317208" lon="8.0576118"><ele>653.3333333333334</ele><time>2026-04-11T07:20:02.151Z</time></trkpt><trkpt lat="44.5316786" lon="8.0575108"><ele>652.6666666666667</ele><time>2026-04-11T07:20:04.151Z</time></trkpt><trkpt lat="44.5316509" lon="8.0574157"><ele>652.0</ele><time>2026-04-11T07:20:06.151Z</time></trkpt><trkpt lat="44.5316591" lon="8.0572799"><ele>650.5</ele><time>2026-04-11T07:20:08.151Z</time></trkpt><trkpt lat="44.531694" lon="8.0571532"><ele>649.0</ele><time>2026-04-11T07:20:10.15Z</time></trkpt><trkpt lat="44.5317214" lon="8.0570383"><ele>647.5</ele><time>2026-04-11T07:20:12.151Z</time></trkpt><trkpt lat="44.5317579" lon="8.0569293"><ele>646.0</ele><time>2026-04-11T07:20:14.151Z</time></trkpt><trkpt lat="44.5317992" lon="8.0568332"><ele>644.5</ele><time>2026-04-11T07:20:16.152Z</time></trkpt><trkpt lat="44.5318543" lon="8.0567427"><ele>643.0</ele><time>2026-04-11T07:20:18.151Z</time></trkpt><trkpt lat="44.5318984" lon="8.0566627"><ele>642.2857142857142</ele><time>2026-04-11T07:20:20.152Z</time></trkpt><trkpt lat="44.5319068" lon="8.0565293"><ele>641.5714285714287</ele><time>2026-04-11T07:20:23.151Z</time></trkpt><trkpt lat="44.5319289" lon="8.0564404"><ele>640.8571428571429</ele><time>2026-04-11T07:20:25.152Z</time></trkpt><trkpt lat="44.5319612" lon="8.0563601"><ele>640.1428571428571</ele><time>2026-04-11T07:20:28.151Z</time></trkpt><trkpt lat="44.532031" lon="8.0563255"><ele>639.4285714285713</ele><time>2026-04-11T07:20:37.152Z</time></trkpt><trkpt lat="44.532077" lon="8.0562423"><ele>638.7142857142858</ele><time>2026-04-11T07:20:43.153Z</time></trkpt><trkpt lat="44.532084" lon="8.0561506"><ele>638.0</ele><time>2026-04-11T07:20:52.152Z</time></trkpt><trkpt lat="44.5321161" lon="8.0560624"><ele>641.3333333333333</ele><time>2026-04-11T07:21:00.152Z</time></trkpt><trkpt lat="44.5321707" lon="8.0559923"><ele>644.6666666666666</ele><time>2026-04-11T07:21:10.152Z</time></trkpt><trkpt lat="44.5322475" lon="8.0559291"><ele>648.0</ele><time>2026-04-11T07:21:38.153Z</time></trkpt><trkpt lat="44.5322994" lon="8.0558633"><ele>651.3333333333334</ele><time>2026-04-11T07:21:39.153Z</time></trkpt><trkpt lat="44.5323435" lon="8.0558"><ele>654.6666666666667</ele><time>2026-04-11T07:21:40.153Z</time></trkpt><trkpt lat="44.532405" lon="8.0557016"><ele>658.0</ele><time>2026-04-11T07:21:42.153Z</time></trkpt><trkpt lat="44.5324355" lon="8.0556155"><ele>658.0</ele><time>2026-04-11T07:22:36.199Z</time></trkpt><trkpt lat="44.5324152" lon="8.0555193"><ele>658.0</ele><time>2026-04-11T07:23:10.214Z</time></trkpt><trkpt lat="44.5324016" lon="8.0554291"><ele>658.0</ele><time>2026-04-11T07:23:38.156Z</time></trkpt><trkpt lat="44.5324437" lon="8.0553477"><ele>658.0</ele><time>2026-04-11T07:23:43.237Z</time></trkpt><trkpt lat="44.5324477" lon="8.0552559"><ele>658.0</ele><time>2026-04-11T07:23:47.155Z</time></trkpt><trkpt lat="44.5324489" lon="8.0551652"><ele>658.0</ele><time>2026-04-11T07:23:49.17Z</time></trkpt><trkpt lat="44.5324439" lon="8.0550547"><ele>658.0</ele><time>2026-04-11T07:23:51.154Z</time></trkpt><trkpt lat="44.5324456" lon="8.0549623"><ele>656.8333333333334</ele><time>2026-04-11T07:23:53.253Z</time></trkpt><trkpt lat="44.532486" lon="8.0548351"><ele>655.6666666666667</ele><time>2026-04-11T07:23:55.154Z</time></trkpt><trkpt lat="44.5325198" lon="8.0547474"><ele>654.5</ele><time>2026-04-11T07:23:58.154Z</time></trkpt><trkpt lat="44.5324586" lon="8.0547006"><ele>653.3333333333334</ele><time>2026-04-11T07:25:32.157Z</time></trkpt><trkpt lat="44.5324972" lon="8.0545131"><ele>652.1666666666666</ele><time>2026-04-11T07:26:51.154Z</time></trkpt><trkpt lat="44.5325356" lon="8.0544405"><ele>651.0</ele><time>2026-04-11T07:26:53.98Z</time></trkpt><trkpt lat="44.5325672" lon="8.054357"><ele>651.0</ele><time>2026-04-11T07:26:57.145Z</time></trkpt><trkpt lat="44.532599" lon="8.0542531"><ele>651.0</ele><time>2026-04-11T07:26:59.22Z</time></trkpt><trkpt lat="44.5326193" lon="8.0541324"><ele>651.0</ele><time>2026-04-11T07:27:01.193Z</time></trkpt><trkpt lat="44.5326589" lon="8.0540295"><ele>651.0</ele><time>2026-04-11T07:27:03.209Z</time></trkpt><trkpt lat="44.5327007" lon="8.0539567"><ele>651.0</ele><time>2026-04-11T07:27:05.243Z</time></trkpt><trkpt lat="44.532737" lon="8.0538768"><ele>651.0</ele><time>2026-04-11T07:27:08.187Z</time></trkpt><trkpt lat="44.5327623" lon="8.0537842"><ele>649.4285714285714</ele><time>2026-04-11T07:27:39.158Z</time></trkpt><trkpt lat="44.5327937" lon="8.0537074"><ele>647.8571428571429</ele><time>2026-04-11T07:27:53.158Z</time></trkpt><trkpt lat="44.5328382" lon="8.0536428"><ele>646.2857142857142</ele><time>2026-04-11T07:28:02.157Z</time></trkpt><trkpt lat="44.5328407" lon="8.0535481"><ele>644.7142857142858</ele><time>2026-04-11T07:28:16.158Z</time></trkpt><trkpt lat="44.5328016" lon="8.0534582"><ele>643.1428571428571</ele><time>2026-04-11T07:28:20.159Z</time></trkpt><trkpt lat="44.5327602" lon="8.0533842"><ele>641.5714285714286</ele><time>2026-04-11T07:28:24.159Z</time></trkpt><trkpt lat="44.5327124" lon="8.0533116"><ele>640.0</ele><time>2026-04-11T07:28:29.159Z</time></trkpt><trkpt lat="44.5326621" lon="8.053248"><ele>639.8571428571429</ele><time>2026-04-11T07:29:21.252Z</time></trkpt><trkpt lat="44.5326022" lon="8.0531999"><ele>639.7142857142858</ele><time>2026-04-11T07:29:25.192Z</time></trkpt><trkpt lat="44.5325362" lon="8.0531659"><ele>639.5714285714287</ele><time>2026-04-11T07:29:29.206Z</time></trkpt><trkpt lat="44.532474" lon="8.0531436"><ele>639.4285714285714</ele><time>2026-04-11T07:29:33.205Z</time></trkpt><trkpt lat="44.5324119" lon="8.0531188"><ele>639.2857142857143</ele><time>2026-04-11T07:29:38.21Z</time></trkpt><trkpt lat="44.5323496" lon="8.0530914"><ele>639.1428571428572</ele><time>2026-04-11T07:29:44.243Z</time></trkpt><trkpt lat="44.5322581" lon="8.0530158"><ele>639.0</ele><time>2026-04-11T07:29:47.16Z</time></trkpt><trkpt lat="44.532146" lon="8.0529761"><ele>639.0000000000001</ele><time>2026-04-11T07:29:49.16Z</time></trkpt><trkpt lat="44.5320914" lon="8.053037"><ele>639.0</ele><time>2026-04-11T07:29:51.159Z</time></trkpt><trkpt lat="44.5320255" lon="8.053037"><ele>639.0</ele><time>2026-04-11T07:30:06.225Z</time></trkpt><trkpt lat="44.5319552" lon="8.0530435"><ele>639.0</ele><time>2026-04-11T07:30:18.16Z</time></trkpt><trkpt lat="44.5318889" lon="8.0530757"><ele>639.0</ele><time>2026-04-11T07:30:23.225Z</time></trkpt><trkpt lat="44.5318216" lon="8.0531292"><ele>639.0000000000001</ele><time>2026-04-11T07:30:30.275Z</time></trkpt><trkpt lat="44.5317679" lon="8.053179"><ele>639.0</ele><time>2026-04-11T07:30:39.207Z</time></trkpt><trkpt lat="44.5318149" lon="8.0532548"><ele>639.8571428571429</ele><time>2026-04-11T07:31:50.238Z</time></trkpt><trkpt lat="44.5317438" lon="8.0532664"><ele>640.7142857142858</ele><time>2026-04-11T07:32:06.171Z</time></trkpt><trkpt lat="44.5316747" lon="8.0532728"><ele>641.5714285714287</ele><time>2026-04-11T07:32:10.221Z</time></trkpt><trkpt lat="44.5316011" lon="8.0532989"><ele>642.4285714285714</ele><time>2026-04-11T07:32:15.188Z</time></trkpt><trkpt lat="44.531553" lon="8.0533574"><ele>643.2857142857142</ele><time>2026-04-11T07:32:21.221Z</time></trkpt><trkpt lat="44.5315055" lon="8.0534206"><ele>644.1428571428572</ele><time>2026-04-11T07:32:26.162Z</time></trkpt><trkpt lat="44.5314338" lon="8.0534495"><ele>645.0</ele><time>2026-04-11T07:32:35.162Z</time></trkpt><trkpt lat="44.5314006" lon="8.0535285"><ele>645.0</ele><time>2026-04-11T07:32:55.161Z</time></trkpt><trkpt lat="44.531336" lon="8.0535375"><ele>645.0</ele><time>2026-04-11T07:33:03.162Z</time></trkpt><trkpt lat="44.5312734" lon="8.0535656"><ele>645.0</ele><time>2026-04-11T07:33:13.163Z</time></trkpt><trkpt lat="44.5312492" lon="8.0534718"><ele>645.0</ele><time>2026-04-11T07:33:24.163Z</time></trkpt><trkpt lat="44.5312796" lon="8.0533913"><ele>645.0</ele><time>2026-04-11T07:33:34.163Z</time></trkpt><trkpt lat="44.5312876" lon="8.0533016"><ele>645.0</ele><time>2026-04-11T07:33:42.163Z</time></trkpt><trkpt lat="44.5313265" lon="8.0532237"><ele>645.0</ele><time>2026-04-11T07:33:53.163Z</time></trkpt><trkpt lat="44.5313694" lon="8.0531419"><ele>647.4285714285714</ele><time>2026-04-11T07:34:02.163Z</time></trkpt><trkpt lat="44.5314297" lon="8.0531026"><ele>649.8571428571428</ele><time>2026-04-11T07:34:07.163Z</time></trkpt><trkpt lat="44.5314457" lon="8.0530036"><ele>652.2857142857142</ele><time>2026-04-11T07:34:17.164Z</time></trkpt><trkpt lat="44.5314615" lon="8.0529178"><ele>654.7142857142858</ele><time>2026-04-11T07:34:25.164Z</time></trkpt><trkpt lat="44.5314908" lon="8.0528219"><ele>657.1428571428571</ele><time>2026-04-11T07:34:35.164Z</time></trkpt><trkpt lat="44.5315216" lon="8.0527428"><ele>659.5714285714286</ele><time>2026-04-11T07:34:48.163Z</time></trkpt><trkpt lat="44.5315487" lon="8.0526569"><ele>662.0</ele><time>2026-04-11T07:34:56.164Z</time></trkpt><trkpt lat="44.5315272" lon="8.0525485"><ele>662.0</ele><time>2026-04-11T07:35:03.164Z</time></trkpt><trkpt lat="44.5314609" lon="8.0525361"><ele>662.0</ele><time>2026-04-11T07:35:12.163Z</time></trkpt><trkpt lat="44.5314011" lon="8.0526153"><ele>662.0</ele><time>2026-04-11T07:35:40.218Z</time></trkpt><trkpt lat="44.5313366" lon="8.0526867"><ele>662.0</ele><time>2026-04-11T07:35:44.237Z</time></trkpt><trkpt lat="44.5312855" lon="8.0527491"><ele>662.0</ele><time>2026-04-11T07:35:47.237Z</time></trkpt><trkpt lat="44.5312301" lon="8.0528246"><ele>662.0</ele><time>2026-04-11T07:35:50.187Z</time></trkpt><trkpt lat="44.531182" lon="8.0528854"><ele>662.0</ele><time>2026-04-11T07:35:53.236Z</time></trkpt><trkpt lat="44.5310811" lon="8.0529676"><ele>665.2857142857143</ele><time>2026-04-11T07:35:56.165Z</time></trkpt><trkpt lat="44.5310224" lon="8.053"><ele>668.5714285714286</ele><time>2026-04-11T07:36:00.165Z</time></trkpt><trkpt lat="44.5309492" lon="8.0529829"><ele>671.8571428571429</ele><time>2026-04-11T07:36:15.165Z</time></trkpt><trkpt lat="44.530878" lon="8.0529915"><ele>675.1428571428571</ele><time>2026-04-11T07:36:22.165Z</time></trkpt><trkpt lat="44.530826" lon="8.0530865"><ele>678.4285714285714</ele><time>2026-04-11T07:36:34.166Z</time></trkpt><trkpt lat="44.5307829" lon="8.0531573"><ele>681.7142857142857</ele><time>2026-04-11T07:36:38.165Z</time></trkpt><trkpt lat="44.5307202" lon="8.0532251"><ele>685.0</ele><time>2026-04-11T07:36:43.166Z</time></trkpt><trkpt lat="44.5306581" lon="8.0532658"><ele>683.2857142857142</ele><time>2026-04-11T07:36:45.166Z</time></trkpt><trkpt lat="44.5305974" lon="8.0533366"><ele>681.5714285714287</ele><time>2026-04-11T07:36:51.166Z</time></trkpt><trkpt lat="44.530548" lon="8.0534018"><ele>679.8571428571429</ele><time>2026-04-11T07:36:54.165Z</time></trkpt><trkpt lat="44.5304977" lon="8.0534626"><ele>678.1428571428571</ele><time>2026-04-11T07:36:57.166Z</time></trkpt><trkpt lat="44.5304401" lon="8.0535161"><ele>676.4285714285713</ele><time>2026-04-11T07:37:01.166Z</time></trkpt><trkpt lat="44.5303879" lon="8.0535967"><ele>674.7142857142858</ele><time>2026-04-11T07:37:08.166Z</time></trkpt><trkpt lat="44.5303536" lon="8.0536944"><ele>673.0</ele><time>2026-04-11T07:37:12.166Z</time></trkpt><trkpt lat="44.5302936" lon="8.0537376"><ele>675.1428571428572</ele><time>2026-04-11T07:37:15.166Z</time></trkpt><trkpt lat="44.530226" lon="8.0537717"><ele>677.2857142857142</ele><time>2026-04-11T07:37:18.166Z</time></trkpt><trkpt lat="44.530146" lon="8.0538231"><ele>679.4285714285714</ele><time>2026-04-11T07:37:26.165Z</time></trkpt><trkpt lat="44.5300869" lon="8.0538716"><ele>681.5714285714287</ele><time>2026-04-11T07:37:35.165Z</time></trkpt><trkpt lat="44.5300348" lon="8.0539449"><ele>683.7142857142858</ele><time>2026-04-11T07:37:47.167Z</time></trkpt><trkpt lat="44.5299781" lon="8.0539909"><ele>685.8571428571429</ele><time>2026-04-11T07:37:54.167Z</time></trkpt><trkpt lat="44.5299407" lon="8.0540625"><ele>688.0</ele><time>2026-04-11T07:38:02.167Z</time></trkpt><trkpt lat="44.529932" lon="8.0541597"><ele>688.0000000000001</ele><time>2026-04-11T07:38:09.167Z</time></trkpt><trkpt lat="44.5299059" lon="8.0542455"><ele>688.0</ele><time>2026-04-11T07:39:30.247Z</time></trkpt><trkpt lat="44.5298675" lon="8.054325"><ele>688.0</ele><time>2026-04-11T07:39:34.252Z</time></trkpt><trkpt lat="44.5298107" lon="8.0543883"><ele>688.0</ele><time>2026-04-11T07:39:39.198Z</time></trkpt><trkpt lat="44.5297719" lon="8.054471"><ele>688.0</ele><time>2026-04-11T07:39:44.249Z</time></trkpt><trkpt lat="44.5297162" lon="8.0545357"><ele>688.0000000000001</ele><time>2026-04-11T07:39:50.168Z</time></trkpt><trkpt lat="44.5296771" lon="8.0546177"><ele>688.0</ele><time>2026-04-11T07:39:57.168Z</time></trkpt><trkpt lat="44.5296444" lon="8.0547073"><ele>688.0</ele><time>2026-04-11T07:40:03.169Z</time></trkpt><trkpt lat="44.5296052" lon="8.054791"><ele>688.0</ele><time>2026-04-11T07:40:10.169Z</time></trkpt><trkpt lat="44.5295649" lon="8.0548765"><ele>688.0</ele><time>2026-04-11T07:40:18.169Z</time></trkpt><trkpt lat="44.5295294" lon="8.0549527"><ele>688.0</ele><time>2026-04-11T07:40:26.168Z</time></trkpt><trkpt lat="44.5294734" lon="8.0550049"><ele>688.0</ele><time>2026-04-11T07:40:33.169Z</time></trkpt><trkpt lat="44.5293984" lon="8.0550755"><ele>688.0</ele><time>2026-04-11T07:41:29.17Z</time></trkpt><trkpt lat="44.5293244" lon="8.0551505"><ele>691.1666666666667</ele><time>2026-04-11T07:41:31.169Z</time></trkpt><trkpt lat="44.529219" lon="8.0552289"><ele>694.3333333333334</ele><time>2026-04-11T07:41:33.169Z</time></trkpt><trkpt lat="44.529143" lon="8.0552723"><ele>697.5</ele><time>2026-04-11T07:41:36.17Z</time></trkpt><trkpt lat="44.5290862" lon="8.055311"><ele>700.6666666666666</ele><time>2026-04-11T07:41:45.17Z</time></trkpt><trkpt lat="44.5290236" lon="8.0553512"><ele>703.8333333333333</ele><time>2026-04-11T07:41:55.17Z</time></trkpt><trkpt lat="44.5289471" lon="8.0553797"><ele>707.0</ele><time>2026-04-11T07:41:59.17Z</time></trkpt><trkpt lat="44.5288711" lon="8.0554238"><ele>707.0</ele><time>2026-04-11T07:42:03.17Z</time></trkpt><trkpt lat="44.5287944" lon="8.0554686"><ele>707.0</ele><time>2026-04-11T07:42:06.169Z</time></trkpt><trkpt lat="44.5287243" lon="8.0554808"><ele>707.0</ele><time>2026-04-11T07:42:10.17Z</time></trkpt><trkpt lat="44.5286321" lon="8.0555108"><ele>707.0</ele><time>2026-04-11T07:42:14.169Z</time></trkpt><trkpt lat="44.5285629" lon="8.055564"><ele>707.0</ele><time>2026-04-11T07:42:18.171Z</time></trkpt><trkpt lat="44.5285087" lon="8.0556422"><ele>707.0</ele><time>2026-04-11T07:42:21.171Z</time></trkpt><trkpt lat="44.5284712" lon="8.0557147"><ele>708.4285714285714</ele><time>2026-04-11T07:42:31.171Z</time></trkpt><trkpt lat="44.5284415" lon="8.0558038"><ele>709.8571428571429</ele><time>2026-04-11T07:42:38.171Z</time></trkpt><trkpt lat="44.5283964" lon="8.0559101"><ele>711.2857142857142</ele><time>2026-04-11T07:42:53.17Z</time></trkpt><trkpt lat="44.5283657" lon="8.0559924"><ele>712.7142857142858</ele><time>2026-04-11T07:43:03.172Z</time></trkpt><trkpt lat="44.5283408" lon="8.0560804"><ele>714.1428571428571</ele><time>2026-04-11T07:43:11.172Z</time></trkpt><trkpt lat="44.5282715" lon="8.0561074"><ele>715.5714285714286</ele><time>2026-04-11T07:43:23.171Z</time></trkpt><trkpt lat="44.5282088" lon="8.0561372"><ele>717.0</ele><time>2026-04-11T07:43:28.172Z</time></trkpt><trkpt lat="44.5281439" lon="8.0561791"><ele>717.0</ele><time>2026-04-11T07:43:40.172Z</time></trkpt><trkpt lat="44.5280859" lon="8.0562223"><ele>717.0</ele><time>2026-04-11T07:43:50.172Z</time></trkpt><trkpt lat="44.5280295" lon="8.0562684"><ele>717.0</ele><time>2026-04-11T07:44:00.171Z</time></trkpt><trkpt lat="44.5279849" lon="8.0563379"><ele>717.0</ele><time>2026-04-11T07:44:08.172Z</time></trkpt><trkpt lat="44.5279647" lon="8.0562391"><ele>717.0</ele><time>2026-04-11T07:44:21.172Z</time></trkpt><trkpt lat="44.5279892" lon="8.05615"><ele>717.0</ele><time>2026-04-11T07:44:34.173Z</time></trkpt><trkpt lat="44.5279768" lon="8.0560601"><ele>717.0</ele><time>2026-04-11T07:44:41.173Z</time></trkpt><trkpt lat="44.5279796" lon="8.0559656"><ele>717.0</ele><time>2026-04-11T07:44:47.172Z</time></trkpt><trkpt lat="44.528002" lon="8.055875"><ele>717.0</ele><time>2026-04-11T07:44:58.173Z</time></trkpt><trkpt lat="44.5280196" lon="8.0557874"><ele>717.0</ele><time>2026-04-11T07:45:05.173Z</time></trkpt><trkpt lat="44.5280354" lon="8.0556981"><ele>717.0</ele><time>2026-04-11T07:45:15.172Z</time></trkpt><trkpt lat="44.527982" lon="8.055639"><ele>717.0</ele><time>2026-04-11T07:45:28.172Z</time></trkpt><trkpt lat="44.5279161" lon="8.0556541"><ele>717.0</ele><time>2026-04-11T07:45:32.173Z</time></trkpt><trkpt lat="44.5278699" lon="8.0557152"><ele>717.0</ele><time>2026-04-11T07:45:42.173Z</time></trkpt><trkpt lat="44.5278395" lon="8.0558055"><ele>721.0</ele><time>2026-04-11T07:45:52.174Z</time></trkpt><trkpt lat="44.5277737" lon="8.0557927"><ele>725.0</ele><time>2026-04-11T07:46:09.174Z</time></trkpt><trkpt lat="44.5277966" lon="8.0557054"><ele>729.0</ele><time>2026-04-11T07:46:18.174Z</time></trkpt><trkpt lat="44.5278207" lon="8.0556209"><ele>733.0</ele><time>2026-04-11T07:46:26.174Z</time></trkpt><trkpt lat="44.5278144" lon="8.0555272"><ele>737.0</ele><time>2026-04-11T07:46:35.174Z</time></trkpt><trkpt lat="44.5278037" lon="8.0554366"><ele>741.0</ele><time>2026-04-11T07:46:45.175Z</time></trkpt><trkpt lat="44.5277989" lon="8.0553474"><ele>745.0</ele><time>2026-04-11T07:46:56.175Z</time></trkpt><trkpt lat="44.5278072" lon="8.0552596"><ele>745.0</ele><time>2026-04-11T07:48:18.176Z</time></trkpt><trkpt lat="44.527817" lon="8.0553594"><ele>745.0</ele><time>2026-04-11T07:52:53.283Z</time></trkpt><trkpt lat="44.5277762" lon="8.0554487"><ele>745.0</ele><time>2026-04-11T07:52:56.916Z</time></trkpt><trkpt lat="44.5277318" lon="8.0555584"><ele>745.0</ele><time>2026-04-11T07:52:59.266Z</time></trkpt><trkpt lat="44.5277113" lon="8.0556802"><ele>745.0</ele><time>2026-04-11T07:53:01.283Z</time></trkpt><trkpt lat="44.5276968" lon="8.0557984"><ele>745.0</ele><time>2026-04-11T07:53:03.232Z</time></trkpt><trkpt lat="44.5276592" lon="8.0559069"><ele>745.5</ele><time>2026-04-11T07:53:05.265Z</time></trkpt><trkpt lat="44.5276172" lon="8.0560091"><ele>746.0</ele><time>2026-04-11T07:53:07.3Z</time></trkpt><trkpt lat="44.5275781" lon="8.0561093"><ele>746.5</ele><time>2026-04-11T07:53:09.25Z</time></trkpt><trkpt lat="44.5275303" lon="8.0562098"><ele>747.0</ele><time>2026-04-11T07:53:11.299Z</time></trkpt><trkpt lat="44.527481" lon="8.056296"><ele>747.5</ele><time>2026-04-11T07:53:13.2Z</time></trkpt><trkpt lat="44.5274243" lon="8.056379"><ele>748.0</ele><time>2026-04-11T07:53:15.232Z</time></trkpt><trkpt lat="44.5273712" lon="8.0564671"><ele>748.0</ele><time>2026-04-11T07:53:17.283Z</time></trkpt><trkpt lat="44.5273246" lon="8.0565506"><ele>748.0</ele><time>2026-04-11T07:53:19.198Z</time></trkpt><trkpt lat="44.5272795" lon="8.0566322"><ele>748.0</ele><time>2026-04-11T07:53:21.283Z</time></trkpt><trkpt lat="44.5272162" lon="8.0567315"><ele>748.0</ele><time>2026-04-11T07:53:24.3Z</time></trkpt><trkpt lat="44.5271811" lon="8.0568352"><ele>748.0</ele><time>2026-04-11T07:53:27.283Z</time></trkpt><trkpt lat="44.5271525" lon="8.0569205"><ele>748.0</ele><time>2026-04-11T07:53:30.234Z</time></trkpt><trkpt lat="44.5271171" lon="8.0570049"><ele>748.4285714285714</ele><time>2026-04-11T07:53:33.284Z</time></trkpt><trkpt lat="44.527077" lon="8.0571021"><ele>748.8571428571429</ele><time>2026-04-11T07:53:37.267Z</time></trkpt><trkpt lat="44.527044" lon="8.0571844"><ele>749.2857142857143</ele><time>2026-04-11T07:53:41.249Z</time></trkpt><trkpt lat="44.5270058" lon="8.0572681"><ele>749.7142857142858</ele><time>2026-04-11T07:53:45.251Z</time></trkpt><trkpt lat="44.526984" lon="8.0573515"><ele>750.1428571428571</ele><time>2026-04-11T07:53:49.301Z</time></trkpt><trkpt lat="44.5269608" lon="8.0574413"><ele>750.5714285714287</ele><time>2026-04-11T07:53:53.201Z</time></trkpt><trkpt lat="44.5269315" lon="8.057521"><ele>751.0</ele><time>2026-04-11T07:53:57.283Z</time></trkpt><trkpt lat="44.5268907" lon="8.0576163"><ele>751.6666666666667</ele><time>2026-04-11T07:54:02.284Z</time></trkpt><trkpt lat="44.5268566" lon="8.057714"><ele>752.3333333333334</ele><time>2026-04-11T07:54:11.233Z</time></trkpt><trkpt lat="44.52683" lon="8.0578044"><ele>753.0</ele><time>2026-04-11T07:54:16.201Z</time></trkpt><trkpt lat="44.5267956" lon="8.0578998"><ele>753.6666666666666</ele><time>2026-04-11T07:54:20.267Z</time></trkpt><trkpt lat="44.5267668" lon="8.0579972"><ele>754.3333333333333</ele><time>2026-04-11T07:54:23.3Z</time></trkpt><trkpt lat="44.5267252" lon="8.058094"><ele>755.0</ele><time>2026-04-11T07:54:26.25Z</time></trkpt><trkpt lat="44.5266804" lon="8.0581886"><ele>755.0</ele><time>2026-04-11T07:54:29.234Z</time></trkpt><trkpt lat="44.5266275" lon="8.0582766"><ele>755.0</ele><time>2026-04-11T07:54:32.251Z</time></trkpt><trkpt lat="44.5265717" lon="8.0583763"><ele>755.0</ele><time>2026-04-11T07:54:35.251Z</time></trkpt><trkpt lat="44.5265246" lon="8.0584677"><ele>755.0</ele><time>2026-04-11T07:54:38.284Z</time></trkpt><trkpt lat="44.5264679" lon="8.0585514"><ele>755.0</ele><time>2026-04-11T07:54:41.266Z</time></trkpt><trkpt lat="44.5264067" lon="8.0586237"><ele>755.0</ele><time>2026-04-11T07:54:44.234Z</time></trkpt><trkpt lat="44.5263512" lon="8.0587169"><ele>754.8333333333333</ele><time>2026-04-11T07:54:47.301Z</time></trkpt><trkpt lat="44.5262953" lon="8.058801"><ele>754.6666666666666</ele><time>2026-04-11T07:54:50.251Z</time></trkpt><trkpt lat="44.5262227" lon="8.0588229"><ele>754.5</ele><time>2026-04-11T07:54:53.184Z</time></trkpt><trkpt lat="44.5261466" lon="8.0588231"><ele>754.3333333333334</ele><time>2026-04-11T07:54:56.234Z</time></trkpt><trkpt lat="44.5260705" lon="8.0588256"><ele>754.1666666666667</ele><time>2026-04-11T07:54:59.267Z</time></trkpt><trkpt lat="44.5259985" lon="8.0588133"><ele>754.0</ele><time>2026-04-11T07:55:03.284Z</time></trkpt><trkpt lat="44.5260021" lon="8.0586868"><ele>752.6</ele><time>2026-04-11T07:55:07.284Z</time></trkpt><trkpt lat="44.5260382" lon="8.0585117"><ele>751.2</ele><time>2026-04-11T07:55:09.182Z</time></trkpt><trkpt lat="44.5260742" lon="8.0583399"><ele>749.8000000000001</ele><time>2026-04-11T07:55:11.182Z</time></trkpt><trkpt lat="44.5260992" lon="8.0582552"><ele>748.4000000000001</ele><time>2026-04-11T07:55:12.182Z</time></trkpt><trkpt lat="44.5261363" lon="8.0581774"><ele>747.0</ele><time>2026-04-11T07:55:13.182Z</time></trkpt><trkpt lat="44.5261825" lon="8.0581015"><ele>748.3333333333334</ele><time>2026-04-11T07:55:14.182Z</time></trkpt><trkpt lat="44.5262263" lon="8.0580227"><ele>749.6666666666666</ele><time>2026-04-11T07:55:15.182Z</time></trkpt><trkpt lat="44.5262629" lon="8.0579468"><ele>751.0</ele><time>2026-04-11T07:55:16.181Z</time></trkpt><trkpt lat="44.5262991" lon="8.0578705"><ele>752.3333333333333</ele><time>2026-04-11T07:55:17.182Z</time></trkpt><trkpt lat="44.5263366" lon="8.0577966"><ele>753.6666666666666</ele><time>2026-04-11T07:55:18.182Z</time></trkpt><trkpt lat="44.5264063" lon="8.0576587"><ele>755.0</ele><time>2026-04-11T07:55:20.182Z</time></trkpt><trkpt lat="44.5264626" lon="8.057531"><ele>754.2</ele><time>2026-04-11T07:55:22.182Z</time></trkpt><trkpt lat="44.5265038" lon="8.0574283"><ele>753.4</ele><time>2026-04-11T07:55:24.182Z</time></trkpt><trkpt lat="44.5265338" lon="8.0573293"><ele>752.5999999999999</ele><time>2026-04-11T07:55:27.182Z</time></trkpt><trkpt lat="44.5266913" lon="8.0572246"><ele>751.8</ele><time>2026-04-11T07:56:14.251Z</time></trkpt><trkpt lat="44.5267549" lon="8.0571689"><ele>751.0</ele><time>2026-04-11T07:56:19.218Z</time></trkpt><trkpt lat="44.5267831" lon="8.0570851"><ele>751.0000000000001</ele><time>2026-04-11T07:56:22.201Z</time></trkpt><trkpt lat="44.5268028" lon="8.0569942"><ele>751.0</ele><time>2026-04-11T07:56:25.157Z</time></trkpt><trkpt lat="44.5268243" lon="8.0569097"><ele>751.0</ele><time>2026-04-11T07:56:27.201Z</time></trkpt><trkpt lat="44.5268593" lon="8.0568208"><ele>751.0</ele><time>2026-04-11T07:56:29.282Z</time></trkpt><trkpt lat="44.5269012" lon="8.0567431"><ele>751.0</ele><time>2026-04-11T07:56:31.184Z</time></trkpt><trkpt lat="44.5269393" lon="8.0566581"><ele>751.0000000000001</ele><time>2026-04-11T07:56:33.201Z</time></trkpt><trkpt lat="44.5269774" lon="8.0565652"><ele>751.0</ele><time>2026-04-11T07:56:35.252Z</time></trkpt><trkpt lat="44.5270175" lon="8.0564664"><ele>750.5714285714287</ele><time>2026-04-11T07:56:37.236Z</time></trkpt><trkpt lat="44.5270662" lon="8.0563852"><ele>750.1428571428571</ele><time>2026-04-11T07:56:39.223Z</time></trkpt><trkpt lat="44.5271269" lon="8.056317"><ele>749.7142857142858</ele><time>2026-04-11T07:56:42.183Z</time></trkpt><trkpt lat="44.5271574" lon="8.0562154"><ele>749.2857142857143</ele><time>2026-04-11T07:56:45.183Z</time></trkpt><trkpt lat="44.527185" lon="8.0561309"><ele>748.8571428571429</ele><time>2026-04-11T07:57:18.184Z</time></trkpt><trkpt lat="44.5271872" lon="8.0560418"><ele>748.4285714285714</ele><time>2026-04-11T07:57:22.184Z</time></trkpt><trkpt lat="44.5272056" lon="8.0559364"><ele>748.0</ele><time>2026-04-11T07:57:25.184Z</time></trkpt><trkpt lat="44.5272324" lon="8.0558197"><ele>747.5714285714286</ele><time>2026-04-11T07:57:28.184Z</time></trkpt><trkpt lat="44.5272478" lon="8.0557183"><ele>747.1428571428572</ele><time>2026-04-11T07:57:31.184Z</time></trkpt><trkpt lat="44.5272728" lon="8.0556305"><ele>746.7142857142858</ele><time>2026-04-11T07:57:34.184Z</time></trkpt><trkpt lat="44.5273157" lon="8.055547"><ele>746.2857142857142</ele><time>2026-04-11T07:57:38.184Z</time></trkpt><trkpt lat="44.5273559" lon="8.0554632"><ele>745.8571428571429</ele><time>2026-04-11T07:57:42.184Z</time></trkpt><trkpt lat="44.5274037" lon="8.0553753"><ele>745.4285714285714</ele><time>2026-04-11T07:57:45.184Z</time></trkpt><trkpt lat="44.5274614" lon="8.0552941"><ele>745.0</ele><time>2026-04-11T07:57:48.183Z</time></trkpt><trkpt lat="44.5274962" lon="8.0551963"><ele>745.0</ele><time>2026-04-11T07:57:51.184Z</time></trkpt><trkpt lat="44.5275468" lon="8.055065"><ele>745.0</ele><time>2026-04-11T07:57:54.184Z</time></trkpt><trkpt lat="44.527604" lon="8.0549892"><ele>745.0</ele><time>2026-04-11T07:57:56.184Z</time></trkpt><trkpt lat="44.5276461" lon="8.0548923"><ele>745.0</ele><time>2026-04-11T07:57:58.183Z</time></trkpt><trkpt lat="44.5276972" lon="8.0547887"><ele>745.0</ele><time>2026-04-11T07:58:00.184Z</time></trkpt><trkpt lat="44.5277495" lon="8.054686"><ele>745.0</ele><time>2026-04-11T07:58:02.184Z</time></trkpt><trkpt lat="44.5277896" lon="8.0546004"><ele>743.8333333333334</ele><time>2026-04-11T07:58:04.184Z</time></trkpt><trkpt lat="44.5278505" lon="8.0545201"><ele>742.6666666666667</ele><time>2026-04-11T07:58:07.184Z</time></trkpt><trkpt lat="44.5279185" lon="8.0544874"><ele>741.5</ele><time>2026-04-11T07:58:10.184Z</time></trkpt><trkpt lat="44.5279933" lon="8.0544629"><ele>740.3333333333334</ele><time>2026-04-11T07:58:13.184Z</time></trkpt><trkpt lat="44.5280632" lon="8.0544532"><ele>739.1666666666666</ele><time>2026-04-11T07:58:15.184Z</time></trkpt><trkpt lat="44.5281282" lon="8.0543732"><ele>738.0</ele><time>2026-04-11T07:58:18.183Z</time></trkpt><trkpt lat="44.5281839" lon="8.0542967"><ele>738.0</ele><time>2026-04-11T07:58:21.185Z</time></trkpt><trkpt lat="44.5282375" lon="8.0542064"><ele>738.0</ele><time>2026-04-11T07:58:24.185Z</time></trkpt><trkpt lat="44.5282752" lon="8.0541283"><ele>738.0</ele><time>2026-04-11T07:58:26.185Z</time></trkpt><trkpt lat="44.528313" lon="8.0540465"><ele>738.0</ele><time>2026-04-11T07:58:28.185Z</time></trkpt><trkpt lat="44.5283593" lon="8.0539654"><ele>738.0</ele><time>2026-04-11T07:58:30.185Z</time></trkpt><trkpt lat="44.5284027" lon="8.0538714"><ele>738.0</ele><time>2026-04-11T07:58:32.184Z</time></trkpt><trkpt lat="44.5284431" lon="8.0537766"><ele>737.7142857142857</ele><time>2026-04-11T07:58:34.185Z</time></trkpt><trkpt lat="44.5284777" lon="8.0536699"><ele>737.4285714285713</ele><time>2026-04-11T07:58:36.185Z</time></trkpt><trkpt lat="44.5284962" lon="8.0535801"><ele>737.1428571428571</ele><time>2026-04-11T07:58:38.184Z</time></trkpt><trkpt lat="44.5285125" lon="8.0534908"><ele>736.8571428571429</ele><time>2026-04-11T07:58:40.185Z</time></trkpt><trkpt lat="44.5285249" lon="8.0533892"><ele>736.5714285714286</ele><time>2026-04-11T07:58:43.185Z</time></trkpt><trkpt lat="44.5285125" lon="8.0534863"><ele>736.2857142857143</ele><time>2026-04-11T07:58:48.185Z</time></trkpt><trkpt lat="44.5285505" lon="8.0535686"><ele>736.0</ele><time>2026-04-11T07:59:13.185Z</time></trkpt><trkpt lat="44.5285137" lon="8.053472"><ele>736.0</ele><time>2026-04-11T07:59:19.185Z</time></trkpt><trkpt lat="44.5285502" lon="8.0533574"><ele>736.0</ele><time>2026-04-11T07:59:22.184Z</time></trkpt><trkpt lat="44.5285858" lon="8.0532582"><ele>736.0</ele><time>2026-04-11T07:59:24.185Z</time></trkpt><trkpt lat="44.5286154" lon="8.0531505"><ele>736.0</ele><time>2026-04-11T07:59:27.185Z</time></trkpt><trkpt lat="44.528622" lon="8.0530605"><ele>736.0</ele><time>2026-04-11T07:59:30.185Z</time></trkpt><trkpt lat="44.5285911" lon="8.0529594"><ele>736.0</ele><time>2026-04-11T08:00:18.186Z</time></trkpt><trkpt lat="44.5285734" lon="8.0528469"><ele>736.6666666666667</ele><time>2026-04-11T08:00:21.187Z</time></trkpt><trkpt lat="44.5285574" lon="8.0527182"><ele>737.3333333333334</ele><time>2026-04-11T08:00:24.186Z</time></trkpt><trkpt lat="44.5285649" lon="8.0526297"><ele>738.0</ele><time>2026-04-11T08:00:26.186Z</time></trkpt><trkpt lat="44.528603" lon="8.0525077"><ele>738.6666666666666</ele><time>2026-04-11T08:00:29.187Z</time></trkpt><trkpt lat="44.5286405" lon="8.0524207"><ele>739.3333333333333</ele><time>2026-04-11T08:00:31.185Z</time></trkpt><trkpt lat="44.5286921" lon="8.0523396"><ele>740.0</ele><time>2026-04-11T08:00:33.186Z</time></trkpt><trkpt lat="44.5287402" lon="8.0522367"><ele>740.5</ele><time>2026-04-11T08:00:36.186Z</time></trkpt><trkpt lat="44.5288135" lon="8.0521712"><ele>741.0</ele><time>2026-04-11T08:00:39.186Z</time></trkpt><trkpt lat="44.5288752" lon="8.0521203"><ele>741.5</ele><time>2026-04-11T08:00:41.186Z</time></trkpt><trkpt lat="44.5289402" lon="8.0520443"><ele>742.0</ele><time>2026-04-11T08:00:44.187Z</time></trkpt><trkpt lat="44.5290218" lon="8.0519683"><ele>742.5</ele><time>2026-04-11T08:00:47.186Z</time></trkpt><trkpt lat="44.5290773" lon="8.051896"><ele>743.0</ele><time>2026-04-11T08:00:49.187Z</time></trkpt><trkpt lat="44.5291279" lon="8.0518281"><ele>743.0</ele><time>2026-04-11T08:00:51.187Z</time></trkpt><trkpt lat="44.529156" lon="8.0517359"><ele>743.0</ele><time>2026-04-11T08:01:44.188Z</time></trkpt><trkpt lat="44.5291772" lon="8.0516138"><ele>743.0</ele><time>2026-04-11T08:01:47.188Z</time></trkpt><trkpt lat="44.5292124" lon="8.0515252"><ele>743.0</ele><time>2026-04-11T08:01:49.188Z</time></trkpt><trkpt lat="44.5292521" lon="8.0514282"><ele>743.0</ele><time>2026-04-11T08:01:51.188Z</time></trkpt><trkpt lat="44.529281" lon="8.0513452"><ele>743.0</ele><time>2026-04-11T08:01:53.188Z</time></trkpt><trkpt lat="44.5293154" lon="8.0512706"><ele>743.0</ele><time>2026-04-11T08:01:55.188Z</time></trkpt><trkpt lat="44.529356" lon="8.0511887"><ele>744.0</ele><time>2026-04-11T08:01:57.188Z</time></trkpt><trkpt lat="44.5293881" lon="8.0511046"><ele>745.0</ele><time>2026-04-11T08:01:59.188Z</time></trkpt><trkpt lat="44.5294307" lon="8.0509944"><ele>746.0</ele><time>2026-04-11T08:02:04.188Z</time></trkpt><trkpt lat="44.5294592" lon="8.0509129"><ele>747.0</ele><time>2026-04-11T08:02:06.187Z</time></trkpt><trkpt lat="44.529485" lon="8.0508155"><ele>748.0</ele><time>2026-04-11T08:02:08.187Z</time></trkpt><trkpt lat="44.5295184" lon="8.0507008"><ele>749.0</ele><time>2026-04-11T08:02:10.188Z</time></trkpt><trkpt lat="44.5295589" lon="8.050587"><ele>747.0</ele><time>2026-04-11T08:02:12.188Z</time></trkpt><trkpt lat="44.5295961" lon="8.0504745"><ele>745.0</ele><time>2026-04-11T08:02:14.188Z</time></trkpt><trkpt lat="44.529629" lon="8.0503768"><ele>743.0</ele><time>2026-04-11T08:02:16.188Z</time></trkpt><trkpt lat="44.5296666" lon="8.0502827"><ele>741.0</ele><time>2026-04-11T08:02:18.188Z</time></trkpt><trkpt lat="44.5297126" lon="8.0501886"><ele>739.0</ele><time>2026-04-11T08:02:20.187Z</time></trkpt><trkpt lat="44.5297422" lon="8.0500872"><ele>737.0</ele><time>2026-04-11T08:02:22.188Z</time></trkpt><trkpt lat="44.5297785" lon="8.0499891"><ele>737.1666666666666</ele><time>2026-04-11T08:02:24.188Z</time></trkpt><trkpt lat="44.5298124" lon="8.0498958"><ele>737.3333333333333</ele><time>2026-04-11T08:02:26.188Z</time></trkpt><trkpt lat="44.5298446" lon="8.0498054"><ele>737.5</ele><time>2026-04-11T08:02:28.188Z</time></trkpt><trkpt lat="44.5298747" lon="8.0497191"><ele>737.6666666666666</ele><time>2026-04-11T08:02:30.187Z</time></trkpt><trkpt lat="44.5299082" lon="8.0496165"><ele>737.8333333333334</ele><time>2026-04-11T08:02:32.188Z</time></trkpt><trkpt lat="44.529958" lon="8.0495276"><ele>738.0</ele><time>2026-04-11T08:02:34.188Z</time></trkpt><trkpt lat="44.5300004" lon="8.0494433"><ele>738.0</ele><time>2026-04-11T08:02:36.189Z</time></trkpt><trkpt lat="44.5300353" lon="8.0493558"><ele>738.0</ele><time>2026-04-11T08:02:38.188Z</time></trkpt><trkpt lat="44.5300711" lon="8.0492822"><ele>738.0</ele><time>2026-04-11T08:02:40.188Z</time></trkpt><trkpt lat="44.5301214" lon="8.0492123"><ele>738.0</ele><time>2026-04-11T08:02:42.188Z</time></trkpt><trkpt lat="44.5301769" lon="8.049137"><ele>738.0</ele><time>2026-04-11T08:02:44.188Z</time></trkpt><trkpt lat="44.5302408" lon="8.0490512"><ele>738.0</ele><time>2026-04-11T08:02:46.188Z</time></trkpt><trkpt lat="44.5303124" lon="8.0489649"><ele>737.2</ele><time>2026-04-11T08:02:48.189Z</time></trkpt><trkpt lat="44.5303927" lon="8.0488719"><ele>736.4</ele><time>2026-04-11T08:02:50.188Z</time></trkpt><trkpt lat="44.530486" lon="8.0487831"><ele>735.6</ele><time>2026-04-11T08:02:52.189Z</time></trkpt><trkpt lat="44.5305753" lon="8.0486993"><ele>734.8000000000001</ele><time>2026-04-11T08:02:54.189Z</time></trkpt><trkpt lat="44.530657" lon="8.0486146"><ele>734.0</ele><time>2026-04-11T08:02:56.189Z</time></trkpt><trkpt lat="44.5307424" lon="8.0485274"><ele>734.0</ele><time>2026-04-11T08:02:58.189Z</time></trkpt><trkpt lat="44.5308263" lon="8.0484386"><ele>734.0</ele><time>2026-04-11T08:03:00.189Z</time></trkpt><trkpt lat="44.5309089" lon="8.0483593"><ele>734.0</ele><time>2026-04-11T08:03:02.189Z</time></trkpt><trkpt lat="44.5310045" lon="8.0482847"><ele>734.0</ele><time>2026-04-11T08:03:04.189Z</time></trkpt><trkpt lat="44.5310951" lon="8.0481998"><ele>734.0</ele><time>2026-04-11T08:03:06.189Z</time></trkpt><trkpt lat="44.5311801" lon="8.0481206"><ele>734.2</ele><time>2026-04-11T08:03:08.189Z</time></trkpt><trkpt lat="44.5312645" lon="8.0480348"><ele>734.4000000000001</ele><time>2026-04-11T08:03:10.188Z</time></trkpt><trkpt lat="44.5313474" lon="8.0479514"><ele>734.6</ele><time>2026-04-11T08:03:12.189Z</time></trkpt><trkpt lat="44.5314324" lon="8.0478685"><ele>734.8</ele><time>2026-04-11T08:03:14.189Z</time></trkpt><trkpt lat="44.5315103" lon="8.0477862"><ele>735.0</ele><time>2026-04-11T08:03:16.189Z</time></trkpt><trkpt lat="44.5315888" lon="8.0476966"><ele>735.0</ele><time>2026-04-11T08:03:18.189Z</time></trkpt><trkpt lat="44.5316713" lon="8.0476191"><ele>735.0</ele><time>2026-04-11T08:03:20.188Z</time></trkpt><trkpt lat="44.5317452" lon="8.0475396"><ele>735.0</ele><time>2026-04-11T08:03:22.189Z</time></trkpt><trkpt lat="44.5318326" lon="8.0474733"><ele>735.0</ele><time>2026-04-11T08:03:24.189Z</time></trkpt><trkpt lat="44.5319116" lon="8.0473985"><ele>735.0</ele><time>2026-04-11T08:03:26.189Z</time></trkpt><trkpt lat="44.5319881" lon="8.0473214"><ele>734.0</ele><time>2026-04-11T08:03:28.189Z</time></trkpt><trkpt lat="44.5320606" lon="8.0472489"><ele>733.0</ele><time>2026-04-11T08:03:30.189Z</time></trkpt><trkpt lat="44.5321551" lon="8.0471917"><ele>732.0</ele><time>2026-04-11T08:03:32.189Z</time></trkpt><trkpt lat="44.5322388" lon="8.0471046"><ele>731.0</ele><time>2026-04-11T08:03:34.189Z</time></trkpt><trkpt lat="44.5323199" lon="8.0470126"><ele>730.0</ele><time>2026-04-11T08:03:36.189Z</time></trkpt><trkpt lat="44.5323881" lon="8.046917"><ele>730.0</ele><time>2026-04-11T08:03:38.189Z</time></trkpt><trkpt lat="44.5324857" lon="8.0468475"><ele>730.0</ele><time>2026-04-11T08:03:40.189Z</time></trkpt><trkpt lat="44.5325798" lon="8.0467628"><ele>730.0</ele><time>2026-04-11T08:03:42.19Z</time></trkpt><trkpt lat="44.5326512" lon="8.046731"><ele>730.0</ele><time>2026-04-11T08:03:46.19Z</time></trkpt><trkpt lat="44.5327173" lon="8.0466757"><ele>730.0</ele><time>2026-04-11T08:04:41.19Z</time></trkpt><trkpt lat="44.5327848" lon="8.0466287"><ele>730.0</ele><time>2026-04-11T08:04:43.19Z</time></trkpt><trkpt lat="44.5328591" lon="8.0467075"><ele>731.4</ele><time>2026-04-11T08:04:45.242Z</time></trkpt><trkpt lat="44.5329172" lon="8.0465805"><ele>732.8</ele><time>2026-04-11T08:04:46.19Z</time></trkpt><trkpt lat="44.5330137" lon="8.0465186"><ele>734.2</ele><time>2026-04-11T08:04:48.189Z</time></trkpt><trkpt lat="44.5331017" lon="8.0464659"><ele>735.6</ele><time>2026-04-11T08:04:50.19Z</time></trkpt><trkpt lat="44.533201" lon="8.046415"><ele>737.0</ele><time>2026-04-11T08:04:52.19Z</time></trkpt><trkpt lat="44.5332947" lon="8.0463683"><ele>737.0</ele><time>2026-04-11T08:04:54.19Z</time></trkpt><trkpt lat="44.5333763" lon="8.0463244"><ele>737.0</ele><time>2026-04-11T08:04:56.191Z</time></trkpt><trkpt lat="44.5334482" lon="8.0462758"><ele>737.0</ele><time>2026-04-11T08:04:59.19Z</time></trkpt><trkpt lat="44.5335027" lon="8.0461845"><ele>737.0</ele><time>2026-04-11T08:05:02.19Z</time></trkpt><trkpt lat="44.5334574" lon="8.0460651"><ele>737.0</ele><time>2026-04-11T08:05:05.19Z</time></trkpt><trkpt lat="44.5333777" lon="8.0460687"><ele>737.0</ele><time>2026-04-11T08:05:08.191Z</time></trkpt><trkpt lat="44.5333238" lon="8.0461219"><ele>737.0000000000001</ele><time>2026-04-11T08:05:38.19Z</time></trkpt><trkpt lat="44.5332478" lon="8.0461561"><ele>737.0</ele><time>2026-04-11T08:05:42.191Z</time></trkpt><trkpt lat="44.53318" lon="8.0461743"><ele>737.0</ele><time>2026-04-11T08:05:45.191Z</time></trkpt><trkpt lat="44.5331116" lon="8.046215"><ele>737.0</ele><time>2026-04-11T08:05:49.191Z</time></trkpt><trkpt lat="44.5330503" lon="8.0462441"><ele>737.0</ele><time>2026-04-11T08:05:52.191Z</time></trkpt><trkpt lat="44.532986" lon="8.04628"><ele>737.0000000000001</ele><time>2026-04-11T08:05:55.19Z</time></trkpt><trkpt lat="44.5329161" lon="8.0463292"><ele>737.0</ele><time>2026-04-11T08:05:58.192Z</time></trkpt><trkpt lat="44.5328457" lon="8.046366"><ele>737.0</ele><time>2026-04-11T08:06:01.191Z</time></trkpt><trkpt lat="44.5327784" lon="8.0463711"><ele>737.0</ele><time>2026-04-11T08:06:04.191Z</time></trkpt><trkpt lat="44.5327527" lon="8.046253"><ele>737.0</ele><time>2026-04-11T08:06:07.191Z</time></trkpt><trkpt lat="44.5327873" lon="8.0461497"><ele>737.0</ele><time>2026-04-11T08:06:10.192Z</time></trkpt><trkpt lat="44.5328351" lon="8.046071"><ele>737.0</ele><time>2026-04-11T08:06:14.19Z</time></trkpt><trkpt lat="44.5328928" lon="8.0459936"><ele>737.0</ele><time>2026-04-11T08:06:18.191Z</time></trkpt><trkpt lat="44.5329536" lon="8.0459293"><ele>737.0000000000001</ele><time>2026-04-11T08:06:22.191Z</time></trkpt><trkpt lat="44.5330072" lon="8.0458626"><ele>737.0</ele><time>2026-04-11T08:06:26.192Z</time></trkpt><trkpt lat="44.533073" lon="8.0458028"><ele>737.0</ele><time>2026-04-11T08:06:30.192Z</time></trkpt><trkpt lat="44.5331338" lon="8.0457325"><ele>737.0</ele><time>2026-04-11T08:06:34.192Z</time></trkpt><trkpt lat="44.533185" lon="8.0456721"><ele>737.0</ele><time>2026-04-11T08:06:37.192Z</time></trkpt><trkpt lat="44.5332382" lon="8.0456181"><ele>737.0000000000001</ele><time>2026-04-11T08:06:41.191Z</time></trkpt><trkpt lat="44.5332976" lon="8.045574"><ele>737.0</ele><time>2026-04-11T08:06:44.191Z</time></trkpt><trkpt lat="44.5333573" lon="8.0455343"><ele>736.8571428571429</ele><time>2026-04-11T08:06:47.192Z</time></trkpt><trkpt lat="44.5334112" lon="8.0454825"><ele>736.7142857142858</ele><time>2026-04-11T08:06:50.191Z</time></trkpt><trkpt lat="44.533468" lon="8.0454185"><ele>736.5714285714287</ele><time>2026-04-11T08:06:54.192Z</time></trkpt><trkpt lat="44.5335357" lon="8.0453613"><ele>736.4285714285714</ele><time>2026-04-11T08:06:58.192Z</time></trkpt><trkpt lat="44.5335994" lon="8.0453183"><ele>736.2857142857142</ele><time>2026-04-11T08:07:02.191Z</time></trkpt><trkpt lat="44.533661" lon="8.0452495"><ele>736.1428571428572</ele><time>2026-04-11T08:07:06.193Z</time></trkpt><trkpt lat="44.5337227" lon="8.0451846"><ele>736.0</ele><time>2026-04-11T08:07:10.191Z</time></trkpt><trkpt lat="44.5337822" lon="8.0451133"><ele>737.3333333333334</ele><time>2026-04-11T08:07:14.192Z</time></trkpt><trkpt lat="44.5338369" lon="8.0450318"><ele>738.6666666666667</ele><time>2026-04-11T08:07:17.192Z</time></trkpt><trkpt lat="44.5338828" lon="8.0449501"><ele>740.0</ele><time>2026-04-11T08:07:20.192Z</time></trkpt><trkpt lat="44.5339274" lon="8.0448585"><ele>741.3333333333334</ele><time>2026-04-11T08:07:23.193Z</time></trkpt><trkpt lat="44.53397" lon="8.0447646"><ele>742.6666666666666</ele><time>2026-04-11T08:07:26.193Z</time></trkpt><trkpt lat="44.5340182" lon="8.044677"><ele>744.0</ele><time>2026-04-11T08:07:29.192Z</time></trkpt><trkpt lat="44.5340585" lon="8.0445839"><ele>743.6666666666666</ele><time>2026-04-11T08:07:32.192Z</time></trkpt><trkpt lat="44.5341027" lon="8.0444932"><ele>743.3333333333334</ele><time>2026-04-11T08:07:35.192Z</time></trkpt><trkpt lat="44.534149" lon="8.0444039"><ele>743.0</ele><time>2026-04-11T08:07:38.193Z</time></trkpt><trkpt lat="44.5341892" lon="8.044309"><ele>742.6666666666667</ele><time>2026-04-11T08:07:41.193Z</time></trkpt><trkpt lat="44.5342168" lon="8.0442149"><ele>742.3333333333334</ele><time>2026-04-11T08:07:44.193Z</time></trkpt><trkpt lat="44.5342651" lon="8.0441161"><ele>742.0</ele><time>2026-04-11T08:07:47.193Z</time></trkpt><trkpt lat="44.5343067" lon="8.043997"><ele>742.0</ele><time>2026-04-11T08:07:50.193Z</time></trkpt><trkpt lat="44.5343225" lon="8.043909"><ele>742.0</ele><time>2026-04-11T08:07:52.193Z</time></trkpt><trkpt lat="44.5343609" lon="8.0437933"><ele>742.0</ele><time>2026-04-11T08:07:55.193Z</time></trkpt><trkpt lat="44.5344031" lon="8.0436752"><ele>742.0</ele><time>2026-04-11T08:07:58.193Z</time></trkpt><trkpt lat="44.5344264" lon="8.0435913"><ele>742.0</ele><time>2026-04-11T08:08:00.193Z</time></trkpt><trkpt lat="44.5344385" lon="8.0435034"><ele>742.0</ele><time>2026-04-11T08:08:02.193Z</time></trkpt><trkpt lat="44.5344519" lon="8.0434125"><ele>742.0</ele><time>2026-04-11T08:08:04.193Z</time></trkpt><trkpt lat="44.5344609" lon="8.0433236"><ele>742.1666666666667</ele><time>2026-04-11T08:08:06.193Z</time></trkpt><trkpt lat="44.5344645" lon="8.0431916"><ele>742.3333333333334</ele><time>2026-04-11T08:08:09.193Z</time></trkpt><trkpt lat="44.5344779" lon="8.0430644"><ele>742.5</ele><time>2026-04-11T08:08:12.194Z</time></trkpt><trkpt lat="44.5344893" lon="8.0429293"><ele>742.6666666666666</ele><time>2026-04-11T08:08:15.193Z</time></trkpt><trkpt lat="44.5345104" lon="8.0427984"><ele>742.8333333333333</ele><time>2026-04-11T08:08:18.194Z</time></trkpt><trkpt lat="44.5345379" lon="8.0427161"><ele>743.0</ele><time>2026-04-11T08:08:20.193Z</time></trkpt><trkpt lat="44.5345788" lon="8.0426023"><ele>743.3333333333333</ele><time>2026-04-11T08:08:23.193Z</time></trkpt><trkpt lat="44.53462" lon="8.0425115"><ele>743.6666666666666</ele><time>2026-04-11T08:08:26.192Z</time></trkpt><trkpt lat="44.5346622" lon="8.0424285"><ele>744.0</ele><time>2026-04-11T08:09:02.194Z</time></trkpt><trkpt lat="44.534702" lon="8.0423524"><ele>744.3333333333334</ele><time>2026-04-11T08:09:04.194Z</time></trkpt><trkpt lat="44.5347651" lon="8.0422465"><ele>744.6666666666667</ele><time>2026-04-11T08:09:06.194Z</time></trkpt><trkpt lat="44.5348053" lon="8.0421738"><ele>745.0</ele><time>2026-04-11T08:09:07.193Z</time></trkpt><trkpt lat="44.5348477" lon="8.0420854"><ele>745.3333333333334</ele><time>2026-04-11T08:09:08.194Z</time></trkpt><trkpt lat="44.5348941" lon="8.0420011"><ele>745.6666666666667</ele><time>2026-04-11T08:09:09.194Z</time></trkpt><trkpt lat="44.5349411" lon="8.0419056"><ele>746.0</ele><time>2026-04-11T08:09:10.193Z</time></trkpt><trkpt lat="44.5349944" lon="8.0418029"><ele>746.3333333333334</ele><time>2026-04-11T08:09:11.194Z</time></trkpt><trkpt lat="44.5350426" lon="8.0416841"><ele>746.6666666666666</ele><time>2026-04-11T08:09:12.194Z</time></trkpt><trkpt lat="44.5350892" lon="8.0415636"><ele>747.0</ele><time>2026-04-11T08:09:13.193Z</time></trkpt><trkpt lat="44.5351256" lon="8.0414349"><ele>745.8</ele><time>2026-04-11T08:09:14.194Z</time></trkpt><trkpt lat="44.5351558" lon="8.0413015"><ele>744.6</ele><time>2026-04-11T08:09:15.194Z</time></trkpt><trkpt lat="44.5351962" lon="8.0411771"><ele>743.4</ele><time>2026-04-11T08:09:16.194Z</time></trkpt><trkpt lat="44.5352537" lon="8.0410582"><ele>742.1999999999999</ele><time>2026-04-11T08:09:17.194Z</time></trkpt><trkpt lat="44.5353191" lon="8.0409697"><ele>741.0</ele><time>2026-04-11T08:09:18.193Z</time></trkpt><trkpt lat="44.5353911" lon="8.0409069"><ele>739.0</ele><time>2026-04-11T08:09:19.193Z</time></trkpt><trkpt lat="44.5354595" lon="8.0408478"><ele>737.0</ele><time>2026-04-11T08:09:20.194Z</time></trkpt><trkpt lat="44.5355242" lon="8.0407849"><ele>735.0</ele><time>2026-04-11T08:09:21.194Z</time></trkpt><trkpt lat="44.5355964" lon="8.0407097"><ele>733.0</ele><time>2026-04-11T08:09:22.194Z</time></trkpt><trkpt lat="44.5356756" lon="8.0406211"><ele>731.0</ele><time>2026-04-11T08:09:23.194Z</time></trkpt><trkpt lat="44.5357608" lon="8.0405178"><ele>730.25</ele><time>2026-04-11T08:09:24.194Z</time></trkpt><trkpt lat="44.5358466" lon="8.0404074"><ele>729.5</ele><time>2026-04-11T08:09:25.194Z</time></trkpt><trkpt lat="44.5359283" lon="8.0402883"><ele>728.75</ele><time>2026-04-11T08:09:26.194Z</time></trkpt><trkpt lat="44.5360047" lon="8.0401589"><ele>728.0</ele><time>2026-04-11T08:09:27.194Z</time></trkpt><trkpt lat="44.5360718" lon="8.040023"><ele>726.0</ele><time>2026-04-11T08:09:28.193Z</time></trkpt><trkpt lat="44.5361385" lon="8.0398805"><ele>724.0</ele><time>2026-04-11T08:09:29.194Z</time></trkpt><trkpt lat="44.5362052" lon="8.0397337"><ele>722.0</ele><time>2026-04-11T08:09:30.193Z</time></trkpt><trkpt lat="44.5362767" lon="8.0395962"><ele>720.0</ele><time>2026-04-11T08:09:31.194Z</time></trkpt><trkpt lat="44.5363517" lon="8.0394656"><ele>720.0</ele><time>2026-04-11T08:09:32.194Z</time></trkpt><trkpt lat="44.5364313" lon="8.0393564"><ele>720.0</ele><time>2026-04-11T08:09:33.194Z</time></trkpt><trkpt lat="44.5365204" lon="8.0392723"><ele>720.0</ele><time>2026-04-11T08:09:34.194Z</time></trkpt><trkpt lat="44.5366068" lon="8.0391955"><ele>720.0</ele><time>2026-04-11T08:09:35.194Z</time></trkpt><trkpt lat="44.5366823" lon="8.0391303"><ele>720.0</ele><time>2026-04-11T08:09:36.193Z</time></trkpt><trkpt lat="44.5367493" lon="8.0390765"><ele>720.0</ele><time>2026-04-11T08:09:37.194Z</time></trkpt><trkpt lat="44.5368179" lon="8.0390309"><ele>720.0</ele><time>2026-04-11T08:09:38.194Z</time></trkpt><trkpt lat="44.5368951" lon="8.0389865"><ele>720.0</ele><time>2026-04-11T08:09:39.194Z</time></trkpt><trkpt lat="44.5369808" lon="8.038928"><ele>720.0</ele><time>2026-04-11T08:09:40.193Z</time></trkpt><trkpt lat="44.5370653" lon="8.0388537"><ele>720.0</ele><time>2026-04-11T08:09:41.195Z</time></trkpt><trkpt lat="44.5371375" lon="8.0387807"><ele>720.0</ele><time>2026-04-11T08:09:42.194Z</time></trkpt><trkpt lat="44.5371948" lon="8.0387178"><ele>720.0</ele><time>2026-04-11T08:09:43.195Z</time></trkpt><trkpt lat="44.5372681" lon="8.0386275"><ele>720.0</ele><time>2026-04-11T08:09:45.195Z</time></trkpt><trkpt lat="44.537265" lon="8.0385184"><ele>720.0</ele><time>2026-04-11T08:09:49.195Z</time></trkpt><trkpt lat="44.5372321" lon="8.0384251"><ele>720.0</ele><time>2026-04-11T08:09:52.195Z</time></trkpt><trkpt lat="44.5372279" lon="8.0383303"><ele>720.0</ele><time>2026-04-11T08:09:54.195Z</time></trkpt><trkpt lat="44.5372728" lon="8.0382653"><ele>720.0</ele><time>2026-04-11T08:09:57.195Z</time></trkpt><trkpt lat="44.537345" lon="8.0382982"><ele>720.0</ele><time>2026-04-11T08:11:31.196Z</time></trkpt><trkpt lat="44.5374269" lon="8.038287"><ele>720.0</ele><time>2026-04-11T08:11:35.259Z</time></trkpt><trkpt lat="44.5375195" lon="8.0383158"><ele>720.0</ele><time>2026-04-11T08:11:38.276Z</time></trkpt><trkpt lat="44.5375867" lon="8.038306"><ele>720.0</ele><time>2026-04-11T08:11:40.258Z</time></trkpt><trkpt lat="44.537672" lon="8.0382989"><ele>720.0</ele><time>2026-04-11T08:11:43.275Z</time></trkpt><trkpt lat="44.5377468" lon="8.0382925"><ele>720.0</ele><time>2026-04-11T08:11:47.258Z</time></trkpt><trkpt lat="44.5378118" lon="8.0382748"><ele>719.5</ele><time>2026-04-11T08:11:50.259Z</time></trkpt><trkpt lat="44.5378604" lon="8.0382064"><ele>719.0</ele><time>2026-04-11T08:12:36.197Z</time></trkpt><trkpt lat="44.5379396" lon="8.0382532"><ele>718.5</ele><time>2026-04-11T08:12:44.196Z</time></trkpt><trkpt lat="44.5380302" lon="8.0382447"><ele>718.0</ele><time>2026-04-11T08:12:47.197Z</time></trkpt><trkpt lat="44.5381171" lon="8.0382775"><ele>717.5</ele><time>2026-04-11T08:12:50.197Z</time></trkpt><trkpt lat="44.538204" lon="8.0383271"><ele>717.0</ele><time>2026-04-11T08:12:53.196Z</time></trkpt><trkpt lat="44.5382735" lon="8.0383689"><ele>717.0</ele><time>2026-04-11T08:12:55.197Z</time></trkpt><trkpt lat="44.5383354" lon="8.0383995"><ele>717.0</ele><time>2026-04-11T08:12:57.197Z</time></trkpt><trkpt lat="44.5384084" lon="8.0384353"><ele>717.0</ele><time>2026-04-11T08:13:00.197Z</time></trkpt><trkpt lat="44.5384852" lon="8.0384482"><ele>717.0</ele><time>2026-04-11T08:13:05.197Z</time></trkpt><trkpt lat="44.5385688" lon="8.0384283"><ele>717.0</ele><time>2026-04-11T08:13:08.198Z</time></trkpt><trkpt lat="44.5386386" lon="8.0383633"><ele>717.0</ele><time>2026-04-11T08:13:11.196Z</time></trkpt><trkpt lat="44.5387004" lon="8.0383045"><ele>717.0</ele><time>2026-04-11T08:13:14.198Z</time></trkpt><trkpt lat="44.5387603" lon="8.0382454"><ele>717.0</ele><time>2026-04-11T08:13:17.198Z</time></trkpt><trkpt lat="44.5388132" lon="8.038171"><ele>717.0</ele><time>2026-04-11T08:13:20.198Z</time></trkpt><trkpt lat="44.5388631" lon="8.0380816"><ele>717.0</ele><time>2026-04-11T08:13:23.198Z</time></trkpt><trkpt lat="44.5389097" lon="8.0379875"><ele>717.0</ele><time>2026-04-11T08:13:26.198Z</time></trkpt><trkpt lat="44.5389706" lon="8.0378879"><ele>717.0</ele><time>2026-04-11T08:13:29.198Z</time></trkpt><trkpt lat="44.5390327" lon="8.0377988"><ele>717.0</ele><time>2026-04-11T08:13:31.198Z</time></trkpt><trkpt lat="44.5390793" lon="8.0376755"><ele>717.0</ele><time>2026-04-11T08:13:33.198Z</time></trkpt><trkpt lat="44.539116" lon="8.0375518"><ele>717.0</ele><time>2026-04-11T08:13:35.198Z</time></trkpt><trkpt lat="44.5391659" lon="8.0374272"><ele>717.0</ele><time>2026-04-11T08:13:37.198Z</time></trkpt><trkpt lat="44.5392106" lon="8.0373345"><ele>717.0</ele><time>2026-04-11T08:13:39.198Z</time></trkpt><trkpt lat="44.5392635" lon="8.0372497"><ele>719.1666666666666</ele><time>2026-04-11T08:13:44.198Z</time></trkpt><trkpt lat="44.5392976" lon="8.0371565"><ele>721.3333333333334</ele><time>2026-04-11T08:13:48.198Z</time></trkpt><trkpt lat="44.5393423" lon="8.0370632"><ele>723.5</ele><time>2026-04-11T08:13:52.198Z</time></trkpt><trkpt lat="44.5393752" lon="8.0369819"><ele>725.6666666666667</ele><time>2026-04-11T08:13:54.198Z</time></trkpt><trkpt lat="44.539415" lon="8.0368604"><ele>727.8333333333334</ele><time>2026-04-11T08:13:57.198Z</time></trkpt><trkpt lat="44.5394322" lon="8.0367551"><ele>730.0</ele><time>2026-04-11T08:13:59.198Z</time></trkpt><trkpt lat="44.5394376" lon="8.0366224"><ele>731.6</ele><time>2026-04-11T08:14:01.199Z</time></trkpt><trkpt lat="44.5394666" lon="8.0364838"><ele>733.2</ele><time>2026-04-11T08:14:03.197Z</time></trkpt><trkpt lat="44.5395104" lon="8.0363718"><ele>734.8</ele><time>2026-04-11T08:14:05.198Z</time></trkpt><trkpt lat="44.5395619" lon="8.036292"><ele>736.4</ele><time>2026-04-11T08:14:07.198Z</time></trkpt><trkpt lat="44.5395875" lon="8.0361893"><ele>738.0</ele><time>2026-04-11T08:14:10.199Z</time></trkpt><trkpt lat="44.5396214" lon="8.0360457"><ele>737.0</ele><time>2026-04-11T08:14:13.198Z</time></trkpt><trkpt lat="44.5396659" lon="8.0359514"><ele>736.0</ele><time>2026-04-11T08:14:15.198Z</time></trkpt><trkpt lat="44.5397181" lon="8.03586"><ele>735.0</ele><time>2026-04-11T08:14:17.198Z</time></trkpt><trkpt lat="44.5397805" lon="8.0358216"><ele>734.0</ele><time>2026-04-11T08:14:19.198Z</time></trkpt><trkpt lat="44.539844" lon="8.0357933"><ele>733.0</ele><time>2026-04-11T08:14:21.199Z</time></trkpt><trkpt lat="44.539906" lon="8.0357538"><ele>732.0</ele><time>2026-04-11T08:14:23.199Z</time></trkpt><trkpt lat="44.539998" lon="8.0357389"><ele>732.0</ele><time>2026-04-11T08:14:26.199Z</time></trkpt><trkpt lat="44.5400794" lon="8.0357484"><ele>732.0</ele><time>2026-04-11T08:14:28.199Z</time></trkpt><trkpt lat="44.5401575" lon="8.035761"><ele>732.0</ele><time>2026-04-11T08:14:30.198Z</time></trkpt><trkpt lat="44.5402428" lon="8.0357655"><ele>732.0</ele><time>2026-04-11T08:14:33.199Z</time></trkpt><trkpt lat="44.540319" lon="8.0357801"><ele>732.0</ele><time>2026-04-11T08:14:36.199Z</time></trkpt><trkpt lat="44.540413" lon="8.0357578"><ele>732.0</ele><time>2026-04-11T08:14:39.198Z</time></trkpt><trkpt lat="44.5404901" lon="8.0357338"><ele>728.5</ele><time>2026-04-11T08:14:41.199Z</time></trkpt><trkpt lat="44.5405628" lon="8.0357214"><ele>725.0</ele><time>2026-04-11T08:14:43.199Z</time></trkpt><trkpt lat="44.5406436" lon="8.0357291"><ele>721.5</ele><time>2026-04-11T08:14:46.199Z</time></trkpt><trkpt lat="44.5407112" lon="8.0357695"><ele>718.0</ele><time>2026-04-11T08:14:48.198Z</time></trkpt><trkpt lat="44.540793" lon="8.0357929"><ele>714.5</ele><time>2026-04-11T08:14:50.199Z</time></trkpt><trkpt lat="44.5408673" lon="8.0357917"><ele>711.0</ele><time>2026-04-11T08:14:52.199Z</time></trkpt><trkpt lat="44.5409352" lon="8.0357448"><ele>711.0</ele><time>2026-04-11T08:14:54.199Z</time></trkpt><trkpt lat="44.5409914" lon="8.0356954"><ele>711.0</ele><time>2026-04-11T08:14:56.198Z</time></trkpt><trkpt lat="44.5410399" lon="8.0356294"><ele>711.0</ele><time>2026-04-11T08:14:58.199Z</time></trkpt><trkpt lat="44.5410843" lon="8.0355565"><ele>711.0</ele><time>2026-04-11T08:15:00.198Z</time></trkpt><trkpt lat="44.5411485" lon="8.0354405"><ele>711.0</ele><time>2026-04-11T08:15:03.199Z</time></trkpt><trkpt lat="44.5412259" lon="8.0353054"><ele>711.0</ele><time>2026-04-11T08:15:05.2Z</time></trkpt><trkpt lat="44.5412722" lon="8.0352098"><ele>709.4285714285714</ele><time>2026-04-11T08:15:07.199Z</time></trkpt><trkpt lat="44.5412911" lon="8.0351194"><ele>707.8571428571429</ele><time>2026-04-11T08:15:10.198Z</time></trkpt><trkpt lat="44.541309" lon="8.0350189"><ele>706.2857142857142</ele><time>2026-04-11T08:15:13.2Z</time></trkpt><trkpt lat="44.5413281" lon="8.0349342"><ele>704.7142857142858</ele><time>2026-04-11T08:15:15.199Z</time></trkpt><trkpt lat="44.5413744" lon="8.0348458"><ele>703.1428571428571</ele><time>2026-04-11T08:15:18.198Z</time></trkpt><trkpt lat="44.5414196" lon="8.0347382"><ele>701.5714285714286</ele><time>2026-04-11T08:15:22.198Z</time></trkpt><trkpt lat="44.5414623" lon="8.0346601"><ele>700.0</ele><time>2026-04-11T08:15:24.199Z</time></trkpt><trkpt lat="44.5415331" lon="8.0345908"><ele>700.0</ele><time>2026-04-11T08:15:27.2Z</time></trkpt><trkpt lat="44.541603" lon="8.0345478"><ele>700.0</ele><time>2026-04-11T08:15:30.2Z</time></trkpt><trkpt lat="44.5416791" lon="8.0344974"><ele>700.0</ele><time>2026-04-11T08:15:33.2Z</time></trkpt><trkpt lat="44.5417362" lon="8.034432"><ele>700.0</ele><time>2026-04-11T08:15:36.2Z</time></trkpt><trkpt lat="44.5417756" lon="8.0343494"><ele>700.0</ele><time>2026-04-11T08:15:39.2Z</time></trkpt><trkpt lat="44.5418252" lon="8.03427"><ele>700.0</ele><time>2026-04-11T08:15:42.2Z</time></trkpt><trkpt lat="44.5418732" lon="8.0341843"><ele>702.0</ele><time>2026-04-11T08:15:45.2Z</time></trkpt><trkpt lat="44.5419418" lon="8.0340767"><ele>704.0</ele><time>2026-04-11T08:16:38.281Z</time></trkpt><trkpt lat="44.5419676" lon="8.0339854"><ele>706.0</ele><time>2026-04-11T08:16:41.201Z</time></trkpt><trkpt lat="44.5420219" lon="8.0339232"><ele>708.0</ele><time>2026-04-11T08:16:44.248Z</time></trkpt><trkpt lat="44.5420691" lon="8.0338379"><ele>710.0</ele><time>2026-04-11T08:16:47.137Z</time></trkpt><trkpt lat="44.5420979" lon="8.033757"><ele>712.0</ele><time>2026-04-11T08:16:50.037Z</time></trkpt><trkpt lat="44.5421269" lon="8.0336761"><ele>714.0</ele><time>2026-04-11T08:16:53.2Z</time></trkpt><trkpt lat="44.5421348" lon="8.0335731"><ele>710.6666666666666</ele><time>2026-04-11T08:16:58.229Z</time></trkpt><trkpt lat="44.5421502" lon="8.0334691"><ele>707.3333333333334</ele><time>2026-04-11T08:17:02.201Z</time></trkpt><trkpt lat="44.5421573" lon="8.03337"><ele>704.0</ele><time>2026-04-11T08:17:06.201Z</time></trkpt><trkpt lat="44.5421682" lon="8.0332587"><ele>700.6666666666667</ele><time>2026-04-11T08:17:10.201Z</time></trkpt><trkpt lat="44.5421831" lon="8.0331546"><ele>697.3333333333334</ele><time>2026-04-11T08:17:14.201Z</time></trkpt><trkpt lat="44.542182" lon="8.0330442"><ele>694.0</ele><time>2026-04-11T08:17:18.201Z</time></trkpt><trkpt lat="44.5421815" lon="8.0329338"><ele>694.0</ele><time>2026-04-11T08:17:22.2Z</time></trkpt><trkpt lat="44.5422123" lon="8.0328397"><ele>694.0</ele><time>2026-04-11T08:17:25.201Z</time></trkpt><trkpt lat="44.5422292" lon="8.0327514"><ele>694.0</ele><time>2026-04-11T08:17:29.201Z</time></trkpt><trkpt lat="44.5422487" lon="8.0326575"><ele>694.0</ele><time>2026-04-11T08:17:33.201Z</time></trkpt><trkpt lat="44.542275" lon="8.0325655"><ele>694.0</ele><time>2026-04-11T08:17:37.2Z</time></trkpt><trkpt lat="44.5423103" lon="8.0324695"><ele>694.0</ele><time>2026-04-11T08:17:41.201Z</time></trkpt><trkpt lat="44.5423291" lon="8.0323654"><ele>694.0</ele><time>2026-04-11T08:17:44.201Z</time></trkpt><trkpt lat="44.542356" lon="8.0322602"><ele>694.8571428571429</ele><time>2026-04-11T08:17:48.202Z</time></trkpt><trkpt lat="44.5423829" lon="8.0321675"><ele>695.7142857142857</ele><time>2026-04-11T08:17:52.202Z</time></trkpt><trkpt lat="44.5424206" lon="8.0320684"><ele>696.5714285714286</ele><time>2026-04-11T08:17:56.202Z</time></trkpt><trkpt lat="44.5424465" lon="8.0319775"><ele>697.4285714285714</ele><time>2026-04-11T08:17:59.202Z</time></trkpt><trkpt lat="44.5424672" lon="8.0318897"><ele>698.2857142857142</ele><time>2026-04-11T08:18:02.201Z</time></trkpt><trkpt lat="44.5424758" lon="8.0317794"><ele>699.1428571428571</ele><time>2026-04-11T08:18:07.202Z</time></trkpt><trkpt lat="44.5425402" lon="8.0317414"><ele>700.0</ele><time>2026-04-11T08:19:25.292Z</time></trkpt><trkpt lat="44.5425981" lon="8.0316675"><ele>698.8571428571429</ele><time>2026-04-11T08:19:28.322Z</time></trkpt><trkpt lat="44.5426481" lon="8.0316086"><ele>697.7142857142858</ele><time>2026-04-11T08:19:30.279Z</time></trkpt><trkpt lat="44.5426995" lon="8.0315535"><ele>696.5714285714286</ele><time>2026-04-11T08:19:32.205Z</time></trkpt><trkpt lat="44.5427607" lon="8.0314805"><ele>695.4285714285714</ele><time>2026-04-11T08:19:35.106Z</time></trkpt><trkpt lat="44.5428001" lon="8.0313972"><ele>694.2857142857143</ele><time>2026-04-11T08:19:39.224Z</time></trkpt><trkpt lat="44.542838" lon="8.0312875"><ele>693.1428571428571</ele><time>2026-04-11T08:19:43.203Z</time></trkpt><trkpt lat="44.5428573" lon="8.0311996"><ele>692.0</ele><time>2026-04-11T08:19:47.275Z</time></trkpt><trkpt lat="44.5428769" lon="8.0311071"><ele>692.1666666666666</ele><time>2026-04-11T08:20:21.208Z</time></trkpt><trkpt lat="44.542894" lon="8.030978"><ele>692.3333333333333</ele><time>2026-04-11T08:20:24.241Z</time></trkpt><trkpt lat="44.542932" lon="8.0308933"><ele>692.5</ele><time>2026-04-11T08:20:26.204Z</time></trkpt><trkpt lat="44.5429764" lon="8.0307975"><ele>692.6666666666666</ele><time>2026-04-11T08:20:29.257Z</time></trkpt><trkpt lat="44.5430097" lon="8.0307169"><ele>692.8333333333334</ele><time>2026-04-11T08:20:36.98Z</time></trkpt><trkpt lat="44.5430392" lon="8.0306383"><ele>693.0</ele><time>2026-04-11T08:20:45.291Z</time></trkpt><trkpt lat="44.5430298" lon="8.0305063"><ele>693.1666666666666</ele><time>2026-04-11T08:21:31.204Z</time></trkpt><trkpt lat="44.5430614" lon="8.0304129"><ele>693.3333333333334</ele><time>2026-04-11T08:21:34.249Z</time></trkpt><trkpt lat="44.5430652" lon="8.0303126"><ele>693.5</ele><time>2026-04-11T08:21:37.299Z</time></trkpt><trkpt lat="44.5430526" lon="8.030221"><ele>693.6666666666667</ele><time>2026-04-11T08:21:43.249Z</time></trkpt><trkpt lat="44.543068" lon="8.0301254"><ele>693.8333333333334</ele><time>2026-04-11T08:21:47.205Z</time></trkpt><trkpt lat="44.5431041" lon="8.0300338"><ele>694.0</ele><time>2026-04-11T08:21:50.288Z</time></trkpt><trkpt lat="44.5431773" lon="8.0299374"><ele>694.0</ele><time>2026-04-11T08:21:53.255Z</time></trkpt><trkpt lat="44.5432733" lon="8.0298239"><ele>694.0</ele><time>2026-04-11T08:21:55.205Z</time></trkpt><trkpt lat="44.5433117" lon="8.0297339"><ele>694.0</ele><time>2026-04-11T08:21:58.205Z</time></trkpt><trkpt lat="44.5433475" lon="8.0296092"><ele>694.0</ele><time>2026-04-11T08:22:01.205Z</time></trkpt><trkpt lat="44.5433661" lon="8.0294808"><ele>694.0</ele><time>2026-04-11T08:22:04.205Z</time></trkpt><trkpt lat="44.5434021" lon="8.0293959"><ele>694.0</ele><time>2026-04-11T08:22:07.205Z</time></trkpt><trkpt lat="44.5434543" lon="8.0292859"><ele>694.0</ele><time>2026-04-11T08:22:11.205Z</time></trkpt><trkpt lat="44.5434866" lon="8.0291626"><ele>694.0</ele><time>2026-04-11T08:22:14.205Z</time></trkpt><trkpt lat="44.5435256" lon="8.0290764"><ele>694.0</ele><time>2026-04-11T08:22:17.205Z</time></trkpt><trkpt lat="44.5435778" lon="8.0290214"><ele>694.0</ele><time>2026-04-11T08:22:21.205Z</time></trkpt><trkpt lat="44.5436329" lon="8.0289289"><ele>694.0</ele><time>2026-04-11T08:22:24.205Z</time></trkpt><trkpt lat="44.5436861" lon="8.0288783"><ele>692.6666666666667</ele><time>2026-04-11T08:22:26.205Z</time></trkpt><trkpt lat="44.5437495" lon="8.0287843"><ele>691.3333333333334</ele><time>2026-04-11T08:22:29.205Z</time></trkpt><trkpt lat="44.5437911" lon="8.0287125"><ele>690.0</ele><time>2026-04-11T08:22:31.205Z</time></trkpt><trkpt lat="44.5438173" lon="8.0286138"><ele>688.6666666666666</ele><time>2026-04-11T08:22:33.205Z</time></trkpt><trkpt lat="44.5438294" lon="8.0285262"><ele>687.3333333333333</ele><time>2026-04-11T08:22:35.204Z</time></trkpt><trkpt lat="44.5438145" lon="8.028408"><ele>686.0</ele><time>2026-04-11T08:22:38.205Z</time></trkpt><trkpt lat="44.5437872" lon="8.0283143"><ele>685.0</ele><time>2026-04-11T08:22:40.205Z</time></trkpt><trkpt lat="44.5437689" lon="8.0282191"><ele>684.0</ele><time>2026-04-11T08:22:42.206Z</time></trkpt><trkpt lat="44.543753" lon="8.0281176"><ele>683.0</ele><time>2026-04-11T08:22:44.206Z</time></trkpt><trkpt lat="44.5437478" lon="8.0280144"><ele>682.0</ele><time>2026-04-11T08:22:46.206Z</time></trkpt><trkpt lat="44.5437571" lon="8.02791"><ele>681.0</ele><time>2026-04-11T08:22:49.206Z</time></trkpt><trkpt lat="44.5438113" lon="8.0278065"><ele>680.0</ele><time>2026-04-11T08:22:52.206Z</time></trkpt><trkpt lat="44.5438532" lon="8.0277187"><ele>680.0</ele><time>2026-04-11T08:22:54.206Z</time></trkpt><trkpt lat="44.5438826" lon="8.0275997"><ele>680.0</ele><time>2026-04-11T08:22:57.206Z</time></trkpt><trkpt lat="44.5439062" lon="8.0275064"><ele>680.0</ele><time>2026-04-11T08:23:00.206Z</time></trkpt><trkpt lat="44.5438819" lon="8.0274079"><ele>680.0</ele><time>2026-04-11T08:23:03.205Z</time></trkpt><trkpt lat="44.5438236" lon="8.0273452"><ele>680.0</ele><time>2026-04-11T08:23:21.206Z</time></trkpt><trkpt lat="44.5438426" lon="8.0272533"><ele>680.0</ele><time>2026-04-11T08:24:13.207Z</time></trkpt><trkpt lat="44.5438649" lon="8.0271693"><ele>680.0</ele><time>2026-04-11T08:24:15.207Z</time></trkpt><trkpt lat="44.5438966" lon="8.0270787"><ele>678.5</ele><time>2026-04-11T08:24:17.207Z</time></trkpt><trkpt lat="44.5439422" lon="8.0269815"><ele>677.0</ele><time>2026-04-11T08:24:20.206Z</time></trkpt><trkpt lat="44.5439675" lon="8.0268637"><ele>675.5</ele><time>2026-04-11T08:24:23.207Z</time></trkpt><trkpt lat="44.5439881" lon="8.026759"><ele>674.0</ele><time>2026-04-11T08:24:25.207Z</time></trkpt><trkpt lat="44.5440256" lon="8.0266536"><ele>672.5</ele><time>2026-04-11T08:24:28.207Z</time></trkpt><trkpt lat="44.5440494" lon="8.0265666"><ele>671.0</ele><time>2026-04-11T08:24:30.207Z</time></trkpt><trkpt lat="44.5440699" lon="8.0264462"><ele>670.0</ele><time>2026-04-11T08:24:33.207Z</time></trkpt><trkpt lat="44.5440621" lon="8.026348"><ele>669.0</ele><time>2026-04-11T08:24:35.206Z</time></trkpt><trkpt lat="44.5440565" lon="8.0262295"><ele>668.0</ele><time>2026-04-11T08:24:37.206Z</time></trkpt><trkpt lat="44.5440535" lon="8.0260932"><ele>667.0</ele><time>2026-04-11T08:24:39.207Z</time></trkpt><trkpt lat="44.54404" lon="8.0259649"><ele>666.0</ele><time>2026-04-11T08:24:41.207Z</time></trkpt><trkpt lat="44.5440256" lon="8.0258632"><ele>665.0</ele><time>2026-04-11T08:24:43.207Z</time></trkpt><trkpt lat="44.5440081" lon="8.025774"><ele>664.0</ele><time>2026-04-11T08:24:45.207Z</time></trkpt><trkpt lat="44.5439968" lon="8.0256843"><ele>663.0</ele><time>2026-04-11T08:24:47.207Z</time></trkpt><trkpt lat="44.543979" lon="8.0255609"><ele>662.0</ele><time>2026-04-11T08:24:50.207Z</time></trkpt><trkpt lat="44.5439644" lon="8.0254498"><ele>661.0</ele><time>2026-04-11T08:24:53.207Z</time></trkpt><trkpt lat="44.5439453" lon="8.0253423"><ele>660.0</ele><time>2026-04-11T08:24:56.207Z</time></trkpt><trkpt lat="44.5439457" lon="8.0252522"><ele>659.0</ele><time>2026-04-11T08:24:59.206Z</time></trkpt><trkpt lat="44.5439619" lon="8.0251555"><ele>658.0</ele><time>2026-04-11T08:25:01.206Z</time></trkpt><trkpt lat="44.5439797" lon="8.0250555"><ele>657.1428571428571</ele><time>2026-04-11T08:25:03.207Z</time></trkpt><trkpt lat="44.5439795" lon="8.0249346"><ele>656.2857142857142</ele><time>2026-04-11T08:25:06.206Z</time></trkpt><trkpt lat="44.5439777" lon="8.0248365"><ele>655.4285714285714</ele><time>2026-04-11T08:25:08.206Z</time></trkpt><trkpt lat="44.5439688" lon="8.024731"><ele>654.5714285714286</ele><time>2026-04-11T08:25:10.207Z</time></trkpt><trkpt lat="44.5439289" lon="8.0246491"><ele>653.7142857142857</ele><time>2026-04-11T08:25:14.208Z</time></trkpt><trkpt lat="44.5439272" lon="8.0245608"><ele>652.8571428571429</ele><time>2026-04-11T08:25:17.208Z</time></trkpt><trkpt lat="44.5439521" lon="8.0244737"><ele>652.0</ele><time>2026-04-11T08:25:20.208Z</time></trkpt><trkpt lat="44.5439886" lon="8.0243925"><ele>652.0</ele><time>2026-04-11T08:25:25.208Z</time></trkpt><trkpt lat="44.5439275" lon="8.0244211"><ele>652.0</ele><time>2026-04-11T08:25:59.208Z</time></trkpt><trkpt lat="44.5439267" lon="8.0243187"><ele>652.0</ele><time>2026-04-11T08:26:17.208Z</time></trkpt><trkpt lat="44.5439379" lon="8.0242224"><ele>652.0</ele><time>2026-04-11T08:26:21.208Z</time></trkpt><trkpt lat="44.5439434" lon="8.0241192"><ele>652.0</ele><time>2026-04-11T08:26:24.208Z</time></trkpt><trkpt lat="44.5439496" lon="8.024003"><ele>652.0</ele><time>2026-04-11T08:26:29.209Z</time></trkpt><trkpt lat="44.5439368" lon="8.0238835"><ele>651.1428571428572</ele><time>2026-04-11T08:26:32.209Z</time></trkpt><trkpt lat="44.5439245" lon="8.0237968"><ele>650.2857142857142</ele><time>2026-04-11T08:26:35.209Z</time></trkpt><trkpt lat="44.5439124" lon="8.0237079"><ele>649.4285714285714</ele><time>2026-04-11T08:26:38.209Z</time></trkpt><trkpt lat="44.5439048" lon="8.0236059"><ele>648.5714285714287</ele><time>2026-04-11T08:26:41.209Z</time></trkpt><trkpt lat="44.543902" lon="8.0235173"><ele>647.7142857142858</ele><time>2026-04-11T08:26:43.209Z</time></trkpt><trkpt lat="44.5438902" lon="8.0234305"><ele>646.8571428571429</ele><time>2026-04-11T08:26:45.209Z</time></trkpt><trkpt lat="44.5438676" lon="8.02334"><ele>646.0</ele><time>2026-04-11T08:26:47.209Z</time></trkpt><trkpt lat="44.5438363" lon="8.0232268"><ele>644.3333333333334</ele><time>2026-04-11T08:26:50.209Z</time></trkpt><trkpt lat="44.5438472" lon="8.0231201"><ele>642.6666666666667</ele><time>2026-04-11T08:26:53.209Z</time></trkpt><trkpt lat="44.5437934" lon="8.0229744"><ele>641.0</ele><time>2026-04-11T08:26:57.209Z</time></trkpt><trkpt lat="44.5437308" lon="8.0229164"><ele>639.3333333333334</ele><time>2026-04-11T08:26:59.209Z</time></trkpt><trkpt lat="44.543672" lon="8.022856"><ele>637.6666666666666</ele><time>2026-04-11T08:27:02.209Z</time></trkpt><trkpt lat="44.5436444" lon="8.0227731"><ele>636.0</ele><time>2026-04-11T08:27:04.209Z</time></trkpt><trkpt lat="44.5436091" lon="8.0226878"><ele>636.0</ele><time>2026-04-11T08:27:06.209Z</time></trkpt><trkpt lat="44.5435748" lon="8.0225986"><ele>636.0</ele><time>2026-04-11T08:27:08.208Z</time></trkpt><trkpt lat="44.5435584" lon="8.0224925"><ele>636.0</ele><time>2026-04-11T08:27:10.209Z</time></trkpt><trkpt lat="44.543541" lon="8.0223696"><ele>636.0</ele><time>2026-04-11T08:27:12.209Z</time></trkpt><trkpt lat="44.5434769" lon="8.0222277"><ele>636.0</ele><time>2026-04-11T08:27:14.209Z</time></trkpt><trkpt lat="44.5434009" lon="8.0221007"><ele>635.4</ele><time>2026-04-11T08:27:16.209Z</time></trkpt><trkpt lat="44.5433274" lon="8.0219893"><ele>634.8</ele><time>2026-04-11T08:27:18.209Z</time></trkpt><trkpt lat="44.5432647" lon="8.0218589"><ele>634.1999999999999</ele><time>2026-04-11T08:27:20.208Z</time></trkpt><trkpt lat="44.5432183" lon="8.0217205"><ele>633.6</ele><time>2026-04-11T08:27:22.209Z</time></trkpt><trkpt lat="44.5431759" lon="8.0215939"><ele>633.0</ele><time>2026-04-11T08:27:24.209Z</time></trkpt><trkpt lat="44.5431237" lon="8.0214763"><ele>631.8</ele><time>2026-04-11T08:27:26.209Z</time></trkpt><trkpt lat="44.543067" lon="8.0213701"><ele>630.5999999999999</ele><time>2026-04-11T08:27:28.208Z</time></trkpt><trkpt lat="44.5430043" lon="8.0212565"><ele>629.4000000000001</ele><time>2026-04-11T08:27:30.209Z</time></trkpt><trkpt lat="44.5429527" lon="8.0211213"><ele>628.2</ele><time>2026-04-11T08:27:32.209Z</time></trkpt><trkpt lat="44.5428956" lon="8.0209936"><ele>627.0</ele><time>2026-04-11T08:27:34.208Z</time></trkpt><trkpt lat="44.5428221" lon="8.020854"><ele>626.5</ele><time>2026-04-11T08:27:36.209Z</time></trkpt><trkpt lat="44.5427446" lon="8.0207231"><ele>626.0</ele><time>2026-04-11T08:27:38.209Z</time></trkpt><trkpt lat="44.5426674" lon="8.0205819"><ele>625.5</ele><time>2026-04-11T08:27:40.209Z</time></trkpt><trkpt lat="44.5426304" lon="8.0205063"><ele>625.0</ele><time>2026-04-11T08:27:41.209Z</time></trkpt><trkpt lat="44.5425934" lon="8.020428"><ele>624.5</ele><time>2026-04-11T08:27:42.21Z</time></trkpt><trkpt lat="44.5425619" lon="8.020342"><ele>624.0</ele><time>2026-04-11T08:27:43.21Z</time></trkpt><trkpt lat="44.5425369" lon="8.0202542"><ele>624.0</ele><time>2026-04-11T08:27:44.21Z</time></trkpt><trkpt lat="44.5425151" lon="8.0201663"><ele>624.0</ele><time>2026-04-11T08:27:45.21Z</time></trkpt><trkpt lat="44.5424957" lon="8.0200816"><ele>624.0</ele><time>2026-04-11T08:27:46.21Z</time></trkpt><trkpt lat="44.5424593" lon="8.0199155"><ele>624.0</ele><time>2026-04-11T08:27:48.21Z</time></trkpt><trkpt lat="44.5424092" lon="8.0197582"><ele>624.0</ele><time>2026-04-11T08:27:50.21Z</time></trkpt><trkpt lat="44.5423537" lon="8.019607"><ele>623.6</ele><time>2026-04-11T08:27:52.21Z</time></trkpt><trkpt lat="44.5423022" lon="8.0194724"><ele>623.2</ele><time>2026-04-11T08:27:54.21Z</time></trkpt><trkpt lat="44.5422461" lon="8.0193367"><ele>622.8000000000001</ele><time>2026-04-11T08:27:56.21Z</time></trkpt><trkpt lat="44.5421909" lon="8.0192095"><ele>622.4</ele><time>2026-04-11T08:27:58.21Z</time></trkpt><trkpt lat="44.5421327" lon="8.0190865"><ele>622.0</ele><time>2026-04-11T08:28:00.21Z</time></trkpt><trkpt lat="44.5420776" lon="8.018962"><ele>622.2</ele><time>2026-04-11T08:28:02.209Z</time></trkpt><trkpt lat="44.5420258" lon="8.0188372"><ele>622.4000000000001</ele><time>2026-04-11T08:28:04.21Z</time></trkpt><trkpt lat="44.5419852" lon="8.0187054"><ele>622.5999999999999</ele><time>2026-04-11T08:28:06.21Z</time></trkpt><trkpt lat="44.5419385" lon="8.0185809"><ele>622.8</ele><time>2026-04-11T08:28:08.21Z</time></trkpt><trkpt lat="44.541852" lon="8.0184701"><ele>623.0</ele><time>2026-04-11T08:28:10.21Z</time></trkpt><trkpt lat="44.5417881" lon="8.0184386"><ele>623.0</ele><time>2026-04-11T08:28:11.21Z</time></trkpt><trkpt lat="44.5417199" lon="8.0184143"><ele>623.0</ele><time>2026-04-11T08:28:12.21Z</time></trkpt><trkpt lat="44.5416109" lon="8.0183486"><ele>623.0</ele><time>2026-04-11T08:28:14.21Z</time></trkpt><trkpt lat="44.5415082" lon="8.018245"><ele>623.0</ele><time>2026-04-11T08:28:16.209Z</time></trkpt><trkpt lat="44.5414394" lon="8.0181501"><ele>623.0</ele><time>2026-04-11T08:28:18.21Z</time></trkpt><trkpt lat="44.5413861" lon="8.0180471"><ele>621.4</ele><time>2026-04-11T08:28:20.21Z</time></trkpt><trkpt lat="44.5413292" lon="8.0179304"><ele>619.8</ele><time>2026-04-11T08:28:22.209Z</time></trkpt><trkpt lat="44.541252" lon="8.0178036"><ele>618.2</ele><time>2026-04-11T08:28:24.21Z</time></trkpt><trkpt lat="44.5412118" lon="8.017731"><ele>616.6</ele><time>2026-04-11T08:28:25.21Z</time></trkpt><trkpt lat="44.5411332" lon="8.0175948"><ele>615.0</ele><time>2026-04-11T08:28:27.21Z</time></trkpt><trkpt lat="44.5410827" lon="8.0175178"><ele>614.8333333333334</ele><time>2026-04-11T08:28:28.21Z</time></trkpt><trkpt lat="44.5410311" lon="8.0174415"><ele>614.6666666666666</ele><time>2026-04-11T08:28:29.21Z</time></trkpt><trkpt lat="44.5409826" lon="8.0173615"><ele>614.5</ele><time>2026-04-11T08:28:30.21Z</time></trkpt><trkpt lat="44.5409365" lon="8.0172808"><ele>614.3333333333333</ele><time>2026-04-11T08:28:31.21Z</time></trkpt><trkpt lat="44.5408937" lon="8.017197"><ele>614.1666666666666</ele><time>2026-04-11T08:28:32.21Z</time></trkpt><trkpt lat="44.5408525" lon="8.0171079"><ele>614.0</ele><time>2026-04-11T08:28:33.21Z</time></trkpt><trkpt lat="44.5408091" lon="8.0170144"><ele>614.0</ele><time>2026-04-11T08:28:34.21Z</time></trkpt><trkpt lat="44.5407629" lon="8.0169211"><ele>614.0</ele><time>2026-04-11T08:28:35.21Z</time></trkpt><trkpt lat="44.5407133" lon="8.0168249"><ele>614.0</ele><time>2026-04-11T08:28:36.209Z</time></trkpt><trkpt lat="44.5406619" lon="8.0167253"><ele>614.0</ele><time>2026-04-11T08:28:37.21Z</time></trkpt><trkpt lat="44.5406154" lon="8.0166264"><ele>614.0</ele><time>2026-04-11T08:28:38.21Z</time></trkpt><trkpt lat="44.5405697" lon="8.0165253"><ele>614.0</ele><time>2026-04-11T08:28:39.21Z</time></trkpt><trkpt lat="44.5405241" lon="8.0164305"><ele>613.6666666666666</ele><time>2026-04-11T08:28:40.209Z</time></trkpt><trkpt lat="44.5404796" lon="8.0163359"><ele>613.3333333333333</ele><time>2026-04-11T08:28:41.21Z</time></trkpt><trkpt lat="44.5404408" lon="8.016244"><ele>613.0</ele><time>2026-04-11T08:28:42.21Z</time></trkpt><trkpt lat="44.5404022" lon="8.0161584"><ele>612.6666666666666</ele><time>2026-04-11T08:28:43.21Z</time></trkpt><trkpt lat="44.5403483" lon="8.0160563"><ele>612.3333333333334</ele><time>2026-04-11T08:28:45.21Z</time></trkpt><trkpt lat="44.5403289" lon="8.0159714"><ele>612.0</ele><time>2026-04-11T08:30:47.29Z</time></trkpt><trkpt lat="44.540283" lon="8.0158978"><ele>611.0</ele><time>2026-04-11T08:30:48.223Z</time></trkpt><trkpt lat="44.5402451" lon="8.0158004"><ele>610.0</ele><time>2026-04-11T08:30:50.307Z</time></trkpt><trkpt lat="44.5402146" lon="8.0156812"><ele>609.0</ele><time>2026-04-11T08:30:52.272Z</time></trkpt><trkpt lat="44.5401802" lon="8.01552"><ele>608.0</ele><time>2026-04-11T08:30:54.212Z</time></trkpt><trkpt lat="44.5401439" lon="8.0153868"><ele>607.0</ele><time>2026-04-11T08:30:56.291Z</time></trkpt><trkpt lat="44.5400928" lon="8.0152591"><ele>607.0</ele><time>2026-04-11T08:30:58.257Z</time></trkpt><trkpt lat="44.540036" lon="8.0151299"><ele>607.0</ele><time>2026-04-11T08:31:00.212Z</time></trkpt><trkpt lat="44.5399723" lon="8.0149708"><ele>607.0</ele><time>2026-04-11T08:31:02.211Z</time></trkpt><trkpt lat="44.5399188" lon="8.0148647"><ele>607.0</ele><time>2026-04-11T08:31:04.212Z</time></trkpt><trkpt lat="44.5398652" lon="8.0147491"><ele>607.0</ele><time>2026-04-11T08:31:06.211Z</time></trkpt><trkpt lat="44.5398124" lon="8.0146281"><ele>606.6</ele><time>2026-04-11T08:31:08.212Z</time></trkpt><trkpt lat="44.539759" lon="8.0145022"><ele>606.2</ele><time>2026-04-11T08:31:10.212Z</time></trkpt><trkpt lat="44.5397053" lon="8.0143788"><ele>605.8</ele><time>2026-04-11T08:31:12.212Z</time></trkpt><trkpt lat="44.5396427" lon="8.0142442"><ele>605.4</ele><time>2026-04-11T08:31:14.212Z</time></trkpt><trkpt lat="44.5395756" lon="8.0141187"><ele>605.0</ele><time>2026-04-11T08:31:16.211Z</time></trkpt><trkpt lat="44.5394829" lon="8.0140227"><ele>604.8333333333333</ele><time>2026-04-11T08:31:18.212Z</time></trkpt><trkpt lat="44.5394273" lon="8.0139735"><ele>604.6666666666666</ele><time>2026-04-11T08:31:19.212Z</time></trkpt><trkpt lat="44.539371" lon="8.0139088"><ele>604.5</ele><time>2026-04-11T08:31:20.211Z</time></trkpt><trkpt lat="44.539319" lon="8.0138337"><ele>604.3333333333334</ele><time>2026-04-11T08:31:21.212Z</time></trkpt><trkpt lat="44.5392698" lon="8.0137647"><ele>604.1666666666667</ele><time>2026-04-11T08:31:22.212Z</time></trkpt><trkpt lat="44.5391833" lon="8.0136601"><ele>604.0</ele><time>2026-04-11T08:31:24.211Z</time></trkpt><trkpt lat="44.5390856" lon="8.0135467"><ele>604.0</ele><time>2026-04-11T08:31:26.212Z</time></trkpt><trkpt lat="44.5390359" lon="8.01347"><ele>604.0</ele><time>2026-04-11T08:31:27.213Z</time></trkpt><trkpt lat="44.5389861" lon="8.0133757"><ele>604.0</ele><time>2026-04-11T08:31:28.212Z</time></trkpt><trkpt lat="44.5389385" lon="8.0132555"><ele>604.0</ele><time>2026-04-11T08:31:29.213Z</time></trkpt><trkpt lat="44.5388884" lon="8.0131337"><ele>604.0</ele><time>2026-04-11T08:31:30.212Z</time></trkpt><trkpt lat="44.5388421" lon="8.0130143"><ele>604.1666666666667</ele><time>2026-04-11T08:31:31.212Z</time></trkpt><trkpt lat="44.5387944" lon="8.0129045"><ele>604.3333333333334</ele><time>2026-04-11T08:31:32.213Z</time></trkpt><trkpt lat="44.5387431" lon="8.0128047"><ele>604.5</ele><time>2026-04-11T08:31:33.213Z</time></trkpt><trkpt lat="44.5386885" lon="8.0127207"><ele>604.6666666666666</ele><time>2026-04-11T08:31:34.213Z</time></trkpt><trkpt lat="44.5386387" lon="8.0126507"><ele>604.8333333333333</ele><time>2026-04-11T08:31:35.213Z</time></trkpt><trkpt lat="44.5385981" lon="8.0125832"><ele>605.0</ele><time>2026-04-11T08:31:36.213Z</time></trkpt><trkpt lat="44.5385522" lon="8.0124169"><ele>602.5714285714286</ele><time>2026-04-11T08:31:38.213Z</time></trkpt><trkpt lat="44.53854" lon="8.0123109"><ele>600.1428571428571</ele><time>2026-04-11T08:31:39.213Z</time></trkpt><trkpt lat="44.5385295" lon="8.0122119"><ele>597.7142857142858</ele><time>2026-04-11T08:31:40.213Z</time></trkpt><trkpt lat="44.5385113" lon="8.0121268"><ele>595.2857142857142</ele><time>2026-04-11T08:31:41.213Z</time></trkpt><trkpt lat="44.5384739" lon="8.0120462"><ele>592.8571428571429</ele><time>2026-04-11T08:31:42.213Z</time></trkpt><trkpt lat="44.5384191" lon="8.0119725"><ele>590.4285714285714</ele><time>2026-04-11T08:31:43.212Z</time></trkpt><trkpt lat="44.5383595" lon="8.0119178"><ele>588.0</ele><time>2026-04-11T08:31:44.212Z</time></trkpt><trkpt lat="44.5383062" lon="8.0118622"><ele>588.0</ele><time>2026-04-11T08:31:45.213Z</time></trkpt><trkpt lat="44.5382626" lon="8.0117962"><ele>588.0</ele><time>2026-04-11T08:31:46.213Z</time></trkpt><trkpt lat="44.5382343" lon="8.0117163"><ele>588.0</ele><time>2026-04-11T08:31:47.213Z</time></trkpt><trkpt lat="44.5382092" lon="8.0116328"><ele>588.0</ele><time>2026-04-11T08:31:48.213Z</time></trkpt><trkpt lat="44.5381624" lon="8.0114583"><ele>588.0</ele><time>2026-04-11T08:31:50.213Z</time></trkpt><trkpt lat="44.5381211" lon="8.0113597"><ele>588.0</ele><time>2026-04-11T08:31:51.212Z</time></trkpt><trkpt lat="44.5380829" lon="8.0112573"><ele>589.3333333333334</ele><time>2026-04-11T08:31:52.213Z</time></trkpt><trkpt lat="44.5380454" lon="8.0111515"><ele>590.6666666666666</ele><time>2026-04-11T08:31:53.213Z</time></trkpt><trkpt lat="44.538018" lon="8.0110391"><ele>592.0</ele><time>2026-04-11T08:31:54.213Z</time></trkpt><trkpt lat="44.5379849" lon="8.0109341"><ele>593.3333333333333</ele><time>2026-04-11T08:31:55.213Z</time></trkpt><trkpt lat="44.5379431" lon="8.0108127"><ele>594.6666666666666</ele><time>2026-04-11T08:31:56.212Z</time></trkpt><trkpt lat="44.5378858" lon="8.0106948"><ele>596.0</ele><time>2026-04-11T08:31:57.213Z</time></trkpt><trkpt lat="44.5378178" lon="8.010583"><ele>591.8333333333333</ele><time>2026-04-11T08:31:58.212Z</time></trkpt><trkpt lat="44.5377633" lon="8.0104805"><ele>587.6666666666666</ele><time>2026-04-11T08:31:59.212Z</time></trkpt><trkpt lat="44.5377257" lon="8.0103748"><ele>583.5</ele><time>2026-04-11T08:32:00.213Z</time></trkpt><trkpt lat="44.5377067" lon="8.0102553"><ele>579.3333333333334</ele><time>2026-04-11T08:32:01.213Z</time></trkpt><trkpt lat="44.5376976" lon="8.0101436"><ele>575.1666666666667</ele><time>2026-04-11T08:32:02.213Z</time></trkpt><trkpt lat="44.5376832" lon="8.0100357"><ele>571.0</ele><time>2026-04-11T08:32:03.213Z</time></trkpt><trkpt lat="44.5376493" lon="8.0099333"><ele>571.0</ele><time>2026-04-11T08:32:04.213Z</time></trkpt><trkpt lat="44.5376028" lon="8.0098437"><ele>571.0</ele><time>2026-04-11T08:32:05.212Z</time></trkpt><trkpt lat="44.537554" lon="8.009761"><ele>571.0</ele><time>2026-04-11T08:32:06.213Z</time></trkpt><trkpt lat="44.5375104" lon="8.0096806"><ele>571.0</ele><time>2026-04-11T08:32:07.213Z</time></trkpt><trkpt lat="44.5374827" lon="8.0095894"><ele>571.0</ele><time>2026-04-11T08:32:08.212Z</time></trkpt><trkpt lat="44.5374724" lon="8.0094829"><ele>571.0</ele><time>2026-04-11T08:32:09.213Z</time></trkpt><trkpt lat="44.537476" lon="8.0093701"><ele>571.0</ele><time>2026-04-11T08:32:10.213Z</time></trkpt><trkpt lat="44.5374911" lon="8.0092617"><ele>571.0</ele><time>2026-04-11T08:32:11.213Z</time></trkpt><trkpt lat="44.5375128" lon="8.0091461"><ele>571.0</ele><time>2026-04-11T08:32:12.213Z</time></trkpt><trkpt lat="44.5375258" lon="8.0090339"><ele>571.0</ele><time>2026-04-11T08:32:13.213Z</time></trkpt><trkpt lat="44.5375257" lon="8.0089306"><ele>571.0</ele><time>2026-04-11T08:32:14.213Z</time></trkpt><trkpt lat="44.5375107" lon="8.0088224"><ele>571.0</ele><time>2026-04-11T08:32:15.213Z</time></trkpt><trkpt lat="44.5374894" lon="8.0087112"><ele>570.6666666666667</ele><time>2026-04-11T08:32:16.213Z</time></trkpt><trkpt lat="44.5374687" lon="8.0085921"><ele>570.3333333333334</ele><time>2026-04-11T08:32:17.213Z</time></trkpt><trkpt lat="44.5374509" lon="8.0084671"><ele>570.0</ele><time>2026-04-11T08:32:18.213Z</time></trkpt><trkpt lat="44.537443" lon="8.0083401"><ele>569.6666666666666</ele><time>2026-04-11T08:32:19.213Z</time></trkpt><trkpt lat="44.5374374" lon="8.0082199"><ele>569.3333333333333</ele><time>2026-04-11T08:32:20.213Z</time></trkpt><trkpt lat="44.5374377" lon="8.0080974"><ele>569.0</ele><time>2026-04-11T08:32:21.213Z</time></trkpt><trkpt lat="44.5374386" lon="8.0079763"><ele>569.0</ele><time>2026-04-11T08:32:22.213Z</time></trkpt><trkpt lat="44.5374351" lon="8.0078618"><ele>569.0</ele><time>2026-04-11T08:32:23.213Z</time></trkpt><trkpt lat="44.5374276" lon="8.0077569"><ele>569.0</ele><time>2026-04-11T08:32:24.212Z</time></trkpt><trkpt lat="44.5374145" lon="8.0076528"><ele>569.0</ele><time>2026-04-11T08:32:25.213Z</time></trkpt><trkpt lat="44.5374" lon="8.0075498"><ele>569.0</ele><time>2026-04-11T08:32:26.212Z</time></trkpt><trkpt lat="44.5373887" lon="8.0074483"><ele>569.0</ele><time>2026-04-11T08:32:27.213Z</time></trkpt><trkpt lat="44.5373807" lon="8.0073477"><ele>568.8333333333333</ele><time>2026-04-11T08:32:28.213Z</time></trkpt><trkpt lat="44.5373714" lon="8.0072466"><ele>568.6666666666666</ele><time>2026-04-11T08:32:29.213Z</time></trkpt><trkpt lat="44.5373635" lon="8.0071511"><ele>568.5</ele><time>2026-04-11T08:32:30.213Z</time></trkpt><trkpt lat="44.5373567" lon="8.0070611"><ele>568.3333333333334</ele><time>2026-04-11T08:32:31.213Z</time></trkpt><trkpt lat="44.537346" lon="8.0068911"><ele>568.1666666666667</ele><time>2026-04-11T08:32:33.213Z</time></trkpt><trkpt lat="44.5373365" lon="8.0067342"><ele>568.0</ele><time>2026-04-11T08:32:35.213Z</time></trkpt><trkpt lat="44.5373273" lon="8.0065881"><ele>567.1666666666667</ele><time>2026-04-11T08:32:37.213Z</time></trkpt><trkpt lat="44.537313" lon="8.0064499"><ele>566.3333333333334</ele><time>2026-04-11T08:32:39.214Z</time></trkpt><trkpt lat="44.5372984" lon="8.0063295"><ele>565.5</ele><time>2026-04-11T08:32:41.214Z</time></trkpt><trkpt lat="44.5372921" lon="8.0062223"><ele>564.6666666666666</ele><time>2026-04-11T08:32:43.214Z</time></trkpt><trkpt lat="44.5372976" lon="8.0060999"><ele>563.8333333333333</ele><time>2026-04-11T08:32:45.214Z</time></trkpt><trkpt lat="44.5372974" lon="8.0059824"><ele>563.0</ele><time>2026-04-11T08:32:47.214Z</time></trkpt><trkpt lat="44.5372901" lon="8.005856"><ele>562.6666666666666</ele><time>2026-04-11T08:32:49.214Z</time></trkpt><trkpt lat="44.5372845" lon="8.0057306"><ele>562.3333333333333</ele><time>2026-04-11T08:32:51.214Z</time></trkpt><trkpt lat="44.5372878" lon="8.005594"><ele>562.0</ele><time>2026-04-11T08:32:53.213Z</time></trkpt><trkpt lat="44.5372973" lon="8.00547"><ele>561.6666666666666</ele><time>2026-04-11T08:32:55.214Z</time></trkpt><trkpt lat="44.5373191" lon="8.0053708"><ele>561.3333333333334</ele><time>2026-04-11T08:32:57.214Z</time></trkpt><trkpt lat="44.5373311" lon="8.005272"><ele>561.0</ele><time>2026-04-11T08:32:59.214Z</time></trkpt><trkpt lat="44.5373212" lon="8.0051724"><ele>561.0</ele><time>2026-04-11T08:33:02.214Z</time></trkpt><trkpt lat="44.53725" lon="8.0051131"><ele>561.0</ele><time>2026-04-11T08:33:05.213Z</time></trkpt><trkpt lat="44.5371865" lon="8.0051219"><ele>561.0</ele><time>2026-04-11T08:33:09.214Z</time></trkpt><trkpt lat="44.5371298" lon="8.0051719"><ele>561.0</ele><time>2026-04-11T08:33:18.213Z</time></trkpt><trkpt lat="44.5371275" lon="8.0050828"><ele>561.0</ele><time>2026-04-11T08:34:09.214Z</time></trkpt><trkpt lat="44.5371913" lon="8.005109"><ele>561.0</ele><time>2026-04-11T08:34:57.284Z</time></trkpt><trkpt lat="44.5371433" lon="8.0051703"><ele>561.0</ele><time>2026-04-11T08:35:02.265Z</time></trkpt><trkpt lat="44.5371735" lon="8.005262"><ele>561.0</ele><time>2026-04-11T08:35:51.323Z</time></trkpt><trkpt lat="44.5371901" lon="8.0054287"><ele>561.0</ele><time>2026-04-11T08:35:54.325Z</time></trkpt><trkpt lat="44.5371496" lon="8.0056251"><ele>561.0</ele><time>2026-04-11T08:35:56.216Z</time></trkpt><trkpt lat="44.5371405" lon="8.0057165"><ele>561.0</ele><time>2026-04-11T08:35:57.216Z</time></trkpt><trkpt lat="44.5371257" lon="8.0058858"><ele>561.4</ele><time>2026-04-11T08:35:59.216Z</time></trkpt><trkpt lat="44.5371169" lon="8.0060575"><ele>561.8</ele><time>2026-04-11T08:36:01.215Z</time></trkpt><trkpt lat="44.5371054" lon="8.0062174"><ele>562.1999999999999</ele><time>2026-04-11T08:36:03.216Z</time></trkpt><trkpt lat="44.5371052" lon="8.0063579"><ele>562.6</ele><time>2026-04-11T08:36:05.215Z</time></trkpt><trkpt lat="44.537101" lon="8.0065"><ele>563.0</ele><time>2026-04-11T08:36:07.216Z</time></trkpt><trkpt lat="44.5370964" lon="8.0066705"><ele>564.0</ele><time>2026-04-11T08:36:09.216Z</time></trkpt><trkpt lat="44.5370994" lon="8.0068511"><ele>565.0</ele><time>2026-04-11T08:36:11.216Z</time></trkpt><trkpt lat="44.5371044" lon="8.0070208"><ele>566.0</ele><time>2026-04-11T08:36:13.216Z</time></trkpt><trkpt lat="44.5371081" lon="8.0071856"><ele>567.0</ele><time>2026-04-11T08:36:15.217Z</time></trkpt><trkpt lat="44.5371071" lon="8.0072794"><ele>568.0</ele><time>2026-04-11T08:36:16.216Z</time></trkpt><trkpt lat="44.5371022" lon="8.0073817"><ele>568.0</ele><time>2026-04-11T08:36:17.217Z</time></trkpt><trkpt lat="44.5371012" lon="8.0074744"><ele>568.0</ele><time>2026-04-11T08:36:18.216Z</time></trkpt><trkpt lat="44.5371016" lon="8.0075672"><ele>568.0</ele><time>2026-04-11T08:36:19.217Z</time></trkpt><trkpt lat="44.5371049" lon="8.0076596"><ele>568.0</ele><time>2026-04-11T08:36:20.217Z</time></trkpt><trkpt lat="44.5371174" lon="8.0077559"><ele>568.0</ele><time>2026-04-11T08:36:21.217Z</time></trkpt><trkpt lat="44.5371312" lon="8.0078445"><ele>568.0</ele><time>2026-04-11T08:36:22.217Z</time></trkpt><trkpt lat="44.5371434" lon="8.0079422"><ele>568.0</ele><time>2026-04-11T08:36:23.217Z</time></trkpt><trkpt lat="44.5371529" lon="8.008065"><ele>568.1999999999999</ele><time>2026-04-11T08:36:25.217Z</time></trkpt><trkpt lat="44.537144" lon="8.0081784"><ele>568.4</ele><time>2026-04-11T08:36:27.216Z</time></trkpt><trkpt lat="44.5371233" lon="8.0083449"><ele>568.5999999999999</ele><time>2026-04-11T08:36:29.217Z</time></trkpt><trkpt lat="44.5371121" lon="8.0085171"><ele>568.8</ele><time>2026-04-11T08:36:31.217Z</time></trkpt><trkpt lat="44.537097" lon="8.0086495"><ele>569.0</ele><time>2026-04-11T08:36:33.217Z</time></trkpt><trkpt lat="44.5370855" lon="8.0087702"><ele>569.0</ele><time>2026-04-11T08:36:35.217Z</time></trkpt><trkpt lat="44.5370587" lon="8.0089019"><ele>569.0</ele><time>2026-04-11T08:36:37.217Z</time></trkpt><trkpt lat="44.5370437" lon="8.0090285"><ele>569.0</ele><time>2026-04-11T08:36:39.217Z</time></trkpt><trkpt lat="44.5370321" lon="8.0092046"><ele>569.0</ele><time>2026-04-11T08:36:41.216Z</time></trkpt><trkpt lat="44.5370235" lon="8.0093231"><ele>569.0</ele><time>2026-04-11T08:36:43.217Z</time></trkpt><trkpt lat="44.5370476" lon="8.0092236"><ele>568.7142857142858</ele><time>2026-04-11T08:37:21.317Z</time></trkpt><trkpt lat="44.5370058" lon="8.0092919"><ele>568.4285714285714</ele><time>2026-04-11T08:38:01.239Z</time></trkpt><trkpt lat="44.5369836" lon="8.0093898"><ele>568.1428571428571</ele><time>2026-04-11T08:38:23.31Z</time></trkpt><trkpt lat="44.5369884" lon="8.0094786"><ele>567.8571428571429</ele><time>2026-04-11T08:38:28.326Z</time></trkpt><trkpt lat="44.5370002" lon="8.0095804"><ele>567.5714285714286</ele><time>2026-04-11T08:38:31.277Z</time></trkpt><trkpt lat="44.5370136" lon="8.0096822"><ele>567.2857142857143</ele><time>2026-04-11T08:38:34.261Z</time></trkpt><trkpt lat="44.5370358" lon="8.0097959"><ele>567.0</ele><time>2026-04-11T08:38:37.714Z</time></trkpt><trkpt lat="44.5371335" lon="8.0101237"><ele>567.0</ele><time>2026-04-11T08:38:39.219Z</time></trkpt><trkpt lat="44.5371646" lon="8.0102216"><ele>567.0</ele><time>2026-04-11T08:38:41.217Z</time></trkpt><trkpt lat="44.5372001" lon="8.0103158"><ele>567.0</ele><time>2026-04-11T08:38:43.219Z</time></trkpt><trkpt lat="44.5372133" lon="8.0104327"><ele>567.0</ele><time>2026-04-11T08:38:45.219Z</time></trkpt><trkpt lat="44.5371756" lon="8.0105626"><ele>567.0</ele><time>2026-04-11T08:38:47.219Z</time></trkpt><trkpt lat="44.5371377" lon="8.010652"><ele>567.0</ele><time>2026-04-11T08:38:49.219Z</time></trkpt><trkpt lat="44.5370957" lon="8.0107655"><ele>565.8333333333334</ele><time>2026-04-11T08:38:52.219Z</time></trkpt><trkpt lat="44.537078" lon="8.0109097"><ele>564.6666666666666</ele><time>2026-04-11T08:38:55.219Z</time></trkpt><trkpt lat="44.5370676" lon="8.0110081"><ele>563.5</ele><time>2026-04-11T08:38:57.219Z</time></trkpt><trkpt lat="44.5370299" lon="8.0110979"><ele>562.3333333333333</ele><time>2026-04-11T08:38:59.218Z</time></trkpt><trkpt lat="44.5369889" lon="8.011165"><ele>561.1666666666666</ele><time>2026-04-11T08:39:01.218Z</time></trkpt><trkpt lat="44.536923" lon="8.0112602"><ele>560.0</ele><time>2026-04-11T08:39:04.219Z</time></trkpt><trkpt lat="44.53688" lon="8.0113432"><ele>555.0</ele><time>2026-04-11T08:39:06.219Z</time></trkpt><trkpt lat="44.5368258" lon="8.0114051"><ele>550.0</ele><time>2026-04-11T08:39:08.219Z</time></trkpt><trkpt lat="44.5367653" lon="8.0114404"><ele>545.0</ele><time>2026-04-11T08:39:10.219Z</time></trkpt><trkpt lat="44.536692" lon="8.0114736"><ele>540.0</ele><time>2026-04-11T08:39:12.219Z</time></trkpt><trkpt lat="44.536622" lon="8.0115097"><ele>535.0</ele><time>2026-04-11T08:39:14.219Z</time></trkpt><trkpt lat="44.5365446" lon="8.0115491"><ele>530.0</ele><time>2026-04-11T08:39:16.219Z</time></trkpt><trkpt lat="44.5364647" lon="8.0115387"><ele>529.9999999999999</ele><time>2026-04-11T08:39:19.218Z</time></trkpt><trkpt lat="44.5364164" lon="8.0114763"><ele>530.0</ele><time>2026-04-11T08:39:23.219Z</time></trkpt><trkpt lat="44.536373" lon="8.0113931"><ele>530.0</ele><time>2026-04-11T08:39:26.218Z</time></trkpt><trkpt lat="44.5363756" lon="8.0112886"><ele>530.0</ele><time>2026-04-11T08:39:50.219Z</time></trkpt><trkpt lat="44.5363113" lon="8.0112687"><ele>530.0</ele><time>2026-04-11T08:40:39.22Z</time></trkpt><trkpt lat="44.5363827" lon="8.0112242"><ele>529.9999999999999</ele><time>2026-04-11T08:41:14.221Z</time></trkpt><trkpt lat="44.5363653" lon="8.01132"><ele>530.0</ele><time>2026-04-11T08:41:31.319Z</time></trkpt><trkpt lat="44.5364534" lon="8.0113513"><ele>529.9999999999999</ele><time>2026-04-11T08:41:34.285Z</time></trkpt><trkpt lat="44.5365206" lon="8.011302"><ele>530.0</ele><time>2026-04-11T08:41:35.369Z</time></trkpt><trkpt lat="44.5365795" lon="8.0112623"><ele>530.0</ele><time>2026-04-11T08:41:36.302Z</time></trkpt><trkpt lat="44.5366456" lon="8.0112346"><ele>530.0</ele><time>2026-04-11T08:41:37.319Z</time></trkpt><trkpt lat="44.5367171" lon="8.0112101"><ele>530.0</ele><time>2026-04-11T08:41:38.318Z</time></trkpt><trkpt lat="44.5367879" lon="8.0111907"><ele>529.9999999999999</ele><time>2026-04-11T08:41:39.369Z</time></trkpt><trkpt lat="44.5368535" lon="8.0111787"><ele>530.0</ele><time>2026-04-11T08:41:40.336Z</time></trkpt><trkpt lat="44.5369548" lon="8.0111317"><ele>530.0</ele><time>2026-04-11T08:41:42.336Z</time></trkpt><trkpt lat="44.5370184" lon="8.0110855"><ele>530.0</ele><time>2026-04-11T08:41:44.353Z</time></trkpt><trkpt lat="44.5369679" lon="8.0111516"><ele>530.0</ele><time>2026-04-11T08:41:50.32Z</time></trkpt><trkpt lat="44.536852" lon="8.0112069"><ele>530.0</ele><time>2026-04-11T08:41:54.319Z</time></trkpt><trkpt lat="44.5368913" lon="8.0112812"><ele>530.0</ele><time>2026-04-11T08:42:03.337Z</time></trkpt><trkpt lat="44.5368421" lon="8.0113493"><ele>530.0</ele><time>2026-04-11T08:42:07.254Z</time></trkpt><trkpt lat="44.5367614" lon="8.0113727"><ele>529.9999999999999</ele><time>2026-04-11T08:42:10.337Z</time></trkpt><trkpt lat="44.5366914" lon="8.0113726"><ele>530.0</ele><time>2026-04-11T08:42:13.321Z</time></trkpt><trkpt lat="44.5366276" lon="8.0113655"><ele>530.0</ele><time>2026-04-11T08:42:20.322Z</time></trkpt><trkpt lat="44.5365755" lon="8.0113115"><ele>530.0</ele><time>2026-04-11T08:42:29.372Z</time></trkpt><trkpt lat="44.536507" lon="8.0112742"><ele>530.0</ele><time>2026-04-11T08:43:23.307Z</time></trkpt><trkpt lat="44.5364577" lon="8.0112131"><ele>529.9999999999999</ele><time>2026-04-11T08:44:53.259Z</time></trkpt><trkpt lat="44.5363808" lon="8.0111823"><ele>530.0</ele><time>2026-04-11T08:44:58.309Z</time></trkpt><trkpt lat="44.5364498" lon="8.0112476"><ele>530.0</ele><time>2026-04-11T08:46:07.302Z</time></trkpt><trkpt lat="44.5365129" lon="8.0112529"><ele>530.0</ele><time>2026-04-11T08:46:16.371Z</time></trkpt><trkpt lat="44.5365753" lon="8.011122"><ele>530.0</ele><time>2026-04-11T08:46:24.287Z</time></trkpt><trkpt lat="44.5365141" lon="8.0110414"><ele>530.0</ele><time>2026-04-11T08:46:27.287Z</time></trkpt><trkpt lat="44.5363913" lon="8.0110904"><ele>530.0</ele><time>2026-04-11T08:46:28.321Z</time></trkpt><trkpt lat="44.5363132" lon="8.0110561"><ele>530.0</ele><time>2026-04-11T08:46:33.221Z</time></trkpt><trkpt lat="44.5362543" lon="8.0110144"><ele>530.0</ele><time>2026-04-11T08:46:36.288Z</time></trkpt><trkpt lat="44.5361573" lon="8.0109278"><ele>530.0</ele><time>2026-04-11T08:46:39.322Z</time></trkpt><trkpt lat="44.5361972" lon="8.0110035"><ele>530.0</ele><time>2026-04-11T08:46:51.374Z</time></trkpt><trkpt lat="44.5362252" lon="8.0110943"><ele>530.0</ele><time>2026-04-11T08:46:52.291Z</time></trkpt><trkpt lat="44.536308" lon="8.0111097"><ele>530.0</ele><time>2026-04-11T08:46:57.257Z</time></trkpt><trkpt lat="44.536451" lon="8.0112272"><ele>530.0</ele><time>2026-04-11T08:46:58.308Z</time></trkpt><trkpt lat="44.5365063" lon="8.0113031"><ele>530.0</ele><time>2026-04-11T08:47:02.375Z</time></trkpt><trkpt lat="44.5365621" lon="8.0113473"><ele>530.0</ele><time>2026-04-11T08:47:07.359Z</time></trkpt><trkpt lat="44.536785" lon="8.0113488"><ele>530.0</ele><time>2026-04-11T08:47:53.379Z</time></trkpt><trkpt lat="44.5366692" lon="8.0113936"><ele>530.0</ele><time>2026-04-11T08:48:14.331Z</time></trkpt><trkpt lat="44.536616" lon="8.0114421"><ele>530.0</ele><time>2026-04-11T08:48:19.347Z</time></trkpt><trkpt lat="44.5365537" lon="8.0113202"><ele>530.0</ele><time>2026-04-11T08:48:20.381Z</time></trkpt><trkpt lat="44.5364852" lon="8.0112844"><ele>530.0</ele><time>2026-04-11T08:48:25.364Z</time></trkpt><trkpt lat="44.5364285" lon="8.011215"><ele>530.0</ele><time>2026-04-11T08:48:38.282Z</time></trkpt><trkpt lat="44.5364576" lon="8.0113057"><ele>530.0</ele><time>2026-04-11T08:49:02.366Z</time></trkpt><trkpt lat="44.5365186" lon="8.0113719"><ele>530.0</ele><time>2026-04-11T08:49:09.3Z</time></trkpt><trkpt lat="44.5365978" lon="8.0114018"><ele>530.0</ele><time>2026-04-11T08:49:11.334Z</time></trkpt><trkpt lat="44.5366763" lon="8.0114092"><ele>530.0</ele><time>2026-04-11T08:49:16.334Z</time></trkpt><trkpt lat="44.5366074" lon="8.0113749"><ele>530.0</ele><time>2026-04-11T08:50:00.368Z</time></trkpt><trkpt lat="44.5365198" lon="8.0113172"><ele>530.0</ele><time>2026-04-11T08:50:07.368Z</time></trkpt><trkpt lat="44.5364504" lon="8.01126"><ele>530.0</ele><time>2026-04-11T08:51:54.286Z</time></trkpt><trkpt lat="44.5363737" lon="8.0113188"><ele>529.9999999999999</ele><time>2026-04-11T08:53:21.306Z</time></trkpt><trkpt lat="44.5363324" lon="8.0112349"><ele>530.0</ele><time>2026-04-11T08:53:44.231Z</time></trkpt><trkpt lat="44.536273" lon="8.0112969"><ele>530.0</ele><time>2026-04-11T08:53:53.273Z</time></trkpt><trkpt lat="44.5363395" lon="8.0113304"><ele>530.0</ele><time>2026-04-11T08:54:01.29Z</time></trkpt><trkpt lat="44.5363848" lon="8.0112683"><ele>530.0</ele><time>2026-04-11T08:54:16.241Z</time></trkpt><trkpt lat="44.5363718" lon="8.0113742"><ele>529.9999999999999</ele><time>2026-04-11T08:54:43.293Z</time></trkpt><trkpt lat="44.5364501" lon="8.0114315"><ele>530.0</ele><time>2026-04-11T08:54:46.276Z</time></trkpt><trkpt lat="44.5365025" lon="8.0115267"><ele>530.0</ele><time>2026-04-11T08:54:48.343Z</time></trkpt><trkpt lat="44.5365512" lon="8.0116074"><ele>530.0</ele><time>2026-04-11T08:54:50.243Z</time></trkpt><trkpt lat="44.5365923" lon="8.0117216"><ele>530.0</ele><time>2026-04-11T08:54:52.276Z</time></trkpt><trkpt lat="44.5366407" lon="8.0118531"><ele>530.0</ele><time>2026-04-11T08:54:54.309Z</time></trkpt><trkpt lat="44.5366917" lon="8.0119789"><ele>530.0</ele><time>2026-04-11T08:54:56.231Z</time></trkpt><trkpt lat="44.5367432" lon="8.0121157"><ele>529.0</ele><time>2026-04-11T08:54:58.232Z</time></trkpt><trkpt lat="44.5368011" lon="8.0122357"><ele>528.0</ele><time>2026-04-11T08:55:00.233Z</time></trkpt><trkpt lat="44.5368626" lon="8.0123485"><ele>527.0</ele><time>2026-04-11T08:55:02.233Z</time></trkpt><trkpt lat="44.5369202" lon="8.0124737"><ele>526.0</ele><time>2026-04-11T08:55:04.233Z</time></trkpt><trkpt lat="44.5369793" lon="8.0125961"><ele>525.0</ele><time>2026-04-11T08:55:06.233Z</time></trkpt><trkpt lat="44.537037" lon="8.0127368"><ele>523.4</ele><time>2026-04-11T08:55:08.233Z</time></trkpt><trkpt lat="44.5370844" lon="8.0128587"><ele>521.8</ele><time>2026-04-11T08:55:10.233Z</time></trkpt><trkpt lat="44.5371059" lon="8.0129949"><ele>520.2</ele><time>2026-04-11T08:55:12.233Z</time></trkpt><trkpt lat="44.5370988" lon="8.0131651"><ele>518.6</ele><time>2026-04-11T08:55:14.232Z</time></trkpt><trkpt lat="44.5370734" lon="8.0133207"><ele>517.0</ele><time>2026-04-11T08:55:16.233Z</time></trkpt><trkpt lat="44.537032" lon="8.0134819"><ele>517.0</ele><time>2026-04-11T08:55:18.233Z</time></trkpt><trkpt lat="44.5370063" lon="8.0135629"><ele>517.0</ele><time>2026-04-11T08:55:19.233Z</time></trkpt><trkpt lat="44.5369487" lon="8.0137104"><ele>517.0</ele><time>2026-04-11T08:55:21.233Z</time></trkpt><trkpt lat="44.536887" lon="8.013861"><ele>517.0</ele><time>2026-04-11T08:55:23.232Z</time></trkpt><trkpt lat="44.5368363" lon="8.0140129"><ele>517.0</ele><time>2026-04-11T08:55:25.232Z</time></trkpt><trkpt lat="44.5367832" lon="8.0141625"><ele>517.25</ele><time>2026-04-11T08:55:27.233Z</time></trkpt><trkpt lat="44.5367182" lon="8.0143005"><ele>517.5</ele><time>2026-04-11T08:55:29.233Z</time></trkpt><trkpt lat="44.5366217" lon="8.0143919"><ele>517.75</ele><time>2026-04-11T08:55:31.232Z</time></trkpt><trkpt lat="44.5365046" lon="8.0143986"><ele>518.0</ele><time>2026-04-11T08:55:33.233Z</time></trkpt><trkpt lat="44.5363886" lon="8.014357"><ele>518.0</ele><time>2026-04-11T08:55:35.233Z</time></trkpt><trkpt lat="44.5363218" lon="8.0143223"><ele>518.0</ele><time>2026-04-11T08:55:37.233Z</time></trkpt><trkpt lat="44.5363513" lon="8.0142262"><ele>518.0</ele><time>2026-04-11T08:56:02.233Z</time></trkpt><trkpt lat="44.5363826" lon="8.0141397"><ele>518.0</ele><time>2026-04-11T08:56:08.232Z</time></trkpt><trkpt lat="44.5364132" lon="8.0142201"><ele>518.0</ele><time>2026-04-11T08:57:03.234Z</time></trkpt><trkpt lat="44.5363716" lon="8.0143044"><ele>518.0</ele><time>2026-04-11T08:57:05.233Z</time></trkpt><trkpt lat="44.5363042" lon="8.0143272"><ele>518.0</ele><time>2026-04-11T08:57:07.234Z</time></trkpt><trkpt lat="44.5362118" lon="8.0142908"><ele>518.3333333333333</ele><time>2026-04-11T08:57:10.234Z</time></trkpt><trkpt lat="44.5361313" lon="8.0142573"><ele>518.6666666666666</ele><time>2026-04-11T08:57:12.233Z</time></trkpt><trkpt lat="44.5360669" lon="8.0142226"><ele>519.0</ele><time>2026-04-11T08:57:14.234Z</time></trkpt><trkpt lat="44.5359816" lon="8.0141762"><ele>519.3333333333334</ele><time>2026-04-11T08:57:17.235Z</time></trkpt><trkpt lat="44.5359195" lon="8.0141311"><ele>519.6666666666667</ele><time>2026-04-11T08:57:19.235Z</time></trkpt><trkpt lat="44.5358709" lon="8.0140565"><ele>520.0</ele><time>2026-04-11T08:57:21.234Z</time></trkpt><trkpt lat="44.5358273" lon="8.0139787"><ele>519.0000000000001</ele><time>2026-04-11T08:57:23.235Z</time></trkpt><trkpt lat="44.5357922" lon="8.0138982"><ele>518.0</ele><time>2026-04-11T08:57:25.235Z</time></trkpt><trkpt lat="44.535757" lon="8.0138167"><ele>517.0</ele><time>2026-04-11T08:57:27.235Z</time></trkpt><trkpt lat="44.5357256" lon="8.0137374"><ele>516.0</ele><time>2026-04-11T08:57:29.235Z</time></trkpt><trkpt lat="44.5356702" lon="8.013631"><ele>515.0</ele><time>2026-04-11T08:57:32.235Z</time></trkpt><trkpt lat="44.5356196" lon="8.0135748"><ele>514.0000000000001</ele><time>2026-04-11T08:57:34.235Z</time></trkpt><trkpt lat="44.5355494" lon="8.0135171"><ele>513.0</ele><time>2026-04-11T08:57:37.235Z</time></trkpt><trkpt lat="44.5354868" lon="8.0134865"><ele>513.0000000000001</ele><time>2026-04-11T08:57:39.234Z</time></trkpt><trkpt lat="44.535427" lon="8.0134568"><ele>513.0</ele><time>2026-04-11T08:57:41.235Z</time></trkpt><trkpt lat="44.5353539" lon="8.0134215"><ele>513.0</ele><time>2026-04-11T08:57:44.235Z</time></trkpt><trkpt lat="44.5352842" lon="8.0133707"><ele>513.0</ele><time>2026-04-11T08:58:48.236Z</time></trkpt><trkpt lat="44.5352116" lon="8.0133485"><ele>513.0</ele><time>2026-04-11T08:58:50.236Z</time></trkpt><trkpt lat="44.5351428" lon="8.0133266"><ele>513.0000000000001</ele><time>2026-04-11T08:58:52.236Z</time></trkpt><trkpt lat="44.5350652" lon="8.0132929"><ele>513.0</ele><time>2026-04-11T08:58:54.235Z</time></trkpt><trkpt lat="44.5349934" lon="8.0132586"><ele>512.6666666666666</ele><time>2026-04-11T08:58:56.236Z</time></trkpt><trkpt lat="44.534921" lon="8.0132276"><ele>512.3333333333334</ele><time>2026-04-11T08:58:58.236Z</time></trkpt><trkpt lat="44.5348583" lon="8.0132088"><ele>512.0</ele><time>2026-04-11T08:59:00.236Z</time></trkpt><trkpt lat="44.5347691" lon="8.0131846"><ele>511.6666666666667</ele><time>2026-04-11T08:59:03.236Z</time></trkpt><trkpt lat="44.5346821" lon="8.0131543"><ele>511.33333333333337</ele><time>2026-04-11T08:59:06.236Z</time></trkpt><trkpt lat="44.5345962" lon="8.0131395"><ele>511.0</ele><time>2026-04-11T08:59:09.236Z</time></trkpt><trkpt lat="44.5345046" lon="8.0131263"><ele>512.8333333333334</ele><time>2026-04-11T08:59:12.235Z</time></trkpt><trkpt lat="44.5344399" lon="8.0131239"><ele>514.6666666666667</ele><time>2026-04-11T08:59:14.236Z</time></trkpt><trkpt lat="44.5343747" lon="8.0131112"><ele>516.5</ele><time>2026-04-11T08:59:16.236Z</time></trkpt><trkpt lat="44.5343113" lon="8.0131018"><ele>518.3333333333334</ele><time>2026-04-11T08:59:18.236Z</time></trkpt><trkpt lat="44.5342266" lon="8.013099"><ele>520.1666666666666</ele><time>2026-04-11T08:59:21.235Z</time></trkpt><trkpt lat="44.5341403" lon="8.0130911"><ele>522.0</ele><time>2026-04-11T08:59:24.236Z</time></trkpt><trkpt lat="44.5340507" lon="8.0130809"><ele>522.0</ele><time>2026-04-11T08:59:27.236Z</time></trkpt><trkpt lat="44.5339855" lon="8.0130674"><ele>522.0</ele><time>2026-04-11T08:59:29.235Z</time></trkpt><trkpt lat="44.5339091" lon="8.0130676"><ele>522.0</ele><time>2026-04-11T08:59:32.236Z</time></trkpt><trkpt lat="44.5338224" lon="8.0130638"><ele>522.0</ele><time>2026-04-11T08:59:35.237Z</time></trkpt><trkpt lat="44.5337393" lon="8.0130436"><ele>522.0</ele><time>2026-04-11T08:59:38.236Z</time></trkpt><trkpt lat="44.5336536" lon="8.0130318"><ele>522.0</ele><time>2026-04-11T08:59:41.236Z</time></trkpt><trkpt lat="44.5335672" lon="8.0130418"><ele>522.5714285714286</ele><time>2026-04-11T08:59:44.237Z</time></trkpt><trkpt lat="44.5334787" lon="8.0130241"><ele>523.1428571428571</ele><time>2026-04-11T08:59:47.237Z</time></trkpt><trkpt lat="44.5334155" lon="8.0130004"><ele>523.7142857142857</ele><time>2026-04-11T08:59:49.237Z</time></trkpt><trkpt lat="44.5333501" lon="8.0129772"><ele>524.2857142857142</ele><time>2026-04-11T08:59:51.237Z</time></trkpt><trkpt lat="44.533283" lon="8.0129562"><ele>524.8571428571428</ele><time>2026-04-11T08:59:53.237Z</time></trkpt><trkpt lat="44.5332187" lon="8.0129415"><ele>525.4285714285714</ele><time>2026-04-11T08:59:55.237Z</time></trkpt><trkpt lat="44.5331545" lon="8.0129265"><ele>526.0</ele><time>2026-04-11T08:59:57.237Z</time></trkpt><trkpt lat="44.5330667" lon="8.0129023"><ele>526.0</ele><time>2026-04-11T09:00:00.237Z</time></trkpt><trkpt lat="44.532972" lon="8.0128895"><ele>526.0</ele><time>2026-04-11T09:00:03.237Z</time></trkpt><trkpt lat="44.5329103" lon="8.0128693"><ele>526.0</ele><time>2026-04-11T09:00:05.237Z</time></trkpt><trkpt lat="44.5328288" lon="8.0128536"><ele>526.0</ele><time>2026-04-11T09:00:08.237Z</time></trkpt><trkpt lat="44.5327451" lon="8.0128529"><ele>526.0</ele><time>2026-04-11T09:00:11.237Z</time></trkpt><trkpt lat="44.5326541" lon="8.0128655"><ele>526.0</ele><time>2026-04-11T09:00:14.237Z</time></trkpt><trkpt lat="44.5325911" lon="8.0128807"><ele>527.6666666666667</ele><time>2026-04-11T09:00:16.237Z</time></trkpt><trkpt lat="44.5324988" lon="8.0128805"><ele>529.3333333333334</ele><time>2026-04-11T09:00:19.237Z</time></trkpt><trkpt lat="44.5324052" lon="8.0128951"><ele>531.0</ele><time>2026-04-11T09:00:22.237Z</time></trkpt><trkpt lat="44.5323324" lon="8.0128775"><ele>532.6666666666666</ele><time>2026-04-11T09:00:24.237Z</time></trkpt><trkpt lat="44.5322532" lon="8.0128235"><ele>534.3333333333333</ele><time>2026-04-11T09:00:27.237Z</time></trkpt><trkpt lat="44.5321836" lon="8.0127714"><ele>536.0</ele><time>2026-04-11T09:00:30.236Z</time></trkpt><trkpt lat="44.5321101" lon="8.0127149"><ele>537.1428571428571</ele><time>2026-04-11T09:00:33.237Z</time></trkpt><trkpt lat="44.5320489" lon="8.0126734"><ele>538.2857142857142</ele><time>2026-04-11T09:00:36.237Z</time></trkpt><trkpt lat="44.5319931" lon="8.0126303"><ele>539.4285714285713</ele><time>2026-04-11T09:00:39.236Z</time></trkpt><trkpt lat="44.5319271" lon="8.0125767"><ele>540.5714285714286</ele><time>2026-04-11T09:00:42.237Z</time></trkpt><trkpt lat="44.5318681" lon="8.0125094"><ele>541.7142857142857</ele><time>2026-04-11T09:00:45.236Z</time></trkpt><trkpt lat="44.5318081" lon="8.0124381"><ele>542.8571428571428</ele><time>2026-04-11T09:00:48.237Z</time></trkpt><trkpt lat="44.5317691" lon="8.012351"><ele>544.0</ele><time>2026-04-11T09:00:51.237Z</time></trkpt><trkpt lat="44.531733" lon="8.0122671"><ele>543.9999999999999</ele><time>2026-04-11T09:00:54.236Z</time></trkpt><trkpt lat="44.5316942" lon="8.0121627"><ele>544.0</ele><time>2026-04-11T09:00:58.238Z</time></trkpt><trkpt lat="44.5316718" lon="8.0120644"><ele>544.0</ele><time>2026-04-11T09:01:01.238Z</time></trkpt><trkpt lat="44.5316601" lon="8.0119748"><ele>544.0</ele><time>2026-04-11T09:01:04.238Z</time></trkpt><trkpt lat="44.531643" lon="8.0118871"><ele>544.0</ele><time>2026-04-11T09:01:07.238Z</time></trkpt><trkpt lat="44.531624" lon="8.0117885"><ele>543.9999999999999</ele><time>2026-04-11T09:01:11.238Z</time></trkpt><trkpt lat="44.5316078" lon="8.0116785"><ele>544.0</ele><time>2026-04-11T09:01:15.238Z</time></trkpt><trkpt lat="44.5315755" lon="8.0115723"><ele>543.5714285714286</ele><time>2026-04-11T09:01:19.237Z</time></trkpt><trkpt lat="44.5315554" lon="8.0114783"><ele>543.1428571428571</ele><time>2026-04-11T09:01:22.238Z</time></trkpt><trkpt lat="44.5315295" lon="8.0113706"><ele>542.7142857142858</ele><time>2026-04-11T09:01:25.238Z</time></trkpt><trkpt lat="44.5314938" lon="8.0112489"><ele>542.2857142857142</ele><time>2026-04-11T09:01:28.237Z</time></trkpt><trkpt lat="44.5314675" lon="8.0111609"><ele>541.8571428571429</ele><time>2026-04-11T09:01:30.238Z</time></trkpt><trkpt lat="44.5314409" lon="8.011078"><ele>541.4285714285714</ele><time>2026-04-11T09:01:32.238Z</time></trkpt><trkpt lat="44.5314133" lon="8.0109955"><ele>541.0</ele><time>2026-04-11T09:01:34.238Z</time></trkpt><trkpt lat="44.5313896" lon="8.0109089"><ele>540.1666666666667</ele><time>2026-04-11T09:01:36.237Z</time></trkpt><trkpt lat="44.5313635" lon="8.0108092"><ele>539.3333333333334</ele><time>2026-04-11T09:01:38.238Z</time></trkpt><trkpt lat="44.5313402" lon="8.0107045"><ele>538.5</ele><time>2026-04-11T09:01:40.237Z</time></trkpt><trkpt lat="44.5313158" lon="8.0105969"><ele>537.6666666666666</ele><time>2026-04-11T09:01:42.237Z</time></trkpt><trkpt lat="44.5313011" lon="8.0104866"><ele>536.8333333333333</ele><time>2026-04-11T09:01:44.238Z</time></trkpt><trkpt lat="44.5312945" lon="8.0103803"><ele>536.0</ele><time>2026-04-11T09:01:46.238Z</time></trkpt><trkpt lat="44.5312757" lon="8.0102728"><ele>536.0</ele><time>2026-04-11T09:01:48.238Z</time></trkpt><trkpt lat="44.5312637" lon="8.0101447"><ele>536.0</ele><time>2026-04-11T09:01:50.238Z</time></trkpt><trkpt lat="44.531259" lon="8.0100183"><ele>536.0</ele><time>2026-04-11T09:01:52.239Z</time></trkpt><trkpt lat="44.5312326" lon="8.0098932"><ele>536.0</ele><time>2026-04-11T09:01:54.238Z</time></trkpt><trkpt lat="44.5312007" lon="8.0097744"><ele>536.0</ele><time>2026-04-11T09:01:56.238Z</time></trkpt><trkpt lat="44.5311559" lon="8.0096565"><ele>537.0</ele><time>2026-04-11T09:01:58.238Z</time></trkpt><trkpt lat="44.5311232" lon="8.0095327"><ele>538.0</ele><time>2026-04-11T09:02:00.239Z</time></trkpt><trkpt lat="44.5310815" lon="8.0094188"><ele>539.0</ele><time>2026-04-11T09:02:02.238Z</time></trkpt><trkpt lat="44.5310245" lon="8.0093019"><ele>540.0</ele><time>2026-04-11T09:02:04.239Z</time></trkpt><trkpt lat="44.5309759" lon="8.009183"><ele>541.0</ele><time>2026-04-11T09:02:06.239Z</time></trkpt><trkpt lat="44.5309216" lon="8.0090791"><ele>541.0</ele><time>2026-04-11T09:02:08.239Z</time></trkpt><trkpt lat="44.5308675" lon="8.0089464"><ele>541.0</ele><time>2026-04-11T09:02:10.239Z</time></trkpt><trkpt lat="44.5308474" lon="8.0088558"><ele>541.0</ele><time>2026-04-11T09:02:11.239Z</time></trkpt><trkpt lat="44.5308209" lon="8.0086908"><ele>541.0</ele><time>2026-04-11T09:02:13.238Z</time></trkpt><trkpt lat="44.5307961" lon="8.0085352"><ele>541.0</ele><time>2026-04-11T09:02:15.239Z</time></trkpt><trkpt lat="44.5307725" lon="8.0083792"><ele>539.4</ele><time>2026-04-11T09:02:17.239Z</time></trkpt><trkpt lat="44.5307356" lon="8.0082348"><ele>537.8</ele><time>2026-04-11T09:02:19.238Z</time></trkpt><trkpt lat="44.5306963" lon="8.008097"><ele>536.1999999999999</ele><time>2026-04-11T09:02:21.239Z</time></trkpt><trkpt lat="44.5306546" lon="8.0079537"><ele>534.6</ele><time>2026-04-11T09:02:23.239Z</time></trkpt><trkpt lat="44.5306161" lon="8.0078337"><ele>533.0</ele><time>2026-04-11T09:02:25.239Z</time></trkpt><trkpt lat="44.5305653" lon="8.0077427"><ele>533.0</ele><time>2026-04-11T09:02:27.238Z</time></trkpt><trkpt lat="44.5305146" lon="8.0076589"><ele>533.0</ele><time>2026-04-11T09:02:29.239Z</time></trkpt><trkpt lat="44.5304732" lon="8.007565"><ele>533.0</ele><time>2026-04-11T09:02:31.239Z</time></trkpt><trkpt lat="44.5304247" lon="8.0074765"><ele>533.0</ele><time>2026-04-11T09:02:33.238Z</time></trkpt><trkpt lat="44.5303674" lon="8.0073891"><ele>533.0</ele><time>2026-04-11T09:02:35.238Z</time></trkpt><trkpt lat="44.5303193" lon="8.0072977"><ele>533.0</ele><time>2026-04-11T09:02:37.239Z</time></trkpt><trkpt lat="44.5302613" lon="8.0072011"><ele>533.6</ele><time>2026-04-11T09:02:39.239Z</time></trkpt><trkpt lat="44.5301965" lon="8.0070992"><ele>534.1999999999999</ele><time>2026-04-11T09:02:41.239Z</time></trkpt><trkpt lat="44.5301269" lon="8.0069916"><ele>534.8</ele><time>2026-04-11T09:02:43.239Z</time></trkpt><trkpt lat="44.5300615" lon="8.0068797"><ele>535.4</ele><time>2026-04-11T09:02:45.239Z</time></trkpt><trkpt lat="44.5299906" lon="8.0067605"><ele>536.0</ele><time>2026-04-11T09:02:47.239Z</time></trkpt><trkpt lat="44.529911" lon="8.0066508"><ele>535.6</ele><time>2026-04-11T09:02:49.24Z</time></trkpt><trkpt lat="44.5298135" lon="8.0065515"><ele>535.2</ele><time>2026-04-11T09:02:51.239Z</time></trkpt><trkpt lat="44.5297109" lon="8.0064852"><ele>534.8</ele><time>2026-04-11T09:02:53.238Z</time></trkpt><trkpt lat="44.5296105" lon="8.0064532"><ele>534.4</ele><time>2026-04-11T09:02:55.239Z</time></trkpt><trkpt lat="44.5295126" lon="8.0064519"><ele>534.0</ele><time>2026-04-11T09:02:57.239Z</time></trkpt><trkpt lat="44.5294266" lon="8.0064718"><ele>534.0</ele><time>2026-04-11T09:02:59.239Z</time></trkpt><trkpt lat="44.5293533" lon="8.0064798"><ele>534.0</ele><time>2026-04-11T09:03:01.238Z</time></trkpt><trkpt lat="44.5292745" lon="8.0064802"><ele>534.0</ele><time>2026-04-11T09:03:03.239Z</time></trkpt><trkpt lat="44.5291852" lon="8.0064547"><ele>534.0</ele><time>2026-04-11T09:03:05.239Z</time></trkpt><trkpt lat="44.5290977" lon="8.0064028"><ele>534.0</ele><time>2026-04-11T09:03:07.239Z</time></trkpt><trkpt lat="44.5290247" lon="8.0063182"><ele>534.0</ele><time>2026-04-11T09:03:09.239Z</time></trkpt><trkpt lat="44.5289671" lon="8.006223"><ele>534.0</ele><time>2026-04-11T09:03:11.239Z</time></trkpt><trkpt lat="44.5289135" lon="8.0061319"><ele>534.0</ele><time>2026-04-11T09:03:13.24Z</time></trkpt><trkpt lat="44.5288568" lon="8.0060363"><ele>534.0</ele><time>2026-04-11T09:03:15.24Z</time></trkpt><trkpt lat="44.5287987" lon="8.0059449"><ele>534.0</ele><time>2026-04-11T09:03:17.239Z</time></trkpt><trkpt lat="44.5287437" lon="8.0058497"><ele>534.0</ele><time>2026-04-11T09:03:19.24Z</time></trkpt><trkpt lat="44.5286809" lon="8.0057618"><ele>534.0</ele><time>2026-04-11T09:03:21.24Z</time></trkpt><trkpt lat="44.5286136" lon="8.0056761"><ele>535.0</ele><time>2026-04-11T09:03:23.239Z</time></trkpt><trkpt lat="44.5285526" lon="8.0055884"><ele>536.0</ele><time>2026-04-11T09:03:25.24Z</time></trkpt><trkpt lat="44.5285024" lon="8.0054965"><ele>537.0</ele><time>2026-04-11T09:03:27.24Z</time></trkpt><trkpt lat="44.5284404" lon="8.0054105"><ele>538.0</ele><time>2026-04-11T09:03:29.24Z</time></trkpt><trkpt lat="44.5283774" lon="8.0053254"><ele>539.0</ele><time>2026-04-11T09:03:31.24Z</time></trkpt><trkpt lat="44.5283221" lon="8.0052463"><ele>540.0</ele><time>2026-04-11T09:03:33.24Z</time></trkpt><trkpt lat="44.5282691" lon="8.0051753"><ele>540.0</ele><time>2026-04-11T09:03:35.24Z</time></trkpt><trkpt lat="44.5282155" lon="8.0051056"><ele>540.0</ele><time>2026-04-11T09:03:37.24Z</time></trkpt><trkpt lat="44.5281608" lon="8.0050443"><ele>540.0</ele><time>2026-04-11T09:03:39.24Z</time></trkpt><trkpt lat="44.5281096" lon="8.0049827"><ele>540.0</ele><time>2026-04-11T09:03:41.239Z</time></trkpt><trkpt lat="44.5280431" lon="8.0049183"><ele>540.0</ele><time>2026-04-11T09:03:44.239Z</time></trkpt><trkpt lat="44.5279788" lon="8.0048462"><ele>540.0</ele><time>2026-04-11T09:03:47.239Z</time></trkpt><trkpt lat="44.5279098" lon="8.0047985"><ele>541.2857142857142</ele><time>2026-04-11T09:03:50.239Z</time></trkpt><trkpt lat="44.5278466" lon="8.0047466"><ele>542.5714285714286</ele><time>2026-04-11T09:03:53.24Z</time></trkpt><trkpt lat="44.5277838" lon="8.0046954"><ele>543.8571428571429</ele><time>2026-04-11T09:03:56.239Z</time></trkpt><trkpt lat="44.5277302" lon="8.0046234"><ele>545.1428571428571</ele><time>2026-04-11T09:03:59.24Z</time></trkpt><trkpt lat="44.5276694" lon="8.0045707"><ele>546.4285714285714</ele><time>2026-04-11T09:04:02.24Z</time></trkpt><trkpt lat="44.5276013" lon="8.0044968"><ele>547.7142857142857</ele><time>2026-04-11T09:04:06.24Z</time></trkpt><trkpt lat="44.5275499" lon="8.0044327"><ele>549.0</ele><time>2026-04-11T09:04:09.239Z</time></trkpt><trkpt lat="44.5275021" lon="8.0043752"><ele>549.0</ele><time>2026-04-11T09:04:12.241Z</time></trkpt><trkpt lat="44.5274478" lon="8.0043259"><ele>549.0</ele><time>2026-04-11T09:04:15.239Z</time></trkpt><trkpt lat="44.527397" lon="8.0042622"><ele>549.0</ele><time>2026-04-11T09:04:18.241Z</time></trkpt><trkpt lat="44.5273391" lon="8.0041968"><ele>549.0</ele><time>2026-04-11T09:04:22.24Z</time></trkpt><trkpt lat="44.5272807" lon="8.0041168"><ele>549.0</ele><time>2026-04-11T09:04:26.24Z</time></trkpt><trkpt lat="44.5272204" lon="8.0040388"><ele>549.0</ele><time>2026-04-11T09:04:30.24Z</time></trkpt><trkpt lat="44.5271614" lon="8.0039627"><ele>549.7142857142857</ele><time>2026-04-11T09:04:34.241Z</time></trkpt><trkpt lat="44.5271017" lon="8.0038808"><ele>550.4285714285714</ele><time>2026-04-11T09:04:38.24Z</time></trkpt><trkpt lat="44.5270394" lon="8.003825"><ele>551.1428571428571</ele><time>2026-04-11T09:04:42.241Z</time></trkpt><trkpt lat="44.5269727" lon="8.0037558"><ele>551.8571428571429</ele><time>2026-04-11T09:04:46.241Z</time></trkpt><trkpt lat="44.5269215" lon="8.003703"><ele>552.5714285714286</ele><time>2026-04-11T09:04:49.241Z</time></trkpt><trkpt lat="44.5268643" lon="8.0036567"><ele>553.2857142857142</ele><time>2026-04-11T09:04:52.241Z</time></trkpt><trkpt lat="44.5268059" lon="8.0036057"><ele>554.0</ele><time>2026-04-11T09:04:55.241Z</time></trkpt><trkpt lat="44.5267472" lon="8.0035664"><ele>554.0</ele><time>2026-04-11T09:04:58.241Z</time></trkpt><trkpt lat="44.5266772" lon="8.0035352"><ele>554.0</ele><time>2026-04-11T09:05:01.241Z</time></trkpt><trkpt lat="44.5266093" lon="8.0034897"><ele>554.0</ele><time>2026-04-11T09:05:04.241Z</time></trkpt><trkpt lat="44.5265328" lon="8.0034547"><ele>554.0</ele><time>2026-04-11T09:05:07.242Z</time></trkpt><trkpt lat="44.5264519" lon="8.0034173"><ele>554.0</ele><time>2026-04-11T09:05:10.242Z</time></trkpt><trkpt lat="44.5263659" lon="8.0033688"><ele>554.0</ele><time>2026-04-11T09:05:13.242Z</time></trkpt><trkpt lat="44.5262956" lon="8.0033311"><ele>554.0</ele><time>2026-04-11T09:05:16.241Z</time></trkpt><trkpt lat="44.5262265" lon="8.0032934"><ele>554.0</ele><time>2026-04-11T09:05:20.241Z</time></trkpt><trkpt lat="44.5261461" lon="8.0032539"><ele>554.0</ele><time>2026-04-11T09:05:24.241Z</time></trkpt><trkpt lat="44.5260851" lon="8.0032122"><ele>554.0</ele><time>2026-04-11T09:05:28.24Z</time></trkpt><trkpt lat="44.5259889" lon="8.0031658"><ele>554.0</ele><time>2026-04-11T09:06:49.254Z</time></trkpt><trkpt lat="44.5259092" lon="8.0031075"><ele>554.0</ele><time>2026-04-11T09:06:52.305Z</time></trkpt><trkpt lat="44.5258318" lon="8.0030431"><ele>554.0</ele><time>2026-04-11T09:06:54.338Z</time></trkpt><trkpt lat="44.5257544" lon="8.0029692"><ele>554.0</ele><time>2026-04-11T09:06:56.333Z</time></trkpt><trkpt lat="44.5256802" lon="8.0028619"><ele>554.0</ele><time>2026-04-11T09:06:58.232Z</time></trkpt><trkpt lat="44.5256097" lon="8.0027396"><ele>554.0</ele><time>2026-04-11T09:07:00.209Z</time></trkpt><trkpt lat="44.5255356" lon="8.0026298"><ele>554.0</ele><time>2026-04-11T09:07:02.272Z</time></trkpt><trkpt lat="44.525447" lon="8.0025001"><ele>553.2</ele><time>2026-04-11T09:07:04.243Z</time></trkpt><trkpt lat="44.5254005" lon="8.0024349"><ele>552.4</ele><time>2026-04-11T09:07:05.243Z</time></trkpt><trkpt lat="44.5253302" lon="8.0024058"><ele>551.6</ele><time>2026-04-11T09:07:08.343Z</time></trkpt><trkpt lat="44.5251957" lon="8.0022184"><ele>550.8</ele><time>2026-04-11T09:07:10.243Z</time></trkpt><trkpt lat="44.525134" lon="8.0021371"><ele>550.0</ele><time>2026-04-11T09:07:12.243Z</time></trkpt><trkpt lat="44.5250753" lon="8.0020668"><ele>550.0</ele><time>2026-04-11T09:07:14.243Z</time></trkpt><trkpt lat="44.5250078" lon="8.0019972"><ele>550.0</ele><time>2026-04-11T09:07:16.243Z</time></trkpt><trkpt lat="44.5249444" lon="8.0019282"><ele>550.0</ele><time>2026-04-11T09:07:18.243Z</time></trkpt><trkpt lat="44.5248923" lon="8.001867"><ele>550.0</ele><time>2026-04-11T09:07:20.242Z</time></trkpt><trkpt lat="44.5248388" lon="8.0018087"><ele>550.0</ele><time>2026-04-11T09:07:22.243Z</time></trkpt><trkpt lat="44.5247738" lon="8.0017452"><ele>550.0</ele><time>2026-04-11T09:07:24.243Z</time></trkpt><trkpt lat="44.5246933" lon="8.0016659"><ele>549.0</ele><time>2026-04-11T09:07:26.243Z</time></trkpt><trkpt lat="44.5246429" lon="8.0016115"><ele>548.0</ele><time>2026-04-11T09:07:27.243Z</time></trkpt><trkpt lat="44.5245886" lon="8.0015455"><ele>547.0</ele><time>2026-04-11T09:07:28.243Z</time></trkpt><trkpt lat="44.5245346" lon="8.0014725"><ele>546.0</ele><time>2026-04-11T09:07:29.243Z</time></trkpt><trkpt lat="44.5244786" lon="8.0013896"><ele>545.0</ele><time>2026-04-11T09:07:30.243Z</time></trkpt><trkpt lat="44.5244216" lon="8.0012935"><ele>544.0</ele><time>2026-04-11T09:07:31.243Z</time></trkpt><trkpt lat="44.5243656" lon="8.0012011"><ele>544.0</ele><time>2026-04-11T09:07:32.243Z</time></trkpt><trkpt lat="44.5243083" lon="8.0011067"><ele>544.0</ele><time>2026-04-11T09:07:33.243Z</time></trkpt><trkpt lat="44.52425" lon="8.0010191"><ele>544.0</ele><time>2026-04-11T09:07:34.243Z</time></trkpt><trkpt lat="44.5241919" lon="8.0009243"><ele>544.0</ele><time>2026-04-11T09:07:35.243Z</time></trkpt><trkpt lat="44.5241347" lon="8.0008244"><ele>544.0</ele><time>2026-04-11T09:07:36.243Z</time></trkpt><trkpt lat="44.5240799" lon="8.0007337"><ele>544.0</ele><time>2026-04-11T09:07:37.243Z</time></trkpt><trkpt lat="44.524027" lon="8.0006463"><ele>544.3333333333334</ele><time>2026-04-11T09:07:38.242Z</time></trkpt><trkpt lat="44.523976" lon="8.0005725"><ele>544.6666666666667</ele><time>2026-04-11T09:07:39.243Z</time></trkpt><trkpt lat="44.5239241" lon="8.0004999"><ele>545.0</ele><time>2026-04-11T09:07:40.244Z</time></trkpt><trkpt lat="44.523877" lon="8.0004383"><ele>545.3333333333334</ele><time>2026-04-11T09:07:41.243Z</time></trkpt><trkpt lat="44.5238" lon="8.000321"><ele>545.6666666666666</ele><time>2026-04-11T09:07:43.243Z</time></trkpt><trkpt lat="44.5237561" lon="8.000209"><ele>546.0</ele><time>2026-04-11T09:07:45.243Z</time></trkpt><trkpt lat="44.5237194" lon="8.0001095"><ele>545.0</ele><time>2026-04-11T09:07:47.243Z</time></trkpt><trkpt lat="44.5236924" lon="8.0000195"><ele>544.0</ele><time>2026-04-11T09:07:49.243Z</time></trkpt><trkpt lat="44.5236625" lon="7.9999243"><ele>543.0</ele><time>2026-04-11T09:07:51.244Z</time></trkpt><trkpt lat="44.5236186" lon="7.9998317"><ele>542.0</ele><time>2026-04-11T09:07:53.244Z</time></trkpt><trkpt lat="44.5235829" lon="7.9997327"><ele>541.0</ele><time>2026-04-11T09:07:55.244Z</time></trkpt><trkpt lat="44.5235513" lon="7.9996515"><ele>540.0</ele><time>2026-04-11T09:07:57.244Z</time></trkpt><trkpt lat="44.5235029" lon="7.9995601"><ele>539.0</ele><time>2026-04-11T09:07:59.243Z</time></trkpt><trkpt lat="44.523457" lon="7.9994784"><ele>539.0</ele><time>2026-04-11T09:08:01.244Z</time></trkpt><trkpt lat="44.5234224" lon="7.9994039"><ele>539.0</ele><time>2026-04-11T09:08:03.244Z</time></trkpt><trkpt lat="44.5233779" lon="7.9993071"><ele>539.0</ele><time>2026-04-11T09:08:06.243Z</time></trkpt><trkpt lat="44.5233338" lon="7.9992265"><ele>539.0</ele><time>2026-04-11T09:08:09.244Z</time></trkpt><trkpt lat="44.5232878" lon="7.9991405"><ele>539.0</ele><time>2026-04-11T09:08:12.244Z</time></trkpt><trkpt lat="44.5232364" lon="7.9990607"><ele>539.0</ele><time>2026-04-11T09:08:15.244Z</time></trkpt><trkpt lat="44.5231898" lon="7.998975"><ele>539.0</ele><time>2026-04-11T09:08:18.244Z</time></trkpt><trkpt lat="44.5231448" lon="7.9989058"><ele>538.6666666666666</ele><time>2026-04-11T09:08:22.244Z</time></trkpt><trkpt lat="44.5231099" lon="7.9988217"><ele>538.3333333333333</ele><time>2026-04-11T09:09:18.244Z</time></trkpt><trkpt lat="44.5230659" lon="7.9987452"><ele>538.0</ele><time>2026-04-11T09:09:21.245Z</time></trkpt><trkpt lat="44.523032" lon="7.9986521"><ele>537.6666666666666</ele><time>2026-04-11T09:09:23.245Z</time></trkpt><trkpt lat="44.5229661" lon="7.998529"><ele>537.3333333333334</ele><time>2026-04-11T09:09:25.245Z</time></trkpt><trkpt lat="44.5229225" lon="7.9984614"><ele>537.0</ele><time>2026-04-11T09:09:26.245Z</time></trkpt><trkpt lat="44.5228789" lon="7.9983867"><ele>539.8333333333334</ele><time>2026-04-11T09:09:27.245Z</time></trkpt><trkpt lat="44.5228326" lon="7.9983064"><ele>542.6666666666666</ele><time>2026-04-11T09:09:28.245Z</time></trkpt><trkpt lat="44.5227804" lon="7.9982239"><ele>545.5</ele><time>2026-04-11T09:09:29.245Z</time></trkpt><trkpt lat="44.5227278" lon="7.9981419"><ele>548.3333333333333</ele><time>2026-04-11T09:09:30.245Z</time></trkpt><trkpt lat="44.5226725" lon="7.9980582"><ele>551.1666666666666</ele><time>2026-04-11T09:09:31.245Z</time></trkpt><trkpt lat="44.5226196" lon="7.9979682"><ele>554.0</ele><time>2026-04-11T09:09:32.245Z</time></trkpt><trkpt lat="44.5225673" lon="7.9978729"><ele>554.0</ele><time>2026-04-11T09:09:33.245Z</time></trkpt><trkpt lat="44.5225146" lon="7.9977702"><ele>554.0</ele><time>2026-04-11T09:09:34.245Z</time></trkpt><trkpt lat="44.5224618" lon="7.9976599"><ele>554.0</ele><time>2026-04-11T09:09:35.245Z</time></trkpt><trkpt lat="44.5224113" lon="7.9975453"><ele>554.0</ele><time>2026-04-11T09:09:36.244Z</time></trkpt><trkpt lat="44.5223619" lon="7.9974244"><ele>554.0</ele><time>2026-04-11T09:09:37.244Z</time></trkpt><trkpt lat="44.5223116" lon="7.9973008"><ele>552.8</ele><time>2026-04-11T09:09:38.245Z</time></trkpt><trkpt lat="44.5222579" lon="7.9971775"><ele>551.5999999999999</ele><time>2026-04-11T09:09:39.245Z</time></trkpt><trkpt lat="44.5222019" lon="7.997051"><ele>550.4</ele><time>2026-04-11T09:09:40.245Z</time></trkpt><trkpt lat="44.5221418" lon="7.9969214"><ele>549.1999999999999</ele><time>2026-04-11T09:09:41.245Z</time></trkpt><trkpt lat="44.5220836" lon="7.9967923"><ele>548.0</ele><time>2026-04-11T09:09:42.245Z</time></trkpt><trkpt lat="44.5220216" lon="7.9966599"><ele>547.5</ele><time>2026-04-11T09:09:43.245Z</time></trkpt><trkpt lat="44.5219581" lon="7.9965268"><ele>547.0</ele><time>2026-04-11T09:09:44.245Z</time></trkpt><trkpt lat="44.5218953" lon="7.9963903"><ele>546.5</ele><time>2026-04-11T09:09:45.245Z</time></trkpt><trkpt lat="44.5218378" lon="7.9962529"><ele>546.0</ele><time>2026-04-11T09:09:46.245Z</time></trkpt><trkpt lat="44.5217812" lon="7.9961089"><ele>546.0</ele><time>2026-04-11T09:09:47.244Z</time></trkpt><trkpt lat="44.5217333" lon="7.9959697"><ele>546.0</ele><time>2026-04-11T09:09:48.245Z</time></trkpt><trkpt lat="44.5216896" lon="7.9958348"><ele>546.0</ele><time>2026-04-11T09:09:49.245Z</time></trkpt><trkpt lat="44.5216464" lon="7.9957089"><ele>546.0</ele><time>2026-04-11T09:09:50.245Z</time></trkpt><trkpt lat="44.5216022" lon="7.9955889"><ele>546.0</ele><time>2026-04-11T09:09:51.244Z</time></trkpt><trkpt lat="44.5215581" lon="7.9954786"><ele>544.5</ele><time>2026-04-11T09:09:52.245Z</time></trkpt><trkpt lat="44.5215147" lon="7.9953722"><ele>543.0</ele><time>2026-04-11T09:09:53.245Z</time></trkpt><trkpt lat="44.5214658" lon="7.995282"><ele>541.5</ele><time>2026-04-11T09:09:54.246Z</time></trkpt><trkpt lat="44.5214113" lon="7.9951977"><ele>540.0</ele><time>2026-04-11T09:09:55.245Z</time></trkpt><trkpt lat="44.521353" lon="7.9951133"><ele>538.5</ele><time>2026-04-11T09:09:56.245Z</time></trkpt><trkpt lat="44.5212955" lon="7.9950284"><ele>537.0</ele><time>2026-04-11T09:09:57.245Z</time></trkpt><trkpt lat="44.5212347" lon="7.9949463"><ele>537.8333333333334</ele><time>2026-04-11T09:09:58.245Z</time></trkpt><trkpt lat="44.5211731" lon="7.994863"><ele>538.6666666666666</ele><time>2026-04-11T09:09:59.246Z</time></trkpt><trkpt lat="44.5211126" lon="7.9947801"><ele>539.5</ele><time>2026-04-11T09:10:00.245Z</time></trkpt><trkpt lat="44.5210553" lon="7.994699"><ele>540.3333333333333</ele><time>2026-04-11T09:10:01.245Z</time></trkpt><trkpt lat="44.5210014" lon="7.9946224"><ele>541.1666666666666</ele><time>2026-04-11T09:10:02.245Z</time></trkpt><trkpt lat="44.52095" lon="7.9945525"><ele>542.0</ele><time>2026-04-11T09:10:03.246Z</time></trkpt><trkpt lat="44.5209022" lon="7.9944871"><ele>542.0</ele><time>2026-04-11T09:10:04.245Z</time></trkpt><trkpt lat="44.5208218" lon="7.9943658"><ele>542.0</ele><time>2026-04-11T09:10:06.245Z</time></trkpt><trkpt lat="44.5207554" lon="7.9942556"><ele>542.0</ele><time>2026-04-11T09:10:08.246Z</time></trkpt><trkpt lat="44.5207009" lon="7.9941815"><ele>542.0</ele><time>2026-04-11T09:10:10.245Z</time></trkpt><trkpt lat="44.520642" lon="7.9941117"><ele>542.0</ele><time>2026-04-11T09:10:12.245Z</time></trkpt><trkpt lat="44.5205707" lon="7.9940452"><ele>542.5</ele><time>2026-04-11T09:10:14.245Z</time></trkpt><trkpt lat="44.5205041" lon="7.9939812"><ele>543.0</ele><time>2026-04-11T09:10:16.246Z</time></trkpt><trkpt lat="44.5204242" lon="7.9939254"><ele>543.5</ele><time>2026-04-11T09:10:18.246Z</time></trkpt><trkpt lat="44.5203467" lon="7.9938621"><ele>544.0</ele><time>2026-04-11T09:10:20.246Z</time></trkpt><trkpt lat="44.5202713" lon="7.9937901"><ele>544.5</ele><time>2026-04-11T09:10:22.246Z</time></trkpt><trkpt lat="44.5201967" lon="7.9937263"><ele>545.0</ele><time>2026-04-11T09:10:24.245Z</time></trkpt><trkpt lat="44.5201328" lon="7.9936711"><ele>545.0</ele><time>2026-04-11T09:10:26.246Z</time></trkpt><trkpt lat="44.5200689" lon="7.9936215"><ele>545.0</ele><time>2026-04-11T09:10:28.245Z</time></trkpt><trkpt lat="44.5200152" lon="7.9935665"><ele>545.0</ele><time>2026-04-11T09:10:30.246Z</time></trkpt><trkpt lat="44.519955" lon="7.9935121"><ele>545.0</ele><time>2026-04-11T09:10:33.245Z</time></trkpt><trkpt lat="44.519939" lon="7.9934174"><ele>545.0</ele><time>2026-04-11T09:11:02.246Z</time></trkpt><trkpt lat="44.5200216" lon="7.9934146"><ele>545.0</ele><time>2026-04-11T09:11:04.245Z</time></trkpt><trkpt lat="44.5200849" lon="7.9934428"><ele>545.0</ele><time>2026-04-11T09:11:05.246Z</time></trkpt><trkpt lat="44.5201495" lon="7.9934709"><ele>545.0</ele><time>2026-04-11T09:11:06.246Z</time></trkpt><trkpt lat="44.5202139" lon="7.9934886"><ele>545.0</ele><time>2026-04-11T09:11:07.246Z</time></trkpt><trkpt lat="44.5202822" lon="7.9934951"><ele>545.0</ele><time>2026-04-11T09:11:08.246Z</time></trkpt><trkpt lat="44.5203554" lon="7.9935051"><ele>545.0</ele><time>2026-04-11T09:11:09.246Z</time></trkpt><trkpt lat="44.5204292" lon="7.9935137"><ele>545.0</ele><time>2026-04-11T09:11:10.247Z</time></trkpt><trkpt lat="44.5205103" lon="7.9935168"><ele>545.0</ele><time>2026-04-11T09:11:11.246Z</time></trkpt><trkpt lat="44.5205882" lon="7.9935157"><ele>545.0</ele><time>2026-04-11T09:11:12.247Z</time></trkpt><trkpt lat="44.5206736" lon="7.9935081"><ele>542.8</ele><time>2026-04-11T09:11:13.246Z</time></trkpt><trkpt lat="44.5207675" lon="7.9934951"><ele>540.6</ele><time>2026-04-11T09:11:14.247Z</time></trkpt><trkpt lat="44.5208689" lon="7.9934791"><ele>538.4</ele><time>2026-04-11T09:11:15.245Z</time></trkpt><trkpt lat="44.5209717" lon="7.993461"><ele>536.2</ele><time>2026-04-11T09:11:16.247Z</time></trkpt><trkpt lat="44.521071" lon="7.9934428"><ele>534.0</ele><time>2026-04-11T09:11:17.246Z</time></trkpt><trkpt lat="44.5211689" lon="7.9934307"><ele>531.6</ele><time>2026-04-11T09:11:18.246Z</time></trkpt><trkpt lat="44.5212667" lon="7.9934266"><ele>529.2</ele><time>2026-04-11T09:11:19.247Z</time></trkpt><trkpt lat="44.5213669" lon="7.9934166"><ele>526.8000000000001</ele><time>2026-04-11T09:11:20.246Z</time></trkpt><trkpt lat="44.5214699" lon="7.9934041"><ele>524.4</ele><time>2026-04-11T09:11:21.246Z</time></trkpt><trkpt lat="44.5215628" lon="7.9933955"><ele>522.0</ele><time>2026-04-11T09:11:22.247Z</time></trkpt><trkpt lat="44.5216387" lon="7.9933901"><ele>522.0</ele><time>2026-04-11T09:11:23.246Z</time></trkpt><trkpt lat="44.5217508" lon="7.9933728"><ele>522.0</ele><time>2026-04-11T09:11:25.247Z</time></trkpt><trkpt lat="44.5218299" lon="7.9933236"><ele>522.0</ele><time>2026-04-11T09:11:27.247Z</time></trkpt><trkpt lat="44.5219103" lon="7.9932033"><ele>522.0</ele><time>2026-04-11T09:11:29.247Z</time></trkpt><trkpt lat="44.5219462" lon="7.9931142"><ele>522.0</ele><time>2026-04-11T09:11:30.247Z</time></trkpt><trkpt lat="44.5219831" lon="7.993016"><ele>522.0</ele><time>2026-04-11T09:11:31.247Z</time></trkpt><trkpt lat="44.5220199" lon="7.9929177"><ele>522.0</ele><time>2026-04-11T09:11:32.247Z</time></trkpt><trkpt lat="44.5220613" lon="7.9928153"><ele>522.0</ele><time>2026-04-11T09:11:33.247Z</time></trkpt><trkpt lat="44.522104" lon="7.9927097"><ele>522.0</ele><time>2026-04-11T09:11:34.247Z</time></trkpt><trkpt lat="44.5221453" lon="7.9926029"><ele>522.0</ele><time>2026-04-11T09:11:35.247Z</time></trkpt><trkpt lat="44.5221884" lon="7.9924945"><ele>522.0</ele><time>2026-04-11T09:11:36.247Z</time></trkpt><trkpt lat="44.5222313" lon="7.9923745"><ele>518.8000000000001</ele><time>2026-04-11T09:11:37.247Z</time></trkpt><trkpt lat="44.5222735" lon="7.9922481"><ele>515.6</ele><time>2026-04-11T09:11:38.247Z</time></trkpt><trkpt lat="44.5223184" lon="7.9921197"><ele>512.4000000000001</ele><time>2026-04-11T09:11:39.246Z</time></trkpt><trkpt lat="44.522368" lon="7.9919875"><ele>509.20000000000005</ele><time>2026-04-11T09:11:40.247Z</time></trkpt><trkpt lat="44.5224264" lon="7.9918578"><ele>506.0</ele><time>2026-04-11T09:11:41.247Z</time></trkpt><trkpt lat="44.5224935" lon="7.9917295"><ele>505.75</ele><time>2026-04-11T09:11:42.247Z</time></trkpt><trkpt lat="44.5225707" lon="7.9916016"><ele>505.5</ele><time>2026-04-11T09:11:43.246Z</time></trkpt><trkpt lat="44.522656" lon="7.9914789"><ele>505.25</ele><time>2026-04-11T09:11:44.247Z</time></trkpt><trkpt lat="44.5227491" lon="7.9913651"><ele>505.0</ele><time>2026-04-11T09:11:45.247Z</time></trkpt><trkpt lat="44.5228447" lon="7.9912658"><ele>502.2</ele><time>2026-04-11T09:11:46.246Z</time></trkpt><trkpt lat="44.5229309" lon="7.9911863"><ele>499.4</ele><time>2026-04-11T09:11:47.247Z</time></trkpt><trkpt lat="44.5230163" lon="7.9911166"><ele>496.6</ele><time>2026-04-11T09:11:48.247Z</time></trkpt><trkpt lat="44.5230985" lon="7.9910583"><ele>493.8</ele><time>2026-04-11T09:11:49.246Z</time></trkpt><trkpt lat="44.5231767" lon="7.9910033"><ele>491.0</ele><time>2026-04-11T09:11:50.247Z</time></trkpt><trkpt lat="44.5232467" lon="7.9909516"><ele>490.99999999999994</ele><time>2026-04-11T09:11:51.247Z</time></trkpt><trkpt lat="44.5233081" lon="7.9909004"><ele>491.0</ele><time>2026-04-11T09:11:52.247Z</time></trkpt><trkpt lat="44.5233626" lon="7.990853"><ele>491.0</ele><time>2026-04-11T09:11:53.246Z</time></trkpt><trkpt lat="44.523458" lon="7.9907791"><ele>491.0</ele><time>2026-04-11T09:11:55.247Z</time></trkpt><trkpt lat="44.5235594" lon="7.9907133"><ele>490.99999999999994</ele><time>2026-04-11T09:11:57.247Z</time></trkpt><trkpt lat="44.5236133" lon="7.9906572"><ele>491.0</ele><time>2026-04-11T09:11:58.247Z</time></trkpt><trkpt lat="44.523662" lon="7.9905842"><ele>492.6</ele><time>2026-04-11T09:11:59.247Z</time></trkpt><trkpt lat="44.5237009" lon="7.9905055"><ele>494.20000000000005</ele><time>2026-04-11T09:12:00.247Z</time></trkpt><trkpt lat="44.5237441" lon="7.9903672"><ele>495.79999999999995</ele><time>2026-04-11T09:12:02.246Z</time></trkpt><trkpt lat="44.5237756" lon="7.9902749"><ele>497.4</ele><time>2026-04-11T09:12:04.247Z</time></trkpt><trkpt lat="44.5237855" lon="7.9901564"><ele>499.0</ele><time>2026-04-11T09:12:06.246Z</time></trkpt><trkpt lat="44.5237518" lon="7.9899983"><ele>498.6666666666667</ele><time>2026-04-11T09:12:08.247Z</time></trkpt><trkpt lat="44.5237249" lon="7.9899156"><ele>498.33333333333337</ele><time>2026-04-11T09:12:09.247Z</time></trkpt><trkpt lat="44.5236988" lon="7.9898201"><ele>498.0</ele><time>2026-04-11T09:12:10.247Z</time></trkpt><trkpt lat="44.5236774" lon="7.9897162"><ele>497.66666666666663</ele><time>2026-04-11T09:12:11.247Z</time></trkpt><trkpt lat="44.5236664" lon="7.9896097"><ele>497.3333333333333</ele><time>2026-04-11T09:12:12.247Z</time></trkpt><trkpt lat="44.5236687" lon="7.9894971"><ele>497.0</ele><time>2026-04-11T09:12:13.247Z</time></trkpt><trkpt lat="44.5236916" lon="7.9893898"><ele>496.99999999999994</ele><time>2026-04-11T09:12:14.247Z</time></trkpt><trkpt lat="44.5237273" lon="7.9892837"><ele>497.0</ele><time>2026-04-11T09:12:15.247Z</time></trkpt><trkpt lat="44.5237652" lon="7.9891774"><ele>497.0</ele><time>2026-04-11T09:12:16.248Z</time></trkpt><trkpt lat="44.5237946" lon="7.9890719"><ele>497.0</ele><time>2026-04-11T09:12:17.247Z</time></trkpt><trkpt lat="44.5238113" lon="7.9889681"><ele>496.99999999999994</ele><time>2026-04-11T09:12:18.248Z</time></trkpt><trkpt lat="44.523814" lon="7.9888672"><ele>497.0</ele><time>2026-04-11T09:12:19.247Z</time></trkpt><trkpt lat="44.523799" lon="7.9887732"><ele>495.66666666666663</ele><time>2026-04-11T09:12:20.248Z</time></trkpt><trkpt lat="44.523775" lon="7.9886876"><ele>494.3333333333333</ele><time>2026-04-11T09:12:21.248Z</time></trkpt><trkpt lat="44.5237427" lon="7.9885965"><ele>493.0</ele><time>2026-04-11T09:12:22.246Z</time></trkpt><trkpt lat="44.5237027" lon="7.9885018"><ele>491.66666666666663</ele><time>2026-04-11T09:12:23.247Z</time></trkpt><trkpt lat="44.5236669" lon="7.9884045"><ele>490.3333333333333</ele><time>2026-04-11T09:12:24.247Z</time></trkpt><trkpt lat="44.5236457" lon="7.9882912"><ele>489.0</ele><time>2026-04-11T09:12:25.248Z</time></trkpt><trkpt lat="44.5236422" lon="7.9881599"><ele>487.6666666666667</ele><time>2026-04-11T09:12:26.247Z</time></trkpt><trkpt lat="44.5236546" lon="7.9880593"><ele>486.33333333333337</ele><time>2026-04-11T09:12:27.247Z</time></trkpt><trkpt lat="44.523739" lon="7.9879631"><ele>485.0</ele><time>2026-04-11T09:12:29.248Z</time></trkpt><trkpt lat="44.5238008" lon="7.9879901"><ele>483.6666666666667</ele><time>2026-04-11T09:12:30.248Z</time></trkpt><trkpt lat="44.523869" lon="7.9880466"><ele>482.33333333333337</ele><time>2026-04-11T09:12:31.248Z</time></trkpt><trkpt lat="44.5239339" lon="7.9881289"><ele>481.0</ele><time>2026-04-11T09:12:32.247Z</time></trkpt><trkpt lat="44.5239818" lon="7.9882347"><ele>480.33333333333337</ele><time>2026-04-11T09:12:33.247Z</time></trkpt><trkpt lat="44.5240181" lon="7.9883338"><ele>479.6666666666667</ele><time>2026-04-11T09:12:34.247Z</time></trkpt><trkpt lat="44.5240519" lon="7.9884388"><ele>479.0</ele><time>2026-04-11T09:12:35.248Z</time></trkpt><trkpt lat="44.5240829" lon="7.9885475"><ele>478.33333333333337</ele><time>2026-04-11T09:12:36.247Z</time></trkpt><trkpt lat="44.5241051" lon="7.9886685"><ele>477.6666666666667</ele><time>2026-04-11T09:12:37.247Z</time></trkpt><trkpt lat="44.5241343" lon="7.9887926"><ele>477.0</ele><time>2026-04-11T09:12:38.247Z</time></trkpt><trkpt lat="44.5241608" lon="7.9889011"><ele>477.0</ele><time>2026-04-11T09:12:39.248Z</time></trkpt><trkpt lat="44.524178" lon="7.9889901"><ele>477.00000000000006</ele><time>2026-04-11T09:12:40.248Z</time></trkpt><trkpt lat="44.5242004" lon="7.9891299"><ele>477.00000000000006</ele><time>2026-04-11T09:12:42.248Z</time></trkpt><trkpt lat="44.5242277" lon="7.9892433"><ele>477.0</ele><time>2026-04-11T09:12:44.247Z</time></trkpt><trkpt lat="44.5242929" lon="7.9892727"><ele>477.0</ele><time>2026-04-11T09:12:46.248Z</time></trkpt><trkpt lat="44.5243861" lon="7.9891252"><ele>477.0</ele><time>2026-04-11T09:12:48.248Z</time></trkpt><trkpt lat="44.524408" lon="7.9890329"><ele>476.99999999999994</ele><time>2026-04-11T09:12:49.248Z</time></trkpt><trkpt lat="44.524419" lon="7.9889429"><ele>477.0</ele><time>2026-04-11T09:12:50.247Z</time></trkpt><trkpt lat="44.524422" lon="7.9888477"><ele>477.0</ele><time>2026-04-11T09:12:51.248Z</time></trkpt><trkpt lat="44.5244285" lon="7.988748"><ele>476.99999999999994</ele><time>2026-04-11T09:12:52.248Z</time></trkpt><trkpt lat="44.5244388" lon="7.9886413"><ele>477.0</ele><time>2026-04-11T09:12:53.248Z</time></trkpt><trkpt lat="44.5244481" lon="7.9885315"><ele>477.0</ele><time>2026-04-11T09:12:54.248Z</time></trkpt><trkpt lat="44.5244538" lon="7.9884127"><ele>475.40000000000003</ele><time>2026-04-11T09:12:55.248Z</time></trkpt><trkpt lat="44.5244522" lon="7.988274"><ele>473.80000000000007</ele><time>2026-04-11T09:12:56.248Z</time></trkpt><trkpt lat="44.5244494" lon="7.9881304"><ele>472.2</ele><time>2026-04-11T09:12:57.248Z</time></trkpt><trkpt lat="44.5244406" lon="7.9879726"><ele>470.6</ele><time>2026-04-11T09:12:58.248Z</time></trkpt><trkpt lat="44.5244327" lon="7.9878148"><ele>469.0</ele><time>2026-04-11T09:12:59.248Z</time></trkpt><trkpt lat="44.5244235" lon="7.9876605"><ele>467.75</ele><time>2026-04-11T09:13:00.247Z</time></trkpt><trkpt lat="44.5244157" lon="7.9874961"><ele>466.5</ele><time>2026-04-11T09:13:01.248Z</time></trkpt><trkpt lat="44.5244079" lon="7.9873273"><ele>465.25</ele><time>2026-04-11T09:13:02.247Z</time></trkpt><trkpt lat="44.5243984" lon="7.9871773"><ele>464.0</ele><time>2026-04-11T09:13:03.248Z</time></trkpt><trkpt lat="44.5243794" lon="7.9870337"><ele>464.0</ele><time>2026-04-11T09:13:04.247Z</time></trkpt><trkpt lat="44.524351" lon="7.986893"><ele>464.0</ele><time>2026-04-11T09:13:05.248Z</time></trkpt><trkpt lat="44.524301" lon="7.9867463"><ele>464.0</ele><time>2026-04-11T09:13:06.248Z</time></trkpt><trkpt lat="44.5242459" lon="7.9866173"><ele>464.0</ele><time>2026-04-11T09:13:07.248Z</time></trkpt><trkpt lat="44.5241878" lon="7.9864856"><ele>464.0</ele><time>2026-04-11T09:13:08.248Z</time></trkpt><trkpt lat="44.52413" lon="7.9863549"><ele>462.6</ele><time>2026-04-11T09:13:09.248Z</time></trkpt><trkpt lat="44.5240757" lon="7.9862195"><ele>461.2</ele><time>2026-04-11T09:13:10.248Z</time></trkpt><trkpt lat="44.524028" lon="7.9860872"><ele>459.80000000000007</ele><time>2026-04-11T09:13:11.248Z</time></trkpt><trkpt lat="44.523981" lon="7.9859512"><ele>458.40000000000003</ele><time>2026-04-11T09:13:12.248Z</time></trkpt><trkpt lat="44.5239317" lon="7.9858164"><ele>457.0</ele><time>2026-04-11T09:13:13.248Z</time></trkpt><trkpt lat="44.5238775" lon="7.9856859"><ele>456.1666666666667</ele><time>2026-04-11T09:13:14.248Z</time></trkpt><trkpt lat="44.5238201" lon="7.9855684"><ele>455.33333333333337</ele><time>2026-04-11T09:13:15.248Z</time></trkpt><trkpt lat="44.5237595" lon="7.9854667"><ele>454.5</ele><time>2026-04-11T09:13:16.248Z</time></trkpt><trkpt lat="44.5237025" lon="7.9853842"><ele>453.66666666666663</ele><time>2026-04-11T09:13:17.247Z</time></trkpt><trkpt lat="44.5236539" lon="7.9853156"><ele>452.8333333333333</ele><time>2026-04-11T09:13:18.248Z</time></trkpt><trkpt lat="44.5235834" lon="7.9852264"><ele>452.0</ele><time>2026-04-11T09:13:20.247Z</time></trkpt><trkpt lat="44.5236063" lon="7.9851201"><ele>451.99999999999994</ele><time>2026-04-11T09:13:23.247Z</time></trkpt><trkpt lat="44.5237017" lon="7.9851468"><ele>452.0</ele><time>2026-04-11T09:13:25.248Z</time></trkpt><trkpt lat="44.5237572" lon="7.9852063"><ele>452.0</ele><time>2026-04-11T09:13:26.247Z</time></trkpt><trkpt lat="44.5238147" lon="7.9852733"><ele>452.0</ele><time>2026-04-11T09:13:27.248Z</time></trkpt><trkpt lat="44.5238699" lon="7.9853311"><ele>451.99999999999994</ele><time>2026-04-11T09:13:28.247Z</time></trkpt><trkpt lat="44.5239263" lon="7.9853924"><ele>452.0</ele><time>2026-04-11T09:13:29.248Z</time></trkpt><trkpt lat="44.5239803" lon="7.9854577"><ele>450.99999999999994</ele><time>2026-04-11T09:13:30.249Z</time></trkpt><trkpt lat="44.524038" lon="7.9855272"><ele>450.0</ele><time>2026-04-11T09:13:31.249Z</time></trkpt><trkpt lat="44.5241023" lon="7.9855992"><ele>449.0</ele><time>2026-04-11T09:13:32.247Z</time></trkpt><trkpt lat="44.5241733" lon="7.9856717"><ele>448.0</ele><time>2026-04-11T09:13:33.248Z</time></trkpt><trkpt lat="44.5242482" lon="7.9857368"><ele>446.99999999999994</ele><time>2026-04-11T09:13:34.248Z</time></trkpt><trkpt lat="44.5243191" lon="7.9857867"><ele>446.0</ele><time>2026-04-11T09:13:35.247Z</time></trkpt><trkpt lat="44.5243847" lon="7.9858266"><ele>445.16666666666663</ele><time>2026-04-11T09:13:36.248Z</time></trkpt><trkpt lat="44.5244402" lon="7.9858701"><ele>444.3333333333333</ele><time>2026-04-11T09:13:37.249Z</time></trkpt><trkpt lat="44.5245227" lon="7.9859426"><ele>443.5</ele><time>2026-04-11T09:13:39.249Z</time></trkpt><trkpt lat="44.5245829" lon="7.9859818"><ele>442.66666666666663</ele><time>2026-04-11T09:13:41.248Z</time></trkpt><trkpt lat="44.5246498" lon="7.985936"><ele>441.8333333333333</ele><time>2026-04-11T09:13:43.247Z</time></trkpt><trkpt lat="44.524675" lon="7.9857959"><ele>441.0</ele><time>2026-04-11T09:13:45.248Z</time></trkpt><trkpt lat="44.5246477" lon="7.9857129"><ele>442.0</ele><time>2026-04-11T09:13:46.248Z</time></trkpt><trkpt lat="44.5246105" lon="7.9856189"><ele>443.0</ele><time>2026-04-11T09:13:47.249Z</time></trkpt><trkpt lat="44.5245718" lon="7.9855056"><ele>444.0</ele><time>2026-04-11T09:13:48.249Z</time></trkpt><trkpt lat="44.5245313" lon="7.9853892"><ele>445.0</ele><time>2026-04-11T09:13:49.249Z</time></trkpt><trkpt lat="44.5244865" lon="7.9852748"><ele>446.0</ele><time>2026-04-11T09:13:50.249Z</time></trkpt><trkpt lat="44.524433" lon="7.9851485"><ele>446.0</ele><time>2026-04-11T09:13:51.248Z</time></trkpt><trkpt lat="44.5243799" lon="7.9850225"><ele>446.0</ele><time>2026-04-11T09:13:52.249Z</time></trkpt><trkpt lat="44.5243348" lon="7.9848986"><ele>446.0</ele><time>2026-04-11T09:13:53.249Z</time></trkpt><trkpt lat="44.5242908" lon="7.9847764"><ele>446.0</ele><time>2026-04-11T09:13:54.249Z</time></trkpt><trkpt lat="44.5242463" lon="7.9846534"><ele>446.0</ele><time>2026-04-11T09:13:55.249Z</time></trkpt><trkpt lat="44.5242018" lon="7.9845295"><ele>442.8</ele><time>2026-04-11T09:13:56.249Z</time></trkpt><trkpt lat="44.5241614" lon="7.9843998"><ele>439.6</ele><time>2026-04-11T09:13:57.249Z</time></trkpt><trkpt lat="44.5241212" lon="7.9842641"><ele>436.4</ele><time>2026-04-11T09:13:58.249Z</time></trkpt><trkpt lat="44.524088" lon="7.9841244"><ele>433.2</ele><time>2026-04-11T09:13:59.249Z</time></trkpt><trkpt lat="44.5240622" lon="7.9839689"><ele>430.0</ele><time>2026-04-11T09:14:00.249Z</time></trkpt><trkpt lat="44.5240392" lon="7.9838142"><ele>427.25</ele><time>2026-04-11T09:14:01.248Z</time></trkpt><trkpt lat="44.5240094" lon="7.9836612"><ele>424.5</ele><time>2026-04-11T09:14:02.249Z</time></trkpt><trkpt lat="44.5239761" lon="7.9835083"><ele>421.75</ele><time>2026-04-11T09:14:03.249Z</time></trkpt><trkpt lat="44.5239326" lon="7.9833608"><ele>419.0</ele><time>2026-04-11T09:14:04.249Z</time></trkpt><trkpt lat="44.5238788" lon="7.9832162"><ele>418.25</ele><time>2026-04-11T09:14:05.249Z</time></trkpt><trkpt lat="44.5238096" lon="7.9830796"><ele>417.5</ele><time>2026-04-11T09:14:06.249Z</time></trkpt><trkpt lat="44.5237386" lon="7.9829464"><ele>416.75</ele><time>2026-04-11T09:14:07.249Z</time></trkpt><trkpt lat="44.5236638" lon="7.9828174"><ele>416.0</ele><time>2026-04-11T09:14:08.249Z</time></trkpt><trkpt lat="44.5236038" lon="7.9827067"><ele>416.0</ele><time>2026-04-11T09:14:09.249Z</time></trkpt><trkpt lat="44.5235606" lon="7.9826081"><ele>416.0</ele><time>2026-04-11T09:14:10.248Z</time></trkpt><trkpt lat="44.5235271" lon="7.9825228"><ele>416.0</ele><time>2026-04-11T09:14:11.249Z</time></trkpt><trkpt lat="44.5235016" lon="7.9823519"><ele>416.0</ele><time>2026-04-11T09:14:13.249Z</time></trkpt><trkpt lat="44.5234942" lon="7.982179"><ele>416.0</ele><time>2026-04-11T09:14:15.249Z</time></trkpt><trkpt lat="44.5234834" lon="7.9820839"><ele>414.16666666666663</ele><time>2026-04-11T09:14:16.249Z</time></trkpt><trkpt lat="44.5234666" lon="7.9819852"><ele>412.3333333333333</ele><time>2026-04-11T09:14:17.249Z</time></trkpt><trkpt lat="44.5234321" lon="7.9818735"><ele>410.5</ele><time>2026-04-11T09:14:18.249Z</time></trkpt><trkpt lat="44.5233853" lon="7.9817826"><ele>408.66666666666663</ele><time>2026-04-11T09:14:19.249Z</time></trkpt><trkpt lat="44.5233291" lon="7.9817259"><ele>406.8333333333333</ele><time>2026-04-11T09:14:20.249Z</time></trkpt><trkpt lat="44.5232174" lon="7.9816902"><ele>405.0</ele><time>2026-04-11T09:14:22.249Z</time></trkpt><trkpt lat="44.5231362" lon="7.9816896"><ele>403.1666666666667</ele><time>2026-04-11T09:14:24.249Z</time></trkpt><trkpt lat="44.5230537" lon="7.981674"><ele>401.33333333333337</ele><time>2026-04-11T09:14:26.249Z</time></trkpt><trkpt lat="44.5229827" lon="7.9816172"><ele>399.5</ele><time>2026-04-11T09:14:28.249Z</time></trkpt><trkpt lat="44.5230366" lon="7.981482"><ele>397.6666666666667</ele><time>2026-04-11T09:14:30.248Z</time></trkpt><trkpt lat="44.5230939" lon="7.9814264"><ele>395.83333333333337</ele><time>2026-04-11T09:14:31.25Z</time></trkpt><trkpt lat="44.5231568" lon="7.9813842"><ele>394.0</ele><time>2026-04-11T09:14:32.249Z</time></trkpt><trkpt lat="44.5232369" lon="7.9813305"><ele>394.0</ele><time>2026-04-11T09:14:33.249Z</time></trkpt><trkpt lat="44.5233387" lon="7.9812508"><ele>394.0</ele><time>2026-04-11T09:14:34.248Z</time></trkpt><trkpt lat="44.5234222" lon="7.9811896"><ele>394.0</ele><time>2026-04-11T09:14:35.25Z</time></trkpt><trkpt lat="44.5234958" lon="7.9811311"><ele>394.0</ele><time>2026-04-11T09:14:36.25Z</time></trkpt><trkpt lat="44.5235781" lon="7.9810682"><ele>394.0</ele><time>2026-04-11T09:14:37.248Z</time></trkpt><trkpt lat="44.523662" lon="7.9810041"><ele>393.79999999999995</ele><time>2026-04-11T09:14:38.25Z</time></trkpt><trkpt lat="44.5237406" lon="7.9809472"><ele>393.59999999999997</ele><time>2026-04-11T09:14:39.249Z</time></trkpt><trkpt lat="44.5238085" lon="7.9809023"><ele>393.4</ele><time>2026-04-11T09:14:40.25Z</time></trkpt><trkpt lat="44.5239279" lon="7.9808637"><ele>393.2</ele><time>2026-04-11T09:14:42.249Z</time></trkpt><trkpt lat="44.5240213" lon="7.9808216"><ele>393.0</ele><time>2026-04-11T09:14:44.25Z</time></trkpt><trkpt lat="44.5240704" lon="7.9807506"><ele>391.8333333333333</ele><time>2026-04-11T09:14:46.248Z</time></trkpt><trkpt lat="44.5240489" lon="7.9806545"><ele>390.66666666666663</ele><time>2026-04-11T09:14:48.249Z</time></trkpt><trkpt lat="44.5239946" lon="7.9806055"><ele>389.5</ele><time>2026-04-11T09:14:50.249Z</time></trkpt><trkpt lat="44.5238967" lon="7.980616"><ele>388.3333333333333</ele><time>2026-04-11T09:14:52.249Z</time></trkpt><trkpt lat="44.5237805" lon="7.9806302"><ele>387.16666666666663</ele><time>2026-04-11T09:14:54.248Z</time></trkpt><trkpt lat="44.5237102" lon="7.98064"><ele>386.0</ele><time>2026-04-11T09:14:55.249Z</time></trkpt><trkpt lat="44.5236399" lon="7.9806521"><ele>384.66666666666663</ele><time>2026-04-11T09:14:56.25Z</time></trkpt><trkpt lat="44.5235684" lon="7.9806717"><ele>383.3333333333333</ele><time>2026-04-11T09:14:57.249Z</time></trkpt><trkpt lat="44.5235017" lon="7.9806875"><ele>382.0</ele><time>2026-04-11T09:14:58.25Z</time></trkpt><trkpt lat="44.5233854" lon="7.9806983"><ele>380.66666666666663</ele><time>2026-04-11T09:15:00.25Z</time></trkpt><trkpt lat="44.5232961" lon="7.9807282"><ele>379.3333333333333</ele><time>2026-04-11T09:15:02.25Z</time></trkpt><trkpt lat="44.523212" lon="7.9807714"><ele>378.0</ele><time>2026-04-11T09:15:04.25Z</time></trkpt><trkpt lat="44.5231213" lon="7.9808143"><ele>378.0</ele><time>2026-04-11T09:15:06.25Z</time></trkpt><trkpt lat="44.523029" lon="7.9808303"><ele>378.0</ele><time>2026-04-11T09:15:08.25Z</time></trkpt><trkpt lat="44.52301" lon="7.9807247"><ele>378.0</ele><time>2026-04-11T09:15:11.249Z</time></trkpt><trkpt lat="44.5231011" lon="7.9806239"><ele>378.0</ele><time>2026-04-11T09:15:13.249Z</time></trkpt><trkpt lat="44.5231566" lon="7.9805789"><ele>378.0</ele><time>2026-04-11T09:15:14.25Z</time></trkpt><trkpt lat="44.523216" lon="7.9805304"><ele>378.0</ele><time>2026-04-11T09:15:15.25Z</time></trkpt><trkpt lat="44.5232784" lon="7.9804704"><ele>378.0</ele><time>2026-04-11T09:15:16.25Z</time></trkpt><trkpt lat="44.5233397" lon="7.9804093"><ele>378.0</ele><time>2026-04-11T09:15:17.25Z</time></trkpt><trkpt lat="44.5234086" lon="7.9803481"><ele>378.0</ele><time>2026-04-11T09:15:18.25Z</time></trkpt><trkpt lat="44.5234811" lon="7.9802882"><ele>378.0</ele><time>2026-04-11T09:15:19.25Z</time></trkpt><trkpt lat="44.5235596" lon="7.9802235"><ele>378.0</ele><time>2026-04-11T09:15:20.25Z</time></trkpt><trkpt lat="44.5236426" lon="7.9801584"><ele>378.0</ele><time>2026-04-11T09:15:21.25Z</time></trkpt><trkpt lat="44.5237267" lon="7.9801092"><ele>377.14285714285717</ele><time>2026-04-11T09:15:22.25Z</time></trkpt><trkpt lat="44.523806" lon="7.9800688"><ele>376.2857142857143</ele><time>2026-04-11T09:15:23.25Z</time></trkpt><trkpt lat="44.5238767" lon="7.9800285"><ele>375.42857142857144</ele><time>2026-04-11T09:15:24.25Z</time></trkpt><trkpt lat="44.523941" lon="7.9799836"><ele>374.57142857142856</ele><time>2026-04-11T09:15:25.25Z</time></trkpt><trkpt lat="44.524002" lon="7.9799428"><ele>373.7142857142857</ele><time>2026-04-11T09:15:26.25Z</time></trkpt><trkpt lat="44.5240661" lon="7.9799038"><ele>372.8571428571429</ele><time>2026-04-11T09:15:27.25Z</time></trkpt><trkpt lat="44.5241266" lon="7.9798684"><ele>372.0</ele><time>2026-04-11T09:15:28.249Z</time></trkpt><trkpt lat="44.5242007" lon="7.979798"><ele>372.0</ele><time>2026-04-11T09:15:30.25Z</time></trkpt><trkpt lat="44.5242097" lon="7.9797074"><ele>372.0</ele><time>2026-04-11T09:15:33.249Z</time></trkpt><trkpt lat="44.5241196" lon="7.9796887"><ele>372.0</ele><time>2026-04-11T09:15:36.25Z</time></trkpt><trkpt lat="44.5240004" lon="7.9797302"><ele>372.0</ele><time>2026-04-11T09:15:38.25Z</time></trkpt><trkpt lat="44.5239322" lon="7.979749"><ele>372.0</ele><time>2026-04-11T09:15:39.25Z</time></trkpt><trkpt lat="44.5238584" lon="7.9797651"><ele>372.0</ele><time>2026-04-11T09:15:40.249Z</time></trkpt><trkpt lat="44.5237834" lon="7.9797863"><ele>369.3333333333333</ele><time>2026-04-11T09:15:41.25Z</time></trkpt><trkpt lat="44.5237174" lon="7.9798102"><ele>366.6666666666667</ele><time>2026-04-11T09:15:42.25Z</time></trkpt><trkpt lat="44.5236522" lon="7.9798367"><ele>364.0</ele><time>2026-04-11T09:15:43.25Z</time></trkpt><trkpt lat="44.5235554" lon="7.9798766"><ele>361.33333333333337</ele><time>2026-04-11T09:15:45.25Z</time></trkpt><trkpt lat="44.5234895" lon="7.9799142"><ele>358.6666666666667</ele><time>2026-04-11T09:15:47.251Z</time></trkpt><trkpt lat="44.5234056" lon="7.9799334"><ele>356.0</ele><time>2026-04-11T09:15:50.25Z</time></trkpt><trkpt lat="44.5233313" lon="7.979964"><ele>356.0</ele><time>2026-04-11T09:15:53.249Z</time></trkpt><trkpt lat="44.5232891" lon="7.9800427"><ele>356.0</ele><time>2026-04-11T09:15:56.25Z</time></trkpt><trkpt lat="44.5233049" lon="7.9799151"><ele>356.0</ele><time>2026-04-11T09:16:40.251Z</time></trkpt><trkpt lat="44.5233987" lon="7.9798681"><ele>356.0</ele><time>2026-04-11T09:16:43.251Z</time></trkpt><trkpt lat="44.5234725" lon="7.9798435"><ele>356.0</ele><time>2026-04-11T09:16:45.251Z</time></trkpt><trkpt lat="44.5235517" lon="7.9797883"><ele>356.0</ele><time>2026-04-11T09:16:47.251Z</time></trkpt><trkpt lat="44.523636" lon="7.979718"><ele>356.0</ele><time>2026-04-11T09:16:49.251Z</time></trkpt><trkpt lat="44.5237015" lon="7.9796763"><ele>356.0</ele><time>2026-04-11T09:16:50.251Z</time></trkpt><trkpt lat="44.523816" lon="7.9796271"><ele>356.0</ele><time>2026-04-11T09:16:52.252Z</time></trkpt><trkpt lat="44.5239173" lon="7.9795746"><ele>356.0</ele><time>2026-04-11T09:16:54.252Z</time></trkpt><trkpt lat="44.5239778" lon="7.9795415"><ele>356.0</ele><time>2026-04-11T09:16:55.251Z</time></trkpt><trkpt lat="44.5240407" lon="7.9795104"><ele>356.0</ele><time>2026-04-11T09:16:56.251Z</time></trkpt><trkpt lat="44.5241043" lon="7.9794777"><ele>358.6666666666667</ele><time>2026-04-11T09:16:57.251Z</time></trkpt><trkpt lat="44.5241701" lon="7.9794404"><ele>361.33333333333337</ele><time>2026-04-11T09:16:58.251Z</time></trkpt><trkpt lat="44.5242351" lon="7.9794072"><ele>364.0</ele><time>2026-04-11T09:16:59.251Z</time></trkpt><trkpt lat="44.5243032" lon="7.9793762"><ele>366.6666666666667</ele><time>2026-04-11T09:17:00.252Z</time></trkpt><trkpt lat="44.5243661" lon="7.9793447"><ele>369.3333333333333</ele><time>2026-04-11T09:17:01.251Z</time></trkpt><trkpt lat="44.5244771" lon="7.9793411"><ele>372.0</ele><time>2026-04-11T09:17:03.251Z</time></trkpt><trkpt lat="44.5245413" lon="7.9793784"><ele>367.0</ele><time>2026-04-11T09:17:04.252Z</time></trkpt><trkpt lat="44.5246536" lon="7.979459"><ele>362.0</ele><time>2026-04-11T09:17:06.25Z</time></trkpt><trkpt lat="44.5247234" lon="7.9795239"><ele>357.0</ele><time>2026-04-11T09:17:07.251Z</time></trkpt><trkpt lat="44.5248104" lon="7.9795893"><ele>352.0</ele><time>2026-04-11T09:17:08.252Z</time></trkpt><trkpt lat="44.524906" lon="7.9796617"><ele>347.0</ele><time>2026-04-11T09:17:09.252Z</time></trkpt><trkpt lat="44.5249861" lon="7.9797223"><ele>347.0</ele><time>2026-04-11T09:17:10.252Z</time></trkpt><trkpt lat="44.525064" lon="7.9797882"><ele>347.0</ele><time>2026-04-11T09:17:11.252Z</time></trkpt><trkpt lat="44.5251432" lon="7.9798556"><ele>347.0</ele><time>2026-04-11T09:17:12.252Z</time></trkpt><trkpt lat="44.5252189" lon="7.97992"><ele>347.0</ele><time>2026-04-11T09:17:13.251Z</time></trkpt><trkpt lat="44.5252896" lon="7.9799748"><ele>347.0</ele><time>2026-04-11T09:17:14.251Z</time></trkpt><trkpt lat="44.5253534" lon="7.980019"><ele>347.0</ele><time>2026-04-11T09:17:15.251Z</time></trkpt><trkpt lat="44.5254552" lon="7.9800616"><ele>348.1666666666667</ele><time>2026-04-11T09:17:17.252Z</time></trkpt><trkpt lat="44.5255198" lon="7.9800684"><ele>349.33333333333337</ele><time>2026-04-11T09:17:19.252Z</time></trkpt><trkpt lat="44.5255833" lon="7.9800452"><ele>350.5</ele><time>2026-04-11T09:17:22.252Z</time></trkpt><trkpt lat="44.5256488" lon="7.9799863"><ele>351.6666666666667</ele><time>2026-04-11T09:17:25.251Z</time></trkpt><trkpt lat="44.5256997" lon="7.9799127"><ele>352.8333333333333</ele><time>2026-04-11T09:17:27.251Z</time></trkpt><trkpt lat="44.5257234" lon="7.9797987"><ele>354.0</ele><time>2026-04-11T09:17:29.252Z</time></trkpt><trkpt lat="44.5257188" lon="7.9796621"><ele>354.79999999999995</ele><time>2026-04-11T09:17:31.252Z</time></trkpt><trkpt lat="44.525699" lon="7.9795457"><ele>355.59999999999997</ele><time>2026-04-11T09:17:33.252Z</time></trkpt><trkpt lat="44.5256832" lon="7.9794072"><ele>356.4</ele><time>2026-04-11T09:17:35.252Z</time></trkpt><trkpt lat="44.5256683" lon="7.9792704"><ele>357.2</ele><time>2026-04-11T09:17:37.252Z</time></trkpt><trkpt lat="44.5256611" lon="7.9791397"><ele>358.0</ele><time>2026-04-11T09:17:39.252Z</time></trkpt><trkpt lat="44.5256572" lon="7.9790082"><ele>358.0</ele><time>2026-04-11T09:17:41.252Z</time></trkpt><trkpt lat="44.525648" lon="7.9788764"><ele>358.0</ele><time>2026-04-11T09:17:43.252Z</time></trkpt><trkpt lat="44.5256257" lon="7.9787474"><ele>358.0</ele><time>2026-04-11T09:17:45.252Z</time></trkpt><trkpt lat="44.5256007" lon="7.9786306"><ele>358.0</ele><time>2026-04-11T09:17:47.252Z</time></trkpt><trkpt lat="44.525585" lon="7.9785117"><ele>358.0</ele><time>2026-04-11T09:17:49.252Z</time></trkpt><trkpt lat="44.5255765" lon="7.9784029"><ele>358.0</ele><time>2026-04-11T09:17:51.252Z</time></trkpt><trkpt lat="44.5255695" lon="7.9782862"><ele>357.0</ele><time>2026-04-11T09:17:53.252Z</time></trkpt><trkpt lat="44.5255597" lon="7.9781464"><ele>356.0</ele><time>2026-04-11T09:17:55.251Z</time></trkpt><trkpt lat="44.5255795" lon="7.9780134"><ele>355.0</ele><time>2026-04-11T09:17:57.252Z</time></trkpt><trkpt lat="44.5256398" lon="7.977889"><ele>354.0</ele><time>2026-04-11T09:17:59.252Z</time></trkpt><trkpt lat="44.5256925" lon="7.9777661"><ele>353.0</ele><time>2026-04-11T09:18:01.252Z</time></trkpt><trkpt lat="44.5257566" lon="7.9776528"><ele>353.0</ele><time>2026-04-11T09:18:03.252Z</time></trkpt><trkpt lat="44.5258241" lon="7.97758"><ele>353.0</ele><time>2026-04-11T09:18:05.253Z</time></trkpt><trkpt lat="44.5259057" lon="7.9775036"><ele>353.0</ele><time>2026-04-11T09:18:07.252Z</time></trkpt><trkpt lat="44.5259869" lon="7.9773882"><ele>353.0</ele><time>2026-04-11T09:18:09.252Z</time></trkpt><trkpt lat="44.5260621" lon="7.9773032"><ele>353.0</ele><time>2026-04-11T09:18:11.252Z</time></trkpt><trkpt lat="44.5261474" lon="7.9772218"><ele>353.79999999999995</ele><time>2026-04-11T09:18:13.252Z</time></trkpt><trkpt lat="44.5262359" lon="7.9771301"><ele>354.6</ele><time>2026-04-11T09:18:15.252Z</time></trkpt><trkpt lat="44.5263248" lon="7.9770441"><ele>355.4</ele><time>2026-04-11T09:18:17.252Z</time></trkpt><trkpt lat="44.5264155" lon="7.9769535"><ele>356.20000000000005</ele><time>2026-04-11T09:18:19.252Z</time></trkpt><trkpt lat="44.5265005" lon="7.9768606"><ele>357.0</ele><time>2026-04-11T09:18:21.252Z</time></trkpt><trkpt lat="44.5265902" lon="7.9767756"><ele>353.40000000000003</ele><time>2026-04-11T09:18:23.252Z</time></trkpt><trkpt lat="44.5266639" lon="7.9766818"><ele>349.8</ele><time>2026-04-11T09:18:25.253Z</time></trkpt><trkpt lat="44.5267394" lon="7.9765952"><ele>346.2</ele><time>2026-04-11T09:18:27.253Z</time></trkpt><trkpt lat="44.5268085" lon="7.9765151"><ele>342.6</ele><time>2026-04-11T09:18:29.253Z</time></trkpt><trkpt lat="44.5268697" lon="7.976431"><ele>339.0</ele><time>2026-04-11T09:18:31.253Z</time></trkpt><trkpt lat="44.5269367" lon="7.9763477"><ele>339.0</ele><time>2026-04-11T09:18:33.252Z</time></trkpt><trkpt lat="44.5269983" lon="7.9762843"><ele>339.0</ele><time>2026-04-11T09:18:35.253Z</time></trkpt><trkpt lat="44.5270555" lon="7.9762257"><ele>339.0</ele><time>2026-04-11T09:18:37.253Z</time></trkpt><trkpt lat="44.5271095" lon="7.9761501"><ele>339.0</ele><time>2026-04-11T09:18:39.253Z</time></trkpt><trkpt lat="44.5271579" lon="7.976089"><ele>339.0</ele><time>2026-04-11T09:18:41.253Z</time></trkpt><trkpt lat="44.5272361" lon="7.9760087"><ele>339.0</ele><time>2026-04-11T09:18:44.253Z</time></trkpt><trkpt lat="44.527288" lon="7.9759578"><ele>339.0</ele><time>2026-04-11T09:18:46.253Z</time></trkpt><trkpt lat="44.5273443" lon="7.975904"><ele>339.85714285714283</ele><time>2026-04-11T09:18:48.253Z</time></trkpt><trkpt lat="44.5274013" lon="7.9758482"><ele>340.7142857142857</ele><time>2026-04-11T09:18:50.253Z</time></trkpt><trkpt lat="44.5274535" lon="7.9757935"><ele>341.57142857142856</ele><time>2026-04-11T09:18:52.253Z</time></trkpt><trkpt lat="44.5275289" lon="7.975716"><ele>342.42857142857144</ele><time>2026-04-11T09:18:55.253Z</time></trkpt><trkpt lat="44.5275825" lon="7.9756528"><ele>343.2857142857143</ele><time>2026-04-11T09:18:57.253Z</time></trkpt><trkpt lat="44.5276347" lon="7.9755769"><ele>344.14285714285717</ele><time>2026-04-11T09:18:59.252Z</time></trkpt><trkpt lat="44.5276885" lon="7.9755266"><ele>345.0</ele><time>2026-04-11T09:19:01.253Z</time></trkpt><trkpt lat="44.5277426" lon="7.975464"><ele>345.0</ele><time>2026-04-11T09:19:03.253Z</time></trkpt><trkpt lat="44.5277915" lon="7.9754008"><ele>345.0</ele><time>2026-04-11T09:19:05.252Z</time></trkpt><trkpt lat="44.5278386" lon="7.9753414"><ele>345.0</ele><time>2026-04-11T09:19:07.253Z</time></trkpt><trkpt lat="44.5278881" lon="7.9752849"><ele>345.0</ele><time>2026-04-11T09:19:09.253Z</time></trkpt><trkpt lat="44.5279324" lon="7.9752179"><ele>345.0</ele><time>2026-04-11T09:19:11.253Z</time></trkpt><trkpt lat="44.5279768" lon="7.9751485"><ele>345.0</ele><time>2026-04-11T09:19:13.253Z</time></trkpt><trkpt lat="44.5280314" lon="7.9750806"><ele>345.0</ele><time>2026-04-11T09:19:16.252Z</time></trkpt><trkpt lat="44.5280939" lon="7.9750037"><ele>346.6</ele><time>2026-04-11T09:19:19.253Z</time></trkpt><trkpt lat="44.5281516" lon="7.9749125"><ele>348.2</ele><time>2026-04-11T09:19:22.253Z</time></trkpt><trkpt lat="44.5281916" lon="7.9748345"><ele>349.79999999999995</ele><time>2026-04-11T09:19:24.254Z</time></trkpt><trkpt lat="44.5282458" lon="7.9747273"><ele>351.4</ele><time>2026-04-11T09:19:26.252Z</time></trkpt><trkpt lat="44.5283069" lon="7.9745969"><ele>353.0</ele><time>2026-04-11T09:19:28.254Z</time></trkpt><trkpt lat="44.5283681" lon="7.9744544"><ele>353.0</ele><time>2026-04-11T09:19:30.254Z</time></trkpt><trkpt lat="44.5284401" lon="7.9743171"><ele>353.0</ele><time>2026-04-11T09:19:32.254Z</time></trkpt><trkpt lat="44.5285101" lon="7.9741726"><ele>353.0</ele><time>2026-04-11T09:19:34.253Z</time></trkpt><trkpt lat="44.5285456" lon="7.9740864"><ele>353.0</ele><time>2026-04-11T09:19:35.254Z</time></trkpt><trkpt lat="44.5285814" lon="7.9739934"><ele>353.0</ele><time>2026-04-11T09:19:36.254Z</time></trkpt><trkpt lat="44.5286209" lon="7.9738967"><ele>352.5</ele><time>2026-04-11T09:19:37.254Z</time></trkpt><trkpt lat="44.5286597" lon="7.973803"><ele>352.0</ele><time>2026-04-11T09:19:38.254Z</time></trkpt><trkpt lat="44.5287007" lon="7.973709"><ele>351.5</ele><time>2026-04-11T09:19:39.253Z</time></trkpt><trkpt lat="44.5287406" lon="7.9736148"><ele>351.0</ele><time>2026-04-11T09:19:40.254Z</time></trkpt><trkpt lat="44.528782" lon="7.9735221"><ele>350.5</ele><time>2026-04-11T09:19:41.253Z</time></trkpt><trkpt lat="44.5288234" lon="7.9734299"><ele>350.0</ele><time>2026-04-11T09:19:42.253Z</time></trkpt><trkpt lat="44.5288657" lon="7.9733391"><ele>350.0</ele><time>2026-04-11T09:19:43.254Z</time></trkpt><trkpt lat="44.5289077" lon="7.9732434"><ele>350.0</ele><time>2026-04-11T09:19:44.254Z</time></trkpt><trkpt lat="44.5289457" lon="7.9731479"><ele>350.0</ele><time>2026-04-11T09:19:45.254Z</time></trkpt><trkpt lat="44.5289877" lon="7.9730479"><ele>350.0</ele><time>2026-04-11T09:19:46.254Z</time></trkpt><trkpt lat="44.5290311" lon="7.9729477"><ele>350.0</ele><time>2026-04-11T09:19:47.254Z</time></trkpt><trkpt lat="44.5290748" lon="7.9728467"><ele>350.0</ele><time>2026-04-11T09:19:48.254Z</time></trkpt><trkpt lat="44.5291181" lon="7.9727491"><ele>350.0</ele><time>2026-04-11T09:19:49.254Z</time></trkpt><trkpt lat="44.529161" lon="7.9726507"><ele>350.0</ele><time>2026-04-11T09:19:50.254Z</time></trkpt><trkpt lat="44.5292076" lon="7.9725579"><ele>350.0</ele><time>2026-04-11T09:19:51.253Z</time></trkpt><trkpt lat="44.5292533" lon="7.9724571"><ele>350.0</ele><time>2026-04-11T09:19:52.254Z</time></trkpt><trkpt lat="44.5293008" lon="7.9723552"><ele>350.0</ele><time>2026-04-11T09:19:53.253Z</time></trkpt><trkpt lat="44.5293497" lon="7.9722539"><ele>350.0</ele><time>2026-04-11T09:19:54.254Z</time></trkpt><trkpt lat="44.5293962" lon="7.9721517"><ele>349.83333333333337</ele><time>2026-04-11T09:19:55.253Z</time></trkpt><trkpt lat="44.529443" lon="7.9720488"><ele>349.6666666666667</ele><time>2026-04-11T09:19:56.254Z</time></trkpt><trkpt lat="44.5294911" lon="7.9719489"><ele>349.5</ele><time>2026-04-11T09:19:57.254Z</time></trkpt><trkpt lat="44.5295403" lon="7.9718474"><ele>349.3333333333333</ele><time>2026-04-11T09:19:58.254Z</time></trkpt><trkpt lat="44.5295887" lon="7.9717461"><ele>349.16666666666663</ele><time>2026-04-11T09:19:59.254Z</time></trkpt><trkpt lat="44.5296329" lon="7.9716451"><ele>349.0</ele><time>2026-04-11T09:20:00.253Z</time></trkpt><trkpt lat="44.5296801" lon="7.9715386"><ele>346.8333333333333</ele><time>2026-04-11T09:20:01.254Z</time></trkpt><trkpt lat="44.5297247" lon="7.9714297"><ele>344.66666666666663</ele><time>2026-04-11T09:20:02.254Z</time></trkpt><trkpt lat="44.5297689" lon="7.9713211"><ele>342.5</ele><time>2026-04-11T09:20:03.254Z</time></trkpt><trkpt lat="44.5298141" lon="7.9712132"><ele>340.3333333333333</ele><time>2026-04-11T09:20:04.254Z</time></trkpt><trkpt lat="44.5298606" lon="7.9711054"><ele>338.1666666666667</ele><time>2026-04-11T09:20:05.254Z</time></trkpt><trkpt lat="44.5299061" lon="7.9709982"><ele>336.0</ele><time>2026-04-11T09:20:06.253Z</time></trkpt><trkpt lat="44.5299553" lon="7.9708918"><ele>333.8</ele><time>2026-04-11T09:20:07.254Z</time></trkpt><trkpt lat="44.530008" lon="7.9707843"><ele>331.6</ele><time>2026-04-11T09:20:08.254Z</time></trkpt><trkpt lat="44.5300599" lon="7.9706767"><ele>329.4</ele><time>2026-04-11T09:20:09.254Z</time></trkpt><trkpt lat="44.5301156" lon="7.9705659"><ele>327.2</ele><time>2026-04-11T09:20:10.254Z</time></trkpt><trkpt lat="44.530163" lon="7.9704556"><ele>325.0</ele><time>2026-04-11T09:20:11.254Z</time></trkpt><trkpt lat="44.530213" lon="7.9703345"><ele>325.0</ele><time>2026-04-11T09:20:12.254Z</time></trkpt><trkpt lat="44.5302746" lon="7.9702117"><ele>325.0</ele><time>2026-04-11T09:20:13.254Z</time></trkpt><trkpt lat="44.5303322" lon="7.9700947"><ele>325.0</ele><time>2026-04-11T09:20:14.254Z</time></trkpt><trkpt lat="44.530386" lon="7.9699766"><ele>325.0</ele><time>2026-04-11T09:20:15.254Z</time></trkpt><trkpt lat="44.5304332" lon="7.9698579"><ele>325.0</ele><time>2026-04-11T09:20:16.253Z</time></trkpt><trkpt lat="44.5304801" lon="7.9697388"><ele>325.8</ele><time>2026-04-11T09:20:17.254Z</time></trkpt><trkpt lat="44.5305308" lon="7.9696226"><ele>326.6</ele><time>2026-04-11T09:20:18.254Z</time></trkpt><trkpt lat="44.5305819" lon="7.9695105"><ele>327.4</ele><time>2026-04-11T09:20:19.254Z</time></trkpt><trkpt lat="44.5306318" lon="7.9694011"><ele>328.2</ele><time>2026-04-11T09:20:20.254Z</time></trkpt><trkpt lat="44.5306802" lon="7.9692945"><ele>329.0</ele><time>2026-04-11T09:20:21.255Z</time></trkpt><trkpt lat="44.5307247" lon="7.969191"><ele>327.0</ele><time>2026-04-11T09:20:22.254Z</time></trkpt><trkpt lat="44.5307677" lon="7.9690885"><ele>325.0</ele><time>2026-04-11T09:20:23.255Z</time></trkpt><trkpt lat="44.5308116" lon="7.9689857"><ele>323.0</ele><time>2026-04-11T09:20:24.254Z</time></trkpt><trkpt lat="44.5308524" lon="7.9688859"><ele>321.0</ele><time>2026-04-11T09:20:25.253Z</time></trkpt><trkpt lat="44.5308931" lon="7.9687878"><ele>319.0</ele><time>2026-04-11T09:20:26.255Z</time></trkpt><trkpt lat="44.5309345" lon="7.9686896"><ele>317.0</ele><time>2026-04-11T09:20:27.254Z</time></trkpt><trkpt lat="44.5309769" lon="7.9685904"><ele>317.0</ele><time>2026-04-11T09:20:28.254Z</time></trkpt><trkpt lat="44.5310215" lon="7.9684903"><ele>317.0</ele><time>2026-04-11T09:20:29.254Z</time></trkpt><trkpt lat="44.5310654" lon="7.9683909"><ele>317.0</ele><time>2026-04-11T09:20:30.253Z</time></trkpt><trkpt lat="44.5311068" lon="7.9682911"><ele>317.0</ele><time>2026-04-11T09:20:31.254Z</time></trkpt><trkpt lat="44.5311489" lon="7.9681952"><ele>317.0</ele><time>2026-04-11T09:20:32.255Z</time></trkpt><trkpt lat="44.5311908" lon="7.9681011"><ele>317.0</ele><time>2026-04-11T09:20:33.254Z</time></trkpt><trkpt lat="44.5312311" lon="7.9680075"><ele>316.5</ele><time>2026-04-11T09:20:34.254Z</time></trkpt><trkpt lat="44.5312678" lon="7.967923"><ele>316.0</ele><time>2026-04-11T09:20:35.254Z</time></trkpt><trkpt lat="44.531316" lon="7.9678134"><ele>315.5</ele><time>2026-04-11T09:20:37.254Z</time></trkpt><trkpt lat="44.5313547" lon="7.9677042"><ele>315.0</ele><time>2026-04-11T09:20:40.255Z</time></trkpt><trkpt lat="44.5314083" lon="7.967595"><ele>314.5</ele><time>2026-04-11T09:20:42.255Z</time></trkpt><trkpt lat="44.5314628" lon="7.9674718"><ele>314.0</ele><time>2026-04-11T09:20:44.254Z</time></trkpt><trkpt lat="44.5315257" lon="7.9673294"><ele>314.0</ele><time>2026-04-11T09:20:46.255Z</time></trkpt><trkpt lat="44.5315911" lon="7.9671798"><ele>314.0</ele><time>2026-04-11T09:20:48.254Z</time></trkpt><trkpt lat="44.5316296" lon="7.9670975"><ele>314.0</ele><time>2026-04-11T09:20:49.254Z</time></trkpt><trkpt lat="44.5316686" lon="7.9670164"><ele>314.0</ele><time>2026-04-11T09:20:50.255Z</time></trkpt><trkpt lat="44.5317119" lon="7.9669394"><ele>314.0</ele><time>2026-04-11T09:20:51.255Z</time></trkpt><trkpt lat="44.531762" lon="7.9668682"><ele>314.0</ele><time>2026-04-11T09:20:52.255Z</time></trkpt><trkpt lat="44.5318122" lon="7.9668022"><ele>313.99999999999994</ele><time>2026-04-11T09:20:53.255Z</time></trkpt><trkpt lat="44.5318632" lon="7.9667356"><ele>314.0</ele><time>2026-04-11T09:20:54.255Z</time></trkpt><trkpt lat="44.5319117" lon="7.9666676"><ele>314.0</ele><time>2026-04-11T09:20:55.255Z</time></trkpt><trkpt lat="44.5319599" lon="7.9665974"><ele>314.0</ele><time>2026-04-11T09:20:56.255Z</time></trkpt><trkpt lat="44.532009" lon="7.966527"><ele>314.0</ele><time>2026-04-11T09:20:57.255Z</time></trkpt><trkpt lat="44.5320577" lon="7.9664526"><ele>313.99999999999994</ele><time>2026-04-11T09:20:58.255Z</time></trkpt><trkpt lat="44.5321021" lon="7.9663768"><ele>314.0</ele><time>2026-04-11T09:20:59.255Z</time></trkpt><trkpt lat="44.5321446" lon="7.9663079"><ele>312.4</ele><time>2026-04-11T09:21:00.254Z</time></trkpt><trkpt lat="44.5321918" lon="7.9662473"><ele>310.79999999999995</ele><time>2026-04-11T09:21:01.255Z</time></trkpt><trkpt lat="44.5322366" lon="7.9661843"><ele>309.20000000000005</ele><time>2026-04-11T09:21:02.255Z</time></trkpt><trkpt lat="44.532311" lon="7.9660475"><ele>307.6</ele><time>2026-04-11T09:21:04.255Z</time></trkpt><trkpt lat="44.5323849" lon="7.9659297"><ele>306.0</ele><time>2026-04-11T09:21:06.255Z</time></trkpt><trkpt lat="44.5324405" lon="7.9658032"><ele>306.0</ele><time>2026-04-11T09:21:08.255Z</time></trkpt><trkpt lat="44.5324958" lon="7.9656816"><ele>306.0</ele><time>2026-04-11T09:21:10.255Z</time></trkpt><trkpt lat="44.5325491" lon="7.9655484"><ele>306.0</ele><time>2026-04-11T09:21:12.255Z</time></trkpt><trkpt lat="44.5325963" lon="7.9654221"><ele>306.0</ele><time>2026-04-11T09:21:14.255Z</time></trkpt><trkpt lat="44.5326465" lon="7.9652869"><ele>306.0</ele><time>2026-04-11T09:21:16.255Z</time></trkpt><trkpt lat="44.5326948" lon="7.9651535"><ele>306.0</ele><time>2026-04-11T09:21:18.255Z</time></trkpt><trkpt lat="44.5327493" lon="7.9650153"><ele>306.0</ele><time>2026-04-11T09:21:20.254Z</time></trkpt><trkpt lat="44.5328032" lon="7.9648742"><ele>306.0</ele><time>2026-04-11T09:21:22.255Z</time></trkpt><trkpt lat="44.5328519" lon="7.964726"><ele>306.0</ele><time>2026-04-11T09:21:24.254Z</time></trkpt><trkpt lat="44.5328979" lon="7.9646005"><ele>306.0</ele><time>2026-04-11T09:21:26.255Z</time></trkpt><trkpt lat="44.5329463" lon="7.9644792"><ele>306.8</ele><time>2026-04-11T09:21:28.256Z</time></trkpt><trkpt lat="44.5329988" lon="7.9643486"><ele>307.6</ele><time>2026-04-11T09:21:30.256Z</time></trkpt><trkpt lat="44.5330394" lon="7.96421"><ele>308.4</ele><time>2026-04-11T09:21:32.256Z</time></trkpt><trkpt lat="44.5330805" lon="7.9640709"><ele>309.2</ele><time>2026-04-11T09:21:34.255Z</time></trkpt><trkpt lat="44.5331217" lon="7.9639339"><ele>310.0</ele><time>2026-04-11T09:21:36.256Z</time></trkpt><trkpt lat="44.5331624" lon="7.9638008"><ele>310.0</ele><time>2026-04-11T09:21:38.255Z</time></trkpt><trkpt lat="44.5332039" lon="7.9636704"><ele>310.0</ele><time>2026-04-11T09:21:40.255Z</time></trkpt><trkpt lat="44.533242" lon="7.963535"><ele>310.0</ele><time>2026-04-11T09:21:42.256Z</time></trkpt><trkpt lat="44.5332737" lon="7.9634346"><ele>310.0</ele><time>2026-04-11T09:21:44.256Z</time></trkpt><trkpt lat="44.5332869" lon="7.9633394"><ele>310.0</ele><time>2026-04-11T09:22:46.285Z</time></trkpt><trkpt lat="44.5333098" lon="7.9632529"><ele>310.0</ele><time>2026-04-11T09:22:48.269Z</time></trkpt><trkpt lat="44.5333319" lon="7.9631521"><ele>309.66666666666663</ele><time>2026-04-11T09:22:50.268Z</time></trkpt><trkpt lat="44.5333567" lon="7.9630548"><ele>309.3333333333333</ele><time>2026-04-11T09:22:52.286Z</time></trkpt><trkpt lat="44.5333893" lon="7.9629662"><ele>309.0</ele><time>2026-04-11T09:22:54.335Z</time></trkpt><trkpt lat="44.5334352" lon="7.9628643"><ele>308.6666666666667</ele><time>2026-04-11T09:22:56.269Z</time></trkpt><trkpt lat="44.5334744" lon="7.9627415"><ele>308.33333333333337</ele><time>2026-04-11T09:22:58.303Z</time></trkpt><trkpt lat="44.5335108" lon="7.962588"><ele>308.0</ele><time>2026-04-11T09:23:00.256Z</time></trkpt><trkpt lat="44.5335406" lon="7.9624451"><ele>307.6</ele><time>2026-04-11T09:23:02.257Z</time></trkpt><trkpt lat="44.5335608" lon="7.9622948"><ele>307.20000000000005</ele><time>2026-04-11T09:23:04.257Z</time></trkpt><trkpt lat="44.5335792" lon="7.9621428"><ele>306.8</ele><time>2026-04-11T09:23:06.257Z</time></trkpt><trkpt lat="44.5335924" lon="7.9619836"><ele>306.40000000000003</ele><time>2026-04-11T09:23:08.257Z</time></trkpt><trkpt lat="44.5335944" lon="7.9618948"><ele>306.0</ele><time>2026-04-11T09:23:09.257Z</time></trkpt><trkpt lat="44.533594" lon="7.9617429"><ele>305.6</ele><time>2026-04-11T09:23:11.256Z</time></trkpt><trkpt lat="44.5336032" lon="7.9616058"><ele>305.20000000000005</ele><time>2026-04-11T09:23:13.257Z</time></trkpt><trkpt lat="44.5336144" lon="7.9614641"><ele>304.79999999999995</ele><time>2026-04-11T09:23:15.257Z</time></trkpt><trkpt lat="44.5336216" lon="7.9613178"><ele>304.4</ele><time>2026-04-11T09:23:17.257Z</time></trkpt><trkpt lat="44.5336313" lon="7.9611679"><ele>304.0</ele><time>2026-04-11T09:23:19.257Z</time></trkpt><trkpt lat="44.5336374" lon="7.9610097"><ele>303.59999999999997</ele><time>2026-04-11T09:23:21.257Z</time></trkpt><trkpt lat="44.5336436" lon="7.9608568"><ele>303.2</ele><time>2026-04-11T09:23:23.257Z</time></trkpt><trkpt lat="44.5336504" lon="7.9607012"><ele>302.79999999999995</ele><time>2026-04-11T09:23:25.257Z</time></trkpt><trkpt lat="44.5336533" lon="7.9605458"><ele>302.4</ele><time>2026-04-11T09:23:27.257Z</time></trkpt><trkpt lat="44.5336635" lon="7.9603875"><ele>302.0</ele><time>2026-04-11T09:23:29.257Z</time></trkpt><trkpt lat="44.5336786" lon="7.9602414"><ele>302.0</ele><time>2026-04-11T09:23:31.257Z</time></trkpt><trkpt lat="44.5336895" lon="7.9600853"><ele>302.0</ele><time>2026-04-11T09:23:33.257Z</time></trkpt><trkpt lat="44.5336985" lon="7.9599266"><ele>302.0</ele><time>2026-04-11T09:23:35.257Z</time></trkpt><trkpt lat="44.5336981" lon="7.9597839"><ele>302.0</ele><time>2026-04-11T09:23:37.256Z</time></trkpt><trkpt lat="44.5336991" lon="7.9596331"><ele>302.0</ele><time>2026-04-11T09:23:39.256Z</time></trkpt><trkpt lat="44.5336983" lon="7.9594782"><ele>301.0</ele><time>2026-04-11T09:23:41.256Z</time></trkpt><trkpt lat="44.5336982" lon="7.9593278"><ele>300.0</ele><time>2026-04-11T09:23:43.257Z</time></trkpt><trkpt lat="44.5336963" lon="7.9591709"><ele>299.0</ele><time>2026-04-11T09:23:45.257Z</time></trkpt><trkpt lat="44.5336848" lon="7.9590084"><ele>298.0</ele><time>2026-04-11T09:23:47.257Z</time></trkpt><trkpt lat="44.53368" lon="7.958838"><ele>298.0</ele><time>2026-04-11T09:23:49.257Z</time></trkpt><trkpt lat="44.5336685" lon="7.9586796"><ele>298.0</ele><time>2026-04-11T09:23:51.257Z</time></trkpt><trkpt lat="44.5336692" lon="7.9585214"><ele>298.0</ele><time>2026-04-11T09:23:53.257Z</time></trkpt><trkpt lat="44.5336585" lon="7.9583746"><ele>298.0</ele><time>2026-04-11T09:23:55.258Z</time></trkpt><trkpt lat="44.5336477" lon="7.9582207"><ele>298.0</ele><time>2026-04-11T09:23:57.258Z</time></trkpt><trkpt lat="44.5336372" lon="7.9580725"><ele>298.0</ele><time>2026-04-11T09:23:59.257Z</time></trkpt><trkpt lat="44.5336226" lon="7.9579282"><ele>298.0</ele><time>2026-04-11T09:24:01.257Z</time></trkpt><trkpt lat="44.5336114" lon="7.9577803"><ele>298.0</ele><time>2026-04-11T09:24:03.258Z</time></trkpt><trkpt lat="44.5335955" lon="7.9576424"><ele>298.0</ele><time>2026-04-11T09:24:05.258Z</time></trkpt><trkpt lat="44.5335859" lon="7.9575008"><ele>298.0</ele><time>2026-04-11T09:24:07.257Z</time></trkpt><trkpt lat="44.5335735" lon="7.9573569"><ele>298.6</ele><time>2026-04-11T09:24:09.258Z</time></trkpt><trkpt lat="44.5335769" lon="7.9572108"><ele>299.20000000000005</ele><time>2026-04-11T09:24:11.256Z</time></trkpt><trkpt lat="44.5335754" lon="7.9570703"><ele>299.8</ele><time>2026-04-11T09:24:13.257Z</time></trkpt><trkpt lat="44.5335184" lon="7.956959"><ele>300.40000000000003</ele><time>2026-04-11T09:24:15.257Z</time></trkpt><trkpt lat="44.5334638" lon="7.9568444"><ele>301.0</ele><time>2026-04-11T09:24:17.258Z</time></trkpt><trkpt lat="44.5334234" lon="7.9566918"><ele>301.40000000000003</ele><time>2026-04-11T09:24:19.258Z</time></trkpt><trkpt lat="44.5333882" lon="7.9565231"><ele>301.8</ele><time>2026-04-11T09:24:21.258Z</time></trkpt><trkpt lat="44.5333578" lon="7.9563513"><ele>302.20000000000005</ele><time>2026-04-11T09:24:23.257Z</time></trkpt><trkpt lat="44.5333388" lon="7.9562629"><ele>302.6</ele><time>2026-04-11T09:24:24.258Z</time></trkpt><trkpt lat="44.5333188" lon="7.956173"><ele>303.0</ele><time>2026-04-11T09:24:25.258Z</time></trkpt><trkpt lat="44.5332963" lon="7.9560806"><ele>303.0</ele><time>2026-04-11T09:24:26.258Z</time></trkpt><trkpt lat="44.5332737" lon="7.955986"><ele>303.0</ele><time>2026-04-11T09:24:27.258Z</time></trkpt><trkpt lat="44.5332508" lon="7.9558961"><ele>303.0</ele><time>2026-04-11T09:24:28.257Z</time></trkpt><trkpt lat="44.5332322" lon="7.9558036"><ele>303.0</ele><time>2026-04-11T09:24:29.258Z</time></trkpt><trkpt lat="44.5332133" lon="7.9557013"><ele>303.0</ele><time>2026-04-11T09:24:30.257Z</time></trkpt><trkpt lat="44.5331917" lon="7.9556102"><ele>303.0</ele><time>2026-04-11T09:24:31.258Z</time></trkpt><trkpt lat="44.5331699" lon="7.9555259"><ele>303.0</ele><time>2026-04-11T09:24:32.258Z</time></trkpt><trkpt lat="44.5331457" lon="7.9554358"><ele>302.8571428571429</ele><time>2026-04-11T09:24:33.258Z</time></trkpt><trkpt lat="44.5331195" lon="7.9553457"><ele>302.7142857142857</ele><time>2026-04-11T09:24:34.257Z</time></trkpt><trkpt lat="44.5330957" lon="7.9552492"><ele>302.57142857142856</ele><time>2026-04-11T09:24:35.257Z</time></trkpt><trkpt lat="44.5330776" lon="7.9551481"><ele>302.42857142857144</ele><time>2026-04-11T09:24:36.258Z</time></trkpt><trkpt lat="44.5330559" lon="7.9550448"><ele>302.2857142857143</ele><time>2026-04-11T09:24:37.258Z</time></trkpt><trkpt lat="44.533031" lon="7.9549409"><ele>302.14285714285717</ele><time>2026-04-11T09:24:38.257Z</time></trkpt><trkpt lat="44.5330074" lon="7.9548431"><ele>302.0</ele><time>2026-04-11T09:24:39.258Z</time></trkpt><trkpt lat="44.5329888" lon="7.9547576"><ele>301.6</ele><time>2026-04-11T09:24:40.258Z</time></trkpt><trkpt lat="44.5329699" lon="7.9546723"><ele>301.2</ele><time>2026-04-11T09:24:41.258Z</time></trkpt><trkpt lat="44.5329307" lon="7.9545101"><ele>300.8</ele><time>2026-04-11T09:24:43.258Z</time></trkpt><trkpt lat="44.5328706" lon="7.9543814"><ele>300.4</ele><time>2026-04-11T09:24:45.258Z</time></trkpt><trkpt lat="44.5328412" lon="7.9542519"><ele>300.0</ele><time>2026-04-11T09:24:47.258Z</time></trkpt><trkpt lat="44.5328159" lon="7.9541253"><ele>299.0</ele><time>2026-04-11T09:24:49.258Z</time></trkpt><trkpt lat="44.5327902" lon="7.9540164"><ele>298.0</ele><time>2026-04-11T09:24:51.258Z</time></trkpt><trkpt lat="44.5327642" lon="7.9538835"><ele>297.0</ele><time>2026-04-11T09:24:54.257Z</time></trkpt><trkpt lat="44.5327373" lon="7.9537693"><ele>296.0</ele><time>2026-04-11T09:24:56.258Z</time></trkpt><trkpt lat="44.5327077" lon="7.9536542"><ele>295.0</ele><time>2026-04-11T09:24:58.258Z</time></trkpt><trkpt lat="44.5326985" lon="7.9534806"><ele>295.4</ele><time>2026-04-11T09:25:00.258Z</time></trkpt><trkpt lat="44.5326762" lon="7.9533475"><ele>295.8</ele><time>2026-04-11T09:25:02.259Z</time></trkpt><trkpt lat="44.5326464" lon="7.9532309"><ele>296.2</ele><time>2026-04-11T09:25:04.258Z</time></trkpt><trkpt lat="44.5326176" lon="7.9530928"><ele>296.6</ele><time>2026-04-11T09:25:06.258Z</time></trkpt><trkpt lat="44.5325858" lon="7.9529648"><ele>297.0</ele><time>2026-04-11T09:25:08.258Z</time></trkpt><trkpt lat="44.532552" lon="7.9528399"><ele>297.0</ele><time>2026-04-11T09:25:10.258Z</time></trkpt><trkpt lat="44.5325221" lon="7.9527094"><ele>297.0</ele><time>2026-04-11T09:25:12.259Z</time></trkpt><trkpt lat="44.5324968" lon="7.9525929"><ele>297.0</ele><time>2026-04-11T09:25:14.258Z</time></trkpt><trkpt lat="44.5324613" lon="7.9524575"><ele>297.0</ele><time>2026-04-11T09:25:16.258Z</time></trkpt><trkpt lat="44.5324226" lon="7.9523158"><ele>297.0</ele><time>2026-04-11T09:25:18.258Z</time></trkpt><trkpt lat="44.5323919" lon="7.9521935"><ele>296.6</ele><time>2026-04-11T09:25:20.258Z</time></trkpt><trkpt lat="44.5323618" lon="7.9520828"><ele>296.2</ele><time>2026-04-11T09:25:22.259Z</time></trkpt><trkpt lat="44.5323342" lon="7.9519396"><ele>295.8</ele><time>2026-04-11T09:25:24.259Z</time></trkpt><trkpt lat="44.5322967" lon="7.9517881"><ele>295.4</ele><time>2026-04-11T09:25:26.259Z</time></trkpt><trkpt lat="44.5322642" lon="7.9516567"><ele>295.0</ele><time>2026-04-11T09:25:28.259Z</time></trkpt><trkpt lat="44.5322321" lon="7.9515191"><ele>295.0</ele><time>2026-04-11T09:25:30.259Z</time></trkpt><trkpt lat="44.5322233" lon="7.951425"><ele>295.0</ele><time>2026-04-11T09:25:31.259Z</time></trkpt><trkpt lat="44.5321861" lon="7.9512826"><ele>295.0</ele><time>2026-04-11T09:25:33.259Z</time></trkpt><trkpt lat="44.5321486" lon="7.9511555"><ele>295.0</ele><time>2026-04-11T09:25:35.259Z</time></trkpt><trkpt lat="44.5321251" lon="7.9510201"><ele>295.0</ele><time>2026-04-11T09:25:37.259Z</time></trkpt><trkpt lat="44.5321115" lon="7.9508586"><ele>295.0</ele><time>2026-04-11T09:25:39.259Z</time></trkpt><trkpt lat="44.5320954" lon="7.9507098"><ele>295.0</ele><time>2026-04-11T09:25:41.259Z</time></trkpt><trkpt lat="44.5320948" lon="7.9505796"><ele>295.0</ele><time>2026-04-11T09:25:43.259Z</time></trkpt><trkpt lat="44.5320937" lon="7.9504341"><ele>295.0</ele><time>2026-04-11T09:25:45.259Z</time></trkpt><trkpt lat="44.5320883" lon="7.9502774"><ele>295.0</ele><time>2026-04-11T09:25:47.259Z</time></trkpt><trkpt lat="44.5320859" lon="7.9501421"><ele>295.0</ele><time>2026-04-11T09:25:49.259Z</time></trkpt><trkpt lat="44.5320915" lon="7.9500319"><ele>295.0</ele><time>2026-04-11T09:25:52.259Z</time></trkpt><trkpt lat="44.532098" lon="7.9499161"><ele>295.0</ele><time>2026-04-11T09:25:55.259Z</time></trkpt><trkpt lat="44.5320686" lon="7.9498166"><ele>295.0</ele><time>2026-04-11T09:27:05.293Z</time></trkpt><trkpt lat="44.5320004" lon="7.9497132"><ele>295.0</ele><time>2026-04-11T09:27:08.259Z</time></trkpt><trkpt lat="44.5319254" lon="7.9496763"><ele>295.0</ele><time>2026-04-11T09:27:10.276Z</time></trkpt><trkpt lat="44.531853" lon="7.9496209"><ele>294.2</ele><time>2026-04-11T09:27:12.294Z</time></trkpt><trkpt lat="44.5317754" lon="7.9495699"><ele>293.4</ele><time>2026-04-11T09:27:14.344Z</time></trkpt><trkpt lat="44.5316889" lon="7.9495207"><ele>292.6</ele><time>2026-04-11T09:27:16.355Z</time></trkpt><trkpt lat="44.5316009" lon="7.9494641"><ele>291.8</ele><time>2026-04-11T09:27:18.26Z</time></trkpt><trkpt lat="44.5315014" lon="7.9494069"><ele>291.0</ele><time>2026-04-11T09:27:20.26Z</time></trkpt><trkpt lat="44.5314223" lon="7.9493932"><ele>291.0</ele><time>2026-04-11T09:27:22.26Z</time></trkpt><trkpt lat="44.5313298" lon="7.9493873"><ele>291.0</ele><time>2026-04-11T09:27:24.26Z</time></trkpt><trkpt lat="44.5312453" lon="7.9493724"><ele>291.0</ele><time>2026-04-11T09:27:26.26Z</time></trkpt><trkpt lat="44.5311751" lon="7.9493608"><ele>291.0</ele><time>2026-04-11T09:27:28.26Z</time></trkpt><trkpt lat="44.531097" lon="7.9493448"><ele>291.0</ele><time>2026-04-11T09:27:30.259Z</time></trkpt><trkpt lat="44.531026" lon="7.9493403"><ele>291.0</ele><time>2026-04-11T09:27:32.26Z</time></trkpt><trkpt lat="44.5309584" lon="7.9493694"><ele>290.6666666666667</ele><time>2026-04-11T09:28:57.261Z</time></trkpt><trkpt lat="44.5308938" lon="7.9493674"><ele>290.3333333333333</ele><time>2026-04-11T09:28:59.26Z</time></trkpt><trkpt lat="44.5308081" lon="7.9493552"><ele>290.0</ele><time>2026-04-11T09:29:03.261Z</time></trkpt><trkpt lat="44.5307445" lon="7.9492803"><ele>289.66666666666663</ele><time>2026-04-11T09:29:06.261Z</time></trkpt><trkpt lat="44.5307446" lon="7.9491851"><ele>289.3333333333333</ele><time>2026-04-11T09:29:08.261Z</time></trkpt><trkpt lat="44.530758" lon="7.9490643"><ele>289.0</ele><time>2026-04-11T09:29:10.261Z</time></trkpt><trkpt lat="44.5307741" lon="7.948937"><ele>289.0</ele><time>2026-04-11T09:29:12.261Z</time></trkpt><trkpt lat="44.5307984" lon="7.9487948"><ele>289.0</ele><time>2026-04-11T09:29:14.261Z</time></trkpt><trkpt lat="44.5308031" lon="7.9486606"><ele>289.0</ele><time>2026-04-11T09:29:16.262Z</time></trkpt><trkpt lat="44.5308327" lon="7.948549"><ele>289.0</ele><time>2026-04-11T09:29:18.262Z</time></trkpt><trkpt lat="44.5308545" lon="7.9484201"><ele>289.0</ele><time>2026-04-11T09:29:20.262Z</time></trkpt><trkpt lat="44.5308789" lon="7.9482914"><ele>289.0</ele><time>2026-04-11T09:29:22.261Z</time></trkpt><trkpt lat="44.5308979" lon="7.9481547"><ele>289.0</ele><time>2026-04-11T09:29:24.262Z</time></trkpt><trkpt lat="44.530907" lon="7.9480051"><ele>289.0</ele><time>2026-04-11T09:29:26.262Z</time></trkpt><trkpt lat="44.5309153" lon="7.9478557"><ele>289.0</ele><time>2026-04-11T09:29:28.261Z</time></trkpt><trkpt lat="44.5309242" lon="7.9476924"><ele>289.0</ele><time>2026-04-11T09:29:30.262Z</time></trkpt><trkpt lat="44.5309324" lon="7.9475495"><ele>288.5</ele><time>2026-04-11T09:29:32.262Z</time></trkpt><trkpt lat="44.5309519" lon="7.9474097"><ele>288.0</ele><time>2026-04-11T09:29:34.262Z</time></trkpt><trkpt lat="44.5309634" lon="7.9473072"><ele>287.5</ele><time>2026-04-11T09:29:36.262Z</time></trkpt><trkpt lat="44.5309827" lon="7.947208"><ele>287.0</ele><time>2026-04-11T09:29:38.262Z</time></trkpt><trkpt lat="44.5309934" lon="7.947081"><ele>286.5</ele><time>2026-04-11T09:29:40.262Z</time></trkpt><trkpt lat="44.5310084" lon="7.946971"><ele>286.0</ele><time>2026-04-11T09:29:42.261Z</time></trkpt><trkpt lat="44.531018" lon="7.9468471"><ele>286.0</ele><time>2026-04-11T09:29:44.262Z</time></trkpt><trkpt lat="44.5310221" lon="7.9467199"><ele>286.0</ele><time>2026-04-11T09:29:46.262Z</time></trkpt><trkpt lat="44.5310339" lon="7.9465857"><ele>286.0</ele><time>2026-04-11T09:29:48.262Z</time></trkpt><trkpt lat="44.5310496" lon="7.9464546"><ele>286.0</ele><time>2026-04-11T09:29:50.262Z</time></trkpt><trkpt lat="44.5310646" lon="7.946308"><ele>286.0</ele><time>2026-04-11T09:29:52.261Z</time></trkpt><trkpt lat="44.531085" lon="7.9461768"><ele>286.0</ele><time>2026-04-11T09:29:54.262Z</time></trkpt><trkpt lat="44.5310999" lon="7.9460443"><ele>286.0</ele><time>2026-04-11T09:29:56.262Z</time></trkpt><trkpt lat="44.5311086" lon="7.94591"><ele>286.0</ele><time>2026-04-11T09:29:58.261Z</time></trkpt><trkpt lat="44.53112" lon="7.945781"><ele>286.0</ele><time>2026-04-11T09:30:00.262Z</time></trkpt><trkpt lat="44.5311165" lon="7.9456499"><ele>286.0</ele><time>2026-04-11T09:30:02.262Z</time></trkpt><trkpt lat="44.5311264" lon="7.945529"><ele>285.99999999999994</ele><time>2026-04-11T09:30:04.262Z</time></trkpt><trkpt lat="44.5311425" lon="7.9454337"><ele>286.0</ele><time>2026-04-11T09:30:08.262Z</time></trkpt><trkpt lat="44.5312109" lon="7.9454459"><ele>286.0</ele><time>2026-04-11T09:30:39.263Z</time></trkpt><trkpt lat="44.5311626" lon="7.9453356"><ele>286.0</ele><time>2026-04-11T09:32:02.295Z</time></trkpt><trkpt lat="44.5311741" lon="7.9452429"><ele>286.0</ele><time>2026-04-11T09:32:04.389Z</time></trkpt><trkpt lat="44.5311806" lon="7.945149"><ele>285.99999999999994</ele><time>2026-04-11T09:32:06.312Z</time></trkpt><trkpt lat="44.5311881" lon="7.9450582"><ele>286.0</ele><time>2026-04-11T09:32:08.344Z</time></trkpt><trkpt lat="44.5311983" lon="7.9449601"><ele>285.57142857142856</ele><time>2026-04-11T09:32:10.346Z</time></trkpt><trkpt lat="44.531207" lon="7.9448479"><ele>285.1428571428571</ele><time>2026-04-11T09:32:12.266Z</time></trkpt><trkpt lat="44.5312117" lon="7.9447474"><ele>284.7142857142857</ele><time>2026-04-11T09:32:14.295Z</time></trkpt><trkpt lat="44.5312319" lon="7.9446474"><ele>284.2857142857143</ele><time>2026-04-11T09:32:18.314Z</time></trkpt><trkpt lat="44.5312556" lon="7.9445637"><ele>283.8571428571429</ele><time>2026-04-11T09:32:22.313Z</time></trkpt><trkpt lat="44.531245" lon="7.9444706"><ele>283.42857142857144</ele><time>2026-04-11T09:32:35.299Z</time></trkpt><trkpt lat="44.5312201" lon="7.9443778"><ele>283.0</ele><time>2026-04-11T09:32:45.367Z</time></trkpt><trkpt lat="44.5311696" lon="7.9443203"><ele>283.0</ele><time>2026-04-11T09:32:48.317Z</time></trkpt><trkpt lat="44.5311582" lon="7.9442313"><ele>283.0</ele><time>2026-04-11T09:32:50.285Z</time></trkpt><trkpt lat="44.5311158" lon="7.9441604"><ele>283.0</ele><time>2026-04-11T09:32:52.368Z</time></trkpt><trkpt lat="44.5310427" lon="7.9441647"><ele>283.0</ele><time>2026-04-11T09:32:53.302Z</time></trkpt><trkpt lat="44.5309671" lon="7.9441766"><ele>283.0</ele><time>2026-04-11T09:32:55.319Z</time></trkpt><trkpt lat="44.5308971" lon="7.9441727"><ele>283.0</ele><time>2026-04-11T09:33:20.339Z</time></trkpt><trkpt lat="44.5308268" lon="7.9441822"><ele>283.0</ele><time>2026-04-11T09:33:23.264Z</time></trkpt><trkpt lat="44.5307636" lon="7.9441741"><ele>283.16666666666663</ele><time>2026-04-11T09:33:27.273Z</time></trkpt><trkpt lat="44.5308531" lon="7.9441472"><ele>283.3333333333333</ele><time>2026-04-11T09:33:52.328Z</time></trkpt><trkpt lat="44.5309282" lon="7.9441516"><ele>283.5</ele><time>2026-04-11T09:33:54.345Z</time></trkpt><trkpt lat="44.5310054" lon="7.9441475"><ele>283.6666666666667</ele><time>2026-04-11T09:33:56.312Z</time></trkpt><trkpt lat="44.5310843" lon="7.9441461"><ele>283.83333333333337</ele><time>2026-04-11T09:33:58.349Z</time></trkpt><trkpt lat="44.5311606" lon="7.9441747"><ele>284.0</ele><time>2026-04-11T09:34:00.279Z</time></trkpt><trkpt lat="44.5312263" lon="7.9441254"><ele>284.0</ele><time>2026-04-11T09:34:04.329Z</time></trkpt><trkpt lat="44.5312778" lon="7.9440365"><ele>284.0</ele><time>2026-04-11T09:34:07.295Z</time></trkpt><trkpt lat="44.5313142" lon="7.943942"><ele>284.0</ele><time>2026-04-11T09:34:09.33Z</time></trkpt><trkpt lat="44.5313033" lon="7.9437943"><ele>284.0</ele><time>2026-04-11T09:34:11.265Z</time></trkpt><trkpt lat="44.5312679" lon="7.9436962"><ele>284.0</ele><time>2026-04-11T09:34:13.059Z</time></trkpt><trkpt lat="44.5311995" lon="7.9435953"><ele>284.0</ele><time>2026-04-11T09:34:15.33Z</time></trkpt><trkpt lat="44.5311214" lon="7.9435385"><ele>284.0</ele><time>2026-04-11T09:34:17.364Z</time></trkpt><trkpt lat="44.531038" lon="7.9435423"><ele>284.0</ele><time>2026-04-11T09:34:19.351Z</time></trkpt><trkpt lat="44.5309611" lon="7.9435323"><ele>284.0</ele><time>2026-04-11T09:34:21.281Z</time></trkpt><trkpt lat="44.5308819" lon="7.9435266"><ele>284.0</ele><time>2026-04-11T09:34:23.382Z</time></trkpt><trkpt lat="44.5308142" lon="7.943535"><ele>284.0</ele><time>2026-04-11T09:34:25.349Z</time></trkpt><trkpt lat="44.5307248" lon="7.9435343"><ele>284.0</ele><time>2026-04-11T09:34:28.332Z</time></trkpt><trkpt lat="44.5306476" lon="7.9435988"><ele>284.0</ele><time>2026-04-11T09:34:31.266Z</time></trkpt><trkpt lat="44.530581" lon="7.9436086"><ele>284.0</ele><time>2026-04-11T09:34:33.266Z</time></trkpt><trkpt lat="44.5304975" lon="7.9435995"><ele>284.0</ele><time>2026-04-11T09:34:36.266Z</time></trkpt><trkpt lat="44.5304492" lon="7.9435412"><ele>284.0</ele><time>2026-04-11T09:34:40.266Z</time></trkpt><trkpt lat="44.5304435" lon="7.9434514"><ele>284.0</ele><time>2026-04-11T09:35:15.339Z</time></trkpt><trkpt lat="44.5303897" lon="7.9433963"><ele>284.0</ele><time>2026-04-11T09:35:22.24Z</time></trkpt><trkpt lat="44.5303807" lon="7.9432846"><ele>284.0</ele><time>2026-04-11T09:35:27.357Z</time></trkpt><trkpt lat="44.5303769" lon="7.9431605"><ele>283.83333333333337</ele><time>2026-04-11T09:35:30.307Z</time></trkpt><trkpt lat="44.530364" lon="7.9430623"><ele>283.6666666666667</ele><time>2026-04-11T09:35:32.308Z</time></trkpt><trkpt lat="44.5303665" lon="7.9429342"><ele>283.5</ele><time>2026-04-11T09:35:34.309Z</time></trkpt><trkpt lat="44.5303743" lon="7.9428394"><ele>283.3333333333333</ele><time>2026-04-11T09:35:36.32Z</time></trkpt><trkpt lat="44.5304434" lon="7.9427912"><ele>283.16666666666663</ele><time>2026-04-11T09:35:39.292Z</time></trkpt><trkpt lat="44.5305351" lon="7.9427895"><ele>283.0</ele><time>2026-04-11T09:35:42.375Z</time></trkpt><trkpt lat="44.5306004" lon="7.9427574"><ele>283.0</ele><time>2026-04-11T09:35:44.379Z</time></trkpt><trkpt lat="44.5306337" lon="7.9426804"><ele>283.0</ele><time>2026-04-11T09:35:46.36Z</time></trkpt><trkpt lat="44.5306317" lon="7.9425826"><ele>283.0</ele><time>2026-04-11T09:35:48.326Z</time></trkpt><trkpt lat="44.5306384" lon="7.94249"><ele>283.0</ele><time>2026-04-11T09:35:49.267Z</time></trkpt><trkpt lat="44.5306386" lon="7.9423937"><ele>283.0</ele><time>2026-04-11T09:35:51.267Z</time></trkpt><trkpt lat="44.5306468" lon="7.9422618"><ele>283.0</ele><time>2026-04-11T09:35:53.267Z</time></trkpt><trkpt lat="44.5306158" lon="7.9421073"><ele>282.8333333333333</ele><time>2026-04-11T09:35:55.266Z</time></trkpt><trkpt lat="44.5305922" lon="7.9419736"><ele>282.66666666666663</ele><time>2026-04-11T09:35:57.267Z</time></trkpt><trkpt lat="44.5306173" lon="7.9418588"><ele>282.5</ele><time>2026-04-11T09:35:58.267Z</time></trkpt><trkpt lat="44.5306129" lon="7.9417621"><ele>282.3333333333333</ele><time>2026-04-11T09:36:00.267Z</time></trkpt><trkpt lat="44.5306107" lon="7.9416656"><ele>282.1666666666667</ele><time>2026-04-11T09:36:02.267Z</time></trkpt><trkpt lat="44.5306113" lon="7.9415355"><ele>282.0</ele><time>2026-04-11T09:36:04.267Z</time></trkpt><trkpt lat="44.5306133" lon="7.9414337"><ele>281.6666666666667</ele><time>2026-04-11T09:36:06.267Z</time></trkpt><trkpt lat="44.5305966" lon="7.9413305"><ele>281.3333333333333</ele><time>2026-04-11T09:36:08.267Z</time></trkpt><trkpt lat="44.5305905" lon="7.9412227"><ele>281.0</ele><time>2026-04-11T09:36:10.267Z</time></trkpt><trkpt lat="44.5305952" lon="7.9411202"><ele>280.66666666666663</ele><time>2026-04-11T09:36:12.267Z</time></trkpt><trkpt lat="44.5306023" lon="7.9409865"><ele>280.3333333333333</ele><time>2026-04-11T09:36:14.267Z</time></trkpt><trkpt lat="44.5306107" lon="7.94085"><ele>280.0</ele><time>2026-04-11T09:36:16.267Z</time></trkpt><trkpt lat="44.5306338" lon="7.9407137"><ele>280.0</ele><time>2026-04-11T09:36:18.267Z</time></trkpt><trkpt lat="44.5306137" lon="7.9405799"><ele>280.0</ele><time>2026-04-11T09:36:20.267Z</time></trkpt><trkpt lat="44.5306234" lon="7.9404528"><ele>280.0</ele><time>2026-04-11T09:36:22.267Z</time></trkpt><trkpt lat="44.530631" lon="7.940335"><ele>280.0</ele><time>2026-04-11T09:36:24.267Z</time></trkpt><trkpt lat="44.5306223" lon="7.9402122"><ele>280.0</ele><time>2026-04-11T09:36:26.267Z</time></trkpt><trkpt lat="44.530629" lon="7.9400983"><ele>280.0</ele><time>2026-04-11T09:36:28.267Z</time></trkpt><trkpt lat="44.5306352" lon="7.939991"><ele>279.66666666666663</ele><time>2026-04-11T09:36:30.268Z</time></trkpt><trkpt lat="44.5306712" lon="7.9399139"><ele>279.3333333333333</ele><time>2026-04-11T09:36:32.268Z</time></trkpt><trkpt lat="44.5307441" lon="7.9399122"><ele>279.0</ele><time>2026-04-11T09:36:34.267Z</time></trkpt><trkpt lat="44.5308079" lon="7.9399572"><ele>278.6666666666667</ele><time>2026-04-11T09:36:35.268Z</time></trkpt><trkpt lat="44.530895" lon="7.9400012"><ele>278.33333333333337</ele><time>2026-04-11T09:36:37.268Z</time></trkpt><trkpt lat="44.5309896" lon="7.9399944"><ele>278.0</ele><time>2026-04-11T09:36:39.268Z</time></trkpt><trkpt lat="44.5310833" lon="7.9399878"><ele>278.0</ele><time>2026-04-11T09:36:41.267Z</time></trkpt><trkpt lat="44.5311818" lon="7.9399888"><ele>278.0</ele><time>2026-04-11T09:36:43.268Z</time></trkpt><trkpt lat="44.5312707" lon="7.9399894"><ele>278.0</ele><time>2026-04-11T09:36:45.268Z</time></trkpt><trkpt lat="44.5313675" lon="7.9399852"><ele>278.0</ele><time>2026-04-11T09:36:47.268Z</time></trkpt><trkpt lat="44.5314461" lon="7.9399903"><ele>278.0</ele><time>2026-04-11T09:36:49.267Z</time></trkpt><trkpt lat="44.5315289" lon="7.9399418"><ele>277.4</ele><time>2026-04-11T09:36:51.267Z</time></trkpt><trkpt lat="44.5315644" lon="7.9398365"><ele>276.8</ele><time>2026-04-11T09:36:53.268Z</time></trkpt><trkpt lat="44.5315685" lon="7.9396995"><ele>276.2</ele><time>2026-04-11T09:36:55.268Z</time></trkpt><trkpt lat="44.5315783" lon="7.9395509"><ele>275.6</ele><time>2026-04-11T09:36:57.268Z</time></trkpt><trkpt lat="44.5315728" lon="7.9394024"><ele>275.0</ele><time>2026-04-11T09:36:59.267Z</time></trkpt><trkpt lat="44.5315854" lon="7.9392406"><ele>275.0</ele><time>2026-04-11T09:37:01.268Z</time></trkpt><trkpt lat="44.5316044" lon="7.9390829"><ele>275.0</ele><time>2026-04-11T09:37:03.268Z</time></trkpt><trkpt lat="44.5316149" lon="7.9389276"><ele>275.0</ele><time>2026-04-11T09:37:05.267Z</time></trkpt><trkpt lat="44.531621" lon="7.9387778"><ele>275.0</ele><time>2026-04-11T09:37:07.268Z</time></trkpt><trkpt lat="44.5316305" lon="7.9386296"><ele>275.0</ele><time>2026-04-11T09:37:09.267Z</time></trkpt><trkpt lat="44.5316443" lon="7.9384761"><ele>274.8</ele><time>2026-04-11T09:37:11.268Z</time></trkpt><trkpt lat="44.5316541" lon="7.9383403"><ele>274.6</ele><time>2026-04-11T09:37:13.268Z</time></trkpt><trkpt lat="44.5316592" lon="7.9381969"><ele>274.4</ele><time>2026-04-11T09:37:15.268Z</time></trkpt><trkpt lat="44.5316813" lon="7.9380426"><ele>274.2</ele><time>2026-04-11T09:37:17.267Z</time></trkpt><trkpt lat="44.5316941" lon="7.9378915"><ele>274.0</ele><time>2026-04-11T09:37:19.268Z</time></trkpt><trkpt lat="44.5316996" lon="7.9377363"><ele>274.0</ele><time>2026-04-11T09:37:21.267Z</time></trkpt><trkpt lat="44.5317116" lon="7.9375716"><ele>274.0</ele><time>2026-04-11T09:37:23.268Z</time></trkpt><trkpt lat="44.5317308" lon="7.9374186"><ele>274.0</ele><time>2026-04-11T09:37:25.269Z</time></trkpt><trkpt lat="44.5317464" lon="7.9372526"><ele>274.0</ele><time>2026-04-11T09:37:27.268Z</time></trkpt><trkpt lat="44.531753" lon="7.9370927"><ele>274.0</ele><time>2026-04-11T09:37:29.269Z</time></trkpt><trkpt lat="44.5317645" lon="7.9369318"><ele>274.0</ele><time>2026-04-11T09:37:31.269Z</time></trkpt><trkpt lat="44.5317747" lon="7.9367663"><ele>274.0</ele><time>2026-04-11T09:37:33.268Z</time></trkpt><trkpt lat="44.5317918" lon="7.936607"><ele>274.0</ele><time>2026-04-11T09:37:35.268Z</time></trkpt><trkpt lat="44.531805" lon="7.9364504"><ele>273.59999999999997</ele><time>2026-04-11T09:37:37.268Z</time></trkpt><trkpt lat="44.531813" lon="7.9363624"><ele>273.2</ele><time>2026-04-11T09:37:38.268Z</time></trkpt><trkpt lat="44.5318298" lon="7.9362168"><ele>272.79999999999995</ele><time>2026-04-11T09:37:40.269Z</time></trkpt><trkpt lat="44.5318613" lon="7.936069"><ele>272.4</ele><time>2026-04-11T09:37:42.268Z</time></trkpt><trkpt lat="44.5318915" lon="7.9359168"><ele>272.0</ele><time>2026-04-11T09:37:44.268Z</time></trkpt><trkpt lat="44.5319603" lon="7.9357949"><ele>272.0</ele><time>2026-04-11T09:37:46.269Z</time></trkpt><trkpt lat="44.5320722" lon="7.9357515"><ele>272.0</ele><time>2026-04-11T09:37:48.269Z</time></trkpt><trkpt lat="44.5321871" lon="7.9357242"><ele>272.0</ele><time>2026-04-11T09:37:50.269Z</time></trkpt><trkpt lat="44.5322855" lon="7.9356812"><ele>272.0</ele><time>2026-04-11T09:37:52.269Z</time></trkpt><trkpt lat="44.5323876" lon="7.9356365"><ele>272.0</ele><time>2026-04-11T09:37:54.269Z</time></trkpt><trkpt lat="44.5324888" lon="7.9355845"><ele>272.0</ele><time>2026-04-11T09:37:56.269Z</time></trkpt><trkpt lat="44.5325961" lon="7.9355268"><ele>272.0</ele><time>2026-04-11T09:37:58.269Z</time></trkpt><trkpt lat="44.5327002" lon="7.9354764"><ele>272.0</ele><time>2026-04-11T09:38:00.269Z</time></trkpt><trkpt lat="44.5327969" lon="7.9354169"><ele>272.0</ele><time>2026-04-11T09:38:02.269Z</time></trkpt><trkpt lat="44.5329013" lon="7.9353693"><ele>272.0</ele><time>2026-04-11T09:38:04.269Z</time></trkpt><trkpt lat="44.533008" lon="7.9353199"><ele>272.2</ele><time>2026-04-11T09:38:06.269Z</time></trkpt><trkpt lat="44.5331082" lon="7.9352547"><ele>272.4</ele><time>2026-04-11T09:38:08.269Z</time></trkpt><trkpt lat="44.5332123" lon="7.9351959"><ele>272.6</ele><time>2026-04-11T09:38:10.268Z</time></trkpt><trkpt lat="44.5333111" lon="7.9351549"><ele>272.8</ele><time>2026-04-11T09:38:12.269Z</time></trkpt><trkpt lat="44.5334051" lon="7.9351115"><ele>273.0</ele><time>2026-04-11T09:38:14.269Z</time></trkpt><trkpt lat="44.5334916" lon="7.9350735"><ele>273.0</ele><time>2026-04-11T09:38:16.269Z</time></trkpt><trkpt lat="44.5335656" lon="7.9350997"><ele>273.0</ele><time>2026-04-11T09:38:19.269Z</time></trkpt><trkpt lat="44.5336203" lon="7.9350301"><ele>273.0</ele><time>2026-04-11T09:38:46.27Z</time></trkpt><trkpt lat="44.5336741" lon="7.9349822"><ele>273.0</ele><time>2026-04-11T09:38:48.27Z</time></trkpt><trkpt lat="44.5337559" lon="7.9349397"><ele>273.0</ele><time>2026-04-11T09:38:50.269Z</time></trkpt><trkpt lat="44.5338385" lon="7.9348889"><ele>273.0</ele><time>2026-04-11T09:38:52.268Z</time></trkpt><trkpt lat="44.5339184" lon="7.9348415"><ele>272.2</ele><time>2026-04-11T09:38:54.269Z</time></trkpt><trkpt lat="44.5340035" lon="7.9348125"><ele>271.4</ele><time>2026-04-11T09:38:56.27Z</time></trkpt><trkpt lat="44.5341012" lon="7.9347657"><ele>270.59999999999997</ele><time>2026-04-11T09:38:58.27Z</time></trkpt><trkpt lat="44.5341932" lon="7.9347048"><ele>269.8</ele><time>2026-04-11T09:39:00.269Z</time></trkpt><trkpt lat="44.5342922" lon="7.9346473"><ele>269.0</ele><time>2026-04-11T09:39:02.27Z</time></trkpt><trkpt lat="44.5343978" lon="7.9345905"><ele>269.0</ele><time>2026-04-11T09:39:04.27Z</time></trkpt><trkpt lat="44.534493" lon="7.9345341"><ele>269.0</ele><time>2026-04-11T09:39:06.27Z</time></trkpt><trkpt lat="44.5345797" lon="7.934491"><ele>269.0</ele><time>2026-04-11T09:39:08.269Z</time></trkpt><trkpt lat="44.5346664" lon="7.9344448"><ele>269.0</ele><time>2026-04-11T09:39:10.27Z</time></trkpt><trkpt lat="44.5347602" lon="7.9343807"><ele>269.0</ele><time>2026-04-11T09:39:12.269Z</time></trkpt><trkpt lat="44.5348527" lon="7.9343302"><ele>269.0</ele><time>2026-04-11T09:39:14.27Z</time></trkpt><trkpt lat="44.5349364" lon="7.9342997"><ele>269.0</ele><time>2026-04-11T09:39:16.27Z</time></trkpt><trkpt lat="44.5350113" lon="7.9342818"><ele>269.0</ele><time>2026-04-11T09:39:18.27Z</time></trkpt><trkpt lat="44.5350759" lon="7.9342621"><ele>269.0</ele><time>2026-04-11T09:39:20.27Z</time></trkpt><trkpt lat="44.5351494" lon="7.9342861"><ele>269.0</ele><time>2026-04-11T09:39:24.27Z</time></trkpt><trkpt lat="44.5351771" lon="7.9341991"><ele>269.0</ele><time>2026-04-11T09:39:28.269Z</time></trkpt><trkpt lat="44.5350965" lon="7.9341849"><ele>269.0</ele><time>2026-04-11T09:39:30.27Z</time></trkpt><trkpt lat="44.5350162" lon="7.9342105"><ele>269.0</ele><time>2026-04-11T09:39:32.27Z</time></trkpt><trkpt lat="44.5349554" lon="7.9342468"><ele>269.0</ele><time>2026-04-11T09:39:34.27Z</time></trkpt><trkpt lat="44.5348907" lon="7.9342899"><ele>269.0</ele><time>2026-04-11T09:39:36.27Z</time></trkpt><trkpt lat="44.5348167" lon="7.9343245"><ele>269.0</ele><time>2026-04-11T09:39:38.269Z</time></trkpt><trkpt lat="44.5348549" lon="7.9342026"><ele>269.0</ele><time>2026-04-11T09:39:43.27Z</time></trkpt><trkpt lat="44.5349169" lon="7.9341148"><ele>269.0</ele><time>2026-04-11T09:39:45.27Z</time></trkpt><trkpt lat="44.5349978" lon="7.9340293"><ele>269.0</ele><time>2026-04-11T09:39:47.27Z</time></trkpt><trkpt lat="44.5350789" lon="7.933958"><ele>269.0</ele><time>2026-04-11T09:39:49.27Z</time></trkpt><trkpt lat="44.535177" lon="7.9338708"><ele>269.0</ele><time>2026-04-11T09:39:51.27Z</time></trkpt><trkpt lat="44.5352719" lon="7.9337723"><ele>269.0</ele><time>2026-04-11T09:39:53.27Z</time></trkpt><trkpt lat="44.5353601" lon="7.933683"><ele>268.59999999999997</ele><time>2026-04-11T09:39:55.271Z</time></trkpt><trkpt lat="44.5354475" lon="7.9335937"><ele>268.2</ele><time>2026-04-11T09:39:57.271Z</time></trkpt><trkpt lat="44.535528" lon="7.9335151"><ele>267.79999999999995</ele><time>2026-04-11T09:39:59.27Z</time></trkpt><trkpt lat="44.5356055" lon="7.9334463"><ele>267.4</ele><time>2026-04-11T09:40:01.271Z</time></trkpt><trkpt lat="44.5356833" lon="7.9333761"><ele>267.0</ele><time>2026-04-11T09:40:03.27Z</time></trkpt><trkpt lat="44.5357687" lon="7.9332648"><ele>267.0</ele><time>2026-04-11T09:40:05.269Z</time></trkpt><trkpt lat="44.535863" lon="7.9331705"><ele>267.0</ele><time>2026-04-11T09:40:07.27Z</time></trkpt><trkpt lat="44.5359357" lon="7.9331015"><ele>267.0</ele><time>2026-04-11T09:40:09.27Z</time></trkpt><trkpt lat="44.5359934" lon="7.9330555"><ele>267.0</ele><time>2026-04-11T09:40:11.271Z</time></trkpt><trkpt lat="44.5360502" lon="7.9330088"><ele>267.0</ele><time>2026-04-11T09:40:13.271Z</time></trkpt><trkpt lat="44.5361237" lon="7.9329475"><ele>267.0</ele><time>2026-04-11T09:40:15.271Z</time></trkpt><trkpt lat="44.5361943" lon="7.9328693"><ele>267.00000000000006</ele><time>2026-04-11T09:40:18.271Z</time></trkpt><trkpt lat="44.5362598" lon="7.9328205"><ele>267.0</ele><time>2026-04-11T09:40:20.271Z</time></trkpt><trkpt lat="44.536313" lon="7.9327634"><ele>267.0</ele><time>2026-04-11T09:40:22.27Z</time></trkpt><trkpt lat="44.5363692" lon="7.9327196"><ele>267.0</ele><time>2026-04-11T09:40:26.27Z</time></trkpt><trkpt lat="44.5364405" lon="7.9326799"><ele>267.0</ele><time>2026-04-11T09:40:29.271Z</time></trkpt><trkpt lat="44.5365028" lon="7.9326274"><ele>267.00000000000006</ele><time>2026-04-11T09:40:31.271Z</time></trkpt><trkpt lat="44.5365772" lon="7.9325667"><ele>267.0</ele><time>2026-04-11T09:40:33.27Z</time></trkpt><trkpt lat="44.5366611" lon="7.9325068"><ele>267.0</ele><time>2026-04-11T09:40:35.271Z</time></trkpt><trkpt lat="44.536745" lon="7.9324314"><ele>267.0</ele><time>2026-04-11T09:40:37.271Z</time></trkpt><trkpt lat="44.5368215" lon="7.9323527"><ele>267.0</ele><time>2026-04-11T09:40:39.27Z</time></trkpt><trkpt lat="44.5369025" lon="7.9322723"><ele>267.0</ele><time>2026-04-11T09:40:41.271Z</time></trkpt><trkpt lat="44.5369978" lon="7.9321852"><ele>267.0</ele><time>2026-04-11T09:40:43.271Z</time></trkpt><trkpt lat="44.537093" lon="7.9320949"><ele>266.5</ele><time>2026-04-11T09:40:45.271Z</time></trkpt><trkpt lat="44.5371836" lon="7.9320002"><ele>266.0</ele><time>2026-04-11T09:40:47.27Z</time></trkpt><trkpt lat="44.5372783" lon="7.9319035"><ele>265.5</ele><time>2026-04-11T09:40:49.271Z</time></trkpt><trkpt lat="44.537373" lon="7.9318031"><ele>265.0</ele><time>2026-04-11T09:40:51.271Z</time></trkpt><trkpt lat="44.5374672" lon="7.9317004"><ele>265.0</ele><time>2026-04-11T09:40:53.27Z</time></trkpt><trkpt lat="44.5375605" lon="7.9316019"><ele>265.0</ele><time>2026-04-11T09:40:55.271Z</time></trkpt><trkpt lat="44.5376432" lon="7.9315171"><ele>265.0</ele><time>2026-04-11T09:40:57.271Z</time></trkpt><trkpt lat="44.5377302" lon="7.9314064"><ele>265.0</ele><time>2026-04-11T09:40:59.271Z</time></trkpt><trkpt lat="44.537814" lon="7.9313097"><ele>265.0</ele><time>2026-04-11T09:41:01.27Z</time></trkpt><trkpt lat="44.5379115" lon="7.9312127"><ele>265.0</ele><time>2026-04-11T09:41:03.271Z</time></trkpt><trkpt lat="44.5379615" lon="7.9311464"><ele>265.0</ele><time>2026-04-11T09:41:04.272Z</time></trkpt><trkpt lat="44.538035" lon="7.9310478"><ele>265.0</ele><time>2026-04-11T09:41:06.271Z</time></trkpt><trkpt lat="44.538102" lon="7.9309409"><ele>265.0</ele><time>2026-04-11T09:41:08.271Z</time></trkpt><trkpt lat="44.5381637" lon="7.9308279"><ele>265.0</ele><time>2026-04-11T09:41:10.271Z</time></trkpt><trkpt lat="44.5382167" lon="7.9307223"><ele>264.8333333333333</ele><time>2026-04-11T09:41:12.271Z</time></trkpt><trkpt lat="44.5382747" lon="7.9306189"><ele>264.66666666666663</ele><time>2026-04-11T09:41:14.27Z</time></trkpt><trkpt lat="44.5383251" lon="7.9305202"><ele>264.5</ele><time>2026-04-11T09:41:16.271Z</time></trkpt><trkpt lat="44.5383959" lon="7.9304593"><ele>264.3333333333333</ele><time>2026-04-11T09:41:19.271Z</time></trkpt><trkpt lat="44.5384559" lon="7.9304082"><ele>264.1666666666667</ele><time>2026-04-11T09:41:22.272Z</time></trkpt><trkpt lat="44.538481" lon="7.9303231"><ele>264.0</ele><time>2026-04-11T09:41:25.272Z</time></trkpt><trkpt lat="44.5385042" lon="7.930222"><ele>264.0</ele><time>2026-04-11T09:41:28.272Z</time></trkpt><trkpt lat="44.5385587" lon="7.9301551"><ele>264.0</ele><time>2026-04-11T09:41:30.272Z</time></trkpt><trkpt lat="44.5386079" lon="7.9300899"><ele>264.0</ele><time>2026-04-11T09:41:32.272Z</time></trkpt><trkpt lat="44.5386929" lon="7.9300401"><ele>264.0</ele><time>2026-04-11T09:41:35.272Z</time></trkpt><trkpt lat="44.5387876" lon="7.9301002"><ele>264.0</ele><time>2026-04-11T09:41:37.272Z</time></trkpt><trkpt lat="44.538863" lon="7.9301857"><ele>264.0</ele><time>2026-04-11T09:41:39.271Z</time></trkpt><trkpt lat="44.5389112" lon="7.9302877"><ele>264.0</ele><time>2026-04-11T09:41:41.272Z</time></trkpt><trkpt lat="44.5389594" lon="7.930395"><ele>264.0</ele><time>2026-04-11T09:41:43.271Z</time></trkpt><trkpt lat="44.5390113" lon="7.9304935"><ele>264.0</ele><time>2026-04-11T09:41:45.272Z</time></trkpt><trkpt lat="44.5390455" lon="7.9305821"><ele>264.0</ele><time>2026-04-11T09:41:47.272Z</time></trkpt><trkpt lat="44.539075" lon="7.9306692"><ele>264.0</ele><time>2026-04-11T09:41:49.272Z</time></trkpt><trkpt lat="44.5391136" lon="7.9307534"><ele>264.0</ele><time>2026-04-11T09:41:51.272Z</time></trkpt><trkpt lat="44.5391696" lon="7.9308483"><ele>264.0</ele><time>2026-04-11T09:41:53.272Z</time></trkpt><trkpt lat="44.5392234" lon="7.9309399"><ele>267.0</ele><time>2026-04-11T09:41:55.272Z</time></trkpt><trkpt lat="44.5392619" lon="7.93101"><ele>267.0</ele><time>2026-04-11T09:41:57.272Z</time></trkpt></trkseg><trkseg><trkpt lat="44.5432128" lon="7.9364053"><ele>354.0</ele><time>2026-04-11T09:59:26.371Z</time></trkpt><trkpt lat="44.5432151" lon="7.9364997"><ele>354.0</ele><time>2026-04-11T09:59:29.38Z</time></trkpt><trkpt lat="44.543252" lon="7.93659"><ele>354.0</ele><time>2026-04-11T09:59:32.306Z</time></trkpt><trkpt lat="44.5432621" lon="7.9367074"><ele>354.0</ele><time>2026-04-11T09:59:36.324Z</time></trkpt><trkpt lat="44.5432576" lon="7.9368205"><ele>354.0</ele><time>2026-04-11T09:59:39.325Z</time></trkpt><trkpt lat="44.5432651" lon="7.9369149"><ele>354.0</ele><time>2026-04-11T09:59:42.342Z</time></trkpt><trkpt lat="44.5432749" lon="7.9370193"><ele>354.0</ele><time>2026-04-11T09:59:45.343Z</time></trkpt><trkpt lat="44.5432955" lon="7.9371212"><ele>355.6666666666667</ele><time>2026-04-11T09:59:48.361Z</time></trkpt><trkpt lat="44.5433134" lon="7.9372177"><ele>357.3333333333333</ele><time>2026-04-11T09:59:51.36Z</time></trkpt><trkpt lat="44.5433537" lon="7.9373311"><ele>359.0</ele><time>2026-04-11T09:59:54.378Z</time></trkpt><trkpt lat="44.5434059" lon="7.9374407"><ele>360.66666666666663</ele><time>2026-04-11T09:59:58.372Z</time></trkpt><trkpt lat="44.5434432" lon="7.9375233"><ele>362.3333333333333</ele><time>2026-04-11T10:00:01.297Z</time></trkpt><trkpt lat="44.5435086" lon="7.9375336"><ele>364.0</ele><time>2026-04-11T10:00:04.364Z</time></trkpt><trkpt lat="44.5435574" lon="7.9376026"><ele>365.2857142857143</ele><time>2026-04-11T10:00:09.314Z</time></trkpt><trkpt lat="44.5436196" lon="7.9376615"><ele>366.57142857142856</ele><time>2026-04-11T10:00:15.333Z</time></trkpt><trkpt lat="44.5436709" lon="7.9377216"><ele>367.8571428571429</ele><time>2026-04-11T10:00:19.368Z</time></trkpt><trkpt lat="44.5437307" lon="7.9377796"><ele>369.1428571428571</ele><time>2026-04-11T10:00:23.286Z</time></trkpt><trkpt lat="44.5437953" lon="7.9378268"><ele>370.42857142857144</ele><time>2026-04-11T10:00:27.287Z</time></trkpt><trkpt lat="44.5438567" lon="7.9378666"><ele>371.7142857142857</ele><time>2026-04-11T10:00:31.353Z</time></trkpt><trkpt lat="44.543916" lon="7.9379394"><ele>373.0</ele><time>2026-04-11T10:00:35.371Z</time></trkpt><trkpt lat="44.5439748" lon="7.9379832"><ele>373.2857142857143</ele><time>2026-04-11T10:00:40.304Z</time></trkpt><trkpt lat="44.5440328" lon="7.9380291"><ele>373.57142857142856</ele><time>2026-04-11T10:00:44.306Z</time></trkpt><trkpt lat="44.5440923" lon="7.9380677"><ele>373.8571428571429</ele><time>2026-04-11T10:00:49.34Z</time></trkpt><trkpt lat="44.5441234" lon="7.9381509"><ele>374.1428571428571</ele><time>2026-04-11T10:02:12.289Z</time></trkpt><trkpt lat="44.5441911" lon="7.9382143"><ele>374.4285714285714</ele><time>2026-04-11T10:02:16.298Z</time></trkpt><trkpt lat="44.5442488" lon="7.9383077"><ele>374.7142857142857</ele><time>2026-04-11T10:02:19.3Z</time></trkpt><trkpt lat="44.5442693" lon="7.9384148"><ele>375.0</ele><time>2026-04-11T10:02:22.301Z</time></trkpt><trkpt lat="44.5442859" lon="7.9385264"><ele>376.2857142857143</ele><time>2026-04-11T10:02:26.302Z</time></trkpt><trkpt lat="44.544281" lon="7.9386352"><ele>377.57142857142856</ele><time>2026-04-11T10:02:30.32Z</time></trkpt><trkpt lat="44.5442399" lon="7.9387139"><ele>378.85714285714283</ele><time>2026-04-11T10:02:33.321Z</time></trkpt><trkpt lat="44.544196" lon="7.9387854"><ele>380.1428571428571</ele><time>2026-04-11T10:02:36.338Z</time></trkpt><trkpt lat="44.544139" lon="7.9388288"><ele>381.42857142857144</ele><time>2026-04-11T10:02:39.372Z</time></trkpt><trkpt lat="44.544075" lon="7.9388889"><ele>382.71428571428567</ele><time>2026-04-11T10:02:43.29Z</time></trkpt><trkpt lat="44.5440484" lon="7.9389721"><ele>384.0</ele><time>2026-04-11T10:02:47.284Z</time></trkpt><trkpt lat="44.544096" lon="7.9390611"><ele>383.99999999999994</ele><time>2026-04-11T10:02:51.292Z</time></trkpt><trkpt lat="44.5441686" lon="7.9391176"><ele>384.0</ele><time>2026-04-11T10:02:55.292Z</time></trkpt><trkpt lat="44.5442414" lon="7.9391657"><ele>384.0</ele><time>2026-04-11T10:02:59.394Z</time></trkpt><trkpt lat="44.5443044" lon="7.9391937"><ele>384.0</ele><time>2026-04-11T10:03:04.312Z</time></trkpt><trkpt lat="44.5443726" lon="7.9391728"><ele>384.0</ele><time>2026-04-11T10:03:08.33Z</time></trkpt><trkpt lat="44.544439" lon="7.9391813"><ele>383.99999999999994</ele><time>2026-04-11T10:03:12.331Z</time></trkpt><trkpt lat="44.5445108" lon="7.9391862"><ele>384.0</ele><time>2026-04-11T10:03:16.331Z</time></trkpt><trkpt lat="44.5445932" lon="7.9391975"><ele>385.4285714285714</ele><time>2026-04-11T10:03:20.332Z</time></trkpt><trkpt lat="44.5446473" lon="7.9392801"><ele>386.85714285714283</ele><time>2026-04-11T10:03:23.333Z</time></trkpt><trkpt lat="44.5446533" lon="7.9393725"><ele>388.2857142857143</ele><time>2026-04-11T10:03:25.334Z</time></trkpt><trkpt lat="44.54468" lon="7.9394727"><ele>389.71428571428567</ele><time>2026-04-11T10:03:30.385Z</time></trkpt><trkpt lat="44.5446753" lon="7.9395647"><ele>391.14285714285717</ele><time>2026-04-11T10:03:34.4Z</time></trkpt><trkpt lat="44.5446882" lon="7.9396724"><ele>392.57142857142856</ele><time>2026-04-11T10:03:38.303Z</time></trkpt><trkpt lat="44.5446875" lon="7.9397792"><ele>394.0</ele><time>2026-04-11T10:03:44.29Z</time></trkpt><trkpt lat="44.5446996" lon="7.939878"><ele>394.00000000000006</ele><time>2026-04-11T10:03:48.29Z</time></trkpt><trkpt lat="44.5447095" lon="7.9399873"><ele>394.0</ele><time>2026-04-11T10:03:52.289Z</time></trkpt><trkpt lat="44.5447541" lon="7.9400775"><ele>394.0</ele><time>2026-04-11T10:03:56.289Z</time></trkpt><trkpt lat="44.5448185" lon="7.9401346"><ele>394.0</ele><time>2026-04-11T10:04:00.289Z</time></trkpt><trkpt lat="44.544897" lon="7.9401609"><ele>394.00000000000006</ele><time>2026-04-11T10:04:04.29Z</time></trkpt><trkpt lat="44.5449728" lon="7.9401868"><ele>394.0</ele><time>2026-04-11T10:04:08.29Z</time></trkpt><trkpt lat="44.5450452" lon="7.9402123"><ele>393.57142857142856</ele><time>2026-04-11T10:04:12.291Z</time></trkpt><trkpt lat="44.5451226" lon="7.9402199"><ele>393.14285714285717</ele><time>2026-04-11T10:04:16.291Z</time></trkpt><trkpt lat="44.5451871" lon="7.9402269"><ele>392.71428571428567</ele><time>2026-04-11T10:04:19.291Z</time></trkpt><trkpt lat="44.5452593" lon="7.9402462"><ele>392.2857142857143</ele><time>2026-04-11T10:04:23.291Z</time></trkpt><trkpt lat="44.5453277" lon="7.9402729"><ele>391.85714285714283</ele><time>2026-04-11T10:04:27.291Z</time></trkpt><trkpt lat="44.5453917" lon="7.9402709"><ele>391.4285714285714</ele><time>2026-04-11T10:04:30.29Z</time></trkpt><trkpt lat="44.5454613" lon="7.9403"><ele>391.0</ele><time>2026-04-11T10:04:34.29Z</time></trkpt><trkpt lat="44.5455363" lon="7.9403177"><ele>392.85714285714283</ele><time>2026-04-11T10:04:38.29Z</time></trkpt><trkpt lat="44.5455989" lon="7.9403335"><ele>394.7142857142857</ele><time>2026-04-11T10:04:41.29Z</time></trkpt><trkpt lat="44.5456769" lon="7.9403684"><ele>396.57142857142856</ele><time>2026-04-11T10:04:45.291Z</time></trkpt><trkpt lat="44.5457501" lon="7.9404006"><ele>398.42857142857144</ele><time>2026-04-11T10:04:49.291Z</time></trkpt><trkpt lat="44.5458084" lon="7.9404564"><ele>400.2857142857143</ele><time>2026-04-11T10:04:53.291Z</time></trkpt><trkpt lat="44.5458641" lon="7.9405242"><ele>402.1428571428571</ele><time>2026-04-11T10:04:57.29Z</time></trkpt><trkpt lat="44.5459265" lon="7.9405871"><ele>404.0</ele><time>2026-04-11T10:05:01.291Z</time></trkpt><trkpt lat="44.5459774" lon="7.9406469"><ele>404.0</ele><time>2026-04-11T10:05:05.291Z</time></trkpt><trkpt lat="44.5460268" lon="7.9407152"><ele>404.0</ele><time>2026-04-11T10:05:10.291Z</time></trkpt><trkpt lat="44.5460858" lon="7.9407629"><ele>404.0</ele><time>2026-04-11T10:06:31.357Z</time></trkpt><trkpt lat="44.546124" lon="7.9408441"><ele>404.0</ele><time>2026-04-11T10:06:36.38Z</time></trkpt><trkpt lat="44.5461762" lon="7.94091"><ele>404.0</ele><time>2026-04-11T10:06:42.36Z</time></trkpt><trkpt lat="44.5462117" lon="7.9409862"><ele>404.0</ele><time>2026-04-11T10:06:48.368Z</time></trkpt><trkpt lat="44.5462636" lon="7.9410531"><ele>404.0</ele><time>2026-04-11T10:06:55.38Z</time></trkpt><trkpt lat="44.5463266" lon="7.9411206"><ele>405.7142857142857</ele><time>2026-04-11T10:07:02.319Z</time></trkpt><trkpt lat="44.5463726" lon="7.9411982"><ele>407.42857142857144</ele><time>2026-04-11T10:07:09.293Z</time></trkpt><trkpt lat="44.5464237" lon="7.9412662"><ele>409.1428571428571</ele><time>2026-04-11T10:07:15.293Z</time></trkpt><trkpt lat="44.5464735" lon="7.9413308"><ele>410.8571428571429</ele><time>2026-04-11T10:07:22.293Z</time></trkpt><trkpt lat="44.5465245" lon="7.9413942"><ele>412.5714285714286</ele><time>2026-04-11T10:07:29.293Z</time></trkpt><trkpt lat="44.5465783" lon="7.9414566"><ele>414.2857142857143</ele><time>2026-04-11T10:07:36.292Z</time></trkpt><trkpt lat="44.5466229" lon="7.9415193"><ele>416.0</ele><time>2026-04-11T10:07:42.293Z</time></trkpt><trkpt lat="44.5466769" lon="7.9415825"><ele>416.0</ele><time>2026-04-11T10:07:49.292Z</time></trkpt><trkpt lat="44.5467304" lon="7.9416478"><ele>416.0</ele><time>2026-04-11T10:07:57.294Z</time></trkpt><trkpt lat="44.5467758" lon="7.941715"><ele>416.0</ele><time>2026-04-11T10:08:04.294Z</time></trkpt><trkpt lat="44.5468392" lon="7.9417471"><ele>416.0</ele><time>2026-04-11T10:08:11.294Z</time></trkpt><trkpt lat="44.5468786" lon="7.9418201"><ele>416.0</ele><time>2026-04-11T10:08:17.294Z</time></trkpt><trkpt lat="44.5469392" lon="7.9418709"><ele>416.0</ele><time>2026-04-11T10:08:24.293Z</time></trkpt><trkpt lat="44.5469691" lon="7.9419516"><ele>416.0</ele><time>2026-04-11T10:08:30.294Z</time></trkpt><trkpt lat="44.5470391" lon="7.9419727"><ele>415.0</ele><time>2026-04-11T10:08:37.294Z</time></trkpt><trkpt lat="44.5471063" lon="7.9420152"><ele>414.0</ele><time>2026-04-11T10:08:43.295Z</time></trkpt><trkpt lat="44.5471402" lon="7.9420945"><ele>413.0</ele><time>2026-04-11T10:08:51.293Z</time></trkpt><trkpt lat="44.5471528" lon="7.9421812"><ele>412.0</ele><time>2026-04-11T10:09:44.295Z</time></trkpt><trkpt lat="44.5472087" lon="7.9422487"><ele>411.0</ele><time>2026-04-11T10:09:54.294Z</time></trkpt><trkpt lat="44.5471931" lon="7.9423609"><ele>410.0</ele><time>2026-04-11T10:09:58.294Z</time></trkpt><trkpt lat="44.5471844" lon="7.9424767"><ele>409.0</ele><time>2026-04-11T10:10:01.295Z</time></trkpt><trkpt lat="44.5472273" lon="7.9425719"><ele>409.0</ele><time>2026-04-11T10:10:05.295Z</time></trkpt><trkpt lat="44.5472787" lon="7.9426274"><ele>409.0</ele><time>2026-04-11T10:10:07.294Z</time></trkpt><trkpt lat="44.5473407" lon="7.9426839"><ele>409.0</ele><time>2026-04-11T10:10:09.295Z</time></trkpt><trkpt lat="44.5473989" lon="7.942725"><ele>409.0</ele><time>2026-04-11T10:10:11.295Z</time></trkpt><trkpt lat="44.54748" lon="7.9427435"><ele>409.0</ele><time>2026-04-11T10:10:14.295Z</time></trkpt><trkpt lat="44.5475533" lon="7.9427521"><ele>409.0</ele><time>2026-04-11T10:10:17.295Z</time></trkpt><trkpt lat="44.5476189" lon="7.9427499"><ele>409.0</ele><time>2026-04-11T10:10:20.294Z</time></trkpt><trkpt lat="44.5476837" lon="7.94277"><ele>409.0</ele><time>2026-04-11T10:10:24.296Z</time></trkpt><trkpt lat="44.5477548" lon="7.9427664"><ele>409.0</ele><time>2026-04-11T10:10:29.296Z</time></trkpt><trkpt lat="44.54781" lon="7.9427102"><ele>409.0</ele><time>2026-04-11T10:10:33.296Z</time></trkpt><trkpt lat="44.5478652" lon="7.942662"><ele>409.0</ele><time>2026-04-11T10:10:37.296Z</time></trkpt><trkpt lat="44.5479388" lon="7.9426461"><ele>409.0</ele><time>2026-04-11T10:10:41.296Z</time></trkpt><trkpt lat="44.5479943" lon="7.9427093"><ele>409.0</ele><time>2026-04-11T10:10:53.296Z</time></trkpt><trkpt lat="44.5480507" lon="7.9427696"><ele>409.0</ele><time>2026-04-11T10:11:00.296Z</time></trkpt><trkpt lat="44.5481028" lon="7.9428217"><ele>412.1428571428571</ele><time>2026-04-11T10:11:08.296Z</time></trkpt><trkpt lat="44.5481526" lon="7.9428912"><ele>415.28571428571433</ele><time>2026-04-11T10:11:14.296Z</time></trkpt><trkpt lat="44.5481986" lon="7.9429524"><ele>418.42857142857144</ele><time>2026-04-11T10:11:21.296Z</time></trkpt><trkpt lat="44.5482539" lon="7.9430013"><ele>421.57142857142856</ele><time>2026-04-11T10:12:38.395Z</time></trkpt><trkpt lat="44.5483068" lon="7.9430644"><ele>424.71428571428567</ele><time>2026-04-11T10:12:42.313Z</time></trkpt><trkpt lat="44.5483533" lon="7.9431284"><ele>427.8571428571429</ele><time>2026-04-11T10:12:47.315Z</time></trkpt><trkpt lat="44.5484082" lon="7.9431735"><ele>431.0</ele><time>2026-04-11T10:12:52.316Z</time></trkpt><trkpt lat="44.5484627" lon="7.9432298"><ele>431.0</ele><time>2026-04-11T10:12:58.297Z</time></trkpt><trkpt lat="44.5485247" lon="7.9432505"><ele>431.0</ele><time>2026-04-11T10:13:05.298Z</time></trkpt><trkpt lat="44.5485906" lon="7.9432671"><ele>431.0</ele><time>2026-04-11T10:13:12.298Z</time></trkpt><trkpt lat="44.5486648" lon="7.943277"><ele>431.0</ele><time>2026-04-11T10:13:19.298Z</time></trkpt><trkpt lat="44.5487367" lon="7.9432838"><ele>431.0</ele><time>2026-04-11T10:13:26.298Z</time></trkpt><trkpt lat="44.5488042" lon="7.9433049"><ele>431.0</ele><time>2026-04-11T10:13:35.298Z</time></trkpt><trkpt lat="44.5488684" lon="7.9433211"><ele>431.0</ele><time>2026-04-11T10:13:42.297Z</time></trkpt><trkpt lat="44.5489252" lon="7.9433703"><ele>431.66666666666663</ele><time>2026-04-11T10:13:48.297Z</time></trkpt><trkpt lat="44.5489998" lon="7.9434281"><ele>432.3333333333333</ele><time>2026-04-11T10:14:06.299Z</time></trkpt><trkpt lat="44.5490621" lon="7.9434645"><ele>433.0</ele><time>2026-04-11T10:14:09.299Z</time></trkpt><trkpt lat="44.5491356" lon="7.9434958"><ele>433.66666666666663</ele><time>2026-04-11T10:14:13.298Z</time></trkpt><trkpt lat="44.5491957" lon="7.9435817"><ele>434.3333333333333</ele><time>2026-04-11T10:14:16.299Z</time></trkpt><trkpt lat="44.5492321" lon="7.9436627"><ele>435.0</ele><time>2026-04-11T10:14:18.298Z</time></trkpt><trkpt lat="44.5492906" lon="7.943738"><ele>435.00000000000006</ele><time>2026-04-11T10:14:21.299Z</time></trkpt><trkpt lat="44.54935" lon="7.9438207"><ele>435.0</ele><time>2026-04-11T10:14:24.299Z</time></trkpt><trkpt lat="44.5494083" lon="7.9438888"><ele>435.0</ele><time>2026-04-11T10:14:27.298Z</time></trkpt><trkpt lat="44.5494634" lon="7.9439505"><ele>435.0</ele><time>2026-04-11T10:14:30.299Z</time></trkpt><trkpt lat="44.5495215" lon="7.9440061"><ele>435.0</ele><time>2026-04-11T10:14:33.298Z</time></trkpt><trkpt lat="44.5495766" lon="7.9440606"><ele>435.00000000000006</ele><time>2026-04-11T10:14:36.299Z</time></trkpt><trkpt lat="44.5496548" lon="7.9440938"><ele>435.0</ele><time>2026-04-11T10:14:41.299Z</time></trkpt><trkpt lat="44.5497165" lon="7.9441703"><ele>433.8333333333333</ele><time>2026-04-11T10:15:11.3Z</time></trkpt><trkpt lat="44.5497773" lon="7.9442169"><ele>432.66666666666663</ele><time>2026-04-11T10:15:13.299Z</time></trkpt><trkpt lat="44.5498459" lon="7.9442624"><ele>431.5</ele><time>2026-04-11T10:15:15.3Z</time></trkpt><trkpt lat="44.5499153" lon="7.9443218"><ele>430.3333333333333</ele><time>2026-04-11T10:15:17.3Z</time></trkpt><trkpt lat="44.549998" lon="7.9443802"><ele>429.16666666666663</ele><time>2026-04-11T10:15:19.3Z</time></trkpt><trkpt lat="44.5500796" lon="7.9444384"><ele>428.0</ele><time>2026-04-11T10:15:21.3Z</time></trkpt><trkpt lat="44.5501618" lon="7.9444943"><ele>428.0</ele><time>2026-04-11T10:15:23.299Z</time></trkpt><trkpt lat="44.55024" lon="7.9445521"><ele>427.99999999999994</ele><time>2026-04-11T10:15:25.3Z</time></trkpt><trkpt lat="44.5503138" lon="7.9446283"><ele>427.99999999999994</ele><time>2026-04-11T10:15:27.3Z</time></trkpt><trkpt lat="44.5504064" lon="7.9446849"><ele>428.0</ele><time>2026-04-11T10:15:29.3Z</time></trkpt><trkpt lat="44.5504955" lon="7.9447354"><ele>428.0</ele><time>2026-04-11T10:15:31.3Z</time></trkpt><trkpt lat="44.5505862" lon="7.9447912"><ele>428.4</ele><time>2026-04-11T10:15:33.299Z</time></trkpt><trkpt lat="44.5506783" lon="7.9448564"><ele>428.79999999999995</ele><time>2026-04-11T10:15:35.3Z</time></trkpt><trkpt lat="44.5507619" lon="7.9449149"><ele>429.2</ele><time>2026-04-11T10:15:37.3Z</time></trkpt><trkpt lat="44.550835" lon="7.9449782"><ele>429.6</ele><time>2026-04-11T10:15:39.3Z</time></trkpt><trkpt lat="44.5509078" lon="7.9450396"><ele>430.0</ele><time>2026-04-11T10:15:41.3Z</time></trkpt><trkpt lat="44.5509741" lon="7.9451125"><ele>430.00000000000006</ele><time>2026-04-11T10:15:43.299Z</time></trkpt><trkpt lat="44.5510436" lon="7.9451812"><ele>430.0</ele><time>2026-04-11T10:15:45.3Z</time></trkpt><trkpt lat="44.5511166" lon="7.9452463"><ele>430.0</ele><time>2026-04-11T10:15:47.3Z</time></trkpt><trkpt lat="44.5511939" lon="7.9453177"><ele>430.0</ele><time>2026-04-11T10:15:49.3Z</time></trkpt><trkpt lat="44.5512663" lon="7.9453757"><ele>430.00000000000006</ele><time>2026-04-11T10:15:51.3Z</time></trkpt><trkpt lat="44.5513429" lon="7.9454213"><ele>430.0</ele><time>2026-04-11T10:15:53.299Z</time></trkpt><trkpt lat="44.5514362" lon="7.9454526"><ele>431.50000000000006</ele><time>2026-04-11T10:15:55.3Z</time></trkpt><trkpt lat="44.5515299" lon="7.9454721"><ele>433.0</ele><time>2026-04-11T10:15:57.299Z</time></trkpt><trkpt lat="44.5516189" lon="7.9455024"><ele>434.5</ele><time>2026-04-11T10:15:59.3Z</time></trkpt><trkpt lat="44.551706" lon="7.9455316"><ele>436.0</ele><time>2026-04-11T10:16:01.3Z</time></trkpt><trkpt lat="44.5517845" lon="7.9455581"><ele>437.50000000000006</ele><time>2026-04-11T10:16:03.3Z</time></trkpt><trkpt lat="44.5518647" lon="7.9455903"><ele>439.0</ele><time>2026-04-11T10:16:05.299Z</time></trkpt><trkpt lat="44.551946" lon="7.9456389"><ele>439.0</ele><time>2026-04-11T10:16:07.3Z</time></trkpt><trkpt lat="44.5520206" lon="7.9456937"><ele>439.0</ele><time>2026-04-11T10:16:09.3Z</time></trkpt><trkpt lat="44.5520923" lon="7.9457683"><ele>439.0</ele><time>2026-04-11T10:16:11.3Z</time></trkpt><trkpt lat="44.5521608" lon="7.9458553"><ele>439.0</ele><time>2026-04-11T10:16:13.3Z</time></trkpt><trkpt lat="44.5522354" lon="7.9459526"><ele>439.0</ele><time>2026-04-11T10:16:15.3Z</time></trkpt><trkpt lat="44.5523045" lon="7.9460166"><ele>438.1666666666667</ele><time>2026-04-11T10:16:17.3Z</time></trkpt><trkpt lat="44.5523701" lon="7.9460686"><ele>437.33333333333337</ele><time>2026-04-11T10:16:19.3Z</time></trkpt><trkpt lat="44.5524514" lon="7.9461794"><ele>436.5</ele><time>2026-04-11T10:16:21.299Z</time></trkpt><trkpt lat="44.5525038" lon="7.9462483"><ele>435.66666666666663</ele><time>2026-04-11T10:16:22.299Z</time></trkpt><trkpt lat="44.5525622" lon="7.9463098"><ele>434.8333333333333</ele><time>2026-04-11T10:16:23.3Z</time></trkpt><trkpt lat="44.5526569" lon="7.9463917"><ele>434.0</ele><time>2026-04-11T10:16:25.3Z</time></trkpt><trkpt lat="44.5527507" lon="7.946489"><ele>434.0</ele><time>2026-04-11T10:16:27.301Z</time></trkpt><trkpt lat="44.5528552" lon="7.946589"><ele>434.0</ele><time>2026-04-11T10:16:29.3Z</time></trkpt><trkpt lat="44.5529154" lon="7.9466385"><ele>434.0</ele><time>2026-04-11T10:16:30.3Z</time></trkpt><trkpt lat="44.5529768" lon="7.9466926"><ele>434.0</ele><time>2026-04-11T10:16:31.301Z</time></trkpt><trkpt lat="44.5530367" lon="7.9467412"><ele>434.0</ele><time>2026-04-11T10:16:32.301Z</time></trkpt><trkpt lat="44.5531374" lon="7.9468279"><ele>435.49999999999994</ele><time>2026-04-11T10:16:34.301Z</time></trkpt><trkpt lat="44.5531967" lon="7.9469276"><ele>437.0</ele><time>2026-04-11T10:16:36.301Z</time></trkpt><trkpt lat="44.5532151" lon="7.9470297"><ele>438.5</ele><time>2026-04-11T10:16:38.301Z</time></trkpt><trkpt lat="44.5532274" lon="7.9471351"><ele>440.0</ele><time>2026-04-11T10:16:40.301Z</time></trkpt><trkpt lat="44.55324" lon="7.9472264"><ele>441.49999999999994</ele><time>2026-04-11T10:16:42.301Z</time></trkpt><trkpt lat="44.553238" lon="7.9473249"><ele>443.0</ele><time>2026-04-11T10:16:44.301Z</time></trkpt><trkpt lat="44.5532192" lon="7.9474543"><ele>440.8333333333333</ele><time>2026-04-11T10:16:46.3Z</time></trkpt><trkpt lat="44.5532185" lon="7.947575"><ele>438.66666666666663</ele><time>2026-04-11T10:16:48.301Z</time></trkpt><trkpt lat="44.5532775" lon="7.9476731"><ele>436.5</ele><time>2026-04-11T10:16:50.301Z</time></trkpt><trkpt lat="44.5533476" lon="7.9476828"><ele>434.33333333333337</ele><time>2026-04-11T10:16:53.301Z</time></trkpt><trkpt lat="44.5534117" lon="7.9477279"><ele>432.1666666666667</ele><time>2026-04-11T10:16:56.301Z</time></trkpt><trkpt lat="44.5534891" lon="7.947785"><ele>430.0</ele><time>2026-04-11T10:16:59.301Z</time></trkpt><trkpt lat="44.5535457" lon="7.9478237"><ele>430.0</ele><time>2026-04-11T10:17:01.3Z</time></trkpt><trkpt lat="44.553605" lon="7.9478705"><ele>430.0</ele><time>2026-04-11T10:17:03.3Z</time></trkpt><trkpt lat="44.5536625" lon="7.947933"><ele>430.0</ele><time>2026-04-11T10:17:05.301Z</time></trkpt><trkpt lat="44.5537214" lon="7.9479907"><ele>430.0</ele><time>2026-04-11T10:17:07.301Z</time></trkpt><trkpt lat="44.5537835" lon="7.9480486"><ele>430.0</ele><time>2026-04-11T10:17:09.301Z</time></trkpt><trkpt lat="44.5538476" lon="7.9480986"><ele>430.0</ele><time>2026-04-11T10:17:11.301Z</time></trkpt><trkpt lat="44.553915" lon="7.9481462"><ele>430.0</ele><time>2026-04-11T10:17:13.301Z</time></trkpt><trkpt lat="44.5539873" lon="7.9482035"><ele>429.33333333333337</ele><time>2026-04-11T10:17:15.3Z</time></trkpt><trkpt lat="44.5540596" lon="7.9482653"><ele>428.6666666666667</ele><time>2026-04-11T10:17:17.301Z</time></trkpt><trkpt lat="44.5541269" lon="7.9483364"><ele>428.0</ele><time>2026-04-11T10:17:19.301Z</time></trkpt><trkpt lat="44.5541942" lon="7.9483953"><ele>427.33333333333337</ele><time>2026-04-11T10:17:21.3Z</time></trkpt><trkpt lat="44.5541939" lon="7.9484849"><ele>426.6666666666667</ele><time>2026-04-11T10:18:07.303Z</time></trkpt><trkpt lat="44.5542699" lon="7.9485218"><ele>426.0</ele><time>2026-04-11T10:18:23.547Z</time></trkpt><trkpt lat="44.5543536" lon="7.9485933"><ele>426.0</ele><time>2026-04-11T10:18:26.342Z</time></trkpt><trkpt lat="44.5544291" lon="7.9486549"><ele>426.0</ele><time>2026-04-11T10:18:28.36Z</time></trkpt><trkpt lat="44.5544986" lon="7.9487348"><ele>426.0</ele><time>2026-04-11T10:18:30.377Z</time></trkpt><trkpt lat="44.5545679" lon="7.9488105"><ele>426.0</ele><time>2026-04-11T10:18:32.341Z</time></trkpt><trkpt lat="44.554626" lon="7.9488736"><ele>426.0</ele><time>2026-04-11T10:18:34.378Z</time></trkpt><trkpt lat="44.5547057" lon="7.94894"><ele>426.0</ele><time>2026-04-11T10:18:37.284Z</time></trkpt><trkpt lat="44.5547542" lon="7.9489975"><ele>426.1666666666667</ele><time>2026-04-11T10:18:39.301Z</time></trkpt><trkpt lat="44.5548091" lon="7.9490578"><ele>426.33333333333337</ele><time>2026-04-11T10:18:41.312Z</time></trkpt><trkpt lat="44.5548724" lon="7.9491232"><ele>426.5</ele><time>2026-04-11T10:18:43.312Z</time></trkpt><trkpt lat="44.5549324" lon="7.9491965"><ele>426.6666666666667</ele><time>2026-04-11T10:18:45.312Z</time></trkpt><trkpt lat="44.5550134" lon="7.9492835"><ele>426.83333333333337</ele><time>2026-04-11T10:18:47.302Z</time></trkpt><trkpt lat="44.5551033" lon="7.9493816"><ele>427.0</ele><time>2026-04-11T10:18:49.302Z</time></trkpt><trkpt lat="44.5551917" lon="7.9494792"><ele>427.00000000000006</ele><time>2026-04-11T10:18:51.301Z</time></trkpt><trkpt lat="44.5552682" lon="7.9495735"><ele>427.0</ele><time>2026-04-11T10:18:53.303Z</time></trkpt><trkpt lat="44.5553342" lon="7.949652"><ele>427.0</ele><time>2026-04-11T10:18:55.302Z</time></trkpt><trkpt lat="44.5553999" lon="7.9497263"><ele>427.0</ele><time>2026-04-11T10:18:57.303Z</time></trkpt><trkpt lat="44.5554658" lon="7.9497993"><ele>427.00000000000006</ele><time>2026-04-11T10:18:59.303Z</time></trkpt><trkpt lat="44.5555302" lon="7.9498561"><ele>427.0</ele><time>2026-04-11T10:19:01.303Z</time></trkpt><trkpt lat="44.5555921" lon="7.9499215"><ele>427.2857142857143</ele><time>2026-04-11T10:19:03.306Z</time></trkpt><trkpt lat="44.5556379" lon="7.94999"><ele>427.57142857142856</ele><time>2026-04-11T10:19:05.303Z</time></trkpt><trkpt lat="44.555719" lon="7.9500411"><ele>427.8571428571429</ele><time>2026-04-11T10:19:08.302Z</time></trkpt><trkpt lat="44.5557703" lon="7.95011"><ele>428.1428571428571</ele><time>2026-04-11T10:19:10.303Z</time></trkpt><trkpt lat="44.5558219" lon="7.9501811"><ele>428.42857142857144</ele><time>2026-04-11T10:19:12.302Z</time></trkpt><trkpt lat="44.5558726" lon="7.9502498"><ele>428.7142857142857</ele><time>2026-04-11T10:19:14.303Z</time></trkpt><trkpt lat="44.5559237" lon="7.9503175"><ele>429.0</ele><time>2026-04-11T10:19:16.302Z</time></trkpt><trkpt lat="44.5559721" lon="7.9503826"><ele>429.0</ele><time>2026-04-11T10:19:18.302Z</time></trkpt><trkpt lat="44.5560358" lon="7.9504663"><ele>429.0</ele><time>2026-04-11T10:19:21.303Z</time></trkpt><trkpt lat="44.5560851" lon="7.950525"><ele>429.0</ele><time>2026-04-11T10:19:24.303Z</time></trkpt><trkpt lat="44.5561378" lon="7.9505992"><ele>429.0</ele><time>2026-04-11T10:19:27.303Z</time></trkpt><trkpt lat="44.5561961" lon="7.9506644"><ele>429.0</ele><time>2026-04-11T10:19:30.303Z</time></trkpt><trkpt lat="44.5562671" lon="7.9507235"><ele>429.0</ele><time>2026-04-11T10:19:33.303Z</time></trkpt><trkpt lat="44.5563443" lon="7.9507811"><ele>429.8333333333333</ele><time>2026-04-11T10:19:36.303Z</time></trkpt><trkpt lat="44.5564174" lon="7.9508296"><ele>430.66666666666663</ele><time>2026-04-11T10:19:39.303Z</time></trkpt><trkpt lat="44.5564964" lon="7.9508739"><ele>431.5</ele><time>2026-04-11T10:20:07.303Z</time></trkpt><trkpt lat="44.5565626" lon="7.9509431"><ele>432.3333333333333</ele><time>2026-04-11T10:20:09.304Z</time></trkpt><trkpt lat="44.5566343" lon="7.950988"><ele>433.16666666666663</ele><time>2026-04-11T10:20:12.304Z</time></trkpt><trkpt lat="44.5567106" lon="7.9510152"><ele>434.0</ele><time>2026-04-11T10:20:14.304Z</time></trkpt><trkpt lat="44.5567717" lon="7.9510447"><ele>434.0</ele><time>2026-04-11T10:20:16.304Z</time></trkpt><trkpt lat="44.5568508" lon="7.9510715"><ele>434.0</ele><time>2026-04-11T10:20:19.303Z</time></trkpt><trkpt lat="44.5569077" lon="7.9511395"><ele>434.0</ele><time>2026-04-11T10:20:22.304Z</time></trkpt><trkpt lat="44.5569247" lon="7.9512424"><ele>434.0</ele><time>2026-04-11T10:20:24.304Z</time></trkpt><trkpt lat="44.5569185" lon="7.9513438"><ele>434.0</ele><time>2026-04-11T10:20:26.304Z</time></trkpt><trkpt lat="44.5569117" lon="7.9514512"><ele>434.0</ele><time>2026-04-11T10:20:29.304Z</time></trkpt><trkpt lat="44.5569248" lon="7.9515445"><ele>434.0</ele><time>2026-04-11T10:20:32.304Z</time></trkpt><trkpt lat="44.5569279" lon="7.9516465"><ele>433.66666666666663</ele><time>2026-04-11T10:20:36.304Z</time></trkpt><trkpt lat="44.5569254" lon="7.9517644"><ele>433.3333333333333</ele><time>2026-04-11T10:20:40.304Z</time></trkpt><trkpt lat="44.5569833" lon="7.9518583"><ele>433.0</ele><time>2026-04-11T10:20:42.304Z</time></trkpt><trkpt lat="44.5570447" lon="7.9518809"><ele>432.66666666666663</ele><time>2026-04-11T10:20:44.304Z</time></trkpt><trkpt lat="44.557123" lon="7.951888"><ele>432.3333333333333</ele><time>2026-04-11T10:20:48.303Z</time></trkpt><trkpt lat="44.5572057" lon="7.9518268"><ele>432.0</ele><time>2026-04-11T10:21:07.304Z</time></trkpt><trkpt lat="44.5572744" lon="7.9517983"><ele>430.3333333333333</ele><time>2026-04-11T10:21:10.304Z</time></trkpt><trkpt lat="44.5573145" lon="7.9516851"><ele>428.66666666666663</ele><time>2026-04-11T10:21:13.303Z</time></trkpt><trkpt lat="44.5572794" lon="7.9515637"><ele>427.0</ele><time>2026-04-11T10:21:16.304Z</time></trkpt><trkpt lat="44.5572411" lon="7.9514784"><ele>425.3333333333333</ele><time>2026-04-11T10:21:18.304Z</time></trkpt><trkpt lat="44.5572194" lon="7.9513527"><ele>423.66666666666663</ele><time>2026-04-11T10:21:21.304Z</time></trkpt><trkpt lat="44.5572341" lon="7.9512544"><ele>422.0</ele><time>2026-04-11T10:21:23.305Z</time></trkpt><trkpt lat="44.5573572" lon="7.9512671"><ele>421.99999999999994</ele><time>2026-04-11T10:21:26.304Z</time></trkpt><trkpt lat="44.5574328" lon="7.9513228"><ele>422.0</ele><time>2026-04-11T10:21:27.305Z</time></trkpt><trkpt lat="44.5575003" lon="7.9513814"><ele>422.0</ele><time>2026-04-11T10:21:28.305Z</time></trkpt><trkpt lat="44.5575813" lon="7.9514409"><ele>422.0</ele><time>2026-04-11T10:21:29.305Z</time></trkpt><trkpt lat="44.5576687" lon="7.9514834"><ele>421.99999999999994</ele><time>2026-04-11T10:21:30.305Z</time></trkpt><trkpt lat="44.5577631" lon="7.9515228"><ele>422.0</ele><time>2026-04-11T10:21:31.305Z</time></trkpt><trkpt lat="44.557859" lon="7.9515649"><ele>419.40000000000003</ele><time>2026-04-11T10:21:32.305Z</time></trkpt><trkpt lat="44.5579619" lon="7.9516054"><ele>416.8</ele><time>2026-04-11T10:21:33.304Z</time></trkpt><trkpt lat="44.5580735" lon="7.9516491"><ele>414.2</ele><time>2026-04-11T10:21:34.304Z</time></trkpt><trkpt lat="44.5581863" lon="7.9516874"><ele>411.6</ele><time>2026-04-11T10:21:35.305Z</time></trkpt><trkpt lat="44.5582867" lon="7.9517149"><ele>409.0</ele><time>2026-04-11T10:21:36.304Z</time></trkpt><trkpt lat="44.5583737" lon="7.9517202"><ele>409.0</ele><time>2026-04-11T10:21:37.305Z</time></trkpt><trkpt lat="44.5584465" lon="7.9517126"><ele>409.0</ele><time>2026-04-11T10:21:38.304Z</time></trkpt><trkpt lat="44.5585548" lon="7.9516544"><ele>409.0</ele><time>2026-04-11T10:21:40.305Z</time></trkpt><trkpt lat="44.5586591" lon="7.9515783"><ele>409.0</ele><time>2026-04-11T10:21:42.305Z</time></trkpt><trkpt lat="44.5587566" lon="7.9515035"><ele>409.0</ele><time>2026-04-11T10:21:44.305Z</time></trkpt><trkpt lat="44.5588164" lon="7.9514622"><ele>407.7142857142857</ele><time>2026-04-11T10:21:45.305Z</time></trkpt><trkpt lat="44.5588753" lon="7.9514299"><ele>406.42857142857144</ele><time>2026-04-11T10:21:46.304Z</time></trkpt><trkpt lat="44.5589386" lon="7.9514045"><ele>405.14285714285717</ele><time>2026-04-11T10:21:47.305Z</time></trkpt><trkpt lat="44.559009" lon="7.9513903"><ele>403.8571428571429</ele><time>2026-04-11T10:21:48.305Z</time></trkpt><trkpt lat="44.5590896" lon="7.9513822"><ele>402.57142857142856</ele><time>2026-04-11T10:21:49.305Z</time></trkpt><trkpt lat="44.5591746" lon="7.9513674"><ele>401.28571428571433</ele><time>2026-04-11T10:21:50.305Z</time></trkpt><trkpt lat="44.5592481" lon="7.9513501"><ele>400.0</ele><time>2026-04-11T10:21:51.304Z</time></trkpt><trkpt lat="44.5593138" lon="7.9513339"><ele>400.0</ele><time>2026-04-11T10:21:52.305Z</time></trkpt><trkpt lat="44.5594253" lon="7.9513144"><ele>400.0</ele><time>2026-04-11T10:21:54.304Z</time></trkpt><trkpt lat="44.559531" lon="7.9513121"><ele>400.0</ele><time>2026-04-11T10:21:56.305Z</time></trkpt><trkpt lat="44.5596301" lon="7.9513335"><ele>400.0</ele><time>2026-04-11T10:21:58.305Z</time></trkpt><trkpt lat="44.5597146" lon="7.9513781"><ele>400.0</ele><time>2026-04-11T10:22:00.304Z</time></trkpt><trkpt lat="44.5598114" lon="7.9514499"><ele>397.42857142857144</ele><time>2026-04-11T10:22:02.304Z</time></trkpt><trkpt lat="44.5598871" lon="7.9515004"><ele>394.8571428571429</ele><time>2026-04-11T10:22:04.305Z</time></trkpt><trkpt lat="44.5599419" lon="7.9515446"><ele>392.28571428571433</ele><time>2026-04-11T10:22:06.305Z</time></trkpt><trkpt lat="44.5600064" lon="7.951513"><ele>389.7142857142857</ele><time>2026-04-11T10:22:09.304Z</time></trkpt><trkpt lat="44.5600359" lon="7.9514078"><ele>387.1428571428571</ele><time>2026-04-11T10:22:11.305Z</time></trkpt><trkpt lat="44.5600209" lon="7.9512903"><ele>384.5714285714286</ele><time>2026-04-11T10:22:13.305Z</time></trkpt><trkpt lat="44.5600157" lon="7.9512"><ele>382.0</ele><time>2026-04-11T10:22:14.304Z</time></trkpt><trkpt lat="44.5600066" lon="7.9511106"><ele>382.0</ele><time>2026-04-11T10:22:15.305Z</time></trkpt><trkpt lat="44.5599904" lon="7.9510216"><ele>382.0</ele><time>2026-04-11T10:22:16.305Z</time></trkpt><trkpt lat="44.5599605" lon="7.9508686"><ele>382.0</ele><time>2026-04-11T10:22:18.305Z</time></trkpt><trkpt lat="44.5599466" lon="7.9507796"><ele>382.0</ele><time>2026-04-11T10:22:20.305Z</time></trkpt><trkpt lat="44.5599402" lon="7.9508739"><ele>382.0</ele><time>2026-04-11T10:22:51.306Z</time></trkpt><trkpt lat="44.5599183" lon="7.9509624"><ele>382.0</ele><time>2026-04-11T10:22:57.305Z</time></trkpt><trkpt lat="44.5599484" lon="7.951047"><ele>382.0</ele><time>2026-04-11T10:23:03.306Z</time></trkpt><trkpt lat="44.5599515" lon="7.9511459"><ele>382.0</ele><time>2026-04-11T10:23:09.306Z</time></trkpt><trkpt lat="44.5599589" lon="7.9512484"><ele>382.0</ele><time>2026-04-11T10:23:16.306Z</time></trkpt><trkpt lat="44.559995" lon="7.9513283"><ele>382.0</ele><time>2026-04-11T10:23:21.306Z</time></trkpt><trkpt lat="44.56003" lon="7.9514043"><ele>382.0</ele><time>2026-04-11T10:23:48.307Z</time></trkpt><trkpt lat="44.560106" lon="7.9514765"><ele>382.0</ele><time>2026-04-11T10:23:51.307Z</time></trkpt><trkpt lat="44.5601611" lon="7.9515565"><ele>382.0</ele><time>2026-04-11T10:23:53.307Z</time></trkpt><trkpt lat="44.5602242" lon="7.9516313"><ele>381.0</ele><time>2026-04-11T10:23:55.307Z</time></trkpt><trkpt lat="44.5602885" lon="7.9517114"><ele>380.0</ele><time>2026-04-11T10:23:57.306Z</time></trkpt><trkpt lat="44.5603602" lon="7.9518003"><ele>379.0</ele><time>2026-04-11T10:23:59.306Z</time></trkpt><trkpt lat="44.5604246" lon="7.9518825"><ele>378.0</ele><time>2026-04-11T10:24:01.306Z</time></trkpt><trkpt lat="44.5604936" lon="7.9519631"><ele>377.0</ele><time>2026-04-11T10:24:03.307Z</time></trkpt><trkpt lat="44.5605796" lon="7.9520415"><ele>377.0</ele><time>2026-04-11T10:24:05.307Z</time></trkpt><trkpt lat="44.5606584" lon="7.9521042"><ele>377.0</ele><time>2026-04-11T10:24:07.307Z</time></trkpt><trkpt lat="44.5607297" lon="7.9521821"><ele>377.0</ele><time>2026-04-11T10:24:09.307Z</time></trkpt><trkpt lat="44.5608013" lon="7.9522545"><ele>377.0</ele><time>2026-04-11T10:24:11.306Z</time></trkpt><trkpt lat="44.5608495" lon="7.952339"><ele>377.0</ele><time>2026-04-11T10:24:13.307Z</time></trkpt><trkpt lat="44.560905" lon="7.9524407"><ele>377.0</ele><time>2026-04-11T10:24:16.307Z</time></trkpt><trkpt lat="44.5609749" lon="7.9525208"><ele>375.6666666666667</ele><time>2026-04-11T10:24:19.307Z</time></trkpt><trkpt lat="44.5610451" lon="7.9526014"><ele>374.33333333333337</ele><time>2026-04-11T10:24:22.307Z</time></trkpt><trkpt lat="44.5610989" lon="7.9526508"><ele>373.0</ele><time>2026-04-11T10:24:25.307Z</time></trkpt><trkpt lat="44.5611559" lon="7.9527004"><ele>371.6666666666667</ele><time>2026-04-11T10:24:29.307Z</time></trkpt><trkpt lat="44.5612382" lon="7.9527536"><ele>370.3333333333333</ele><time>2026-04-11T10:24:32.306Z</time></trkpt><trkpt lat="44.5613528" lon="7.9527728"><ele>369.0</ele><time>2026-04-11T10:24:34.307Z</time></trkpt><trkpt lat="44.5614241" lon="7.9527634"><ele>369.0</ele><time>2026-04-11T10:24:35.307Z</time></trkpt><trkpt lat="44.5615014" lon="7.9527477"><ele>369.0</ele><time>2026-04-11T10:24:36.307Z</time></trkpt><trkpt lat="44.5615698" lon="7.9527406"><ele>369.0</ele><time>2026-04-11T10:24:37.307Z</time></trkpt><trkpt lat="44.5616328" lon="7.9527437"><ele>369.0</ele><time>2026-04-11T10:24:38.307Z</time></trkpt><trkpt lat="44.5617005" lon="7.9527536"><ele>369.0</ele><time>2026-04-11T10:24:39.306Z</time></trkpt><trkpt lat="44.5617746" lon="7.9527581"><ele>369.0</ele><time>2026-04-11T10:24:40.307Z</time></trkpt><trkpt lat="44.561849" lon="7.952763"><ele>369.0</ele><time>2026-04-11T10:24:41.306Z</time></trkpt><trkpt lat="44.5619196" lon="7.9527666"><ele>369.0</ele><time>2026-04-11T10:24:42.307Z</time></trkpt><trkpt lat="44.5619829" lon="7.9527709"><ele>369.0</ele><time>2026-04-11T10:24:43.307Z</time></trkpt><trkpt lat="44.5620918" lon="7.9527686"><ele>369.0</ele><time>2026-04-11T10:24:45.307Z</time></trkpt><trkpt lat="44.5621641" lon="7.9527554"><ele>369.0</ele><time>2026-04-11T10:24:53.307Z</time></trkpt><trkpt lat="44.5621625" lon="7.9528448"><ele>369.0</ele><time>2026-04-11T10:25:00.308Z</time></trkpt><trkpt lat="44.5621833" lon="7.9529424"><ele>369.0</ele><time>2026-04-11T10:25:34.308Z</time></trkpt><trkpt lat="44.5621686" lon="7.953042"><ele>369.0</ele><time>2026-04-11T10:25:39.308Z</time></trkpt><trkpt lat="44.5621397" lon="7.953148"><ele>369.0</ele><time>2026-04-11T10:25:43.307Z</time></trkpt><trkpt lat="44.5620777" lon="7.9532293"><ele>369.0</ele><time>2026-04-11T10:25:46.308Z</time></trkpt><trkpt lat="44.5619996" lon="7.9533023"><ele>369.0</ele><time>2026-04-11T10:25:49.307Z</time></trkpt><trkpt lat="44.5619184" lon="7.9533685"><ele>369.0</ele><time>2026-04-11T10:25:51.307Z</time></trkpt><trkpt lat="44.5618315" lon="7.9534553"><ele>367.2</ele><time>2026-04-11T10:25:53.308Z</time></trkpt><trkpt lat="44.5617465" lon="7.9535272"><ele>365.4</ele><time>2026-04-11T10:25:55.308Z</time></trkpt><trkpt lat="44.5616891" lon="7.9536062"><ele>363.6</ele><time>2026-04-11T10:25:57.308Z</time></trkpt><trkpt lat="44.5616406" lon="7.9537403"><ele>361.8</ele><time>2026-04-11T10:25:59.308Z</time></trkpt><trkpt lat="44.5616286" lon="7.9538566"><ele>360.0</ele><time>2026-04-11T10:26:01.308Z</time></trkpt><trkpt lat="44.5616335" lon="7.9539689"><ele>360.0</ele><time>2026-04-11T10:26:04.307Z</time></trkpt><trkpt lat="44.5616264" lon="7.9540848"><ele>360.0</ele><time>2026-04-11T10:26:07.309Z</time></trkpt><trkpt lat="44.5616291" lon="7.9542046"><ele>360.0</ele><time>2026-04-11T10:26:09.309Z</time></trkpt><trkpt lat="44.561621" lon="7.9543328"><ele>360.0</ele><time>2026-04-11T10:26:11.309Z</time></trkpt><trkpt lat="44.5616127" lon="7.9544746"><ele>360.0</ele><time>2026-04-11T10:26:13.308Z</time></trkpt><trkpt lat="44.561608" lon="7.9546261"><ele>359.6666666666667</ele><time>2026-04-11T10:26:15.309Z</time></trkpt><trkpt lat="44.5616007" lon="7.9547546"><ele>359.3333333333333</ele><time>2026-04-11T10:26:17.309Z</time></trkpt><trkpt lat="44.5615908" lon="7.9548606"><ele>359.0</ele><time>2026-04-11T10:26:19.309Z</time></trkpt><trkpt lat="44.5615898" lon="7.9549633"><ele>358.66666666666663</ele><time>2026-04-11T10:26:21.309Z</time></trkpt><trkpt lat="44.5616008" lon="7.9550633"><ele>358.3333333333333</ele><time>2026-04-11T10:26:23.308Z</time></trkpt><trkpt lat="44.5615977" lon="7.955159"><ele>358.0</ele><time>2026-04-11T10:26:25.309Z</time></trkpt><trkpt lat="44.5616044" lon="7.955266"><ele>357.28571428571433</ele><time>2026-04-11T10:26:27.308Z</time></trkpt><trkpt lat="44.5616035" lon="7.9553558"><ele>356.57142857142856</ele><time>2026-04-11T10:26:29.309Z</time></trkpt><trkpt lat="44.561599" lon="7.9554528"><ele>355.8571428571429</ele><time>2026-04-11T10:26:31.309Z</time></trkpt><trkpt lat="44.5615937" lon="7.9555543"><ele>355.14285714285717</ele><time>2026-04-11T10:26:33.309Z</time></trkpt><trkpt lat="44.5615928" lon="7.9556441"><ele>354.42857142857144</ele><time>2026-04-11T10:26:35.309Z</time></trkpt><trkpt lat="44.5615967" lon="7.9557415"><ele>353.7142857142857</ele><time>2026-04-11T10:26:37.309Z</time></trkpt><trkpt lat="44.5615868" lon="7.9558676"><ele>353.0</ele><time>2026-04-11T10:26:40.309Z</time></trkpt><trkpt lat="44.5615557" lon="7.9559562"><ele>353.0</ele><time>2026-04-11T10:26:43.309Z</time></trkpt><trkpt lat="44.561481" lon="7.9559321"><ele>353.0</ele><time>2026-04-11T10:26:47.309Z</time></trkpt><trkpt lat="44.5614255" lon="7.9558895"><ele>353.0</ele><time>2026-04-11T10:26:50.309Z</time></trkpt><trkpt lat="44.5613909" lon="7.9557932"><ele>353.0</ele><time>2026-04-11T10:26:54.309Z</time></trkpt><trkpt lat="44.5613488" lon="7.9556966"><ele>353.0</ele><time>2026-04-11T10:26:59.309Z</time></trkpt><trkpt lat="44.5612824" lon="7.9556648"><ele>353.0</ele><time>2026-04-11T10:28:34.339Z</time></trkpt><trkpt lat="44.5612068" lon="7.9556145"><ele>355.2857142857143</ele><time>2026-04-11T10:28:38.34Z</time></trkpt><trkpt lat="44.5611441" lon="7.9556582"><ele>357.5714285714286</ele><time>2026-04-11T10:28:43.358Z</time></trkpt><trkpt lat="44.5611008" lon="7.9557299"><ele>359.8571428571429</ele><time>2026-04-11T10:28:46.375Z</time></trkpt><trkpt lat="44.5610556" lon="7.9558204"><ele>362.1428571428571</ele><time>2026-04-11T10:28:50.33Z</time></trkpt><trkpt lat="44.5610288" lon="7.95591"><ele>364.42857142857144</ele><time>2026-04-11T10:28:54.263Z</time></trkpt><trkpt lat="44.5609918" lon="7.9559974"><ele>366.7142857142857</ele><time>2026-04-11T10:28:57.311Z</time></trkpt><trkpt lat="44.5609475" lon="7.9560704"><ele>369.0</ele><time>2026-04-11T10:29:01.312Z</time></trkpt><trkpt lat="44.5608999" lon="7.9561338"><ele>369.0</ele><time>2026-04-11T10:29:05.412Z</time></trkpt><trkpt lat="44.5608393" lon="7.9561978"><ele>369.0</ele><time>2026-04-11T10:29:09.363Z</time></trkpt><trkpt lat="44.5607857" lon="7.9562608"><ele>369.0</ele><time>2026-04-11T10:29:12.311Z</time></trkpt><trkpt lat="44.5607206" lon="7.9563057"><ele>369.0</ele><time>2026-04-11T10:29:16.311Z</time></trkpt><trkpt lat="44.560656" lon="7.9563581"><ele>369.0</ele><time>2026-04-11T10:29:20.311Z</time></trkpt><trkpt lat="44.5605907" lon="7.9563515"><ele>369.0</ele><time>2026-04-11T10:29:30.311Z</time></trkpt><trkpt lat="44.5605308" lon="7.956409"><ele>369.0</ele><time>2026-04-11T10:29:37.311Z</time></trkpt><trkpt lat="44.5604709" lon="7.956468"><ele>369.0</ele><time>2026-04-11T10:29:42.312Z</time></trkpt><trkpt lat="44.5604095" lon="7.9565046"><ele>369.0</ele><time>2026-04-11T10:29:49.312Z</time></trkpt><trkpt lat="44.5603449" lon="7.9565248"><ele>369.0</ele><time>2026-04-11T10:29:55.312Z</time></trkpt><trkpt lat="44.5602835" lon="7.9565798"><ele>369.0</ele><time>2026-04-11T10:30:00.311Z</time></trkpt><trkpt lat="44.5602271" lon="7.956635"><ele>369.0</ele><time>2026-04-11T10:30:13.312Z</time></trkpt><trkpt lat="44.5601779" lon="7.9567256"><ele>369.0</ele><time>2026-04-11T10:30:16.312Z</time></trkpt><trkpt lat="44.560127" lon="7.9567788"><ele>369.0</ele><time>2026-04-11T10:30:19.312Z</time></trkpt><trkpt lat="44.5600815" lon="7.9568724"><ele>372.2857142857143</ele><time>2026-04-11T10:30:22.312Z</time></trkpt><trkpt lat="44.5600375" lon="7.9569599"><ele>375.57142857142856</ele><time>2026-04-11T10:30:25.312Z</time></trkpt><trkpt lat="44.5599988" lon="7.9570345"><ele>378.8571428571429</ele><time>2026-04-11T10:30:28.311Z</time></trkpt><trkpt lat="44.5599645" lon="7.957112"><ele>382.1428571428571</ele><time>2026-04-11T10:30:31.312Z</time></trkpt><trkpt lat="44.5599256" lon="7.9572132"><ele>385.42857142857144</ele><time>2026-04-11T10:30:34.311Z</time></trkpt><trkpt lat="44.5598942" lon="7.9573015"><ele>388.7142857142857</ele><time>2026-04-11T10:30:37.312Z</time></trkpt><trkpt lat="44.5598796" lon="7.9573942"><ele>392.0</ele><time>2026-04-11T10:30:40.312Z</time></trkpt><trkpt lat="44.5598519" lon="7.9574861"><ele>393.42857142857144</ele><time>2026-04-11T10:30:43.312Z</time></trkpt><trkpt lat="44.5598367" lon="7.9575768"><ele>394.8571428571429</ele><time>2026-04-11T10:30:46.312Z</time></trkpt><trkpt lat="44.5598237" lon="7.957664"><ele>396.2857142857143</ele><time>2026-04-11T10:30:49.312Z</time></trkpt><trkpt lat="44.5598249" lon="7.9577763"><ele>397.7142857142857</ele><time>2026-04-11T10:30:53.312Z</time></trkpt><trkpt lat="44.5598371" lon="7.9578696"><ele>399.14285714285717</ele><time>2026-04-11T10:30:56.313Z</time></trkpt><trkpt lat="44.5598648" lon="7.957952"><ele>400.57142857142856</ele><time>2026-04-11T10:31:01.312Z</time></trkpt><trkpt lat="44.5599057" lon="7.9580359"><ele>402.0</ele><time>2026-04-11T10:31:12.313Z</time></trkpt><trkpt lat="44.5599426" lon="7.9581298"><ele>402.0</ele><time>2026-04-11T10:31:17.313Z</time></trkpt><trkpt lat="44.5599941" lon="7.9581875"><ele>402.0</ele><time>2026-04-11T10:31:23.312Z</time></trkpt><trkpt lat="44.5600576" lon="7.958221"><ele>402.0</ele><time>2026-04-11T10:31:29.313Z</time></trkpt><trkpt lat="44.5601056" lon="7.9582783"><ele>402.0</ele><time>2026-04-11T10:31:35.313Z</time></trkpt><trkpt lat="44.5601695" lon="7.9583462"><ele>402.0</ele><time>2026-04-11T10:31:43.312Z</time></trkpt><trkpt lat="44.5602292" lon="7.9583855"><ele>402.0</ele><time>2026-04-11T10:31:48.313Z</time></trkpt><trkpt lat="44.5602743" lon="7.9584506"><ele>402.0</ele><time>2026-04-11T10:31:56.313Z</time></trkpt><trkpt lat="44.5603491" lon="7.9584595"><ele>400.6666666666667</ele><time>2026-04-11T10:32:36.314Z</time></trkpt><trkpt lat="44.5602835" lon="7.958476"><ele>399.33333333333337</ele><time>2026-04-11T10:32:40.314Z</time></trkpt><trkpt lat="44.5603354" lon="7.958556"><ele>398.0</ele><time>2026-04-11T10:32:51.314Z</time></trkpt><trkpt lat="44.56038" lon="7.9586606"><ele>396.6666666666667</ele><time>2026-04-11T10:32:59.314Z</time></trkpt><trkpt lat="44.5604306" lon="7.9587474"><ele>395.33333333333337</ele><time>2026-04-11T10:33:02.315Z</time></trkpt><trkpt lat="44.5604612" lon="7.9588576"><ele>394.0</ele><time>2026-04-11T10:33:05.314Z</time></trkpt><trkpt lat="44.5604884" lon="7.9589681"><ele>394.00000000000006</ele><time>2026-04-11T10:33:08.313Z</time></trkpt><trkpt lat="44.5605199" lon="7.9590771"><ele>394.0</ele><time>2026-04-11T10:33:11.314Z</time></trkpt><trkpt lat="44.560538" lon="7.9591771"><ele>394.0</ele><time>2026-04-11T10:33:14.314Z</time></trkpt><trkpt lat="44.560555" lon="7.9592658"><ele>394.0</ele><time>2026-04-11T10:33:17.314Z</time></trkpt><trkpt lat="44.5605568" lon="7.959374"><ele>394.00000000000006</ele><time>2026-04-11T10:33:21.314Z</time></trkpt><trkpt lat="44.5605653" lon="7.9594823"><ele>394.0</ele><time>2026-04-11T10:33:24.315Z</time></trkpt><trkpt lat="44.5605648" lon="7.9595954"><ele>394.57142857142856</ele><time>2026-04-11T10:33:28.315Z</time></trkpt><trkpt lat="44.5605635" lon="7.9596897"><ele>395.14285714285717</ele><time>2026-04-11T10:33:32.315Z</time></trkpt><trkpt lat="44.5605733" lon="7.9597863"><ele>395.71428571428567</ele><time>2026-04-11T10:33:37.315Z</time></trkpt><trkpt lat="44.5605479" lon="7.9598703"><ele>396.2857142857143</ele><time>2026-04-11T10:33:41.315Z</time></trkpt><trkpt lat="44.5605223" lon="7.9599575"><ele>396.85714285714283</ele><time>2026-04-11T10:33:45.314Z</time></trkpt><trkpt lat="44.5604922" lon="7.9600376"><ele>397.4285714285714</ele><time>2026-04-11T10:33:49.314Z</time></trkpt><trkpt lat="44.5604588" lon="7.9601231"><ele>398.0</ele><time>2026-04-11T10:34:01.315Z</time></trkpt><trkpt lat="44.5604218" lon="7.9601999"><ele>397.99999999999994</ele><time>2026-04-11T10:34:07.315Z</time></trkpt><trkpt lat="44.560427" lon="7.9603002"><ele>398.0</ele><time>2026-04-11T10:34:13.315Z</time></trkpt><trkpt lat="44.5603983" lon="7.9603897"><ele>398.0</ele><time>2026-04-11T10:34:20.315Z</time></trkpt><trkpt lat="44.5603698" lon="7.9604705"><ele>398.0</ele><time>2026-04-11T10:34:26.315Z</time></trkpt><trkpt lat="44.5603323" lon="7.9605423"><ele>398.0</ele><time>2026-04-11T10:34:33.315Z</time></trkpt><trkpt lat="44.5603044" lon="7.9606216"><ele>397.99999999999994</ele><time>2026-04-11T10:34:38.316Z</time></trkpt><trkpt lat="44.5602685" lon="7.9606983"><ele>398.0</ele><time>2026-04-11T10:34:45.315Z</time></trkpt><trkpt lat="44.5602383" lon="7.960779"><ele>400.99999999999994</ele><time>2026-04-11T10:34:54.316Z</time></trkpt><trkpt lat="44.5601998" lon="7.9608502"><ele>404.0</ele><time>2026-04-11T10:34:59.315Z</time></trkpt><trkpt lat="44.5601646" lon="7.9609402"><ele>407.0</ele><time>2026-04-11T10:35:07.315Z</time></trkpt><trkpt lat="44.5601308" lon="7.9610166"><ele>410.0</ele><time>2026-04-11T10:35:13.316Z</time></trkpt><trkpt lat="44.560095" lon="7.9610965"><ele>413.0</ele><time>2026-04-11T10:35:21.316Z</time></trkpt><trkpt lat="44.5600994" lon="7.9611891"><ele>415.99999999999994</ele><time>2026-04-11T10:35:27.316Z</time></trkpt><trkpt lat="44.5601001" lon="7.9612785"><ele>419.0</ele><time>2026-04-11T10:35:34.316Z</time></trkpt><trkpt lat="44.560103" lon="7.9613718"><ele>418.99999999999994</ele><time>2026-04-11T10:35:39.317Z</time></trkpt><trkpt lat="44.560123" lon="7.9614594"><ele>419.0</ele><time>2026-04-11T10:35:46.316Z</time></trkpt><trkpt lat="44.5601392" lon="7.9615518"><ele>419.0</ele><time>2026-04-11T10:35:52.317Z</time></trkpt><trkpt lat="44.5601243" lon="7.9616495"><ele>419.0</ele><time>2026-04-11T10:36:00.317Z</time></trkpt><trkpt lat="44.5600883" lon="7.9617365"><ele>419.0</ele><time>2026-04-11T10:36:06.317Z</time></trkpt><trkpt lat="44.5600621" lon="7.9618213"><ele>418.99999999999994</ele><time>2026-04-11T10:36:16.316Z</time></trkpt><trkpt lat="44.5600722" lon="7.9619187"><ele>419.0</ele><time>2026-04-11T10:36:23.317Z</time></trkpt><trkpt lat="44.5600797" lon="7.9620115"><ele>419.71428571428567</ele><time>2026-04-11T10:36:31.317Z</time></trkpt><trkpt lat="44.5600556" lon="7.9620937"><ele>420.42857142857144</ele><time>2026-04-11T10:36:37.317Z</time></trkpt><trkpt lat="44.5600329" lon="7.9621855"><ele>421.1428571428571</ele><time>2026-04-11T10:36:46.317Z</time></trkpt><trkpt lat="44.560018" lon="7.9622754"><ele>421.85714285714283</ele><time>2026-04-11T10:37:01.317Z</time></trkpt><trkpt lat="44.5600332" lon="7.9623669"><ele>422.57142857142856</ele><time>2026-04-11T10:37:04.318Z</time></trkpt><trkpt lat="44.5600462" lon="7.9624753"><ele>423.2857142857143</ele><time>2026-04-11T10:37:08.318Z</time></trkpt><trkpt lat="44.5600606" lon="7.9625719"><ele>424.0</ele><time>2026-04-11T10:37:11.318Z</time></trkpt><trkpt lat="44.5600698" lon="7.9626715"><ele>425.42857142857144</ele><time>2026-04-11T10:37:16.317Z</time></trkpt><trkpt lat="44.5600936" lon="7.9627573"><ele>426.85714285714283</ele><time>2026-04-11T10:38:11.319Z</time></trkpt><trkpt lat="44.5601053" lon="7.9628465"><ele>428.2857142857143</ele><time>2026-04-11T10:38:14.319Z</time></trkpt><trkpt lat="44.5601174" lon="7.9629359"><ele>429.7142857142857</ele><time>2026-04-11T10:38:17.319Z</time></trkpt><trkpt lat="44.5601302" lon="7.9630228"><ele>431.1428571428571</ele><time>2026-04-11T10:38:20.319Z</time></trkpt><trkpt lat="44.5601672" lon="7.9631201"><ele>432.57142857142856</ele><time>2026-04-11T10:38:24.318Z</time></trkpt><trkpt lat="44.5601868" lon="7.96322"><ele>434.0</ele><time>2026-04-11T10:38:28.319Z</time></trkpt><trkpt lat="44.5602137" lon="7.9633177"><ele>434.0</ele><time>2026-04-11T10:38:32.319Z</time></trkpt><trkpt lat="44.5602395" lon="7.9634139"><ele>434.0</ele><time>2026-04-11T10:38:36.318Z</time></trkpt><trkpt lat="44.5602701" lon="7.963492"><ele>434.0</ele><time>2026-04-11T10:38:39.319Z</time></trkpt><trkpt lat="44.5603039" lon="7.9635727"><ele>434.0</ele><time>2026-04-11T10:38:42.319Z</time></trkpt><trkpt lat="44.5603553" lon="7.9636457"><ele>434.0</ele><time>2026-04-11T10:38:45.318Z</time></trkpt><trkpt lat="44.5604113" lon="7.9637161"><ele>434.0</ele><time>2026-04-11T10:38:48.319Z</time></trkpt><trkpt lat="44.5604645" lon="7.9637887"><ele>434.0</ele><time>2026-04-11T10:38:51.318Z</time></trkpt><trkpt lat="44.5605262" lon="7.9638466"><ele>434.0</ele><time>2026-04-11T10:38:54.319Z</time></trkpt><trkpt lat="44.5605917" lon="7.9639013"><ele>434.0</ele><time>2026-04-11T10:38:57.319Z</time></trkpt><trkpt lat="44.5606555" lon="7.9639545"><ele>434.0</ele><time>2026-04-11T10:39:00.319Z</time></trkpt><trkpt lat="44.5607173" lon="7.9640123"><ele>434.0</ele><time>2026-04-11T10:39:03.319Z</time></trkpt><trkpt lat="44.5607859" lon="7.9640476"><ele>434.0</ele><time>2026-04-11T10:39:06.319Z</time></trkpt><trkpt lat="44.5608425" lon="7.9641043"><ele>434.0</ele><time>2026-04-11T10:39:09.32Z</time></trkpt><trkpt lat="44.5609085" lon="7.9641508"><ele>434.0</ele><time>2026-04-11T10:39:12.319Z</time></trkpt><trkpt lat="44.5609812" lon="7.9641907"><ele>433.66666666666663</ele><time>2026-04-11T10:39:15.32Z</time></trkpt><trkpt lat="44.5610561" lon="7.9642381"><ele>433.3333333333333</ele><time>2026-04-11T10:39:18.32Z</time></trkpt><trkpt lat="44.5611318" lon="7.9642826"><ele>433.0</ele><time>2026-04-11T10:39:21.32Z</time></trkpt><trkpt lat="44.5612176" lon="7.9643244"><ele>432.66666666666663</ele><time>2026-04-11T10:39:24.319Z</time></trkpt><trkpt lat="44.5613057" lon="7.9643461"><ele>432.3333333333333</ele><time>2026-04-11T10:39:27.32Z</time></trkpt><trkpt lat="44.5613698" lon="7.9643462"><ele>432.0</ele><time>2026-04-11T10:39:29.319Z</time></trkpt><trkpt lat="44.5614412" lon="7.9643689"><ele>431.0</ele><time>2026-04-11T10:39:31.319Z</time></trkpt><trkpt lat="44.5615133" lon="7.964395"><ele>430.0</ele><time>2026-04-11T10:39:33.32Z</time></trkpt><trkpt lat="44.5615792" lon="7.9644076"><ele>429.0</ele><time>2026-04-11T10:39:35.32Z</time></trkpt><trkpt lat="44.5616465" lon="7.9643938"><ele>428.0</ele><time>2026-04-11T10:39:37.32Z</time></trkpt><trkpt lat="44.5617292" lon="7.9643833"><ele>427.0</ele><time>2026-04-11T10:39:39.319Z</time></trkpt><trkpt lat="44.5618092" lon="7.9643823"><ele>426.0</ele><time>2026-04-11T10:39:41.32Z</time></trkpt><trkpt lat="44.5618942" lon="7.9643612"><ele>426.0</ele><time>2026-04-11T10:39:43.32Z</time></trkpt><trkpt lat="44.561997" lon="7.9643326"><ele>426.0</ele><time>2026-04-11T10:39:45.32Z</time></trkpt><trkpt lat="44.5620923" lon="7.9643132"><ele>426.0</ele><time>2026-04-11T10:39:47.32Z</time></trkpt><trkpt lat="44.5621602" lon="7.9643038"><ele>426.0</ele><time>2026-04-11T10:39:49.32Z</time></trkpt><trkpt lat="44.5622533" lon="7.9642837"><ele>426.0</ele><time>2026-04-11T10:39:52.32Z</time></trkpt><trkpt lat="44.5623172" lon="7.9642703"><ele>426.0</ele><time>2026-04-11T10:39:54.32Z</time></trkpt><trkpt lat="44.5623982" lon="7.9642414"><ele>425.6</ele><time>2026-04-11T10:40:27.321Z</time></trkpt><trkpt lat="44.5624764" lon="7.9642138"><ele>425.20000000000005</ele><time>2026-04-11T10:40:29.321Z</time></trkpt><trkpt lat="44.562579" lon="7.9641938"><ele>424.79999999999995</ele><time>2026-04-11T10:40:31.32Z</time></trkpt><trkpt lat="44.5626897" lon="7.9641735"><ele>424.4</ele><time>2026-04-11T10:40:33.321Z</time></trkpt><trkpt lat="44.5628133" lon="7.9641378"><ele>424.0</ele><time>2026-04-11T10:40:35.321Z</time></trkpt><trkpt lat="44.562922" lon="7.964093"><ele>422.6</ele><time>2026-04-11T10:40:37.321Z</time></trkpt><trkpt lat="44.5630343" lon="7.9640297"><ele>421.2</ele><time>2026-04-11T10:40:39.321Z</time></trkpt><trkpt lat="44.5631511" lon="7.9639718"><ele>419.8</ele><time>2026-04-11T10:40:41.321Z</time></trkpt><trkpt lat="44.5632517" lon="7.9639001"><ele>418.40000000000003</ele><time>2026-04-11T10:40:43.321Z</time></trkpt><trkpt lat="44.5633232" lon="7.9638221"><ele>417.0</ele><time>2026-04-11T10:40:45.321Z</time></trkpt><trkpt lat="44.5633724" lon="7.963764"><ele>417.0</ele><time>2026-04-11T10:40:47.321Z</time></trkpt><trkpt lat="44.5634381" lon="7.9636853"><ele>417.0</ele><time>2026-04-11T10:40:50.321Z</time></trkpt><trkpt lat="44.5635047" lon="7.963692"><ele>417.0</ele><time>2026-04-11T10:40:54.321Z</time></trkpt><trkpt lat="44.5635756" lon="7.9637312"><ele>417.0</ele><time>2026-04-11T10:41:26.321Z</time></trkpt><trkpt lat="44.5636418" lon="7.963817"><ele>417.0</ele><time>2026-04-11T10:41:28.321Z</time></trkpt><trkpt lat="44.563745" lon="7.9639057"><ele>417.0</ele><time>2026-04-11T10:41:30.321Z</time></trkpt><trkpt lat="44.5638121" lon="7.9639486"><ele>416.3333333333333</ele><time>2026-04-11T10:41:31.321Z</time></trkpt><trkpt lat="44.5638808" lon="7.9639962"><ele>415.66666666666663</ele><time>2026-04-11T10:41:32.321Z</time></trkpt><trkpt lat="44.563946" lon="7.9640475"><ele>415.0</ele><time>2026-04-11T10:41:33.322Z</time></trkpt><trkpt lat="44.5640122" lon="7.9641084"><ele>414.3333333333333</ele><time>2026-04-11T10:41:34.321Z</time></trkpt><trkpt lat="44.5640726" lon="7.9641712"><ele>413.66666666666663</ele><time>2026-04-11T10:41:35.322Z</time></trkpt><trkpt lat="44.5641297" lon="7.9642461"><ele>413.0</ele><time>2026-04-11T10:41:36.322Z</time></trkpt><trkpt lat="44.5641719" lon="7.9643401"><ele>412.99999999999994</ele><time>2026-04-11T10:41:37.322Z</time></trkpt><trkpt lat="44.564202" lon="7.9644379"><ele>413.0</ele><time>2026-04-11T10:41:38.322Z</time></trkpt><trkpt lat="44.5642236" lon="7.9645282"><ele>413.0</ele><time>2026-04-11T10:41:39.321Z</time></trkpt><trkpt lat="44.5642375" lon="7.9646693"><ele>413.0</ele><time>2026-04-11T10:41:41.321Z</time></trkpt><trkpt lat="44.5642368" lon="7.9647638"><ele>412.99999999999994</ele><time>2026-04-11T10:41:43.322Z</time></trkpt><trkpt lat="44.5642674" lon="7.9648519"><ele>413.0</ele><time>2026-04-11T10:41:45.322Z</time></trkpt><trkpt lat="44.5643106" lon="7.9649508"><ele>413.66666666666663</ele><time>2026-04-11T10:41:47.322Z</time></trkpt><trkpt lat="44.5643584" lon="7.9650314"><ele>414.3333333333333</ele><time>2026-04-11T10:41:49.322Z</time></trkpt><trkpt lat="44.5644099" lon="7.9651182"><ele>415.0</ele><time>2026-04-11T10:41:51.322Z</time></trkpt><trkpt lat="44.5644569" lon="7.9651951"><ele>415.66666666666663</ele><time>2026-04-11T10:41:53.322Z</time></trkpt><trkpt lat="44.5645155" lon="7.9652886"><ele>416.3333333333333</ele><time>2026-04-11T10:41:56.321Z</time></trkpt><trkpt lat="44.5645627" lon="7.9653926"><ele>417.0</ele><time>2026-04-11T10:41:59.322Z</time></trkpt><trkpt lat="44.5646092" lon="7.9654602"><ele>416.14285714285717</ele><time>2026-04-11T10:42:01.322Z</time></trkpt><trkpt lat="44.5646627" lon="7.9655243"><ele>415.2857142857143</ele><time>2026-04-11T10:42:03.322Z</time></trkpt><trkpt lat="44.564714" lon="7.9655802"><ele>414.42857142857144</ele><time>2026-04-11T10:42:05.321Z</time></trkpt><trkpt lat="44.5647661" lon="7.965636"><ele>413.57142857142856</ele><time>2026-04-11T10:42:07.321Z</time></trkpt><trkpt lat="44.5648236" lon="7.9657062"><ele>412.71428571428567</ele><time>2026-04-11T10:42:09.322Z</time></trkpt><trkpt lat="44.5648959" lon="7.9657774"><ele>411.85714285714283</ele><time>2026-04-11T10:42:11.322Z</time></trkpt><trkpt lat="44.5649587" lon="7.965845"><ele>411.0</ele><time>2026-04-11T10:42:13.321Z</time></trkpt><trkpt lat="44.5650078" lon="7.9659323"><ele>411.0</ele><time>2026-04-11T10:42:15.321Z</time></trkpt><trkpt lat="44.5650392" lon="7.9660271"><ele>411.0</ele><time>2026-04-11T10:42:17.322Z</time></trkpt><trkpt lat="44.5650546" lon="7.9661418"><ele>411.0</ele><time>2026-04-11T10:42:19.322Z</time></trkpt><trkpt lat="44.5650407" lon="7.9662518"><ele>411.0</ele><time>2026-04-11T10:42:21.322Z</time></trkpt><trkpt lat="44.5650397" lon="7.9663647"><ele>411.0</ele><time>2026-04-11T10:42:23.322Z</time></trkpt><trkpt lat="44.5650368" lon="7.9664765"><ele>411.0</ele><time>2026-04-11T10:42:25.321Z</time></trkpt><trkpt lat="44.5650347" lon="7.9666042"><ele>411.6</ele><time>2026-04-11T10:42:27.322Z</time></trkpt><trkpt lat="44.5650345" lon="7.9667474"><ele>412.20000000000005</ele><time>2026-04-11T10:42:29.322Z</time></trkpt><trkpt lat="44.5650355" lon="7.9668881"><ele>412.79999999999995</ele><time>2026-04-11T10:42:31.321Z</time></trkpt><trkpt lat="44.5650349" lon="7.967014"><ele>413.4</ele><time>2026-04-11T10:42:33.321Z</time></trkpt><trkpt lat="44.5650325" lon="7.9671347"><ele>414.0</ele><time>2026-04-11T10:42:35.322Z</time></trkpt><trkpt lat="44.5650339" lon="7.9672526"><ele>414.0</ele><time>2026-04-11T10:42:37.323Z</time></trkpt><trkpt lat="44.5650453" lon="7.9673815"><ele>414.0</ele><time>2026-04-11T10:42:39.322Z</time></trkpt><trkpt lat="44.5650631" lon="7.967512"><ele>414.0</ele><time>2026-04-11T10:42:41.322Z</time></trkpt><trkpt lat="44.5650795" lon="7.9676375"><ele>414.0</ele><time>2026-04-11T10:42:43.323Z</time></trkpt><trkpt lat="44.5651176" lon="7.9677331"><ele>414.0</ele><time>2026-04-11T10:42:45.322Z</time></trkpt><trkpt lat="44.5651727" lon="7.967836"><ele>414.0</ele><time>2026-04-11T10:42:47.322Z</time></trkpt><trkpt lat="44.5652311" lon="7.9679428"><ele>413.2</ele><time>2026-04-11T10:42:49.323Z</time></trkpt><trkpt lat="44.5653084" lon="7.9680298"><ele>412.4</ele><time>2026-04-11T10:42:51.323Z</time></trkpt><trkpt lat="44.5653934" lon="7.9681073"><ele>411.6</ele><time>2026-04-11T10:42:53.322Z</time></trkpt><trkpt lat="44.5654846" lon="7.9681638"><ele>410.8</ele><time>2026-04-11T10:42:55.323Z</time></trkpt><trkpt lat="44.56557" lon="7.9682283"><ele>410.0</ele><time>2026-04-11T10:42:57.323Z</time></trkpt><trkpt lat="44.565655" lon="7.9682923"><ele>410.0</ele><time>2026-04-11T10:42:59.323Z</time></trkpt><trkpt lat="44.5657493" lon="7.9683454"><ele>410.0</ele><time>2026-04-11T10:43:01.323Z</time></trkpt><trkpt lat="44.5658474" lon="7.968395"><ele>410.0</ele><time>2026-04-11T10:43:03.323Z</time></trkpt><trkpt lat="44.565938" lon="7.9684462"><ele>410.0</ele><time>2026-04-11T10:43:05.322Z</time></trkpt><trkpt lat="44.5660318" lon="7.9684843"><ele>410.0</ele><time>2026-04-11T10:43:07.323Z</time></trkpt><trkpt lat="44.5661229" lon="7.9685301"><ele>412.2</ele><time>2026-04-11T10:43:09.322Z</time></trkpt><trkpt lat="44.5662184" lon="7.9685628"><ele>414.4</ele><time>2026-04-11T10:43:11.322Z</time></trkpt><trkpt lat="44.5663102" lon="7.9685798"><ele>416.6</ele><time>2026-04-11T10:43:13.323Z</time></trkpt><trkpt lat="44.5664053" lon="7.9685813"><ele>418.8</ele><time>2026-04-11T10:43:15.322Z</time></trkpt><trkpt lat="44.5664947" lon="7.9685732"><ele>421.0</ele><time>2026-04-11T10:43:17.323Z</time></trkpt><trkpt lat="44.5665921" lon="7.9685546"><ele>421.0</ele><time>2026-04-11T10:43:19.323Z</time></trkpt><trkpt lat="44.566689" lon="7.9685253"><ele>421.0</ele><time>2026-04-11T10:43:21.323Z</time></trkpt><trkpt lat="44.5667842" lon="7.9684925"><ele>421.0</ele><time>2026-04-11T10:43:23.323Z</time></trkpt><trkpt lat="44.5668867" lon="7.9684469"><ele>421.0</ele><time>2026-04-11T10:43:25.323Z</time></trkpt><trkpt lat="44.5669962" lon="7.9684046"><ele>421.0</ele><time>2026-04-11T10:43:27.322Z</time></trkpt><trkpt lat="44.5671108" lon="7.9683493"><ele>418.75</ele><time>2026-04-11T10:43:29.323Z</time></trkpt><trkpt lat="44.5672184" lon="7.968286"><ele>416.5</ele><time>2026-04-11T10:43:31.323Z</time></trkpt><trkpt lat="44.5673236" lon="7.9682161"><ele>414.25</ele><time>2026-04-11T10:43:33.323Z</time></trkpt><trkpt lat="44.5674302" lon="7.9681593"><ele>412.0</ele><time>2026-04-11T10:43:35.322Z</time></trkpt><trkpt lat="44.5675214" lon="7.9680904"><ele>412.0</ele><time>2026-04-11T10:43:37.323Z</time></trkpt><trkpt lat="44.5676092" lon="7.9680187"><ele>412.0</ele><time>2026-04-11T10:43:39.322Z</time></trkpt><trkpt lat="44.5677065" lon="7.9679559"><ele>412.0</ele><time>2026-04-11T10:43:41.322Z</time></trkpt><trkpt lat="44.5678144" lon="7.9678947"><ele>412.0</ele><time>2026-04-11T10:43:43.323Z</time></trkpt><trkpt lat="44.567931" lon="7.9678513"><ele>412.0</ele><time>2026-04-11T10:43:45.323Z</time></trkpt><trkpt lat="44.568038" lon="7.9678279"><ele>413.0</ele><time>2026-04-11T10:43:47.324Z</time></trkpt><trkpt lat="44.5681366" lon="7.9678207"><ele>414.0</ele><time>2026-04-11T10:43:49.324Z</time></trkpt><trkpt lat="44.568243" lon="7.9678236"><ele>415.0</ele><time>2026-04-11T10:43:51.324Z</time></trkpt><trkpt lat="44.5683429" lon="7.9678401"><ele>416.0</ele><time>2026-04-11T10:43:53.323Z</time></trkpt><trkpt lat="44.5684486" lon="7.967869"><ele>417.0</ele><time>2026-04-11T10:43:55.324Z</time></trkpt><trkpt lat="44.568554" lon="7.9678979"><ele>417.0</ele><time>2026-04-11T10:43:57.324Z</time></trkpt><trkpt lat="44.5686656" lon="7.9679191"><ele>417.0</ele><time>2026-04-11T10:43:59.324Z</time></trkpt><trkpt lat="44.5687776" lon="7.9679641"><ele>417.0</ele><time>2026-04-11T10:44:01.324Z</time></trkpt><trkpt lat="44.5688892" lon="7.9680077"><ele>417.0</ele><time>2026-04-11T10:44:03.323Z</time></trkpt><trkpt lat="44.568988" lon="7.9680367"><ele>417.0</ele><time>2026-04-11T10:44:05.324Z</time></trkpt><trkpt lat="44.569071" lon="7.9680621"><ele>415.6666666666667</ele><time>2026-04-11T10:44:07.323Z</time></trkpt><trkpt lat="44.5691544" lon="7.9681025"><ele>414.33333333333337</ele><time>2026-04-11T10:44:09.324Z</time></trkpt><trkpt lat="44.5692348" lon="7.9681365"><ele>413.0</ele><time>2026-04-11T10:44:11.324Z</time></trkpt><trkpt lat="44.5693106" lon="7.9681657"><ele>411.6666666666667</ele><time>2026-04-11T10:44:13.324Z</time></trkpt><trkpt lat="44.569396" lon="7.9682015"><ele>410.33333333333337</ele><time>2026-04-11T10:44:15.323Z</time></trkpt><trkpt lat="44.5694786" lon="7.968234"><ele>409.0</ele><time>2026-04-11T10:44:17.324Z</time></trkpt><trkpt lat="44.5695507" lon="7.9682489"><ele>409.00000000000006</ele><time>2026-04-11T10:44:19.323Z</time></trkpt><trkpt lat="44.5696255" lon="7.9682627"><ele>409.0</ele><time>2026-04-11T10:44:21.324Z</time></trkpt><trkpt lat="44.5696956" lon="7.9682806"><ele>409.0</ele><time>2026-04-11T10:44:23.324Z</time></trkpt><trkpt lat="44.5697616" lon="7.9682969"><ele>409.0</ele><time>2026-04-11T10:44:25.324Z</time></trkpt><trkpt lat="44.569848" lon="7.968312"><ele>409.00000000000006</ele><time>2026-04-11T10:44:28.324Z</time></trkpt><trkpt lat="44.5699257" lon="7.9683248"><ele>409.0</ele><time>2026-04-11T10:44:31.323Z</time></trkpt><trkpt lat="44.5700053" lon="7.9683086"><ele>409.00000000000006</ele><time>2026-04-11T10:44:34.324Z</time></trkpt><trkpt lat="44.5700797" lon="7.9682894"><ele>409.0</ele><time>2026-04-11T10:44:37.324Z</time></trkpt><trkpt lat="44.5701639" lon="7.968252"><ele>409.0</ele><time>2026-04-11T10:44:40.324Z</time></trkpt><trkpt lat="44.5702509" lon="7.9682403"><ele>409.0</ele><time>2026-04-11T10:44:43.324Z</time></trkpt><trkpt lat="44.5703315" lon="7.9682512"><ele>409.00000000000006</ele><time>2026-04-11T10:44:46.324Z</time></trkpt><trkpt lat="44.5704176" lon="7.9682596"><ele>409.0</ele><time>2026-04-11T10:44:49.324Z</time></trkpt><trkpt lat="44.5705032" lon="7.9682739"><ele>410.50000000000006</ele><time>2026-04-11T10:44:52.324Z</time></trkpt><trkpt lat="44.5705891" lon="7.9682849"><ele>412.0</ele><time>2026-04-11T10:44:55.323Z</time></trkpt><trkpt lat="44.5706597" lon="7.9683043"><ele>413.5</ele><time>2026-04-11T10:44:58.324Z</time></trkpt><trkpt lat="44.5707412" lon="7.9683175"><ele>415.0</ele><time>2026-04-11T10:45:02.325Z</time></trkpt><trkpt lat="44.5708109" lon="7.9682959"><ele>416.50000000000006</ele><time>2026-04-11T10:45:05.325Z</time></trkpt><trkpt lat="44.5708863" lon="7.9682955"><ele>418.0</ele><time>2026-04-11T10:45:08.325Z</time></trkpt><trkpt lat="44.5709691" lon="7.9682854"><ele>418.00000000000006</ele><time>2026-04-11T10:45:11.325Z</time></trkpt><trkpt lat="44.5710522" lon="7.9682611"><ele>418.0</ele><time>2026-04-11T10:45:14.324Z</time></trkpt><trkpt lat="44.5711277" lon="7.9682135"><ele>418.0</ele><time>2026-04-11T10:45:17.324Z</time></trkpt><trkpt lat="44.5712146" lon="7.968163"><ele>418.0</ele><time>2026-04-11T10:45:20.325Z</time></trkpt><trkpt lat="44.5712745" lon="7.9681122"><ele>418.00000000000006</ele><time>2026-04-11T10:45:22.325Z</time></trkpt><trkpt lat="44.5713435" lon="7.9680621"><ele>418.0</ele><time>2026-04-11T10:45:24.325Z</time></trkpt><trkpt lat="44.5714195" lon="7.9680378"><ele>418.00000000000006</ele><time>2026-04-11T10:45:26.325Z</time></trkpt><trkpt lat="44.5714985" lon="7.9680399"><ele>418.0</ele><time>2026-04-11T10:45:28.325Z</time></trkpt><trkpt lat="44.5715825" lon="7.9680793"><ele>418.0</ele><time>2026-04-11T10:45:30.324Z</time></trkpt><trkpt lat="44.5716611" lon="7.9681266"><ele>418.0</ele><time>2026-04-11T10:45:32.325Z</time></trkpt><trkpt lat="44.5717319" lon="7.9681753"><ele>418.00000000000006</ele><time>2026-04-11T10:45:34.325Z</time></trkpt><trkpt lat="44.5718004" lon="7.9682233"><ele>418.0</ele><time>2026-04-11T10:45:36.325Z</time></trkpt><trkpt lat="44.571873" lon="7.9682675"><ele>418.00000000000006</ele><time>2026-04-11T10:45:38.325Z</time></trkpt><trkpt lat="44.5719628" lon="7.968314"><ele>418.0</ele><time>2026-04-11T10:45:41.325Z</time></trkpt><trkpt lat="44.5720266" lon="7.9683448"><ele>418.0</ele><time>2026-04-11T10:45:43.325Z</time></trkpt><trkpt lat="44.5720884" lon="7.9683782"><ele>418.0</ele><time>2026-04-11T10:45:45.325Z</time></trkpt><trkpt lat="44.5721553" lon="7.9684159"><ele>418.00000000000006</ele><time>2026-04-11T10:45:47.325Z</time></trkpt><trkpt lat="44.5722261" lon="7.9684653"><ele>418.0</ele><time>2026-04-11T10:45:49.325Z</time></trkpt><trkpt lat="44.5722969" lon="7.9685063"><ele>417.57142857142856</ele><time>2026-04-11T10:45:51.325Z</time></trkpt><trkpt lat="44.5723675" lon="7.9685366"><ele>417.1428571428571</ele><time>2026-04-11T10:45:53.326Z</time></trkpt><trkpt lat="44.5724327" lon="7.968579"><ele>416.7142857142857</ele><time>2026-04-11T10:45:55.325Z</time></trkpt><trkpt lat="44.5725012" lon="7.9686216"><ele>416.2857142857143</ele><time>2026-04-11T10:45:57.324Z</time></trkpt><trkpt lat="44.5725704" lon="7.9686587"><ele>415.8571428571429</ele><time>2026-04-11T10:45:59.325Z</time></trkpt><trkpt lat="44.5726403" lon="7.9686952"><ele>415.42857142857144</ele><time>2026-04-11T10:46:01.325Z</time></trkpt><trkpt lat="44.5727073" lon="7.9687372"><ele>415.0</ele><time>2026-04-11T10:46:03.324Z</time></trkpt><trkpt lat="44.5727784" lon="7.9687854"><ele>415.0</ele><time>2026-04-11T10:46:05.324Z</time></trkpt><trkpt lat="44.5728412" lon="7.9688311"><ele>415.0</ele><time>2026-04-11T10:46:07.326Z</time></trkpt><trkpt lat="44.5729008" lon="7.9688795"><ele>415.0</ele><time>2026-04-11T10:46:09.325Z</time></trkpt><trkpt lat="44.5729546" lon="7.9689487"><ele>415.0</ele><time>2026-04-11T10:46:11.326Z</time></trkpt><trkpt lat="44.5730071" lon="7.9690171"><ele>415.0</ele><time>2026-04-11T10:46:13.325Z</time></trkpt><trkpt lat="44.5730477" lon="7.9690931"><ele>415.0</ele><time>2026-04-11T10:46:15.326Z</time></trkpt><trkpt lat="44.5730819" lon="7.9691686"><ele>415.0</ele><time>2026-04-11T10:46:17.325Z</time></trkpt><trkpt lat="44.5731166" lon="7.9692434"><ele>414.1666666666667</ele><time>2026-04-11T10:46:19.326Z</time></trkpt><trkpt lat="44.5731795" lon="7.9693379"><ele>413.33333333333337</ele><time>2026-04-11T10:46:22.325Z</time></trkpt><trkpt lat="44.5732411" lon="7.969434"><ele>412.5</ele><time>2026-04-11T10:46:25.326Z</time></trkpt><trkpt lat="44.5733003" lon="7.9695271"><ele>411.66666666666663</ele><time>2026-04-11T10:46:28.326Z</time></trkpt><trkpt lat="44.5733612" lon="7.9696147"><ele>410.8333333333333</ele><time>2026-04-11T10:46:31.326Z</time></trkpt><trkpt lat="44.5734273" lon="7.9696838"><ele>410.0</ele><time>2026-04-11T10:46:34.326Z</time></trkpt><trkpt lat="44.5735037" lon="7.9697307"><ele>409.99999999999994</ele><time>2026-04-11T10:46:37.326Z</time></trkpt><trkpt lat="44.5735753" lon="7.9697852"><ele>410.0</ele><time>2026-04-11T10:46:40.326Z</time></trkpt><trkpt lat="44.5736579" lon="7.969807"><ele>410.0</ele><time>2026-04-11T10:46:43.326Z</time></trkpt><trkpt lat="44.5737373" lon="7.9698224"><ele>410.0</ele><time>2026-04-11T10:46:46.325Z</time></trkpt><trkpt lat="44.573815" lon="7.9698531"><ele>409.99999999999994</ele><time>2026-04-11T10:46:49.326Z</time></trkpt><trkpt lat="44.5738973" lon="7.9698971"><ele>410.0</ele><time>2026-04-11T10:46:52.326Z</time></trkpt><trkpt lat="44.5739812" lon="7.9699329"><ele>409.49999999999994</ele><time>2026-04-11T10:46:55.326Z</time></trkpt><trkpt lat="44.57406" lon="7.9699456"><ele>409.0</ele><time>2026-04-11T10:46:58.326Z</time></trkpt><trkpt lat="44.5741307" lon="7.9699726"><ele>408.5</ele><time>2026-04-11T10:47:01.326Z</time></trkpt><trkpt lat="44.5742105" lon="7.9699963"><ele>408.0</ele><time>2026-04-11T10:47:04.325Z</time></trkpt><trkpt lat="44.5742832" lon="7.9700141"><ele>407.49999999999994</ele><time>2026-04-11T10:47:07.326Z</time></trkpt><trkpt lat="44.5743637" lon="7.9700285"><ele>407.0</ele><time>2026-04-11T10:47:10.326Z</time></trkpt><trkpt lat="44.5744424" lon="7.9700323"><ele>408.49999999999994</ele><time>2026-04-11T10:47:13.325Z</time></trkpt><trkpt lat="44.5745261" lon="7.9700622"><ele>410.0</ele><time>2026-04-11T10:47:16.327Z</time></trkpt><trkpt lat="44.5746099" lon="7.9700793"><ele>411.5</ele><time>2026-04-11T10:47:19.326Z</time></trkpt><trkpt lat="44.5746878" lon="7.9701056"><ele>413.0</ele><time>2026-04-11T10:47:22.326Z</time></trkpt><trkpt lat="44.5747643" lon="7.9701307"><ele>414.49999999999994</ele><time>2026-04-11T10:47:25.326Z</time></trkpt><trkpt lat="44.5748375" lon="7.9701686"><ele>416.0</ele><time>2026-04-11T10:47:28.327Z</time></trkpt><trkpt lat="44.5749104" lon="7.9701976"><ele>415.99999999999994</ele><time>2026-04-11T10:47:31.326Z</time></trkpt><trkpt lat="44.574984" lon="7.9702303"><ele>416.0</ele><time>2026-04-11T10:47:34.327Z</time></trkpt><trkpt lat="44.5750649" lon="7.9702722"><ele>416.0</ele><time>2026-04-11T10:47:37.327Z</time></trkpt><trkpt lat="44.5751389" lon="7.9703107"><ele>416.0</ele><time>2026-04-11T10:47:40.327Z</time></trkpt><trkpt lat="44.5752177" lon="7.9703447"><ele>415.99999999999994</ele><time>2026-04-11T10:47:43.326Z</time></trkpt><trkpt lat="44.5752965" lon="7.9703775"><ele>416.0</ele><time>2026-04-11T10:47:46.327Z</time></trkpt><trkpt lat="44.5753749" lon="7.970401"><ele>417.3333333333333</ele><time>2026-04-11T10:47:49.327Z</time></trkpt><trkpt lat="44.5754571" lon="7.9704338"><ele>418.66666666666663</ele><time>2026-04-11T10:47:52.327Z</time></trkpt><trkpt lat="44.5755398" lon="7.9704619"><ele>420.0</ele><time>2026-04-11T10:47:55.326Z</time></trkpt><trkpt lat="44.5756237" lon="7.9704902"><ele>421.33333333333337</ele><time>2026-04-11T10:47:58.327Z</time></trkpt><trkpt lat="44.5757088" lon="7.9705168"><ele>422.6666666666667</ele><time>2026-04-11T10:48:01.327Z</time></trkpt><trkpt lat="44.5757855" lon="7.9705445"><ele>424.0</ele><time>2026-04-11T10:48:04.326Z</time></trkpt><trkpt lat="44.5758527" lon="7.9705606"><ele>424.00000000000006</ele><time>2026-04-11T10:48:07.327Z</time></trkpt><trkpt lat="44.5759327" lon="7.9705727"><ele>424.0</ele><time>2026-04-11T10:48:10.327Z</time></trkpt><trkpt lat="44.5760067" lon="7.9705662"><ele>424.0</ele><time>2026-04-11T10:48:13.327Z</time></trkpt><trkpt lat="44.5760846" lon="7.9705426"><ele>424.0</ele><time>2026-04-11T10:48:16.327Z</time></trkpt><trkpt lat="44.5761651" lon="7.9705049"><ele>424.00000000000006</ele><time>2026-04-11T10:48:19.326Z</time></trkpt><trkpt lat="44.5762445" lon="7.9704476"><ele>424.0</ele><time>2026-04-11T10:48:22.327Z</time></trkpt><trkpt lat="44.5763207" lon="7.9703873"><ele>424.1666666666667</ele><time>2026-04-11T10:48:25.328Z</time></trkpt><trkpt lat="44.5763981" lon="7.9703261"><ele>424.33333333333337</ele><time>2026-04-11T10:48:28.328Z</time></trkpt><trkpt lat="44.5764854" lon="7.9702749"><ele>424.5</ele><time>2026-04-11T10:48:31.328Z</time></trkpt><trkpt lat="44.5765449" lon="7.970246"><ele>424.66666666666663</ele><time>2026-04-11T10:48:33.328Z</time></trkpt><trkpt lat="44.5766183" lon="7.9702144"><ele>424.8333333333333</ele><time>2026-04-11T10:48:36.331Z</time></trkpt><trkpt lat="44.5766933" lon="7.9702056"><ele>425.0</ele><time>2026-04-11T10:48:39.328Z</time></trkpt><trkpt lat="44.5767626" lon="7.9701867"><ele>425.0</ele><time>2026-04-11T10:48:42.327Z</time></trkpt><trkpt lat="44.5768434" lon="7.9701676"><ele>425.0</ele><time>2026-04-11T10:48:45.328Z</time></trkpt><trkpt lat="44.5769196" lon="7.9701666"><ele>425.0</ele><time>2026-04-11T10:48:48.328Z</time></trkpt><trkpt lat="44.576987" lon="7.9701421"><ele>425.0</ele><time>2026-04-11T10:48:51.327Z</time></trkpt><trkpt lat="44.5770653" lon="7.9701369"><ele>425.0</ele><time>2026-04-11T10:48:54.328Z</time></trkpt><trkpt lat="44.5771284" lon="7.970135"><ele>425.0</ele><time>2026-04-11T10:48:57.328Z</time></trkpt><trkpt lat="44.5771963" lon="7.9701284"><ele>425.0</ele><time>2026-04-11T10:49:00.328Z</time></trkpt><trkpt lat="44.5772643" lon="7.9701409"><ele>425.85714285714283</ele><time>2026-04-11T10:49:03.327Z</time></trkpt><trkpt lat="44.5773299" lon="7.9701592"><ele>426.71428571428567</ele><time>2026-04-11T10:49:06.328Z</time></trkpt><trkpt lat="44.5774011" lon="7.9701846"><ele>427.57142857142856</ele><time>2026-04-11T10:49:09.327Z</time></trkpt><trkpt lat="44.5774658" lon="7.9702244"><ele>428.42857142857144</ele><time>2026-04-11T10:49:12.328Z</time></trkpt><trkpt lat="44.5775314" lon="7.9702613"><ele>429.2857142857143</ele><time>2026-04-11T10:49:15.328Z</time></trkpt><trkpt lat="44.5775922" lon="7.9703053"><ele>430.14285714285717</ele><time>2026-04-11T10:49:18.328Z</time></trkpt><trkpt lat="44.5776507" lon="7.9703472"><ele>431.0</ele><time>2026-04-11T10:49:21.328Z</time></trkpt><trkpt lat="44.577711" lon="7.9703844"><ele>431.0</ele><time>2026-04-11T10:49:24.328Z</time></trkpt><trkpt lat="44.5777885" lon="7.9704172"><ele>431.0</ele><time>2026-04-11T10:49:28.328Z</time></trkpt><trkpt lat="44.5778536" lon="7.9704314"><ele>431.0</ele><time>2026-04-11T10:49:31.329Z</time></trkpt><trkpt lat="44.5779225" lon="7.9704432"><ele>431.0</ele><time>2026-04-11T10:49:35.329Z</time></trkpt><trkpt lat="44.5779859" lon="7.9704139"><ele>431.0</ele><time>2026-04-11T10:49:38.329Z</time></trkpt><trkpt lat="44.5780398" lon="7.9703649"><ele>431.0</ele><time>2026-04-11T10:50:35.329Z</time></trkpt><trkpt lat="44.5780981" lon="7.9702898"><ele>431.0</ele><time>2026-04-11T10:50:38.33Z</time></trkpt><trkpt lat="44.5781428" lon="7.9702031"><ele>430.66666666666663</ele><time>2026-04-11T10:50:41.33Z</time></trkpt><trkpt lat="44.5781802" lon="7.9701162"><ele>430.3333333333333</ele><time>2026-04-11T10:50:44.33Z</time></trkpt><trkpt lat="44.5782138" lon="7.9700032"><ele>430.0</ele><time>2026-04-11T10:50:47.33Z</time></trkpt><trkpt lat="44.5782659" lon="7.9699008"><ele>429.66666666666663</ele><time>2026-04-11T10:50:50.33Z</time></trkpt><trkpt lat="44.5783048" lon="7.9698195"><ele>429.3333333333333</ele><time>2026-04-11T10:50:52.33Z</time></trkpt><trkpt lat="44.5783447" lon="7.9697348"><ele>429.0</ele><time>2026-04-11T10:50:54.329Z</time></trkpt><trkpt lat="44.5783867" lon="7.969657"><ele>431.5</ele><time>2026-04-11T10:50:56.329Z</time></trkpt><trkpt lat="44.5784344" lon="7.9695608"><ele>434.0</ele><time>2026-04-11T10:50:59.33Z</time></trkpt><trkpt lat="44.5784848" lon="7.9694634"><ele>436.5</ele><time>2026-04-11T10:51:02.33Z</time></trkpt><trkpt lat="44.578522" lon="7.9693748"><ele>439.0</ele><time>2026-04-11T10:51:28.33Z</time></trkpt><trkpt lat="44.5785661" lon="7.9693044"><ele>441.5</ele><time>2026-04-11T10:51:30.33Z</time></trkpt><trkpt lat="44.578615" lon="7.9692075"><ele>444.0</ele><time>2026-04-11T10:51:33.33Z</time></trkpt><trkpt lat="44.5786598" lon="7.9691002"><ele>444.79999999999995</ele><time>2026-04-11T10:51:36.33Z</time></trkpt><trkpt lat="44.5787237" lon="7.9690102"><ele>445.59999999999997</ele><time>2026-04-11T10:51:39.329Z</time></trkpt><trkpt lat="44.5787922" lon="7.968919"><ele>446.4</ele><time>2026-04-11T10:51:42.33Z</time></trkpt><trkpt lat="44.5788659" lon="7.9688478"><ele>447.2</ele><time>2026-04-11T10:51:45.33Z</time></trkpt><trkpt lat="44.5789411" lon="7.9687939"><ele>448.0</ele><time>2026-04-11T10:51:48.33Z</time></trkpt><trkpt lat="44.5790232" lon="7.9687393"><ele>448.00000000000006</ele><time>2026-04-11T10:51:51.329Z</time></trkpt><trkpt lat="44.5791085" lon="7.9687192"><ele>448.0</ele><time>2026-04-11T10:51:54.331Z</time></trkpt><trkpt lat="44.5791881" lon="7.9686989"><ele>448.0</ele><time>2026-04-11T10:51:57.33Z</time></trkpt><trkpt lat="44.5792716" lon="7.9687078"><ele>448.0</ele><time>2026-04-11T10:52:00.331Z</time></trkpt><trkpt lat="44.5793574" lon="7.9687276"><ele>448.00000000000006</ele><time>2026-04-11T10:52:03.331Z</time></trkpt><trkpt lat="44.5794203" lon="7.9687373"><ele>448.0</ele><time>2026-04-11T10:52:05.331Z</time></trkpt><trkpt lat="44.5795075" lon="7.9687531"><ele>449.0</ele><time>2026-04-11T10:52:08.332Z</time></trkpt><trkpt lat="44.5795751" lon="7.9687703"><ele>450.0</ele><time>2026-04-11T10:52:11.33Z</time></trkpt><trkpt lat="44.5796494" lon="7.9687826"><ele>451.0</ele><time>2026-04-11T10:52:14.331Z</time></trkpt><trkpt lat="44.5797332" lon="7.9687851"><ele>452.0</ele><time>2026-04-11T10:52:17.331Z</time></trkpt><trkpt lat="44.5798097" lon="7.9688124"><ele>453.0</ele><time>2026-04-11T10:52:20.331Z</time></trkpt><trkpt lat="44.5798747" lon="7.9688243"><ele>454.0</ele><time>2026-04-11T10:52:23.331Z</time></trkpt><trkpt lat="44.5799501" lon="7.9688264"><ele>455.0</ele><time>2026-04-11T10:52:26.331Z</time></trkpt><trkpt lat="44.5800335" lon="7.9688413"><ele>455.0</ele><time>2026-04-11T10:52:30.331Z</time></trkpt><trkpt lat="44.5801002" lon="7.9688851"><ele>455.0</ele><time>2026-04-11T10:52:33.33Z</time></trkpt><trkpt lat="44.5801777" lon="7.9689178"><ele>455.0</ele><time>2026-04-11T10:52:36.331Z</time></trkpt><trkpt lat="44.5802435" lon="7.9689361"><ele>455.0</ele><time>2026-04-11T10:52:39.331Z</time></trkpt><trkpt lat="44.5803194" lon="7.9689512"><ele>455.0</ele><time>2026-04-11T10:52:43.33Z</time></trkpt><trkpt lat="44.5803872" lon="7.9689479"><ele>455.0</ele><time>2026-04-11T10:52:46.332Z</time></trkpt><trkpt lat="44.5804678" lon="7.9689223"><ele>455.0</ele><time>2026-04-11T10:52:49.33Z</time></trkpt><trkpt lat="44.5805482" lon="7.9688983"><ele>455.8333333333333</ele><time>2026-04-11T10:52:52.332Z</time></trkpt><trkpt lat="44.5806233" lon="7.9688619"><ele>456.66666666666663</ele><time>2026-04-11T10:52:55.333Z</time></trkpt><trkpt lat="44.5807019" lon="7.9688354"><ele>457.5</ele><time>2026-04-11T10:52:58.33Z</time></trkpt><trkpt lat="44.5807643" lon="7.9688037"><ele>458.33333333333337</ele><time>2026-04-11T10:53:01.33Z</time></trkpt><trkpt lat="44.5808522" lon="7.9687912"><ele>459.1666666666667</ele><time>2026-04-11T10:53:04.332Z</time></trkpt><trkpt lat="44.5809308" lon="7.9687722"><ele>460.0</ele><time>2026-04-11T10:53:07.331Z</time></trkpt><trkpt lat="44.5810079" lon="7.9687395"><ele>460.00000000000006</ele><time>2026-04-11T10:53:10.332Z</time></trkpt><trkpt lat="44.5810873" lon="7.9687198"><ele>460.0</ele><time>2026-04-11T10:53:13.332Z</time></trkpt><trkpt lat="44.5811655" lon="7.968707"><ele>460.0</ele><time>2026-04-11T10:53:16.332Z</time></trkpt><trkpt lat="44.5812382" lon="7.9686964"><ele>460.0</ele><time>2026-04-11T10:53:19.332Z</time></trkpt><trkpt lat="44.5812958" lon="7.9687715"><ele>460.00000000000006</ele><time>2026-04-11T10:53:22.332Z</time></trkpt><trkpt lat="44.581318" lon="7.9688907"><ele>460.0</ele><time>2026-04-11T10:53:25.332Z</time></trkpt><trkpt lat="44.5813475" lon="7.9689979"><ele>461.00000000000006</ele><time>2026-04-11T10:53:28.332Z</time></trkpt><trkpt lat="44.5814324" lon="7.9690328"><ele>462.0</ele><time>2026-04-11T10:53:31.331Z</time></trkpt><trkpt lat="44.581518" lon="7.9690262"><ele>463.0</ele><time>2026-04-11T10:53:34.332Z</time></trkpt><trkpt lat="44.5815775" lon="7.9689965"><ele>464.0</ele><time>2026-04-11T10:53:36.332Z</time></trkpt><trkpt lat="44.5816337" lon="7.9689498"><ele>465.00000000000006</ele><time>2026-04-11T10:53:38.332Z</time></trkpt><trkpt lat="44.5817263" lon="7.9689214"><ele>466.0</ele><time>2026-04-11T10:53:41.332Z</time></trkpt><trkpt lat="44.5818187" lon="7.9689046"><ele>466.0</ele><time>2026-04-11T10:53:44.331Z</time></trkpt><trkpt lat="44.5818913" lon="7.9688944"><ele>466.0</ele><time>2026-04-11T10:53:47.332Z</time></trkpt><trkpt lat="44.5819551" lon="7.9688772"><ele>466.0</ele><time>2026-04-11T10:53:51.332Z</time></trkpt><trkpt lat="44.5820055" lon="7.9688176"><ele>466.0</ele><time>2026-04-11T10:53:59.332Z</time></trkpt><trkpt lat="44.5820758" lon="7.9688272"><ele>466.0</ele><time>2026-04-11T10:54:04.332Z</time></trkpt><trkpt lat="44.5821337" lon="7.9687916"><ele>466.0</ele><time>2026-04-11T10:54:32.333Z</time></trkpt><trkpt lat="44.5822025" lon="7.9687688"><ele>466.0</ele><time>2026-04-11T10:54:36.333Z</time></trkpt><trkpt lat="44.5822728" lon="7.9687862"><ele>466.57142857142856</ele><time>2026-04-11T10:54:42.333Z</time></trkpt><trkpt lat="44.5823131" lon="7.9688687"><ele>467.1428571428571</ele><time>2026-04-11T10:54:46.333Z</time></trkpt><trkpt lat="44.5823313" lon="7.9689714"><ele>467.71428571428567</ele><time>2026-04-11T10:54:49.333Z</time></trkpt><trkpt lat="44.5823341" lon="7.9690766"><ele>468.2857142857143</ele><time>2026-04-11T10:54:54.333Z</time></trkpt><trkpt lat="44.5823342" lon="7.9691686"><ele>468.8571428571428</ele><time>2026-04-11T10:55:06.333Z</time></trkpt><trkpt lat="44.5824184" lon="7.9691251"><ele>469.4285714285714</ele><time>2026-04-11T10:55:09.333Z</time></trkpt><trkpt lat="44.582465" lon="7.9690581"><ele>470.0</ele><time>2026-04-11T10:55:11.332Z</time></trkpt><trkpt lat="44.5825066" lon="7.96899"><ele>470.0</ele><time>2026-04-11T10:55:13.333Z</time></trkpt><trkpt lat="44.5825546" lon="7.9689258"><ele>469.99999999999994</ele><time>2026-04-11T10:55:15.333Z</time></trkpt><trkpt lat="44.582609" lon="7.9688689"><ele>470.0</ele><time>2026-04-11T10:55:18.332Z</time></trkpt><trkpt lat="44.5826501" lon="7.9687849"><ele>470.0</ele><time>2026-04-11T10:55:22.334Z</time></trkpt><trkpt lat="44.5826035" lon="7.9688482"><ele>469.99999999999994</ele><time>2026-04-11T10:55:59.334Z</time></trkpt><trkpt lat="44.5825272" lon="7.9688877"><ele>470.0</ele><time>2026-04-11T10:56:18.334Z</time></trkpt><trkpt lat="44.5824644" lon="7.9689641"><ele>470.0</ele><time>2026-04-11T10:56:21.334Z</time></trkpt><trkpt lat="44.5824137" lon="7.9690376"><ele>470.0</ele><time>2026-04-11T10:56:23.333Z</time></trkpt><trkpt lat="44.5823523" lon="7.9691194"><ele>470.0</ele><time>2026-04-11T10:56:25.334Z</time></trkpt><trkpt lat="44.5822975" lon="7.9691897"><ele>470.0</ele><time>2026-04-11T10:56:27.335Z</time></trkpt><trkpt lat="44.58222" lon="7.9692754"><ele>470.0</ele><time>2026-04-11T10:56:29.334Z</time></trkpt><trkpt lat="44.5821356" lon="7.9693782"><ele>470.0</ele><time>2026-04-11T10:56:31.335Z</time></trkpt><trkpt lat="44.5820612" lon="7.9694613"><ele>469.0</ele><time>2026-04-11T10:56:33.333Z</time></trkpt><trkpt lat="44.5819816" lon="7.9695382"><ele>468.0</ele><time>2026-04-11T10:56:35.335Z</time></trkpt><trkpt lat="44.5818882" lon="7.969632"><ele>467.0</ele><time>2026-04-11T10:56:37.335Z</time></trkpt><trkpt lat="44.5817894" lon="7.9697421"><ele>466.0</ele><time>2026-04-11T10:56:39.334Z</time></trkpt><trkpt lat="44.5817316" lon="7.9698132"><ele>465.0</ele><time>2026-04-11T10:56:40.334Z</time></trkpt><trkpt lat="44.5816786" lon="7.9698838"><ele>465.0</ele><time>2026-04-11T10:56:41.335Z</time></trkpt><trkpt lat="44.5816333" lon="7.9699606"><ele>465.0</ele><time>2026-04-11T10:56:42.334Z</time></trkpt><trkpt lat="44.5815882" lon="7.9700383"><ele>465.0</ele><time>2026-04-11T10:56:43.334Z</time></trkpt><trkpt lat="44.5815408" lon="7.9701289"><ele>465.0</ele><time>2026-04-11T10:56:44.335Z</time></trkpt><trkpt lat="44.5815019" lon="7.970235"><ele>465.0</ele><time>2026-04-11T10:56:45.335Z</time></trkpt><trkpt lat="44.5814788" lon="7.9703318"><ele>465.0</ele><time>2026-04-11T10:56:46.334Z</time></trkpt><trkpt lat="44.5814693" lon="7.9704225"><ele>465.0</ele><time>2026-04-11T10:56:47.335Z</time></trkpt><trkpt lat="44.5814387" lon="7.9705481"><ele>466.5</ele><time>2026-04-11T10:56:49.334Z</time></trkpt><trkpt lat="44.5814107" lon="7.9706478"><ele>468.0</ele><time>2026-04-11T10:56:51.335Z</time></trkpt><trkpt lat="44.5813911" lon="7.9707457"><ele>469.5</ele><time>2026-04-11T10:56:54.335Z</time></trkpt><trkpt lat="44.5813648" lon="7.970847"><ele>471.0</ele><time>2026-04-11T10:56:58.335Z</time></trkpt><trkpt lat="44.5813272" lon="7.9709563"><ele>472.5</ele><time>2026-04-11T10:57:02.335Z</time></trkpt><trkpt lat="44.5812979" lon="7.9710466"><ele>474.0</ele><time>2026-04-11T10:57:05.335Z</time></trkpt><trkpt lat="44.5812566" lon="7.9711265"><ele>473.42857142857133</ele><time>2026-04-11T10:57:08.335Z</time></trkpt><trkpt lat="44.5812267" lon="7.9712273"><ele>472.85714285714283</ele><time>2026-04-11T10:57:11.334Z</time></trkpt><trkpt lat="44.5811779" lon="7.9712966"><ele>472.2857142857142</ele><time>2026-04-11T10:57:14.335Z</time></trkpt><trkpt lat="44.5811334" lon="7.9713811"><ele>471.71428571428567</ele><time>2026-04-11T10:57:17.335Z</time></trkpt><trkpt lat="44.5810939" lon="7.9714658"><ele>471.1428571428571</ele><time>2026-04-11T10:57:20.335Z</time></trkpt><trkpt lat="44.5810549" lon="7.971541"><ele>470.57142857142856</ele><time>2026-04-11T10:57:23.335Z</time></trkpt><trkpt lat="44.5810217" lon="7.9716167"><ele>470.0</ele><time>2026-04-11T10:57:26.335Z</time></trkpt><trkpt lat="44.5809787" lon="7.9716922"><ele>470.0</ele><time>2026-04-11T10:57:29.335Z</time></trkpt><trkpt lat="44.5809456" lon="7.9717775"><ele>469.99999999999994</ele><time>2026-04-11T10:57:32.335Z</time></trkpt><trkpt lat="44.5809197" lon="7.9718723"><ele>470.0</ele><time>2026-04-11T10:57:35.336Z</time></trkpt><trkpt lat="44.5809497" lon="7.9719506"><ele>470.0</ele><time>2026-04-11T10:57:39.334Z</time></trkpt><trkpt lat="44.5810248" lon="7.9719568"><ele>469.99999999999994</ele><time>2026-04-11T10:58:21.336Z</time></trkpt><trkpt lat="44.5810878" lon="7.9719974"><ele>470.0</ele><time>2026-04-11T10:58:24.335Z</time></trkpt><trkpt lat="44.5811538" lon="7.9720244"><ele>470.0</ele><time>2026-04-11T10:58:29.336Z</time></trkpt><trkpt lat="44.5812224" lon="7.9720105"><ele>474.2857142857143</ele><time>2026-04-11T10:58:33.336Z</time></trkpt><trkpt lat="44.5812948" lon="7.971994"><ele>478.57142857142856</ele><time>2026-04-11T10:58:38.336Z</time></trkpt><trkpt lat="44.5813564" lon="7.9719637"><ele>482.85714285714283</ele><time>2026-04-11T10:58:47.336Z</time></trkpt><trkpt lat="44.5814164" lon="7.9719204"><ele>487.1428571428571</ele><time>2026-04-11T10:58:55.336Z</time></trkpt><trkpt lat="44.5814597" lon="7.9718468"><ele>491.42857142857144</ele><time>2026-04-11T10:59:04.337Z</time></trkpt><trkpt lat="44.5815249" lon="7.9718234"><ele>495.71428571428567</ele><time>2026-04-11T10:59:10.336Z</time></trkpt><trkpt lat="44.5815861" lon="7.9717864"><ele>500.0</ele><time>2026-04-11T10:59:18.337Z</time></trkpt><trkpt lat="44.5816491" lon="7.9717631"><ele>500.0</ele><time>2026-04-11T10:59:26.336Z</time></trkpt><trkpt lat="44.5817154" lon="7.9717316"><ele>500.0</ele><time>2026-04-11T10:59:33.336Z</time></trkpt><trkpt lat="44.5817768" lon="7.9716912"><ele>500.0</ele><time>2026-04-11T10:59:41.336Z</time></trkpt><trkpt lat="44.5818275" lon="7.971636"><ele>500.0</ele><time>2026-04-11T10:59:48.337Z</time></trkpt><trkpt lat="44.5818865" lon="7.9715767"><ele>500.0</ele><time>2026-04-11T10:59:57.337Z</time></trkpt><trkpt lat="44.5819275" lon="7.9714946"><ele>500.0</ele><time>2026-04-11T11:00:03.337Z</time></trkpt><trkpt lat="44.5819833" lon="7.9714318"><ele>500.0</ele><time>2026-04-11T11:00:11.338Z</time></trkpt><trkpt lat="44.5820233" lon="7.9713609"><ele>501.57142857142856</ele><time>2026-04-11T11:00:18.338Z</time></trkpt><trkpt lat="44.5820677" lon="7.9712959"><ele>503.14285714285717</ele><time>2026-04-11T11:00:24.338Z</time></trkpt><trkpt lat="44.5821343" lon="7.9712579"><ele>504.7142857142857</ele><time>2026-04-11T11:00:31.338Z</time></trkpt><trkpt lat="44.5821975" lon="7.9712262"><ele>506.2857142857143</ele><time>2026-04-11T11:00:37.338Z</time></trkpt><trkpt lat="44.5822546" lon="7.9711837"><ele>507.8571428571429</ele><time>2026-04-11T11:00:43.338Z</time></trkpt><trkpt lat="44.5823157" lon="7.9711484"><ele>509.42857142857144</ele><time>2026-04-11T11:00:49.337Z</time></trkpt><trkpt lat="44.58238" lon="7.9711312"><ele>511.0</ele><time>2026-04-11T11:01:32.338Z</time></trkpt><trkpt lat="44.5824397" lon="7.971099"><ele>511.0</ele><time>2026-04-11T11:01:36.339Z</time></trkpt><trkpt lat="44.5824969" lon="7.9710609"><ele>511.0</ele><time>2026-04-11T11:01:41.339Z</time></trkpt><trkpt lat="44.5825472" lon="7.9710066"><ele>511.0</ele><time>2026-04-11T11:01:46.339Z</time></trkpt><trkpt lat="44.5826057" lon="7.9709628"><ele>511.0</ele><time>2026-04-11T11:01:52.339Z</time></trkpt><trkpt lat="44.5826579" lon="7.9709089"><ele>511.0</ele><time>2026-04-11T11:01:57.339Z</time></trkpt><trkpt lat="44.5827255" lon="7.9708794"><ele>511.0</ele><time>2026-04-11T11:02:02.339Z</time></trkpt><trkpt lat="44.5827905" lon="7.9708765"><ele>511.0</ele><time>2026-04-11T11:02:09.339Z</time></trkpt><trkpt lat="44.5828371" lon="7.9707945"><ele>511.7142857142857</ele><time>2026-04-11T11:02:14.339Z</time></trkpt><trkpt lat="44.5828955" lon="7.9707508"><ele>512.4285714285714</ele><time>2026-04-11T11:02:19.339Z</time></trkpt><trkpt lat="44.5829535" lon="7.9707151"><ele>513.1428571428571</ele><time>2026-04-11T11:02:27.34Z</time></trkpt><trkpt lat="44.5830178" lon="7.9706806"><ele>513.8571428571429</ele><time>2026-04-11T11:02:33.34Z</time></trkpt><trkpt lat="44.5830864" lon="7.9706351"><ele>514.5714285714286</ele><time>2026-04-11T11:02:46.34Z</time></trkpt><trkpt lat="44.5831413" lon="7.9705807"><ele>515.2857142857142</ele><time>2026-04-11T11:02:49.34Z</time></trkpt><trkpt lat="44.5832051" lon="7.9705407"><ele>516.0</ele><time>2026-04-11T11:02:52.34Z</time></trkpt><trkpt lat="44.5832732" lon="7.9705103"><ele>515.9999999999999</ele><time>2026-04-11T11:02:55.34Z</time></trkpt><trkpt lat="44.5833352" lon="7.9704676"><ele>516.0</ele><time>2026-04-11T11:02:58.339Z</time></trkpt><trkpt lat="44.5833812" lon="7.9703734"><ele>516.0</ele><time>2026-04-11T11:03:01.34Z</time></trkpt><trkpt lat="44.5834356" lon="7.9703096"><ele>516.0</ele><time>2026-04-11T11:03:04.34Z</time></trkpt><trkpt lat="44.5834929" lon="7.9702675"><ele>516.0</ele><time>2026-04-11T11:03:07.339Z</time></trkpt><trkpt lat="44.5835699" lon="7.9702667"><ele>515.9999999999999</ele><time>2026-04-11T11:03:11.34Z</time></trkpt><trkpt lat="44.5836382" lon="7.9702709"><ele>516.0</ele><time>2026-04-11T11:03:14.339Z</time></trkpt><trkpt lat="44.5837093" lon="7.9702555"><ele>517.5714285714286</ele><time>2026-04-11T11:03:17.34Z</time></trkpt><trkpt lat="44.5837836" lon="7.9702411"><ele>519.1428571428571</ele><time>2026-04-11T11:03:20.34Z</time></trkpt><trkpt lat="44.583848" lon="7.9702323"><ele>520.7142857142858</ele><time>2026-04-11T11:03:23.339Z</time></trkpt><trkpt lat="44.5839193" lon="7.9702261"><ele>522.2857142857142</ele><time>2026-04-11T11:03:26.339Z</time></trkpt><trkpt lat="44.5839839" lon="7.9702329"><ele>523.8571428571429</ele><time>2026-04-11T11:03:29.34Z</time></trkpt><trkpt lat="44.5840646" lon="7.970224"><ele>525.4285714285714</ele><time>2026-04-11T11:03:33.34Z</time></trkpt><trkpt lat="44.584142" lon="7.9701956"><ele>527.0</ele><time>2026-04-11T11:03:37.34Z</time></trkpt><trkpt lat="44.5841965" lon="7.9701198"><ele>526.6666666666666</ele><time>2026-04-11T11:03:41.34Z</time></trkpt><trkpt lat="44.5842055" lon="7.9700194"><ele>526.3333333333333</ele><time>2026-04-11T11:03:45.34Z</time></trkpt><trkpt lat="44.5842508" lon="7.969937"><ele>526.0</ele><time>2026-04-11T11:04:38.373Z</time></trkpt><trkpt lat="44.5843041" lon="7.9698888"><ele>525.6666666666666</ele><time>2026-04-11T11:04:41.472Z</time></trkpt><trkpt lat="44.5843723" lon="7.9698781"><ele>525.3333333333334</ele><time>2026-04-11T11:04:44.051Z</time></trkpt><trkpt lat="44.5844489" lon="7.9698221"><ele>525.0</ele><time>2026-04-11T11:04:47.353Z</time></trkpt><trkpt lat="44.5845323" lon="7.9697941"><ele>525.0</ele><time>2026-04-11T11:04:50.34Z</time></trkpt><trkpt lat="44.5845887" lon="7.9698405"><ele>525.0</ele><time>2026-04-11T11:04:54.341Z</time></trkpt><trkpt lat="44.5846514" lon="7.9698268"><ele>525.0</ele><time>2026-04-11T11:04:58.342Z</time></trkpt><trkpt lat="44.5847199" lon="7.9698108"><ele>525.0</ele><time>2026-04-11T11:05:01.342Z</time></trkpt><trkpt lat="44.5848093" lon="7.9697867"><ele>525.0</ele><time>2026-04-11T11:05:04.341Z</time></trkpt><trkpt lat="44.5848819" lon="7.9697585"><ele>525.0</ele><time>2026-04-11T11:05:07.342Z</time></trkpt><trkpt lat="44.5849525" lon="7.9696939"><ele>525.0</ele><time>2026-04-11T11:05:10.342Z</time></trkpt><trkpt lat="44.5850172" lon="7.9696297"><ele>525.0</ele><time>2026-04-11T11:05:13.342Z</time></trkpt><trkpt lat="44.5850708" lon="7.9695301"><ele>525.0</ele><time>2026-04-11T11:05:16.342Z</time></trkpt><trkpt lat="44.5851075" lon="7.9694076"><ele>525.0</ele><time>2026-04-11T11:05:19.342Z</time></trkpt><trkpt lat="44.5851311" lon="7.9693195"><ele>525.0</ele><time>2026-04-11T11:05:21.342Z</time></trkpt><trkpt lat="44.5851786" lon="7.9692111"><ele>525.0</ele><time>2026-04-11T11:05:24.342Z</time></trkpt><trkpt lat="44.5852429" lon="7.9691447"><ele>525.0</ele><time>2026-04-11T11:05:28.342Z</time></trkpt><trkpt lat="44.5853021" lon="7.9691001"><ele>523.8333333333334</ele><time>2026-04-11T11:05:31.342Z</time></trkpt><trkpt lat="44.5853662" lon="7.9690269"><ele>522.6666666666666</ele><time>2026-04-11T11:05:35.341Z</time></trkpt><trkpt lat="44.5854336" lon="7.968986"><ele>521.5</ele><time>2026-04-11T11:05:39.342Z</time></trkpt><trkpt lat="44.5854896" lon="7.9689249"><ele>520.3333333333333</ele><time>2026-04-11T11:05:43.342Z</time></trkpt><trkpt lat="44.5855287" lon="7.9688521"><ele>519.1666666666666</ele><time>2026-04-11T11:05:46.342Z</time></trkpt><trkpt lat="44.5855712" lon="7.968772"><ele>518.0</ele><time>2026-04-11T11:05:49.342Z</time></trkpt><trkpt lat="44.5855816" lon="7.9686458"><ele>518.0</ele><time>2026-04-11T11:05:52.342Z</time></trkpt><trkpt lat="44.5855528" lon="7.9685557"><ele>518.0</ele><time>2026-04-11T11:05:55.341Z</time></trkpt><trkpt lat="44.5855026" lon="7.9684657"><ele>518.0</ele><time>2026-04-11T11:05:58.341Z</time></trkpt><trkpt lat="44.5854488" lon="7.9683876"><ele>518.0</ele><time>2026-04-11T11:06:01.342Z</time></trkpt><trkpt lat="44.58541" lon="7.9682867"><ele>518.0</ele><time>2026-04-11T11:06:04.342Z</time></trkpt><trkpt lat="44.585372" lon="7.9682031"><ele>518.0</ele><time>2026-04-11T11:06:07.343Z</time></trkpt><trkpt lat="44.58534" lon="7.968119"><ele>518.0</ele><time>2026-04-11T11:06:10.343Z</time></trkpt><trkpt lat="44.5852756" lon="7.9680513"><ele>517.8571428571429</ele><time>2026-04-11T11:06:13.342Z</time></trkpt><trkpt lat="44.5851917" lon="7.9680306"><ele>517.7142857142858</ele><time>2026-04-11T11:06:16.343Z</time></trkpt><trkpt lat="44.5851222" lon="7.9680602"><ele>517.5714285714286</ele><time>2026-04-11T11:06:19.343Z</time></trkpt><trkpt lat="44.5850541" lon="7.9681034"><ele>517.4285714285714</ele><time>2026-04-11T11:06:22.343Z</time></trkpt><trkpt lat="44.5850061" lon="7.9681713"><ele>517.2857142857143</ele><time>2026-04-11T11:06:27.342Z</time></trkpt><trkpt lat="44.5849943" lon="7.9682723"><ele>517.1428571428571</ele><time>2026-04-11T11:06:32.343Z</time></trkpt><trkpt lat="44.5849793" lon="7.9683604"><ele>517.0</ele><time>2026-04-11T11:06:37.343Z</time></trkpt><trkpt lat="44.584914" lon="7.9683625"><ele>517.0</ele><time>2026-04-11T11:07:28.343Z</time></trkpt><trkpt lat="44.5849045" lon="7.9682715"><ele>517.0</ele><time>2026-04-11T11:07:54.344Z</time></trkpt><trkpt lat="44.5848321" lon="7.9683777"><ele>517.0</ele><time>2026-04-11T11:08:17.471Z</time></trkpt><trkpt lat="44.5848675" lon="7.9684512"><ele>517.0</ele><time>2026-04-11T11:08:59.345Z</time></trkpt><trkpt lat="44.5849214" lon="7.9685064"><ele>517.0</ele><time>2026-04-11T11:10:23.396Z</time></trkpt><trkpt lat="44.5848614" lon="7.9684509"><ele>517.0</ele><time>2026-04-11T11:10:36.467Z</time></trkpt><trkpt lat="44.5847987" lon="7.9684687"><ele>517.0</ele><time>2026-04-11T11:10:38.384Z</time></trkpt><trkpt lat="44.5847408" lon="7.9685051"><ele>517.0</ele><time>2026-04-11T11:10:42.404Z</time></trkpt><trkpt lat="44.5847527" lon="7.9685995"><ele>517.0</ele><time>2026-04-11T11:10:44.419Z</time></trkpt><trkpt lat="44.5847753" lon="7.9687095"><ele>517.0</ele><time>2026-04-11T11:10:45.436Z</time></trkpt><trkpt lat="44.5848043" lon="7.9687994"><ele>517.0</ele><time>2026-04-11T11:10:50.453Z</time></trkpt><trkpt lat="44.5847263" lon="7.9687519"><ele>517.0</ele><time>2026-04-11T11:11:16.378Z</time></trkpt><trkpt lat="44.5846688" lon="7.9687044"><ele>517.0</ele><time>2026-04-11T11:11:56.422Z</time></trkpt><trkpt lat="44.5846052" lon="7.9686773"><ele>517.0</ele><time>2026-04-11T11:12:02.457Z</time></trkpt><trkpt lat="44.5845728" lon="7.9685842"><ele>517.0</ele><time>2026-04-11T11:12:32.381Z</time></trkpt><trkpt lat="44.5845321" lon="7.9685014"><ele>517.0</ele><time>2026-04-11T11:12:35.415Z</time></trkpt><trkpt lat="44.5844729" lon="7.9684261"><ele>517.0</ele><time>2026-04-11T11:12:39.433Z</time></trkpt><trkpt lat="44.5844033" lon="7.9684131"><ele>517.0</ele><time>2026-04-11T11:12:43.45Z</time></trkpt><trkpt lat="44.5843524" lon="7.9683478"><ele>517.0</ele><time>2026-04-11T11:12:51.455Z</time></trkpt><trkpt lat="44.5843353" lon="7.9682568"><ele>517.0</ele><time>2026-04-11T11:12:57.437Z</time></trkpt><trkpt lat="44.5843669" lon="7.9681801"><ele>517.0</ele><time>2026-04-11T11:13:31.362Z</time></trkpt><trkpt lat="44.5843055" lon="7.9681245"><ele>515.0</ele><time>2026-04-11T11:13:46.415Z</time></trkpt><trkpt lat="44.5842409" lon="7.9681068"><ele>513.0</ele><time>2026-04-11T11:13:49.416Z</time></trkpt><trkpt lat="44.5843274" lon="7.9681111"><ele>511.0</ele><time>2026-04-11T11:14:12.373Z</time></trkpt><trkpt lat="44.5843392" lon="7.9682074"><ele>509.0</ele><time>2026-04-11T11:14:27.376Z</time></trkpt><trkpt lat="44.5843705" lon="7.9681209"><ele>507.00000000000006</ele><time>2026-04-11T11:14:31.428Z</time></trkpt><trkpt lat="44.5843548" lon="7.9680313"><ele>505.0</ele><time>2026-04-11T11:14:33.428Z</time></trkpt><trkpt lat="44.5842511" lon="7.9680578"><ele>505.0</ele><time>2026-04-11T11:14:34.429Z</time></trkpt><trkpt lat="44.5843035" lon="7.9679676"><ele>504.99999999999994</ele><time>2026-04-11T11:14:38.429Z</time></trkpt><trkpt lat="44.5843619" lon="7.9679299"><ele>505.0</ele><time>2026-04-11T11:14:47.433Z</time></trkpt><trkpt lat="44.5843561" lon="7.9680514"><ele>505.0</ele><time>2026-04-11T11:15:24.582Z</time></trkpt><trkpt lat="44.5843135" lon="7.9681251"><ele>504.99999999999994</ele><time>2026-04-11T11:15:29.378Z</time></trkpt><trkpt lat="44.5842532" lon="7.9681592"><ele>505.0</ele><time>2026-04-11T11:15:36.398Z</time></trkpt><trkpt lat="44.5842176" lon="7.9682328"><ele>505.0</ele><time>2026-04-11T11:15:42.466Z</time></trkpt><trkpt lat="44.5842032" lon="7.9681393"><ele>505.0</ele><time>2026-04-11T11:15:53.481Z</time></trkpt><trkpt lat="44.5842067" lon="7.9680452"><ele>504.99999999999994</ele><time>2026-04-11T11:15:57.436Z</time></trkpt><trkpt lat="44.5841834" lon="7.9679526"><ele>505.0</ele><time>2026-04-11T11:16:01.325Z</time></trkpt><trkpt lat="44.5841704" lon="7.9678657"><ele>505.0</ele><time>2026-04-11T11:16:06.456Z</time></trkpt><trkpt lat="44.5842323" lon="7.9678888"><ele>504.99999999999994</ele><time>2026-04-11T11:17:00.42Z</time></trkpt><trkpt lat="44.5842816" lon="7.9678311"><ele>505.0</ele><time>2026-04-11T11:17:03.421Z</time></trkpt><trkpt lat="44.5843506" lon="7.9678016"><ele>505.0</ele><time>2026-04-11T11:17:07.439Z</time></trkpt><trkpt lat="44.5844218" lon="7.9677324"><ele>505.00000000000006</ele><time>2026-04-11T11:17:10.44Z</time></trkpt><trkpt lat="44.5844851" lon="7.9676721"><ele>505.0</ele><time>2026-04-11T11:17:13.44Z</time></trkpt><trkpt lat="44.5845469" lon="7.9676298"><ele>505.0</ele><time>2026-04-11T11:17:15.441Z</time></trkpt><trkpt lat="44.5846492" lon="7.9675593"><ele>505.0</ele><time>2026-04-11T11:17:17.351Z</time></trkpt><trkpt lat="44.58471" lon="7.9675224"><ele>505.00000000000006</ele><time>2026-04-11T11:17:20.352Z</time></trkpt><trkpt lat="44.5846438" lon="7.96756"><ele>505.0</ele><time>2026-04-11T11:18:27.376Z</time></trkpt><trkpt lat="44.5845769" lon="7.9676258"><ele>505.0</ele><time>2026-04-11T11:18:47.414Z</time></trkpt><trkpt lat="44.5845161" lon="7.9676514"><ele>504.99999999999994</ele><time>2026-04-11T11:18:49.353Z</time></trkpt><trkpt lat="44.5844578" lon="7.9677009"><ele>505.0</ele><time>2026-04-11T11:18:56.353Z</time></trkpt><trkpt lat="44.5844316" lon="7.9677996"><ele>505.0</ele><time>2026-04-11T11:19:04.352Z</time></trkpt><trkpt lat="44.584383" lon="7.9678927"><ele>504.99999999999994</ele><time>2026-04-11T11:19:09.353Z</time></trkpt><trkpt lat="44.5843268" lon="7.9679429"><ele>505.0</ele><time>2026-04-11T11:19:15.353Z</time></trkpt><trkpt lat="44.584263" lon="7.9679572"><ele>505.0</ele><time>2026-04-11T11:19:20.353Z</time></trkpt><trkpt lat="44.5841916" lon="7.9679577"><ele>505.0</ele><time>2026-04-11T11:19:44.353Z</time></trkpt><trkpt lat="44.5841262" lon="7.9679727"><ele>504.99999999999994</ele><time>2026-04-11T11:19:50.353Z</time></trkpt><trkpt lat="44.584076" lon="7.9680348"><ele>505.0</ele><time>2026-04-11T11:19:59.353Z</time></trkpt><trkpt lat="44.5840154" lon="7.9680732"><ele>505.0</ele><time>2026-04-11T11:20:05.354Z</time></trkpt><trkpt lat="44.5839625" lon="7.9680243"><ele>504.99999999999994</ele><time>2026-04-11T11:20:19.353Z</time></trkpt><trkpt lat="44.5839333" lon="7.967941"><ele>505.0</ele><time>2026-04-11T11:20:39.354Z</time></trkpt><trkpt lat="44.583872" lon="7.9679697"><ele>505.0</ele><time>2026-04-11T11:20:47.354Z</time></trkpt><trkpt lat="44.5838519" lon="7.9680542"><ele>505.0</ele><time>2026-04-11T11:20:56.353Z</time></trkpt><trkpt lat="44.5838668" lon="7.9679536"><ele>504.99999999999994</ele><time>2026-04-11T11:21:39.375Z</time></trkpt><trkpt lat="44.5838469" lon="7.9678677"><ele>505.0</ele><time>2026-04-11T11:21:44.315Z</time></trkpt><trkpt lat="44.5838206" lon="7.9677689"><ele>505.0</ele><time>2026-04-11T11:21:49.456Z</time></trkpt><trkpt lat="44.5838044" lon="7.9676802"><ele>504.99999999999994</ele><time>2026-04-11T11:21:54.447Z</time></trkpt><trkpt lat="44.5837288" lon="7.9676996"><ele>505.0</ele><time>2026-04-11T11:22:52.355Z</time></trkpt><trkpt lat="44.5836638" lon="7.9677211"><ele>505.0</ele><time>2026-04-11T11:22:58.356Z</time></trkpt><trkpt lat="44.5835891" lon="7.967762"><ele>501.4285714285714</ele><time>2026-04-11T11:23:01.356Z</time></trkpt><trkpt lat="44.5835214" lon="7.9677912"><ele>497.8571428571428</ele><time>2026-04-11T11:23:05.356Z</time></trkpt><trkpt lat="44.5834558" lon="7.9678124"><ele>494.2857142857143</ele><time>2026-04-11T11:23:11.356Z</time></trkpt><trkpt lat="44.5833932" lon="7.9678275"><ele>490.71428571428567</ele><time>2026-04-11T11:23:15.355Z</time></trkpt><trkpt lat="44.5833176" lon="7.9678051"><ele>487.1428571428571</ele><time>2026-04-11T11:23:20.391Z</time></trkpt><trkpt lat="44.5832539" lon="7.9677926"><ele>483.57142857142856</ele><time>2026-04-11T11:23:25.392Z</time></trkpt><trkpt lat="44.5831917" lon="7.9677437"><ele>480.0</ele><time>2026-04-11T11:23:31.393Z</time></trkpt><trkpt lat="44.5831215" lon="7.967707"><ele>480.0</ele><time>2026-04-11T11:23:35.426Z</time></trkpt><trkpt lat="44.5830536" lon="7.9677265"><ele>480.0</ele><time>2026-04-11T11:23:38.416Z</time></trkpt><trkpt lat="44.5829752" lon="7.9677473"><ele>480.0</ele><time>2026-04-11T11:23:41.433Z</time></trkpt><trkpt lat="44.5829166" lon="7.9676976"><ele>480.0</ele><time>2026-04-11T11:23:44.434Z</time></trkpt><trkpt lat="44.5829792" lon="7.9677348"><ele>480.0</ele><time>2026-04-11T11:24:48.366Z</time></trkpt><trkpt lat="44.583055" lon="7.9677243"><ele>480.0</ele><time>2026-04-11T11:24:55.384Z</time></trkpt><trkpt lat="44.583128" lon="7.9678091"><ele>480.0</ele><time>2026-04-11T11:24:56.357Z</time></trkpt><trkpt lat="44.5831944" lon="7.9677598"><ele>480.0</ele><time>2026-04-11T11:24:59.357Z</time></trkpt><trkpt lat="44.5832647" lon="7.9676919"><ele>480.0</ele><time>2026-04-11T11:25:03.356Z</time></trkpt><trkpt lat="44.5833321" lon="7.9676433"><ele>480.0</ele><time>2026-04-11T11:25:06.358Z</time></trkpt><trkpt lat="44.5833895" lon="7.9675828"><ele>480.0</ele><time>2026-04-11T11:25:08.357Z</time></trkpt><trkpt lat="44.5834538" lon="7.9675222"><ele>480.0</ele><time>2026-04-11T11:25:10.358Z</time></trkpt><trkpt lat="44.5835346" lon="7.9674507"><ele>479.0</ele><time>2026-04-11T11:25:12.358Z</time></trkpt><trkpt lat="44.5836204" lon="7.9673662"><ele>478.0</ele><time>2026-04-11T11:25:14.358Z</time></trkpt><trkpt lat="44.5837225" lon="7.9672428"><ele>477.0</ele><time>2026-04-11T11:25:16.358Z</time></trkpt><trkpt lat="44.583771" lon="7.9671742"><ele>476.0</ele><time>2026-04-11T11:25:17.358Z</time></trkpt><trkpt lat="44.5838193" lon="7.96711"><ele>475.0</ele><time>2026-04-11T11:25:18.357Z</time></trkpt><trkpt lat="44.5838664" lon="7.9670395"><ele>474.0</ele><time>2026-04-11T11:25:19.358Z</time></trkpt><trkpt lat="44.5839561" lon="7.9669124"><ele>472.79999999999995</ele><time>2026-04-11T11:25:21.358Z</time></trkpt><trkpt lat="44.5840272" lon="7.9667854"><ele>471.59999999999997</ele><time>2026-04-11T11:25:23.357Z</time></trkpt><trkpt lat="44.5840898" lon="7.9666953"><ele>470.4</ele><time>2026-04-11T11:25:25.358Z</time></trkpt><trkpt lat="44.5841511" lon="7.9666303"><ele>469.2</ele><time>2026-04-11T11:25:27.358Z</time></trkpt><trkpt lat="44.5842223" lon="7.9665561"><ele>468.0</ele><time>2026-04-11T11:25:30.357Z</time></trkpt><trkpt lat="44.5842811" lon="7.9664752"><ele>468.0</ele><time>2026-04-11T11:25:33.357Z</time></trkpt><trkpt lat="44.5843216" lon="7.9663869"><ele>468.00000000000006</ele><time>2026-04-11T11:25:35.358Z</time></trkpt><trkpt lat="44.5843692" lon="7.9663101"><ele>468.0</ele><time>2026-04-11T11:25:37.358Z</time></trkpt><trkpt lat="44.5844186" lon="7.9662329"><ele>468.0</ele><time>2026-04-11T11:25:39.358Z</time></trkpt><trkpt lat="44.5844645" lon="7.9661669"><ele>468.00000000000006</ele><time>2026-04-11T11:25:41.358Z</time></trkpt><trkpt lat="44.5845143" lon="7.9660758"><ele>468.0</ele><time>2026-04-11T11:25:43.358Z</time></trkpt><trkpt lat="44.5845664" lon="7.9659983"><ele>468.0</ele><time>2026-04-11T11:25:46.358Z</time></trkpt><trkpt lat="44.5846444" lon="7.9659497"><ele>466.59999999999997</ele><time>2026-04-11T11:26:00.357Z</time></trkpt><trkpt lat="44.5847082" lon="7.9658965"><ele>465.19999999999993</ele><time>2026-04-11T11:26:21.359Z</time></trkpt><trkpt lat="44.5847853" lon="7.9658604"><ele>463.8</ele><time>2026-04-11T11:26:23.359Z</time></trkpt><trkpt lat="44.5848932" lon="7.9658188"><ele>462.4</ele><time>2026-04-11T11:26:25.359Z</time></trkpt><trkpt lat="44.5850061" lon="7.9657638"><ele>461.0</ele><time>2026-04-11T11:26:27.359Z</time></trkpt><trkpt lat="44.5850663" lon="7.9657288"><ele>461.0</ele><time>2026-04-11T11:26:28.359Z</time></trkpt><trkpt lat="44.5851302" lon="7.9656932"><ele>461.00000000000006</ele><time>2026-04-11T11:26:29.359Z</time></trkpt><trkpt lat="44.5851945" lon="7.9656522"><ele>461.0</ele><time>2026-04-11T11:26:30.359Z</time></trkpt><trkpt lat="44.5852605" lon="7.9656092"><ele>461.0</ele><time>2026-04-11T11:26:31.358Z</time></trkpt><trkpt lat="44.5853215" lon="7.9655506"><ele>461.00000000000006</ele><time>2026-04-11T11:26:32.359Z</time></trkpt><trkpt lat="44.5853769" lon="7.9654759"><ele>461.0</ele><time>2026-04-11T11:26:33.359Z</time></trkpt><trkpt lat="44.5854242" lon="7.9653789"><ele>461.0</ele><time>2026-04-11T11:26:34.359Z</time></trkpt><trkpt lat="44.585468" lon="7.9652685"><ele>460.0</ele><time>2026-04-11T11:26:35.359Z</time></trkpt><trkpt lat="44.5855144" lon="7.9651528"><ele>459.0</ele><time>2026-04-11T11:26:36.359Z</time></trkpt><trkpt lat="44.5855608" lon="7.9650296"><ele>458.0</ele><time>2026-04-11T11:26:37.358Z</time></trkpt><trkpt lat="44.5855956" lon="7.9649014"><ele>457.0</ele><time>2026-04-11T11:26:38.359Z</time></trkpt><trkpt lat="44.5856315" lon="7.9647662"><ele>456.0</ele><time>2026-04-11T11:26:39.359Z</time></trkpt><trkpt lat="44.5856645" lon="7.9646317"><ele>456.0</ele><time>2026-04-11T11:26:40.359Z</time></trkpt><trkpt lat="44.5856975" lon="7.964508"><ele>456.0</ele><time>2026-04-11T11:26:41.358Z</time></trkpt><trkpt lat="44.5857413" lon="7.9643663"><ele>456.0</ele><time>2026-04-11T11:26:42.358Z</time></trkpt><trkpt lat="44.5857865" lon="7.9642206"><ele>456.0</ele><time>2026-04-11T11:26:43.359Z</time></trkpt><trkpt lat="44.5858321" lon="7.9640774"><ele>456.0</ele><time>2026-04-11T11:26:44.359Z</time></trkpt><trkpt lat="44.5858793" lon="7.9639345"><ele>453.20000000000005</ele><time>2026-04-11T11:26:45.359Z</time></trkpt><trkpt lat="44.5859277" lon="7.9637941"><ele>450.40000000000003</ele><time>2026-04-11T11:26:46.359Z</time></trkpt><trkpt lat="44.5859757" lon="7.9636573"><ele>447.6</ele><time>2026-04-11T11:26:47.359Z</time></trkpt><trkpt lat="44.586022" lon="7.9635295"><ele>444.8</ele><time>2026-04-11T11:26:48.359Z</time></trkpt><trkpt lat="44.5860669" lon="7.9634155"><ele>442.0</ele><time>2026-04-11T11:26:49.358Z</time></trkpt><trkpt lat="44.5861113" lon="7.9633048"><ele>441.1666666666667</ele><time>2026-04-11T11:26:50.359Z</time></trkpt><trkpt lat="44.5861498" lon="7.9631916"><ele>440.33333333333337</ele><time>2026-04-11T11:26:51.358Z</time></trkpt><trkpt lat="44.5861804" lon="7.9630722"><ele>439.5</ele><time>2026-04-11T11:26:52.359Z</time></trkpt><trkpt lat="44.586204" lon="7.9629499"><ele>438.66666666666663</ele><time>2026-04-11T11:26:53.359Z</time></trkpt><trkpt lat="44.5862192" lon="7.9628265"><ele>437.8333333333333</ele><time>2026-04-11T11:26:54.359Z</time></trkpt><trkpt lat="44.586227" lon="7.9627028"><ele>437.0</ele><time>2026-04-11T11:26:55.358Z</time></trkpt><trkpt lat="44.5862244" lon="7.962582"><ele>437.66666666666663</ele><time>2026-04-11T11:26:56.359Z</time></trkpt><trkpt lat="44.5862167" lon="7.9624603"><ele>438.3333333333333</ele><time>2026-04-11T11:26:57.359Z</time></trkpt><trkpt lat="44.5862034" lon="7.9623527"><ele>439.0</ele><time>2026-04-11T11:26:58.358Z</time></trkpt><trkpt lat="44.5861748" lon="7.9622485"><ele>439.66666666666663</ele><time>2026-04-11T11:26:59.359Z</time></trkpt><trkpt lat="44.5861341" lon="7.962148"><ele>440.3333333333333</ele><time>2026-04-11T11:27:00.359Z</time></trkpt><trkpt lat="44.586086" lon="7.9620513"><ele>441.0</ele><time>2026-04-11T11:27:01.358Z</time></trkpt><trkpt lat="44.5860327" lon="7.9619583"><ele>440.57142857142856</ele><time>2026-04-11T11:27:02.358Z</time></trkpt><trkpt lat="44.5859701" lon="7.9618744"><ele>440.1428571428571</ele><time>2026-04-11T11:27:03.359Z</time></trkpt><trkpt lat="44.5859042" lon="7.9618048"><ele>439.7142857142857</ele><time>2026-04-11T11:27:04.359Z</time></trkpt><trkpt lat="44.5858415" lon="7.961753"><ele>439.2857142857143</ele><time>2026-04-11T11:27:05.359Z</time></trkpt><trkpt lat="44.5857824" lon="7.9616955"><ele>438.85714285714283</ele><time>2026-04-11T11:27:06.358Z</time></trkpt><trkpt lat="44.585729" lon="7.9616449"><ele>438.42857142857144</ele><time>2026-04-11T11:27:07.359Z</time></trkpt><trkpt lat="44.5856787" lon="7.9615915"><ele>438.0</ele><time>2026-04-11T11:27:08.359Z</time></trkpt><trkpt lat="44.5855813" lon="7.9614791"><ele>438.0</ele><time>2026-04-11T11:27:10.359Z</time></trkpt><trkpt lat="44.5855317" lon="7.9614195"><ele>437.99999999999994</ele><time>2026-04-11T11:27:11.359Z</time></trkpt><trkpt lat="44.585485" lon="7.9613569"><ele>437.99999999999994</ele><time>2026-04-11T11:27:12.359Z</time></trkpt><trkpt lat="44.5854058" lon="7.9612264"><ele>438.0</ele><time>2026-04-11T11:27:14.359Z</time></trkpt><trkpt lat="44.5853369" lon="7.9610949"><ele>438.0</ele><time>2026-04-11T11:27:16.358Z</time></trkpt><trkpt lat="44.5852768" lon="7.9609714"><ele>436.4</ele><time>2026-04-11T11:27:18.359Z</time></trkpt><trkpt lat="44.5852235" lon="7.9608593"><ele>434.79999999999995</ele><time>2026-04-11T11:27:20.358Z</time></trkpt><trkpt lat="44.5851731" lon="7.9607313"><ele>433.2</ele><time>2026-04-11T11:27:22.359Z</time></trkpt><trkpt lat="44.5851232" lon="7.9605732"><ele>431.6</ele><time>2026-04-11T11:27:24.359Z</time></trkpt><trkpt lat="44.5850697" lon="7.9604363"><ele>430.0</ele><time>2026-04-11T11:27:26.359Z</time></trkpt><trkpt lat="44.5850278" lon="7.9602982"><ele>430.0</ele><time>2026-04-11T11:27:28.359Z</time></trkpt><trkpt lat="44.584991" lon="7.9601605"><ele>430.0</ele><time>2026-04-11T11:27:30.359Z</time></trkpt><trkpt lat="44.5849686" lon="7.9600177"><ele>430.0</ele><time>2026-04-11T11:27:32.359Z</time></trkpt><trkpt lat="44.584965" lon="7.959855"><ele>430.0</ele><time>2026-04-11T11:27:34.359Z</time></trkpt><trkpt lat="44.5849715" lon="7.959764"><ele>430.0</ele><time>2026-04-11T11:27:35.359Z</time></trkpt><trkpt lat="44.5849994" lon="7.9595987"><ele>430.75</ele><time>2026-04-11T11:27:37.36Z</time></trkpt><trkpt lat="44.5850321" lon="7.9594431"><ele>431.5</ele><time>2026-04-11T11:27:39.36Z</time></trkpt><trkpt lat="44.5850628" lon="7.9592923"><ele>432.25</ele><time>2026-04-11T11:27:41.36Z</time></trkpt><trkpt lat="44.5851007" lon="7.9591369"><ele>433.0</ele><time>2026-04-11T11:27:43.36Z</time></trkpt><trkpt lat="44.5851393" lon="7.9589824"><ele>433.0</ele><time>2026-04-11T11:27:45.359Z</time></trkpt><trkpt lat="44.5851679" lon="7.9588351"><ele>432.99999999999994</ele><time>2026-04-11T11:27:47.36Z</time></trkpt><trkpt lat="44.5851956" lon="7.9586919"><ele>432.99999999999994</ele><time>2026-04-11T11:27:49.36Z</time></trkpt><trkpt lat="44.5852061" lon="7.9585444"><ele>433.0</ele><time>2026-04-11T11:27:51.36Z</time></trkpt><trkpt lat="44.5851829" lon="7.9583886"><ele>433.0</ele><time>2026-04-11T11:27:53.36Z</time></trkpt><trkpt lat="44.5851572" lon="7.9583066"><ele>432.4285714285714</ele><time>2026-04-11T11:27:54.359Z</time></trkpt><trkpt lat="44.5851257" lon="7.9582255"><ele>431.85714285714283</ele><time>2026-04-11T11:27:55.36Z</time></trkpt><trkpt lat="44.5850918" lon="7.9581429"><ele>431.2857142857143</ele><time>2026-04-11T11:27:56.36Z</time></trkpt><trkpt lat="44.5850521" lon="7.9580611"><ele>430.71428571428567</ele><time>2026-04-11T11:27:57.359Z</time></trkpt><trkpt lat="44.5850082" lon="7.9579845"><ele>430.14285714285717</ele><time>2026-04-11T11:27:58.36Z</time></trkpt><trkpt lat="44.5849588" lon="7.9579162"><ele>429.57142857142856</ele><time>2026-04-11T11:27:59.36Z</time></trkpt><trkpt lat="44.5849054" lon="7.9578523"><ele>429.0</ele><time>2026-04-11T11:28:00.36Z</time></trkpt><trkpt lat="44.5848535" lon="7.9577932"><ele>429.0</ele><time>2026-04-11T11:28:01.36Z</time></trkpt><trkpt lat="44.5847575" lon="7.9576898"><ele>429.0</ele><time>2026-04-11T11:28:03.36Z</time></trkpt><trkpt lat="44.5846723" lon="7.9575929"><ele>429.0</ele><time>2026-04-11T11:28:05.359Z</time></trkpt><trkpt lat="44.5845908" lon="7.9575104"><ele>429.0</ele><time>2026-04-11T11:28:07.36Z</time></trkpt><trkpt lat="44.5845126" lon="7.9574329"><ele>429.0</ele><time>2026-04-11T11:28:09.36Z</time></trkpt><trkpt lat="44.5844267" lon="7.9573713"><ele>428.79999999999995</ele><time>2026-04-11T11:28:11.36Z</time></trkpt><trkpt lat="44.5843256" lon="7.9573278"><ele>428.59999999999997</ele><time>2026-04-11T11:28:13.36Z</time></trkpt><trkpt lat="44.5842195" lon="7.9572937"><ele>428.4</ele><time>2026-04-11T11:28:15.36Z</time></trkpt><trkpt lat="44.584111" lon="7.9572743"><ele>428.2</ele><time>2026-04-11T11:28:17.36Z</time></trkpt><trkpt lat="44.584" lon="7.9572812"><ele>428.0</ele><time>2026-04-11T11:28:19.36Z</time></trkpt><trkpt lat="44.5838926" lon="7.9572964"><ele>427.99999999999994</ele><time>2026-04-11T11:28:21.36Z</time></trkpt><trkpt lat="44.5837804" lon="7.9573287"><ele>428.0</ele><time>2026-04-11T11:28:23.36Z</time></trkpt><trkpt lat="44.5836569" lon="7.957363"><ele>428.0</ele><time>2026-04-11T11:28:25.36Z</time></trkpt><trkpt lat="44.5835934" lon="7.9573745"><ele>428.0</ele><time>2026-04-11T11:28:26.36Z</time></trkpt><trkpt lat="44.5835284" lon="7.9573745"><ele>427.99999999999994</ele><time>2026-04-11T11:28:27.36Z</time></trkpt><trkpt lat="44.5834639" lon="7.9573649"><ele>428.0</ele><time>2026-04-11T11:28:28.36Z</time></trkpt><trkpt lat="44.5833997" lon="7.9573467"><ele>426.3333333333333</ele><time>2026-04-11T11:28:29.36Z</time></trkpt><trkpt lat="44.5833339" lon="7.9573157"><ele>424.66666666666663</ele><time>2026-04-11T11:28:30.36Z</time></trkpt><trkpt lat="44.583266" lon="7.9572751"><ele>423.0</ele><time>2026-04-11T11:28:31.36Z</time></trkpt><trkpt lat="44.583196" lon="7.9572266"><ele>421.33333333333337</ele><time>2026-04-11T11:28:32.359Z</time></trkpt><trkpt lat="44.5831262" lon="7.9571713"><ele>419.6666666666667</ele><time>2026-04-11T11:28:33.36Z</time></trkpt><trkpt lat="44.5830584" lon="7.9571081"><ele>418.0</ele><time>2026-04-11T11:28:34.36Z</time></trkpt><trkpt lat="44.5830003" lon="7.9570327"><ele>418.0</ele><time>2026-04-11T11:28:35.359Z</time></trkpt><trkpt lat="44.5829531" lon="7.9569447"><ele>418.0</ele><time>2026-04-11T11:28:36.36Z</time></trkpt><trkpt lat="44.5829219" lon="7.9568311"><ele>418.0</ele><time>2026-04-11T11:28:37.36Z</time></trkpt><trkpt lat="44.5829097" lon="7.9566907"><ele>418.0</ele><time>2026-04-11T11:28:38.36Z</time></trkpt><trkpt lat="44.5829021" lon="7.9565482"><ele>418.0</ele><time>2026-04-11T11:28:39.36Z</time></trkpt><trkpt lat="44.5828942" lon="7.95642"><ele>416.59999999999997</ele><time>2026-04-11T11:28:40.36Z</time></trkpt><trkpt lat="44.5828837" lon="7.9562838"><ele>415.2</ele><time>2026-04-11T11:28:41.36Z</time></trkpt><trkpt lat="44.5828687" lon="7.956145"><ele>413.8</ele><time>2026-04-11T11:28:42.36Z</time></trkpt><trkpt lat="44.5828476" lon="7.9559991"><ele>412.4</ele><time>2026-04-11T11:28:43.359Z</time></trkpt><trkpt lat="44.5828278" lon="7.9558527"><ele>411.0</ele><time>2026-04-11T11:28:44.36Z</time></trkpt><trkpt lat="44.5828118" lon="7.9557031"><ele>411.0</ele><time>2026-04-11T11:28:45.36Z</time></trkpt><trkpt lat="44.5827974" lon="7.9555545"><ele>411.0</ele><time>2026-04-11T11:28:46.36Z</time></trkpt><trkpt lat="44.5827841" lon="7.9554177"><ele>411.0</ele><time>2026-04-11T11:28:47.36Z</time></trkpt><trkpt lat="44.5827706" lon="7.9552939"><ele>411.0</ele><time>2026-04-11T11:28:48.36Z</time></trkpt><trkpt lat="44.5827574" lon="7.9551841"><ele>411.0</ele><time>2026-04-11T11:28:49.36Z</time></trkpt><trkpt lat="44.5827463" lon="7.9550799"><ele>411.0</ele><time>2026-04-11T11:28:50.359Z</time></trkpt><trkpt lat="44.5827393" lon="7.9549856"><ele>411.6</ele><time>2026-04-11T11:28:51.36Z</time></trkpt><trkpt lat="44.5827478" lon="7.9548256"><ele>412.20000000000005</ele><time>2026-04-11T11:28:53.36Z</time></trkpt><trkpt lat="44.5828023" lon="7.9546716"><ele>412.79999999999995</ele><time>2026-04-11T11:28:55.361Z</time></trkpt><trkpt lat="44.5828592" lon="7.95462"><ele>413.4</ele><time>2026-04-11T11:28:56.361Z</time></trkpt><trkpt lat="44.5829325" lon="7.954586"><ele>414.0</ele><time>2026-04-11T11:28:57.36Z</time></trkpt><trkpt lat="44.5830157" lon="7.9545642"><ele>414.0</ele><time>2026-04-11T11:28:58.361Z</time></trkpt><trkpt lat="44.5830947" lon="7.9545521"><ele>414.0</ele><time>2026-04-11T11:28:59.361Z</time></trkpt><trkpt lat="44.5831759" lon="7.9545403"><ele>414.0</ele><time>2026-04-11T11:29:00.361Z</time></trkpt><trkpt lat="44.5832563" lon="7.954521"><ele>414.0</ele><time>2026-04-11T11:29:01.36Z</time></trkpt><trkpt lat="44.5833379" lon="7.9544879"><ele>414.0</ele><time>2026-04-11T11:29:02.361Z</time></trkpt><trkpt lat="44.5834186" lon="7.9544452"><ele>414.0</ele><time>2026-04-11T11:29:03.36Z</time></trkpt><trkpt lat="44.5834981" lon="7.954395"><ele>414.0</ele><time>2026-04-11T11:29:04.361Z</time></trkpt><trkpt lat="44.5835787" lon="7.9543375"><ele>414.0</ele><time>2026-04-11T11:29:05.361Z</time></trkpt><trkpt lat="44.5836604" lon="7.9542744"><ele>414.0</ele><time>2026-04-11T11:29:06.361Z</time></trkpt><trkpt lat="44.5837417" lon="7.9542125"><ele>414.0</ele><time>2026-04-11T11:29:07.361Z</time></trkpt><trkpt lat="44.5838228" lon="7.9541497"><ele>414.0</ele><time>2026-04-11T11:29:08.361Z</time></trkpt><trkpt lat="44.5839037" lon="7.9540843"><ele>412.2</ele><time>2026-04-11T11:29:09.36Z</time></trkpt><trkpt lat="44.583985" lon="7.9540188"><ele>410.4</ele><time>2026-04-11T11:29:10.361Z</time></trkpt><trkpt lat="44.584066" lon="7.9539477"><ele>408.6</ele><time>2026-04-11T11:29:11.361Z</time></trkpt><trkpt lat="44.5841503" lon="7.9538772"><ele>406.8</ele><time>2026-04-11T11:29:12.361Z</time></trkpt><trkpt lat="44.5842348" lon="7.953809"><ele>405.0</ele><time>2026-04-11T11:29:13.36Z</time></trkpt><trkpt lat="44.5843229" lon="7.9537435"><ele>405.0</ele><time>2026-04-11T11:29:14.361Z</time></trkpt><trkpt lat="44.5844179" lon="7.9536794"><ele>405.0</ele><time>2026-04-11T11:29:15.361Z</time></trkpt><trkpt lat="44.5845155" lon="7.9536224"><ele>405.0</ele><time>2026-04-11T11:29:16.361Z</time></trkpt><trkpt lat="44.5846154" lon="7.9535763"><ele>405.0</ele><time>2026-04-11T11:29:17.361Z</time></trkpt><trkpt lat="44.5847124" lon="7.9535406"><ele>405.0</ele><time>2026-04-11T11:29:18.36Z</time></trkpt><trkpt lat="44.584804" lon="7.9535035"><ele>406.3333333333333</ele><time>2026-04-11T11:29:19.361Z</time></trkpt><trkpt lat="44.5848855" lon="7.9534582"><ele>407.66666666666663</ele><time>2026-04-11T11:29:20.361Z</time></trkpt><trkpt lat="44.5849588" lon="7.9534051"><ele>409.0</ele><time>2026-04-11T11:29:21.36Z</time></trkpt><trkpt lat="44.5850257" lon="7.9533405"><ele>410.3333333333333</ele><time>2026-04-11T11:29:22.361Z</time></trkpt><trkpt lat="44.58509" lon="7.953263"><ele>411.66666666666663</ele><time>2026-04-11T11:29:23.361Z</time></trkpt><trkpt lat="44.5851501" lon="7.9531672"><ele>413.0</ele><time>2026-04-11T11:29:24.361Z</time></trkpt><trkpt lat="44.5852038" lon="7.953054"><ele>411.0</ele><time>2026-04-11T11:29:25.361Z</time></trkpt><trkpt lat="44.5852508" lon="7.9529299"><ele>409.0</ele><time>2026-04-11T11:29:26.361Z</time></trkpt><trkpt lat="44.5852902" lon="7.9527971"><ele>407.0</ele><time>2026-04-11T11:29:27.361Z</time></trkpt><trkpt lat="44.5853238" lon="7.9526547"><ele>405.0</ele><time>2026-04-11T11:29:28.361Z</time></trkpt><trkpt lat="44.5853545" lon="7.952511"><ele>403.0</ele><time>2026-04-11T11:29:29.36Z</time></trkpt><trkpt lat="44.5853848" lon="7.9523693"><ele>403.0</ele><time>2026-04-11T11:29:30.361Z</time></trkpt><trkpt lat="44.5854178" lon="7.9522275"><ele>403.0</ele><time>2026-04-11T11:29:31.36Z</time></trkpt><trkpt lat="44.5854511" lon="7.9520934"><ele>403.0</ele><time>2026-04-11T11:29:32.361Z</time></trkpt><trkpt lat="44.5854803" lon="7.9519717"><ele>403.0</ele><time>2026-04-11T11:29:33.361Z</time></trkpt><trkpt lat="44.5855019" lon="7.9518504"><ele>403.0</ele><time>2026-04-11T11:29:34.361Z</time></trkpt><trkpt lat="44.58552" lon="7.9517326"><ele>401.33333333333337</ele><time>2026-04-11T11:29:35.361Z</time></trkpt><trkpt lat="44.5855298" lon="7.9516178"><ele>399.6666666666667</ele><time>2026-04-11T11:29:36.361Z</time></trkpt><trkpt lat="44.5855267" lon="7.9515059"><ele>398.0</ele><time>2026-04-11T11:29:37.361Z</time></trkpt><trkpt lat="44.5855143" lon="7.9513949"><ele>396.33333333333337</ele><time>2026-04-11T11:29:38.361Z</time></trkpt><trkpt lat="44.5854932" lon="7.951291"><ele>394.6666666666667</ele><time>2026-04-11T11:29:39.361Z</time></trkpt><trkpt lat="44.5854633" lon="7.9511887"><ele>393.0</ele><time>2026-04-11T11:29:40.36Z</time></trkpt><trkpt lat="44.5854277" lon="7.9510909"><ele>393.0</ele><time>2026-04-11T11:29:41.361Z</time></trkpt><trkpt lat="44.5853905" lon="7.9509893"><ele>393.0</ele><time>2026-04-11T11:29:42.361Z</time></trkpt><trkpt lat="44.5853579" lon="7.9508857"><ele>393.0</ele><time>2026-04-11T11:29:43.361Z</time></trkpt><trkpt lat="44.5853234" lon="7.9507861"><ele>393.0</ele><time>2026-04-11T11:29:44.361Z</time></trkpt><trkpt lat="44.5852909" lon="7.9506945"><ele>393.0</ele><time>2026-04-11T11:29:45.36Z</time></trkpt><trkpt lat="44.585261" lon="7.9506097"><ele>393.0</ele><time>2026-04-11T11:29:46.361Z</time></trkpt><trkpt lat="44.585207" lon="7.9504587"><ele>386.59999999999997</ele><time>2026-04-11T11:29:48.361Z</time></trkpt><trkpt lat="44.5851817" lon="7.9503256"><ele>380.2</ele><time>2026-04-11T11:29:50.361Z</time></trkpt><trkpt lat="44.5851757" lon="7.9502023"><ele>373.8</ele><time>2026-04-11T11:29:52.36Z</time></trkpt><trkpt lat="44.5851796" lon="7.9500964"><ele>367.4</ele><time>2026-04-11T11:29:54.361Z</time></trkpt><trkpt lat="44.5852022" lon="7.9500091"><ele>361.0</ele><time>2026-04-11T11:29:56.361Z</time></trkpt><trkpt lat="44.5852637" lon="7.9498346"><ele>362.2857142857143</ele><time>2026-04-11T11:32:01.363Z</time></trkpt><trkpt lat="44.5853481" lon="7.9497988"><ele>363.57142857142856</ele><time>2026-04-11T11:32:04.371Z</time></trkpt><trkpt lat="44.5854245" lon="7.9498342"><ele>364.85714285714283</ele><time>2026-04-11T11:32:06.472Z</time></trkpt><trkpt lat="44.5854911" lon="7.9498424"><ele>366.1428571428571</ele><time>2026-04-11T11:32:08.373Z</time></trkpt><trkpt lat="44.5855596" lon="7.9498431"><ele>367.42857142857144</ele><time>2026-04-11T11:32:10.39Z</time></trkpt><trkpt lat="44.5856291" lon="7.9498457"><ele>368.71428571428567</ele><time>2026-04-11T11:32:12.391Z</time></trkpt><trkpt lat="44.5856971" lon="7.9498504"><ele>370.0</ele><time>2026-04-11T11:32:14.391Z</time></trkpt><trkpt lat="44.5857661" lon="7.9498522"><ele>369.99999999999994</ele><time>2026-04-11T11:32:16.391Z</time></trkpt><trkpt lat="44.5858382" lon="7.9498466"><ele>370.0</ele><time>2026-04-11T11:32:18.486Z</time></trkpt><trkpt lat="44.5859018" lon="7.9498235"><ele>370.0</ele><time>2026-04-11T11:32:20.409Z</time></trkpt><trkpt lat="44.5859685" lon="7.9497903"><ele>370.0</ele><time>2026-04-11T11:32:22.414Z</time></trkpt><trkpt lat="44.5860356" lon="7.9497544"><ele>370.0</ele><time>2026-04-11T11:32:24.415Z</time></trkpt><trkpt lat="44.5860985" lon="7.9497108"><ele>369.99999999999994</ele><time>2026-04-11T11:32:26.416Z</time></trkpt><trkpt lat="44.5861603" lon="7.9496551"><ele>370.0</ele><time>2026-04-11T11:32:28.432Z</time></trkpt><trkpt lat="44.5862201" lon="7.9495994"><ele>371.71428571428567</ele><time>2026-04-11T11:32:30.433Z</time></trkpt><trkpt lat="44.5862794" lon="7.9495523"><ele>373.42857142857144</ele><time>2026-04-11T11:32:32.434Z</time></trkpt><trkpt lat="44.5863363" lon="7.949513"><ele>375.1428571428571</ele><time>2026-04-11T11:32:34.45Z</time></trkpt><trkpt lat="44.5863925" lon="7.949468"><ele>376.85714285714283</ele><time>2026-04-11T11:32:36.452Z</time></trkpt><trkpt lat="44.5864485" lon="7.9494186"><ele>378.57142857142856</ele><time>2026-04-11T11:32:38.451Z</time></trkpt><trkpt lat="44.5865072" lon="7.9493806"><ele>380.2857142857143</ele><time>2026-04-11T11:32:40.453Z</time></trkpt><trkpt lat="44.5865654" lon="7.9493443"><ele>382.0</ele><time>2026-04-11T11:32:42.453Z</time></trkpt><trkpt lat="44.5866273" lon="7.9493151"><ele>382.0</ele><time>2026-04-11T11:32:44.469Z</time></trkpt><trkpt lat="44.5866904" lon="7.9493012"><ele>382.0</ele><time>2026-04-11T11:32:46.471Z</time></trkpt><trkpt lat="44.5867789" lon="7.9493134"><ele>382.0</ele><time>2026-04-11T11:32:49.336Z</time></trkpt><trkpt lat="44.5868395" lon="7.9493504"><ele>382.0</ele><time>2026-04-11T11:32:51.389Z</time></trkpt><trkpt lat="44.5869004" lon="7.9493971"><ele>382.0</ele><time>2026-04-11T11:32:53.389Z</time></trkpt><trkpt lat="44.5869561" lon="7.9494558"><ele>382.0</ele><time>2026-04-11T11:32:55.423Z</time></trkpt><trkpt lat="44.5870044" lon="7.9495226"><ele>382.0</ele><time>2026-04-11T11:32:57.423Z</time></trkpt><trkpt lat="44.5870539" lon="7.9495898"><ele>381.7142857142857</ele><time>2026-04-11T11:32:59.424Z</time></trkpt><trkpt lat="44.5870963" lon="7.9496611"><ele>381.4285714285714</ele><time>2026-04-11T11:33:01.441Z</time></trkpt><trkpt lat="44.5871635" lon="7.9497562"><ele>381.1428571428571</ele><time>2026-04-11T11:33:04.375Z</time></trkpt><trkpt lat="44.5872086" lon="7.9498235"><ele>380.8571428571429</ele><time>2026-04-11T11:33:06.409Z</time></trkpt><trkpt lat="44.5872489" lon="7.9499032"><ele>380.57142857142856</ele><time>2026-04-11T11:33:08.443Z</time></trkpt><trkpt lat="44.5872939" lon="7.9499803"><ele>380.2857142857143</ele><time>2026-04-11T11:33:10.444Z</time></trkpt><trkpt lat="44.5873417" lon="7.950055"><ele>380.0</ele><time>2026-04-11T11:33:12.444Z</time></trkpt><trkpt lat="44.587389" lon="7.9501243"><ele>380.0</ele><time>2026-04-11T11:33:14.444Z</time></trkpt><trkpt lat="44.5874325" lon="7.9502028"><ele>380.0</ele><time>2026-04-11T11:33:16.445Z</time></trkpt><trkpt lat="44.587476" lon="7.9502722"><ele>380.0</ele><time>2026-04-11T11:33:18.445Z</time></trkpt><trkpt lat="44.5874969" lon="7.9503626"><ele>380.0</ele><time>2026-04-11T11:34:32.299Z</time></trkpt><trkpt lat="44.5875625" lon="7.9504219"><ele>380.0</ele><time>2026-04-11T11:34:34.415Z</time></trkpt><trkpt lat="44.5876087" lon="7.950483"><ele>380.0</ele><time>2026-04-11T11:34:36.415Z</time></trkpt><trkpt lat="44.5876587" lon="7.9505628"><ele>380.0</ele><time>2026-04-11T11:34:38.416Z</time></trkpt><trkpt lat="44.5877134" lon="7.9506346"><ele>380.0</ele><time>2026-04-11T11:34:40.374Z</time></trkpt><trkpt lat="44.5877687" lon="7.9507058"><ele>380.0</ele><time>2026-04-11T11:34:42.435Z</time></trkpt><trkpt lat="44.5878231" lon="7.9507844"><ele>380.0</ele><time>2026-04-11T11:34:44.452Z</time></trkpt><trkpt lat="44.587876" lon="7.9508666"><ele>380.0</ele><time>2026-04-11T11:34:46.452Z</time></trkpt><trkpt lat="44.5879308" lon="7.9509509"><ele>380.0</ele><time>2026-04-11T11:34:48.453Z</time></trkpt><trkpt lat="44.5879864" lon="7.9510392"><ele>380.0</ele><time>2026-04-11T11:34:50.47Z</time></trkpt><trkpt lat="44.5880362" lon="7.951125"><ele>380.0</ele><time>2026-04-11T11:34:52.371Z</time></trkpt><trkpt lat="44.5880894" lon="7.9512153"><ele>380.0</ele><time>2026-04-11T11:34:54.388Z</time></trkpt><trkpt lat="44.5881423" lon="7.9513008"><ele>380.0</ele><time>2026-04-11T11:34:56.389Z</time></trkpt><trkpt lat="44.5881991" lon="7.9513826"><ele>380.0</ele><time>2026-04-11T11:34:58.406Z</time></trkpt><trkpt lat="44.5882544" lon="7.9514591"><ele>380.0</ele><time>2026-04-11T11:35:00.337Z</time></trkpt><trkpt lat="44.5883079" lon="7.9515395"><ele>380.0</ele><time>2026-04-11T11:35:02.407Z</time></trkpt><trkpt lat="44.5883573" lon="7.9516238"><ele>382.0</ele><time>2026-04-11T11:35:04.408Z</time></trkpt><trkpt lat="44.5884133" lon="7.9517305"><ele>384.0</ele><time>2026-04-11T11:35:06.407Z</time></trkpt><trkpt lat="44.5884823" lon="7.9518316"><ele>386.0</ele><time>2026-04-11T11:35:08.425Z</time></trkpt><trkpt lat="44.5885415" lon="7.9519082"><ele>388.0</ele><time>2026-04-11T11:35:10.426Z</time></trkpt><trkpt lat="44.5886038" lon="7.9519542"><ele>389.99999999999994</ele><time>2026-04-11T11:35:12.416Z</time></trkpt><trkpt lat="44.5886737" lon="7.9519352"><ele>392.0</ele><time>2026-04-11T11:35:14.427Z</time></trkpt><trkpt lat="44.5887578" lon="7.9518937"><ele>392.20000000000005</ele><time>2026-04-11T11:35:16.366Z</time></trkpt><trkpt lat="44.5888604" lon="7.9518609"><ele>392.4</ele><time>2026-04-11T11:35:18.366Z</time></trkpt><trkpt lat="44.5889564" lon="7.9518242"><ele>392.6</ele><time>2026-04-11T11:35:20.366Z</time></trkpt><trkpt lat="44.5890477" lon="7.9517805"><ele>392.79999999999995</ele><time>2026-04-11T11:35:22.366Z</time></trkpt><trkpt lat="44.5891289" lon="7.9517313"><ele>393.0</ele><time>2026-04-11T11:35:24.366Z</time></trkpt><trkpt lat="44.5892068" lon="7.9516971"><ele>390.5</ele><time>2026-04-11T11:35:26.366Z</time></trkpt><trkpt lat="44.5892764" lon="7.9516617"><ele>388.0</ele><time>2026-04-11T11:35:28.365Z</time></trkpt><trkpt lat="44.589351" lon="7.9516243"><ele>385.5</ele><time>2026-04-11T11:35:30.366Z</time></trkpt><trkpt lat="44.5894287" lon="7.9515942"><ele>383.0</ele><time>2026-04-11T11:35:32.366Z</time></trkpt><trkpt lat="44.5895012" lon="7.9515731"><ele>380.5</ele><time>2026-04-11T11:35:34.366Z</time></trkpt><trkpt lat="44.5895793" lon="7.9515584"><ele>378.0</ele><time>2026-04-11T11:35:36.365Z</time></trkpt><trkpt lat="44.5896588" lon="7.9515704"><ele>378.0</ele><time>2026-04-11T11:35:38.366Z</time></trkpt><trkpt lat="44.5897337" lon="7.9515788"><ele>378.0</ele><time>2026-04-11T11:35:40.366Z</time></trkpt><trkpt lat="44.5898093" lon="7.9515928"><ele>378.0</ele><time>2026-04-11T11:35:42.366Z</time></trkpt><trkpt lat="44.5898821" lon="7.9516285"><ele>378.0</ele><time>2026-04-11T11:35:44.365Z</time></trkpt><trkpt lat="44.5899555" lon="7.9516502"><ele>378.0</ele><time>2026-04-11T11:35:46.366Z</time></trkpt><trkpt lat="44.5900234" lon="7.9516667"><ele>378.0</ele><time>2026-04-11T11:35:48.366Z</time></trkpt><trkpt lat="44.5900935" lon="7.9516901"><ele>378.0</ele><time>2026-04-11T11:35:50.366Z</time></trkpt><trkpt lat="44.5901662" lon="7.9517215"><ele>379.85714285714283</ele><time>2026-04-11T11:35:52.365Z</time></trkpt><trkpt lat="44.5902336" lon="7.9517478"><ele>381.7142857142857</ele><time>2026-04-11T11:35:54.366Z</time></trkpt><trkpt lat="44.5903019" lon="7.9517704"><ele>383.57142857142856</ele><time>2026-04-11T11:35:56.366Z</time></trkpt><trkpt lat="44.5903659" lon="7.9518185"><ele>385.42857142857144</ele><time>2026-04-11T11:35:58.366Z</time></trkpt><trkpt lat="44.590431" lon="7.9518671"><ele>387.2857142857143</ele><time>2026-04-11T11:36:00.366Z</time></trkpt><trkpt lat="44.5905013" lon="7.9519234"><ele>389.1428571428571</ele><time>2026-04-11T11:36:02.365Z</time></trkpt><trkpt lat="44.590566" lon="7.9519898"><ele>391.0</ele><time>2026-04-11T11:36:04.366Z</time></trkpt><trkpt lat="44.5906268" lon="7.9520482"><ele>390.99999999999994</ele><time>2026-04-11T11:36:06.366Z</time></trkpt><trkpt lat="44.5906777" lon="7.9521029"><ele>391.0</ele><time>2026-04-11T11:36:08.365Z</time></trkpt><trkpt lat="44.5907214" lon="7.9521685"><ele>391.0</ele><time>2026-04-11T11:36:10.366Z</time></trkpt><trkpt lat="44.590775" lon="7.952227"><ele>391.0</ele><time>2026-04-11T11:36:12.367Z</time></trkpt><trkpt lat="44.5908312" lon="7.9522751"><ele>391.0</ele><time>2026-04-11T11:36:14.367Z</time></trkpt><trkpt lat="44.5908879" lon="7.9523224"><ele>390.99999999999994</ele><time>2026-04-11T11:36:16.365Z</time></trkpt><trkpt lat="44.5909727" lon="7.9523754"><ele>391.0</ele><time>2026-04-11T11:36:19.366Z</time></trkpt><trkpt lat="44.5910392" lon="7.9523804"><ele>391.00000000000006</ele><time>2026-04-11T11:36:21.366Z</time></trkpt><trkpt lat="44.5911113" lon="7.9523762"><ele>391.0</ele><time>2026-04-11T11:36:23.366Z</time></trkpt><trkpt lat="44.591191" lon="7.9523405"><ele>391.0</ele><time>2026-04-11T11:36:25.367Z</time></trkpt><trkpt lat="44.5912711" lon="7.9522744"><ele>391.0</ele><time>2026-04-11T11:36:27.367Z</time></trkpt><trkpt lat="44.5913383" lon="7.9522043"><ele>391.00000000000006</ele><time>2026-04-11T11:36:29.367Z</time></trkpt><trkpt lat="44.5913906" lon="7.9521127"><ele>391.0</ele><time>2026-04-11T11:36:31.367Z</time></trkpt><trkpt lat="44.5914482" lon="7.9520312"><ele>391.0</ele><time>2026-04-11T11:36:33.367Z</time></trkpt><trkpt lat="44.5915038" lon="7.9519351"><ele>391.0</ele><time>2026-04-11T11:36:35.367Z</time></trkpt><trkpt lat="44.5915567" lon="7.9518338"><ele>391.0</ele><time>2026-04-11T11:36:37.367Z</time></trkpt><trkpt lat="44.591613" lon="7.9517424"><ele>391.0</ele><time>2026-04-11T11:36:39.367Z</time></trkpt><trkpt lat="44.5916739" lon="7.9516345"><ele>391.0</ele><time>2026-04-11T11:36:41.367Z</time></trkpt><trkpt lat="44.5917397" lon="7.9515263"><ele>389.20000000000005</ele><time>2026-04-11T11:36:43.367Z</time></trkpt><trkpt lat="44.5918038" lon="7.9514132"><ele>387.40000000000003</ele><time>2026-04-11T11:36:45.367Z</time></trkpt><trkpt lat="44.5918738" lon="7.9512909"><ele>385.6</ele><time>2026-04-11T11:36:47.367Z</time></trkpt><trkpt lat="44.5919425" lon="7.9511662"><ele>383.8</ele><time>2026-04-11T11:36:49.367Z</time></trkpt><trkpt lat="44.5920046" lon="7.9510407"><ele>382.0</ele><time>2026-04-11T11:36:51.367Z</time></trkpt><trkpt lat="44.5920599" lon="7.9509237"><ele>380.5</ele><time>2026-04-11T11:36:53.367Z</time></trkpt><trkpt lat="44.5921057" lon="7.950808"><ele>379.0</ele><time>2026-04-11T11:36:55.367Z</time></trkpt><trkpt lat="44.592149" lon="7.9506941"><ele>377.5</ele><time>2026-04-11T11:36:57.367Z</time></trkpt><trkpt lat="44.5921921" lon="7.9505894"><ele>376.0</ele><time>2026-04-11T11:36:59.367Z</time></trkpt><trkpt lat="44.5922244" lon="7.950513"><ele>374.5</ele><time>2026-04-11T11:37:01.367Z</time></trkpt><trkpt lat="44.5921697" lon="7.9504543"><ele>373.0</ele><time>2026-04-11T11:39:26.403Z</time></trkpt><trkpt lat="44.5921045" lon="7.95051"><ele>373.0</ele><time>2026-04-11T11:39:30.42Z</time></trkpt><trkpt lat="44.5920747" lon="7.9505936"><ele>373.0</ele><time>2026-04-11T11:39:32.42Z</time></trkpt><trkpt lat="44.5920508" lon="7.9507286"><ele>373.0</ele><time>2026-04-11T11:39:34.438Z</time></trkpt><trkpt lat="44.5920208" lon="7.9508445"><ele>373.0</ele><time>2026-04-11T11:39:36.431Z</time></trkpt><trkpt lat="44.5920071" lon="7.9509415"><ele>373.0</ele><time>2026-04-11T11:39:38.456Z</time></trkpt><trkpt lat="44.5920055" lon="7.9510404"><ele>373.0</ele><time>2026-04-11T11:39:41.457Z</time></trkpt><trkpt lat="44.5920626" lon="7.9510991"><ele>373.8571428571429</ele><time>2026-04-11T11:39:47.368Z</time></trkpt><trkpt lat="44.5921308" lon="7.9511476"><ele>374.7142857142857</ele><time>2026-04-11T11:40:16.37Z</time></trkpt><trkpt lat="44.5921956" lon="7.9511886"><ele>375.57142857142856</ele><time>2026-04-11T11:40:18.37Z</time></trkpt><trkpt lat="44.5922633" lon="7.9512306"><ele>376.42857142857144</ele><time>2026-04-11T11:40:20.37Z</time></trkpt><trkpt lat="44.5923298" lon="7.95127"><ele>377.2857142857143</ele><time>2026-04-11T11:40:22.37Z</time></trkpt><trkpt lat="44.5923989" lon="7.9513127"><ele>378.14285714285717</ele><time>2026-04-11T11:40:24.37Z</time></trkpt><trkpt lat="44.5924757" lon="7.9513272"><ele>379.0</ele><time>2026-04-11T11:40:26.369Z</time></trkpt><trkpt lat="44.5925518" lon="7.9513464"><ele>379.0</ele><time>2026-04-11T11:40:28.37Z</time></trkpt><trkpt lat="44.5926266" lon="7.9513951"><ele>379.0</ele><time>2026-04-11T11:40:30.369Z</time></trkpt><trkpt lat="44.5927077" lon="7.9514467"><ele>379.0</ele><time>2026-04-11T11:40:32.37Z</time></trkpt><trkpt lat="44.5927784" lon="7.9515047"><ele>379.0</ele><time>2026-04-11T11:40:34.37Z</time></trkpt><trkpt lat="44.5928388" lon="7.9515949"><ele>379.0</ele><time>2026-04-11T11:40:36.369Z</time></trkpt><trkpt lat="44.5928967" lon="7.9516972"><ele>379.0</ele><time>2026-04-11T11:40:38.369Z</time></trkpt><trkpt lat="44.5929488" lon="7.9517897"><ele>379.3333333333333</ele><time>2026-04-11T11:40:40.37Z</time></trkpt><trkpt lat="44.5929939" lon="7.9518898"><ele>379.66666666666663</ele><time>2026-04-11T11:40:42.37Z</time></trkpt><trkpt lat="44.5930331" lon="7.9519847"><ele>380.0</ele><time>2026-04-11T11:40:44.369Z</time></trkpt><trkpt lat="44.5930552" lon="7.9520717"><ele>380.3333333333333</ele><time>2026-04-11T11:40:46.37Z</time></trkpt><trkpt lat="44.5930656" lon="7.9521947"><ele>380.6666666666667</ele><time>2026-04-11T11:40:49.37Z</time></trkpt><trkpt lat="44.5930853" lon="7.9522809"><ele>381.0</ele><time>2026-04-11T11:40:51.37Z</time></trkpt><trkpt lat="44.5930978" lon="7.9524084"><ele>381.0</ele><time>2026-04-11T11:40:54.37Z</time></trkpt><trkpt lat="44.5931034" lon="7.9525376"><ele>381.0</ele><time>2026-04-11T11:40:57.37Z</time></trkpt><trkpt lat="44.5931296" lon="7.9526361"><ele>381.0</ele><time>2026-04-11T11:41:00.37Z</time></trkpt><trkpt lat="44.5931884" lon="7.9526933"><ele>381.0</ele><time>2026-04-11T11:41:03.37Z</time></trkpt><trkpt lat="44.593253" lon="7.9527141"><ele>381.0</ele><time>2026-04-11T11:41:05.37Z</time></trkpt><trkpt lat="44.5933227" lon="7.9526974"><ele>381.0</ele><time>2026-04-11T11:41:07.37Z</time></trkpt><trkpt lat="44.5933911" lon="7.9526443"><ele>381.0</ele><time>2026-04-11T11:41:09.371Z</time></trkpt><trkpt lat="44.5934473" lon="7.9525684"><ele>381.0</ele><time>2026-04-11T11:41:11.371Z</time></trkpt><trkpt lat="44.5934996" lon="7.95249"><ele>381.0</ele><time>2026-04-11T11:41:13.37Z</time></trkpt><trkpt lat="44.593553" lon="7.9524189"><ele>381.0</ele><time>2026-04-11T11:41:15.37Z</time></trkpt><trkpt lat="44.5936078" lon="7.952333"><ele>381.0</ele><time>2026-04-11T11:41:17.371Z</time></trkpt><trkpt lat="44.5936623" lon="7.9522577"><ele>381.0</ele><time>2026-04-11T11:41:19.371Z</time></trkpt><trkpt lat="44.593716" lon="7.9521817"><ele>383.0</ele><time>2026-04-11T11:41:21.37Z</time></trkpt><trkpt lat="44.5937657" lon="7.9521054"><ele>385.0</ele><time>2026-04-11T11:41:23.371Z</time></trkpt><trkpt lat="44.5938152" lon="7.9520408"><ele>387.0</ele><time>2026-04-11T11:41:25.371Z</time></trkpt><trkpt lat="44.5938622" lon="7.9519765"><ele>389.0</ele><time>2026-04-11T11:41:27.371Z</time></trkpt><trkpt lat="44.5938987" lon="7.9519039"><ele>391.0</ele><time>2026-04-11T11:41:29.371Z</time></trkpt><trkpt lat="44.5939487" lon="7.9518467"><ele>393.0</ele><time>2026-04-11T11:41:31.371Z</time></trkpt><trkpt lat="44.5940035" lon="7.9517929"><ele>395.0</ele><time>2026-04-11T11:41:33.37Z</time></trkpt><trkpt lat="44.5940506" lon="7.9517288"><ele>392.99999999999994</ele><time>2026-04-11T11:41:35.371Z</time></trkpt><trkpt lat="44.5940981" lon="7.9516673"><ele>391.0</ele><time>2026-04-11T11:41:37.371Z</time></trkpt><trkpt lat="44.5941472" lon="7.9516105"><ele>389.0</ele><time>2026-04-11T11:41:39.371Z</time></trkpt><trkpt lat="44.5942167" lon="7.9515242"><ele>387.0</ele><time>2026-04-11T11:41:42.371Z</time></trkpt><trkpt lat="44.5942938" lon="7.9514429"><ele>385.0</ele><time>2026-04-11T11:41:45.371Z</time></trkpt><trkpt lat="44.5943691" lon="7.9513571"><ele>383.0</ele><time>2026-04-11T11:41:48.371Z</time></trkpt><trkpt lat="44.5944384" lon="7.9513036"><ele>385.59999999999997</ele><time>2026-04-11T11:41:50.371Z</time></trkpt><trkpt lat="44.594516" lon="7.9512465"><ele>388.2</ele><time>2026-04-11T11:41:52.37Z</time></trkpt><trkpt lat="44.5945996" lon="7.9511804"><ele>390.8</ele><time>2026-04-11T11:41:54.37Z</time></trkpt><trkpt lat="44.5946948" lon="7.9511492"><ele>393.4</ele><time>2026-04-11T11:41:56.371Z</time></trkpt><trkpt lat="44.5947876" lon="7.9511074"><ele>396.0</ele><time>2026-04-11T11:41:58.371Z</time></trkpt><trkpt lat="44.5948692" lon="7.9510498"><ele>396.0</ele><time>2026-04-11T11:42:00.37Z</time></trkpt><trkpt lat="44.5949657" lon="7.9510011"><ele>396.0</ele><time>2026-04-11T11:42:02.371Z</time></trkpt><trkpt lat="44.5950676" lon="7.9509505"><ele>396.0</ele><time>2026-04-11T11:42:04.37Z</time></trkpt><trkpt lat="44.5951717" lon="7.9508816"><ele>396.0</ele><time>2026-04-11T11:42:06.371Z</time></trkpt><trkpt lat="44.5952722" lon="7.9508225"><ele>396.0</ele><time>2026-04-11T11:42:08.371Z</time></trkpt><trkpt lat="44.5953771" lon="7.950775"><ele>393.6</ele><time>2026-04-11T11:42:10.371Z</time></trkpt><trkpt lat="44.5954841" lon="7.9507145"><ele>391.20000000000005</ele><time>2026-04-11T11:42:12.371Z</time></trkpt><trkpt lat="44.595592" lon="7.9506589"><ele>388.79999999999995</ele><time>2026-04-11T11:42:14.371Z</time></trkpt><trkpt lat="44.5956928" lon="7.9506095"><ele>386.4</ele><time>2026-04-11T11:42:16.371Z</time></trkpt><trkpt lat="44.5957947" lon="7.9505547"><ele>384.0</ele><time>2026-04-11T11:42:18.372Z</time></trkpt><trkpt lat="44.5958927" lon="7.9504953"><ele>384.0</ele><time>2026-04-11T11:42:20.371Z</time></trkpt><trkpt lat="44.5959921" lon="7.9504453"><ele>384.0</ele><time>2026-04-11T11:42:22.371Z</time></trkpt><trkpt lat="44.596087" lon="7.9503965"><ele>384.0</ele><time>2026-04-11T11:42:24.371Z</time></trkpt><trkpt lat="44.5961735" lon="7.9503363"><ele>384.0</ele><time>2026-04-11T11:42:26.371Z</time></trkpt><trkpt lat="44.5962639" lon="7.9502937"><ele>384.0</ele><time>2026-04-11T11:42:28.371Z</time></trkpt><trkpt lat="44.5963583" lon="7.9502562"><ele>385.4</ele><time>2026-04-11T11:42:30.371Z</time></trkpt><trkpt lat="44.5964596" lon="7.9502066"><ele>386.79999999999995</ele><time>2026-04-11T11:42:32.372Z</time></trkpt><trkpt lat="44.5965632" lon="7.9501699"><ele>388.20000000000005</ele><time>2026-04-11T11:42:34.372Z</time></trkpt><trkpt lat="44.5966696" lon="7.9501382"><ele>389.6</ele><time>2026-04-11T11:42:36.371Z</time></trkpt><trkpt lat="44.5967793" lon="7.9501013"><ele>391.0</ele><time>2026-04-11T11:42:38.371Z</time></trkpt><trkpt lat="44.5968921" lon="7.9500592"><ele>388.71428571428567</ele><time>2026-04-11T11:42:40.372Z</time></trkpt><trkpt lat="44.5969569" lon="7.9500352"><ele>386.42857142857144</ele><time>2026-04-11T11:42:41.372Z</time></trkpt><trkpt lat="44.5970259" lon="7.9500073"><ele>384.1428571428571</ele><time>2026-04-11T11:42:42.372Z</time></trkpt><trkpt lat="44.597096" lon="7.949979"><ele>381.85714285714283</ele><time>2026-04-11T11:42:43.372Z</time></trkpt><trkpt lat="44.5971687" lon="7.949949"><ele>379.57142857142856</ele><time>2026-04-11T11:42:44.372Z</time></trkpt><trkpt lat="44.5972409" lon="7.9499162"><ele>377.2857142857143</ele><time>2026-04-11T11:42:45.372Z</time></trkpt><trkpt lat="44.5973151" lon="7.9498774"><ele>375.0</ele><time>2026-04-11T11:42:46.372Z</time></trkpt><trkpt lat="44.5973861" lon="7.9498343"><ele>375.0</ele><time>2026-04-11T11:42:47.372Z</time></trkpt><trkpt lat="44.5974567" lon="7.9497949"><ele>375.0</ele><time>2026-04-11T11:42:48.372Z</time></trkpt><trkpt lat="44.5975284" lon="7.9497586"><ele>375.0</ele><time>2026-04-11T11:42:49.372Z</time></trkpt><trkpt lat="44.5976039" lon="7.9497266"><ele>375.0</ele><time>2026-04-11T11:42:50.372Z</time></trkpt><trkpt lat="44.5976841" lon="7.9496943"><ele>375.0</ele><time>2026-04-11T11:42:51.372Z</time></trkpt><trkpt lat="44.5977609" lon="7.9496562"><ele>375.0</ele><time>2026-04-11T11:42:52.372Z</time></trkpt><trkpt lat="44.5978331" lon="7.9496143"><ele>377.1666666666667</ele><time>2026-04-11T11:42:53.371Z</time></trkpt><trkpt lat="44.5979096" lon="7.9495707"><ele>379.33333333333337</ele><time>2026-04-11T11:42:54.372Z</time></trkpt><trkpt lat="44.5979821" lon="7.9495262"><ele>381.5</ele><time>2026-04-11T11:42:55.372Z</time></trkpt><trkpt lat="44.5980418" lon="7.949492"><ele>383.6666666666667</ele><time>2026-04-11T11:42:56.371Z</time></trkpt><trkpt lat="44.5981589" lon="7.9494394"><ele>385.83333333333337</ele><time>2026-04-11T11:42:58.371Z</time></trkpt><trkpt lat="44.5982206" lon="7.9494165"><ele>388.0</ele><time>2026-04-11T11:42:59.372Z</time></trkpt><trkpt lat="44.5983014" lon="7.9493908"><ele>388.00000000000006</ele><time>2026-04-11T11:43:01.372Z</time></trkpt><trkpt lat="44.5983622" lon="7.9493556"><ele>388.0</ele><time>2026-04-11T11:43:48.438Z</time></trkpt><trkpt lat="44.5984531" lon="7.9493496"><ele>388.0</ele><time>2026-04-11T11:43:51.439Z</time></trkpt><trkpt lat="44.5985291" lon="7.9493314"><ele>388.0</ele><time>2026-04-11T11:43:53.455Z</time></trkpt><trkpt lat="44.5986097" lon="7.9492861"><ele>388.00000000000006</ele><time>2026-04-11T11:43:56.455Z</time></trkpt><trkpt lat="44.5986697" lon="7.9492429"><ele>388.0</ele><time>2026-04-11T11:43:58.39Z</time></trkpt><trkpt lat="44.5987328" lon="7.9491996"><ele>385.57142857142856</ele><time>2026-04-11T11:44:00.424Z</time></trkpt><trkpt lat="44.5987926" lon="7.9491655"><ele>383.14285714285717</ele><time>2026-04-11T11:44:02.457Z</time></trkpt><trkpt lat="44.5988623" lon="7.9491315"><ele>380.7142857142857</ele><time>2026-04-11T11:44:04.457Z</time></trkpt><trkpt lat="44.5989233" lon="7.9490997"><ele>378.2857142857143</ele><time>2026-04-11T11:44:06.373Z</time></trkpt><trkpt lat="44.5989927" lon="7.9490824"><ele>375.8571428571429</ele><time>2026-04-11T11:44:08.392Z</time></trkpt><trkpt lat="44.5990607" lon="7.9490811"><ele>373.42857142857144</ele><time>2026-04-11T11:44:10.392Z</time></trkpt><trkpt lat="44.5991321" lon="7.9491035"><ele>371.0</ele><time>2026-04-11T11:44:13.373Z</time></trkpt><trkpt lat="44.5991944" lon="7.9491721"><ele>373.2857142857143</ele><time>2026-04-11T11:44:18.373Z</time></trkpt><trkpt lat="44.5992402" lon="7.9492472"><ele>375.57142857142856</ele><time>2026-04-11T11:44:21.373Z</time></trkpt><trkpt lat="44.5992966" lon="7.9493418"><ele>377.8571428571429</ele><time>2026-04-11T11:44:24.373Z</time></trkpt><trkpt lat="44.5993262" lon="7.9494404"><ele>380.1428571428571</ele><time>2026-04-11T11:44:27.372Z</time></trkpt><trkpt lat="44.5993297" lon="7.9495323"><ele>382.42857142857144</ele><time>2026-04-11T11:44:30.373Z</time></trkpt><trkpt lat="44.5993356" lon="7.9496488"><ele>384.7142857142857</ele><time>2026-04-11T11:44:34.373Z</time></trkpt><trkpt lat="44.5993422" lon="7.9497415"><ele>387.0</ele><time>2026-04-11T11:44:37.372Z</time></trkpt><trkpt lat="44.5993577" lon="7.9498319"><ele>387.0</ele><time>2026-04-11T11:44:40.372Z</time></trkpt><trkpt lat="44.5993612" lon="7.9499315"><ele>387.0</ele><time>2026-04-11T11:44:43.373Z</time></trkpt><trkpt lat="44.5993627" lon="7.950032"><ele>387.0</ele><time>2026-04-11T11:44:46.373Z</time></trkpt><trkpt lat="44.5993605" lon="7.9501477"><ele>387.0</ele><time>2026-04-11T11:44:50.372Z</time></trkpt><trkpt lat="44.5993594" lon="7.9502475"><ele>387.0</ele><time>2026-04-11T11:44:53.374Z</time></trkpt><trkpt lat="44.5993439" lon="7.9503744"><ele>387.0</ele><time>2026-04-11T11:44:56.373Z</time></trkpt><trkpt lat="44.5993386" lon="7.9504745"><ele>386.0</ele><time>2026-04-11T11:44:58.373Z</time></trkpt><trkpt lat="44.5993382" lon="7.9505803"><ele>385.0</ele><time>2026-04-11T11:45:00.374Z</time></trkpt><trkpt lat="44.5993355" lon="7.9506862"><ele>384.0</ele><time>2026-04-11T11:45:02.374Z</time></trkpt><trkpt lat="44.5993396" lon="7.950811"><ele>383.0</ele><time>2026-04-11T11:45:04.374Z</time></trkpt><trkpt lat="44.5993425" lon="7.9509315"><ele>382.0</ele><time>2026-04-11T11:45:06.374Z</time></trkpt><trkpt lat="44.5993298" lon="7.9510368"><ele>381.0</ele><time>2026-04-11T11:45:08.374Z</time></trkpt><trkpt lat="44.5993274" lon="7.9511449"><ele>380.1666666666667</ele><time>2026-04-11T11:45:10.374Z</time></trkpt><trkpt lat="44.5993366" lon="7.9512415"><ele>379.3333333333333</ele><time>2026-04-11T11:45:12.374Z</time></trkpt><trkpt lat="44.5994191" lon="7.9513162"><ele>378.5</ele><time>2026-04-11T11:45:15.374Z</time></trkpt><trkpt lat="44.5994873" lon="7.951324"><ele>377.66666666666663</ele><time>2026-04-11T11:45:17.374Z</time></trkpt><trkpt lat="44.5995524" lon="7.9513104"><ele>376.8333333333333</ele><time>2026-04-11T11:45:19.374Z</time></trkpt><trkpt lat="44.5996569" lon="7.951222"><ele>376.0</ele><time>2026-04-11T11:45:22.374Z</time></trkpt><trkpt lat="44.5997348" lon="7.9511098"><ele>375.0</ele><time>2026-04-11T11:45:24.374Z</time></trkpt><trkpt lat="44.5998181" lon="7.9511693"><ele>374.0</ele><time>2026-04-11T11:45:26.374Z</time></trkpt><trkpt lat="44.5998684" lon="7.9512476"><ele>373.0</ele><time>2026-04-11T11:45:27.374Z</time></trkpt><trkpt lat="44.5998611" lon="7.9513356"><ele>372.0</ele><time>2026-04-11T11:46:40.453Z</time></trkpt><trkpt lat="44.5999215" lon="7.951386"><ele>371.0</ele><time>2026-04-11T11:46:42.454Z</time></trkpt><trkpt lat="44.5999941" lon="7.9513477"><ele>370.0</ele><time>2026-04-11T11:46:45.523Z</time></trkpt><trkpt lat="44.6000423" lon="7.9512737"><ele>370.0</ele><time>2026-04-11T11:46:49.862Z</time></trkpt><trkpt lat="44.600099" lon="7.951191"><ele>370.0</ele><time>2026-04-11T11:46:53.979Z</time></trkpt><trkpt lat="44.600148" lon="7.9511123"><ele>370.0</ele><time>2026-04-11T11:46:58.425Z</time></trkpt><trkpt lat="44.6001983" lon="7.9510477"><ele>370.0</ele><time>2026-04-11T11:47:01.441Z</time></trkpt><trkpt lat="44.6002587" lon="7.9509727"><ele>370.0</ele><time>2026-04-11T11:47:05.459Z</time></trkpt><trkpt lat="44.6003307" lon="7.9509113"><ele>370.0</ele><time>2026-04-11T11:47:09.46Z</time></trkpt><trkpt lat="44.6003968" lon="7.9508507"><ele>371.4285714285714</ele><time>2026-04-11T11:47:13.478Z</time></trkpt><trkpt lat="44.6004677" lon="7.9508036"><ele>372.85714285714283</ele><time>2026-04-11T11:47:17.362Z</time></trkpt><trkpt lat="44.6005196" lon="7.950748"><ele>374.2857142857143</ele><time>2026-04-11T11:47:28.375Z</time></trkpt><trkpt lat="44.6005819" lon="7.9507248"><ele>375.71428571428567</ele><time>2026-04-11T11:47:34.376Z</time></trkpt><trkpt lat="44.6006335" lon="7.9506737"><ele>377.14285714285717</ele><time>2026-04-11T11:47:40.375Z</time></trkpt><trkpt lat="44.6006811" lon="7.9506156"><ele>378.57142857142856</ele><time>2026-04-11T11:47:46.376Z</time></trkpt><trkpt lat="44.6007269" lon="7.9505453"><ele>380.0</ele><time>2026-04-11T11:47:53.376Z</time></trkpt><trkpt lat="44.6007712" lon="7.950463"><ele>380.0</ele><time>2026-04-11T11:48:00.375Z</time></trkpt><trkpt lat="44.6008111" lon="7.9503854"><ele>380.0</ele><time>2026-04-11T11:48:06.376Z</time></trkpt><trkpt lat="44.6008511" lon="7.9502991"><ele>380.0</ele><time>2026-04-11T11:48:13.376Z</time></trkpt><trkpt lat="44.6009059" lon="7.950239"><ele>380.0</ele><time>2026-04-11T11:48:19.375Z</time></trkpt><trkpt lat="44.6009538" lon="7.9501712"><ele>380.0</ele><time>2026-04-11T11:48:26.375Z</time></trkpt><trkpt lat="44.6009988" lon="7.9501084"><ele>380.0</ele><time>2026-04-11T11:48:32.376Z</time></trkpt><trkpt lat="44.6010545" lon="7.9500625"><ele>380.0</ele><time>2026-04-11T11:48:38.376Z</time></trkpt><trkpt lat="44.6011006" lon="7.9500013"><ele>380.2857142857143</ele><time>2026-04-11T11:48:44.376Z</time></trkpt><trkpt lat="44.6011585" lon="7.9499522"><ele>380.57142857142856</ele><time>2026-04-11T11:48:50.377Z</time></trkpt><trkpt lat="44.6012178" lon="7.9499129"><ele>380.8571428571429</ele><time>2026-04-11T11:48:56.377Z</time></trkpt><trkpt lat="44.6012844" lon="7.9498922"><ele>381.1428571428571</ele><time>2026-04-11T11:49:02.377Z</time></trkpt><trkpt lat="44.6013529" lon="7.9498587"><ele>381.4285714285714</ele><time>2026-04-11T11:49:09.377Z</time></trkpt><trkpt lat="44.6014164" lon="7.9498338"><ele>381.7142857142857</ele><time>2026-04-11T11:49:16.376Z</time></trkpt><trkpt lat="44.6014853" lon="7.9497991"><ele>382.0</ele><time>2026-04-11T11:49:25.376Z</time></trkpt><trkpt lat="44.6015551" lon="7.9497754"><ele>382.0</ele><time>2026-04-11T11:49:30.378Z</time></trkpt><trkpt lat="44.6016143" lon="7.9497208"><ele>382.0</ele><time>2026-04-11T11:50:11.481Z</time></trkpt><trkpt lat="44.6016695" lon="7.9496678"><ele>382.0</ele><time>2026-04-11T11:50:13.403Z</time></trkpt><trkpt lat="44.6017444" lon="7.9496097"><ele>382.0</ele><time>2026-04-11T11:50:15.414Z</time></trkpt><trkpt lat="44.6018181" lon="7.9495801"><ele>382.0</ele><time>2026-04-11T11:50:17.165Z</time></trkpt><trkpt lat="44.6019239" lon="7.9495624"><ele>382.0</ele><time>2026-04-11T11:50:19.433Z</time></trkpt><trkpt lat="44.6020044" lon="7.9495421"><ele>382.0</ele><time>2026-04-11T11:50:21.433Z</time></trkpt><trkpt lat="44.6020789" lon="7.9495561"><ele>382.0</ele><time>2026-04-11T11:50:24.45Z</time></trkpt><trkpt lat="44.602019" lon="7.9495204"><ele>382.0</ele><time>2026-04-11T11:50:30.378Z</time></trkpt><trkpt lat="44.602058" lon="7.9495984"><ele>382.0</ele><time>2026-04-11T11:51:01.434Z</time></trkpt><trkpt lat="44.6021487" lon="7.9495683"><ele>382.0</ele><time>2026-04-11T11:51:04.391Z</time></trkpt><trkpt lat="44.6022294" lon="7.9495261"><ele>382.0</ele><time>2026-04-11T11:51:06.44Z</time></trkpt><trkpt lat="44.6023061" lon="7.9494816"><ele>382.0</ele><time>2026-04-11T11:51:08.456Z</time></trkpt><trkpt lat="44.6023723" lon="7.949432"><ele>382.0</ele><time>2026-04-11T11:51:10.385Z</time></trkpt><trkpt lat="44.602436" lon="7.9493927"><ele>382.0</ele><time>2026-04-11T11:51:12.399Z</time></trkpt><trkpt lat="44.6025065" lon="7.9493807"><ele>382.0</ele><time>2026-04-11T11:51:14.434Z</time></trkpt><trkpt lat="44.6025761" lon="7.949386"><ele>382.0</ele><time>2026-04-11T11:51:16.477Z</time></trkpt><trkpt lat="44.6026454" lon="7.9493752"><ele>382.0</ele><time>2026-04-11T11:51:18.454Z</time></trkpt><trkpt lat="44.6027262" lon="7.9493671"><ele>382.0</ele><time>2026-04-11T11:51:20.402Z</time></trkpt><trkpt lat="44.6028105" lon="7.9493437"><ele>382.66666666666663</ele><time>2026-04-11T11:51:22.461Z</time></trkpt><trkpt lat="44.6028865" lon="7.9493144"><ele>383.3333333333333</ele><time>2026-04-11T11:51:24.381Z</time></trkpt><trkpt lat="44.6029565" lon="7.9492709"><ele>384.0</ele><time>2026-04-11T11:51:26.299Z</time></trkpt><trkpt lat="44.6030202" lon="7.9492003"><ele>384.66666666666663</ele><time>2026-04-11T11:51:28.43Z</time></trkpt><trkpt lat="44.6030709" lon="7.949117"><ele>385.3333333333333</ele><time>2026-04-11T11:51:31.379Z</time></trkpt><trkpt lat="44.6031065" lon="7.9490352"><ele>386.0</ele><time>2026-04-11T11:51:35.379Z</time></trkpt><trkpt lat="44.6031552" lon="7.9489625"><ele>386.00000000000006</ele><time>2026-04-11T11:51:39.379Z</time></trkpt><trkpt lat="44.6032067" lon="7.9488885"><ele>386.0</ele><time>2026-04-11T11:51:43.379Z</time></trkpt><trkpt lat="44.603266" lon="7.9488115"><ele>386.0</ele><time>2026-04-11T11:51:47.379Z</time></trkpt><trkpt lat="44.6033261" lon="7.9487611"><ele>386.0</ele><time>2026-04-11T11:52:31.446Z</time></trkpt><trkpt lat="44.6033682" lon="7.9486835"><ele>386.0</ele><time>2026-04-11T11:52:34.491Z</time></trkpt><trkpt lat="44.6034089" lon="7.9485981"><ele>386.00000000000006</ele><time>2026-04-11T11:52:37.449Z</time></trkpt><trkpt lat="44.6034557" lon="7.9485113"><ele>386.0</ele><time>2026-04-11T11:52:40.478Z</time></trkpt><trkpt lat="44.6034946" lon="7.9484256"><ele>385.00000000000006</ele><time>2026-04-11T11:52:43.481Z</time></trkpt><trkpt lat="44.6035237" lon="7.9483302"><ele>384.0</ele><time>2026-04-11T11:52:47.414Z</time></trkpt><trkpt lat="44.6035142" lon="7.9482405"><ele>383.0</ele><time>2026-04-11T11:52:57.433Z</time></trkpt><trkpt lat="44.6035587" lon="7.9481777"><ele>382.0</ele><time>2026-04-11T11:53:01.467Z</time></trkpt><trkpt lat="44.6035774" lon="7.9480816"><ele>381.0</ele><time>2026-04-11T11:53:12.403Z</time></trkpt><trkpt lat="44.6036174" lon="7.9480126"><ele>380.00000000000006</ele><time>2026-04-11T11:53:19.453Z</time></trkpt><trkpt lat="44.6036348" lon="7.9479222"><ele>379.0</ele><time>2026-04-11T11:53:26.497Z</time></trkpt><trkpt lat="44.6036729" lon="7.9478295"><ele>375.6</ele><time>2026-04-11T11:53:41.471Z</time></trkpt><trkpt lat="44.603725" lon="7.9475999"><ele>372.2</ele><time>2026-04-11T11:53:45.446Z</time></trkpt><trkpt lat="44.6037381" lon="7.9475043"><ele>368.8</ele><time>2026-04-11T11:53:46.414Z</time></trkpt><trkpt lat="44.6037601" lon="7.9473978"><ele>365.40000000000003</ele><time>2026-04-11T11:53:48.423Z</time></trkpt><trkpt lat="44.6037927" lon="7.9472822"><ele>362.0</ele><time>2026-04-11T11:53:51.448Z</time></trkpt><trkpt lat="44.6038627" lon="7.9472066"><ele>361.1666666666667</ele><time>2026-04-11T11:53:53.449Z</time></trkpt><trkpt lat="44.6039629" lon="7.9471838"><ele>360.33333333333337</ele><time>2026-04-11T11:53:55.456Z</time></trkpt><trkpt lat="44.6040683" lon="7.947158"><ele>359.5</ele><time>2026-04-11T11:53:56.381Z</time></trkpt><trkpt lat="44.6041544" lon="7.947136"><ele>358.6666666666667</ele><time>2026-04-11T11:53:57.381Z</time></trkpt><trkpt lat="44.6042223" lon="7.9471133"><ele>357.8333333333333</ele><time>2026-04-11T11:53:58.381Z</time></trkpt><trkpt lat="44.6042855" lon="7.9470909"><ele>357.0</ele><time>2026-04-11T11:53:59.381Z</time></trkpt><trkpt lat="44.6044049" lon="7.9470707"><ele>355.0</ele><time>2026-04-11T11:54:01.381Z</time></trkpt><trkpt lat="44.6045182" lon="7.9470446"><ele>353.0</ele><time>2026-04-11T11:54:03.381Z</time></trkpt><trkpt lat="44.6046348" lon="7.947015"><ele>351.0</ele><time>2026-04-11T11:54:05.381Z</time></trkpt><trkpt lat="44.6047446" lon="7.946999"><ele>349.0</ele><time>2026-04-11T11:54:07.381Z</time></trkpt><trkpt lat="44.6048415" lon="7.9469976"><ele>347.0</ele><time>2026-04-11T11:54:09.381Z</time></trkpt><trkpt lat="44.6049451" lon="7.9470221"><ele>347.0</ele><time>2026-04-11T11:54:11.381Z</time></trkpt><trkpt lat="44.6050139" lon="7.9470208"><ele>347.0</ele><time>2026-04-11T11:54:13.381Z</time></trkpt><trkpt lat="44.6050831" lon="7.9470134"><ele>347.0</ele><time>2026-04-11T11:54:15.381Z</time></trkpt><trkpt lat="44.6051565" lon="7.9470142"><ele>347.0</ele><time>2026-04-11T11:54:17.381Z</time></trkpt><trkpt lat="44.6052346" lon="7.9469933"><ele>347.0</ele><time>2026-04-11T11:54:19.381Z</time></trkpt><trkpt lat="44.6053115" lon="7.9469854"><ele>347.0</ele><time>2026-04-11T11:54:21.38Z</time></trkpt><trkpt lat="44.6053855" lon="7.9469784"><ele>347.0</ele><time>2026-04-11T11:54:23.381Z</time></trkpt><trkpt lat="44.6054673" lon="7.9469618"><ele>346.2857142857143</ele><time>2026-04-11T11:54:25.38Z</time></trkpt><trkpt lat="44.6055396" lon="7.9469524"><ele>345.57142857142856</ele><time>2026-04-11T11:54:27.381Z</time></trkpt><trkpt lat="44.605604" lon="7.9469448"><ele>344.85714285714283</ele><time>2026-04-11T11:54:29.382Z</time></trkpt><trkpt lat="44.6056741" lon="7.9469289"><ele>344.1428571428571</ele><time>2026-04-11T11:54:31.381Z</time></trkpt><trkpt lat="44.6057479" lon="7.9469149"><ele>343.42857142857144</ele><time>2026-04-11T11:54:34.381Z</time></trkpt><trkpt lat="44.6058316" lon="7.9468979"><ele>342.71428571428567</ele><time>2026-04-11T11:54:38.381Z</time></trkpt><trkpt lat="44.6059062" lon="7.9468994"><ele>342.0</ele><time>2026-04-11T11:54:40.381Z</time></trkpt><trkpt lat="44.605982" lon="7.9468991"><ele>342.0</ele><time>2026-04-11T11:54:42.382Z</time></trkpt><trkpt lat="44.6060614" lon="7.9469065"><ele>342.0</ele><time>2026-04-11T11:54:44.38Z</time></trkpt><trkpt lat="44.6061292" lon="7.9469153"><ele>342.0</ele><time>2026-04-11T11:54:46.382Z</time></trkpt><trkpt lat="44.6062013" lon="7.9469325"><ele>342.0</ele><time>2026-04-11T11:54:48.382Z</time></trkpt><trkpt lat="44.606301" lon="7.9469617"><ele>342.0</ele><time>2026-04-11T11:54:50.382Z</time></trkpt><trkpt lat="44.6063913" lon="7.9469958"><ele>342.0</ele><time>2026-04-11T11:54:52.382Z</time></trkpt><trkpt lat="44.6064696" lon="7.9470197"><ele>340.6</ele><time>2026-04-11T11:54:54.382Z</time></trkpt><trkpt lat="44.6065595" lon="7.9470354"><ele>339.20000000000005</ele><time>2026-04-11T11:54:56.382Z</time></trkpt><trkpt lat="44.6066445" lon="7.9470526"><ele>337.8</ele><time>2026-04-11T11:54:58.382Z</time></trkpt><trkpt lat="44.6067315" lon="7.9470663"><ele>336.4</ele><time>2026-04-11T11:55:00.382Z</time></trkpt><trkpt lat="44.606867" lon="7.9470649"><ele>335.0</ele><time>2026-04-11T11:55:02.382Z</time></trkpt><trkpt lat="44.606931" lon="7.9470582"><ele>334.33333333333337</ele><time>2026-04-11T11:55:03.382Z</time></trkpt><trkpt lat="44.6069948" lon="7.9470594"><ele>333.6666666666667</ele><time>2026-04-11T11:55:04.382Z</time></trkpt><trkpt lat="44.6070585" lon="7.9470525"><ele>333.0</ele><time>2026-04-11T11:55:05.382Z</time></trkpt><trkpt lat="44.6071775" lon="7.9470519"><ele>332.3333333333333</ele><time>2026-04-11T11:55:07.382Z</time></trkpt><trkpt lat="44.6072408" lon="7.9470578"><ele>331.66666666666663</ele><time>2026-04-11T11:55:08.382Z</time></trkpt><trkpt lat="44.6073042" lon="7.9470596"><ele>331.0</ele><time>2026-04-11T11:55:09.382Z</time></trkpt><trkpt lat="44.6074263" lon="7.9470665"><ele>331.0</ele><time>2026-04-11T11:55:11.382Z</time></trkpt><trkpt lat="44.6074904" lon="7.9470697"><ele>331.0</ele><time>2026-04-11T11:55:12.382Z</time></trkpt><trkpt lat="44.607609" lon="7.9470796"><ele>331.0</ele><time>2026-04-11T11:55:14.381Z</time></trkpt><trkpt lat="44.6077265" lon="7.947096"><ele>331.0</ele><time>2026-04-11T11:55:16.382Z</time></trkpt><trkpt lat="44.6078493" lon="7.9471126"><ele>331.0</ele><time>2026-04-11T11:55:18.382Z</time></trkpt><trkpt lat="44.6079724" lon="7.947133"><ele>330.5</ele><time>2026-04-11T11:55:20.382Z</time></trkpt><trkpt lat="44.6080369" lon="7.947147"><ele>330.0</ele><time>2026-04-11T11:55:21.382Z</time></trkpt><trkpt lat="44.608104" lon="7.9471637"><ele>329.5</ele><time>2026-04-11T11:55:22.382Z</time></trkpt><trkpt lat="44.6081673" lon="7.9471817"><ele>329.0</ele><time>2026-04-11T11:55:23.382Z</time></trkpt><trkpt lat="44.6082865" lon="7.9472124"><ele>328.5</ele><time>2026-04-11T11:55:25.382Z</time></trkpt><trkpt lat="44.608414" lon="7.9472449"><ele>328.0</ele><time>2026-04-11T11:55:27.382Z</time></trkpt><trkpt lat="44.6084822" lon="7.9472658"><ele>328.0</ele><time>2026-04-11T11:55:28.382Z</time></trkpt><trkpt lat="44.6085973" lon="7.9472859"><ele>328.0</ele><time>2026-04-11T11:55:30.382Z</time></trkpt><trkpt lat="44.6086774" lon="7.9472804"><ele>328.0</ele><time>2026-04-11T11:55:32.382Z</time></trkpt><trkpt lat="44.6087496" lon="7.9472189"><ele>328.0</ele><time>2026-04-11T11:55:35.382Z</time></trkpt><trkpt lat="44.6087872" lon="7.9471445"><ele>328.0</ele><time>2026-04-11T11:55:39.382Z</time></trkpt><trkpt lat="44.6088039" lon="7.947033"><ele>328.0</ele><time>2026-04-11T11:55:43.382Z</time></trkpt><trkpt lat="44.6088486" lon="7.946961"><ele>328.16666666666663</ele><time>2026-04-11T11:55:47.382Z</time></trkpt><trkpt lat="44.6089166" lon="7.9468771"><ele>328.3333333333333</ele><time>2026-04-11T11:55:51.382Z</time></trkpt><trkpt lat="44.6089663" lon="7.9467958"><ele>328.5</ele><time>2026-04-11T11:55:55.382Z</time></trkpt><trkpt lat="44.6089792" lon="7.9466894"><ele>328.6666666666667</ele><time>2026-04-11T11:56:24.451Z</time></trkpt><trkpt lat="44.6089427" lon="7.9465792"><ele>328.83333333333337</ele><time>2026-04-11T11:56:28.511Z</time></trkpt><trkpt lat="44.608947" lon="7.9464744"><ele>329.0</ele><time>2026-04-11T11:56:32.427Z</time></trkpt><trkpt lat="44.6090344" lon="7.9464859"><ele>329.0</ele><time>2026-04-11T11:56:37.454Z</time></trkpt><trkpt lat="44.6090912" lon="7.9465501"><ele>329.0</ele><time>2026-04-11T11:56:39.494Z</time></trkpt><trkpt lat="44.6091659" lon="7.9466028"><ele>329.0</ele><time>2026-04-11T11:56:41.494Z</time></trkpt><trkpt lat="44.6092298" lon="7.9466519"><ele>329.0</ele><time>2026-04-11T11:56:43.394Z</time></trkpt><trkpt lat="44.6093023" lon="7.9467234"><ele>329.0</ele><time>2026-04-11T11:56:46.472Z</time></trkpt><trkpt lat="44.6093627" lon="7.9467818"><ele>329.0</ele><time>2026-04-11T11:56:48.419Z</time></trkpt><trkpt lat="44.6094361" lon="7.9468403"><ele>328.0</ele><time>2026-04-11T11:56:51.453Z</time></trkpt><trkpt lat="44.6094805" lon="7.9469079"><ele>327.0</ele><time>2026-04-11T11:56:53.383Z</time></trkpt><trkpt lat="44.6095318" lon="7.9469634"><ele>326.0</ele><time>2026-04-11T11:56:55.383Z</time></trkpt><trkpt lat="44.6095979" lon="7.9470485"><ele>325.0</ele><time>2026-04-11T11:56:57.383Z</time></trkpt><trkpt lat="44.6096472" lon="7.9471087"><ele>324.0</ele><time>2026-04-11T11:56:58.383Z</time></trkpt><trkpt lat="44.6097129" lon="7.9471731"><ele>323.0</ele><time>2026-04-11T11:56:59.383Z</time></trkpt><trkpt lat="44.6097811" lon="7.9472312"><ele>322.0</ele><time>2026-04-11T11:57:00.384Z</time></trkpt><trkpt lat="44.6098451" lon="7.9472876"><ele>319.3333333333333</ele><time>2026-04-11T11:57:01.383Z</time></trkpt><trkpt lat="44.609911" lon="7.9473416"><ele>316.66666666666663</ele><time>2026-04-11T11:57:02.383Z</time></trkpt><trkpt lat="44.6099718" lon="7.9473939"><ele>314.0</ele><time>2026-04-11T11:57:03.383Z</time></trkpt><trkpt lat="44.6100326" lon="7.9474418"><ele>311.3333333333333</ele><time>2026-04-11T11:57:04.384Z</time></trkpt><trkpt lat="44.6100913" lon="7.9474832"><ele>308.6666666666667</ele><time>2026-04-11T11:57:05.383Z</time></trkpt><trkpt lat="44.6101998" lon="7.9475646"><ele>306.0</ele><time>2026-04-11T11:57:07.384Z</time></trkpt><trkpt lat="44.6102567" lon="7.9476058"><ele>305.0</ele><time>2026-04-11T11:57:08.383Z</time></trkpt><trkpt lat="44.6103195" lon="7.947646"><ele>304.0</ele><time>2026-04-11T11:57:09.383Z</time></trkpt><trkpt lat="44.6103863" lon="7.9476869"><ele>303.0</ele><time>2026-04-11T11:57:10.384Z</time></trkpt><trkpt lat="44.6104541" lon="7.9477352"><ele>302.0</ele><time>2026-04-11T11:57:11.383Z</time></trkpt><trkpt lat="44.6105213" lon="7.9477869"><ele>301.0</ele><time>2026-04-11T11:57:12.384Z</time></trkpt><trkpt lat="44.6105876" lon="7.9478359"><ele>300.0</ele><time>2026-04-11T11:57:13.383Z</time></trkpt><trkpt lat="44.6106499" lon="7.9478806"><ele>299.0</ele><time>2026-04-11T11:57:14.384Z</time></trkpt><trkpt lat="44.6107091" lon="7.947923"><ele>298.5</ele><time>2026-04-11T11:57:15.384Z</time></trkpt><trkpt lat="44.610814" lon="7.9479966"><ele>298.0</ele><time>2026-04-11T11:57:17.383Z</time></trkpt><trkpt lat="44.6109076" lon="7.9480517"><ele>297.5</ele><time>2026-04-11T11:57:19.384Z</time></trkpt><trkpt lat="44.6109871" lon="7.9481078"><ele>297.0</ele><time>2026-04-11T11:57:23.384Z</time></trkpt><trkpt lat="44.6110476" lon="7.9481426"><ele>296.5</ele><time>2026-04-11T11:57:25.384Z</time></trkpt><trkpt lat="44.6111023" lon="7.9481878"><ele>296.0</ele><time>2026-04-11T11:57:28.383Z</time></trkpt><trkpt lat="44.6111715" lon="7.948215"><ele>290.0</ele><time>2026-04-11T11:57:31.384Z</time></trkpt></trkseg><trkseg><trkpt lat="44.6114162" lon="7.9442598"><ele>267.0</ele><time>2026-04-11T12:30:09.434Z</time></trkpt><trkpt lat="44.6114015" lon="7.9443652"><ele>267.0</ele><time>2026-04-11T12:30:16.453Z</time></trkpt><trkpt lat="44.6114232" lon="7.9444762"><ele>267.0</ele><time>2026-04-11T12:30:22.455Z</time></trkpt><trkpt lat="44.6114438" lon="7.9445822"><ele>267.0</ele><time>2026-04-11T12:30:25.456Z</time></trkpt><trkpt lat="44.6114537" lon="7.9446774"><ele>267.0</ele><time>2026-04-11T12:30:28.456Z</time></trkpt><trkpt lat="44.6114475" lon="7.9444266"><ele>267.00000000000006</ele><time>2026-04-11T12:30:48.446Z</time></trkpt><trkpt lat="44.6114177" lon="7.9443436"><ele>267.0</ele><time>2026-04-11T12:30:54.447Z</time></trkpt><trkpt lat="44.6114036" lon="7.9442528"><ele>267.0</ele><time>2026-04-11T12:31:06.451Z</time></trkpt><trkpt lat="44.6113766" lon="7.9441689"><ele>267.0</ele><time>2026-04-11T12:31:22.488Z</time></trkpt><trkpt lat="44.611364" lon="7.9440793"><ele>267.0</ele><time>2026-04-11T12:31:43.494Z</time></trkpt><trkpt lat="44.611399" lon="7.9441744"><ele>267.00000000000006</ele><time>2026-04-11T12:32:09.469Z</time></trkpt><trkpt lat="44.6113298" lon="7.9442182"><ele>267.0</ele><time>2026-04-11T12:46:17.442Z</time></trkpt><trkpt lat="44.6113709" lon="7.9443327"><ele>267.0</ele><time>2026-04-11T12:46:22.374Z</time></trkpt><trkpt lat="44.6113776" lon="7.9442383"><ele>267.0</ele><time>2026-04-11T12:47:27.482Z</time></trkpt><trkpt lat="44.6114957" lon="7.9442014"><ele>267.0</ele><time>2026-04-11T12:47:33.484Z</time></trkpt><trkpt lat="44.6114558" lon="7.9442702"><ele>267.0</ele><time>2026-04-11T12:47:51.507Z</time></trkpt><trkpt lat="44.6115295" lon="7.9442738"><ele>267.0</ele><time>2026-04-11T12:48:24.551Z</time></trkpt><trkpt lat="44.6115426" lon="7.9441346"><ele>267.0</ele><time>2026-04-11T12:48:51.495Z</time></trkpt><trkpt lat="44.6115198" lon="7.9442503"><ele>276.0</ele><time>2026-04-11T12:49:02.501Z</time></trkpt><trkpt lat="44.6115525" lon="7.9440447"><ele>285.0</ele><time>2026-04-11T12:50:00.827Z</time></trkpt><trkpt lat="44.6117037" lon="7.9423829"><ele>285.0</ele><time>2026-04-11T12:50:05.426Z</time></trkpt><trkpt lat="44.6115205" lon="7.9438668"><ele>285.0</ele><time>2026-04-11T12:50:09.426Z</time></trkpt><trkpt lat="44.6115021" lon="7.9440013"><ele>285.0</ele><time>2026-04-11T12:50:10.426Z</time></trkpt><trkpt lat="44.6114745" lon="7.9440817"><ele>285.0</ele><time>2026-04-11T12:50:13.426Z</time></trkpt><trkpt lat="44.611512" lon="7.9440009"><ele>285.0</ele><time>2026-04-11T12:50:33.492Z</time></trkpt><trkpt lat="44.6114802" lon="7.943911"><ele>285.0</ele><time>2026-04-11T12:50:37.606Z</time></trkpt><trkpt lat="44.6114421" lon="7.943831"><ele>285.0</ele><time>2026-04-11T12:50:43.503Z</time></trkpt><trkpt lat="44.6113812" lon="7.9437757"><ele>285.0</ele><time>2026-04-11T12:50:49.505Z</time></trkpt><trkpt lat="44.6113055" lon="7.943804"><ele>285.0</ele><time>2026-04-11T12:50:54.524Z</time></trkpt><trkpt lat="44.6112439" lon="7.9438302"><ele>285.0</ele><time>2026-04-11T12:50:58.526Z</time></trkpt><trkpt lat="44.6111846" lon="7.9438988"><ele>285.0</ele><time>2026-04-11T12:51:04.527Z</time></trkpt><trkpt lat="44.6111309" lon="7.9439638"><ele>285.0</ele><time>2026-04-11T12:51:10.529Z</time></trkpt><trkpt lat="44.6110675" lon="7.9438793"><ele>285.0</ele><time>2026-04-11T12:51:39.472Z</time></trkpt><trkpt lat="44.6110101" lon="7.9438352"><ele>285.0</ele><time>2026-04-11T12:51:45.49Z</time></trkpt><trkpt lat="44.6109578" lon="7.9437715"><ele>285.0</ele><time>2026-04-11T12:51:55.493Z</time></trkpt><trkpt lat="44.6108885" lon="7.9437697"><ele>286.57142857142856</ele><time>2026-04-11T12:52:01.511Z</time></trkpt><trkpt lat="44.6108714" lon="7.9438711"><ele>288.14285714285717</ele><time>2026-04-11T12:52:07.447Z</time></trkpt><trkpt lat="44.6107942" lon="7.9439122"><ele>289.7142857142857</ele><time>2026-04-11T12:52:43.507Z</time></trkpt><trkpt lat="44.6108494" lon="7.943862"><ele>291.2857142857143</ele><time>2026-04-11T12:53:09.431Z</time></trkpt><trkpt lat="44.6109284" lon="7.9438154"><ele>292.85714285714283</ele><time>2026-04-11T12:53:29.57Z</time></trkpt><trkpt lat="44.6109975" lon="7.9438208"><ele>294.42857142857144</ele><time>2026-04-11T12:53:33.57Z</time></trkpt><trkpt lat="44.6110597" lon="7.943858"><ele>296.0</ele><time>2026-04-11T12:53:37.572Z</time></trkpt><trkpt lat="44.6111243" lon="7.9438892"><ele>296.0</ele><time>2026-04-11T12:53:42.473Z</time></trkpt><trkpt lat="44.6111561" lon="7.9437757"><ele>296.0</ele><time>2026-04-11T12:54:06.452Z</time></trkpt><trkpt lat="44.6111398" lon="7.9436789"><ele>296.0</ele><time>2026-04-11T12:54:10.53Z</time></trkpt><trkpt lat="44.6111268" lon="7.9435878"><ele>296.0</ele><time>2026-04-11T12:54:15.531Z</time></trkpt><trkpt lat="44.6111423" lon="7.9434938"><ele>296.0</ele><time>2026-04-11T12:54:20.449Z</time></trkpt><trkpt lat="44.6111159" lon="7.9433689"><ele>296.0</ele><time>2026-04-11T12:54:29.468Z</time></trkpt><trkpt lat="44.6110956" lon="7.9432591"><ele>296.83333333333337</ele><time>2026-04-11T12:54:33.469Z</time></trkpt><trkpt lat="44.6110877" lon="7.9431681"><ele>297.6666666666667</ele><time>2026-04-11T12:54:37.504Z</time></trkpt><trkpt lat="44.6110636" lon="7.943068"><ele>298.5</ele><time>2026-04-11T12:54:40.505Z</time></trkpt><trkpt lat="44.6109752" lon="7.9428664"><ele>299.3333333333333</ele><time>2026-04-11T12:54:42.429Z</time></trkpt><trkpt lat="44.6109442" lon="7.9427758"><ele>300.16666666666663</ele><time>2026-04-11T12:54:46.428Z</time></trkpt><trkpt lat="44.6109206" lon="7.9426849"><ele>301.0</ele><time>2026-04-11T12:54:49.429Z</time></trkpt><trkpt lat="44.6108649" lon="7.9425917"><ele>300.57142857142856</ele><time>2026-04-11T12:54:54.43Z</time></trkpt><trkpt lat="44.6108283" lon="7.9425094"><ele>300.1428571428571</ele><time>2026-04-11T12:54:57.43Z</time></trkpt><trkpt lat="44.6108119" lon="7.9424215"><ele>299.7142857142857</ele><time>2026-04-11T12:55:00.43Z</time></trkpt><trkpt lat="44.6108112" lon="7.9423195"><ele>299.2857142857143</ele><time>2026-04-11T12:55:03.43Z</time></trkpt><trkpt lat="44.6108098" lon="7.9422209"><ele>298.85714285714283</ele><time>2026-04-11T12:55:06.43Z</time></trkpt><trkpt lat="44.6108127" lon="7.9421109"><ele>298.42857142857144</ele><time>2026-04-11T12:55:08.429Z</time></trkpt><trkpt lat="44.6107996" lon="7.942022"><ele>298.0</ele><time>2026-04-11T12:55:11.43Z</time></trkpt><trkpt lat="44.6107698" lon="7.9419252"><ele>298.0</ele><time>2026-04-11T12:55:14.43Z</time></trkpt><trkpt lat="44.6107409" lon="7.9418173"><ele>298.0</ele><time>2026-04-11T12:55:18.429Z</time></trkpt><trkpt lat="44.6107263" lon="7.9417275"><ele>298.0</ele><time>2026-04-11T12:55:21.43Z</time></trkpt><trkpt lat="44.6107365" lon="7.9416305"><ele>298.0</ele><time>2026-04-11T12:55:24.429Z</time></trkpt><trkpt lat="44.6107749" lon="7.9415538"><ele>298.0</ele><time>2026-04-11T12:55:28.43Z</time></trkpt><trkpt lat="44.6108357" lon="7.9415031"><ele>298.0</ele><time>2026-04-11T12:55:31.43Z</time></trkpt><trkpt lat="44.610913" lon="7.9415357"><ele>298.0</ele><time>2026-04-11T12:55:33.43Z</time></trkpt><trkpt lat="44.6108905" lon="7.9414497"><ele>298.0</ele><time>2026-04-11T12:55:40.43Z</time></trkpt><trkpt lat="44.6108186" lon="7.9414376"><ele>298.0</ele><time>2026-04-11T12:55:43.43Z</time></trkpt><trkpt lat="44.6107501" lon="7.9414431"><ele>298.0</ele><time>2026-04-11T12:55:47.43Z</time></trkpt><trkpt lat="44.6106891" lon="7.941502"><ele>298.0</ele><time>2026-04-11T12:55:50.43Z</time></trkpt><trkpt lat="44.6106385" lon="7.9415751"><ele>298.0</ele><time>2026-04-11T12:55:53.43Z</time></trkpt><trkpt lat="44.6106052" lon="7.9416631"><ele>298.0</ele><time>2026-04-11T12:55:56.43Z</time></trkpt><trkpt lat="44.6105904" lon="7.9417537"><ele>298.0</ele><time>2026-04-11T12:55:59.43Z</time></trkpt><trkpt lat="44.6105977" lon="7.9418628"><ele>298.0</ele><time>2026-04-11T12:56:02.43Z</time></trkpt><trkpt lat="44.610583" lon="7.9419589"><ele>298.0</ele><time>2026-04-11T12:56:05.43Z</time></trkpt><trkpt lat="44.6105995" lon="7.942066"><ele>298.0</ele><time>2026-04-11T12:56:08.431Z</time></trkpt><trkpt lat="44.6105985" lon="7.9421656"><ele>298.0</ele><time>2026-04-11T12:56:11.43Z</time></trkpt><trkpt lat="44.6105943" lon="7.94226"><ele>298.0</ele><time>2026-04-11T12:56:14.431Z</time></trkpt><trkpt lat="44.610585" lon="7.9423658"><ele>298.0</ele><time>2026-04-11T12:56:18.431Z</time></trkpt><trkpt lat="44.6105879" lon="7.9424604"><ele>298.0</ele><time>2026-04-11T12:57:29.432Z</time></trkpt><trkpt lat="44.6105256" lon="7.9425217"><ele>298.0</ele><time>2026-04-11T12:57:32.431Z</time></trkpt><trkpt lat="44.6104609" lon="7.9425523"><ele>298.0</ele><time>2026-04-11T12:57:35.432Z</time></trkpt><trkpt lat="44.6103908" lon="7.9425101"><ele>298.0</ele><time>2026-04-11T12:57:39.431Z</time></trkpt><trkpt lat="44.6103422" lon="7.9424052"><ele>298.0</ele><time>2026-04-11T12:57:43.432Z</time></trkpt><trkpt lat="44.610287" lon="7.9423027"><ele>298.0</ele><time>2026-04-11T12:57:46.432Z</time></trkpt><trkpt lat="44.6102348" lon="7.9421967"><ele>298.0</ele><time>2026-04-11T12:57:49.431Z</time></trkpt><trkpt lat="44.6102165" lon="7.9420706"><ele>298.5</ele><time>2026-04-11T12:57:52.432Z</time></trkpt><trkpt lat="44.6102123" lon="7.941944"><ele>299.0</ele><time>2026-04-11T12:57:55.431Z</time></trkpt><trkpt lat="44.6102072" lon="7.9418466"><ele>299.5</ele><time>2026-04-11T12:57:57.432Z</time></trkpt><trkpt lat="44.6102102" lon="7.9417303"><ele>300.0</ele><time>2026-04-11T12:58:00.432Z</time></trkpt><trkpt lat="44.6101973" lon="7.9416305"><ele>300.5</ele><time>2026-04-11T12:58:03.432Z</time></trkpt><trkpt lat="44.6101795" lon="7.9415417"><ele>301.0</ele><time>2026-04-11T12:58:05.432Z</time></trkpt><trkpt lat="44.6101881" lon="7.9414275"><ele>301.3333333333333</ele><time>2026-04-11T12:58:08.431Z</time></trkpt><trkpt lat="44.6102119" lon="7.9413192"><ele>301.66666666666663</ele><time>2026-04-11T12:58:11.432Z</time></trkpt><trkpt lat="44.6102256" lon="7.9412136"><ele>302.0</ele><time>2026-04-11T12:58:15.432Z</time></trkpt><trkpt lat="44.6102177" lon="7.9410988"><ele>302.3333333333333</ele><time>2026-04-11T12:58:18.432Z</time></trkpt><trkpt lat="44.6101979" lon="7.9409794"><ele>302.6666666666667</ele><time>2026-04-11T12:58:21.431Z</time></trkpt><trkpt lat="44.6101612" lon="7.9408711"><ele>303.0</ele><time>2026-04-11T12:58:24.433Z</time></trkpt><trkpt lat="44.6101343" lon="7.9407564"><ele>303.42857142857144</ele><time>2026-04-11T12:58:28.433Z</time></trkpt><trkpt lat="44.6101231" lon="7.9406607"><ele>303.85714285714283</ele><time>2026-04-11T12:58:31.432Z</time></trkpt><trkpt lat="44.6101224" lon="7.9405586"><ele>304.2857142857143</ele><time>2026-04-11T12:58:34.433Z</time></trkpt><trkpt lat="44.6101359" lon="7.9404588"><ele>304.7142857142857</ele><time>2026-04-11T12:58:37.432Z</time></trkpt><trkpt lat="44.6101299" lon="7.9403644"><ele>305.14285714285717</ele><time>2026-04-11T12:58:41.433Z</time></trkpt><trkpt lat="44.6101564" lon="7.9404611"><ele>305.57142857142856</ele><time>2026-04-11T12:59:13.433Z</time></trkpt><trkpt lat="44.6101291" lon="7.9403461"><ele>306.0</ele><time>2026-04-11T12:59:44.433Z</time></trkpt><trkpt lat="44.6100761" lon="7.9402623"><ele>306.0</ele><time>2026-04-11T12:59:48.434Z</time></trkpt><trkpt lat="44.6100528" lon="7.9401754"><ele>306.0</ele><time>2026-04-11T12:59:51.433Z</time></trkpt><trkpt lat="44.6100472" lon="7.9400777"><ele>306.0</ele><time>2026-04-11T12:59:54.432Z</time></trkpt><trkpt lat="44.6100582" lon="7.9399835"><ele>306.0</ele><time>2026-04-11T12:59:58.434Z</time></trkpt><trkpt lat="44.6100412" lon="7.9398802"><ele>306.0</ele><time>2026-04-11T13:00:02.433Z</time></trkpt><trkpt lat="44.6100371" lon="7.9397748"><ele>306.0</ele><time>2026-04-11T13:00:06.434Z</time></trkpt><trkpt lat="44.6100043" lon="7.939679"><ele>306.0</ele><time>2026-04-11T13:00:10.434Z</time></trkpt><trkpt lat="44.609973" lon="7.9395849"><ele>307.1428571428571</ele><time>2026-04-11T13:00:15.434Z</time></trkpt><trkpt lat="44.6099212" lon="7.9395031"><ele>308.2857142857143</ele><time>2026-04-11T13:00:20.433Z</time></trkpt><trkpt lat="44.6098775" lon="7.9394179"><ele>309.42857142857144</ele><time>2026-04-11T13:00:25.434Z</time></trkpt><trkpt lat="44.6098346" lon="7.9393368"><ele>310.57142857142856</ele><time>2026-04-11T13:00:36.434Z</time></trkpt><trkpt lat="44.6097647" lon="7.9393153"><ele>311.7142857142857</ele><time>2026-04-11T13:00:42.434Z</time></trkpt><trkpt lat="44.609692" lon="7.9393263"><ele>312.85714285714283</ele><time>2026-04-11T13:00:48.434Z</time></trkpt><trkpt lat="44.6096298" lon="7.9392918"><ele>314.0</ele><time>2026-04-11T13:00:56.433Z</time></trkpt><trkpt lat="44.6095635" lon="7.9392851"><ele>313.99999999999994</ele><time>2026-04-11T13:01:03.434Z</time></trkpt><trkpt lat="44.6095046" lon="7.9392351"><ele>314.0</ele><time>2026-04-11T13:01:10.435Z</time></trkpt><trkpt lat="44.6094343" lon="7.9391966"><ele>314.0</ele><time>2026-04-11T13:01:18.435Z</time></trkpt><trkpt lat="44.6093695" lon="7.9391518"><ele>314.0</ele><time>2026-04-11T13:01:25.435Z</time></trkpt><trkpt lat="44.6093109" lon="7.9391015"><ele>314.0</ele><time>2026-04-11T13:01:32.435Z</time></trkpt><trkpt lat="44.6092484" lon="7.9390748"><ele>313.99999999999994</ele><time>2026-04-11T13:01:38.434Z</time></trkpt><trkpt lat="44.6091785" lon="7.9390393"><ele>314.0</ele><time>2026-04-11T13:01:46.435Z</time></trkpt><trkpt lat="44.6091155" lon="7.9389951"><ele>315.57142857142856</ele><time>2026-04-11T13:01:54.435Z</time></trkpt><trkpt lat="44.6091126" lon="7.9388948"><ele>317.1428571428571</ele><time>2026-04-11T13:02:02.434Z</time></trkpt><trkpt lat="44.6090609" lon="7.9388293"><ele>318.71428571428567</ele><time>2026-04-11T13:02:11.435Z</time></trkpt><trkpt lat="44.6089969" lon="7.9387984"><ele>320.2857142857143</ele><time>2026-04-11T13:02:19.435Z</time></trkpt><trkpt lat="44.6089267" lon="7.9387532"><ele>321.8571428571429</ele><time>2026-04-11T13:02:42.435Z</time></trkpt><trkpt lat="44.6088551" lon="7.9387158"><ele>323.4285714285714</ele><time>2026-04-11T13:02:46.436Z</time></trkpt><trkpt lat="44.6087746" lon="7.9386995"><ele>325.0</ele><time>2026-04-11T13:02:50.436Z</time></trkpt><trkpt lat="44.6087165" lon="7.938655"><ele>326.1428571428571</ele><time>2026-04-11T13:02:54.436Z</time></trkpt><trkpt lat="44.6086434" lon="7.938628"><ele>327.28571428571433</ele><time>2026-04-11T13:02:58.436Z</time></trkpt><trkpt lat="44.6085689" lon="7.9385907"><ele>328.42857142857144</ele><time>2026-04-11T13:03:02.435Z</time></trkpt><trkpt lat="44.6085017" lon="7.9385497"><ele>329.57142857142856</ele><time>2026-04-11T13:03:06.435Z</time></trkpt><trkpt lat="44.6084342" lon="7.9385569"><ele>330.71428571428567</ele><time>2026-04-11T13:03:10.435Z</time></trkpt><trkpt lat="44.6083573" lon="7.9385685"><ele>331.8571428571429</ele><time>2026-04-11T13:03:14.436Z</time></trkpt><trkpt lat="44.6082878" lon="7.938567"><ele>333.0</ele><time>2026-04-11T13:03:18.554Z</time></trkpt><trkpt lat="44.6082199" lon="7.9385573"><ele>333.0</ele><time>2026-04-11T13:03:22.516Z</time></trkpt><trkpt lat="44.6081567" lon="7.938524"><ele>333.0</ele><time>2026-04-11T13:03:26.556Z</time></trkpt><trkpt lat="44.6080901" lon="7.9384945"><ele>333.0</ele><time>2026-04-11T13:03:30.534Z</time></trkpt><trkpt lat="44.6080289" lon="7.9384561"><ele>333.0</ele><time>2026-04-11T13:03:33.458Z</time></trkpt><trkpt lat="44.6079524" lon="7.9384175"><ele>333.0</ele><time>2026-04-11T13:03:37.475Z</time></trkpt><trkpt lat="44.6078975" lon="7.9383725"><ele>333.0</ele><time>2026-04-11T13:03:41.492Z</time></trkpt><trkpt lat="44.6078289" lon="7.9383471"><ele>333.0</ele><time>2026-04-11T13:03:53.546Z</time></trkpt><trkpt lat="44.607764" lon="7.9383025"><ele>334.5714285714286</ele><time>2026-04-11T13:04:00.549Z</time></trkpt><trkpt lat="44.607699" lon="7.9382821"><ele>336.1428571428571</ele><time>2026-04-11T13:04:06.438Z</time></trkpt><trkpt lat="44.607638" lon="7.9382559"><ele>337.7142857142857</ele><time>2026-04-11T13:04:11.468Z</time></trkpt><trkpt lat="44.6075726" lon="7.9382139"><ele>339.28571428571433</ele><time>2026-04-11T13:04:18.414Z</time></trkpt><trkpt lat="44.6075033" lon="7.938186"><ele>340.8571428571429</ele><time>2026-04-11T13:04:24.504Z</time></trkpt><trkpt lat="44.6074458" lon="7.9381475"><ele>342.42857142857144</ele><time>2026-04-11T13:04:31.351Z</time></trkpt><trkpt lat="44.6073855" lon="7.9381155"><ele>344.0</ele><time>2026-04-11T13:04:36.525Z</time></trkpt><trkpt lat="44.6073232" lon="7.9380763"><ele>344.00000000000006</ele><time>2026-04-11T13:04:43.544Z</time></trkpt><trkpt lat="44.6072658" lon="7.9380285"><ele>344.0</ele><time>2026-04-11T13:04:49.557Z</time></trkpt><trkpt lat="44.607215" lon="7.9379737"><ele>344.0</ele><time>2026-04-11T13:04:56.548Z</time></trkpt><trkpt lat="44.6071519" lon="7.9379218"><ele>344.0</ele><time>2026-04-11T13:05:03.549Z</time></trkpt><trkpt lat="44.6070828" lon="7.9378845"><ele>344.0</ele><time>2026-04-11T13:05:10.445Z</time></trkpt><trkpt lat="44.6070239" lon="7.9378356"><ele>344.00000000000006</ele><time>2026-04-11T13:05:17.471Z</time></trkpt><trkpt lat="44.6069569" lon="7.9378419"><ele>344.0</ele><time>2026-04-11T13:05:32.508Z</time></trkpt><trkpt lat="44.6068811" lon="7.9379022"><ele>343.6666666666667</ele><time>2026-04-11T13:05:35.526Z</time></trkpt><trkpt lat="44.6068202" lon="7.9379566"><ele>343.3333333333333</ele><time>2026-04-11T13:05:37.487Z</time></trkpt><trkpt lat="44.6066687" lon="7.9380335"><ele>343.0</ele><time>2026-04-11T13:05:40.049Z</time></trkpt><trkpt lat="44.6064049" lon="7.9380297"><ele>343.0</ele><time>2026-04-11T13:05:42.438Z</time></trkpt><trkpt lat="44.6062996" lon="7.9380002"><ele>343.0</ele><time>2026-04-11T13:05:44.438Z</time></trkpt><trkpt lat="44.6062162" lon="7.9380168"><ele>343.0</ele><time>2026-04-11T13:05:46.438Z</time></trkpt><trkpt lat="44.6061485" lon="7.938009"><ele>343.0</ele><time>2026-04-11T13:05:48.438Z</time></trkpt><trkpt lat="44.6060711" lon="7.9379976"><ele>343.0</ele><time>2026-04-11T13:05:50.437Z</time></trkpt><trkpt lat="44.6059941" lon="7.9379776"><ele>343.0</ele><time>2026-04-11T13:05:53.438Z</time></trkpt><trkpt lat="44.6059301" lon="7.9379691"><ele>343.14285714285717</ele><time>2026-04-11T13:06:02.438Z</time></trkpt><trkpt lat="44.6058538" lon="7.937956"><ele>343.2857142857143</ele><time>2026-04-11T13:06:10.439Z</time></trkpt><trkpt lat="44.6057816" lon="7.9379237"><ele>343.42857142857144</ele><time>2026-04-11T13:06:19.439Z</time></trkpt><trkpt lat="44.6057136" lon="7.9378988"><ele>343.57142857142856</ele><time>2026-04-11T13:06:35.439Z</time></trkpt><trkpt lat="44.605642" lon="7.9378943"><ele>343.7142857142857</ele><time>2026-04-11T13:06:38.439Z</time></trkpt><trkpt lat="44.6055779" lon="7.9378893"><ele>343.8571428571429</ele><time>2026-04-11T13:06:41.438Z</time></trkpt><trkpt lat="44.6055135" lon="7.937896"><ele>344.0</ele><time>2026-04-11T13:06:44.439Z</time></trkpt><trkpt lat="44.605433" lon="7.9378786"><ele>344.00000000000006</ele><time>2026-04-11T13:06:47.438Z</time></trkpt><trkpt lat="44.6053698" lon="7.9378771"><ele>344.0</ele><time>2026-04-11T13:06:49.439Z</time></trkpt><trkpt lat="44.6053056" lon="7.9378867"><ele>344.0</ele><time>2026-04-11T13:06:51.439Z</time></trkpt><trkpt lat="44.6052405" lon="7.9378931"><ele>344.0</ele><time>2026-04-11T13:06:53.439Z</time></trkpt><trkpt lat="44.6051669" lon="7.9378981"><ele>344.0</ele><time>2026-04-11T13:06:55.439Z</time></trkpt><trkpt lat="44.6050883" lon="7.9379087"><ele>344.00000000000006</ele><time>2026-04-11T13:06:57.439Z</time></trkpt><trkpt lat="44.6050065" lon="7.9379451"><ele>344.0</ele><time>2026-04-11T13:06:59.439Z</time></trkpt><trkpt lat="44.6049428" lon="7.9379919"><ele>345.6666666666667</ele><time>2026-04-11T13:07:01.44Z</time></trkpt><trkpt lat="44.6048691" lon="7.9380704"><ele>347.33333333333337</ele><time>2026-04-11T13:07:04.439Z</time></trkpt><trkpt lat="44.6048095" lon="7.9381219"><ele>349.0</ele><time>2026-04-11T13:07:06.439Z</time></trkpt><trkpt lat="44.6047541" lon="7.9381754"><ele>350.6666666666667</ele><time>2026-04-11T13:07:08.439Z</time></trkpt><trkpt lat="44.6046839" lon="7.9382469"><ele>352.3333333333333</ele><time>2026-04-11T13:07:11.439Z</time></trkpt><trkpt lat="44.6046157" lon="7.9383057"><ele>354.0</ele><time>2026-04-11T13:07:14.44Z</time></trkpt><trkpt lat="44.6045342" lon="7.9383548"><ele>355.42857142857144</ele><time>2026-04-11T13:07:17.439Z</time></trkpt><trkpt lat="44.6044619" lon="7.9383603"><ele>356.85714285714283</ele><time>2026-04-11T13:07:21.44Z</time></trkpt><trkpt lat="44.6043962" lon="7.9383731"><ele>358.2857142857143</ele><time>2026-04-11T13:07:24.439Z</time></trkpt><trkpt lat="44.6043258" lon="7.9383757"><ele>359.7142857142857</ele><time>2026-04-11T13:07:28.44Z</time></trkpt><trkpt lat="44.6042556" lon="7.9383834"><ele>361.1428571428571</ele><time>2026-04-11T13:07:33.44Z</time></trkpt><trkpt lat="44.6041807" lon="7.9383839"><ele>362.57142857142856</ele><time>2026-04-11T13:07:37.44Z</time></trkpt><trkpt lat="44.6041083" lon="7.9383702"><ele>364.0</ele><time>2026-04-11T13:07:41.439Z</time></trkpt><trkpt lat="44.6040388" lon="7.9383768"><ele>363.7142857142857</ele><time>2026-04-11T13:07:45.44Z</time></trkpt><trkpt lat="44.6039848" lon="7.9384234"><ele>363.42857142857144</ele><time>2026-04-11T13:07:48.439Z</time></trkpt><trkpt lat="44.6039122" lon="7.9384334"><ele>363.1428571428571</ele><time>2026-04-11T13:07:51.44Z</time></trkpt><trkpt lat="44.6038426" lon="7.9384314"><ele>362.8571428571429</ele><time>2026-04-11T13:07:55.439Z</time></trkpt><trkpt lat="44.603779" lon="7.9384407"><ele>362.57142857142856</ele><time>2026-04-11T13:07:58.44Z</time></trkpt><trkpt lat="44.60371" lon="7.938458"><ele>362.2857142857143</ele><time>2026-04-11T13:08:02.44Z</time></trkpt><trkpt lat="44.6036427" lon="7.938474"><ele>362.0</ele><time>2026-04-11T13:08:06.439Z</time></trkpt><trkpt lat="44.6035771" lon="7.9384873"><ele>362.0</ele><time>2026-04-11T13:08:09.44Z</time></trkpt><trkpt lat="44.6035106" lon="7.9385104"><ele>362.0</ele><time>2026-04-11T13:08:13.44Z</time></trkpt><trkpt lat="44.6034385" lon="7.938522"><ele>362.0</ele><time>2026-04-11T13:08:23.441Z</time></trkpt><trkpt lat="44.6033723" lon="7.938548"><ele>362.0</ele><time>2026-04-11T13:08:28.44Z</time></trkpt><trkpt lat="44.6033013" lon="7.9385504"><ele>362.0</ele><time>2026-04-11T13:08:36.44Z</time></trkpt><trkpt lat="44.6032337" lon="7.9385721"><ele>362.0</ele><time>2026-04-11T13:08:43.44Z</time></trkpt><trkpt lat="44.6031654" lon="7.9385744"><ele>362.0</ele><time>2026-04-11T13:08:51.441Z</time></trkpt><trkpt lat="44.6030978" lon="7.9386039"><ele>362.0</ele><time>2026-04-11T13:09:03.441Z</time></trkpt><trkpt lat="44.6030356" lon="7.9386277"><ele>362.0</ele><time>2026-04-11T13:09:11.441Z</time></trkpt><trkpt lat="44.6029645" lon="7.9386224"><ele>362.0</ele><time>2026-04-11T13:09:23.441Z</time></trkpt><trkpt lat="44.6028961" lon="7.9386156"><ele>362.0</ele><time>2026-04-11T13:09:32.442Z</time></trkpt><trkpt lat="44.6028146" lon="7.9386013"><ele>362.0</ele><time>2026-04-11T13:09:43.505Z</time></trkpt><trkpt lat="44.6027512" lon="7.9385837"><ele>362.0</ele><time>2026-04-11T13:09:53.508Z</time></trkpt><trkpt lat="44.6026838" lon="7.938575"><ele>362.0</ele><time>2026-04-11T13:09:59.51Z</time></trkpt><trkpt lat="44.6025863" lon="7.938569"><ele>363.1666666666667</ele><time>2026-04-11T13:10:28.567Z</time></trkpt><trkpt lat="44.6024974" lon="7.9385532"><ele>364.33333333333337</ele><time>2026-04-11T13:10:32.468Z</time></trkpt><trkpt lat="44.6024086" lon="7.938515"><ele>365.5</ele><time>2026-04-11T13:10:35.57Z</time></trkpt><trkpt lat="44.6023426" lon="7.9384833"><ele>366.6666666666667</ele><time>2026-04-11T13:10:37.525Z</time></trkpt><trkpt lat="44.6022723" lon="7.9384513"><ele>367.8333333333333</ele><time>2026-04-11T13:10:39.488Z</time></trkpt><trkpt lat="44.6021865" lon="7.9384143"><ele>369.0</ele><time>2026-04-11T13:10:41.534Z</time></trkpt><trkpt lat="44.6020842" lon="7.9383623"><ele>370.0</ele><time>2026-04-11T13:10:43.441Z</time></trkpt><trkpt lat="44.6020207" lon="7.9383354"><ele>371.0</ele><time>2026-04-11T13:10:44.442Z</time></trkpt><trkpt lat="44.6019536" lon="7.938313"><ele>372.0</ele><time>2026-04-11T13:10:45.442Z</time></trkpt><trkpt lat="44.6018895" lon="7.9382911"><ele>373.0</ele><time>2026-04-11T13:10:46.442Z</time></trkpt><trkpt lat="44.6017774" lon="7.9382408"><ele>374.0</ele><time>2026-04-11T13:10:48.442Z</time></trkpt><trkpt lat="44.6016821" lon="7.9381966"><ele>375.0</ele><time>2026-04-11T13:10:50.442Z</time></trkpt><trkpt lat="44.6016046" lon="7.9381653"><ele>375.0</ele><time>2026-04-11T13:10:52.442Z</time></trkpt><trkpt lat="44.6015446" lon="7.9381381"><ele>375.0</ele><time>2026-04-11T13:10:54.441Z</time></trkpt><trkpt lat="44.6014789" lon="7.9380989"><ele>375.0</ele><time>2026-04-11T13:10:56.443Z</time></trkpt><trkpt lat="44.6014167" lon="7.9380672"><ele>375.0</ele><time>2026-04-11T13:10:58.443Z</time></trkpt><trkpt lat="44.6013371" lon="7.938021"><ele>375.0</ele><time>2026-04-11T13:11:01.442Z</time></trkpt><trkpt lat="44.6012524" lon="7.9379751"><ele>375.0</ele><time>2026-04-11T13:11:04.442Z</time></trkpt><trkpt lat="44.6011779" lon="7.9379328"><ele>373.2</ele><time>2026-04-11T13:11:06.443Z</time></trkpt><trkpt lat="44.6010766" lon="7.9378991"><ele>371.4</ele><time>2026-04-11T13:11:08.443Z</time></trkpt><trkpt lat="44.6009506" lon="7.9378593"><ele>369.6</ele><time>2026-04-11T13:11:10.443Z</time></trkpt><trkpt lat="44.600878" lon="7.9378448"><ele>367.8</ele><time>2026-04-11T13:11:11.443Z</time></trkpt><trkpt lat="44.6008009" lon="7.9378335"><ele>366.0</ele><time>2026-04-11T13:11:12.443Z</time></trkpt><trkpt lat="44.6007142" lon="7.9378219"><ele>366.0</ele><time>2026-04-11T13:11:13.443Z</time></trkpt><trkpt lat="44.6006244" lon="7.9377974"><ele>366.0</ele><time>2026-04-11T13:11:14.443Z</time></trkpt><trkpt lat="44.6005454" lon="7.9377665"><ele>366.0</ele><time>2026-04-11T13:11:15.443Z</time></trkpt><trkpt lat="44.6004752" lon="7.9377336"><ele>366.0</ele><time>2026-04-11T13:11:16.443Z</time></trkpt><trkpt lat="44.600416" lon="7.9377017"><ele>366.0</ele><time>2026-04-11T13:11:17.443Z</time></trkpt><trkpt lat="44.6003282" lon="7.9376471"><ele>366.0</ele><time>2026-04-11T13:11:19.443Z</time></trkpt><trkpt lat="44.6002619" lon="7.9376114"><ele>365.5</ele><time>2026-04-11T13:11:21.442Z</time></trkpt><trkpt lat="44.6001763" lon="7.9375851"><ele>365.0</ele><time>2026-04-11T13:11:24.443Z</time></trkpt><trkpt lat="44.6001024" lon="7.9375491"><ele>364.5</ele><time>2026-04-11T13:11:27.443Z</time></trkpt><trkpt lat="44.6000194" lon="7.9374892"><ele>364.0</ele><time>2026-04-11T13:11:30.443Z</time></trkpt><trkpt lat="44.5999419" lon="7.9374594"><ele>363.5</ele><time>2026-04-11T13:11:32.442Z</time></trkpt><trkpt lat="44.5998755" lon="7.9374282"><ele>363.0</ele><time>2026-04-11T13:11:34.442Z</time></trkpt><trkpt lat="44.5998023" lon="7.9374136"><ele>364.99999999999994</ele><time>2026-04-11T13:11:36.443Z</time></trkpt><trkpt lat="44.5997206" lon="7.9374075"><ele>367.0</ele><time>2026-04-11T13:11:39.443Z</time></trkpt><trkpt lat="44.5996538" lon="7.9373991"><ele>369.0</ele><time>2026-04-11T13:11:41.442Z</time></trkpt><trkpt lat="44.5995841" lon="7.9374051"><ele>371.0</ele><time>2026-04-11T13:11:43.442Z</time></trkpt><trkpt lat="44.5995187" lon="7.9374071"><ele>373.0</ele><time>2026-04-11T13:11:46.443Z</time></trkpt><trkpt lat="44.5994377" lon="7.9373873"><ele>374.99999999999994</ele><time>2026-04-11T13:11:49.443Z</time></trkpt><trkpt lat="44.5993675" lon="7.9373786"><ele>377.0</ele><time>2026-04-11T13:11:52.443Z</time></trkpt><trkpt lat="44.5992995" lon="7.9373687"><ele>377.57142857142856</ele><time>2026-04-11T13:11:55.442Z</time></trkpt><trkpt lat="44.5992207" lon="7.9373535"><ele>378.1428571428571</ele><time>2026-04-11T13:11:59.443Z</time></trkpt><trkpt lat="44.59914" lon="7.9373428"><ele>378.71428571428567</ele><time>2026-04-11T13:12:03.442Z</time></trkpt><trkpt lat="44.5990636" lon="7.937351"><ele>379.2857142857143</ele><time>2026-04-11T13:12:07.443Z</time></trkpt><trkpt lat="44.5989946" lon="7.9373331"><ele>379.8571428571429</ele><time>2026-04-11T13:12:11.442Z</time></trkpt><trkpt lat="44.5989259" lon="7.937313"><ele>380.4285714285714</ele><time>2026-04-11T13:12:15.443Z</time></trkpt><trkpt lat="44.5988541" lon="7.9373109"><ele>381.0</ele><time>2026-04-11T13:12:19.444Z</time></trkpt><trkpt lat="44.5987808" lon="7.9373068"><ele>381.0</ele><time>2026-04-11T13:12:23.443Z</time></trkpt><trkpt lat="44.5987034" lon="7.9373118"><ele>381.0</ele><time>2026-04-11T13:12:27.444Z</time></trkpt><trkpt lat="44.5986387" lon="7.9373213"><ele>381.0</ele><time>2026-04-11T13:12:30.444Z</time></trkpt><trkpt lat="44.598569" lon="7.9373496"><ele>381.0</ele><time>2026-04-11T13:12:34.443Z</time></trkpt><trkpt lat="44.5984937" lon="7.9373572"><ele>381.0</ele><time>2026-04-11T13:12:38.444Z</time></trkpt><trkpt lat="44.5984197" lon="7.9373662"><ele>381.0</ele><time>2026-04-11T13:12:42.444Z</time></trkpt><trkpt lat="44.5983518" lon="7.9373751"><ele>381.0</ele><time>2026-04-11T13:12:45.444Z</time></trkpt><trkpt lat="44.5982878" lon="7.9373819"><ele>382.5</ele><time>2026-04-11T13:12:49.444Z</time></trkpt><trkpt lat="44.5982107" lon="7.9374022"><ele>384.0</ele><time>2026-04-11T13:12:53.444Z</time></trkpt><trkpt lat="44.5981355" lon="7.9374119"><ele>385.5</ele><time>2026-04-11T13:12:57.443Z</time></trkpt><trkpt lat="44.5980698" lon="7.9374227"><ele>387.0</ele><time>2026-04-11T13:13:02.444Z</time></trkpt><trkpt lat="44.598002" lon="7.9374425"><ele>388.5</ele><time>2026-04-11T13:13:06.444Z</time></trkpt><trkpt lat="44.5979318" lon="7.9373703"><ele>390.0</ele><time>2026-04-11T13:13:10.444Z</time></trkpt><trkpt lat="44.5978966" lon="7.9372735"><ele>390.0</ele><time>2026-04-11T13:13:13.444Z</time></trkpt><trkpt lat="44.5978507" lon="7.9372013"><ele>390.0</ele><time>2026-04-11T13:13:16.444Z</time></trkpt><trkpt lat="44.5978068" lon="7.9371362"><ele>390.0</ele><time>2026-04-11T13:13:19.444Z</time></trkpt><trkpt lat="44.5977482" lon="7.9370575"><ele>390.0</ele><time>2026-04-11T13:13:23.445Z</time></trkpt><trkpt lat="44.5977002" lon="7.936998"><ele>390.0</ele><time>2026-04-11T13:13:26.445Z</time></trkpt><trkpt lat="44.5976492" lon="7.9368985"><ele>390.0</ele><time>2026-04-11T13:13:30.445Z</time></trkpt><trkpt lat="44.5975992" lon="7.9368324"><ele>390.0</ele><time>2026-04-11T13:13:33.444Z</time></trkpt><trkpt lat="44.5975561" lon="7.936761"><ele>391.0</ele><time>2026-04-11T13:13:37.445Z</time></trkpt><trkpt lat="44.5975108" lon="7.9366948"><ele>392.0</ele><time>2026-04-11T13:13:41.445Z</time></trkpt><trkpt lat="44.5974691" lon="7.936615"><ele>393.0</ele><time>2026-04-11T13:13:45.445Z</time></trkpt><trkpt lat="44.5974212" lon="7.9365396"><ele>394.0</ele><time>2026-04-11T13:13:49.445Z</time></trkpt><trkpt lat="44.5973703" lon="7.9364735"><ele>395.0</ele><time>2026-04-11T13:13:53.444Z</time></trkpt><trkpt lat="44.5973219" lon="7.9363922"><ele>396.0</ele><time>2026-04-11T13:13:57.445Z</time></trkpt><trkpt lat="44.5972553" lon="7.9363478"><ele>397.0</ele><time>2026-04-11T13:14:01.445Z</time></trkpt><trkpt lat="44.5972036" lon="7.936289"><ele>397.00000000000006</ele><time>2026-04-11T13:14:05.445Z</time></trkpt><trkpt lat="44.5971281" lon="7.936241"><ele>397.0</ele><time>2026-04-11T13:14:09.445Z</time></trkpt><trkpt lat="44.5970642" lon="7.9361696"><ele>397.0</ele><time>2026-04-11T13:14:12.444Z</time></trkpt><trkpt lat="44.5970032" lon="7.9361086"><ele>397.0</ele><time>2026-04-11T13:14:15.444Z</time></trkpt><trkpt lat="44.596934" lon="7.9360235"><ele>397.00000000000006</ele><time>2026-04-11T13:14:18.445Z</time></trkpt><trkpt lat="44.5968645" lon="7.9359456"><ele>397.0</ele><time>2026-04-11T13:14:21.445Z</time></trkpt><trkpt lat="44.5967829" lon="7.9359104"><ele>396.1428571428571</ele><time>2026-04-11T13:14:24.445Z</time></trkpt><trkpt lat="44.596716" lon="7.9359047"><ele>395.2857142857143</ele><time>2026-04-11T13:14:26.445Z</time></trkpt><trkpt lat="44.5966528" lon="7.9359042"><ele>394.42857142857144</ele><time>2026-04-11T13:14:28.446Z</time></trkpt><trkpt lat="44.596562" lon="7.9359035"><ele>393.57142857142856</ele><time>2026-04-11T13:14:31.445Z</time></trkpt><trkpt lat="44.5964871" lon="7.9359088"><ele>392.7142857142857</ele><time>2026-04-11T13:14:34.445Z</time></trkpt><trkpt lat="44.5964182" lon="7.9359263"><ele>391.85714285714283</ele><time>2026-04-11T13:14:37.445Z</time></trkpt><trkpt lat="44.5963532" lon="7.935935"><ele>391.0</ele><time>2026-04-11T13:14:40.445Z</time></trkpt><trkpt lat="44.5962866" lon="7.9359478"><ele>391.00000000000006</ele><time>2026-04-11T13:14:43.445Z</time></trkpt><trkpt lat="44.5962072" lon="7.9359734"><ele>391.0</ele><time>2026-04-11T13:14:47.446Z</time></trkpt><trkpt lat="44.596126" lon="7.9359999"><ele>391.0</ele><time>2026-04-11T13:14:51.446Z</time></trkpt><trkpt lat="44.596053" lon="7.9360175"><ele>391.0</ele><time>2026-04-11T13:14:55.446Z</time></trkpt><trkpt lat="44.5959809" lon="7.9360338"><ele>391.00000000000006</ele><time>2026-04-11T13:14:59.446Z</time></trkpt><trkpt lat="44.59592" lon="7.9360925"><ele>391.0</ele><time>2026-04-11T13:15:32.445Z</time></trkpt><trkpt lat="44.5958516" lon="7.9361114"><ele>393.33333333333337</ele><time>2026-04-11T13:15:36.446Z</time></trkpt><trkpt lat="44.5957748" lon="7.9360932"><ele>395.6666666666667</ele><time>2026-04-11T13:15:40.445Z</time></trkpt><trkpt lat="44.5957027" lon="7.9361044"><ele>398.0</ele><time>2026-04-11T13:15:45.446Z</time></trkpt><trkpt lat="44.5956283" lon="7.9361214"><ele>400.33333333333337</ele><time>2026-04-11T13:15:50.445Z</time></trkpt><trkpt lat="44.5955506" lon="7.9361288"><ele>402.6666666666667</ele><time>2026-04-11T13:15:55.446Z</time></trkpt><trkpt lat="44.5954888" lon="7.936169"><ele>405.0</ele><time>2026-04-11T13:16:57.495Z</time></trkpt><trkpt lat="44.5954147" lon="7.9362044"><ele>404.99999999999994</ele><time>2026-04-11T13:17:01.512Z</time></trkpt><trkpt lat="44.5953485" lon="7.9362017"><ele>405.0</ele><time>2026-04-11T13:17:05.53Z</time></trkpt><trkpt lat="44.5952834" lon="7.9361785"><ele>405.0</ele><time>2026-04-11T13:17:10.533Z</time></trkpt><trkpt lat="44.5952164" lon="7.9361546"><ele>405.0</ele><time>2026-04-11T13:17:13.533Z</time></trkpt><trkpt lat="44.5951352" lon="7.9361274"><ele>405.0</ele><time>2026-04-11T13:17:16.535Z</time></trkpt><trkpt lat="44.5950742" lon="7.936102"><ele>404.99999999999994</ele><time>2026-04-11T13:17:19.553Z</time></trkpt><trkpt lat="44.595011" lon="7.936071"><ele>405.0</ele><time>2026-04-11T13:17:23.471Z</time></trkpt><trkpt lat="44.5949501" lon="7.936116"><ele>406.8333333333333</ele><time>2026-04-11T13:17:32.573Z</time></trkpt><trkpt lat="44.5949348" lon="7.9362392"><ele>408.66666666666663</ele><time>2026-04-11T13:17:36.475Z</time></trkpt><trkpt lat="44.5948827" lon="7.9362924"><ele>410.5</ele><time>2026-04-11T13:17:38.575Z</time></trkpt><trkpt lat="44.5948158" lon="7.9363018"><ele>412.3333333333333</ele><time>2026-04-11T13:17:40.548Z</time></trkpt><trkpt lat="44.5947506" lon="7.9362498"><ele>414.16666666666663</ele><time>2026-04-11T13:17:42.485Z</time></trkpt><trkpt lat="44.5946716" lon="7.9361489"><ele>416.0</ele><time>2026-04-11T13:17:43.447Z</time></trkpt><trkpt lat="44.5945747" lon="7.9360352"><ele>415.99999999999994</ele><time>2026-04-11T13:17:45.448Z</time></trkpt><trkpt lat="44.5945096" lon="7.9359722"><ele>416.0</ele><time>2026-04-11T13:17:46.448Z</time></trkpt><trkpt lat="44.5944437" lon="7.9359204"><ele>416.0</ele><time>2026-04-11T13:17:47.448Z</time></trkpt><trkpt lat="44.5943814" lon="7.9358756"><ele>416.0</ele><time>2026-04-11T13:17:48.448Z</time></trkpt><trkpt lat="44.5943167" lon="7.9358484"><ele>415.99999999999994</ele><time>2026-04-11T13:17:49.447Z</time></trkpt><trkpt lat="44.5942532" lon="7.935833"><ele>416.0</ele><time>2026-04-11T13:17:50.447Z</time></trkpt><trkpt lat="44.5941307" lon="7.9358071"><ele>413.99999999999994</ele><time>2026-04-11T13:17:52.448Z</time></trkpt><trkpt lat="44.5940609" lon="7.9357875"><ele>412.0</ele><time>2026-04-11T13:17:53.447Z</time></trkpt><trkpt lat="44.5939956" lon="7.9357751"><ele>410.0</ele><time>2026-04-11T13:17:54.447Z</time></trkpt><trkpt lat="44.5939323" lon="7.9357456"><ele>408.0</ele><time>2026-04-11T13:17:55.448Z</time></trkpt><trkpt lat="44.5938313" lon="7.9356562"><ele>405.99999999999994</ele><time>2026-04-11T13:17:57.448Z</time></trkpt><trkpt lat="44.5937515" lon="7.9355654"><ele>404.0</ele><time>2026-04-11T13:17:59.448Z</time></trkpt><trkpt lat="44.5936562" lon="7.9354959"><ele>401.3333333333333</ele><time>2026-04-11T13:18:01.448Z</time></trkpt><trkpt lat="44.5935969" lon="7.9354345"><ele>398.66666666666663</ele><time>2026-04-11T13:18:03.448Z</time></trkpt><trkpt lat="44.5935253" lon="7.9353898"><ele>396.0</ele><time>2026-04-11T13:18:34.448Z</time></trkpt><trkpt lat="44.5934436" lon="7.9353491"><ele>393.33333333333337</ele><time>2026-04-11T13:18:37.449Z</time></trkpt><trkpt lat="44.5933735" lon="7.9353425"><ele>390.6666666666667</ele><time>2026-04-11T13:18:40.535Z</time></trkpt><trkpt lat="44.5933052" lon="7.9353227"><ele>388.0</ele><time>2026-04-11T13:18:42.517Z</time></trkpt><trkpt lat="44.5932247" lon="7.9353051"><ele>388.00000000000006</ele><time>2026-04-11T13:18:44.536Z</time></trkpt><trkpt lat="44.5931382" lon="7.9352788"><ele>388.0</ele><time>2026-04-11T13:18:46.449Z</time></trkpt><trkpt lat="44.5930529" lon="7.9352804"><ele>388.0</ele><time>2026-04-11T13:18:49.449Z</time></trkpt><trkpt lat="44.5929858" lon="7.9352946"><ele>388.0</ele><time>2026-04-11T13:18:51.449Z</time></trkpt><trkpt lat="44.5929106" lon="7.9352779"><ele>388.00000000000006</ele><time>2026-04-11T13:18:54.448Z</time></trkpt><trkpt lat="44.5929086" lon="7.9351834"><ele>388.0</ele><time>2026-04-11T13:19:07.449Z</time></trkpt><trkpt lat="44.5929026" lon="7.9350818"><ele>389.4285714285714</ele><time>2026-04-11T13:19:17.449Z</time></trkpt><trkpt lat="44.5928858" lon="7.9349961"><ele>390.8571428571429</ele><time>2026-04-11T13:19:25.45Z</time></trkpt><trkpt lat="44.5928785" lon="7.9349069"><ele>392.2857142857143</ele><time>2026-04-11T13:19:35.449Z</time></trkpt><trkpt lat="44.592884" lon="7.9348093"><ele>393.71428571428567</ele><time>2026-04-11T13:19:45.448Z</time></trkpt><trkpt lat="44.5928703" lon="7.9347184"><ele>395.1428571428571</ele><time>2026-04-11T13:21:06.506Z</time></trkpt><trkpt lat="44.592869" lon="7.9346251"><ele>396.57142857142856</ele><time>2026-04-11T13:21:09.434Z</time></trkpt><trkpt lat="44.5928652" lon="7.9345313"><ele>398.0</ele><time>2026-04-11T13:21:12.47Z</time></trkpt><trkpt lat="44.5928884" lon="7.9344329"><ele>397.99999999999994</ele><time>2026-04-11T13:21:15.509Z</time></trkpt><trkpt lat="44.5929155" lon="7.9343448"><ele>398.0</ele><time>2026-04-11T13:21:18.51Z</time></trkpt><trkpt lat="44.5929315" lon="7.934231"><ele>398.0</ele><time>2026-04-11T13:21:22.535Z</time></trkpt><trkpt lat="44.5929276" lon="7.9341283"><ele>398.0</ele><time>2026-04-11T13:21:26.528Z</time></trkpt><trkpt lat="44.5929025" lon="7.9340289"><ele>397.99999999999994</ele><time>2026-04-11T13:21:30.547Z</time></trkpt><trkpt lat="44.5928762" lon="7.933917"><ele>398.0</ele><time>2026-04-11T13:21:34.564Z</time></trkpt><trkpt lat="44.5928589" lon="7.9338095"><ele>396.66666666666663</ele><time>2026-04-11T13:21:38.466Z</time></trkpt><trkpt lat="44.5928475" lon="7.9337093"><ele>395.3333333333333</ele><time>2026-04-11T13:21:40.609Z</time></trkpt><trkpt lat="44.592812" lon="7.9335339"><ele>394.0</ele><time>2026-04-11T13:21:42.451Z</time></trkpt><trkpt lat="44.5927924" lon="7.9334488"><ele>392.66666666666663</ele><time>2026-04-11T13:21:43.451Z</time></trkpt><trkpt lat="44.592761" lon="7.9333172"><ele>391.3333333333333</ele><time>2026-04-11T13:21:45.451Z</time></trkpt><trkpt lat="44.5927249" lon="7.9332132"><ele>390.0</ele><time>2026-04-11T13:21:47.451Z</time></trkpt><trkpt lat="44.5926903" lon="7.933127"><ele>390.0</ele><time>2026-04-11T13:21:49.451Z</time></trkpt><trkpt lat="44.5926443" lon="7.9330199"><ele>390.0</ele><time>2026-04-11T13:21:52.451Z</time></trkpt><trkpt lat="44.5926164" lon="7.9329388"><ele>390.0</ele><time>2026-04-11T13:21:55.451Z</time></trkpt><trkpt lat="44.5926174" lon="7.9328485"><ele>390.0</ele><time>2026-04-11T13:21:58.452Z</time></trkpt><trkpt lat="44.5926588" lon="7.9327563"><ele>390.0</ele><time>2026-04-11T13:22:01.452Z</time></trkpt><trkpt lat="44.5926768" lon="7.9326676"><ele>390.0</ele><time>2026-04-11T13:22:15.452Z</time></trkpt><trkpt lat="44.5926586" lon="7.9325583"><ele>390.0</ele><time>2026-04-11T13:22:29.452Z</time></trkpt><trkpt lat="44.5926082" lon="7.9324644"><ele>391.2857142857143</ele><time>2026-04-11T13:22:34.452Z</time></trkpt><trkpt lat="44.5925672" lon="7.9323798"><ele>392.57142857142856</ele><time>2026-04-11T13:22:37.452Z</time></trkpt><trkpt lat="44.5925361" lon="7.9322819"><ele>393.8571428571429</ele><time>2026-04-11T13:22:41.451Z</time></trkpt><trkpt lat="44.5925058" lon="7.9321987"><ele>395.1428571428571</ele><time>2026-04-11T13:22:44.451Z</time></trkpt><trkpt lat="44.5924756" lon="7.9321152"><ele>396.42857142857144</ele><time>2026-04-11T13:22:47.452Z</time></trkpt><trkpt lat="44.5924431" lon="7.9320206"><ele>397.7142857142857</ele><time>2026-04-11T13:22:50.452Z</time></trkpt><trkpt lat="44.5924103" lon="7.9319202"><ele>399.0</ele><time>2026-04-11T13:22:54.453Z</time></trkpt><trkpt lat="44.5924014" lon="7.9318227"><ele>399.0</ele><time>2026-04-11T13:22:57.452Z</time></trkpt><trkpt lat="44.5923603" lon="7.9317425"><ele>399.0</ele><time>2026-04-11T13:23:00.452Z</time></trkpt><trkpt lat="44.5923203" lon="7.9316729"><ele>399.0</ele><time>2026-04-11T13:23:04.452Z</time></trkpt><trkpt lat="44.5922833" lon="7.9315907"><ele>399.0</ele><time>2026-04-11T13:23:08.452Z</time></trkpt><trkpt lat="44.5922351" lon="7.9315337"><ele>399.0</ele><time>2026-04-11T13:23:11.452Z</time></trkpt><trkpt lat="44.5921638" lon="7.931476"><ele>399.0</ele><time>2026-04-11T13:23:14.452Z</time></trkpt><trkpt lat="44.5920929" lon="7.9314128"><ele>399.0</ele><time>2026-04-11T13:23:17.451Z</time></trkpt><trkpt lat="44.5920267" lon="7.9313513"><ele>397.8333333333333</ele><time>2026-04-11T13:23:20.452Z</time></trkpt><trkpt lat="44.5919641" lon="7.9312985"><ele>396.66666666666663</ele><time>2026-04-11T13:23:23.453Z</time></trkpt><trkpt lat="44.5918826" lon="7.9312517"><ele>395.5</ele><time>2026-04-11T13:23:26.451Z</time></trkpt><trkpt lat="44.5918087" lon="7.9312236"><ele>394.3333333333333</ele><time>2026-04-11T13:23:28.453Z</time></trkpt><trkpt lat="44.5917476" lon="7.9311877"><ele>393.16666666666663</ele><time>2026-04-11T13:23:30.451Z</time></trkpt><trkpt lat="44.5916888" lon="7.9311478"><ele>392.0</ele><time>2026-04-11T13:23:32.453Z</time></trkpt><trkpt lat="44.5916066" lon="7.9310823"><ele>392.0</ele><time>2026-04-11T13:23:35.453Z</time></trkpt><trkpt lat="44.5915456" lon="7.9310298"><ele>392.0</ele><time>2026-04-11T13:23:37.452Z</time></trkpt><trkpt lat="44.5914871" lon="7.9309693"><ele>392.0</ele><time>2026-04-11T13:23:39.453Z</time></trkpt><trkpt lat="44.591432" lon="7.9309151"><ele>392.0</ele><time>2026-04-11T13:23:41.452Z</time></trkpt><trkpt lat="44.5913685" lon="7.9308767"><ele>392.0</ele><time>2026-04-11T13:23:44.453Z</time></trkpt><trkpt lat="44.5912889" lon="7.9308177"><ele>392.0</ele><time>2026-04-11T13:23:47.452Z</time></trkpt><trkpt lat="44.5912221" lon="7.9307678"><ele>392.0</ele><time>2026-04-11T13:23:50.453Z</time></trkpt><trkpt lat="44.5911585" lon="7.9307347"><ele>393.99999999999994</ele><time>2026-04-11T13:23:53.452Z</time></trkpt><trkpt lat="44.5910712" lon="7.9306901"><ele>396.0</ele><time>2026-04-11T13:23:57.453Z</time></trkpt><trkpt lat="44.5909855" lon="7.9306541"><ele>398.0</ele><time>2026-04-11T13:24:00.453Z</time></trkpt><trkpt lat="44.590912" lon="7.9306347"><ele>400.0</ele><time>2026-04-11T13:24:03.453Z</time></trkpt><trkpt lat="44.5908387" lon="7.9306098"><ele>401.99999999999994</ele><time>2026-04-11T13:24:06.453Z</time></trkpt><trkpt lat="44.5907784" lon="7.9305838"><ele>404.0</ele><time>2026-04-11T13:24:09.453Z</time></trkpt><trkpt lat="44.590714" lon="7.9305642"><ele>404.0</ele><time>2026-04-11T13:24:13.453Z</time></trkpt><trkpt lat="44.5906449" lon="7.9305469"><ele>404.0</ele><time>2026-04-11T13:24:32.454Z</time></trkpt><trkpt lat="44.5905842" lon="7.930522"><ele>404.0</ele><time>2026-04-11T13:24:38.454Z</time></trkpt><trkpt lat="44.5905194" lon="7.9305055"><ele>404.0</ele><time>2026-04-11T13:24:46.454Z</time></trkpt><trkpt lat="44.5904555" lon="7.9304812"><ele>404.0</ele><time>2026-04-11T13:24:52.454Z</time></trkpt><trkpt lat="44.5903927" lon="7.9304624"><ele>404.0</ele><time>2026-04-11T13:24:59.454Z</time></trkpt><trkpt lat="44.5903241" lon="7.9304265"><ele>404.0</ele><time>2026-04-11T13:25:08.454Z</time></trkpt><trkpt lat="44.5902589" lon="7.9304033"><ele>404.57142857142856</ele><time>2026-04-11T13:25:16.454Z</time></trkpt><trkpt lat="44.5901933" lon="7.9303991"><ele>405.1428571428571</ele><time>2026-04-11T13:25:23.454Z</time></trkpt><trkpt lat="44.590129" lon="7.9304205"><ele>405.7142857142857</ele><time>2026-04-11T13:25:32.455Z</time></trkpt><trkpt lat="44.5900735" lon="7.9303661"><ele>406.2857142857143</ele><time>2026-04-11T13:25:40.453Z</time></trkpt><trkpt lat="44.5899935" lon="7.9303472"><ele>406.8571428571429</ele><time>2026-04-11T13:25:51.454Z</time></trkpt><trkpt lat="44.5899144" lon="7.9303197"><ele>407.42857142857144</ele><time>2026-04-11T13:25:54.455Z</time></trkpt><trkpt lat="44.5898404" lon="7.930286"><ele>408.0</ele><time>2026-04-11T13:25:59.455Z</time></trkpt><trkpt lat="44.589768" lon="7.9302408"><ele>408.0</ele><time>2026-04-11T13:26:03.454Z</time></trkpt><trkpt lat="44.5897057" lon="7.9301983"><ele>408.0</ele><time>2026-04-11T13:26:06.455Z</time></trkpt><trkpt lat="44.5896376" lon="7.9301605"><ele>408.0</ele><time>2026-04-11T13:26:09.455Z</time></trkpt><trkpt lat="44.5895866" lon="7.930107"><ele>408.0</ele><time>2026-04-11T13:26:12.455Z</time></trkpt><trkpt lat="44.5895448" lon="7.9300332"><ele>408.0</ele><time>2026-04-11T13:26:15.455Z</time></trkpt><trkpt lat="44.5894987" lon="7.9299697"><ele>408.0</ele><time>2026-04-11T13:26:18.454Z</time></trkpt><trkpt lat="44.5894479" lon="7.9299135"><ele>408.0</ele><time>2026-04-11T13:26:21.455Z</time></trkpt><trkpt lat="44.5894022" lon="7.9298294"><ele>409.42857142857144</ele><time>2026-04-11T13:26:25.455Z</time></trkpt><trkpt lat="44.5893494" lon="7.9297653"><ele>410.8571428571429</ele><time>2026-04-11T13:26:28.455Z</time></trkpt><trkpt lat="44.5892977" lon="7.9297056"><ele>412.2857142857143</ele><time>2026-04-11T13:26:31.455Z</time></trkpt><trkpt lat="44.5892704" lon="7.9296258"><ele>413.7142857142857</ele><time>2026-04-11T13:26:34.455Z</time></trkpt><trkpt lat="44.5892314" lon="7.92953"><ele>415.1428571428571</ele><time>2026-04-11T13:26:38.455Z</time></trkpt><trkpt lat="44.5892114" lon="7.9294155"><ele>416.57142857142856</ele><time>2026-04-11T13:26:42.454Z</time></trkpt><trkpt lat="44.5891818" lon="7.929337"><ele>418.0</ele><time>2026-04-11T13:26:45.455Z</time></trkpt><trkpt lat="44.5891572" lon="7.9292422"><ele>420.42857142857144</ele><time>2026-04-11T13:26:49.454Z</time></trkpt><trkpt lat="44.5891009" lon="7.9291874"><ele>422.85714285714283</ele><time>2026-04-11T13:26:53.454Z</time></trkpt><trkpt lat="44.5890432" lon="7.9291338"><ele>425.28571428571433</ele><time>2026-04-11T13:27:04.454Z</time></trkpt><trkpt lat="44.5889822" lon="7.9290861"><ele>427.7142857142857</ele><time>2026-04-11T13:27:11.456Z</time></trkpt><trkpt lat="44.5889128" lon="7.9290553"><ele>430.14285714285717</ele><time>2026-04-11T13:27:18.456Z</time></trkpt><trkpt lat="44.5888479" lon="7.9290095"><ele>432.5714285714286</ele><time>2026-04-11T13:27:29.455Z</time></trkpt><trkpt lat="44.588787" lon="7.9289617"><ele>435.0</ele><time>2026-04-11T13:27:37.455Z</time></trkpt><trkpt lat="44.5887261" lon="7.9289906"><ele>436.00000000000006</ele><time>2026-04-11T13:27:48.456Z</time></trkpt><trkpt lat="44.5886614" lon="7.928977"><ele>437.0</ele><time>2026-04-11T13:28:01.456Z</time></trkpt><trkpt lat="44.5885926" lon="7.9289724"><ele>438.0</ele><time>2026-04-11T13:28:07.455Z</time></trkpt><trkpt lat="44.5885196" lon="7.9289953"><ele>439.0</ele><time>2026-04-11T13:28:14.457Z</time></trkpt><trkpt lat="44.5884689" lon="7.9290587"><ele>440.0</ele><time>2026-04-11T13:29:01.456Z</time></trkpt><trkpt lat="44.588407" lon="7.9290955"><ele>441.00000000000006</ele><time>2026-04-11T13:29:05.457Z</time></trkpt><trkpt lat="44.5883371" lon="7.9291255"><ele>442.0</ele><time>2026-04-11T13:29:12.457Z</time></trkpt><trkpt lat="44.5882701" lon="7.9291644"><ele>442.00000000000006</ele><time>2026-04-11T13:29:21.456Z</time></trkpt><trkpt lat="44.5882039" lon="7.9291811"><ele>442.0</ele><time>2026-04-11T13:29:28.458Z</time></trkpt><trkpt lat="44.5881453" lon="7.9292159"><ele>442.0</ele><time>2026-04-11T13:29:35.458Z</time></trkpt><trkpt lat="44.5880818" lon="7.9292467"><ele>442.0</ele><time>2026-04-11T13:29:41.457Z</time></trkpt><trkpt lat="44.5880149" lon="7.9292311"><ele>442.0</ele><time>2026-04-11T13:29:48.458Z</time></trkpt><trkpt lat="44.587953" lon="7.9292558"><ele>442.00000000000006</ele><time>2026-04-11T13:29:56.457Z</time></trkpt><trkpt lat="44.5878959" lon="7.9292182"><ele>442.0</ele><time>2026-04-11T13:30:00.458Z</time></trkpt><trkpt lat="44.5878372" lon="7.9291727"><ele>442.00000000000006</ele><time>2026-04-11T13:30:06.458Z</time></trkpt><trkpt lat="44.5877744" lon="7.9291582"><ele>442.0</ele><time>2026-04-11T13:30:14.457Z</time></trkpt><trkpt lat="44.5877311" lon="7.9290933"><ele>442.0</ele><time>2026-04-11T13:30:25.458Z</time></trkpt><trkpt lat="44.5877862" lon="7.9290377"><ele>442.0</ele><time>2026-04-11T13:30:37.458Z</time></trkpt><trkpt lat="44.5878453" lon="7.9289859"><ele>442.0</ele><time>2026-04-11T13:30:50.459Z</time></trkpt><trkpt lat="44.5879078" lon="7.9289369"><ele>442.00000000000006</ele><time>2026-04-11T13:30:58.459Z</time></trkpt><trkpt lat="44.5879632" lon="7.9288904"><ele>442.0</ele><time>2026-04-11T13:31:05.459Z</time></trkpt><trkpt lat="44.5880288" lon="7.9288657"><ele>442.00000000000006</ele><time>2026-04-11T13:31:14.459Z</time></trkpt><trkpt lat="44.5880805" lon="7.928809"><ele>442.0</ele><time>2026-04-11T13:31:21.459Z</time></trkpt><trkpt lat="44.5881223" lon="7.9287353"><ele>442.0</ele><time>2026-04-11T13:31:27.459Z</time></trkpt><trkpt lat="44.5881804" lon="7.9286631"><ele>442.0</ele><time>2026-04-11T13:31:34.459Z</time></trkpt><trkpt lat="44.5882175" lon="7.9285842"><ele>442.0</ele><time>2026-04-11T13:31:41.459Z</time></trkpt><trkpt lat="44.5882541" lon="7.9285093"><ele>442.00000000000006</ele><time>2026-04-11T13:31:53.459Z</time></trkpt><trkpt lat="44.5882283" lon="7.9284166"><ele>442.0</ele><time>2026-04-11T13:31:57.459Z</time></trkpt><trkpt lat="44.5881983" lon="7.9283319"><ele>444.8571428571429</ele><time>2026-04-11T13:32:01.46Z</time></trkpt><trkpt lat="44.5882332" lon="7.9282524"><ele>447.7142857142857</ele><time>2026-04-11T13:32:13.46Z</time></trkpt><trkpt lat="44.5882876" lon="7.9281974"><ele>450.57142857142856</ele><time>2026-04-11T13:32:18.46Z</time></trkpt><trkpt lat="44.5883063" lon="7.9280968"><ele>453.42857142857144</ele><time>2026-04-11T13:32:25.459Z</time></trkpt><trkpt lat="44.5883175" lon="7.9280019"><ele>456.2857142857143</ele><time>2026-04-11T13:32:31.46Z</time></trkpt><trkpt lat="44.5883607" lon="7.9279107"><ele>459.14285714285717</ele><time>2026-04-11T13:32:35.46Z</time></trkpt><trkpt lat="44.5884143" lon="7.9278566"><ele>462.0</ele><time>2026-04-11T13:32:43.46Z</time></trkpt><trkpt lat="44.5884759" lon="7.9278202"><ele>462.0</ele><time>2026-04-11T13:32:50.459Z</time></trkpt><trkpt lat="44.5884905" lon="7.9277337"><ele>462.0</ele><time>2026-04-11T13:33:17.461Z</time></trkpt><trkpt lat="44.5885172" lon="7.9276476"><ele>462.0</ele><time>2026-04-11T13:33:23.46Z</time></trkpt><trkpt lat="44.5885745" lon="7.9275856"><ele>462.0</ele><time>2026-04-11T13:33:31.46Z</time></trkpt><trkpt lat="44.5885879" lon="7.9274988"><ele>462.0</ele><time>2026-04-11T13:33:35.461Z</time></trkpt><trkpt lat="44.5886472" lon="7.9274517"><ele>462.0</ele><time>2026-04-11T13:33:41.46Z</time></trkpt><trkpt lat="44.5887018" lon="7.927389"><ele>462.0</ele><time>2026-04-11T13:33:47.461Z</time></trkpt><trkpt lat="44.5886444" lon="7.9274567"><ele>462.0</ele><time>2026-04-11T13:35:02.462Z</time></trkpt><trkpt lat="44.588566" lon="7.9274871"><ele>462.0</ele><time>2026-04-11T13:35:08.49Z</time></trkpt><trkpt lat="44.5885582" lon="7.927579"><ele>462.0</ele><time>2026-04-11T13:35:43.514Z</time></trkpt><trkpt lat="44.5884836" lon="7.9276025"><ele>462.0</ele><time>2026-04-11T13:36:03.561Z</time></trkpt><trkpt lat="44.5884454" lon="7.9275216"><ele>462.0</ele><time>2026-04-11T13:36:07.505Z</time></trkpt><trkpt lat="44.5883913" lon="7.9273956"><ele>462.0</ele><time>2026-04-11T13:36:10.505Z</time></trkpt><trkpt lat="44.5883267" lon="7.9273492"><ele>463.0</ele><time>2026-04-11T13:36:13.539Z</time></trkpt><trkpt lat="44.5882684" lon="7.9273839"><ele>464.0</ele><time>2026-04-11T13:36:15.54Z</time></trkpt><trkpt lat="44.5882095" lon="7.927456"><ele>465.0</ele><time>2026-04-11T13:36:17.557Z</time></trkpt><trkpt lat="44.5881515" lon="7.9274112"><ele>466.0</ele><time>2026-04-11T13:36:54.514Z</time></trkpt><trkpt lat="44.5881329" lon="7.927308"><ele>467.0</ele><time>2026-04-11T13:37:01.533Z</time></trkpt><trkpt lat="44.5881195" lon="7.9272067"><ele>468.0</ele><time>2026-04-11T13:37:05.467Z</time></trkpt><trkpt lat="44.5880914" lon="7.9271214"><ele>469.0</ele><time>2026-04-11T13:37:08.517Z</time></trkpt><trkpt lat="44.5880571" lon="7.9270368"><ele>469.0</ele><time>2026-04-11T13:37:12.535Z</time></trkpt><trkpt lat="44.5880452" lon="7.9269499"><ele>469.0</ele><time>2026-04-11T13:37:39.543Z</time></trkpt><trkpt lat="44.5879828" lon="7.9269299"><ele>469.0</ele><time>2026-04-11T13:38:16.522Z</time></trkpt><trkpt lat="44.5879185" lon="7.9269445"><ele>469.0</ele><time>2026-04-11T13:38:19.523Z</time></trkpt><trkpt lat="44.5878314" lon="7.9269528"><ele>469.0</ele><time>2026-04-11T13:38:22.539Z</time></trkpt><trkpt lat="44.5877529" lon="7.9269479"><ele>469.0</ele><time>2026-04-11T13:38:24.558Z</time></trkpt><trkpt lat="44.5876712" lon="7.9269344"><ele>469.0</ele><time>2026-04-11T13:38:26.49Z</time></trkpt><trkpt lat="44.5876352" lon="7.9268469"><ele>469.1666666666667</ele><time>2026-04-11T13:38:28.508Z</time></trkpt><trkpt lat="44.5876985" lon="7.9267785"><ele>469.33333333333337</ele><time>2026-04-11T13:38:31.508Z</time></trkpt><trkpt lat="44.5877634" lon="7.9268089"><ele>469.5</ele><time>2026-04-11T13:38:36.527Z</time></trkpt><trkpt lat="44.5876946" lon="7.9268713"><ele>469.66666666666663</ele><time>2026-04-11T13:39:04.483Z</time></trkpt><trkpt lat="44.5876288" lon="7.9268799"><ele>469.8333333333333</ele><time>2026-04-11T13:39:06.483Z</time></trkpt><trkpt lat="44.5875487" lon="7.9268798"><ele>470.0</ele><time>2026-04-11T13:39:09.5Z</time></trkpt><trkpt lat="44.5874561" lon="7.9268879"><ele>469.99999999999994</ele><time>2026-04-11T13:39:12.604Z</time></trkpt><trkpt lat="44.58738" lon="7.926908"><ele>470.0</ele><time>2026-04-11T13:39:15.534Z</time></trkpt><trkpt lat="44.5873052" lon="7.9268955"><ele>470.0</ele><time>2026-04-11T13:39:18.551Z</time></trkpt><trkpt lat="44.5872181" lon="7.9268705"><ele>470.0</ele><time>2026-04-11T13:39:21.553Z</time></trkpt><trkpt lat="44.5871291" lon="7.9268357"><ele>469.99999999999994</ele><time>2026-04-11T13:39:24.503Z</time></trkpt><trkpt lat="44.5870557" lon="7.9268155"><ele>470.0</ele><time>2026-04-11T13:39:26.6Z</time></trkpt><trkpt lat="44.5869849" lon="7.9267791"><ele>467.8</ele><time>2026-04-11T13:39:28.52Z</time></trkpt><trkpt lat="44.5867795" lon="7.9266733"><ele>465.6</ele><time>2026-04-11T13:39:30.466Z</time></trkpt><trkpt lat="44.5867129" lon="7.9266357"><ele>463.4</ele><time>2026-04-11T13:39:31.466Z</time></trkpt><trkpt lat="44.5866369" lon="7.9265921"><ele>461.2</ele><time>2026-04-11T13:39:32.465Z</time></trkpt><trkpt lat="44.5865704" lon="7.9265555"><ele>459.0</ele><time>2026-04-11T13:39:33.466Z</time></trkpt><trkpt lat="44.5864728" lon="7.9264982"><ele>459.0</ele><time>2026-04-11T13:39:35.466Z</time></trkpt><trkpt lat="44.586405" lon="7.9264243"><ele>459.0</ele><time>2026-04-11T13:39:38.466Z</time></trkpt><trkpt lat="44.5863538" lon="7.9263519"><ele>459.0</ele><time>2026-04-11T13:39:40.466Z</time></trkpt><trkpt lat="44.5862974" lon="7.9262735"><ele>459.0</ele><time>2026-04-11T13:39:42.465Z</time></trkpt><trkpt lat="44.5862206" lon="7.9262137"><ele>459.0</ele><time>2026-04-11T13:39:45.465Z</time></trkpt><trkpt lat="44.5861583" lon="7.9261903"><ele>459.0</ele><time>2026-04-11T13:39:48.465Z</time></trkpt><trkpt lat="44.5861039" lon="7.9262616"><ele>458.8571428571429</ele><time>2026-04-11T13:40:02.465Z</time></trkpt><trkpt lat="44.5860724" lon="7.9263499"><ele>458.71428571428567</ele><time>2026-04-11T13:40:05.467Z</time></trkpt><trkpt lat="44.5860546" lon="7.9264398"><ele>458.57142857142856</ele><time>2026-04-11T13:40:12.466Z</time></trkpt><trkpt lat="44.586098" lon="7.9265083"><ele>458.42857142857144</ele><time>2026-04-11T13:41:03.466Z</time></trkpt><trkpt lat="44.586127" lon="7.926588"><ele>458.28571428571433</ele><time>2026-04-11T13:41:07.467Z</time></trkpt><trkpt lat="44.5861481" lon="7.9266782"><ele>458.1428571428571</ele><time>2026-04-11T13:41:13.468Z</time></trkpt><trkpt lat="44.5861597" lon="7.9267671"><ele>458.0</ele><time>2026-04-11T13:41:24.468Z</time></trkpt><trkpt lat="44.5862009" lon="7.926853"><ele>459.42857142857144</ele><time>2026-04-11T13:41:32.468Z</time></trkpt><trkpt lat="44.5861721" lon="7.9269402"><ele>460.8571428571429</ele><time>2026-04-11T13:41:57.468Z</time></trkpt><trkpt lat="44.5861907" lon="7.9270323"><ele>462.28571428571433</ele><time>2026-04-11T13:42:04.468Z</time></trkpt><trkpt lat="44.5862371" lon="7.9271075"><ele>463.7142857142857</ele><time>2026-04-11T13:42:11.468Z</time></trkpt><trkpt lat="44.5862431" lon="7.9271977"><ele>465.1428571428572</ele><time>2026-04-11T13:42:19.468Z</time></trkpt><trkpt lat="44.5862578" lon="7.9273079"><ele>466.5714285714286</ele><time>2026-04-11T13:42:25.468Z</time></trkpt><trkpt lat="44.5862797" lon="7.9273943"><ele>468.0</ele><time>2026-04-11T13:42:30.468Z</time></trkpt><trkpt lat="44.5863289" lon="7.9274523"><ele>468.14285714285717</ele><time>2026-04-11T13:42:36.468Z</time></trkpt><trkpt lat="44.586352" lon="7.9275376"><ele>468.28571428571433</ele><time>2026-04-11T13:42:44.468Z</time></trkpt><trkpt lat="44.5863873" lon="7.9274565"><ele>468.42857142857144</ele><time>2026-04-11T13:43:20.469Z</time></trkpt><trkpt lat="44.5864475" lon="7.9275009"><ele>468.57142857142856</ele><time>2026-04-11T13:44:20.581Z</time></trkpt><trkpt lat="44.5864746" lon="7.9275836"><ele>468.7142857142857</ele><time>2026-04-11T13:44:22.482Z</time></trkpt><trkpt lat="44.5864734" lon="7.9276737"><ele>468.8571428571429</ele><time>2026-04-11T13:44:24.528Z</time></trkpt><trkpt lat="44.5865184" lon="7.9277581"><ele>469.0</ele><time>2026-04-11T13:44:28.527Z</time></trkpt><trkpt lat="44.5865496" lon="7.927837"><ele>469.0</ele><time>2026-04-11T13:44:53.505Z</time></trkpt><trkpt lat="44.5865285" lon="7.9279211"><ele>469.0</ele><time>2026-04-11T13:45:43.517Z</time></trkpt><trkpt lat="44.5865796" lon="7.9278641"><ele>469.0</ele><time>2026-04-11T13:45:47.59Z</time></trkpt><trkpt lat="44.5866131" lon="7.9277496"><ele>469.0</ele><time>2026-04-11T13:45:50.52Z</time></trkpt><trkpt lat="44.5866181" lon="7.9276425"><ele>469.0</ele><time>2026-04-11T13:45:53.554Z</time></trkpt><trkpt lat="44.5866156" lon="7.9275516"><ele>469.0</ele><time>2026-04-11T13:45:55.554Z</time></trkpt><trkpt lat="44.5865918" lon="7.9274682"><ele>469.0</ele><time>2026-04-11T13:46:23.562Z</time></trkpt><trkpt lat="44.5866612" lon="7.9275237"><ele>469.00000000000006</ele><time>2026-04-11T13:46:25.471Z</time></trkpt><trkpt lat="44.5867177" lon="7.9275992"><ele>469.0</ele><time>2026-04-11T13:46:29.534Z</time></trkpt><trkpt lat="44.5868003" lon="7.9276028"><ele>469.0</ele><time>2026-04-11T13:46:31.531Z</time></trkpt><trkpt lat="44.5868619" lon="7.9275832"><ele>469.0</ele><time>2026-04-11T13:46:35.549Z</time></trkpt><trkpt lat="44.5869046" lon="7.9274741"><ele>469.00000000000006</ele><time>2026-04-11T13:46:39.55Z</time></trkpt><trkpt lat="44.5869364" lon="7.927391"><ele>469.0</ele><time>2026-04-11T13:46:44.551Z</time></trkpt><trkpt lat="44.5870058" lon="7.9272905"><ele>469.1666666666667</ele><time>2026-04-11T13:46:47.495Z</time></trkpt><trkpt lat="44.5870548" lon="7.9272106"><ele>469.33333333333337</ele><time>2026-04-11T13:46:49.552Z</time></trkpt><trkpt lat="44.5871091" lon="7.9271541"><ele>469.5</ele><time>2026-04-11T13:46:52.57Z</time></trkpt><trkpt lat="44.5871784" lon="7.9270723"><ele>469.66666666666663</ele><time>2026-04-11T13:46:58.542Z</time></trkpt><trkpt lat="44.5872396" lon="7.9269396"><ele>469.8333333333333</ele><time>2026-04-11T13:46:59.472Z</time></trkpt><trkpt lat="44.5873245" lon="7.9268918"><ele>470.0</ele><time>2026-04-11T13:47:02.472Z</time></trkpt><trkpt lat="44.5873914" lon="7.9268752"><ele>469.99999999999994</ele><time>2026-04-11T13:47:04.472Z</time></trkpt><trkpt lat="44.5874772" lon="7.9268572"><ele>470.0</ele><time>2026-04-11T13:47:06.471Z</time></trkpt><trkpt lat="44.5875537" lon="7.926817"><ele>470.0</ele><time>2026-04-11T13:47:09.472Z</time></trkpt><trkpt lat="44.5876165" lon="7.9268269"><ele>470.0</ele><time>2026-04-11T13:47:12.472Z</time></trkpt><trkpt lat="44.5876804" lon="7.9268374"><ele>469.99999999999994</ele><time>2026-04-11T13:47:14.472Z</time></trkpt><trkpt lat="44.5877688" lon="7.9268083"><ele>470.0</ele><time>2026-04-11T13:47:16.472Z</time></trkpt><trkpt lat="44.5878611" lon="7.9267802"><ele>469.8333333333333</ele><time>2026-04-11T13:47:19.472Z</time></trkpt><trkpt lat="44.5879348" lon="7.9267575"><ele>469.66666666666663</ele><time>2026-04-11T13:47:21.471Z</time></trkpt><trkpt lat="44.5880086" lon="7.9267587"><ele>469.5</ele><time>2026-04-11T13:47:23.472Z</time></trkpt><trkpt lat="44.5880888" lon="7.926755"><ele>469.33333333333337</ele><time>2026-04-11T13:47:26.472Z</time></trkpt><trkpt lat="44.5881572" lon="7.9267753"><ele>469.1666666666667</ele><time>2026-04-11T13:47:28.471Z</time></trkpt><trkpt lat="44.5882285" lon="7.9266968"><ele>469.0</ele><time>2026-04-11T13:48:29.545Z</time></trkpt><trkpt lat="44.5882868" lon="7.9266408"><ele>466.4</ele><time>2026-04-11T13:48:33.57Z</time></trkpt><trkpt lat="44.5883798" lon="7.9265765"><ele>463.79999999999995</ele><time>2026-04-11T13:48:35.58Z</time></trkpt><trkpt lat="44.588466" lon="7.9265051"><ele>461.20000000000005</ele><time>2026-04-11T13:48:37.452Z</time></trkpt><trkpt lat="44.5885523" lon="7.9264162"><ele>458.6</ele><time>2026-04-11T13:48:39.513Z</time></trkpt><trkpt lat="44.5886557" lon="7.9263148"><ele>456.0</ele><time>2026-04-11T13:48:41.473Z</time></trkpt><trkpt lat="44.588711" lon="7.9262649"><ele>456.0</ele><time>2026-04-11T13:48:42.472Z</time></trkpt><trkpt lat="44.5887706" lon="7.9262127"><ele>456.0</ele><time>2026-04-11T13:48:43.473Z</time></trkpt><trkpt lat="44.5888305" lon="7.9261529"><ele>456.0</ele><time>2026-04-11T13:48:44.473Z</time></trkpt><trkpt lat="44.5888964" lon="7.9261064"><ele>456.0</ele><time>2026-04-11T13:48:45.473Z</time></trkpt><trkpt lat="44.5889578" lon="7.9260752"><ele>456.0</ele><time>2026-04-11T13:48:46.473Z</time></trkpt><trkpt lat="44.5890189" lon="7.926053"><ele>456.0</ele><time>2026-04-11T13:48:47.474Z</time></trkpt><trkpt lat="44.5891322" lon="7.92601"><ele>456.0</ele><time>2026-04-11T13:48:49.473Z</time></trkpt><trkpt lat="44.5892311" lon="7.9259996"><ele>456.0</ele><time>2026-04-11T13:48:51.472Z</time></trkpt><trkpt lat="44.5893282" lon="7.9260009"><ele>456.0</ele><time>2026-04-11T13:48:53.474Z</time></trkpt><trkpt lat="44.5894069" lon="7.9259862"><ele>456.0</ele><time>2026-04-11T13:48:55.472Z</time></trkpt><trkpt lat="44.5894975" lon="7.9259543"><ele>456.0</ele><time>2026-04-11T13:48:57.473Z</time></trkpt><trkpt lat="44.5896121" lon="7.9259432"><ele>454.8333333333333</ele><time>2026-04-11T13:48:59.473Z</time></trkpt><trkpt lat="44.5896762" lon="7.9259328"><ele>453.66666666666663</ele><time>2026-04-11T13:49:00.472Z</time></trkpt><trkpt lat="44.5897512" lon="7.9259241"><ele>452.5</ele><time>2026-04-11T13:49:01.473Z</time></trkpt><trkpt lat="44.5898336" lon="7.925908"><ele>451.3333333333333</ele><time>2026-04-11T13:49:02.472Z</time></trkpt><trkpt lat="44.5899204" lon="7.9258901"><ele>450.16666666666663</ele><time>2026-04-11T13:49:03.474Z</time></trkpt><trkpt lat="44.5900044" lon="7.9258674"><ele>449.0</ele><time>2026-04-11T13:49:04.474Z</time></trkpt><trkpt lat="44.5901002" lon="7.9258403"><ele>446.8333333333333</ele><time>2026-04-11T13:49:05.474Z</time></trkpt><trkpt lat="44.5901834" lon="7.925812"><ele>444.66666666666663</ele><time>2026-04-11T13:49:06.473Z</time></trkpt><trkpt lat="44.5902634" lon="7.9257882"><ele>442.5</ele><time>2026-04-11T13:49:07.473Z</time></trkpt><trkpt lat="44.5903329" lon="7.9257628"><ele>440.33333333333337</ele><time>2026-04-11T13:49:08.474Z</time></trkpt><trkpt lat="44.5903963" lon="7.9257328"><ele>438.1666666666667</ele><time>2026-04-11T13:49:09.474Z</time></trkpt><trkpt lat="44.5904582" lon="7.9257035"><ele>436.0</ele><time>2026-04-11T13:49:10.474Z</time></trkpt><trkpt lat="44.5905709" lon="7.9256506"><ele>436.00000000000006</ele><time>2026-04-11T13:49:12.474Z</time></trkpt><trkpt lat="44.5906709" lon="7.9256088"><ele>436.0</ele><time>2026-04-11T13:49:14.474Z</time></trkpt><trkpt lat="44.5907651" lon="7.9255855"><ele>436.0</ele><time>2026-04-11T13:49:16.474Z</time></trkpt><trkpt lat="44.590829" lon="7.9255759"><ele>436.0</ele><time>2026-04-11T13:49:18.474Z</time></trkpt><trkpt lat="44.5908913" lon="7.9255577"><ele>436.00000000000006</ele><time>2026-04-11T13:49:20.474Z</time></trkpt><trkpt lat="44.5909604" lon="7.9255535"><ele>436.0</ele><time>2026-04-11T13:49:22.473Z</time></trkpt><trkpt lat="44.5910252" lon="7.9255444"><ele>436.0</ele><time>2026-04-11T13:49:41.474Z</time></trkpt><trkpt lat="44.5910332" lon="7.925447"><ele>436.0</ele><time>2026-04-11T13:49:43.474Z</time></trkpt><trkpt lat="44.5909916" lon="7.925332"><ele>436.0</ele><time>2026-04-11T13:49:46.474Z</time></trkpt><trkpt lat="44.5909211" lon="7.9252309"><ele>436.0</ele><time>2026-04-11T13:49:48.474Z</time></trkpt><trkpt lat="44.5908144" lon="7.9251479"><ele>436.0</ele><time>2026-04-11T13:49:50.474Z</time></trkpt><trkpt lat="44.5907541" lon="7.9251064"><ele>436.0</ele><time>2026-04-11T13:49:51.474Z</time></trkpt><trkpt lat="44.5906954" lon="7.9250625"><ele>436.0</ele><time>2026-04-11T13:49:52.473Z</time></trkpt><trkpt lat="44.5906381" lon="7.9250122"><ele>436.0</ele><time>2026-04-11T13:49:53.474Z</time></trkpt><trkpt lat="44.5905764" lon="7.9249623"><ele>436.0</ele><time>2026-04-11T13:49:54.474Z</time></trkpt><trkpt lat="44.5905117" lon="7.9249108"><ele>436.0</ele><time>2026-04-11T13:49:55.474Z</time></trkpt><trkpt lat="44.5904441" lon="7.9248583"><ele>436.0</ele><time>2026-04-11T13:49:56.474Z</time></trkpt><trkpt lat="44.5903762" lon="7.9248046"><ele>436.0</ele><time>2026-04-11T13:49:57.473Z</time></trkpt><trkpt lat="44.5903075" lon="7.9247469"><ele>434.33333333333337</ele><time>2026-04-11T13:49:58.474Z</time></trkpt><trkpt lat="44.590238" lon="7.9246826"><ele>432.6666666666667</ele><time>2026-04-11T13:49:59.473Z</time></trkpt><trkpt lat="44.5901665" lon="7.9246097"><ele>431.0</ele><time>2026-04-11T13:50:00.474Z</time></trkpt><trkpt lat="44.5900906" lon="7.9245375"><ele>429.33333333333337</ele><time>2026-04-11T13:50:01.474Z</time></trkpt><trkpt lat="44.5900204" lon="7.9244704"><ele>427.6666666666667</ele><time>2026-04-11T13:50:02.474Z</time></trkpt><trkpt lat="44.5899478" lon="7.9244029"><ele>426.0</ele><time>2026-04-11T13:50:03.474Z</time></trkpt><trkpt lat="44.5898846" lon="7.9243454"><ele>426.0</ele><time>2026-04-11T13:50:04.473Z</time></trkpt><trkpt lat="44.5897861" lon="7.9242626"><ele>426.0</ele><time>2026-04-11T13:50:06.475Z</time></trkpt><trkpt lat="44.5897075" lon="7.924213"><ele>426.0</ele><time>2026-04-11T13:50:08.474Z</time></trkpt><trkpt lat="44.5896422" lon="7.9241562"><ele>426.0</ele><time>2026-04-11T13:50:10.474Z</time></trkpt><trkpt lat="44.5895824" lon="7.9241042"><ele>426.0</ele><time>2026-04-11T13:50:12.474Z</time></trkpt><trkpt lat="44.5895244" lon="7.9240576"><ele>426.0</ele><time>2026-04-11T13:50:14.473Z</time></trkpt><trkpt lat="44.5894329" lon="7.9239855"><ele>425.0</ele><time>2026-04-11T13:50:16.474Z</time></trkpt><trkpt lat="44.589355" lon="7.923928"><ele>424.0</ele><time>2026-04-11T13:50:18.475Z</time></trkpt><trkpt lat="44.5892668" lon="7.9238847"><ele>423.0</ele><time>2026-04-11T13:50:21.473Z</time></trkpt><trkpt lat="44.5892054" lon="7.9238346"><ele>422.0</ele><time>2026-04-11T13:50:24.475Z</time></trkpt><trkpt lat="44.5892592" lon="7.9237741"><ele>421.0</ele><time>2026-04-11T13:50:57.476Z</time></trkpt><trkpt lat="44.589317" lon="7.9238152"><ele>420.0</ele><time>2026-04-11T13:50:59.474Z</time></trkpt><trkpt lat="44.589384" lon="7.9238272"><ele>420.0</ele><time>2026-04-11T13:51:03.475Z</time></trkpt><trkpt lat="44.589459" lon="7.9238866"><ele>420.0</ele><time>2026-04-11T13:51:06.475Z</time></trkpt><trkpt lat="44.5895542" lon="7.9238872"><ele>420.0</ele><time>2026-04-11T13:51:09.475Z</time></trkpt><trkpt lat="44.5896205" lon="7.9239281"><ele>420.0</ele><time>2026-04-11T13:51:11.475Z</time></trkpt><trkpt lat="44.5896904" lon="7.9239408"><ele>420.0</ele><time>2026-04-11T13:51:13.475Z</time></trkpt><trkpt lat="44.5897821" lon="7.9239531"><ele>420.0</ele><time>2026-04-11T13:51:15.475Z</time></trkpt><trkpt lat="44.5898688" lon="7.9239772"><ele>419.3333333333333</ele><time>2026-04-11T13:51:17.475Z</time></trkpt><trkpt lat="44.5899554" lon="7.9239833"><ele>418.66666666666663</ele><time>2026-04-11T13:51:20.475Z</time></trkpt><trkpt lat="44.5900352" lon="7.9239502"><ele>418.0</ele><time>2026-04-11T13:51:23.474Z</time></trkpt><trkpt lat="44.5900827" lon="7.9238699"><ele>417.3333333333333</ele><time>2026-04-11T13:51:25.475Z</time></trkpt><trkpt lat="44.5900916" lon="7.9237034"><ele>416.66666666666663</ele><time>2026-04-11T13:51:27.475Z</time></trkpt><trkpt lat="44.5900783" lon="7.9236097"><ele>416.0</ele><time>2026-04-11T13:51:28.476Z</time></trkpt><trkpt lat="44.590073" lon="7.9235103"><ele>415.99999999999994</ele><time>2026-04-11T13:51:29.474Z</time></trkpt><trkpt lat="44.5900727" lon="7.9233987"><ele>416.0</ele><time>2026-04-11T13:51:30.475Z</time></trkpt><trkpt lat="44.590072" lon="7.9232982"><ele>416.0</ele><time>2026-04-11T13:51:31.475Z</time></trkpt><trkpt lat="44.5900708" lon="7.9232077"><ele>416.0</ele><time>2026-04-11T13:51:32.476Z</time></trkpt><trkpt lat="44.5900788" lon="7.9230446"><ele>415.99999999999994</ele><time>2026-04-11T13:51:34.475Z</time></trkpt><trkpt lat="44.5900806" lon="7.9228882"><ele>416.0</ele><time>2026-04-11T13:51:36.476Z</time></trkpt><trkpt lat="44.5900684" lon="7.9227434"><ele>412.4</ele><time>2026-04-11T13:51:38.476Z</time></trkpt><trkpt lat="44.5900803" lon="7.9225643"><ele>408.8</ele><time>2026-04-11T13:51:40.476Z</time></trkpt><trkpt lat="44.5900954" lon="7.922449"><ele>405.2</ele><time>2026-04-11T13:51:41.475Z</time></trkpt><trkpt lat="44.5901107" lon="7.9223219"><ele>401.59999999999997</ele><time>2026-04-11T13:51:42.476Z</time></trkpt><trkpt lat="44.5901266" lon="7.9222019"><ele>398.0</ele><time>2026-04-11T13:51:43.476Z</time></trkpt><trkpt lat="44.5901443" lon="7.9220853"><ele>397.99999999999994</ele><time>2026-04-11T13:51:44.476Z</time></trkpt><trkpt lat="44.590165" lon="7.9219754"><ele>398.0</ele><time>2026-04-11T13:51:45.476Z</time></trkpt><trkpt lat="44.5901908" lon="7.921869"><ele>398.0</ele><time>2026-04-11T13:51:46.476Z</time></trkpt><trkpt lat="44.5902132" lon="7.9217612"><ele>398.0</ele><time>2026-04-11T13:51:47.476Z</time></trkpt><trkpt lat="44.59023" lon="7.9216489"><ele>397.99999999999994</ele><time>2026-04-11T13:51:48.476Z</time></trkpt><trkpt lat="44.5902434" lon="7.9215309"><ele>398.0</ele><time>2026-04-11T13:51:49.475Z</time></trkpt><trkpt lat="44.5902593" lon="7.9214111"><ele>396.4</ele><time>2026-04-11T13:51:50.476Z</time></trkpt><trkpt lat="44.5902751" lon="7.9212943"><ele>394.79999999999995</ele><time>2026-04-11T13:51:51.475Z</time></trkpt><trkpt lat="44.5902899" lon="7.9211781"><ele>393.2</ele><time>2026-04-11T13:51:52.476Z</time></trkpt><trkpt lat="44.5903041" lon="7.9210567"><ele>391.6</ele><time>2026-04-11T13:51:53.476Z</time></trkpt><trkpt lat="44.5903192" lon="7.9209263"><ele>390.0</ele><time>2026-04-11T13:51:54.476Z</time></trkpt><trkpt lat="44.5903326" lon="7.9207815"><ele>391.0</ele><time>2026-04-11T13:51:55.476Z</time></trkpt><trkpt lat="44.590348" lon="7.9206238"><ele>392.0</ele><time>2026-04-11T13:51:56.476Z</time></trkpt><trkpt lat="44.5903685" lon="7.9204719"><ele>393.0</ele><time>2026-04-11T13:51:57.476Z</time></trkpt><trkpt lat="44.5904016" lon="7.9203156"><ele>394.0</ele><time>2026-04-11T13:51:58.476Z</time></trkpt><trkpt lat="44.590442" lon="7.9201599"><ele>392.0</ele><time>2026-04-11T13:51:59.476Z</time></trkpt><trkpt lat="44.5904871" lon="7.9200056"><ele>390.0</ele><time>2026-04-11T13:52:00.476Z</time></trkpt><trkpt lat="44.5905318" lon="7.9198694"><ele>388.0</ele><time>2026-04-11T13:52:01.476Z</time></trkpt><trkpt lat="44.5905712" lon="7.9197559"><ele>386.0</ele><time>2026-04-11T13:52:02.475Z</time></trkpt><trkpt lat="44.5906071" lon="7.919656"><ele>384.0</ele><time>2026-04-11T13:52:03.475Z</time></trkpt><trkpt lat="44.590639" lon="7.9195655"><ele>384.0</ele><time>2026-04-11T13:52:04.476Z</time></trkpt><trkpt lat="44.5906999" lon="7.9194214"><ele>384.0</ele><time>2026-04-11T13:52:06.475Z</time></trkpt><trkpt lat="44.5907734" lon="7.9192783"><ele>384.0</ele><time>2026-04-11T13:52:08.475Z</time></trkpt><trkpt lat="44.5908574" lon="7.9191547"><ele>384.0</ele><time>2026-04-11T13:52:10.476Z</time></trkpt><trkpt lat="44.5909489" lon="7.9190434"><ele>383.79999999999995</ele><time>2026-04-11T13:52:12.476Z</time></trkpt><trkpt lat="44.5910393" lon="7.9189373"><ele>383.59999999999997</ele><time>2026-04-11T13:52:14.476Z</time></trkpt><trkpt lat="44.5911223" lon="7.9188519"><ele>383.4</ele><time>2026-04-11T13:52:16.476Z</time></trkpt><trkpt lat="44.5912047" lon="7.9187472"><ele>383.2</ele><time>2026-04-11T13:52:18.475Z</time></trkpt><trkpt lat="44.591273" lon="7.9186504"><ele>383.0</ele><time>2026-04-11T13:52:20.475Z</time></trkpt><trkpt lat="44.5913255" lon="7.9185656"><ele>383.0</ele><time>2026-04-11T13:52:22.476Z</time></trkpt><trkpt lat="44.5913766" lon="7.9184728"><ele>383.0</ele><time>2026-04-11T13:52:24.476Z</time></trkpt><trkpt lat="44.5914354" lon="7.9184114"><ele>383.0</ele><time>2026-04-11T13:52:26.476Z</time></trkpt><trkpt lat="44.5915015" lon="7.9183343"><ele>383.0</ele><time>2026-04-11T13:52:28.476Z</time></trkpt><trkpt lat="44.5915738" lon="7.9182577"><ele>383.0</ele><time>2026-04-11T13:52:30.476Z</time></trkpt><trkpt lat="44.5916408" lon="7.9181768"><ele>383.0</ele><time>2026-04-11T13:52:32.476Z</time></trkpt><trkpt lat="44.5917096" lon="7.9180925"><ele>380.2</ele><time>2026-04-11T13:52:34.477Z</time></trkpt><trkpt lat="44.5917788" lon="7.9180124"><ele>377.4</ele><time>2026-04-11T13:52:36.476Z</time></trkpt><trkpt lat="44.5918439" lon="7.9179166"><ele>374.59999999999997</ele><time>2026-04-11T13:52:38.477Z</time></trkpt><trkpt lat="44.5919172" lon="7.917816"><ele>371.79999999999995</ele><time>2026-04-11T13:52:40.477Z</time></trkpt><trkpt lat="44.5919822" lon="7.9176926"><ele>369.0</ele><time>2026-04-11T13:52:42.477Z</time></trkpt><trkpt lat="44.5920608" lon="7.9175471"><ele>368.1666666666667</ele><time>2026-04-11T13:52:44.476Z</time></trkpt><trkpt lat="44.5921037" lon="7.9174681"><ele>367.3333333333333</ele><time>2026-04-11T13:52:45.477Z</time></trkpt><trkpt lat="44.5921407" lon="7.9173754"><ele>366.5</ele><time>2026-04-11T13:52:46.477Z</time></trkpt><trkpt lat="44.5921801" lon="7.9172683"><ele>365.66666666666663</ele><time>2026-04-11T13:52:47.477Z</time></trkpt><trkpt lat="44.5922218" lon="7.9171535"><ele>364.8333333333333</ele><time>2026-04-11T13:52:48.477Z</time></trkpt><trkpt lat="44.5922638" lon="7.9170377"><ele>364.0</ele><time>2026-04-11T13:52:49.477Z</time></trkpt><trkpt lat="44.5923054" lon="7.9169193"><ele>364.0</ele><time>2026-04-11T13:52:50.476Z</time></trkpt><trkpt lat="44.5923456" lon="7.9167967"><ele>364.0</ele><time>2026-04-11T13:52:51.477Z</time></trkpt><trkpt lat="44.5923841" lon="7.916681"><ele>364.0</ele><time>2026-04-11T13:52:52.477Z</time></trkpt><trkpt lat="44.5924241" lon="7.9165576"><ele>364.0</ele><time>2026-04-11T13:52:53.477Z</time></trkpt><trkpt lat="44.5924633" lon="7.9164362"><ele>364.0</ele><time>2026-04-11T13:52:54.477Z</time></trkpt><trkpt lat="44.592502" lon="7.9163179"><ele>362.8333333333333</ele><time>2026-04-11T13:52:55.477Z</time></trkpt><trkpt lat="44.5925393" lon="7.9162048"><ele>361.66666666666663</ele><time>2026-04-11T13:52:56.477Z</time></trkpt><trkpt lat="44.5925731" lon="7.9160944"><ele>360.5</ele><time>2026-04-11T13:52:57.477Z</time></trkpt><trkpt lat="44.5926046" lon="7.9159859"><ele>359.3333333333333</ele><time>2026-04-11T13:52:58.476Z</time></trkpt><trkpt lat="44.5926372" lon="7.9158792"><ele>358.1666666666667</ele><time>2026-04-11T13:52:59.477Z</time></trkpt><trkpt lat="44.592669" lon="7.915779"><ele>357.0</ele><time>2026-04-11T13:53:00.477Z</time></trkpt><trkpt lat="44.5927027" lon="7.9156843"><ele>356.2857142857143</ele><time>2026-04-11T13:53:01.477Z</time></trkpt><trkpt lat="44.5927387" lon="7.9155918"><ele>355.57142857142856</ele><time>2026-04-11T13:53:02.477Z</time></trkpt><trkpt lat="44.592773" lon="7.9155086"><ele>354.8571428571429</ele><time>2026-04-11T13:53:03.477Z</time></trkpt><trkpt lat="44.5928105" lon="7.915435"><ele>354.1428571428571</ele><time>2026-04-11T13:53:04.477Z</time></trkpt><trkpt lat="44.5928512" lon="7.9153553"><ele>353.42857142857144</ele><time>2026-04-11T13:53:05.477Z</time></trkpt><trkpt lat="44.5928928" lon="7.9152768"><ele>352.7142857142857</ele><time>2026-04-11T13:53:06.477Z</time></trkpt><trkpt lat="44.5929301" lon="7.915191"><ele>352.0</ele><time>2026-04-11T13:53:07.476Z</time></trkpt><trkpt lat="44.5929657" lon="7.9151069"><ele>351.5</ele><time>2026-04-11T13:53:08.476Z</time></trkpt><trkpt lat="44.5930024" lon="7.9150168"><ele>351.0</ele><time>2026-04-11T13:53:09.477Z</time></trkpt><trkpt lat="44.593038" lon="7.9149292"><ele>350.5</ele><time>2026-04-11T13:53:10.477Z</time></trkpt><trkpt lat="44.5930798" lon="7.914847"><ele>350.0</ele><time>2026-04-11T13:53:11.477Z</time></trkpt><trkpt lat="44.5931279" lon="7.9147584"><ele>349.5</ele><time>2026-04-11T13:53:12.477Z</time></trkpt><trkpt lat="44.5931834" lon="7.9146698"><ele>349.0</ele><time>2026-04-11T13:53:13.476Z</time></trkpt><trkpt lat="44.5932504" lon="7.9145686"><ele>349.0</ele><time>2026-04-11T13:53:14.476Z</time></trkpt><trkpt lat="44.5933304" lon="7.9144728"><ele>349.0</ele><time>2026-04-11T13:53:15.477Z</time></trkpt><trkpt lat="44.5934113" lon="7.9143762"><ele>349.0</ele><time>2026-04-11T13:53:16.477Z</time></trkpt><trkpt lat="44.5934957" lon="7.9142753"><ele>349.0</ele><time>2026-04-11T13:53:17.476Z</time></trkpt><trkpt lat="44.593577" lon="7.9141708"><ele>349.0</ele><time>2026-04-11T13:53:18.477Z</time></trkpt><trkpt lat="44.5936604" lon="7.9140529"><ele>347.0</ele><time>2026-04-11T13:53:19.476Z</time></trkpt><trkpt lat="44.5937471" lon="7.9139419"><ele>345.0</ele><time>2026-04-11T13:53:20.477Z</time></trkpt><trkpt lat="44.593835" lon="7.9138453"><ele>343.0</ele><time>2026-04-11T13:53:21.477Z</time></trkpt><trkpt lat="44.5939176" lon="7.9137573"><ele>341.0</ele><time>2026-04-11T13:53:22.477Z</time></trkpt><trkpt lat="44.5939942" lon="7.9136725"><ele>339.0</ele><time>2026-04-11T13:53:23.477Z</time></trkpt><trkpt lat="44.5940654" lon="7.9135887"><ele>339.0</ele><time>2026-04-11T13:53:24.477Z</time></trkpt><trkpt lat="44.5941335" lon="7.9135075"><ele>339.0</ele><time>2026-04-11T13:53:25.477Z</time></trkpt><trkpt lat="44.594197" lon="7.9134252"><ele>339.0</ele><time>2026-04-11T13:53:26.477Z</time></trkpt><trkpt lat="44.5942552" lon="7.9133549"><ele>339.0</ele><time>2026-04-11T13:53:27.477Z</time></trkpt><trkpt lat="44.5943161" lon="7.9132932"><ele>339.0</ele><time>2026-04-11T13:53:28.477Z</time></trkpt><trkpt lat="44.594372" lon="7.9132384"><ele>339.0</ele><time>2026-04-11T13:53:29.477Z</time></trkpt><trkpt lat="44.5944223" lon="7.9131847"><ele>339.2857142857143</ele><time>2026-04-11T13:53:30.477Z</time></trkpt><trkpt lat="44.5944681" lon="7.913115"><ele>339.5714285714286</ele><time>2026-04-11T13:53:31.477Z</time></trkpt><trkpt lat="44.5945093" lon="7.913037"><ele>339.8571428571429</ele><time>2026-04-11T13:53:32.477Z</time></trkpt><trkpt lat="44.5945503" lon="7.912957"><ele>340.1428571428571</ele><time>2026-04-11T13:53:33.476Z</time></trkpt><trkpt lat="44.5945888" lon="7.9128608"><ele>340.42857142857144</ele><time>2026-04-11T13:53:34.478Z</time></trkpt><trkpt lat="44.5946297" lon="7.9127644"><ele>340.7142857142857</ele><time>2026-04-11T13:53:35.476Z</time></trkpt><trkpt lat="44.5946763" lon="7.912675"><ele>341.0</ele><time>2026-04-11T13:53:36.477Z</time></trkpt><trkpt lat="44.5947228" lon="7.9125737"><ele>339.0</ele><time>2026-04-11T13:53:37.478Z</time></trkpt><trkpt lat="44.5947663" lon="7.9124667"><ele>337.0</ele><time>2026-04-11T13:53:38.477Z</time></trkpt><trkpt lat="44.5948018" lon="7.912354"><ele>335.0</ele><time>2026-04-11T13:53:39.477Z</time></trkpt><trkpt lat="44.5948379" lon="7.9122294"><ele>333.0</ele><time>2026-04-11T13:53:40.477Z</time></trkpt><trkpt lat="44.5948701" lon="7.9120997"><ele>331.0</ele><time>2026-04-11T13:53:41.477Z</time></trkpt><trkpt lat="44.5948991" lon="7.9119866"><ele>331.0</ele><time>2026-04-11T13:53:42.478Z</time></trkpt><trkpt lat="44.5949258" lon="7.911886"><ele>331.0</ele><time>2026-04-11T13:53:43.477Z</time></trkpt><trkpt lat="44.5949441" lon="7.9117845"><ele>331.0</ele><time>2026-04-11T13:53:44.476Z</time></trkpt><trkpt lat="44.5949674" lon="7.9116985"><ele>331.0</ele><time>2026-04-11T13:53:45.477Z</time></trkpt><trkpt lat="44.5949943" lon="7.9116139"><ele>331.0</ele><time>2026-04-11T13:53:46.477Z</time></trkpt><trkpt lat="44.595036" lon="7.9114516"><ele>331.0</ele><time>2026-04-11T13:53:48.477Z</time></trkpt><trkpt lat="44.5950549" lon="7.9113663"><ele>330.66666666666663</ele><time>2026-04-11T13:53:49.476Z</time></trkpt><trkpt lat="44.5950996" lon="7.9112254"><ele>330.3333333333333</ele><time>2026-04-11T13:53:51.477Z</time></trkpt><trkpt lat="44.595139" lon="7.9110865"><ele>330.0</ele><time>2026-04-11T13:53:53.478Z</time></trkpt><trkpt lat="44.5951629" lon="7.9109949"><ele>329.6666666666667</ele><time>2026-04-11T13:53:55.477Z</time></trkpt><trkpt lat="44.5951995" lon="7.9108888"><ele>329.33333333333337</ele><time>2026-04-11T13:53:58.477Z</time></trkpt><trkpt lat="44.5952428" lon="7.9108204"><ele>329.0</ele><time>2026-04-11T13:54:02.478Z</time></trkpt><trkpt lat="44.5952919" lon="7.9107246"><ele>325.0</ele><time>2026-04-11T13:54:32.478Z</time></trkpt><trkpt lat="44.5953538" lon="7.9106"><ele>321.0</ele><time>2026-04-11T13:54:34.478Z</time></trkpt><trkpt lat="44.5954227" lon="7.910465"><ele>317.0</ele><time>2026-04-11T13:54:36.478Z</time></trkpt><trkpt lat="44.5955024" lon="7.9103343"><ele>313.0</ele><time>2026-04-11T13:54:38.478Z</time></trkpt><trkpt lat="44.595586" lon="7.9102251"><ele>313.0</ele><time>2026-04-11T13:54:40.478Z</time></trkpt><trkpt lat="44.59568" lon="7.9101095"><ele>313.0</ele><time>2026-04-11T13:54:42.477Z</time></trkpt><trkpt lat="44.5957233" lon="7.9100401"><ele>313.0</ele><time>2026-04-11T13:54:43.478Z</time></trkpt><trkpt lat="44.5957967" lon="7.9099132"><ele>313.0</ele><time>2026-04-11T13:54:45.478Z</time></trkpt><trkpt lat="44.5958573" lon="7.9097965"><ele>313.0</ele><time>2026-04-11T13:54:47.477Z</time></trkpt><trkpt lat="44.5958926" lon="7.909718"><ele>312.3333333333333</ele><time>2026-04-11T13:54:48.478Z</time></trkpt><trkpt lat="44.5959271" lon="7.9096264"><ele>311.66666666666663</ele><time>2026-04-11T13:54:49.479Z</time></trkpt><trkpt lat="44.5959554" lon="7.9095241"><ele>311.0</ele><time>2026-04-11T13:54:50.479Z</time></trkpt><trkpt lat="44.5959716" lon="7.9094217"><ele>310.3333333333333</ele><time>2026-04-11T13:54:51.478Z</time></trkpt><trkpt lat="44.5959845" lon="7.9093043"><ele>309.6666666666667</ele><time>2026-04-11T13:54:52.478Z</time></trkpt><trkpt lat="44.5959895" lon="7.9091793"><ele>309.0</ele><time>2026-04-11T13:54:53.479Z</time></trkpt><trkpt lat="44.5959834" lon="7.9090565"><ele>308.5</ele><time>2026-04-11T13:54:54.479Z</time></trkpt><trkpt lat="44.5959728" lon="7.9089331"><ele>308.0</ele><time>2026-04-11T13:54:55.479Z</time></trkpt><trkpt lat="44.5959602" lon="7.9088159"><ele>307.5</ele><time>2026-04-11T13:54:56.479Z</time></trkpt><trkpt lat="44.5959541" lon="7.9086953"><ele>307.0</ele><time>2026-04-11T13:54:57.479Z</time></trkpt><trkpt lat="44.5959495" lon="7.9085695"><ele>306.5</ele><time>2026-04-11T13:54:58.479Z</time></trkpt><trkpt lat="44.5959343" lon="7.9084344"><ele>306.0</ele><time>2026-04-11T13:54:59.479Z</time></trkpt><trkpt lat="44.5959134" lon="7.9082898"><ele>304.8</ele><time>2026-04-11T13:55:00.478Z</time></trkpt><trkpt lat="44.5958978" lon="7.9081459"><ele>303.6</ele><time>2026-04-11T13:55:01.477Z</time></trkpt><trkpt lat="44.5958825" lon="7.9079928"><ele>302.4</ele><time>2026-04-11T13:55:02.479Z</time></trkpt><trkpt lat="44.5958729" lon="7.9078472"><ele>301.2</ele><time>2026-04-11T13:55:03.479Z</time></trkpt><trkpt lat="44.5958611" lon="7.9076958"><ele>300.0</ele><time>2026-04-11T13:55:04.479Z</time></trkpt><trkpt lat="44.5958467" lon="7.9075407"><ele>299.0</ele><time>2026-04-11T13:55:05.477Z</time></trkpt><trkpt lat="44.595827" lon="7.9073771"><ele>298.0</ele><time>2026-04-11T13:55:06.479Z</time></trkpt><trkpt lat="44.5958131" lon="7.9072224"><ele>297.0</ele><time>2026-04-11T13:55:07.478Z</time></trkpt><trkpt lat="44.5958013" lon="7.9070636"><ele>296.0</ele><time>2026-04-11T13:55:08.478Z</time></trkpt><trkpt lat="44.5957949" lon="7.9069113"><ele>296.0</ele><time>2026-04-11T13:55:09.479Z</time></trkpt><trkpt lat="44.5957855" lon="7.9067822"><ele>296.0</ele><time>2026-04-11T13:55:10.479Z</time></trkpt><trkpt lat="44.5957646" lon="7.9066596"><ele>296.0</ele><time>2026-04-11T13:55:11.479Z</time></trkpt><trkpt lat="44.5957384" lon="7.9065311"><ele>296.0</ele><time>2026-04-11T13:55:12.479Z</time></trkpt><trkpt lat="44.5957081" lon="7.9064112"><ele>296.0</ele><time>2026-04-11T13:55:13.479Z</time></trkpt><trkpt lat="44.5956737" lon="7.9063063"><ele>294.8</ele><time>2026-04-11T13:55:14.478Z</time></trkpt><trkpt lat="44.5956339" lon="7.9062233"><ele>293.6</ele><time>2026-04-11T13:55:15.478Z</time></trkpt><trkpt lat="44.5955972" lon="7.9061491"><ele>292.4</ele><time>2026-04-11T13:55:16.479Z</time></trkpt><trkpt lat="44.5955419" lon="7.9059887"><ele>291.2</ele><time>2026-04-11T13:55:18.478Z</time></trkpt><trkpt lat="44.5954863" lon="7.9058394"><ele>290.0</ele><time>2026-04-11T13:55:20.479Z</time></trkpt><trkpt lat="44.5954314" lon="7.9056955"><ele>289.1666666666667</ele><time>2026-04-11T13:55:22.479Z</time></trkpt><trkpt lat="44.5953831" lon="7.9055325"><ele>288.33333333333337</ele><time>2026-04-11T13:55:24.479Z</time></trkpt><trkpt lat="44.595361" lon="7.9054353"><ele>287.5</ele><time>2026-04-11T13:55:25.479Z</time></trkpt><trkpt lat="44.5953434" lon="7.9053424"><ele>286.6666666666667</ele><time>2026-04-11T13:55:26.478Z</time></trkpt><trkpt lat="44.5953286" lon="7.9052473"><ele>285.8333333333333</ele><time>2026-04-11T13:55:27.478Z</time></trkpt><trkpt lat="44.5953147" lon="7.9051557"><ele>285.0</ele><time>2026-04-11T13:55:28.479Z</time></trkpt><trkpt lat="44.5952992" lon="7.905066"><ele>283.0</ele><time>2026-04-11T13:55:29.479Z</time></trkpt><trkpt lat="44.595281" lon="7.9049797"><ele>281.0</ele><time>2026-04-11T13:55:30.479Z</time></trkpt><trkpt lat="44.5952603" lon="7.904884"><ele>279.0</ele><time>2026-04-11T13:55:31.479Z</time></trkpt><trkpt lat="44.5952425" lon="7.9047872"><ele>277.0</ele><time>2026-04-11T13:55:32.478Z</time></trkpt><trkpt lat="44.5952251" lon="7.9046832"><ele>275.0</ele><time>2026-04-11T13:55:33.478Z</time></trkpt><trkpt lat="44.5952115" lon="7.9045803"><ele>273.0</ele><time>2026-04-11T13:55:34.478Z</time></trkpt><trkpt lat="44.5951976" lon="7.9044851"><ele>271.0</ele><time>2026-04-11T13:55:35.479Z</time></trkpt><trkpt lat="44.5951825" lon="7.9043831"><ele>271.0</ele><time>2026-04-11T13:55:36.479Z</time></trkpt><trkpt lat="44.5951614" lon="7.9042886"><ele>271.0</ele><time>2026-04-11T13:55:37.478Z</time></trkpt><trkpt lat="44.595139" lon="7.9041917"><ele>271.0</ele><time>2026-04-11T13:55:38.479Z</time></trkpt><trkpt lat="44.595107" lon="7.9040764"><ele>271.0</ele><time>2026-04-11T13:55:39.478Z</time></trkpt><trkpt lat="44.5950763" lon="7.9039446"><ele>271.0</ele><time>2026-04-11T13:55:40.479Z</time></trkpt><trkpt lat="44.5950472" lon="7.9038051"><ele>271.0</ele><time>2026-04-11T13:55:41.479Z</time></trkpt><trkpt lat="44.5950094" lon="7.9036766"><ele>270.0</ele><time>2026-04-11T13:55:42.479Z</time></trkpt><trkpt lat="44.5949823" lon="7.9035814"><ele>269.0</ele><time>2026-04-11T13:55:43.479Z</time></trkpt><trkpt lat="44.5949636" lon="7.9034941"><ele>268.0</ele><time>2026-04-11T13:55:44.479Z</time></trkpt><trkpt lat="44.5949483" lon="7.9034072"><ele>267.0</ele><time>2026-04-11T13:55:45.479Z</time></trkpt><trkpt lat="44.5949307" lon="7.9033171"><ele>266.0</ele><time>2026-04-11T13:55:46.479Z</time></trkpt><trkpt lat="44.5949093" lon="7.9032243"><ele>265.0</ele><time>2026-04-11T13:55:47.478Z</time></trkpt><trkpt lat="44.5948906" lon="7.9031192"><ele>264.0</ele><time>2026-04-11T13:55:48.479Z</time></trkpt><trkpt lat="44.5948764" lon="7.9030059"><ele>263.3333333333333</ele><time>2026-04-11T13:55:49.479Z</time></trkpt><trkpt lat="44.5948661" lon="7.9028878"><ele>262.6666666666667</ele><time>2026-04-11T13:55:50.479Z</time></trkpt><trkpt lat="44.5948574" lon="7.9027721"><ele>262.0</ele><time>2026-04-11T13:55:51.478Z</time></trkpt><trkpt lat="44.5948524" lon="7.9026587"><ele>261.33333333333337</ele><time>2026-04-11T13:55:52.479Z</time></trkpt><trkpt lat="44.5948418" lon="7.9025521"><ele>260.6666666666667</ele><time>2026-04-11T13:55:53.479Z</time></trkpt><trkpt lat="44.5948353" lon="7.9024487"><ele>260.0</ele><time>2026-04-11T13:55:54.479Z</time></trkpt><trkpt lat="44.5948392" lon="7.902349"><ele>259.4</ele><time>2026-04-11T13:55:55.479Z</time></trkpt><trkpt lat="44.5948484" lon="7.9022492"><ele>258.8</ele><time>2026-04-11T13:55:56.479Z</time></trkpt><trkpt lat="44.5948555" lon="7.9021545"><ele>258.2</ele><time>2026-04-11T13:55:57.479Z</time></trkpt><trkpt lat="44.594841" lon="7.9020195"><ele>257.6</ele><time>2026-04-11T13:55:59.479Z</time></trkpt><trkpt lat="44.5947734" lon="7.9019026"><ele>257.0</ele><time>2026-04-11T13:56:01.479Z</time></trkpt><trkpt lat="44.5946643" lon="7.9018002"><ele>257.0</ele><time>2026-04-11T13:56:03.479Z</time></trkpt><trkpt lat="44.5945877" lon="7.9017522"><ele>257.0</ele><time>2026-04-11T13:56:04.478Z</time></trkpt><trkpt lat="44.5945006" lon="7.9016999"><ele>257.0</ele><time>2026-04-11T13:56:05.478Z</time></trkpt><trkpt lat="44.5944032" lon="7.9016402"><ele>257.0</ele><time>2026-04-11T13:56:06.48Z</time></trkpt><trkpt lat="44.5942989" lon="7.9015841"><ele>257.0</ele><time>2026-04-11T13:56:07.48Z</time></trkpt><trkpt lat="44.5941886" lon="7.9015225"><ele>251.75</ele><time>2026-04-11T13:56:08.479Z</time></trkpt><trkpt lat="44.5940752" lon="7.9014656"><ele>246.5</ele><time>2026-04-11T13:56:09.48Z</time></trkpt><trkpt lat="44.5939622" lon="7.9014"><ele>241.25</ele><time>2026-04-11T13:56:10.478Z</time></trkpt><trkpt lat="44.5938542" lon="7.9013265"><ele>236.0</ele><time>2026-04-11T13:56:11.479Z</time></trkpt><trkpt lat="44.5937431" lon="7.9012453"><ele>234.25</ele><time>2026-04-11T13:56:12.48Z</time></trkpt><trkpt lat="44.5936418" lon="7.9011502"><ele>232.5</ele><time>2026-04-11T13:56:13.479Z</time></trkpt><trkpt lat="44.5935438" lon="7.9010423"><ele>230.75</ele><time>2026-04-11T13:56:14.478Z</time></trkpt><trkpt lat="44.5934528" lon="7.9009249"><ele>229.0</ele><time>2026-04-11T13:56:15.479Z</time></trkpt><trkpt lat="44.5933691" lon="7.9008098"><ele>229.0</ele><time>2026-04-11T13:56:16.48Z</time></trkpt><trkpt lat="44.5932862" lon="7.9007005"><ele>229.0</ele><time>2026-04-11T13:56:17.478Z</time></trkpt><trkpt lat="44.5932032" lon="7.9005926"><ele>229.0</ele><time>2026-04-11T13:56:18.48Z</time></trkpt><trkpt lat="44.5931161" lon="7.9004867"><ele>229.0</ele><time>2026-04-11T13:56:19.48Z</time></trkpt><trkpt lat="44.5930311" lon="7.9003839"><ele>229.0</ele><time>2026-04-11T13:56:20.48Z</time></trkpt><trkpt lat="44.5929514" lon="7.9002855"><ele>228.99999999999997</ele><time>2026-04-11T13:56:21.48Z</time></trkpt><trkpt lat="44.5928724" lon="7.9001931"><ele>228.99999999999997</ele><time>2026-04-11T13:56:22.479Z</time></trkpt><trkpt lat="44.5927948" lon="7.9001093"><ele>229.0</ele><time>2026-04-11T13:56:23.48Z</time></trkpt><trkpt lat="44.5927171" lon="7.9000299"><ele>229.0</ele><time>2026-04-11T13:56:24.48Z</time></trkpt><trkpt lat="44.5926413" lon="7.899965"><ele>228.16666666666666</ele><time>2026-04-11T13:56:25.48Z</time></trkpt><trkpt lat="44.5925625" lon="7.8999113"><ele>227.33333333333331</ele><time>2026-04-11T13:56:26.48Z</time></trkpt><trkpt lat="44.5924828" lon="7.8998587"><ele>226.5</ele><time>2026-04-11T13:56:27.48Z</time></trkpt><trkpt lat="44.5924007" lon="7.899803"><ele>225.66666666666669</ele><time>2026-04-11T13:56:28.48Z</time></trkpt><trkpt lat="44.5923284" lon="7.899735"><ele>224.83333333333334</ele><time>2026-04-11T13:56:29.48Z</time></trkpt><trkpt lat="44.5922632" lon="7.8996584"><ele>224.0</ele><time>2026-04-11T13:56:30.48Z</time></trkpt><trkpt lat="44.5922097" lon="7.8995756"><ele>224.00000000000003</ele><time>2026-04-11T13:56:31.48Z</time></trkpt><trkpt lat="44.5921604" lon="7.8994877"><ele>224.0</ele><time>2026-04-11T13:56:32.48Z</time></trkpt><trkpt lat="44.5921131" lon="7.899401"><ele>224.0</ele><time>2026-04-11T13:56:33.48Z</time></trkpt><trkpt lat="44.5920705" lon="7.8993102"><ele>224.0</ele><time>2026-04-11T13:56:34.48Z</time></trkpt><trkpt lat="44.5920314" lon="7.8992182"><ele>224.00000000000003</ele><time>2026-04-11T13:56:35.479Z</time></trkpt><trkpt lat="44.5919953" lon="7.8991381"><ele>224.0</ele><time>2026-04-11T13:56:36.48Z</time></trkpt><trkpt lat="44.5919248" lon="7.8990302"><ele>224.33333333333334</ele><time>2026-04-11T13:56:38.48Z</time></trkpt><trkpt lat="44.5918926" lon="7.8989532"><ele>224.66666666666669</ele><time>2026-04-11T13:56:40.479Z</time></trkpt><trkpt lat="44.5918972" lon="7.8988347"><ele>225.0</ele><time>2026-04-11T13:56:43.48Z</time></trkpt><trkpt lat="44.5919474" lon="7.8987355"><ele>225.33333333333331</ele><time>2026-04-11T13:56:59.479Z</time></trkpt><trkpt lat="44.5920096" lon="7.8986841"><ele>225.66666666666666</ele><time>2026-04-11T13:57:01.48Z</time></trkpt><trkpt lat="44.5920871" lon="7.8986315"><ele>226.0</ele><time>2026-04-11T13:57:03.48Z</time></trkpt><trkpt lat="44.5921704" lon="7.898596"><ele>225.99999999999997</ele><time>2026-04-11T13:57:05.48Z</time></trkpt><trkpt lat="44.592239" lon="7.8985202"><ele>226.0</ele><time>2026-04-11T13:57:07.48Z</time></trkpt><trkpt lat="44.5923127" lon="7.8984719"><ele>226.0</ele><time>2026-04-11T13:57:09.481Z</time></trkpt><trkpt lat="44.5923861" lon="7.8984353"><ele>226.0</ele><time>2026-04-11T13:57:11.48Z</time></trkpt><trkpt lat="44.5924649" lon="7.898378"><ele>225.99999999999997</ele><time>2026-04-11T13:57:13.48Z</time></trkpt><trkpt lat="44.5925462" lon="7.8983171"><ele>226.0</ele><time>2026-04-11T13:57:15.48Z</time></trkpt><trkpt lat="44.592625" lon="7.8982543"><ele>225.49999999999997</ele><time>2026-04-11T13:57:17.479Z</time></trkpt><trkpt lat="44.5926973" lon="7.8982043"><ele>225.0</ele><time>2026-04-11T13:57:19.481Z</time></trkpt><trkpt lat="44.592765" lon="7.898153"><ele>224.5</ele><time>2026-04-11T13:57:21.48Z</time></trkpt><trkpt lat="44.5928312" lon="7.8980792"><ele>224.0</ele><time>2026-04-11T13:57:23.48Z</time></trkpt><trkpt lat="44.5928928" lon="7.8980135"><ele>223.49999999999997</ele><time>2026-04-11T13:57:25.481Z</time></trkpt><trkpt lat="44.5929796" lon="7.8979625"><ele>223.0</ele><time>2026-04-11T13:57:27.48Z</time></trkpt><trkpt lat="44.5930547" lon="7.8979327"><ele>223.0</ele><time>2026-04-11T13:57:29.481Z</time></trkpt><trkpt lat="44.5931432" lon="7.8978725"><ele>223.0</ele><time>2026-04-11T13:57:31.48Z</time></trkpt><trkpt lat="44.5932354" lon="7.8978132"><ele>223.0</ele><time>2026-04-11T13:57:33.481Z</time></trkpt><trkpt lat="44.5933264" lon="7.8977778"><ele>223.0</ele><time>2026-04-11T13:57:35.481Z</time></trkpt><trkpt lat="44.5934197" lon="7.8977486"><ele>223.0</ele><time>2026-04-11T13:57:37.481Z</time></trkpt><trkpt lat="44.5935076" lon="7.8977019"><ele>222.99999999999997</ele><time>2026-04-11T13:57:39.481Z</time></trkpt><trkpt lat="44.593589" lon="7.8976588"><ele>223.0</ele><time>2026-04-11T13:57:41.481Z</time></trkpt><trkpt lat="44.5936621" lon="7.8976205"><ele>223.0</ele><time>2026-04-11T13:57:43.481Z</time></trkpt><trkpt lat="44.5937378" lon="7.8975784"><ele>223.0</ele><time>2026-04-11T13:57:45.48Z</time></trkpt><trkpt lat="44.593807" lon="7.8975204"><ele>222.99999999999997</ele><time>2026-04-11T13:57:47.48Z</time></trkpt><trkpt lat="44.5938945" lon="7.8974492"><ele>223.0</ele><time>2026-04-11T13:57:49.481Z</time></trkpt><trkpt lat="44.593964" lon="7.8973751"><ele>222.8</ele><time>2026-04-11T13:57:51.481Z</time></trkpt><trkpt lat="44.594037" lon="7.8973001"><ele>222.60000000000002</ele><time>2026-04-11T13:57:53.481Z</time></trkpt><trkpt lat="44.5941169" lon="7.8972327"><ele>222.39999999999998</ele><time>2026-04-11T13:57:55.481Z</time></trkpt><trkpt lat="44.5941788" lon="7.8971429"><ele>222.2</ele><time>2026-04-11T13:57:57.48Z</time></trkpt><trkpt lat="44.5942434" lon="7.8970475"><ele>222.0</ele><time>2026-04-11T13:57:59.481Z</time></trkpt><trkpt lat="44.5943202" lon="7.8969651"><ele>222.0</ele><time>2026-04-11T13:58:01.481Z</time></trkpt><trkpt lat="44.5944002" lon="7.8968744"><ele>222.0</ele><time>2026-04-11T13:58:03.481Z</time></trkpt><trkpt lat="44.594479" lon="7.8967858"><ele>222.0</ele><time>2026-04-11T13:58:05.481Z</time></trkpt><trkpt lat="44.5945536" lon="7.8966983"><ele>222.0</ele><time>2026-04-11T13:58:07.48Z</time></trkpt><trkpt lat="44.5946221" lon="7.896604"><ele>222.0</ele><time>2026-04-11T13:58:09.481Z</time></trkpt><trkpt lat="44.5946894" lon="7.8965053"><ele>222.2</ele><time>2026-04-11T13:58:11.48Z</time></trkpt><trkpt lat="44.5947609" lon="7.8964123"><ele>222.39999999999998</ele><time>2026-04-11T13:58:13.481Z</time></trkpt><trkpt lat="44.5948305" lon="7.8963367"><ele>222.60000000000002</ele><time>2026-04-11T13:58:15.482Z</time></trkpt><trkpt lat="44.5948975" lon="7.8962541"><ele>222.8</ele><time>2026-04-11T13:58:17.481Z</time></trkpt><trkpt lat="44.5949585" lon="7.8961583"><ele>223.0</ele><time>2026-04-11T13:58:19.482Z</time></trkpt><trkpt lat="44.5950264" lon="7.8960722"><ele>222.99999999999997</ele><time>2026-04-11T13:58:21.481Z</time></trkpt><trkpt lat="44.5950902" lon="7.8959953"><ele>223.0</ele><time>2026-04-11T13:58:23.482Z</time></trkpt><trkpt lat="44.5951576" lon="7.8959104"><ele>223.0</ele><time>2026-04-11T13:58:25.482Z</time></trkpt><trkpt lat="44.5952144" lon="7.8958362"><ele>223.0</ele><time>2026-04-11T13:58:27.481Z</time></trkpt><trkpt lat="44.595275" lon="7.8957568"><ele>222.99999999999997</ele><time>2026-04-11T13:58:29.48Z</time></trkpt><trkpt lat="44.5953327" lon="7.8956841"><ele>223.0</ele><time>2026-04-11T13:58:31.481Z</time></trkpt><trkpt lat="44.5954025" lon="7.8955942"><ele>224.28571428571428</ele><time>2026-04-11T13:58:34.482Z</time></trkpt><trkpt lat="44.5954604" lon="7.8955493"><ele>225.57142857142856</ele><time>2026-04-11T13:58:36.482Z</time></trkpt><trkpt lat="44.5955179" lon="7.8954819"><ele>226.8571428571429</ele><time>2026-04-11T13:58:39.482Z</time></trkpt><trkpt lat="44.5955643" lon="7.8954208"><ele>228.14285714285717</ele><time>2026-04-11T13:58:42.482Z</time></trkpt><trkpt lat="44.595612" lon="7.8953525"><ele>229.42857142857144</ele><time>2026-04-11T13:58:46.482Z</time></trkpt><trkpt lat="44.595649" lon="7.8952543"><ele>230.71428571428575</ele><time>2026-04-11T13:58:50.482Z</time></trkpt><trkpt lat="44.5957184" lon="7.8951958"><ele>232.00000000000003</ele><time>2026-04-11T13:58:54.482Z</time></trkpt><trkpt lat="44.5957752" lon="7.8951234"><ele>231.71428571428575</ele><time>2026-04-11T13:58:58.482Z</time></trkpt><trkpt lat="44.5958279" lon="7.8950691"><ele>231.42857142857144</ele><time>2026-04-11T13:59:01.481Z</time></trkpt><trkpt lat="44.5958807" lon="7.8950095"><ele>231.14285714285714</ele><time>2026-04-11T13:59:04.481Z</time></trkpt><trkpt lat="44.5959332" lon="7.8949432"><ele>230.85714285714286</ele><time>2026-04-11T13:59:07.482Z</time></trkpt><trkpt lat="44.5959982" lon="7.8948899"><ele>230.57142857142856</ele><time>2026-04-11T13:59:10.482Z</time></trkpt><trkpt lat="44.5960609" lon="7.894831"><ele>230.28571428571425</ele><time>2026-04-11T13:59:13.481Z</time></trkpt><trkpt lat="44.5961252" lon="7.8947551"><ele>229.99999999999997</ele><time>2026-04-11T13:59:16.482Z</time></trkpt><trkpt lat="44.5961935" lon="7.8946827"><ele>229.99999999999997</ele><time>2026-04-11T13:59:19.482Z</time></trkpt><trkpt lat="44.5962728" lon="7.8946092"><ele>230.0</ele><time>2026-04-11T13:59:22.482Z</time></trkpt><trkpt lat="44.5963262" lon="7.8945487"><ele>229.99999999999997</ele><time>2026-04-11T13:59:24.483Z</time></trkpt><trkpt lat="44.596383" lon="7.8944948"><ele>229.99999999999997</ele><time>2026-04-11T13:59:26.482Z</time></trkpt><trkpt lat="44.5964374" lon="7.8944389"><ele>230.0</ele><time>2026-04-11T13:59:28.482Z</time></trkpt><trkpt lat="44.5964925" lon="7.8943843"><ele>229.99999999999997</ele><time>2026-04-11T13:59:30.481Z</time></trkpt><trkpt lat="44.5965514" lon="7.8943281"><ele>229.99999999999997</ele><time>2026-04-11T13:59:32.482Z</time></trkpt><trkpt lat="44.5966015" lon="7.8942717"><ele>229.71428571428567</ele><time>2026-04-11T13:59:34.482Z</time></trkpt><trkpt lat="44.5966636" lon="7.8942097"><ele>229.42857142857142</ele><time>2026-04-11T13:59:36.482Z</time></trkpt><trkpt lat="44.5967168" lon="7.8941495"><ele>229.1428571428571</ele><time>2026-04-11T13:59:38.482Z</time></trkpt><trkpt lat="44.5967697" lon="7.8940807"><ele>228.85714285714283</ele><time>2026-04-11T13:59:40.482Z</time></trkpt><trkpt lat="44.5968223" lon="7.8940193"><ele>228.57142857142856</ele><time>2026-04-11T13:59:42.482Z</time></trkpt><trkpt lat="44.5968632" lon="7.8939504"><ele>228.28571428571428</ele><time>2026-04-11T13:59:44.481Z</time></trkpt><trkpt lat="44.5969224" lon="7.8938875"><ele>228.0</ele><time>2026-04-11T13:59:46.483Z</time></trkpt><trkpt lat="44.5970013" lon="7.8938138"><ele>227.83333333333334</ele><time>2026-04-11T13:59:48.483Z</time></trkpt><trkpt lat="44.5970638" lon="7.8937377"><ele>227.66666666666669</ele><time>2026-04-11T13:59:50.482Z</time></trkpt><trkpt lat="44.5971189" lon="7.8936668"><ele>227.5</ele><time>2026-04-11T13:59:52.483Z</time></trkpt><trkpt lat="44.5971827" lon="7.8935981"><ele>227.33333333333334</ele><time>2026-04-11T13:59:54.483Z</time></trkpt><trkpt lat="44.5972489" lon="7.8935192"><ele>227.16666666666669</ele><time>2026-04-11T13:59:56.482Z</time></trkpt><trkpt lat="44.5973098" lon="7.8934362"><ele>227.0</ele><time>2026-04-11T13:59:58.482Z</time></trkpt><trkpt lat="44.5973536" lon="7.89335"><ele>226.50000000000003</ele><time>2026-04-11T14:00:00.483Z</time></trkpt><trkpt lat="44.5973979" lon="7.8932765"><ele>226.0</ele><time>2026-04-11T14:00:02.483Z</time></trkpt><trkpt lat="44.597449" lon="7.8931797"><ele>225.5</ele><time>2026-04-11T14:00:04.483Z</time></trkpt><trkpt lat="44.5975" lon="7.89309"><ele>225.0</ele><time>2026-04-11T14:00:06.483Z</time></trkpt><trkpt lat="44.5975604" lon="7.8930109"><ele>224.50000000000003</ele><time>2026-04-11T14:00:08.483Z</time></trkpt><trkpt lat="44.5976172" lon="7.8929262"><ele>224.0</ele><time>2026-04-11T14:00:10.483Z</time></trkpt><trkpt lat="44.5976708" lon="7.8928415"><ele>224.00000000000003</ele><time>2026-04-11T14:00:12.482Z</time></trkpt><trkpt lat="44.5977272" lon="7.8927587"><ele>224.0</ele><time>2026-04-11T14:00:14.483Z</time></trkpt><trkpt lat="44.5977707" lon="7.8926837"><ele>224.0</ele><time>2026-04-11T14:00:16.483Z</time></trkpt><trkpt lat="44.5978069" lon="7.8926074"><ele>224.0</ele><time>2026-04-11T14:00:18.483Z</time></trkpt><trkpt lat="44.5978506" lon="7.8925314"><ele>224.00000000000003</ele><time>2026-04-11T14:00:20.483Z</time></trkpt><trkpt lat="44.5979152" lon="7.8924393"><ele>224.0</ele><time>2026-04-11T14:00:23.482Z</time></trkpt><trkpt lat="44.5980016" lon="7.8923706"><ele>224.50000000000003</ele><time>2026-04-11T14:00:26.482Z</time></trkpt><trkpt lat="44.5980829" lon="7.8923257"><ele>225.0</ele><time>2026-04-11T14:00:28.483Z</time></trkpt><trkpt lat="44.5981504" lon="7.8922674"><ele>225.5</ele><time>2026-04-11T14:00:30.483Z</time></trkpt><trkpt lat="44.5981957" lon="7.8921666"><ele>226.0</ele><time>2026-04-11T14:00:33.483Z</time></trkpt><trkpt lat="44.5981632" lon="7.8920768"><ele>226.50000000000003</ele><time>2026-04-11T14:00:35.483Z</time></trkpt><trkpt lat="44.5980858" lon="7.8920262"><ele>227.0</ele><time>2026-04-11T14:00:37.483Z</time></trkpt><trkpt lat="44.598005" lon="7.8920062"><ele>227.00000000000003</ele><time>2026-04-11T14:00:39.483Z</time></trkpt><trkpt lat="44.5979197" lon="7.891971"><ele>227.0</ele><time>2026-04-11T14:00:41.483Z</time></trkpt><trkpt lat="44.5978516" lon="7.8919394"><ele>227.0</ele><time>2026-04-11T14:00:43.483Z</time></trkpt><trkpt lat="44.5977837" lon="7.8919036"><ele>227.0</ele><time>2026-04-11T14:00:45.482Z</time></trkpt><trkpt lat="44.597715" lon="7.8918719"><ele>227.00000000000003</ele><time>2026-04-11T14:00:47.482Z</time></trkpt><trkpt lat="44.5976518" lon="7.8918442"><ele>227.0</ele><time>2026-04-11T14:01:12.484Z</time></trkpt><trkpt lat="44.5975624" lon="7.8918314"><ele>226.8</ele><time>2026-04-11T14:01:15.484Z</time></trkpt><trkpt lat="44.5974894" lon="7.8918063"><ele>226.6</ele><time>2026-04-11T14:01:17.483Z</time></trkpt><trkpt lat="44.5974273" lon="7.8917086"><ele>226.40000000000003</ele><time>2026-04-11T14:01:19.484Z</time></trkpt><trkpt lat="44.5974288" lon="7.8915901"><ele>226.20000000000002</ele><time>2026-04-11T14:01:21.484Z</time></trkpt><trkpt lat="44.5975056" lon="7.8915258"><ele>226.0</ele><time>2026-04-11T14:01:23.483Z</time></trkpt><trkpt lat="44.5976176" lon="7.8914908"><ele>225.4</ele><time>2026-04-11T14:01:25.484Z</time></trkpt><trkpt lat="44.5976789" lon="7.8914706"><ele>224.8</ele><time>2026-04-11T14:01:26.483Z</time></trkpt><trkpt lat="44.5977406" lon="7.89144"><ele>224.20000000000002</ele><time>2026-04-11T14:01:27.484Z</time></trkpt><trkpt lat="44.5978445" lon="7.8913513"><ele>223.60000000000002</ele><time>2026-04-11T14:01:29.484Z</time></trkpt><trkpt lat="44.5979435" lon="7.8912568"><ele>223.0</ele><time>2026-04-11T14:01:31.484Z</time></trkpt><trkpt lat="44.5980309" lon="7.8911293"><ele>223.0</ele><time>2026-04-11T14:01:33.484Z</time></trkpt><trkpt lat="44.5980672" lon="7.8910473"><ele>223.0</ele><time>2026-04-11T14:01:34.484Z</time></trkpt><trkpt lat="44.5980973" lon="7.8909621"><ele>223.0</ele><time>2026-04-11T14:01:35.483Z</time></trkpt><trkpt lat="44.5981274" lon="7.8908771"><ele>223.0</ele><time>2026-04-11T14:01:36.484Z</time></trkpt><trkpt lat="44.5981626" lon="7.8907812"><ele>223.0</ele><time>2026-04-11T14:01:37.484Z</time></trkpt><trkpt lat="44.5981888" lon="7.8906853"><ele>223.0</ele><time>2026-04-11T14:01:38.484Z</time></trkpt><trkpt lat="44.5982101" lon="7.8905888"><ele>223.0</ele><time>2026-04-11T14:01:39.484Z</time></trkpt><trkpt lat="44.5982303" lon="7.8904926"><ele>222.42857142857142</ele><time>2026-04-11T14:01:40.484Z</time></trkpt><trkpt lat="44.5982489" lon="7.8904019"><ele>221.85714285714283</ele><time>2026-04-11T14:01:41.484Z</time></trkpt><trkpt lat="44.5982685" lon="7.8903075"><ele>221.28571428571428</ele><time>2026-04-11T14:01:42.484Z</time></trkpt><trkpt lat="44.598291" lon="7.8902104"><ele>220.71428571428572</ele><time>2026-04-11T14:01:43.484Z</time></trkpt><trkpt lat="44.5983129" lon="7.8901155"><ele>220.14285714285714</ele><time>2026-04-11T14:01:44.484Z</time></trkpt><trkpt lat="44.5983313" lon="7.8900175"><ele>219.57142857142858</ele><time>2026-04-11T14:01:45.484Z</time></trkpt><trkpt lat="44.5983393" lon="7.889901"><ele>219.0</ele><time>2026-04-11T14:01:46.484Z</time></trkpt><trkpt lat="44.5983486" lon="7.8897833"><ele>218.85714285714286</ele><time>2026-04-11T14:01:47.484Z</time></trkpt><trkpt lat="44.5983604" lon="7.8896727"><ele>218.7142857142857</ele><time>2026-04-11T14:01:48.483Z</time></trkpt><trkpt lat="44.5983716" lon="7.8895669"><ele>218.57142857142856</ele><time>2026-04-11T14:01:49.484Z</time></trkpt><trkpt lat="44.5983779" lon="7.8894665"><ele>218.42857142857144</ele><time>2026-04-11T14:01:50.484Z</time></trkpt><trkpt lat="44.5983781" lon="7.8893688"><ele>218.28571428571428</ele><time>2026-04-11T14:01:51.485Z</time></trkpt><trkpt lat="44.5983775" lon="7.8892731"><ele>218.14285714285714</ele><time>2026-04-11T14:01:52.484Z</time></trkpt><trkpt lat="44.5983789" lon="7.8891788"><ele>218.0</ele><time>2026-04-11T14:01:53.484Z</time></trkpt><trkpt lat="44.5983819" lon="7.8890869"><ele>217.4</ele><time>2026-04-11T14:01:54.484Z</time></trkpt><trkpt lat="44.5983803" lon="7.8889948"><ele>216.8</ele><time>2026-04-11T14:01:55.483Z</time></trkpt><trkpt lat="44.5983698" lon="7.8888215"><ele>216.2</ele><time>2026-04-11T14:01:57.484Z</time></trkpt><trkpt lat="44.5983627" lon="7.8886541"><ele>215.6</ele><time>2026-04-11T14:01:59.485Z</time></trkpt><trkpt lat="44.5983439" lon="7.8885047"><ele>215.0</ele><time>2026-04-11T14:02:01.484Z</time></trkpt><trkpt lat="44.598327" lon="7.8883631"><ele>214.4</ele><time>2026-04-11T14:02:03.485Z</time></trkpt><trkpt lat="44.5983139" lon="7.8882248"><ele>213.8</ele><time>2026-04-11T14:02:05.484Z</time></trkpt><trkpt lat="44.5982961" lon="7.8880948"><ele>213.2</ele><time>2026-04-11T14:02:07.485Z</time></trkpt><trkpt lat="44.5982753" lon="7.8879756"><ele>212.6</ele><time>2026-04-11T14:02:09.484Z</time></trkpt><trkpt lat="44.5982483" lon="7.8878479"><ele>212.0</ele><time>2026-04-11T14:02:11.485Z</time></trkpt><trkpt lat="44.5982145" lon="7.8877202"><ele>211.39999999999998</ele><time>2026-04-11T14:02:13.485Z</time></trkpt><trkpt lat="44.5981874" lon="7.8875853"><ele>210.79999999999998</ele><time>2026-04-11T14:02:15.485Z</time></trkpt><trkpt lat="44.5981514" lon="7.8874584"><ele>210.2</ele><time>2026-04-11T14:02:17.484Z</time></trkpt><trkpt lat="44.598123" lon="7.8873231"><ele>209.6</ele><time>2026-04-11T14:02:19.485Z</time></trkpt><trkpt lat="44.5981039" lon="7.8871887"><ele>209.0</ele><time>2026-04-11T14:02:21.485Z</time></trkpt><trkpt lat="44.5980815" lon="7.8870638"><ele>209.0</ele><time>2026-04-11T14:02:23.485Z</time></trkpt><trkpt lat="44.5980604" lon="7.8869258"><ele>209.0</ele><time>2026-04-11T14:02:25.485Z</time></trkpt><trkpt lat="44.5980343" lon="7.8868002"><ele>209.0</ele><time>2026-04-11T14:02:27.485Z</time></trkpt><trkpt lat="44.5980092" lon="7.8866749"><ele>209.0</ele><time>2026-04-11T14:02:29.485Z</time></trkpt><trkpt lat="44.5979816" lon="7.8865514"><ele>209.0</ele><time>2026-04-11T14:02:31.484Z</time></trkpt><trkpt lat="44.5979562" lon="7.8864356"><ele>209.16666666666669</ele><time>2026-04-11T14:02:33.484Z</time></trkpt><trkpt lat="44.5979335" lon="7.8863251"><ele>209.33333333333334</ele><time>2026-04-11T14:02:35.485Z</time></trkpt><trkpt lat="44.5979109" lon="7.8862121"><ele>209.5</ele><time>2026-04-11T14:02:37.485Z</time></trkpt><trkpt lat="44.5978901" lon="7.8861052"><ele>209.66666666666669</ele><time>2026-04-11T14:02:39.485Z</time></trkpt><trkpt lat="44.5978681" lon="7.8860074"><ele>209.83333333333334</ele><time>2026-04-11T14:02:41.485Z</time></trkpt><trkpt lat="44.5978496" lon="7.8859078"><ele>210.0</ele><time>2026-04-11T14:02:43.485Z</time></trkpt><trkpt lat="44.5978307" lon="7.8857682"><ele>210.0</ele><time>2026-04-11T14:02:46.485Z</time></trkpt><trkpt lat="44.5978034" lon="7.8856331"><ele>210.0</ele><time>2026-04-11T14:02:48.485Z</time></trkpt><trkpt lat="44.5977838" lon="7.8855041"><ele>210.0</ele><time>2026-04-11T14:02:50.485Z</time></trkpt><trkpt lat="44.5977644" lon="7.8853743"><ele>210.0</ele><time>2026-04-11T14:02:52.484Z</time></trkpt><trkpt lat="44.5977475" lon="7.8852328"><ele>210.0</ele><time>2026-04-11T14:02:54.485Z</time></trkpt><trkpt lat="44.5977359" lon="7.8850947"><ele>210.0</ele><time>2026-04-11T14:02:56.485Z</time></trkpt><trkpt lat="44.5977328" lon="7.8849603"><ele>210.0</ele><time>2026-04-11T14:02:58.485Z</time></trkpt><trkpt lat="44.5977298" lon="7.8848283"><ele>210.0</ele><time>2026-04-11T14:03:00.485Z</time></trkpt><trkpt lat="44.5977256" lon="7.8847054"><ele>210.0</ele><time>2026-04-11T14:03:02.485Z</time></trkpt><trkpt lat="44.5977243" lon="7.8845834"><ele>210.0</ele><time>2026-04-11T14:03:04.485Z</time></trkpt><trkpt lat="44.5977204" lon="7.8844602"><ele>210.0</ele><time>2026-04-11T14:03:06.485Z</time></trkpt><trkpt lat="44.5977125" lon="7.8843553"><ele>210.0</ele><time>2026-04-11T14:03:08.485Z</time></trkpt><trkpt lat="44.5976993" lon="7.8842461"><ele>210.0</ele><time>2026-04-11T14:03:10.486Z</time></trkpt><trkpt lat="44.5976988" lon="7.8841294"><ele>210.0</ele><time>2026-04-11T14:03:12.486Z</time></trkpt><trkpt lat="44.5977051" lon="7.8840165"><ele>210.0</ele><time>2026-04-11T14:03:14.485Z</time></trkpt><trkpt lat="44.5977055" lon="7.8838988"><ele>210.0</ele><time>2026-04-11T14:03:16.485Z</time></trkpt><trkpt lat="44.597691" lon="7.8837808"><ele>210.16666666666666</ele><time>2026-04-11T14:03:18.485Z</time></trkpt><trkpt lat="44.5976597" lon="7.8836852"><ele>210.33333333333331</ele><time>2026-04-11T14:03:20.486Z</time></trkpt><trkpt lat="44.5975761" lon="7.8837035"><ele>210.5</ele><time>2026-04-11T14:03:22.485Z</time></trkpt><trkpt lat="44.5975182" lon="7.8838132"><ele>210.66666666666666</ele><time>2026-04-11T14:03:24.486Z</time></trkpt><trkpt lat="44.5975115" lon="7.8839366"><ele>210.83333333333331</ele><time>2026-04-11T14:03:26.485Z</time></trkpt><trkpt lat="44.5974954" lon="7.884069"><ele>211.0</ele><time>2026-04-11T14:03:28.486Z</time></trkpt><trkpt lat="44.5974901" lon="7.8842283"><ele>210.8</ele><time>2026-04-11T14:03:30.486Z</time></trkpt><trkpt lat="44.597496" lon="7.8843291"><ele>210.60000000000002</ele><time>2026-04-11T14:03:31.485Z</time></trkpt><trkpt lat="44.597496" lon="7.8845058"><ele>210.4</ele><time>2026-04-11T14:03:33.486Z</time></trkpt><trkpt lat="44.5974929" lon="7.8846854"><ele>210.2</ele><time>2026-04-11T14:03:35.486Z</time></trkpt><trkpt lat="44.5974918" lon="7.8847786"><ele>210.0</ele><time>2026-04-11T14:03:36.486Z</time></trkpt><trkpt lat="44.597471" lon="7.8849486"><ele>210.0</ele><time>2026-04-11T14:03:38.485Z</time></trkpt><trkpt lat="44.5974504" lon="7.8850399"><ele>210.0</ele><time>2026-04-11T14:03:39.486Z</time></trkpt><trkpt lat="44.5974267" lon="7.8851248"><ele>210.0</ele><time>2026-04-11T14:03:40.486Z</time></trkpt><trkpt lat="44.5973962" lon="7.8852036"><ele>210.0</ele><time>2026-04-11T14:03:41.486Z</time></trkpt><trkpt lat="44.5973597" lon="7.8852778"><ele>210.0</ele><time>2026-04-11T14:03:42.486Z</time></trkpt><trkpt lat="44.5973165" lon="7.8853534"><ele>210.0</ele><time>2026-04-11T14:03:43.486Z</time></trkpt><trkpt lat="44.5972746" lon="7.8854204"><ele>210.0</ele><time>2026-04-11T14:03:44.486Z</time></trkpt><trkpt lat="44.5972158" lon="7.8855407"><ele>210.0</ele><time>2026-04-11T14:03:46.486Z</time></trkpt><trkpt lat="44.5971419" lon="7.8856474"><ele>210.0</ele><time>2026-04-11T14:03:49.486Z</time></trkpt><trkpt lat="44.5970868" lon="7.8857598"><ele>210.0</ele><time>2026-04-11T14:03:51.486Z</time></trkpt><trkpt lat="44.5970506" lon="7.8858351"><ele>210.0</ele><time>2026-04-11T14:03:53.486Z</time></trkpt><trkpt lat="44.5969977" lon="7.8858941"><ele>210.0</ele><time>2026-04-11T14:03:55.486Z</time></trkpt><trkpt lat="44.596945" lon="7.8859818"><ele>210.0</ele><time>2026-04-11T14:03:57.486Z</time></trkpt><trkpt lat="44.5968848" lon="7.8860817"><ele>209.83333333333334</ele><time>2026-04-11T14:03:59.486Z</time></trkpt><trkpt lat="44.5968224" lon="7.8861713"><ele>209.66666666666669</ele><time>2026-04-11T14:04:01.486Z</time></trkpt><trkpt lat="44.596755" lon="7.8862474"><ele>209.5</ele><time>2026-04-11T14:04:03.485Z</time></trkpt><trkpt lat="44.5966832" lon="7.8863051"><ele>209.33333333333334</ele><time>2026-04-11T14:04:05.485Z</time></trkpt><trkpt lat="44.596609" lon="7.8863749"><ele>209.16666666666669</ele><time>2026-04-11T14:04:07.486Z</time></trkpt><trkpt lat="44.5965435" lon="7.8864648"><ele>209.0</ele><time>2026-04-11T14:04:09.485Z</time></trkpt><trkpt lat="44.5964778" lon="7.8865453"><ele>209.00000000000003</ele><time>2026-04-11T14:04:11.486Z</time></trkpt><trkpt lat="44.5964134" lon="7.8866162"><ele>209.0</ele><time>2026-04-11T14:04:13.486Z</time></trkpt><trkpt lat="44.5963414" lon="7.8866683"><ele>209.0</ele><time>2026-04-11T14:04:15.485Z</time></trkpt><trkpt lat="44.5962467" lon="7.8866933"><ele>209.0</ele><time>2026-04-11T14:04:17.487Z</time></trkpt><trkpt lat="44.5961547" lon="7.8866943"><ele>209.00000000000003</ele><time>2026-04-11T14:04:19.486Z</time></trkpt><trkpt lat="44.596063" lon="7.8867073"><ele>209.0</ele><time>2026-04-11T14:04:21.487Z</time></trkpt><trkpt lat="44.5959686" lon="7.8867149"><ele>209.2</ele><time>2026-04-11T14:04:23.486Z</time></trkpt><trkpt lat="44.5958816" lon="7.8867252"><ele>209.39999999999998</ele><time>2026-04-11T14:04:25.486Z</time></trkpt><trkpt lat="44.5957791" lon="7.8867396"><ele>209.6</ele><time>2026-04-11T14:04:27.485Z</time></trkpt><trkpt lat="44.5956576" lon="7.8867608"><ele>209.8</ele><time>2026-04-11T14:04:29.485Z</time></trkpt><trkpt lat="44.5955516" lon="7.8867837"><ele>210.0</ele><time>2026-04-11T14:04:31.486Z</time></trkpt><trkpt lat="44.5954503" lon="7.8868173"><ele>210.0</ele><time>2026-04-11T14:04:33.487Z</time></trkpt><trkpt lat="44.5953404" lon="7.8868688"><ele>210.0</ele><time>2026-04-11T14:04:35.487Z</time></trkpt><trkpt lat="44.595252" lon="7.886911"><ele>210.0</ele><time>2026-04-11T14:04:37.487Z</time></trkpt><trkpt lat="44.5951641" lon="7.8869291"><ele>210.0</ele><time>2026-04-11T14:04:39.487Z</time></trkpt><trkpt lat="44.5950655" lon="7.8869417"><ele>210.0</ele><time>2026-04-11T14:04:41.486Z</time></trkpt><trkpt lat="44.5949771" lon="7.8869605"><ele>210.0</ele><time>2026-04-11T14:04:43.487Z</time></trkpt><trkpt lat="44.5948833" lon="7.8869675"><ele>210.0</ele><time>2026-04-11T14:04:45.486Z</time></trkpt><trkpt lat="44.594784" lon="7.8869641"><ele>210.0</ele><time>2026-04-11T14:04:47.487Z</time></trkpt><trkpt lat="44.5946902" lon="7.886965"><ele>210.0</ele><time>2026-04-11T14:04:49.486Z</time></trkpt><trkpt lat="44.5945911" lon="7.8869484"><ele>210.0</ele><time>2026-04-11T14:04:51.487Z</time></trkpt><trkpt lat="44.5944957" lon="7.8869313"><ele>210.2</ele><time>2026-04-11T14:04:53.487Z</time></trkpt><trkpt lat="44.5944016" lon="7.8869092"><ele>210.4</ele><time>2026-04-11T14:04:55.487Z</time></trkpt><trkpt lat="44.5943098" lon="7.886876"><ele>210.60000000000002</ele><time>2026-04-11T14:04:57.487Z</time></trkpt><trkpt lat="44.5942152" lon="7.8868511"><ele>210.8</ele><time>2026-04-11T14:04:59.486Z</time></trkpt><trkpt lat="44.5941194" lon="7.8868338"><ele>211.0</ele><time>2026-04-11T14:05:01.487Z</time></trkpt><trkpt lat="44.5940184" lon="7.8868035"><ele>211.0</ele><time>2026-04-11T14:05:03.487Z</time></trkpt><trkpt lat="44.5939175" lon="7.8867807"><ele>211.0</ele><time>2026-04-11T14:05:05.487Z</time></trkpt><trkpt lat="44.5938109" lon="7.886759"><ele>211.0</ele><time>2026-04-11T14:05:07.486Z</time></trkpt><trkpt lat="44.593708" lon="7.8867359"><ele>211.0</ele><time>2026-04-11T14:05:09.487Z</time></trkpt><trkpt lat="44.593608" lon="7.8867035"><ele>211.0</ele><time>2026-04-11T14:05:11.487Z</time></trkpt><trkpt lat="44.5935065" lon="7.8866746"><ele>211.0</ele><time>2026-04-11T14:05:13.487Z</time></trkpt><trkpt lat="44.5934079" lon="7.886653"><ele>211.0</ele><time>2026-04-11T14:05:15.487Z</time></trkpt><trkpt lat="44.5933143" lon="7.8866211"><ele>211.0</ele><time>2026-04-11T14:05:17.486Z</time></trkpt><trkpt lat="44.5932164" lon="7.8865891"><ele>211.0</ele><time>2026-04-11T14:05:19.487Z</time></trkpt><trkpt lat="44.5931177" lon="7.8865631"><ele>211.0</ele><time>2026-04-11T14:05:21.487Z</time></trkpt><trkpt lat="44.5930265" lon="7.8865267"><ele>211.0</ele><time>2026-04-11T14:05:23.487Z</time></trkpt><trkpt lat="44.59293" lon="7.8864752"><ele>211.0</ele><time>2026-04-11T14:05:25.487Z</time></trkpt><trkpt lat="44.5928376" lon="7.886419"><ele>211.0</ele><time>2026-04-11T14:05:27.487Z</time></trkpt><trkpt lat="44.5927566" lon="7.8863302"><ele>211.0</ele><time>2026-04-11T14:05:29.488Z</time></trkpt><trkpt lat="44.5926867" lon="7.8862274"><ele>211.0</ele><time>2026-04-11T14:05:31.488Z</time></trkpt><trkpt lat="44.5926434" lon="7.8861079"><ele>210.99999999999997</ele><time>2026-04-11T14:05:33.488Z</time></trkpt><trkpt lat="44.5926304" lon="7.8859927"><ele>211.0</ele><time>2026-04-11T14:05:35.487Z</time></trkpt><trkpt lat="44.5926092" lon="7.8858636"><ele>211.0</ele><time>2026-04-11T14:05:37.488Z</time></trkpt><trkpt lat="44.5925928" lon="7.8857518"><ele>211.0</ele><time>2026-04-11T14:05:39.487Z</time></trkpt><trkpt lat="44.5925757" lon="7.8856482"><ele>210.99999999999997</ele><time>2026-04-11T14:05:41.488Z</time></trkpt><trkpt lat="44.5925559" lon="7.8855488"><ele>211.0</ele><time>2026-04-11T14:05:43.488Z</time></trkpt><trkpt lat="44.5925502" lon="7.8854411"><ele>211.66666666666666</ele><time>2026-04-11T14:05:45.488Z</time></trkpt><trkpt lat="44.5925335" lon="7.8853299"><ele>212.33333333333331</ele><time>2026-04-11T14:05:47.488Z</time></trkpt><trkpt lat="44.5925151" lon="7.8852347"><ele>213.0</ele><time>2026-04-11T14:05:49.487Z</time></trkpt><trkpt lat="44.5924955" lon="7.8851282"><ele>213.66666666666669</ele><time>2026-04-11T14:05:51.488Z</time></trkpt><trkpt lat="44.5924731" lon="7.8850311"><ele>214.33333333333334</ele><time>2026-04-11T14:05:53.488Z</time></trkpt><trkpt lat="44.592456" lon="7.8849371"><ele>215.0</ele><time>2026-04-11T14:05:55.488Z</time></trkpt><trkpt lat="44.5924372" lon="7.884807"><ele>215.33333333333334</ele><time>2026-04-11T14:05:58.488Z</time></trkpt><trkpt lat="44.5924208" lon="7.8847124"><ele>215.66666666666669</ele><time>2026-04-11T14:06:00.488Z</time></trkpt><trkpt lat="44.5923982" lon="7.8845932"><ele>216.0</ele><time>2026-04-11T14:06:03.487Z</time></trkpt><trkpt lat="44.5924005" lon="7.8844984"><ele>216.33333333333331</ele><time>2026-04-11T14:06:06.488Z</time></trkpt><trkpt lat="44.5923709" lon="7.8843853"><ele>216.66666666666666</ele><time>2026-04-11T14:06:10.488Z</time></trkpt><trkpt lat="44.5923615" lon="7.8842967"><ele>217.0</ele><time>2026-04-11T14:06:13.488Z</time></trkpt><trkpt lat="44.5923549" lon="7.8841885"><ele>217.85714285714286</ele><time>2026-04-11T14:06:17.488Z</time></trkpt><trkpt lat="44.5923415" lon="7.8840932"><ele>218.71428571428572</ele><time>2026-04-11T14:06:20.487Z</time></trkpt><trkpt lat="44.5923145" lon="7.8840048"><ele>219.57142857142856</ele><time>2026-04-11T14:06:23.488Z</time></trkpt><trkpt lat="44.5922991" lon="7.8838953"><ele>220.42857142857144</ele><time>2026-04-11T14:06:27.488Z</time></trkpt><trkpt lat="44.5922879" lon="7.8837921"><ele>221.28571428571428</ele><time>2026-04-11T14:06:31.488Z</time></trkpt><trkpt lat="44.5922883" lon="7.8836916"><ele>222.14285714285714</ele><time>2026-04-11T14:06:35.488Z</time></trkpt><trkpt lat="44.5922907" lon="7.883585"><ele>223.0</ele><time>2026-04-11T14:06:40.488Z</time></trkpt><trkpt lat="44.5923019" lon="7.8834974"><ele>223.28571428571428</ele><time>2026-04-11T14:06:43.488Z</time></trkpt><trkpt lat="44.5923153" lon="7.8833912"><ele>223.57142857142856</ele><time>2026-04-11T14:06:46.489Z</time></trkpt><trkpt lat="44.5923289" lon="7.8832985"><ele>223.8571428571429</ele><time>2026-04-11T14:06:49.489Z</time></trkpt><trkpt lat="44.5923728" lon="7.8832111"><ele>224.14285714285717</ele><time>2026-04-11T14:07:32.489Z</time></trkpt><trkpt lat="44.5923774" lon="7.8831166"><ele>224.42857142857144</ele><time>2026-04-11T14:07:35.489Z</time></trkpt><trkpt lat="44.5923626" lon="7.8830136"><ele>224.71428571428575</ele><time>2026-04-11T14:07:38.489Z</time></trkpt><trkpt lat="44.5923939" lon="7.8829216"><ele>225.00000000000003</ele><time>2026-04-11T14:07:41.489Z</time></trkpt><trkpt lat="44.5924142" lon="7.8828371"><ele>225.00000000000003</ele><time>2026-04-11T14:07:44.489Z</time></trkpt><trkpt lat="44.5924385" lon="7.8827376"><ele>225.0</ele><time>2026-04-11T14:07:47.488Z</time></trkpt><trkpt lat="44.5924619" lon="7.8826498"><ele>225.00000000000003</ele><time>2026-04-11T14:07:50.49Z</time></trkpt><trkpt lat="44.5924893" lon="7.8825546"><ele>225.00000000000003</ele><time>2026-04-11T14:07:53.489Z</time></trkpt><trkpt lat="44.5925154" lon="7.8824561"><ele>225.0</ele><time>2026-04-11T14:07:56.49Z</time></trkpt><trkpt lat="44.5925399" lon="7.8823443"><ele>225.00000000000003</ele><time>2026-04-11T14:08:00.49Z</time></trkpt><trkpt lat="44.5925671" lon="7.8822474"><ele>225.00000000000003</ele><time>2026-04-11T14:08:04.49Z</time></trkpt><trkpt lat="44.5925887" lon="7.8821392"><ele>225.28571428571433</ele><time>2026-04-11T14:08:08.489Z</time></trkpt><trkpt lat="44.5926158" lon="7.882036"><ele>225.57142857142858</ele><time>2026-04-11T14:08:12.49Z</time></trkpt><trkpt lat="44.592641" lon="7.881935"><ele>225.8571428571429</ele><time>2026-04-11T14:08:16.49Z</time></trkpt><trkpt lat="44.5926729" lon="7.881829"><ele>226.14285714285717</ele><time>2026-04-11T14:08:20.489Z</time></trkpt><trkpt lat="44.5927051" lon="7.8817359"><ele>226.42857142857144</ele><time>2026-04-11T14:08:24.489Z</time></trkpt><trkpt lat="44.5927254" lon="7.8816418"><ele>226.71428571428572</ele><time>2026-04-11T14:08:28.489Z</time></trkpt><trkpt lat="44.5927429" lon="7.881555"><ele>227.0</ele><time>2026-04-11T14:08:31.49Z</time></trkpt><trkpt lat="44.5927773" lon="7.881471"><ele>227.57142857142858</ele><time>2026-04-11T14:08:35.49Z</time></trkpt><trkpt lat="44.5928057" lon="7.8813567"><ele>228.14285714285717</ele><time>2026-04-11T14:09:20.491Z</time></trkpt><trkpt lat="44.5928497" lon="7.8812722"><ele>228.71428571428572</ele><time>2026-04-11T14:09:26.49Z</time></trkpt><trkpt lat="44.5929054" lon="7.8812192"><ele>229.28571428571428</ele><time>2026-04-11T14:09:29.491Z</time></trkpt><trkpt lat="44.5929657" lon="7.8811795"><ele>229.85714285714286</ele><time>2026-04-11T14:09:32.491Z</time></trkpt><trkpt lat="44.5930313" lon="7.8811857"><ele>230.42857142857144</ele><time>2026-04-11T14:09:35.491Z</time></trkpt><trkpt lat="44.5931005" lon="7.8811566"><ele>231.0</ele><time>2026-04-11T14:09:38.49Z</time></trkpt><trkpt lat="44.5931837" lon="7.8811521"><ele>230.85714285714286</ele><time>2026-04-11T14:09:42.491Z</time></trkpt><trkpt lat="44.5932641" lon="7.8811575"><ele>230.71428571428572</ele><time>2026-04-11T14:09:46.49Z</time></trkpt><trkpt lat="44.5933395" lon="7.8811594"><ele>230.57142857142856</ele><time>2026-04-11T14:09:49.491Z</time></trkpt><trkpt lat="44.5934072" lon="7.8811482"><ele>230.42857142857142</ele><time>2026-04-11T14:09:52.491Z</time></trkpt><trkpt lat="44.5934857" lon="7.8811431"><ele>230.28571428571428</ele><time>2026-04-11T14:09:56.491Z</time></trkpt><trkpt lat="44.5935513" lon="7.8811386"><ele>230.1428571428571</ele><time>2026-04-11T14:09:59.491Z</time></trkpt><trkpt lat="44.5936179" lon="7.8811242"><ele>229.99999999999997</ele><time>2026-04-11T14:10:03.491Z</time></trkpt><trkpt lat="44.593693" lon="7.8811012"><ele>229.99999999999997</ele><time>2026-04-11T14:10:07.491Z</time></trkpt><trkpt lat="44.593752" lon="7.8810482"><ele>230.0</ele><time>2026-04-11T14:10:11.491Z</time></trkpt><trkpt lat="44.5937885" lon="7.8809577"><ele>229.99999999999997</ele><time>2026-04-11T14:10:15.492Z</time></trkpt><trkpt lat="44.5938078" lon="7.8808674"><ele>229.99999999999997</ele><time>2026-04-11T14:10:20.492Z</time></trkpt><trkpt lat="44.5937981" lon="7.8807738"><ele>230.0</ele><time>2026-04-11T14:11:31.551Z</time></trkpt><trkpt lat="44.5937845" lon="7.8806772"><ele>229.99999999999997</ele><time>2026-04-11T14:11:34.46Z</time></trkpt><trkpt lat="44.5937259" lon="7.880628"><ele>229.99999999999997</ele><time>2026-04-11T14:11:36.615Z</time></trkpt><trkpt lat="44.5936587" lon="7.8805495"><ele>232.66666666666669</ele><time>2026-04-11T14:11:39.5Z</time></trkpt><trkpt lat="44.5936315" lon="7.880445"><ele>235.33333333333334</ele><time>2026-04-11T14:11:42.535Z</time></trkpt><trkpt lat="44.5936127" lon="7.8803284"><ele>238.0</ele><time>2026-04-11T14:11:45.536Z</time></trkpt><trkpt lat="44.5935869" lon="7.8802359"><ele>240.66666666666669</ele><time>2026-04-11T14:11:48.569Z</time></trkpt><trkpt lat="44.5935559" lon="7.8801534"><ele>243.33333333333334</ele><time>2026-04-11T14:11:51.519Z</time></trkpt><trkpt lat="44.5935146" lon="7.8800636"><ele>246.0</ele><time>2026-04-11T14:11:54.493Z</time></trkpt><trkpt lat="44.5934827" lon="7.8799678"><ele>247.00000000000003</ele><time>2026-04-11T14:11:57.57Z</time></trkpt><trkpt lat="44.5934559" lon="7.8798736"><ele>248.0</ele><time>2026-04-11T14:12:00.586Z</time></trkpt><trkpt lat="44.5934319" lon="7.8797879"><ele>249.00000000000003</ele><time>2026-04-11T14:12:03.57Z</time></trkpt><trkpt lat="44.5934094" lon="7.8796735"><ele>250.00000000000003</ele><time>2026-04-11T14:12:07.554Z</time></trkpt><trkpt lat="44.593384" lon="7.8795869"><ele>251.0</ele><time>2026-04-11T14:12:10.571Z</time></trkpt><trkpt lat="44.5933715" lon="7.8794737"><ele>252.00000000000003</ele><time>2026-04-11T14:12:14.538Z</time></trkpt><trkpt lat="44.5933846" lon="7.8793862"><ele>253.00000000000003</ele><time>2026-04-11T14:12:17.571Z</time></trkpt><trkpt lat="44.5934083" lon="7.8792727"><ele>253.71428571428575</ele><time>2026-04-11T14:12:21.538Z</time></trkpt><trkpt lat="44.5934137" lon="7.8791817"><ele>254.42857142857144</ele><time>2026-04-11T14:12:24.505Z</time></trkpt><trkpt lat="44.593419" lon="7.8790893"><ele>255.14285714285714</ele><time>2026-04-11T14:12:27.522Z</time></trkpt><trkpt lat="44.5934448" lon="7.8789884"><ele>255.85714285714286</ele><time>2026-04-11T14:12:31.506Z</time></trkpt><trkpt lat="44.5934687" lon="7.8788933"><ele>256.57142857142856</ele><time>2026-04-11T14:12:35.589Z</time></trkpt><trkpt lat="44.5934808" lon="7.8787925"><ele>257.2857142857143</ele><time>2026-04-11T14:12:39.556Z</time></trkpt><trkpt lat="44.593492" lon="7.8787042"><ele>258.0</ele><time>2026-04-11T14:12:42.589Z</time></trkpt><trkpt lat="44.5935172" lon="7.8786228"><ele>258.0</ele><time>2026-04-11T14:12:45.523Z</time></trkpt><trkpt lat="44.5935495" lon="7.8785168"><ele>258.0</ele><time>2026-04-11T14:12:49.493Z</time></trkpt><trkpt lat="44.5935602" lon="7.8784038"><ele>258.0</ele><time>2026-04-11T14:12:53.574Z</time></trkpt><trkpt lat="44.5935651" lon="7.8783136"><ele>258.0</ele><time>2026-04-11T14:12:56.557Z</time></trkpt><trkpt lat="44.5935861" lon="7.8782011"><ele>258.0</ele><time>2026-04-11T14:13:00.591Z</time></trkpt><trkpt lat="44.5936103" lon="7.8780951"><ele>258.0</ele><time>2026-04-11T14:13:04.525Z</time></trkpt><trkpt lat="44.5936345" lon="7.8779839"><ele>258.3333333333333</ele><time>2026-04-11T14:13:08.592Z</time></trkpt><trkpt lat="44.5936548" lon="7.877876"><ele>258.6666666666667</ele><time>2026-04-11T14:13:12.575Z</time></trkpt><trkpt lat="44.5936856" lon="7.8777756"><ele>259.0</ele><time>2026-04-11T14:13:16.592Z</time></trkpt><trkpt lat="44.5937017" lon="7.8776672"><ele>259.33333333333337</ele><time>2026-04-11T14:13:20.543Z</time></trkpt><trkpt lat="44.5937198" lon="7.8775598"><ele>259.6666666666667</ele><time>2026-04-11T14:13:24.494Z</time></trkpt><trkpt lat="44.5937444" lon="7.8774524"><ele>260.0</ele><time>2026-04-11T14:13:28.56Z</time></trkpt><trkpt lat="44.5937637" lon="7.8773454"><ele>264.33333333333337</ele><time>2026-04-11T14:13:32.56Z</time></trkpt><trkpt lat="44.5937781" lon="7.8772339"><ele>268.6666666666667</ele><time>2026-04-11T14:13:36.511Z</time></trkpt><trkpt lat="44.5937949" lon="7.8771276"><ele>273.0</ele><time>2026-04-11T14:13:40.56Z</time></trkpt><trkpt lat="44.5938258" lon="7.8770201"><ele>277.3333333333333</ele><time>2026-04-11T14:13:44.561Z</time></trkpt><trkpt lat="44.5938427" lon="7.8769087"><ele>281.66666666666663</ele><time>2026-04-11T14:13:48.527Z</time></trkpt><trkpt lat="44.5938571" lon="7.8768029"><ele>286.0</ele><time>2026-04-11T14:13:52.579Z</time></trkpt><trkpt lat="44.5938779" lon="7.8767063"><ele>285.99999999999994</ele><time>2026-04-11T14:13:56.561Z</time></trkpt><trkpt lat="44.5939491" lon="7.8766567"><ele>286.0</ele><time>2026-04-11T14:14:00.529Z</time></trkpt><trkpt lat="44.5940131" lon="7.8766816"><ele>286.0</ele><time>2026-04-11T14:14:03.528Z</time></trkpt><trkpt lat="44.5940569" lon="7.876781"><ele>286.0</ele><time>2026-04-11T14:14:07.579Z</time></trkpt><trkpt lat="44.5940581" lon="7.8768966"><ele>286.0</ele><time>2026-04-11T14:14:11.579Z</time></trkpt><trkpt lat="44.594045" lon="7.8769889"><ele>285.99999999999994</ele><time>2026-04-11T14:14:14.577Z</time></trkpt><trkpt lat="44.5940444" lon="7.87708"><ele>286.0</ele><time>2026-04-11T14:14:17.564Z</time></trkpt><trkpt lat="44.594048" lon="7.8771863"><ele>285.99999999999994</ele><time>2026-04-11T14:14:21.541Z</time></trkpt><trkpt lat="44.5940465" lon="7.8772758"><ele>286.0</ele><time>2026-04-11T14:14:25.565Z</time></trkpt><trkpt lat="44.5940431" lon="7.8773723"><ele>286.0</ele><time>2026-04-11T14:14:29.582Z</time></trkpt><trkpt lat="44.594055" lon="7.8774861"><ele>286.0</ele><time>2026-04-11T14:14:33.549Z</time></trkpt><trkpt lat="44.5940711" lon="7.8775802"><ele>286.0</ele><time>2026-04-11T14:14:36.613Z</time></trkpt><trkpt lat="44.5940881" lon="7.8776869"><ele>285.99999999999994</ele><time>2026-04-11T14:14:40.62Z</time></trkpt><trkpt lat="44.5940917" lon="7.8777977"><ele>286.0</ele><time>2026-04-11T14:14:44.532Z</time></trkpt><trkpt lat="44.5941002" lon="7.8778892"><ele>285.99999999999994</ele><time>2026-04-11T14:14:47.516Z</time></trkpt><trkpt lat="44.5941103" lon="7.877994"><ele>286.0</ele><time>2026-04-11T14:14:50.582Z</time></trkpt><trkpt lat="44.5941216" lon="7.8780874"><ele>286.0</ele><time>2026-04-11T14:14:53.584Z</time></trkpt><trkpt lat="44.5941351" lon="7.8781837"><ele>286.0</ele><time>2026-04-11T14:14:56.5Z</time></trkpt><trkpt lat="44.5941446" lon="7.8782805"><ele>286.0</ele><time>2026-04-11T14:14:59.533Z</time></trkpt><trkpt lat="44.594166" lon="7.8783671"><ele>285.99999999999994</ele><time>2026-04-11T14:15:02.557Z</time></trkpt><trkpt lat="44.5941808" lon="7.8784531"><ele>286.0</ele><time>2026-04-11T14:15:05.568Z</time></trkpt><trkpt lat="44.5941859" lon="7.8785428"><ele>276.0</ele><time>2026-04-11T14:15:08.518Z</time></trkpt><trkpt lat="44.5941907" lon="7.8786342"><ele>276.0</ele><time>2026-04-11T14:15:11.584Z</time></trkpt><trkpt lat="44.5942114" lon="7.8787382"><ele>276.0</ele><time>2026-04-11T14:15:15.519Z</time></trkpt><trkpt lat="44.5942655" lon="7.8788066"><ele>276.0</ele><time>2026-04-11T14:15:19.502Z</time></trkpt><trkpt lat="44.5943399" lon="7.8788188"><ele>276.0</ele><time>2026-04-11T14:15:24.553Z</time></trkpt></trkseg><trkseg><trkpt lat="44.5967076" lon="7.870566"><ele>327.0</ele><time>2026-04-11T14:27:27.506Z</time></trkpt><trkpt lat="44.5967968" lon="7.8705428"><ele>327.0</ele><time>2026-04-11T14:28:07.534Z</time></trkpt><trkpt lat="44.5968796" lon="7.8705312"><ele>327.0</ele><time>2026-04-11T14:28:11.535Z</time></trkpt><trkpt lat="44.5969752" lon="7.8705028"><ele>327.0</ele><time>2026-04-11T14:28:13.535Z</time></trkpt><trkpt lat="44.5970634" lon="7.8704659"><ele>327.0</ele><time>2026-04-11T14:28:15.536Z</time></trkpt><trkpt lat="44.5971521" lon="7.870447"><ele>327.0</ele><time>2026-04-11T14:28:17.519Z</time></trkpt><trkpt lat="44.5972489" lon="7.8704533"><ele>327.0</ele><time>2026-04-11T14:28:19.558Z</time></trkpt><trkpt lat="44.5973574" lon="7.8704845"><ele>327.0</ele><time>2026-04-11T14:28:21.621Z</time></trkpt><trkpt lat="44.5974607" lon="7.8704779"><ele>327.0</ele><time>2026-04-11T14:28:23.575Z</time></trkpt><trkpt lat="44.5975627" lon="7.8704632"><ele>327.0</ele><time>2026-04-11T14:28:25.543Z</time></trkpt><trkpt lat="44.5976674" lon="7.8704398"><ele>327.0</ele><time>2026-04-11T14:28:27.592Z</time></trkpt><trkpt lat="44.5977547" lon="7.8704171"><ele>327.0</ele><time>2026-04-11T14:28:29.56Z</time></trkpt><trkpt lat="44.5978339" lon="7.8703929"><ele>327.0</ele><time>2026-04-11T14:28:31.56Z</time></trkpt><trkpt lat="44.5979207" lon="7.870368"><ele>327.0</ele><time>2026-04-11T14:28:33.527Z</time></trkpt><trkpt lat="44.598019" lon="7.8703732"><ele>327.0</ele><time>2026-04-11T14:28:35.507Z</time></trkpt><trkpt lat="44.5981217" lon="7.8703843"><ele>327.0</ele><time>2026-04-11T14:28:37.507Z</time></trkpt><trkpt lat="44.5982155" lon="7.8703698"><ele>327.0</ele><time>2026-04-11T14:28:39.507Z</time></trkpt><trkpt lat="44.5983242" lon="7.8703496"><ele>327.0</ele><time>2026-04-11T14:28:41.507Z</time></trkpt><trkpt lat="44.5984237" lon="7.8703417"><ele>327.0</ele><time>2026-04-11T14:28:43.507Z</time></trkpt><trkpt lat="44.5985101" lon="7.8703292"><ele>327.0</ele><time>2026-04-11T14:28:45.507Z</time></trkpt><trkpt lat="44.5986052" lon="7.8703215"><ele>326.8</ele><time>2026-04-11T14:28:47.507Z</time></trkpt><trkpt lat="44.5987109" lon="7.8703087"><ele>326.6</ele><time>2026-04-11T14:28:49.507Z</time></trkpt><trkpt lat="44.5988159" lon="7.8702937"><ele>326.40000000000003</ele><time>2026-04-11T14:28:51.506Z</time></trkpt><trkpt lat="44.5989028" lon="7.8702843"><ele>326.20000000000005</ele><time>2026-04-11T14:28:53.507Z</time></trkpt><trkpt lat="44.5989994" lon="7.8702631"><ele>326.0</ele><time>2026-04-11T14:28:55.506Z</time></trkpt><trkpt lat="44.5990944" lon="7.8702372"><ele>326.0</ele><time>2026-04-11T14:28:57.508Z</time></trkpt><trkpt lat="44.59918" lon="7.8702141"><ele>326.0</ele><time>2026-04-11T14:28:59.507Z</time></trkpt><trkpt lat="44.5992557" lon="7.8701943"><ele>326.0</ele><time>2026-04-11T14:29:01.507Z</time></trkpt><trkpt lat="44.5993427" lon="7.8701887"><ele>326.0</ele><time>2026-04-11T14:29:03.507Z</time></trkpt><trkpt lat="44.5994413" lon="7.8701775"><ele>326.0</ele><time>2026-04-11T14:29:05.507Z</time></trkpt><trkpt lat="44.5995384" lon="7.870158"><ele>326.0</ele><time>2026-04-11T14:29:07.507Z</time></trkpt><trkpt lat="44.599648" lon="7.8701672"><ele>326.0</ele><time>2026-04-11T14:29:09.507Z</time></trkpt><trkpt lat="44.5997366" lon="7.8701517"><ele>326.0</ele><time>2026-04-11T14:29:11.507Z</time></trkpt><trkpt lat="44.5998247" lon="7.8701431"><ele>326.0</ele><time>2026-04-11T14:29:13.507Z</time></trkpt><trkpt lat="44.5999009" lon="7.8701241"><ele>326.0</ele><time>2026-04-11T14:29:15.507Z</time></trkpt><trkpt lat="44.5999996" lon="7.8701117"><ele>326.0</ele><time>2026-04-11T14:29:17.507Z</time></trkpt><trkpt lat="44.6000989" lon="7.870087"><ele>326.20000000000005</ele><time>2026-04-11T14:29:19.508Z</time></trkpt><trkpt lat="44.6001856" lon="7.8700788"><ele>326.40000000000003</ele><time>2026-04-11T14:29:21.507Z</time></trkpt><trkpt lat="44.6002769" lon="7.8700622"><ele>326.6</ele><time>2026-04-11T14:29:23.506Z</time></trkpt><trkpt lat="44.6003765" lon="7.8700326"><ele>326.8</ele><time>2026-04-11T14:29:25.508Z</time></trkpt><trkpt lat="44.6004756" lon="7.8700141"><ele>327.0</ele><time>2026-04-11T14:29:27.507Z</time></trkpt><trkpt lat="44.6005751" lon="7.8699969"><ele>327.0</ele><time>2026-04-11T14:29:29.507Z</time></trkpt><trkpt lat="44.6006717" lon="7.8699781"><ele>327.0</ele><time>2026-04-11T14:29:31.507Z</time></trkpt><trkpt lat="44.6007636" lon="7.86997"><ele>327.0</ele><time>2026-04-11T14:29:33.506Z</time></trkpt><trkpt lat="44.6008545" lon="7.8699547"><ele>327.0</ele><time>2026-04-11T14:29:35.506Z</time></trkpt><trkpt lat="44.600946" lon="7.8699381"><ele>327.0</ele><time>2026-04-11T14:29:37.508Z</time></trkpt><trkpt lat="44.6010437" lon="7.8699302"><ele>327.0</ele><time>2026-04-11T14:29:39.508Z</time></trkpt><trkpt lat="44.6011453" lon="7.8699178"><ele>327.0</ele><time>2026-04-11T14:29:41.508Z</time></trkpt><trkpt lat="44.6012434" lon="7.8699043"><ele>327.0</ele><time>2026-04-11T14:29:43.508Z</time></trkpt><trkpt lat="44.6013332" lon="7.8698936"><ele>327.0</ele><time>2026-04-11T14:29:45.507Z</time></trkpt><trkpt lat="44.6014316" lon="7.8698682"><ele>327.0</ele><time>2026-04-11T14:29:47.508Z</time></trkpt><trkpt lat="44.6015331" lon="7.8698508"><ele>327.0</ele><time>2026-04-11T14:29:49.508Z</time></trkpt><trkpt lat="44.6016433" lon="7.8698318"><ele>327.0</ele><time>2026-04-11T14:29:51.508Z</time></trkpt><trkpt lat="44.6017494" lon="7.8698057"><ele>327.0</ele><time>2026-04-11T14:29:53.508Z</time></trkpt><trkpt lat="44.6018477" lon="7.8697878"><ele>327.0</ele><time>2026-04-11T14:29:55.508Z</time></trkpt><trkpt lat="44.6019485" lon="7.869764"><ele>327.0</ele><time>2026-04-11T14:29:57.508Z</time></trkpt><trkpt lat="44.6020516" lon="7.8697442"><ele>327.0</ele><time>2026-04-11T14:29:59.508Z</time></trkpt><trkpt lat="44.6021558" lon="7.8697253"><ele>327.0</ele><time>2026-04-11T14:30:01.508Z</time></trkpt><trkpt lat="44.6022559" lon="7.8696992"><ele>327.0</ele><time>2026-04-11T14:30:03.508Z</time></trkpt><trkpt lat="44.6023556" lon="7.8696597"><ele>327.0</ele><time>2026-04-11T14:30:05.508Z</time></trkpt><trkpt lat="44.6024487" lon="7.869606"><ele>327.0</ele><time>2026-04-11T14:30:07.508Z</time></trkpt><trkpt lat="44.60254" lon="7.8695387"><ele>327.0</ele><time>2026-04-11T14:30:09.508Z</time></trkpt><trkpt lat="44.6026274" lon="7.8694591"><ele>327.0</ele><time>2026-04-11T14:30:11.508Z</time></trkpt><trkpt lat="44.6027156" lon="7.8693707"><ele>327.0</ele><time>2026-04-11T14:30:13.507Z</time></trkpt><trkpt lat="44.602798" lon="7.8692713"><ele>327.0</ele><time>2026-04-11T14:30:15.508Z</time></trkpt><trkpt lat="44.6028779" lon="7.8691733"><ele>327.0</ele><time>2026-04-11T14:30:17.507Z</time></trkpt><trkpt lat="44.6029605" lon="7.8690683"><ele>326.6666666666667</ele><time>2026-04-11T14:30:19.508Z</time></trkpt><trkpt lat="44.603033" lon="7.868987"><ele>326.3333333333333</ele><time>2026-04-11T14:30:21.508Z</time></trkpt><trkpt lat="44.6031071" lon="7.8689982"><ele>326.0</ele><time>2026-04-11T14:30:24.509Z</time></trkpt><trkpt lat="44.6031016" lon="7.8688854"><ele>325.66666666666663</ele><time>2026-04-11T14:31:06.509Z</time></trkpt><trkpt lat="44.6030317" lon="7.8688683"><ele>325.3333333333333</ele><time>2026-04-11T14:31:09.509Z</time></trkpt><trkpt lat="44.6029762" lon="7.8689348"><ele>325.0</ele><time>2026-04-11T14:31:11.509Z</time></trkpt><trkpt lat="44.6029301" lon="7.8689963"><ele>325.0</ele><time>2026-04-11T14:31:13.509Z</time></trkpt><trkpt lat="44.6028718" lon="7.8690723"><ele>325.0</ele><time>2026-04-11T14:31:15.509Z</time></trkpt><trkpt lat="44.6028102" lon="7.8691477"><ele>325.0</ele><time>2026-04-11T14:31:17.51Z</time></trkpt><trkpt lat="44.6027519" lon="7.8692155"><ele>325.0</ele><time>2026-04-11T14:31:19.509Z</time></trkpt><trkpt lat="44.6026873" lon="7.8692825"><ele>325.0</ele><time>2026-04-11T14:31:21.508Z</time></trkpt><trkpt lat="44.6026176" lon="7.8693656"><ele>325.0</ele><time>2026-04-11T14:31:23.509Z</time></trkpt><trkpt lat="44.6025358" lon="7.869442"><ele>325.3333333333333</ele><time>2026-04-11T14:31:25.509Z</time></trkpt><trkpt lat="44.6024684" lon="7.8694837"><ele>325.66666666666663</ele><time>2026-04-11T14:31:27.509Z</time></trkpt><trkpt lat="44.6024077" lon="7.869534"><ele>326.0</ele><time>2026-04-11T14:31:29.508Z</time></trkpt><trkpt lat="44.6023462" lon="7.8695713"><ele>326.3333333333333</ele><time>2026-04-11T14:31:31.509Z</time></trkpt><trkpt lat="44.6022806" lon="7.8696047"><ele>326.6666666666667</ele><time>2026-04-11T14:31:33.509Z</time></trkpt><trkpt lat="44.6022028" lon="7.8696324"><ele>327.0</ele><time>2026-04-11T14:31:35.508Z</time></trkpt><trkpt lat="44.602105" lon="7.8696622"><ele>327.0</ele><time>2026-04-11T14:31:37.509Z</time></trkpt><trkpt lat="44.602018" lon="7.8696942"><ele>327.0</ele><time>2026-04-11T14:31:39.508Z</time></trkpt><trkpt lat="44.6019413" lon="7.8697017"><ele>327.0</ele><time>2026-04-11T14:31:41.508Z</time></trkpt><trkpt lat="44.6018691" lon="7.8697049"><ele>327.0</ele><time>2026-04-11T14:31:43.508Z</time></trkpt><trkpt lat="44.6018059" lon="7.8697165"><ele>327.0</ele><time>2026-04-11T14:31:45.509Z</time></trkpt><trkpt lat="44.6017322" lon="7.8697517"><ele>327.0</ele><time>2026-04-11T14:32:06.509Z</time></trkpt><trkpt lat="44.601743" lon="7.8698549"><ele>327.0</ele><time>2026-04-11T14:32:10.509Z</time></trkpt><trkpt lat="44.6017934" lon="7.8699309"><ele>327.0</ele><time>2026-04-11T14:32:12.509Z</time></trkpt><trkpt lat="44.6018162" lon="7.8700573"><ele>327.0</ele><time>2026-04-11T14:32:14.509Z</time></trkpt><trkpt lat="44.6018338" lon="7.8701835"><ele>327.0</ele><time>2026-04-11T14:32:16.509Z</time></trkpt><trkpt lat="44.6018556" lon="7.8703073"><ele>327.0</ele><time>2026-04-11T14:32:18.51Z</time></trkpt><trkpt lat="44.6018786" lon="7.8704177"><ele>327.0</ele><time>2026-04-11T14:32:20.51Z</time></trkpt><trkpt lat="44.6018917" lon="7.8705247"><ele>326.3333333333333</ele><time>2026-04-11T14:32:22.51Z</time></trkpt><trkpt lat="44.6019218" lon="7.8706438"><ele>325.6666666666667</ele><time>2026-04-11T14:32:24.51Z</time></trkpt><trkpt lat="44.6019328" lon="7.8707326"><ele>325.0</ele><time>2026-04-11T14:32:26.51Z</time></trkpt><trkpt lat="44.6019483" lon="7.8708252"><ele>324.33333333333337</ele><time>2026-04-11T14:32:28.51Z</time></trkpt><trkpt lat="44.602023" lon="7.8708771"><ele>323.6666666666667</ele><time>2026-04-11T14:32:32.51Z</time></trkpt><trkpt lat="44.6021137" lon="7.8708449"><ele>323.0</ele><time>2026-04-11T14:32:34.51Z</time></trkpt><trkpt lat="44.6022034" lon="7.8708178"><ele>322.5</ele><time>2026-04-11T14:32:36.51Z</time></trkpt><trkpt lat="44.6022892" lon="7.8708026"><ele>322.0</ele><time>2026-04-11T14:32:38.511Z</time></trkpt><trkpt lat="44.6023896" lon="7.8707475"><ele>321.5</ele><time>2026-04-11T14:32:40.51Z</time></trkpt><trkpt lat="44.6024743" lon="7.8707252"><ele>321.0</ele><time>2026-04-11T14:32:42.51Z</time></trkpt><trkpt lat="44.6025531" lon="7.8707167"><ele>320.5</ele><time>2026-04-11T14:32:44.51Z</time></trkpt><trkpt lat="44.6026322" lon="7.8707085"><ele>320.0</ele><time>2026-04-11T14:32:46.51Z</time></trkpt><trkpt lat="44.6027284" lon="7.8706968"><ele>320.0</ele><time>2026-04-11T14:32:48.51Z</time></trkpt><trkpt lat="44.602823" lon="7.870699"><ele>320.0</ele><time>2026-04-11T14:32:50.509Z</time></trkpt><trkpt lat="44.6029053" lon="7.8707105"><ele>320.0</ele><time>2026-04-11T14:32:52.51Z</time></trkpt><trkpt lat="44.6030057" lon="7.8706877"><ele>320.0</ele><time>2026-04-11T14:32:55.51Z</time></trkpt><trkpt lat="44.603073" lon="7.8706597"><ele>320.0</ele><time>2026-04-11T14:32:57.51Z</time></trkpt><trkpt lat="44.6031461" lon="7.8706478"><ele>320.0</ele><time>2026-04-11T14:32:59.51Z</time></trkpt><trkpt lat="44.603221" lon="7.8706228"><ele>320.33333333333337</ele><time>2026-04-11T14:33:01.509Z</time></trkpt><trkpt lat="44.6033006" lon="7.8705939"><ele>320.6666666666667</ele><time>2026-04-11T14:33:03.51Z</time></trkpt><trkpt lat="44.6033688" lon="7.8705684"><ele>321.0</ele><time>2026-04-11T14:33:05.509Z</time></trkpt><trkpt lat="44.6034331" lon="7.8705698"><ele>321.3333333333333</ele><time>2026-04-11T14:33:07.51Z</time></trkpt><trkpt lat="44.6035421" lon="7.8705673"><ele>321.66666666666663</ele><time>2026-04-11T14:33:10.51Z</time></trkpt><trkpt lat="44.6036058" lon="7.8705711"><ele>322.0</ele><time>2026-04-11T14:33:12.51Z</time></trkpt><trkpt lat="44.6036683" lon="7.8706023"><ele>322.0</ele><time>2026-04-11T14:33:14.509Z</time></trkpt><trkpt lat="44.6037979" lon="7.8706111"><ele>322.0</ele><time>2026-04-11T14:33:16.51Z</time></trkpt><trkpt lat="44.6038795" lon="7.8706013"><ele>322.0</ele><time>2026-04-11T14:33:18.509Z</time></trkpt><trkpt lat="44.6039556" lon="7.870599"><ele>322.0</ele><time>2026-04-11T14:33:20.511Z</time></trkpt><trkpt lat="44.6040449" lon="7.8706113"><ele>322.0</ele><time>2026-04-11T14:33:22.511Z</time></trkpt><trkpt lat="44.6041355" lon="7.8706296"><ele>322.0</ele><time>2026-04-11T14:33:24.511Z</time></trkpt><trkpt lat="44.6042151" lon="7.8706406"><ele>322.0</ele><time>2026-04-11T14:33:26.511Z</time></trkpt><trkpt lat="44.6042915" lon="7.870646"><ele>322.0</ele><time>2026-04-11T14:33:28.511Z</time></trkpt><trkpt lat="44.6043737" lon="7.8706471"><ele>322.0</ele><time>2026-04-11T14:33:30.511Z</time></trkpt><trkpt lat="44.604469" lon="7.8706339"><ele>322.0</ele><time>2026-04-11T14:33:32.511Z</time></trkpt><trkpt lat="44.60457" lon="7.8706282"><ele>322.0</ele><time>2026-04-11T14:33:34.511Z</time></trkpt><trkpt lat="44.6046654" lon="7.8706366"><ele>321.66666666666663</ele><time>2026-04-11T14:33:36.511Z</time></trkpt><trkpt lat="44.6047495" lon="7.8706375"><ele>321.3333333333333</ele><time>2026-04-11T14:33:38.511Z</time></trkpt><trkpt lat="44.6048287" lon="7.8706329"><ele>321.0</ele><time>2026-04-11T14:33:41.511Z</time></trkpt><trkpt lat="44.6048977" lon="7.8706041"><ele>320.6666666666667</ele><time>2026-04-11T14:34:11.511Z</time></trkpt><trkpt lat="44.6049619" lon="7.8706226"><ele>320.33333333333337</ele><time>2026-04-11T14:34:13.511Z</time></trkpt><trkpt lat="44.6050284" lon="7.87065"><ele>320.0</ele><time>2026-04-11T14:34:14.511Z</time></trkpt><trkpt lat="44.6051342" lon="7.8707069"><ele>320.0</ele><time>2026-04-11T14:34:16.511Z</time></trkpt><trkpt lat="44.6052376" lon="7.8707583"><ele>320.0</ele><time>2026-04-11T14:34:18.511Z</time></trkpt><trkpt lat="44.6053155" lon="7.8708608"><ele>320.0</ele><time>2026-04-11T14:34:20.511Z</time></trkpt><trkpt lat="44.6053508" lon="7.8709433"><ele>320.0</ele><time>2026-04-11T14:34:21.511Z</time></trkpt><trkpt lat="44.6053958" lon="7.8710413"><ele>320.0</ele><time>2026-04-11T14:34:22.512Z</time></trkpt><trkpt lat="44.6054404" lon="7.8711306"><ele>320.0</ele><time>2026-04-11T14:34:23.512Z</time></trkpt><trkpt lat="44.6054838" lon="7.8712134"><ele>317.5</ele><time>2026-04-11T14:34:24.511Z</time></trkpt><trkpt lat="44.6055218" lon="7.8712913"><ele>315.0</ele><time>2026-04-11T14:34:25.511Z</time></trkpt><trkpt lat="44.6055575" lon="7.8713687"><ele>312.5</ele><time>2026-04-11T14:34:26.512Z</time></trkpt><trkpt lat="44.605603" lon="7.8714448"><ele>310.0</ele><time>2026-04-11T14:34:27.511Z</time></trkpt><trkpt lat="44.6056592" lon="7.8715319"><ele>307.5</ele><time>2026-04-11T14:34:28.512Z</time></trkpt><trkpt lat="44.605729" lon="7.8716178"><ele>305.0</ele><time>2026-04-11T14:34:29.511Z</time></trkpt><trkpt lat="44.6058099" lon="7.871711"><ele>302.6</ele><time>2026-04-11T14:34:30.511Z</time></trkpt><trkpt lat="44.6058924" lon="7.8718149"><ele>300.2</ele><time>2026-04-11T14:34:31.511Z</time></trkpt><trkpt lat="44.6059785" lon="7.8719198"><ele>297.8</ele><time>2026-04-11T14:34:32.511Z</time></trkpt><trkpt lat="44.6060653" lon="7.8720187"><ele>295.4</ele><time>2026-04-11T14:34:33.512Z</time></trkpt><trkpt lat="44.6061427" lon="7.8721014"><ele>293.0</ele><time>2026-04-11T14:34:34.512Z</time></trkpt><trkpt lat="44.6062251" lon="7.8721785"><ele>292.99999999999994</ele><time>2026-04-11T14:34:35.512Z</time></trkpt><trkpt lat="44.6062948" lon="7.8722313"><ele>293.0</ele><time>2026-04-11T14:34:36.512Z</time></trkpt><trkpt lat="44.6063633" lon="7.8722483"><ele>293.0</ele><time>2026-04-11T14:34:37.511Z</time></trkpt><trkpt lat="44.6064388" lon="7.8722276"><ele>293.0</ele><time>2026-04-11T14:34:38.512Z</time></trkpt><trkpt lat="44.6065004" lon="7.8722071"><ele>293.0</ele><time>2026-04-11T14:34:39.512Z</time></trkpt><trkpt lat="44.6065613" lon="7.8721787"><ele>292.99999999999994</ele><time>2026-04-11T14:34:40.512Z</time></trkpt><trkpt lat="44.6066238" lon="7.8721564"><ele>293.0</ele><time>2026-04-11T14:34:41.512Z</time></trkpt><trkpt lat="44.606699" lon="7.8721319"><ele>293.0</ele><time>2026-04-11T14:34:42.512Z</time></trkpt><trkpt lat="44.6067646" lon="7.8720957"><ele>293.0</ele><time>2026-04-11T14:34:43.512Z</time></trkpt><trkpt lat="44.6068969" lon="7.872019"><ele>293.0</ele><time>2026-04-11T14:34:45.512Z</time></trkpt><trkpt lat="44.6069972" lon="7.8719827"><ele>293.0</ele><time>2026-04-11T14:34:47.512Z</time></trkpt><trkpt lat="44.6070888" lon="7.8719975"><ele>293.0</ele><time>2026-04-11T14:34:49.512Z</time></trkpt><trkpt lat="44.6071658" lon="7.8720319"><ele>292.1428571428571</ele><time>2026-04-11T14:34:51.512Z</time></trkpt><trkpt lat="44.6072336" lon="7.8720619"><ele>291.2857142857143</ele><time>2026-04-11T14:34:53.512Z</time></trkpt><trkpt lat="44.6073047" lon="7.8720839"><ele>290.42857142857144</ele><time>2026-04-11T14:34:55.512Z</time></trkpt><trkpt lat="44.6073674" lon="7.8721138"><ele>289.57142857142856</ele><time>2026-04-11T14:34:57.512Z</time></trkpt><trkpt lat="44.6074416" lon="7.8721377"><ele>288.7142857142857</ele><time>2026-04-11T14:34:59.512Z</time></trkpt><trkpt lat="44.6075218" lon="7.8721608"><ele>287.85714285714283</ele><time>2026-04-11T14:35:01.512Z</time></trkpt><trkpt lat="44.6075947" lon="7.8721965"><ele>287.0</ele><time>2026-04-11T14:35:03.512Z</time></trkpt><trkpt lat="44.6076617" lon="7.8722213"><ele>287.0</ele><time>2026-04-11T14:35:05.511Z</time></trkpt><trkpt lat="44.6077385" lon="7.8722564"><ele>287.0</ele><time>2026-04-11T14:35:07.512Z</time></trkpt><trkpt lat="44.6078221" lon="7.8722769"><ele>287.0</ele><time>2026-04-11T14:35:09.512Z</time></trkpt><trkpt lat="44.607907" lon="7.8722975"><ele>287.0</ele><time>2026-04-11T14:35:11.511Z</time></trkpt><trkpt lat="44.6079858" lon="7.872327"><ele>287.0</ele><time>2026-04-11T14:35:13.512Z</time></trkpt><trkpt lat="44.6080795" lon="7.872359"><ele>287.0</ele><time>2026-04-11T14:35:15.511Z</time></trkpt><trkpt lat="44.6081734" lon="7.8723937"><ele>288.2</ele><time>2026-04-11T14:35:17.512Z</time></trkpt><trkpt lat="44.6082695" lon="7.8724192"><ele>289.4</ele><time>2026-04-11T14:35:19.512Z</time></trkpt><trkpt lat="44.6083671" lon="7.8724408"><ele>290.6</ele><time>2026-04-11T14:35:21.511Z</time></trkpt><trkpt lat="44.6084614" lon="7.8724615"><ele>291.8</ele><time>2026-04-11T14:35:23.512Z</time></trkpt><trkpt lat="44.6085507" lon="7.8724817"><ele>293.0</ele><time>2026-04-11T14:35:25.512Z</time></trkpt><trkpt lat="44.6086414" lon="7.8725008"><ele>294.2</ele><time>2026-04-11T14:35:27.512Z</time></trkpt><trkpt lat="44.6087383" lon="7.8725156"><ele>295.4</ele><time>2026-04-11T14:35:29.512Z</time></trkpt><trkpt lat="44.6088246" lon="7.8724874"><ele>296.59999999999997</ele><time>2026-04-11T14:35:31.512Z</time></trkpt><trkpt lat="44.6089001" lon="7.8723731"><ele>297.8</ele><time>2026-04-11T14:35:33.511Z</time></trkpt><trkpt lat="44.6089512" lon="7.8722761"><ele>299.0</ele><time>2026-04-11T14:35:35.512Z</time></trkpt><trkpt lat="44.6089909" lon="7.872169"><ele>299.0</ele><time>2026-04-11T14:35:37.512Z</time></trkpt><trkpt lat="44.609036" lon="7.8720513"><ele>299.0</ele><time>2026-04-11T14:35:39.512Z</time></trkpt><trkpt lat="44.6090799" lon="7.8719489"><ele>299.0</ele><time>2026-04-11T14:35:41.512Z</time></trkpt><trkpt lat="44.6091261" lon="7.8718426"><ele>299.0</ele><time>2026-04-11T14:35:43.512Z</time></trkpt><trkpt lat="44.609179" lon="7.8717215"><ele>299.0</ele><time>2026-04-11T14:35:45.511Z</time></trkpt><trkpt lat="44.6092187" lon="7.8715967"><ele>299.2</ele><time>2026-04-11T14:35:47.512Z</time></trkpt><trkpt lat="44.6092737" lon="7.8714898"><ele>299.4</ele><time>2026-04-11T14:35:49.513Z</time></trkpt><trkpt lat="44.6093434" lon="7.8713939"><ele>299.6</ele><time>2026-04-11T14:35:51.512Z</time></trkpt><trkpt lat="44.6094409" lon="7.8713401"><ele>299.8</ele><time>2026-04-11T14:35:53.513Z</time></trkpt><trkpt lat="44.6095512" lon="7.871348"><ele>300.0</ele><time>2026-04-11T14:35:55.513Z</time></trkpt><trkpt lat="44.6096533" lon="7.8713642"><ele>299.6</ele><time>2026-04-11T14:35:57.512Z</time></trkpt><trkpt lat="44.6097557" lon="7.8713692"><ele>299.2</ele><time>2026-04-11T14:35:59.513Z</time></trkpt><trkpt lat="44.6098549" lon="7.8713646"><ele>298.8</ele><time>2026-04-11T14:36:01.513Z</time></trkpt><trkpt lat="44.609948" lon="7.8713595"><ele>298.4</ele><time>2026-04-11T14:36:03.513Z</time></trkpt><trkpt lat="44.6100345" lon="7.8713584"><ele>298.0</ele><time>2026-04-11T14:36:05.513Z</time></trkpt><trkpt lat="44.6101284" lon="7.8713497"><ele>298.0</ele><time>2026-04-11T14:36:07.513Z</time></trkpt><trkpt lat="44.6102238" lon="7.8713407"><ele>298.0</ele><time>2026-04-11T14:36:09.513Z</time></trkpt><trkpt lat="44.6102983" lon="7.8713271"><ele>298.0</ele><time>2026-04-11T14:36:11.513Z</time></trkpt><trkpt lat="44.6103622" lon="7.8713154"><ele>298.0</ele><time>2026-04-11T14:36:14.513Z</time></trkpt><trkpt lat="44.6104346" lon="7.8712899"><ele>298.0</ele><time>2026-04-11T14:36:48.572Z</time></trkpt><trkpt lat="44.6104986" lon="7.8712856"><ele>298.0</ele><time>2026-04-11T14:36:50.558Z</time></trkpt><trkpt lat="44.6105828" lon="7.8712646"><ele>298.2</ele><time>2026-04-11T14:36:52.558Z</time></trkpt><trkpt lat="44.6106865" lon="7.8712374"><ele>298.4</ele><time>2026-04-11T14:36:54.576Z</time></trkpt><trkpt lat="44.6107929" lon="7.8712236"><ele>298.59999999999997</ele><time>2026-04-11T14:36:56.631Z</time></trkpt><trkpt lat="44.6108905" lon="7.8712063"><ele>298.8</ele><time>2026-04-11T14:36:58.512Z</time></trkpt><trkpt lat="44.6109867" lon="7.8711897"><ele>299.0</ele><time>2026-04-11T14:37:00.524Z</time></trkpt><trkpt lat="44.6110995" lon="7.8711613"><ele>298.8</ele><time>2026-04-11T14:37:02.513Z</time></trkpt><trkpt lat="44.6111975" lon="7.8711433"><ele>298.59999999999997</ele><time>2026-04-11T14:37:04.514Z</time></trkpt><trkpt lat="44.6112962" lon="7.8711331"><ele>298.4</ele><time>2026-04-11T14:37:06.514Z</time></trkpt><trkpt lat="44.6113894" lon="7.8711206"><ele>298.2</ele><time>2026-04-11T14:37:08.513Z</time></trkpt><trkpt lat="44.6114724" lon="7.8711105"><ele>298.0</ele><time>2026-04-11T14:37:10.514Z</time></trkpt><trkpt lat="44.6115664" lon="7.8711113"><ele>298.0</ele><time>2026-04-11T14:37:12.513Z</time></trkpt><trkpt lat="44.6116558" lon="7.8711127"><ele>298.0</ele><time>2026-04-11T14:37:14.513Z</time></trkpt><trkpt lat="44.6117967" lon="7.8711031"><ele>298.0</ele><time>2026-04-11T14:37:17.514Z</time></trkpt><trkpt lat="44.6119089" lon="7.8710856"><ele>298.0</ele><time>2026-04-11T14:37:19.514Z</time></trkpt><trkpt lat="44.6119992" lon="7.8710755"><ele>298.0</ele><time>2026-04-11T14:37:21.514Z</time></trkpt><trkpt lat="44.6120985" lon="7.8710595"><ele>297.6</ele><time>2026-04-11T14:37:23.514Z</time></trkpt><trkpt lat="44.6121894" lon="7.8710462"><ele>297.20000000000005</ele><time>2026-04-11T14:37:25.514Z</time></trkpt><trkpt lat="44.6122799" lon="7.8710292"><ele>296.8</ele><time>2026-04-11T14:37:27.514Z</time></trkpt><trkpt lat="44.6123726" lon="7.8710275"><ele>296.40000000000003</ele><time>2026-04-11T14:37:29.514Z</time></trkpt><trkpt lat="44.6124693" lon="7.8710297"><ele>296.0</ele><time>2026-04-11T14:37:32.596Z</time></trkpt><trkpt lat="44.6125765" lon="7.8709897"><ele>296.0</ele><time>2026-04-11T14:37:34.596Z</time></trkpt><trkpt lat="44.612663" lon="7.8710023"><ele>296.0</ele><time>2026-04-11T14:37:36.514Z</time></trkpt><trkpt lat="44.6127379" lon="7.8709983"><ele>296.0</ele><time>2026-04-11T14:37:38.514Z</time></trkpt><trkpt lat="44.6128197" lon="7.8709866"><ele>296.0</ele><time>2026-04-11T14:37:40.514Z</time></trkpt><trkpt lat="44.6128906" lon="7.870964"><ele>296.0</ele><time>2026-04-11T14:37:42.514Z</time></trkpt><trkpt lat="44.6129684" lon="7.8709514"><ele>296.0</ele><time>2026-04-11T14:37:45.514Z</time></trkpt><trkpt lat="44.6130367" lon="7.8709515"><ele>296.0</ele><time>2026-04-11T14:37:48.514Z</time></trkpt><trkpt lat="44.6131053" lon="7.8709756"><ele>296.0</ele><time>2026-04-11T14:38:35.545Z</time></trkpt><trkpt lat="44.6132037" lon="7.8709758"><ele>296.0</ele><time>2026-04-11T14:38:38.608Z</time></trkpt><trkpt lat="44.6132899" lon="7.8709527"><ele>296.0</ele><time>2026-04-11T14:38:40.503Z</time></trkpt><trkpt lat="44.613395" lon="7.8709185"><ele>296.0</ele><time>2026-04-11T14:38:42.587Z</time></trkpt><trkpt lat="44.613492" lon="7.870867"><ele>296.33333333333337</ele><time>2026-04-11T14:38:44.603Z</time></trkpt><trkpt lat="44.6135782" lon="7.8708186"><ele>296.6666666666667</ele><time>2026-04-11T14:38:46.561Z</time></trkpt><trkpt lat="44.6136669" lon="7.870787"><ele>297.0</ele><time>2026-04-11T14:38:48.561Z</time></trkpt><trkpt lat="44.6137517" lon="7.870766"><ele>297.3333333333333</ele><time>2026-04-11T14:38:50.561Z</time></trkpt><trkpt lat="44.6138343" lon="7.8707428"><ele>297.66666666666663</ele><time>2026-04-11T14:38:52.562Z</time></trkpt><trkpt lat="44.6139203" lon="7.8707105"><ele>298.0</ele><time>2026-04-11T14:38:54.579Z</time></trkpt><trkpt lat="44.6140157" lon="7.8706776"><ele>298.16666666666663</ele><time>2026-04-11T14:38:56.515Z</time></trkpt><trkpt lat="44.6141059" lon="7.8706487"><ele>298.3333333333333</ele><time>2026-04-11T14:38:58.515Z</time></trkpt><trkpt lat="44.6141891" lon="7.8706263"><ele>298.5</ele><time>2026-04-11T14:39:00.514Z</time></trkpt><trkpt lat="44.6142534" lon="7.8706075"><ele>298.6666666666667</ele><time>2026-04-11T14:39:02.515Z</time></trkpt><trkpt lat="44.6143221" lon="7.8705827"><ele>298.83333333333337</ele><time>2026-04-11T14:39:04.515Z</time></trkpt><trkpt lat="44.6143928" lon="7.8705464"><ele>299.0</ele><time>2026-04-11T14:39:06.515Z</time></trkpt><trkpt lat="44.6144884" lon="7.8705286"><ele>299.0</ele><time>2026-04-11T14:39:08.515Z</time></trkpt><trkpt lat="44.614608" lon="7.8705005"><ele>299.0</ele><time>2026-04-11T14:39:10.515Z</time></trkpt><trkpt lat="44.6147119" lon="7.8704749"><ele>299.0</ele><time>2026-04-11T14:39:12.515Z</time></trkpt><trkpt lat="44.6148019" lon="7.8704399"><ele>299.0</ele><time>2026-04-11T14:39:14.514Z</time></trkpt><trkpt lat="44.6148929" lon="7.8704246"><ele>299.0</ele><time>2026-04-11T14:39:16.515Z</time></trkpt><trkpt lat="44.6149795" lon="7.8704176"><ele>299.0</ele><time>2026-04-11T14:39:18.515Z</time></trkpt><trkpt lat="44.615059" lon="7.8704091"><ele>299.0</ele><time>2026-04-11T14:39:20.515Z</time></trkpt><trkpt lat="44.6151332" lon="7.870394"><ele>299.0</ele><time>2026-04-11T14:39:22.515Z</time></trkpt><trkpt lat="44.615223" lon="7.8703866"><ele>299.0</ele><time>2026-04-11T14:39:24.514Z</time></trkpt><trkpt lat="44.6153175" lon="7.8703713"><ele>299.0</ele><time>2026-04-11T14:39:26.515Z</time></trkpt><trkpt lat="44.6154243" lon="7.8703412"><ele>299.0</ele><time>2026-04-11T14:39:28.515Z</time></trkpt><trkpt lat="44.6155275" lon="7.8703234"><ele>299.2</ele><time>2026-04-11T14:39:30.515Z</time></trkpt><trkpt lat="44.6156325" lon="7.8703058"><ele>299.4</ele><time>2026-04-11T14:39:32.514Z</time></trkpt><trkpt lat="44.6157322" lon="7.8702915"><ele>299.6</ele><time>2026-04-11T14:39:34.516Z</time></trkpt><trkpt lat="44.6158129" lon="7.8702686"><ele>299.8</ele><time>2026-04-11T14:39:36.516Z</time></trkpt><trkpt lat="44.6158919" lon="7.8702496"><ele>300.0</ele><time>2026-04-11T14:39:38.516Z</time></trkpt><trkpt lat="44.6159973" lon="7.8702275"><ele>300.0</ele><time>2026-04-11T14:39:40.516Z</time></trkpt><trkpt lat="44.6161075" lon="7.8701927"><ele>300.0</ele><time>2026-04-11T14:39:42.515Z</time></trkpt><trkpt lat="44.6162103" lon="7.8701697"><ele>300.0</ele><time>2026-04-11T14:39:44.516Z</time></trkpt><trkpt lat="44.616318" lon="7.8701492"><ele>300.0</ele><time>2026-04-11T14:39:46.516Z</time></trkpt><trkpt lat="44.6164216" lon="7.8701208"><ele>300.0</ele><time>2026-04-11T14:39:48.516Z</time></trkpt><trkpt lat="44.616508" lon="7.8700954"><ele>299.6666666666667</ele><time>2026-04-11T14:39:50.515Z</time></trkpt><trkpt lat="44.6165955" lon="7.8700771"><ele>299.3333333333333</ele><time>2026-04-11T14:39:52.516Z</time></trkpt><trkpt lat="44.6166796" lon="7.8700535"><ele>299.0</ele><time>2026-04-11T14:39:54.516Z</time></trkpt><trkpt lat="44.6167576" lon="7.8700435"><ele>298.66666666666663</ele><time>2026-04-11T14:39:56.515Z</time></trkpt><trkpt lat="44.616832" lon="7.8700505"><ele>298.3333333333333</ele><time>2026-04-11T14:39:58.516Z</time></trkpt><trkpt lat="44.6169303" lon="7.8700453"><ele>298.0</ele><time>2026-04-11T14:40:00.515Z</time></trkpt><trkpt lat="44.617034" lon="7.8700264"><ele>297.8</ele><time>2026-04-11T14:40:02.515Z</time></trkpt><trkpt lat="44.6171322" lon="7.8700154"><ele>297.6</ele><time>2026-04-11T14:40:04.515Z</time></trkpt><trkpt lat="44.6172169" lon="7.8699973"><ele>297.4</ele><time>2026-04-11T14:40:06.516Z</time></trkpt><trkpt lat="44.6173097" lon="7.8699985"><ele>297.2</ele><time>2026-04-11T14:40:08.515Z</time></trkpt><trkpt lat="44.617415" lon="7.8699973"><ele>297.0</ele><time>2026-04-11T14:40:10.515Z</time></trkpt><trkpt lat="44.6175205" lon="7.8699804"><ele>297.0</ele><time>2026-04-11T14:40:12.516Z</time></trkpt><trkpt lat="44.6176077" lon="7.8699292"><ele>297.0</ele><time>2026-04-11T14:40:14.516Z</time></trkpt><trkpt lat="44.6176791" lon="7.8698549"><ele>297.0</ele><time>2026-04-11T14:40:16.516Z</time></trkpt><trkpt lat="44.6177309" lon="7.8697848"><ele>297.0</ele><time>2026-04-11T14:40:19.516Z</time></trkpt><trkpt lat="44.6178015" lon="7.8698093"><ele>297.0</ele><time>2026-04-11T14:40:46.516Z</time></trkpt><trkpt lat="44.6178698" lon="7.8698421"><ele>297.0</ele><time>2026-04-11T14:40:48.516Z</time></trkpt><trkpt lat="44.6179576" lon="7.8698792"><ele>296.5</ele><time>2026-04-11T14:40:50.516Z</time></trkpt><trkpt lat="44.6180466" lon="7.8699131"><ele>296.0</ele><time>2026-04-11T14:40:52.516Z</time></trkpt><trkpt lat="44.6181192" lon="7.8699826"><ele>295.5</ele><time>2026-04-11T14:40:54.517Z</time></trkpt><trkpt lat="44.6181904" lon="7.8700291"><ele>295.0</ele><time>2026-04-11T14:40:56.516Z</time></trkpt><trkpt lat="44.6182722" lon="7.8700602"><ele>294.5</ele><time>2026-04-11T14:40:58.517Z</time></trkpt><trkpt lat="44.6183658" lon="7.870086"><ele>294.0</ele><time>2026-04-11T14:41:00.517Z</time></trkpt><trkpt lat="44.618457" lon="7.8701008"><ele>294.0</ele><time>2026-04-11T14:41:02.516Z</time></trkpt><trkpt lat="44.6185501" lon="7.8701124"><ele>294.0</ele><time>2026-04-11T14:41:04.516Z</time></trkpt><trkpt lat="44.6186456" lon="7.8701091"><ele>294.0</ele><time>2026-04-11T14:41:06.517Z</time></trkpt><trkpt lat="44.6187492" lon="7.8701022"><ele>294.0</ele><time>2026-04-11T14:41:08.516Z</time></trkpt><trkpt lat="44.6188557" lon="7.8700884"><ele>294.0</ele><time>2026-04-11T14:41:10.516Z</time></trkpt><trkpt lat="44.6189662" lon="7.8700688"><ele>294.0</ele><time>2026-04-11T14:41:12.517Z</time></trkpt><trkpt lat="44.6190678" lon="7.8700544"><ele>294.0</ele><time>2026-04-11T14:41:14.517Z</time></trkpt><trkpt lat="44.619156" lon="7.8700404"><ele>294.0</ele><time>2026-04-11T14:41:16.516Z</time></trkpt><trkpt lat="44.6192478" lon="7.8700386"><ele>294.0</ele><time>2026-04-11T14:41:18.517Z</time></trkpt><trkpt lat="44.6193405" lon="7.8700369"><ele>294.0</ele><time>2026-04-11T14:41:20.517Z</time></trkpt><trkpt lat="44.6194336" lon="7.8700273"><ele>294.0</ele><time>2026-04-11T14:41:22.517Z</time></trkpt><trkpt lat="44.6195261" lon="7.8700205"><ele>294.0</ele><time>2026-04-11T14:41:24.517Z</time></trkpt><trkpt lat="44.6196095" lon="7.8700067"><ele>294.0</ele><time>2026-04-11T14:41:26.517Z</time></trkpt><trkpt lat="44.6197003" lon="7.8699635"><ele>294.0</ele><time>2026-04-11T14:41:28.517Z</time></trkpt><trkpt lat="44.6197658" lon="7.869896"><ele>294.0</ele><time>2026-04-11T14:41:30.517Z</time></trkpt><trkpt lat="44.619824" lon="7.8698044"><ele>294.0</ele><time>2026-04-11T14:41:32.517Z</time></trkpt><trkpt lat="44.619895" lon="7.869713"><ele>294.0</ele><time>2026-04-11T14:41:34.517Z</time></trkpt><trkpt lat="44.6199672" lon="7.8696121"><ele>294.0</ele><time>2026-04-11T14:41:36.517Z</time></trkpt><trkpt lat="44.6200437" lon="7.8695192"><ele>294.0</ele><time>2026-04-11T14:41:38.517Z</time></trkpt><trkpt lat="44.6201339" lon="7.8694341"><ele>294.0</ele><time>2026-04-11T14:41:40.517Z</time></trkpt><trkpt lat="44.6202273" lon="7.8693548"><ele>294.0</ele><time>2026-04-11T14:41:42.516Z</time></trkpt><trkpt lat="44.6203203" lon="7.869281"><ele>293.8333333333333</ele><time>2026-04-11T14:41:44.517Z</time></trkpt><trkpt lat="44.6204108" lon="7.8692249"><ele>293.6666666666667</ele><time>2026-04-11T14:41:46.517Z</time></trkpt><trkpt lat="44.6204871" lon="7.8691742"><ele>293.5</ele><time>2026-04-11T14:41:48.517Z</time></trkpt><trkpt lat="44.6205648" lon="7.8691149"><ele>293.33333333333337</ele><time>2026-04-11T14:41:50.516Z</time></trkpt><trkpt lat="44.6206366" lon="7.8690495"><ele>293.1666666666667</ele><time>2026-04-11T14:41:52.516Z</time></trkpt><trkpt lat="44.6207034" lon="7.8690048"><ele>293.0</ele><time>2026-04-11T14:41:54.517Z</time></trkpt><trkpt lat="44.620765" lon="7.8689642"><ele>293.0</ele><time>2026-04-11T14:41:56.516Z</time></trkpt><trkpt lat="44.6208341" lon="7.8689166"><ele>293.0</ele><time>2026-04-11T14:41:58.516Z</time></trkpt><trkpt lat="44.6209085" lon="7.8688696"><ele>293.0</ele><time>2026-04-11T14:42:00.517Z</time></trkpt><trkpt lat="44.6209836" lon="7.868823"><ele>293.0</ele><time>2026-04-11T14:42:02.517Z</time></trkpt><trkpt lat="44.6210554" lon="7.8687734"><ele>293.0</ele><time>2026-04-11T14:42:04.518Z</time></trkpt><trkpt lat="44.6211261" lon="7.8687421"><ele>293.0</ele><time>2026-04-11T14:42:06.518Z</time></trkpt><trkpt lat="44.6211877" lon="7.868711"><ele>293.0</ele><time>2026-04-11T14:42:39.518Z</time></trkpt><trkpt lat="44.6212553" lon="7.8686665"><ele>293.0</ele><time>2026-04-11T14:42:41.518Z</time></trkpt><trkpt lat="44.6213269" lon="7.8686294"><ele>293.0</ele><time>2026-04-11T14:42:43.517Z</time></trkpt><trkpt lat="44.6214048" lon="7.868579"><ele>293.0</ele><time>2026-04-11T14:42:45.518Z</time></trkpt><trkpt lat="44.6214871" lon="7.8685287"><ele>293.0</ele><time>2026-04-11T14:42:47.518Z</time></trkpt><trkpt lat="44.6215791" lon="7.868478"><ele>293.0</ele><time>2026-04-11T14:42:49.518Z</time></trkpt><trkpt lat="44.6216669" lon="7.8684121"><ele>293.0</ele><time>2026-04-11T14:42:51.518Z</time></trkpt><trkpt lat="44.6217468" lon="7.868345"><ele>293.0</ele><time>2026-04-11T14:42:53.518Z</time></trkpt><trkpt lat="44.6218392" lon="7.8682698"><ele>293.0</ele><time>2026-04-11T14:42:55.518Z</time></trkpt><trkpt lat="44.6219353" lon="7.8682071"><ele>293.0</ele><time>2026-04-11T14:42:57.518Z</time></trkpt><trkpt lat="44.6220232" lon="7.8681255"><ele>293.0</ele><time>2026-04-11T14:42:59.518Z</time></trkpt><trkpt lat="44.6221123" lon="7.8680505"><ele>293.0</ele><time>2026-04-11T14:43:01.517Z</time></trkpt><trkpt lat="44.6221996" lon="7.8679893"><ele>293.0</ele><time>2026-04-11T14:43:03.517Z</time></trkpt><trkpt lat="44.6222782" lon="7.8679232"><ele>293.0</ele><time>2026-04-11T14:43:05.518Z</time></trkpt><trkpt lat="44.6223529" lon="7.8678609"><ele>293.0</ele><time>2026-04-11T14:43:07.517Z</time></trkpt><trkpt lat="44.6224351" lon="7.8677946"><ele>293.0</ele><time>2026-04-11T14:43:09.518Z</time></trkpt><trkpt lat="44.6225241" lon="7.8677225"><ele>293.0</ele><time>2026-04-11T14:43:11.518Z</time></trkpt><trkpt lat="44.6226106" lon="7.8676506"><ele>293.0</ele><time>2026-04-11T14:43:13.518Z</time></trkpt><trkpt lat="44.6227055" lon="7.8675811"><ele>293.0</ele><time>2026-04-11T14:43:15.518Z</time></trkpt><trkpt lat="44.6227975" lon="7.8675098"><ele>293.0</ele><time>2026-04-11T14:43:17.518Z</time></trkpt><trkpt lat="44.6228876" lon="7.8674411"><ele>293.0</ele><time>2026-04-11T14:43:19.518Z</time></trkpt><trkpt lat="44.6229826" lon="7.8673678"><ele>293.0</ele><time>2026-04-11T14:43:21.518Z</time></trkpt><trkpt lat="44.6230734" lon="7.8673051"><ele>293.0</ele><time>2026-04-11T14:43:23.519Z</time></trkpt><trkpt lat="44.6231484" lon="7.8672217"><ele>293.0</ele><time>2026-04-11T14:43:25.518Z</time></trkpt><trkpt lat="44.6232061" lon="7.8671809"><ele>293.0</ele><time>2026-04-11T14:43:27.519Z</time></trkpt><trkpt lat="44.6232754" lon="7.867129"><ele>293.0</ele><time>2026-04-11T14:43:29.519Z</time></trkpt><trkpt lat="44.6233611" lon="7.8670659"><ele>293.0</ele><time>2026-04-11T14:43:31.519Z</time></trkpt><trkpt lat="44.6234475" lon="7.8670076"><ele>293.0</ele><time>2026-04-11T14:43:33.519Z</time></trkpt><trkpt lat="44.6235194" lon="7.8669518"><ele>293.0</ele><time>2026-04-11T14:43:35.518Z</time></trkpt><trkpt lat="44.6235817" lon="7.8669099"><ele>293.0</ele><time>2026-04-11T14:43:37.518Z</time></trkpt><trkpt lat="44.6236498" lon="7.8668688"><ele>293.0</ele><time>2026-04-11T14:43:39.519Z</time></trkpt><trkpt lat="44.6237204" lon="7.8668086"><ele>293.0</ele><time>2026-04-11T14:43:41.519Z</time></trkpt><trkpt lat="44.6237976" lon="7.8667494"><ele>293.0</ele><time>2026-04-11T14:43:43.519Z</time></trkpt><trkpt lat="44.6238681" lon="7.8666998"><ele>292.85714285714283</ele><time>2026-04-11T14:43:45.519Z</time></trkpt><trkpt lat="44.6239296" lon="7.8666488"><ele>292.7142857142857</ele><time>2026-04-11T14:43:47.519Z</time></trkpt><trkpt lat="44.6239881" lon="7.8665937"><ele>292.57142857142856</ele><time>2026-04-11T14:43:49.519Z</time></trkpt><trkpt lat="44.624055" lon="7.8665181"><ele>292.42857142857144</ele><time>2026-04-11T14:43:52.519Z</time></trkpt><trkpt lat="44.6241022" lon="7.8664411"><ele>292.2857142857143</ele><time>2026-04-11T14:43:55.518Z</time></trkpt><trkpt lat="44.624142" lon="7.8663525"><ele>292.1428571428571</ele><time>2026-04-11T14:43:59.518Z</time></trkpt><trkpt lat="44.6241832" lon="7.8664241"><ele>292.0</ele><time>2026-04-11T14:44:24.519Z</time></trkpt><trkpt lat="44.62422" lon="7.8664969"><ele>292.0</ele><time>2026-04-11T14:44:44.52Z</time></trkpt><trkpt lat="44.6242337" lon="7.8665856"><ele>292.0</ele><time>2026-04-11T14:44:52.52Z</time></trkpt><trkpt lat="44.624193" lon="7.8664991"><ele>292.0</ele><time>2026-04-11T14:45:31.519Z</time></trkpt><trkpt lat="44.6241349" lon="7.8664073"><ele>292.0</ele><time>2026-04-11T14:45:34.52Z</time></trkpt><trkpt lat="44.6241147" lon="7.8663232"><ele>292.0</ele><time>2026-04-11T14:45:36.519Z</time></trkpt><trkpt lat="44.6240955" lon="7.8662085"><ele>292.0</ele><time>2026-04-11T14:45:38.52Z</time></trkpt><trkpt lat="44.624068" lon="7.8661035"><ele>292.0</ele><time>2026-04-11T14:45:40.52Z</time></trkpt><trkpt lat="44.6240413" lon="7.866007"><ele>292.0</ele><time>2026-04-11T14:45:42.519Z</time></trkpt><trkpt lat="44.6240233" lon="7.8658979"><ele>292.0</ele><time>2026-04-11T14:45:45.52Z</time></trkpt><trkpt lat="44.6240176" lon="7.8657732"><ele>292.0</ele><time>2026-04-11T14:45:49.52Z</time></trkpt><trkpt lat="44.6239598" lon="7.8656625"><ele>292.0</ele><time>2026-04-11T14:45:52.52Z</time></trkpt><trkpt lat="44.6239273" lon="7.8655654"><ele>292.0</ele><time>2026-04-11T14:45:54.52Z</time></trkpt><trkpt lat="44.6239056" lon="7.8654596"><ele>292.16666666666663</ele><time>2026-04-11T14:45:56.521Z</time></trkpt><trkpt lat="44.6238983" lon="7.8653709"><ele>292.3333333333333</ele><time>2026-04-11T14:45:58.521Z</time></trkpt><trkpt lat="44.6238946" lon="7.8652548"><ele>292.5</ele><time>2026-04-11T14:46:01.521Z</time></trkpt><trkpt lat="44.6238864" lon="7.8651566"><ele>292.6666666666667</ele><time>2026-04-11T14:46:03.521Z</time></trkpt><trkpt lat="44.6239245" lon="7.8650816"><ele>292.83333333333337</ele><time>2026-04-11T14:46:05.595Z</time></trkpt><trkpt lat="44.623979" lon="7.8649767"><ele>293.0</ele><time>2026-04-11T14:46:08.521Z</time></trkpt><trkpt lat="44.6240524" lon="7.8649322"><ele>293.2</ele><time>2026-04-11T14:46:10.613Z</time></trkpt><trkpt lat="44.6241326" lon="7.8648715"><ele>293.4</ele><time>2026-04-11T14:46:12.562Z</time></trkpt><trkpt lat="44.6242107" lon="7.8648002"><ele>293.59999999999997</ele><time>2026-04-11T14:46:14.473Z</time></trkpt><trkpt lat="44.6243042" lon="7.8647209"><ele>293.8</ele><time>2026-04-11T14:46:16.521Z</time></trkpt><trkpt lat="44.6243865" lon="7.8646377"><ele>294.0</ele><time>2026-04-11T14:46:18.52Z</time></trkpt><trkpt lat="44.6244704" lon="7.8645502"><ele>293.59999999999997</ele><time>2026-04-11T14:46:20.521Z</time></trkpt><trkpt lat="44.6245517" lon="7.8644617"><ele>293.2</ele><time>2026-04-11T14:46:22.521Z</time></trkpt><trkpt lat="44.6246344" lon="7.8643727"><ele>292.79999999999995</ele><time>2026-04-11T14:46:24.52Z</time></trkpt><trkpt lat="44.6247162" lon="7.864283"><ele>292.4</ele><time>2026-04-11T14:46:26.521Z</time></trkpt><trkpt lat="44.6247963" lon="7.8642049"><ele>292.0</ele><time>2026-04-11T14:46:28.52Z</time></trkpt><trkpt lat="44.6248822" lon="7.8641282"><ele>292.0</ele><time>2026-04-11T14:46:30.52Z</time></trkpt><trkpt lat="44.6249674" lon="7.8640437"><ele>292.0</ele><time>2026-04-11T14:46:32.521Z</time></trkpt><trkpt lat="44.6250483" lon="7.8639605"><ele>292.0</ele><time>2026-04-11T14:46:34.521Z</time></trkpt><trkpt lat="44.6251363" lon="7.8638974"><ele>292.0</ele><time>2026-04-11T14:46:36.521Z</time></trkpt><trkpt lat="44.6252218" lon="7.8638579"><ele>292.0</ele><time>2026-04-11T14:46:38.52Z</time></trkpt><trkpt lat="44.6252797" lon="7.8638082"><ele>291.8333333333333</ele><time>2026-04-11T14:46:40.521Z</time></trkpt><trkpt lat="44.6253491" lon="7.8637569"><ele>291.66666666666663</ele><time>2026-04-11T14:46:43.521Z</time></trkpt><trkpt lat="44.6254027" lon="7.8636895"><ele>291.5</ele><time>2026-04-11T14:46:46.521Z</time></trkpt><trkpt lat="44.6254617" lon="7.8636219"><ele>291.3333333333333</ele><time>2026-04-11T14:46:48.521Z</time></trkpt><trkpt lat="44.6255123" lon="7.8635507"><ele>291.1666666666667</ele><time>2026-04-11T14:46:51.521Z</time></trkpt><trkpt lat="44.6255922" lon="7.8634898"><ele>291.0</ele><time>2026-04-11T14:46:54.52Z</time></trkpt><trkpt lat="44.6256613" lon="7.8634789"><ele>291.0</ele><time>2026-04-11T14:46:56.521Z</time></trkpt><trkpt lat="44.6257389" lon="7.8634897"><ele>291.0</ele><time>2026-04-11T14:46:59.521Z</time></trkpt><trkpt lat="44.6256523" lon="7.8634738"><ele>291.0</ele><time>2026-04-11T14:47:43.545Z</time></trkpt><trkpt lat="44.6255877" lon="7.8634662"><ele>291.0</ele><time>2026-04-11T14:47:45.546Z</time></trkpt><trkpt lat="44.6255239" lon="7.8634739"><ele>291.0</ele><time>2026-04-11T14:47:47.563Z</time></trkpt><trkpt lat="44.625451" lon="7.8635355"><ele>291.0</ele><time>2026-04-11T14:47:50.597Z</time></trkpt><trkpt lat="44.6253902" lon="7.8636318"><ele>291.0</ele><time>2026-04-11T14:47:53.596Z</time></trkpt><trkpt lat="44.6253392" lon="7.863723"><ele>291.0</ele><time>2026-04-11T14:47:56.531Z</time></trkpt><trkpt lat="44.6252691" lon="7.8637915"><ele>291.0</ele><time>2026-04-11T14:47:59.576Z</time></trkpt><trkpt lat="44.6251909" lon="7.8638574"><ele>291.0</ele><time>2026-04-11T14:48:02.548Z</time></trkpt><trkpt lat="44.6250983" lon="7.8638996"><ele>291.0</ele><time>2026-04-11T14:48:05.582Z</time></trkpt><trkpt lat="44.625039" lon="7.863942"><ele>291.0</ele><time>2026-04-11T14:48:07.617Z</time></trkpt><trkpt lat="44.6249692" lon="7.8640039"><ele>291.1666666666667</ele><time>2026-04-11T14:48:10.523Z</time></trkpt><trkpt lat="44.6249636" lon="7.8640923"><ele>291.3333333333333</ele><time>2026-04-11T14:48:16.521Z</time></trkpt><trkpt lat="44.6250138" lon="7.8640053"><ele>291.5</ele><time>2026-04-11T14:48:46.523Z</time></trkpt><trkpt lat="44.6250872" lon="7.8639474"><ele>291.66666666666663</ele><time>2026-04-11T14:48:49.523Z</time></trkpt><trkpt lat="44.6251523" lon="7.8639119"><ele>291.8333333333333</ele><time>2026-04-11T14:48:52.523Z</time></trkpt><trkpt lat="44.6252243" lon="7.8638556"><ele>292.0</ele><time>2026-04-11T14:48:55.522Z</time></trkpt><trkpt lat="44.6252906" lon="7.8638076"><ele>291.85714285714283</ele><time>2026-04-11T14:48:59.523Z</time></trkpt><trkpt lat="44.6253549" lon="7.8637627"><ele>291.7142857142857</ele><time>2026-04-11T14:49:03.523Z</time></trkpt><trkpt lat="44.6254041" lon="7.8636936"><ele>291.57142857142856</ele><time>2026-04-11T14:49:07.523Z</time></trkpt><trkpt lat="44.6254575" lon="7.8636287"><ele>291.42857142857144</ele><time>2026-04-11T14:49:51.588Z</time></trkpt><trkpt lat="44.6255208" lon="7.8635567"><ele>291.2857142857143</ele><time>2026-04-11T14:49:56.523Z</time></trkpt><trkpt lat="44.6255807" lon="7.8635065"><ele>291.1428571428571</ele><time>2026-04-11T14:50:01.524Z</time></trkpt><trkpt lat="44.6256503" lon="7.863471"><ele>291.0</ele><time>2026-04-11T14:50:05.541Z</time></trkpt><trkpt lat="44.6257425" lon="7.8634726"><ele>291.0</ele><time>2026-04-11T14:50:08.559Z</time></trkpt><trkpt lat="44.6258184" lon="7.8635059"><ele>291.0</ele><time>2026-04-11T14:50:10.576Z</time></trkpt><trkpt lat="44.6258986" lon="7.863535"><ele>291.0</ele><time>2026-04-11T14:50:12.576Z</time></trkpt><trkpt lat="44.6259811" lon="7.8635861"><ele>291.0</ele><time>2026-04-11T14:50:14.577Z</time></trkpt><trkpt lat="44.6260893" lon="7.8636413"><ele>291.0</ele><time>2026-04-11T14:50:16.524Z</time></trkpt><trkpt lat="44.6261876" lon="7.8636896"><ele>290.40000000000003</ele><time>2026-04-11T14:50:18.524Z</time></trkpt><trkpt lat="44.6262829" lon="7.8637279"><ele>289.8</ele><time>2026-04-11T14:50:20.524Z</time></trkpt><trkpt lat="44.6263848" lon="7.8637607"><ele>289.20000000000005</ele><time>2026-04-11T14:50:22.523Z</time></trkpt><trkpt lat="44.6264695" lon="7.8637751"><ele>288.6</ele><time>2026-04-11T14:50:24.524Z</time></trkpt><trkpt lat="44.6265523" lon="7.8637702"><ele>288.0</ele><time>2026-04-11T14:50:26.524Z</time></trkpt><trkpt lat="44.6266377" lon="7.8637385"><ele>288.0</ele><time>2026-04-11T14:50:28.524Z</time></trkpt><trkpt lat="44.6267121" lon="7.8637058"><ele>288.0</ele><time>2026-04-11T14:50:30.524Z</time></trkpt><trkpt lat="44.6267797" lon="7.8636733"><ele>288.0</ele><time>2026-04-11T14:50:32.524Z</time></trkpt><trkpt lat="44.6268468" lon="7.86364"><ele>288.0</ele><time>2026-04-11T14:50:34.524Z</time></trkpt><trkpt lat="44.6269277" lon="7.8635903"><ele>288.0</ele><time>2026-04-11T14:50:37.524Z</time></trkpt><trkpt lat="44.6270012" lon="7.8635495"><ele>288.0</ele><time>2026-04-11T14:50:39.523Z</time></trkpt><trkpt lat="44.6270698" lon="7.8634934"><ele>288.6666666666667</ele><time>2026-04-11T14:50:41.524Z</time></trkpt><trkpt lat="44.6271332" lon="7.8634398"><ele>289.3333333333333</ele><time>2026-04-11T14:50:43.523Z</time></trkpt><trkpt lat="44.6272012" lon="7.8634051"><ele>290.0</ele><time>2026-04-11T14:50:45.523Z</time></trkpt><trkpt lat="44.6272771" lon="7.863355"><ele>290.66666666666663</ele><time>2026-04-11T14:50:47.523Z</time></trkpt><trkpt lat="44.6273546" lon="7.8632997"><ele>291.3333333333333</ele><time>2026-04-11T14:50:49.524Z</time></trkpt><trkpt lat="44.6274324" lon="7.8632429"><ele>292.0</ele><time>2026-04-11T14:50:51.524Z</time></trkpt><trkpt lat="44.6275107" lon="7.8631873"><ele>292.0</ele><time>2026-04-11T14:50:53.524Z</time></trkpt><trkpt lat="44.6275973" lon="7.8631387"><ele>292.0</ele><time>2026-04-11T14:50:55.524Z</time></trkpt><trkpt lat="44.627683" lon="7.8630833"><ele>292.0</ele><time>2026-04-11T14:50:57.524Z</time></trkpt><trkpt lat="44.627781" lon="7.8630116"><ele>292.0</ele><time>2026-04-11T14:50:59.524Z</time></trkpt><trkpt lat="44.6278678" lon="7.8629404"><ele>292.0</ele><time>2026-04-11T14:51:01.525Z</time></trkpt><trkpt lat="44.6279358" lon="7.862863"><ele>292.16666666666663</ele><time>2026-04-11T14:51:03.525Z</time></trkpt><trkpt lat="44.6280143" lon="7.862801"><ele>292.3333333333333</ele><time>2026-04-11T14:51:05.525Z</time></trkpt><trkpt lat="44.628099" lon="7.8627521"><ele>292.5</ele><time>2026-04-11T14:51:07.524Z</time></trkpt><trkpt lat="44.6281815" lon="7.8626989"><ele>292.6666666666667</ele><time>2026-04-11T14:51:09.525Z</time></trkpt><trkpt lat="44.628253" lon="7.8626428"><ele>292.83333333333337</ele><time>2026-04-11T14:51:11.524Z</time></trkpt><trkpt lat="44.6283276" lon="7.8625928"><ele>293.0</ele><time>2026-04-11T14:51:13.525Z</time></trkpt><trkpt lat="44.6284098" lon="7.862552"><ele>293.0</ele><time>2026-04-11T14:51:15.525Z</time></trkpt><trkpt lat="44.6284902" lon="7.8624801"><ele>293.0</ele><time>2026-04-11T14:51:17.525Z</time></trkpt><trkpt lat="44.628564" lon="7.8624043"><ele>293.0</ele><time>2026-04-11T14:51:19.525Z</time></trkpt><trkpt lat="44.6286432" lon="7.8623385"><ele>293.0</ele><time>2026-04-11T14:51:21.525Z</time></trkpt><trkpt lat="44.6287241" lon="7.8622731"><ele>293.0</ele><time>2026-04-11T14:51:23.525Z</time></trkpt><trkpt lat="44.6288039" lon="7.8622091"><ele>292.2</ele><time>2026-04-11T14:51:25.524Z</time></trkpt><trkpt lat="44.6288838" lon="7.862148"><ele>291.4</ele><time>2026-04-11T14:51:27.525Z</time></trkpt><trkpt lat="44.6289709" lon="7.8620901"><ele>290.59999999999997</ele><time>2026-04-11T14:51:29.524Z</time></trkpt><trkpt lat="44.6290655" lon="7.8620466"><ele>289.8</ele><time>2026-04-11T14:51:31.525Z</time></trkpt><trkpt lat="44.6291665" lon="7.8620281"><ele>289.0</ele><time>2026-04-11T14:51:33.525Z</time></trkpt><trkpt lat="44.6292636" lon="7.8620154"><ele>289.0</ele><time>2026-04-11T14:51:35.525Z</time></trkpt><trkpt lat="44.6293634" lon="7.8620092"><ele>289.0</ele><time>2026-04-11T14:51:37.524Z</time></trkpt><trkpt lat="44.6294657" lon="7.8620064"><ele>289.0</ele><time>2026-04-11T14:51:39.525Z</time></trkpt><trkpt lat="44.6295673" lon="7.8620155"><ele>289.0</ele><time>2026-04-11T14:51:41.525Z</time></trkpt><trkpt lat="44.6296443" lon="7.8620298"><ele>289.0</ele><time>2026-04-11T14:51:43.525Z</time></trkpt><trkpt lat="44.6297181" lon="7.8620396"><ele>288.8333333333333</ele><time>2026-04-11T14:51:45.525Z</time></trkpt><trkpt lat="44.629815" lon="7.8620585"><ele>288.66666666666663</ele><time>2026-04-11T14:51:47.525Z</time></trkpt><trkpt lat="44.6298855" lon="7.8620963"><ele>288.5</ele><time>2026-04-11T14:51:49.524Z</time></trkpt><trkpt lat="44.6299677" lon="7.8621212"><ele>288.3333333333333</ele><time>2026-04-11T14:51:52.525Z</time></trkpt><trkpt lat="44.6300342" lon="7.8621314"><ele>288.1666666666667</ele><time>2026-04-11T14:51:54.525Z</time></trkpt><trkpt lat="44.6301326" lon="7.8621357"><ele>288.0</ele><time>2026-04-11T14:51:56.525Z</time></trkpt><trkpt lat="44.6302387" lon="7.8621432"><ele>287.6</ele><time>2026-04-11T14:51:58.524Z</time></trkpt><trkpt lat="44.6303148" lon="7.8621603"><ele>287.20000000000005</ele><time>2026-04-11T14:52:00.525Z</time></trkpt><trkpt lat="44.6304028" lon="7.8621304"><ele>286.8</ele><time>2026-04-11T14:52:03.525Z</time></trkpt><trkpt lat="44.6304987" lon="7.8621156"><ele>286.40000000000003</ele><time>2026-04-11T14:52:05.525Z</time></trkpt><trkpt lat="44.6306099" lon="7.8621055"><ele>286.0</ele><time>2026-04-11T14:52:07.525Z</time></trkpt><trkpt lat="44.6307034" lon="7.8620757"><ele>286.0</ele><time>2026-04-11T14:52:09.525Z</time></trkpt><trkpt lat="44.6307991" lon="7.8620432"><ele>286.0</ele><time>2026-04-11T14:52:11.525Z</time></trkpt><trkpt lat="44.6308965" lon="7.862013"><ele>286.0</ele><time>2026-04-11T14:52:13.526Z</time></trkpt><trkpt lat="44.6309918" lon="7.8619802"><ele>286.0</ele><time>2026-04-11T14:52:15.526Z</time></trkpt><trkpt lat="44.6310877" lon="7.861933"><ele>286.0</ele><time>2026-04-11T14:52:17.526Z</time></trkpt><trkpt lat="44.6311898" lon="7.8619049"><ele>285.8</ele><time>2026-04-11T14:52:19.526Z</time></trkpt><trkpt lat="44.6312923" lon="7.8618782"><ele>285.6</ele><time>2026-04-11T14:52:21.526Z</time></trkpt><trkpt lat="44.6313914" lon="7.8618449"><ele>285.4</ele><time>2026-04-11T14:52:23.526Z</time></trkpt><trkpt lat="44.6314987" lon="7.8618169"><ele>285.2</ele><time>2026-04-11T14:52:25.525Z</time></trkpt><trkpt lat="44.6316035" lon="7.8617983"><ele>285.0</ele><time>2026-04-11T14:52:27.526Z</time></trkpt><trkpt lat="44.6317044" lon="7.8617846"><ele>285.8</ele><time>2026-04-11T14:52:29.525Z</time></trkpt><trkpt lat="44.6318117" lon="7.8617743"><ele>286.6</ele><time>2026-04-11T14:52:31.525Z</time></trkpt><trkpt lat="44.6319184" lon="7.8617639"><ele>287.4</ele><time>2026-04-11T14:52:33.526Z</time></trkpt><trkpt lat="44.6320234" lon="7.8617661"><ele>288.2</ele><time>2026-04-11T14:52:35.526Z</time></trkpt><trkpt lat="44.6321287" lon="7.8617643"><ele>289.0</ele><time>2026-04-11T14:52:37.526Z</time></trkpt><trkpt lat="44.6322297" lon="7.8617607"><ele>289.0</ele><time>2026-04-11T14:52:39.525Z</time></trkpt><trkpt lat="44.6323351" lon="7.8617671"><ele>289.0</ele><time>2026-04-11T14:52:41.526Z</time></trkpt><trkpt lat="44.6324424" lon="7.8617825"><ele>289.0</ele><time>2026-04-11T14:52:43.526Z</time></trkpt><trkpt lat="44.6325446" lon="7.861801"><ele>289.0</ele><time>2026-04-11T14:52:45.526Z</time></trkpt><trkpt lat="44.6326376" lon="7.8617977"><ele>289.0</ele><time>2026-04-11T14:52:47.526Z</time></trkpt><trkpt lat="44.6327368" lon="7.8618095"><ele>289.0</ele><time>2026-04-11T14:52:49.526Z</time></trkpt><trkpt lat="44.6328274" lon="7.8618263"><ele>289.0</ele><time>2026-04-11T14:52:51.526Z</time></trkpt><trkpt lat="44.6329291" lon="7.8618254"><ele>289.0</ele><time>2026-04-11T14:52:53.526Z</time></trkpt><trkpt lat="44.6330229" lon="7.8618077"><ele>289.0</ele><time>2026-04-11T14:52:55.526Z</time></trkpt><trkpt lat="44.6331248" lon="7.8617706"><ele>289.0</ele><time>2026-04-11T14:52:57.526Z</time></trkpt><trkpt lat="44.6332331" lon="7.8617219"><ele>289.0</ele><time>2026-04-11T14:52:59.525Z</time></trkpt><trkpt lat="44.6333415" lon="7.8616665"><ele>289.0</ele><time>2026-04-11T14:53:01.525Z</time></trkpt><trkpt lat="44.6334477" lon="7.8616127"><ele>289.0</ele><time>2026-04-11T14:53:03.526Z</time></trkpt><trkpt lat="44.6335465" lon="7.8615675"><ele>289.0</ele><time>2026-04-11T14:53:05.526Z</time></trkpt><trkpt lat="44.6336447" lon="7.8615287"><ele>289.0</ele><time>2026-04-11T14:53:07.526Z</time></trkpt><trkpt lat="44.6337435" lon="7.8614885"><ele>288.2</ele><time>2026-04-11T14:53:09.526Z</time></trkpt><trkpt lat="44.6338419" lon="7.8614319"><ele>287.4</ele><time>2026-04-11T14:53:11.526Z</time></trkpt><trkpt lat="44.6339365" lon="7.8613941"><ele>286.6</ele><time>2026-04-11T14:53:13.526Z</time></trkpt><trkpt lat="44.6340384" lon="7.8613579"><ele>285.8</ele><time>2026-04-11T14:53:15.526Z</time></trkpt><trkpt lat="44.6341391" lon="7.8613095"><ele>285.0</ele><time>2026-04-11T14:53:17.526Z</time></trkpt><trkpt lat="44.6342355" lon="7.861261"><ele>285.0</ele><time>2026-04-11T14:53:19.526Z</time></trkpt><trkpt lat="44.634331" lon="7.8612206"><ele>285.0</ele><time>2026-04-11T14:53:21.526Z</time></trkpt><trkpt lat="44.6344259" lon="7.8611846"><ele>285.0</ele><time>2026-04-11T14:53:23.526Z</time></trkpt><trkpt lat="44.6345119" lon="7.8611313"><ele>285.0</ele><time>2026-04-11T14:53:25.526Z</time></trkpt><trkpt lat="44.6346026" lon="7.861075"><ele>285.0</ele><time>2026-04-11T14:53:27.526Z</time></trkpt><trkpt lat="44.6346901" lon="7.8610192"><ele>285.6</ele><time>2026-04-11T14:53:29.527Z</time></trkpt><trkpt lat="44.6347842" lon="7.8609365"><ele>286.2</ele><time>2026-04-11T14:53:31.527Z</time></trkpt><trkpt lat="44.6348687" lon="7.8608383"><ele>286.8</ele><time>2026-04-11T14:53:33.526Z</time></trkpt><trkpt lat="44.6349303" lon="7.8607362"><ele>287.4</ele><time>2026-04-11T14:53:35.527Z</time></trkpt><trkpt lat="44.6349951" lon="7.8606473"><ele>288.0</ele><time>2026-04-11T14:53:37.527Z</time></trkpt><trkpt lat="44.6350623" lon="7.8605456"><ele>288.0</ele><time>2026-04-11T14:53:39.527Z</time></trkpt><trkpt lat="44.6351262" lon="7.8604526"><ele>288.0</ele><time>2026-04-11T14:53:41.527Z</time></trkpt><trkpt lat="44.6351943" lon="7.8603794"><ele>288.0</ele><time>2026-04-11T14:53:43.527Z</time></trkpt><trkpt lat="44.6352824" lon="7.8602839"><ele>288.0</ele><time>2026-04-11T14:53:45.526Z</time></trkpt><trkpt lat="44.6353539" lon="7.8601752"><ele>288.0</ele><time>2026-04-11T14:53:47.527Z</time></trkpt><trkpt lat="44.6354152" lon="7.8600683"><ele>287.8</ele><time>2026-04-11T14:53:49.527Z</time></trkpt><trkpt lat="44.6354819" lon="7.8599443"><ele>287.6</ele><time>2026-04-11T14:53:51.526Z</time></trkpt><trkpt lat="44.6355348" lon="7.8598177"><ele>287.4</ele><time>2026-04-11T14:53:53.527Z</time></trkpt><trkpt lat="44.6356019" lon="7.8597119"><ele>287.2</ele><time>2026-04-11T14:53:55.527Z</time></trkpt><trkpt lat="44.6356961" lon="7.8596289"><ele>287.0</ele><time>2026-04-11T14:53:57.527Z</time></trkpt><trkpt lat="44.6358018" lon="7.8595804"><ele>287.0</ele><time>2026-04-11T14:53:59.527Z</time></trkpt><trkpt lat="44.6359084" lon="7.8595745"><ele>287.0</ele><time>2026-04-11T14:54:01.527Z</time></trkpt><trkpt lat="44.6360083" lon="7.8595856"><ele>287.0</ele><time>2026-04-11T14:54:03.527Z</time></trkpt><trkpt lat="44.6361064" lon="7.8596087"><ele>287.0</ele><time>2026-04-11T14:54:05.527Z</time></trkpt><trkpt lat="44.6362017" lon="7.8596507"><ele>287.0</ele><time>2026-04-11T14:54:07.526Z</time></trkpt><trkpt lat="44.6362994" lon="7.8596956"><ele>286.8</ele><time>2026-04-11T14:54:09.527Z</time></trkpt><trkpt lat="44.6364001" lon="7.8597395"><ele>286.6</ele><time>2026-04-11T14:54:11.527Z</time></trkpt><trkpt lat="44.6364954" lon="7.8597853"><ele>286.40000000000003</ele><time>2026-04-11T14:54:13.527Z</time></trkpt><trkpt lat="44.636594" lon="7.8598135"><ele>286.2</ele><time>2026-04-11T14:54:15.527Z</time></trkpt><trkpt lat="44.6367007" lon="7.8598389"><ele>286.0</ele><time>2026-04-11T14:54:17.527Z</time></trkpt><trkpt lat="44.6368066" lon="7.8598721"><ele>286.0</ele><time>2026-04-11T14:54:19.527Z</time></trkpt><trkpt lat="44.6369047" lon="7.8599017"><ele>286.0</ele><time>2026-04-11T14:54:21.527Z</time></trkpt><trkpt lat="44.6370003" lon="7.8599109"><ele>286.0</ele><time>2026-04-11T14:54:23.527Z</time></trkpt><trkpt lat="44.6371007" lon="7.8599138"><ele>286.0</ele><time>2026-04-11T14:54:25.527Z</time></trkpt><trkpt lat="44.6371962" lon="7.8599297"><ele>286.0</ele><time>2026-04-11T14:54:27.527Z</time></trkpt><trkpt lat="44.6372882" lon="7.8599702"><ele>286.40000000000003</ele><time>2026-04-11T14:54:29.526Z</time></trkpt><trkpt lat="44.6373816" lon="7.8599864"><ele>286.8</ele><time>2026-04-11T14:54:31.527Z</time></trkpt><trkpt lat="44.6374808" lon="7.8600016"><ele>287.20000000000005</ele><time>2026-04-11T14:54:33.527Z</time></trkpt><trkpt lat="44.6375824" lon="7.8600096"><ele>287.6</ele><time>2026-04-11T14:54:35.527Z</time></trkpt><trkpt lat="44.6376796" lon="7.860018"><ele>288.0</ele><time>2026-04-11T14:54:37.527Z</time></trkpt><trkpt lat="44.6377767" lon="7.8600211"><ele>287.8</ele><time>2026-04-11T14:54:39.527Z</time></trkpt><trkpt lat="44.6378811" lon="7.8600214"><ele>287.6</ele><time>2026-04-11T14:54:41.527Z</time></trkpt><trkpt lat="44.6379856" lon="7.8600253"><ele>287.4</ele><time>2026-04-11T14:54:43.529Z</time></trkpt><trkpt lat="44.6380851" lon="7.8600229"><ele>287.2</ele><time>2026-04-11T14:54:45.528Z</time></trkpt><trkpt lat="44.6381877" lon="7.8600138"><ele>287.0</ele><time>2026-04-11T14:54:47.528Z</time></trkpt><trkpt lat="44.6382705" lon="7.8600145"><ele>287.0</ele><time>2026-04-11T14:54:49.528Z</time></trkpt><trkpt lat="44.6383458" lon="7.8600049"><ele>287.0</ele><time>2026-04-11T14:54:51.528Z</time></trkpt><trkpt lat="44.6384206" lon="7.8600024"><ele>287.0</ele><time>2026-04-11T14:54:53.527Z</time></trkpt><trkpt lat="44.6384991" lon="7.860004"><ele>287.0</ele><time>2026-04-11T14:54:55.528Z</time></trkpt><trkpt lat="44.6385896" lon="7.859999"><ele>287.0</ele><time>2026-04-11T14:54:57.528Z</time></trkpt><trkpt lat="44.6386824" lon="7.8599843"><ele>287.0</ele><time>2026-04-11T14:54:59.528Z</time></trkpt><trkpt lat="44.6387741" lon="7.8599574"><ele>286.83333333333337</ele><time>2026-04-11T14:55:01.562Z</time></trkpt><trkpt lat="44.6388554" lon="7.8599564"><ele>286.6666666666667</ele><time>2026-04-11T14:55:03.53Z</time></trkpt><trkpt lat="44.6389381" lon="7.8599491"><ele>286.5</ele><time>2026-04-11T14:55:05.511Z</time></trkpt><trkpt lat="44.6390233" lon="7.8599353"><ele>286.3333333333333</ele><time>2026-04-11T14:55:07.547Z</time></trkpt><trkpt lat="44.6391112" lon="7.859936"><ele>286.16666666666663</ele><time>2026-04-11T14:55:09.564Z</time></trkpt><trkpt lat="44.6392042" lon="7.8599347"><ele>286.0</ele><time>2026-04-11T14:55:11.565Z</time></trkpt><trkpt lat="44.6392954" lon="7.8599643"><ele>286.0</ele><time>2026-04-11T14:55:13.638Z</time></trkpt><trkpt lat="44.6393689" lon="7.8599616"><ele>286.0</ele><time>2026-04-11T14:55:15.582Z</time></trkpt><trkpt lat="44.6394535" lon="7.8599123"><ele>286.0</ele><time>2026-04-11T14:55:17.613Z</time></trkpt><trkpt lat="44.6395384" lon="7.859899"><ele>286.0</ele><time>2026-04-11T14:55:19.633Z</time></trkpt><trkpt lat="44.6396249" lon="7.8598921"><ele>286.0</ele><time>2026-04-11T14:55:21.514Z</time></trkpt><trkpt lat="44.6397186" lon="7.8598682"><ele>286.0</ele><time>2026-04-11T14:55:23.614Z</time></trkpt><trkpt lat="44.63981" lon="7.8598438"><ele>286.0</ele><time>2026-04-11T14:55:25.528Z</time></trkpt><trkpt lat="44.6398977" lon="7.8598333"><ele>286.0</ele><time>2026-04-11T14:55:27.528Z</time></trkpt><trkpt lat="44.6399842" lon="7.8598428"><ele>286.0</ele><time>2026-04-11T14:55:29.528Z</time></trkpt><trkpt lat="44.6400748" lon="7.8598415"><ele>286.0</ele><time>2026-04-11T14:55:31.527Z</time></trkpt><trkpt lat="44.6401686" lon="7.8598427"><ele>286.0</ele><time>2026-04-11T14:55:33.528Z</time></trkpt><trkpt lat="44.6402717" lon="7.8598559"><ele>285.8</ele><time>2026-04-11T14:55:35.528Z</time></trkpt><trkpt lat="44.6403661" lon="7.8598763"><ele>285.6</ele><time>2026-04-11T14:55:37.528Z</time></trkpt><trkpt lat="44.640461" lon="7.8598949"><ele>285.4</ele><time>2026-04-11T14:55:39.528Z</time></trkpt><trkpt lat="44.640556" lon="7.8599005"><ele>285.2</ele><time>2026-04-11T14:55:41.528Z</time></trkpt><trkpt lat="44.6406512" lon="7.8598993"><ele>285.0</ele><time>2026-04-11T14:55:43.528Z</time></trkpt><trkpt lat="44.6407474" lon="7.8599168"><ele>285.0</ele><time>2026-04-11T14:55:45.527Z</time></trkpt><trkpt lat="44.6408397" lon="7.8599447"><ele>285.0</ele><time>2026-04-11T14:55:47.528Z</time></trkpt><trkpt lat="44.6409315" lon="7.8599748"><ele>285.0</ele><time>2026-04-11T14:55:49.528Z</time></trkpt><trkpt lat="44.6410223" lon="7.8600026"><ele>285.0</ele><time>2026-04-11T14:55:51.528Z</time></trkpt><trkpt lat="44.6411138" lon="7.8600742"><ele>285.0</ele><time>2026-04-11T14:55:53.528Z</time></trkpt><trkpt lat="44.6412017" lon="7.8601339"><ele>284.0</ele><time>2026-04-11T14:55:55.528Z</time></trkpt><trkpt lat="44.6412838" lon="7.860183"><ele>283.0</ele><time>2026-04-11T14:55:57.528Z</time></trkpt><trkpt lat="44.6413536" lon="7.8602447"><ele>282.0</ele><time>2026-04-11T14:55:59.528Z</time></trkpt><trkpt lat="44.6414242" lon="7.8603196"><ele>281.0</ele><time>2026-04-11T14:56:01.529Z</time></trkpt><trkpt lat="44.6415149" lon="7.8603689"><ele>280.0</ele><time>2026-04-11T14:56:03.528Z</time></trkpt><trkpt lat="44.6416194" lon="7.8603954"><ele>280.0</ele><time>2026-04-11T14:56:05.529Z</time></trkpt><trkpt lat="44.6417198" lon="7.8604059"><ele>280.0</ele><time>2026-04-11T14:56:07.529Z</time></trkpt><trkpt lat="44.6418049" lon="7.8604193"><ele>280.0</ele><time>2026-04-11T14:56:09.529Z</time></trkpt><trkpt lat="44.6418928" lon="7.8604301"><ele>280.0</ele><time>2026-04-11T14:56:11.528Z</time></trkpt><trkpt lat="44.6419851" lon="7.8604444"><ele>280.0</ele><time>2026-04-11T14:56:13.529Z</time></trkpt><trkpt lat="44.6420801" lon="7.8604599"><ele>280.6</ele><time>2026-04-11T14:56:15.528Z</time></trkpt><trkpt lat="44.6421756" lon="7.8604724"><ele>281.2</ele><time>2026-04-11T14:56:17.529Z</time></trkpt><trkpt lat="44.6422758" lon="7.8604841"><ele>281.8</ele><time>2026-04-11T14:56:19.529Z</time></trkpt><trkpt lat="44.6423762" lon="7.8604938"><ele>282.4</ele><time>2026-04-11T14:56:21.529Z</time></trkpt><trkpt lat="44.6424669" lon="7.8605023"><ele>283.0</ele><time>2026-04-11T14:56:23.529Z</time></trkpt><trkpt lat="44.6425415" lon="7.8605184"><ele>283.0</ele><time>2026-04-11T14:56:25.528Z</time></trkpt><trkpt lat="44.6426106" lon="7.8605349"><ele>283.0</ele><time>2026-04-11T14:56:27.529Z</time></trkpt><trkpt lat="44.6426733" lon="7.8605613"><ele>283.0</ele><time>2026-04-11T14:56:29.529Z</time></trkpt><trkpt lat="44.6427398" lon="7.8605647"><ele>283.0</ele><time>2026-04-11T14:56:31.529Z</time></trkpt><trkpt lat="44.6427246" lon="7.8606535"><ele>283.0</ele><time>2026-04-11T14:56:54.529Z</time></trkpt><trkpt lat="44.6427604" lon="7.8607445"><ele>283.0</ele><time>2026-04-11T14:56:57.529Z</time></trkpt><trkpt lat="44.6428394" lon="7.8608192"><ele>283.0</ele><time>2026-04-11T14:57:00.529Z</time></trkpt><trkpt lat="44.642898" lon="7.8608935"><ele>282.6</ele><time>2026-04-11T14:57:02.528Z</time></trkpt><trkpt lat="44.6429686" lon="7.8609499"><ele>282.20000000000005</ele><time>2026-04-11T14:57:04.53Z</time></trkpt><trkpt lat="44.6430554" lon="7.8610144"><ele>281.8</ele><time>2026-04-11T14:57:06.528Z</time></trkpt><trkpt lat="44.6431377" lon="7.86108"><ele>281.40000000000003</ele><time>2026-04-11T14:57:08.529Z</time></trkpt><trkpt lat="44.6432227" lon="7.8611519"><ele>281.0</ele><time>2026-04-11T14:57:10.528Z</time></trkpt><trkpt lat="44.6433113" lon="7.8611903"><ele>281.0</ele><time>2026-04-11T14:57:12.53Z</time></trkpt><trkpt lat="44.6434104" lon="7.8612058"><ele>281.0</ele><time>2026-04-11T14:57:14.53Z</time></trkpt><trkpt lat="44.6435014" lon="7.8612196"><ele>281.0</ele><time>2026-04-11T14:57:16.53Z</time></trkpt><trkpt lat="44.6435861" lon="7.8612382"><ele>281.0</ele><time>2026-04-11T14:57:18.529Z</time></trkpt><trkpt lat="44.6436769" lon="7.8612665"><ele>281.0</ele><time>2026-04-11T14:57:20.53Z</time></trkpt><trkpt lat="44.6437845" lon="7.8613175"><ele>281.8</ele><time>2026-04-11T14:57:22.53Z</time></trkpt><trkpt lat="44.6438879" lon="7.8613874"><ele>282.6</ele><time>2026-04-11T14:57:24.529Z</time></trkpt><trkpt lat="44.6439656" lon="7.8614569"><ele>283.4</ele><time>2026-04-11T14:57:26.53Z</time></trkpt><trkpt lat="44.6440503" lon="7.8615205"><ele>284.2</ele><time>2026-04-11T14:57:28.53Z</time></trkpt><trkpt lat="44.644136" lon="7.8615947"><ele>285.0</ele><time>2026-04-11T14:57:30.53Z</time></trkpt><trkpt lat="44.6442229" lon="7.8616619"><ele>285.0</ele><time>2026-04-11T14:57:32.53Z</time></trkpt><trkpt lat="44.6443097" lon="7.8617157"><ele>285.0</ele><time>2026-04-11T14:57:34.529Z</time></trkpt><trkpt lat="44.6444076" lon="7.8617787"><ele>285.0</ele><time>2026-04-11T14:57:36.53Z</time></trkpt><trkpt lat="44.6445043" lon="7.8618237"><ele>285.0</ele><time>2026-04-11T14:57:38.53Z</time></trkpt><trkpt lat="44.644613" lon="7.8618606"><ele>285.0</ele><time>2026-04-11T14:57:40.53Z</time></trkpt><trkpt lat="44.6447144" lon="7.8618887"><ele>283.4</ele><time>2026-04-11T14:57:42.53Z</time></trkpt><trkpt lat="44.644817" lon="7.861906"><ele>281.8</ele><time>2026-04-11T14:57:44.529Z</time></trkpt><trkpt lat="44.6449155" lon="7.8619204"><ele>280.2</ele><time>2026-04-11T14:57:46.53Z</time></trkpt><trkpt lat="44.645008" lon="7.8619643"><ele>278.6</ele><time>2026-04-11T14:57:48.53Z</time></trkpt><trkpt lat="44.6450944" lon="7.861999"><ele>277.0</ele><time>2026-04-11T14:57:50.529Z</time></trkpt><trkpt lat="44.645192" lon="7.8620152"><ele>277.0</ele><time>2026-04-11T14:57:52.53Z</time></trkpt><trkpt lat="44.64529" lon="7.8620117"><ele>277.0</ele><time>2026-04-11T14:57:54.53Z</time></trkpt><trkpt lat="44.6453551" lon="7.8619952"><ele>277.0</ele><time>2026-04-11T14:57:55.53Z</time></trkpt><trkpt lat="44.6454343" lon="7.8619755"><ele>277.0</ele><time>2026-04-11T14:57:57.53Z</time></trkpt><trkpt lat="44.6455199" lon="7.8619637"><ele>277.0</ele><time>2026-04-11T14:57:59.53Z</time></trkpt><trkpt lat="44.6456009" lon="7.8619753"><ele>277.0</ele><time>2026-04-11T14:58:01.53Z</time></trkpt><trkpt lat="44.6456708" lon="7.8619837"><ele>277.0</ele><time>2026-04-11T14:58:03.53Z</time></trkpt><trkpt lat="44.6457561" lon="7.8619884"><ele>277.0</ele><time>2026-04-11T14:58:05.529Z</time></trkpt><trkpt lat="44.6458491" lon="7.8619977"><ele>277.0</ele><time>2026-04-11T14:58:07.529Z</time></trkpt><trkpt lat="44.6459415" lon="7.8620021"><ele>277.0</ele><time>2026-04-11T14:58:09.53Z</time></trkpt><trkpt lat="44.6460361" lon="7.8620065"><ele>277.0</ele><time>2026-04-11T14:58:11.53Z</time></trkpt><trkpt lat="44.6461292" lon="7.8620269"><ele>276.16666666666663</ele><time>2026-04-11T14:58:13.53Z</time></trkpt><trkpt lat="44.6462181" lon="7.8620297"><ele>275.3333333333333</ele><time>2026-04-11T14:58:15.53Z</time></trkpt><trkpt lat="44.646314" lon="7.8620082"><ele>274.5</ele><time>2026-04-11T14:58:17.53Z</time></trkpt><trkpt lat="44.6463954" lon="7.8619803"><ele>273.6666666666667</ele><time>2026-04-11T14:58:19.529Z</time></trkpt><trkpt lat="44.6464762" lon="7.8619377"><ele>272.83333333333337</ele><time>2026-04-11T14:58:21.53Z</time></trkpt><trkpt lat="44.6465566" lon="7.8619127"><ele>272.0</ele><time>2026-04-11T14:58:23.53Z</time></trkpt><trkpt lat="44.6466418" lon="7.8618848"><ele>272.0</ele><time>2026-04-11T14:58:25.53Z</time></trkpt><trkpt lat="44.6467305" lon="7.8618447"><ele>272.0</ele><time>2026-04-11T14:58:27.531Z</time></trkpt><trkpt lat="44.6467979" lon="7.8618168"><ele>272.0</ele><time>2026-04-11T14:58:29.53Z</time></trkpt><trkpt lat="44.6468832" lon="7.8617965"><ele>272.0</ele><time>2026-04-11T14:58:31.53Z</time></trkpt><trkpt lat="44.6469809" lon="7.861776"><ele>272.0</ele><time>2026-04-11T14:58:33.53Z</time></trkpt><trkpt lat="44.6470725" lon="7.8617617"><ele>272.0</ele><time>2026-04-11T14:58:35.53Z</time></trkpt><trkpt lat="44.6471678" lon="7.8617499"><ele>275.2</ele><time>2026-04-11T14:58:37.531Z</time></trkpt><trkpt lat="44.6472745" lon="7.8617538"><ele>278.4</ele><time>2026-04-11T14:58:39.531Z</time></trkpt><trkpt lat="44.6473757" lon="7.8617631"><ele>281.6</ele><time>2026-04-11T14:58:41.531Z</time></trkpt><trkpt lat="44.6474753" lon="7.8617512"><ele>284.8</ele><time>2026-04-11T14:58:43.531Z</time></trkpt><trkpt lat="44.6475661" lon="7.8617238"><ele>288.0</ele><time>2026-04-11T14:58:45.531Z</time></trkpt><trkpt lat="44.6476459" lon="7.8616566"><ele>288.0</ele><time>2026-04-11T14:58:47.531Z</time></trkpt><trkpt lat="44.6477019" lon="7.8615653"><ele>288.0</ele><time>2026-04-11T14:58:49.531Z</time></trkpt><trkpt lat="44.6477462" lon="7.8614827"><ele>288.0</ele><time>2026-04-11T14:58:51.531Z</time></trkpt><trkpt lat="44.6477788" lon="7.8613988"><ele>288.0</ele><time>2026-04-11T14:58:53.531Z</time></trkpt><trkpt lat="44.6478302" lon="7.861297"><ele>288.0</ele><time>2026-04-11T14:58:56.531Z</time></trkpt><trkpt lat="44.6478864" lon="7.8612425"><ele>288.0</ele><time>2026-04-11T14:58:59.53Z</time></trkpt><trkpt lat="44.6479739" lon="7.8612321"><ele>287.8333333333333</ele><time>2026-04-11T15:01:02.552Z</time></trkpt><trkpt lat="44.6480536" lon="7.8612264"><ele>287.6666666666667</ele><time>2026-04-11T15:01:05.553Z</time></trkpt><trkpt lat="44.6481317" lon="7.8612221"><ele>287.5</ele><time>2026-04-11T15:01:07.553Z</time></trkpt><trkpt lat="44.648215" lon="7.8612123"><ele>287.33333333333337</ele><time>2026-04-11T15:01:09.554Z</time></trkpt><trkpt lat="44.6483025" lon="7.8612011"><ele>287.1666666666667</ele><time>2026-04-11T15:01:11.571Z</time></trkpt><trkpt lat="44.6483911" lon="7.8611865"><ele>287.0</ele><time>2026-04-11T15:01:13.572Z</time></trkpt><trkpt lat="44.6484795" lon="7.8611817"><ele>287.0</ele><time>2026-04-11T15:01:15.589Z</time></trkpt><trkpt lat="44.6485639" lon="7.8611879"><ele>287.0</ele><time>2026-04-11T15:01:17.492Z</time></trkpt><trkpt lat="44.6486653" lon="7.861192"><ele>287.0</ele><time>2026-04-11T15:01:19.532Z</time></trkpt><trkpt lat="44.6487594" lon="7.8611893"><ele>287.0</ele><time>2026-04-11T15:01:21.54Z</time></trkpt><trkpt lat="44.6488474" lon="7.8611921"><ele>287.0</ele><time>2026-04-11T15:01:23.558Z</time></trkpt><trkpt lat="44.648935" lon="7.8611871"><ele>287.6666666666667</ele><time>2026-04-11T15:01:25.557Z</time></trkpt><trkpt lat="44.6490208" lon="7.8611858"><ele>288.33333333333337</ele><time>2026-04-11T15:01:27.559Z</time></trkpt><trkpt lat="44.6491053" lon="7.861191"><ele>289.0</ele><time>2026-04-11T15:01:30.559Z</time></trkpt><trkpt lat="44.6491692" lon="7.8612058"><ele>289.6666666666667</ele><time>2026-04-11T15:02:02.535Z</time></trkpt><trkpt lat="44.6492564" lon="7.8612059"><ele>290.3333333333333</ele><time>2026-04-11T15:02:05.479Z</time></trkpt><trkpt lat="44.6493258" lon="7.8612076"><ele>291.0</ele><time>2026-04-11T15:02:07.585Z</time></trkpt><trkpt lat="44.6493985" lon="7.8611935"><ele>291.3333333333333</ele><time>2026-04-11T15:02:09.62Z</time></trkpt><trkpt lat="44.6494689" lon="7.8611761"><ele>291.6666666666667</ele><time>2026-04-11T15:02:11.553Z</time></trkpt><trkpt lat="44.649536" lon="7.8611495"><ele>292.0</ele><time>2026-04-11T15:02:13.57Z</time></trkpt><trkpt lat="44.649607" lon="7.8610947"><ele>292.33333333333337</ele><time>2026-04-11T15:02:16.567Z</time></trkpt><trkpt lat="44.6496909" lon="7.86108"><ele>292.6666666666667</ele><time>2026-04-11T15:02:19.573Z</time></trkpt><trkpt lat="44.6497576" lon="7.8610765"><ele>293.0</ele><time>2026-04-11T15:02:21.573Z</time></trkpt><trkpt lat="44.649841" lon="7.8610681"><ele>293.0</ele><time>2026-04-11T15:02:23.573Z</time></trkpt><trkpt lat="44.6499276" lon="7.8610661"><ele>293.0</ele><time>2026-04-11T15:02:25.607Z</time></trkpt><trkpt lat="44.6500042" lon="7.8610539"><ele>293.0</ele><time>2026-04-11T15:02:27.608Z</time></trkpt><trkpt lat="44.6500771" lon="7.8610144"><ele>293.0</ele><time>2026-04-11T15:02:29.609Z</time></trkpt><trkpt lat="44.650174" lon="7.8610354"><ele>293.0</ele><time>2026-04-11T15:02:31.609Z</time></trkpt><trkpt lat="44.650254" lon="7.8610481"><ele>293.0</ele><time>2026-04-11T15:02:33.61Z</time></trkpt><trkpt lat="44.6503196" lon="7.8610613"><ele>292.6666666666667</ele><time>2026-04-11T15:02:36.544Z</time></trkpt><trkpt lat="44.6503838" lon="7.8610072"><ele>292.33333333333337</ele><time>2026-04-11T15:02:40.629Z</time></trkpt><trkpt lat="44.65042" lon="7.860897"><ele>292.0</ele><time>2026-04-11T15:02:43.563Z</time></trkpt><trkpt lat="44.6504106" lon="7.8607844"><ele>291.6666666666667</ele><time>2026-04-11T15:02:45.596Z</time></trkpt><trkpt lat="44.6503938" lon="7.8606561"><ele>291.3333333333333</ele><time>2026-04-11T15:02:47.534Z</time></trkpt><trkpt lat="44.6503835" lon="7.8605326"><ele>291.0</ele><time>2026-04-11T15:02:49.547Z</time></trkpt><trkpt lat="44.6503756" lon="7.8603969"><ele>291.0</ele><time>2026-04-11T15:02:51.598Z</time></trkpt><trkpt lat="44.6503731" lon="7.8602686"><ele>291.0</ele><time>2026-04-11T15:02:53.565Z</time></trkpt><trkpt lat="44.6503785" lon="7.8601356"><ele>291.0</ele><time>2026-04-11T15:02:55.632Z</time></trkpt><trkpt lat="44.65038" lon="7.8599728"><ele>291.0</ele><time>2026-04-11T15:02:57.534Z</time></trkpt><trkpt lat="44.6503821" lon="7.859846"><ele>291.0</ele><time>2026-04-11T15:02:59.534Z</time></trkpt><trkpt lat="44.6503833" lon="7.8597229"><ele>291.2</ele><time>2026-04-11T15:03:01.535Z</time></trkpt><trkpt lat="44.6503735" lon="7.8595947"><ele>291.40000000000003</ele><time>2026-04-11T15:03:03.533Z</time></trkpt><trkpt lat="44.6503663" lon="7.8594624"><ele>291.6</ele><time>2026-04-11T15:03:05.534Z</time></trkpt><trkpt lat="44.6503661" lon="7.8593418"><ele>291.8</ele><time>2026-04-11T15:03:07.534Z</time></trkpt><trkpt lat="44.6503609" lon="7.8592037"><ele>292.0</ele><time>2026-04-11T15:03:09.534Z</time></trkpt><trkpt lat="44.6503436" lon="7.8590512"><ele>292.0</ele><time>2026-04-11T15:03:11.535Z</time></trkpt><trkpt lat="44.6503415" lon="7.8589327"><ele>292.0</ele><time>2026-04-11T15:03:13.533Z</time></trkpt><trkpt lat="44.6503695" lon="7.8588254"><ele>292.0</ele><time>2026-04-11T15:03:15.535Z</time></trkpt><trkpt lat="44.6503979" lon="7.8587083"><ele>292.0</ele><time>2026-04-11T15:03:17.533Z</time></trkpt><trkpt lat="44.6504062" lon="7.8586105"><ele>292.0</ele><time>2026-04-11T15:03:19.534Z</time></trkpt><trkpt lat="44.6504086" lon="7.8584771"><ele>292.0</ele><time>2026-04-11T15:03:22.534Z</time></trkpt><trkpt lat="44.6504372" lon="7.8583861"><ele>292.0</ele><time>2026-04-11T15:03:25.534Z</time></trkpt><trkpt lat="44.6503804" lon="7.8583134"><ele>292.0</ele><time>2026-04-11T15:03:40.534Z</time></trkpt><trkpt lat="44.6503508" lon="7.8582338"><ele>292.0</ele><time>2026-04-11T15:03:42.534Z</time></trkpt><trkpt lat="44.6503079" lon="7.8581601"><ele>292.0</ele><time>2026-04-11T15:03:47.535Z</time></trkpt><trkpt lat="44.6502096" lon="7.8581641"><ele>292.0</ele><time>2026-04-11T15:04:04.535Z</time></trkpt><trkpt lat="44.6501332" lon="7.8581706"><ele>292.0</ele><time>2026-04-11T15:04:06.535Z</time></trkpt><trkpt lat="44.6500556" lon="7.8581887"><ele>292.0</ele><time>2026-04-11T15:04:10.535Z</time></trkpt><trkpt lat="44.6499933" lon="7.8582135"><ele>292.0</ele><time>2026-04-11T15:04:14.534Z</time></trkpt><trkpt lat="44.6499288" lon="7.8582401"><ele>292.0</ele><time>2026-04-11T15:04:41.535Z</time></trkpt><trkpt lat="44.6499691" lon="7.8581562"><ele>292.0</ele><time>2026-04-11T15:05:25.536Z</time></trkpt><trkpt lat="44.65006" lon="7.8581435"><ele>292.0</ele><time>2026-04-11T15:05:30.536Z</time></trkpt><trkpt lat="44.6501251" lon="7.8581506"><ele>292.0</ele><time>2026-04-11T15:05:32.536Z</time></trkpt><trkpt lat="44.6502001" lon="7.8581332"><ele>292.0</ele><time>2026-04-11T15:05:35.536Z</time></trkpt><trkpt lat="44.6502933" lon="7.8581469"><ele>292.3333333333333</ele><time>2026-04-11T15:05:38.536Z</time></trkpt><trkpt lat="44.6503626" lon="7.8581635"><ele>292.66666666666663</ele><time>2026-04-11T15:05:40.536Z</time></trkpt><trkpt lat="44.6504533" lon="7.8581684"><ele>293.0</ele><time>2026-04-11T15:05:42.536Z</time></trkpt><trkpt lat="44.6505366" lon="7.858171"><ele>293.3333333333333</ele><time>2026-04-11T15:05:44.535Z</time></trkpt><trkpt lat="44.6506158" lon="7.8581773"><ele>293.6666666666667</ele><time>2026-04-11T15:05:46.536Z</time></trkpt><trkpt lat="44.6507016" lon="7.8581757"><ele>294.0</ele><time>2026-04-11T15:05:48.536Z</time></trkpt><trkpt lat="44.6507814" lon="7.8581542"><ele>294.0</ele><time>2026-04-11T15:05:50.536Z</time></trkpt><trkpt lat="44.6508715" lon="7.8581334"><ele>294.0</ele><time>2026-04-11T15:05:52.535Z</time></trkpt><trkpt lat="44.6509512" lon="7.8581155"><ele>294.0</ele><time>2026-04-11T15:05:54.536Z</time></trkpt><trkpt lat="44.6510433" lon="7.8581221"><ele>294.0</ele><time>2026-04-11T15:05:56.536Z</time></trkpt><trkpt lat="44.6511308" lon="7.8581224"><ele>294.0</ele><time>2026-04-11T15:05:58.535Z</time></trkpt><trkpt lat="44.6512228" lon="7.8581067"><ele>294.0</ele><time>2026-04-11T15:06:00.536Z</time></trkpt><trkpt lat="44.6513052" lon="7.8580899"><ele>293.85714285714283</ele><time>2026-04-11T15:06:02.536Z</time></trkpt><trkpt lat="44.6513678" lon="7.8580792"><ele>293.7142857142857</ele><time>2026-04-11T15:06:04.536Z</time></trkpt><trkpt lat="44.6514345" lon="7.8580694"><ele>293.57142857142856</ele><time>2026-04-11T15:06:06.536Z</time></trkpt><trkpt lat="44.651508" lon="7.8580534"><ele>293.42857142857144</ele><time>2026-04-11T15:06:08.537Z</time></trkpt><trkpt lat="44.6515865" lon="7.8580416"><ele>293.2857142857143</ele><time>2026-04-11T15:06:10.537Z</time></trkpt><trkpt lat="44.6516567" lon="7.858031"><ele>293.1428571428571</ele><time>2026-04-11T15:06:12.537Z</time></trkpt><trkpt lat="44.6517303" lon="7.8580268"><ele>293.0</ele><time>2026-04-11T15:06:14.537Z</time></trkpt><trkpt lat="44.6518099" lon="7.8580154"><ele>293.0</ele><time>2026-04-11T15:06:16.537Z</time></trkpt><trkpt lat="44.6518834" lon="7.8579896"><ele>293.0</ele><time>2026-04-11T15:06:18.537Z</time></trkpt><trkpt lat="44.6519662" lon="7.8579751"><ele>293.0</ele><time>2026-04-11T15:06:21.536Z</time></trkpt><trkpt lat="44.6520304" lon="7.8580379"><ele>293.0</ele><time>2026-04-11T15:06:25.536Z</time></trkpt><trkpt lat="44.6520638" lon="7.8581185"><ele>293.0</ele><time>2026-04-11T15:06:29.536Z</time></trkpt><trkpt lat="44.6521327" lon="7.8581266"><ele>293.0</ele><time>2026-04-11T15:07:19.537Z</time></trkpt><trkpt lat="44.6522102" lon="7.8581156"><ele>293.0</ele><time>2026-04-11T15:07:22.537Z</time></trkpt><trkpt lat="44.6522939" lon="7.858102"><ele>293.0</ele><time>2026-04-11T15:07:25.537Z</time></trkpt><trkpt lat="44.6523626" lon="7.8581112"><ele>293.0</ele><time>2026-04-11T15:07:28.538Z</time></trkpt><trkpt lat="44.6524433" lon="7.8580846"><ele>293.0</ele><time>2026-04-11T15:07:32.538Z</time></trkpt><trkpt lat="44.6525311" lon="7.8580507"><ele>293.0</ele><time>2026-04-11T15:07:34.538Z</time></trkpt><trkpt lat="44.6526052" lon="7.8580288"><ele>293.0</ele><time>2026-04-11T15:07:36.538Z</time></trkpt><trkpt lat="44.6526853" lon="7.8580164"><ele>293.0</ele><time>2026-04-11T15:07:39.538Z</time></trkpt><trkpt lat="44.6527581" lon="7.8579956"><ele>293.0</ele><time>2026-04-11T15:07:41.538Z</time></trkpt><trkpt lat="44.6528215" lon="7.8579794"><ele>293.0</ele><time>2026-04-11T15:07:43.538Z</time></trkpt><trkpt lat="44.6528946" lon="7.8579642"><ele>293.0</ele><time>2026-04-11T15:07:47.538Z</time></trkpt><trkpt lat="44.6529684" lon="7.8579987"><ele>293.0</ele><time>2026-04-11T15:07:51.538Z</time></trkpt><trkpt lat="44.6530487" lon="7.8579177"><ele>293.0</ele><time>2026-04-11T15:08:52.594Z</time></trkpt><trkpt lat="44.6531222" lon="7.8579212"><ele>292.85714285714283</ele><time>2026-04-11T15:09:08.516Z</time></trkpt><trkpt lat="44.653185" lon="7.8579103"><ele>292.7142857142857</ele><time>2026-04-11T15:09:11.581Z</time></trkpt><trkpt lat="44.6532675" lon="7.8579036"><ele>292.57142857142856</ele><time>2026-04-11T15:09:14.599Z</time></trkpt><trkpt lat="44.6533397" lon="7.8579185"><ele>292.42857142857144</ele><time>2026-04-11T15:09:16.615Z</time></trkpt><trkpt lat="44.653408" lon="7.8579262"><ele>292.2857142857143</ele><time>2026-04-11T15:09:18.617Z</time></trkpt><trkpt lat="44.6534845" lon="7.8579444"><ele>292.1428571428571</ele><time>2026-04-11T15:09:20.539Z</time></trkpt><trkpt lat="44.6535488" lon="7.8579532"><ele>292.0</ele><time>2026-04-11T15:09:22.551Z</time></trkpt><trkpt lat="44.6536255" lon="7.8579754"><ele>292.0</ele><time>2026-04-11T15:09:24.568Z</time></trkpt><trkpt lat="44.6536987" lon="7.8579889"><ele>292.0</ele><time>2026-04-11T15:09:26.539Z</time></trkpt><trkpt lat="44.6537654" lon="7.857992"><ele>292.0</ele><time>2026-04-11T15:09:28.538Z</time></trkpt><trkpt lat="44.6538475" lon="7.8580321"><ele>292.0</ele><time>2026-04-11T15:09:30.538Z</time></trkpt><trkpt lat="44.6539028" lon="7.8579781"><ele>292.0</ele><time>2026-04-11T15:09:33.539Z</time></trkpt><trkpt lat="44.6538773" lon="7.8578372"><ele>292.0</ele><time>2026-04-11T15:09:36.539Z</time></trkpt><trkpt lat="44.6538555" lon="7.8577056"><ele>292.0</ele><time>2026-04-11T15:09:38.539Z</time></trkpt><trkpt lat="44.6538357" lon="7.8575761"><ele>292.0</ele><time>2026-04-11T15:09:40.539Z</time></trkpt><trkpt lat="44.6538186" lon="7.8574267"><ele>292.0</ele><time>2026-04-11T15:09:42.538Z</time></trkpt><trkpt lat="44.6538237" lon="7.8573248"><ele>292.0</ele><time>2026-04-11T15:09:44.539Z</time></trkpt><trkpt lat="44.6538186" lon="7.8572101"><ele>292.0</ele><time>2026-04-11T15:09:46.539Z</time></trkpt><trkpt lat="44.6538222" lon="7.8571016"><ele>292.0</ele><time>2026-04-11T15:09:49.539Z</time></trkpt><trkpt lat="44.653892" lon="7.8570776"><ele>292.0</ele><time>2026-04-11T15:09:56.539Z</time></trkpt><trkpt lat="44.6538155" lon="7.8570085"><ele>292.0</ele><time>2026-04-11T15:10:01.539Z</time></trkpt><trkpt lat="44.6538073" lon="7.857112"><ele>292.0</ele><time>2026-04-11T15:10:56.574Z</time></trkpt></trkseg></trk></gpx>